<?xml version='1.0' encoding='UTF-8'?><gpx version="1.1" creator="JPX - https://github.com/jenetics/jpx" xmlns="http://www.topografix.com/GPX/1/1"><trk><trkseg><trkpt lat="39.16998408181255" lon="16.06385970137282"><ele>0.0</ele><time>2026-05-03T07:39:24Z</time></trkpt><trkpt lat="39.16991963480552" lon="16.063862989231236"><ele>0.0</ele><time>2026-05-03T07:39:25Z</time></trkpt><trkpt lat="39.16982821301221" lon="16.063861469312634"><ele>0.0</ele><time>2026-05-03T07:39:27Z</time></trkpt><trkpt lat="39.16973018404311" lon="16.06383749774379"><ele>0.0</ele><time>2026-05-03T07:39:41Z</time></trkpt><trkpt lat="39.16966227116997" lon="16.063825926949725"><ele>0.0</ele><time>2026-05-03T07:39:42Z</time></trkpt><trkpt lat="39.16958787800897" lon="16.063832875873274"><ele>0.0</ele><time>2026-05-03T07:39:43Z</time></trkpt><trkpt lat="39.16951122438426" lon="16.06381039264956"><ele>0.0</ele><time>2026-05-03T07:39:44Z</time></trkpt><trkpt lat="39.169434139454516" lon="16.06381039264944"><ele>0.0</ele><time>2026-05-03T07:39:45Z</time></trkpt><trkpt lat="39.169355663735026" lon="16.06381039264992"><ele>0.0</ele><time>2026-05-03T07:39:46Z</time></trkpt><trkpt lat="39.16927762257445" lon="16.063845604879422"><ele>0.0</ele><time>2026-05-03T07:39:47Z</time></trkpt><trkpt lat="39.16921917634344" lon="16.063956613268296"><ele>0.0</ele><time>2026-05-03T07:39:49Z</time></trkpt><trkpt lat="39.169134735482864" lon="16.064058942733258"><ele>1.4</ele><time>2026-05-03T07:39:52Z</time></trkpt><trkpt lat="39.169061687078575" lon="16.064125190865465"><ele>2.8</ele><time>2026-05-03T07:39:53.999Z</time></trkpt><trkpt lat="39.16898598980088" lon="16.06417321641642"><ele>4.199999999999999</ele><time>2026-05-03T07:39:55.999Z</time></trkpt><trkpt lat="39.16887167974308" lon="16.06418571981605"><ele>5.6</ele><time>2026-05-03T07:39:57.999Z</time></trkpt><trkpt lat="39.16875360564348" lon="16.064208979699725"><ele>7.0</ele><time>2026-05-03T07:39:59.999Z</time></trkpt><trkpt lat="39.168691032953525" lon="16.06419210747103"><ele>7.000000000000001</ele><time>2026-05-03T07:40:00.999Z</time></trkpt><trkpt lat="39.16860456070045" lon="16.064193016642193"><ele>7.0</ele><time>2026-05-03T07:40:02.999Z</time></trkpt><trkpt lat="39.168486441274304" lon="16.06419499934418"><ele>7.0</ele><time>2026-05-03T07:40:04.999Z</time></trkpt><trkpt lat="39.16841417594182" lon="16.064197897876095"><ele>7.0</ele><time>2026-05-03T07:40:05.999Z</time></trkpt><trkpt lat="39.16833883708505" lon="16.06420091968738"><ele>7.000000000000001</ele><time>2026-05-03T07:40:06.999Z</time></trkpt><trkpt lat="39.1682653412297" lon="16.0642234908449"><ele>7.0</ele><time>2026-05-03T07:40:07.999Z</time></trkpt><trkpt lat="39.168191549033516" lon="16.06420682735952"><ele>6.6</ele><time>2026-05-03T07:40:08.999Z</time></trkpt><trkpt lat="39.16811054611749" lon="16.06421007635529"><ele>6.199999999999999</ele><time>2026-05-03T07:40:09.999Z</time></trkpt><trkpt lat="39.168020460060674" lon="16.064218076188027"><ele>5.8</ele><time>2026-05-03T07:40:10.999Z</time></trkpt><trkpt lat="39.16792369333272" lon="16.064236908808816"><ele>5.4</ele><time>2026-05-03T07:40:11.999Z</time></trkpt><trkpt lat="39.16782316089291" lon="16.064250540591544"><ele>5.0</ele><time>2026-05-03T07:40:12.999Z</time></trkpt><trkpt lat="39.167713443391605" lon="16.064254449395005"><ele>5.0</ele><time>2026-05-03T07:40:13.999Z</time></trkpt><trkpt lat="39.16760175579543" lon="16.064260074116962"><ele>5.0</ele><time>2026-05-03T07:40:14.999Z</time></trkpt><trkpt lat="39.16748924237683" lon="16.064266470317587"><ele>5.0</ele><time>2026-05-03T07:40:15.999Z</time></trkpt><trkpt lat="39.16737744358772" lon="16.064274854208765"><ele>5.0</ele><time>2026-05-03T07:40:16.999Z</time></trkpt><trkpt lat="39.16725773422703" lon="16.064276465458676"><ele>5.25</ele><time>2026-05-03T07:40:17.999Z</time></trkpt><trkpt lat="39.16713278985808" lon="16.0642755303963"><ele>5.5</ele><time>2026-05-03T07:40:18.999Z</time></trkpt><trkpt lat="39.16700628042067" lon="16.064277274527782"><ele>5.75</ele><time>2026-05-03T07:40:19.999Z</time></trkpt><trkpt lat="39.16688112074809" lon="16.064277276283313"><ele>6.0</ele><time>2026-05-03T07:40:20.999Z</time></trkpt><trkpt lat="39.166752520989434" lon="16.064282608769435"><ele>6.0</ele><time>2026-05-03T07:40:21.999Z</time></trkpt><trkpt lat="39.16661715124744" lon="16.064283495793532"><ele>6.0</ele><time>2026-05-03T07:40:22.999Z</time></trkpt><trkpt lat="39.16647882733744" lon="16.064284341238217"><ele>6.0</ele><time>2026-05-03T07:40:23.999Z</time></trkpt><trkpt lat="39.16633440591457" lon="16.06428447411395"><ele>6.0</ele><time>2026-05-03T07:40:24.999Z</time></trkpt><trkpt lat="39.16619107115388" lon="16.064284457542374"><ele>6.25</ele><time>2026-05-03T07:40:25.999Z</time></trkpt><trkpt lat="39.16604750539647" lon="16.064283356856215"><ele>6.5</ele><time>2026-05-03T07:40:26.999Z</time></trkpt><trkpt lat="39.16590196782362" lon="16.06428242878377"><ele>6.75</ele><time>2026-05-03T07:40:27.999Z</time></trkpt><trkpt lat="39.16576013674477" lon="16.064282365235666"><ele>7.0</ele><time>2026-05-03T07:40:28.999Z</time></trkpt><trkpt lat="39.16561588181916" lon="16.064282573630543"><ele>7.25</ele><time>2026-05-03T07:40:29.999Z</time></trkpt><trkpt lat="39.16547125748643" lon="16.064286894006905"><ele>7.5</ele><time>2026-05-03T07:40:30.999Z</time></trkpt><trkpt lat="39.16532970130339" lon="16.06428978802252"><ele>7.75</ele><time>2026-05-03T07:40:31.999Z</time></trkpt><trkpt lat="39.165184937784744" lon="16.06429196518801"><ele>8.0</ele><time>2026-05-03T07:40:32.999Z</time></trkpt><trkpt lat="39.16504290169417" lon="16.0642896068855"><ele>8.0</ele><time>2026-05-03T07:40:33.999Z</time></trkpt><trkpt lat="39.16489997198744" lon="16.06428213866621"><ele>8.0</ele><time>2026-05-03T07:40:34.999Z</time></trkpt><trkpt lat="39.16476356686647" lon="16.06428346211711"><ele>8.0</ele><time>2026-05-03T07:40:35.999Z</time></trkpt><trkpt lat="39.16462416667039" lon="16.0642913760024"><ele>8.0</ele><time>2026-05-03T07:40:36.999Z</time></trkpt><trkpt lat="39.1644869966957" lon="16.06429386023624"><ele>7.75</ele><time>2026-05-03T07:40:37.999Z</time></trkpt><trkpt lat="39.16434983833887" lon="16.064293549329342"><ele>7.5</ele><time>2026-05-03T07:40:38.999Z</time></trkpt><trkpt lat="39.16421366049985" lon="16.064293274330335"><ele>7.25</ele><time>2026-05-03T07:40:39.999Z</time></trkpt><trkpt lat="39.1640721552625" lon="16.064290336852455"><ele>7.0</ele><time>2026-05-03T07:40:40.999Z</time></trkpt><trkpt lat="39.16393521750892" lon="16.064287324153355"><ele>7.0</ele><time>2026-05-03T07:40:41.999Z</time></trkpt><trkpt lat="39.163796382249366" lon="16.064289695191"><ele>7.0</ele><time>2026-05-03T07:40:42.999Z</time></trkpt><trkpt lat="39.1636592551244" lon="16.06429230258552"><ele>7.0</ele><time>2026-05-03T07:40:43.999Z</time></trkpt><trkpt lat="39.1635222746181" lon="16.06429558996118"><ele>7.0</ele><time>2026-05-03T07:40:44.999Z</time></trkpt><trkpt lat="39.1633851223721" lon="16.064307426116276"><ele>7.0</ele><time>2026-05-03T07:40:45.999Z</time></trkpt><trkpt lat="39.1632539822605" lon="16.06430069256499"><ele>7.0</ele><time>2026-05-03T07:40:46.999Z</time></trkpt><trkpt lat="39.163123797826394" lon="16.064296984432445"><ele>7.0</ele><time>2026-05-03T07:40:47.999Z</time></trkpt><trkpt lat="39.16299823001724" lon="16.064280926484145"><ele>7.0</ele><time>2026-05-03T07:40:48.999Z</time></trkpt><trkpt lat="39.16287196975066" lon="16.064257745033657"><ele>6.8</ele><time>2026-05-03T07:40:49.999Z</time></trkpt><trkpt lat="39.16275894062534" lon="16.064245250496167"><ele>6.6</ele><time>2026-05-03T07:40:50.999Z</time></trkpt><trkpt lat="39.1626679700708" lon="16.06424352914508"><ele>6.3999999999999995</ele><time>2026-05-03T07:40:51.999Z</time></trkpt><trkpt lat="39.1625717795421" lon="16.064269448032242"><ele>6.199999999999999</ele><time>2026-05-03T07:40:53.999Z</time></trkpt><trkpt lat="39.16255706290771" lon="16.064373861341664"><ele>6.0</ele><time>2026-05-03T07:40:55.999Z</time></trkpt><trkpt lat="39.16255837476411" lon="16.064507945500107"><ele>6.0</ele><time>2026-05-03T07:40:57.999Z</time></trkpt><trkpt lat="39.16256449587725" lon="16.06461168092757"><ele>6.0</ele><time>2026-05-03T07:40:58.999Z</time></trkpt><trkpt lat="39.16253254316355" lon="16.06473402349905"><ele>6.0</ele><time>2026-05-03T07:40:59.999Z</time></trkpt><trkpt lat="39.16251332798044" lon="16.064868776607184"><ele>6.0</ele><time>2026-05-03T07:41:00.999Z</time></trkpt><trkpt lat="39.16249119507307" lon="16.065018762860518"><ele>6.0</ele><time>2026-05-03T07:41:01.999Z</time></trkpt><trkpt lat="39.16246798572628" lon="16.06517692536111"><ele>6.5</ele><time>2026-05-03T07:41:02.999Z</time></trkpt><trkpt lat="39.16244535742456" lon="16.065331952693718"><ele>7.0</ele><time>2026-05-03T07:41:03.999Z</time></trkpt><trkpt lat="39.16242420656122" lon="16.06548618569334"><ele>7.5</ele><time>2026-05-03T07:41:04.999Z</time></trkpt><trkpt lat="39.16240436895154" lon="16.06563048577623"><ele>8.0</ele><time>2026-05-03T07:41:05.999Z</time></trkpt><trkpt lat="39.162383833209134" lon="16.065790071538277"><ele>8.25</ele><time>2026-05-03T07:41:06.999Z</time></trkpt><trkpt lat="39.16236024394909" lon="16.065954541466002"><ele>8.5</ele><time>2026-05-03T07:41:07.999Z</time></trkpt><trkpt lat="39.162332795764726" lon="16.066131255837295"><ele>8.75</ele><time>2026-05-03T07:41:08.999Z</time></trkpt><trkpt lat="39.162304156072004" lon="16.066311293466992"><ele>9.0</ele><time>2026-05-03T07:41:09.999Z</time></trkpt><trkpt lat="39.162273040946495" lon="16.066501433564884"><ele>10.0</ele><time>2026-05-03T07:41:10.999Z</time></trkpt><trkpt lat="39.16224790919246" lon="16.066751147263023"><ele>11.0</ele><time>2026-05-03T07:41:11.999Z</time></trkpt><trkpt lat="39.162184801129115" lon="16.067049052191418"><ele>12.0</ele><time>2026-05-03T07:41:12.999Z</time></trkpt><trkpt lat="39.16214305704007" lon="16.067309854997333"><ele>13.0</ele><time>2026-05-03T07:41:13.999Z</time></trkpt><trkpt lat="39.16211195188997" lon="16.067478484548754"><ele>14.0</ele><time>2026-05-03T07:41:14.999Z</time></trkpt><trkpt lat="39.16208590933363" lon="16.06758402103725"><ele>15.0</ele><time>2026-05-03T07:41:15.999Z</time></trkpt><trkpt lat="39.16199927042204" lon="16.06765685383869"><ele>16.0</ele><time>2026-05-03T07:41:16.999Z</time></trkpt><trkpt lat="39.16189788013201" lon="16.067719395276807"><ele>17.0</ele><time>2026-05-03T07:41:17.999Z</time></trkpt><trkpt lat="39.16179155033603" lon="16.067803731191745"><ele>17.0</ele><time>2026-05-03T07:41:18.999Z</time></trkpt><trkpt lat="39.1616872613861" lon="16.067901599413393"><ele>17.0</ele><time>2026-05-03T07:41:19.999Z</time></trkpt><trkpt lat="39.161622388713475" lon="16.068013939707107"><ele>17.0</ele><time>2026-05-03T07:41:20.999Z</time></trkpt><trkpt lat="39.16163413759252" lon="16.06814472023494"><ele>17.0</ele><time>2026-05-03T07:41:21.999Z</time></trkpt><trkpt lat="39.16163018174266" lon="16.068269695133612"><ele>17.0</ele><time>2026-05-03T07:41:22.999Z</time></trkpt><trkpt lat="39.16165027012262" lon="16.068431462013024"><ele>19.75</ele><time>2026-05-03T07:41:23.999Z</time></trkpt><trkpt lat="39.16162044841047" lon="16.06859840600531"><ele>22.5</ele><time>2026-05-03T07:41:24.999Z</time></trkpt><trkpt lat="39.161581316011635" lon="16.0687669941509"><ele>25.25</ele><time>2026-05-03T07:41:25.999Z</time></trkpt><trkpt lat="39.16155523459677" lon="16.06892038205924"><ele>28.0</ele><time>2026-05-03T07:41:26.999Z</time></trkpt><trkpt lat="39.161545773344656" lon="16.06904196863919"><ele>29.4</ele><time>2026-05-03T07:41:27.999Z</time></trkpt><trkpt lat="39.16159445018317" lon="16.06914424086087"><ele>30.799999999999997</ele><time>2026-05-03T07:41:28.999Z</time></trkpt><trkpt lat="39.16159778812485" lon="16.069233297406964"><ele>32.2</ele><time>2026-05-03T07:41:29.999Z</time></trkpt><trkpt lat="39.161560184451574" lon="16.069307343674293"><ele>33.6</ele><time>2026-05-03T07:41:30.999Z</time></trkpt><trkpt lat="39.16139253479627" lon="16.069330259029186"><ele>35.0</ele><time>2026-05-03T07:41:32.999Z</time></trkpt><trkpt lat="39.16130182497974" lon="16.069360834254667"><ele>36.4</ele><time>2026-05-03T07:41:33.999Z</time></trkpt><trkpt lat="39.16120709534633" lon="16.069325581427275"><ele>37.8</ele><time>2026-05-03T07:41:34.999Z</time></trkpt><trkpt lat="39.16115509234221" lon="16.06923492973975"><ele>39.2</ele><time>2026-05-03T07:41:35.999Z</time></trkpt><trkpt lat="39.16107290275355" lon="16.06909871252815"><ele>40.6</ele><time>2026-05-03T07:41:37.999Z</time></trkpt><trkpt lat="39.161007703362365" lon="16.069040943042463"><ele>42.0</ele><time>2026-05-03T07:41:38.999Z</time></trkpt><trkpt lat="39.16093042653478" lon="16.06899058378314"><ele>38.800000000000004</ele><time>2026-05-03T07:41:39.999Z</time></trkpt><trkpt lat="39.160853080184445" lon="16.06895601492529"><ele>35.6</ele><time>2026-05-03T07:41:40.999Z</time></trkpt><trkpt lat="39.160731308505795" lon="16.068921447268192"><ele>32.400000000000006</ele><time>2026-05-03T07:41:41.999Z</time></trkpt><trkpt lat="39.16063672172344" lon="16.06890961394835"><ele>29.200000000000003</ele><time>2026-05-03T07:41:42.999Z</time></trkpt><trkpt lat="39.16054745929941" lon="16.06889719169993"><ele>26.0</ele><time>2026-05-03T07:41:43.999Z</time></trkpt><trkpt lat="39.16046589124274" lon="16.06888494438625"><ele>25.999999999999996</ele><time>2026-05-03T07:41:44.999Z</time></trkpt><trkpt lat="39.16034286457001" lon="16.06886647217217"><ele>26.0</ele><time>2026-05-03T07:41:46.999Z</time></trkpt><trkpt lat="39.16026609267258" lon="16.06885494522687"><ele>26.0</ele><time>2026-05-03T07:41:47.999Z</time></trkpt><trkpt lat="39.16019078791853" lon="16.068841304226368"><ele>26.0</ele><time>2026-05-03T07:41:49.999Z</time></trkpt><trkpt lat="39.16012813293038" lon="16.068829850777448"><ele>25.999999999999996</ele><time>2026-05-03T07:41:52.999Z</time></trkpt><trkpt lat="39.160049074560035" lon="16.068820091617734"><ele>26.0</ele><time>2026-05-03T07:41:53.999Z</time></trkpt><trkpt lat="39.15996795099791" lon="16.068816887059217"><ele>26.499999999999996</ele><time>2026-05-03T07:41:54.999Z</time></trkpt><trkpt lat="39.15986063753151" lon="16.068819780421546"><ele>27.0</ele><time>2026-05-03T07:41:56.999Z</time></trkpt><trkpt lat="39.15977304660552" lon="16.06883009036043"><ele>27.5</ele><time>2026-05-03T07:41:58.999Z</time></trkpt><trkpt lat="39.15969214430438" lon="16.06884094805212"><ele>28.0</ele><time>2026-05-03T07:42:00.999Z</time></trkpt><trkpt lat="39.159605466921796" lon="16.068851312846256"><ele>28.499999999999996</ele><time>2026-05-03T07:42:02.999Z</time></trkpt><trkpt lat="39.15952030175782" lon="16.068861230547128"><ele>29.0</ele><time>2026-05-03T07:42:04.999Z</time></trkpt><trkpt lat="39.159412827511645" lon="16.0688741546848"><ele>29.0</ele><time>2026-05-03T07:42:06.999Z</time></trkpt><trkpt lat="39.15931575472259" lon="16.068887201796723"><ele>29.0</ele><time>2026-05-03T07:42:08.999Z</time></trkpt><trkpt lat="39.15924037274381" lon="16.06889733353656"><ele>29.0</ele><time>2026-05-03T07:42:10.999Z</time></trkpt><trkpt lat="39.15932257988095" lon="16.069112808363926"><ele>29.0</ele><time>2026-05-03T07:43:05.999Z</time></trkpt><trkpt lat="39.159454407309084" lon="16.06915199530989"><ele>32.00000000000001</ele><time>2026-05-03T07:43:07.999Z</time></trkpt><trkpt lat="39.15951880683999" lon="16.069171622919367"><ele>35.0</ele><time>2026-05-03T07:43:08.999Z</time></trkpt><trkpt lat="39.159588001300136" lon="16.069192711897884"><ele>38.0</ele><time>2026-05-03T07:43:09.999Z</time></trkpt><trkpt lat="39.159663886573185" lon="16.06921584007933"><ele>41.0</ele><time>2026-05-03T07:43:10.999Z</time></trkpt><trkpt lat="39.159742995001096" lon="16.069239950619558"><ele>44.0</ele><time>2026-05-03T07:43:11.999Z</time></trkpt><trkpt lat="39.15981403828753" lon="16.069261603079187"><ele>47.00000000000001</ele><time>2026-05-03T07:43:12.999Z</time></trkpt><trkpt lat="39.15988241141832" lon="16.069282441726735"><ele>50.0</ele><time>2026-05-03T07:43:13.999Z</time></trkpt><trkpt lat="39.159983725061565" lon="16.06931959876908"><ele>50.0</ele><time>2026-05-03T07:43:14.999Z</time></trkpt><trkpt lat="39.160066129153456" lon="16.069362714073815"><ele>50.0</ele><time>2026-05-03T07:43:15.999Z</time></trkpt><trkpt lat="39.16013028687943" lon="16.069394595579418"><ele>50.0</ele><time>2026-05-03T07:43:18.999Z</time></trkpt><trkpt lat="39.159943675854315" lon="16.069387097829644"><ele>50.0</ele><time>2026-05-03T07:43:20.999Z</time></trkpt><trkpt lat="39.160154858263915" lon="16.06943461397484"><ele>50.00000000000001</ele><time>2026-05-03T07:43:29.999Z</time></trkpt><trkpt lat="39.16023929690666" lon="16.069445327864255"><ele>50.0</ele><time>2026-05-03T07:43:30.999Z</time></trkpt><trkpt lat="39.160321433505224" lon="16.06946007233452"><ele>50.0</ele><time>2026-05-03T07:43:31.999Z</time></trkpt><trkpt lat="39.16039800055835" lon="16.069469099596493"><ele>50.0</ele><time>2026-05-03T07:43:32.999Z</time></trkpt><trkpt lat="39.16049360920614" lon="16.069478985646985"><ele>50.00000000000001</ele><time>2026-05-03T07:43:34.999Z</time></trkpt><trkpt lat="39.16055024653306" lon="16.06951531846699"><ele>50.0</ele><time>2026-05-03T07:43:37.999Z</time></trkpt><trkpt lat="39.160454076223445" lon="16.070134730739372"><ele>55.833333333333336</ele><time>2026-05-03T07:43:39.999Z</time></trkpt><trkpt lat="39.16033471379931" lon="16.07014272487735"><ele>61.66666666666667</ele><time>2026-05-03T07:43:41.999Z</time></trkpt><trkpt lat="39.160260072000455" lon="16.07016647734825"><ele>67.5</ele><time>2026-05-03T07:43:42.999Z</time></trkpt><trkpt lat="39.16018531246009" lon="16.070190363039778"><ele>73.33333333333333</ele><time>2026-05-03T07:43:43.999Z</time></trkpt><trkpt lat="39.160115303249384" lon="16.070223993026598"><ele>79.16666666666666</ele><time>2026-05-03T07:43:44.999Z</time></trkpt><trkpt lat="39.16003099686946" lon="16.0702566402576"><ele>85.0</ele><time>2026-05-03T07:43:45.999Z</time></trkpt><trkpt lat="39.15996063680267" lon="16.070307419123512"><ele>85.0</ele><time>2026-05-03T07:43:46.999Z</time></trkpt><trkpt lat="39.15989079890247" lon="16.070347047040663"><ele>85.0</ele><time>2026-05-03T07:43:47.999Z</time></trkpt><trkpt lat="39.15981295977006" lon="16.070366988056787"><ele>85.0</ele><time>2026-05-03T07:43:48.999Z</time></trkpt><trkpt lat="39.15972338708847" lon="16.07039587781642"><ele>85.0</ele><time>2026-05-03T07:43:49.999Z</time></trkpt><trkpt lat="39.159616854408654" lon="16.070380695792135"><ele>85.0</ele><time>2026-05-03T07:43:50.999Z</time></trkpt><trkpt lat="39.15953132200793" lon="16.07034977377073"><ele>85.0</ele><time>2026-05-03T07:43:51.999Z</time></trkpt><trkpt lat="39.15945220303927" lon="16.070329439053918"><ele>85.16666666666666</ele><time>2026-05-03T07:43:52.999Z</time></trkpt><trkpt lat="39.15937972802756" lon="16.070321899418555"><ele>85.33333333333333</ele><time>2026-05-03T07:43:53.999Z</time></trkpt><trkpt lat="39.15925942590445" lon="16.070322207185782"><ele>85.5</ele><time>2026-05-03T07:43:55.999Z</time></trkpt><trkpt lat="39.15918256845129" lon="16.070321747268952"><ele>85.66666666666667</ele><time>2026-05-03T07:43:56.999Z</time></trkpt><trkpt lat="39.15910603667613" lon="16.070328318590597"><ele>85.83333333333334</ele><time>2026-05-03T07:43:57.999Z</time></trkpt><trkpt lat="39.15902306363979" lon="16.070389593828104"><ele>86.0</ele><time>2026-05-03T07:43:59.999Z</time></trkpt><trkpt lat="39.159009302187265" lon="16.07051374502357"><ele>86.0</ele><time>2026-05-03T07:44:01.999Z</time></trkpt><trkpt lat="39.1590152488315" lon="16.070597542859577"><ele>86.0</ele><time>2026-05-03T07:44:02.999Z</time></trkpt><trkpt lat="39.15904750105883" lon="16.07068942549745"><ele>86.0</ele><time>2026-05-03T07:44:03.999Z</time></trkpt><trkpt lat="39.15909353276251" lon="16.070800069340603"><ele>86.0</ele><time>2026-05-03T07:44:04.999Z</time></trkpt><trkpt lat="39.159128057516185" lon="16.07091679480113"><ele>86.0</ele><time>2026-05-03T07:44:05.999Z</time></trkpt><trkpt lat="39.15915010012051" lon="16.07104910565976"><ele>86.0</ele><time>2026-05-03T07:44:06.999Z</time></trkpt><trkpt lat="39.15916803575104" lon="16.071173151806835"><ele>91.4</ele><time>2026-05-03T07:44:07.999Z</time></trkpt><trkpt lat="39.1591885358064" lon="16.07129698536093"><ele>96.8</ele><time>2026-05-03T07:44:08.999Z</time></trkpt><trkpt lat="39.15921167229127" lon="16.071399667204055"><ele>102.20000000000002</ele><time>2026-05-03T07:44:09.999Z</time></trkpt><trkpt lat="39.159237079926385" lon="16.071501444937894"><ele>107.60000000000001</ele><time>2026-05-03T07:44:10.999Z</time></trkpt><trkpt lat="39.159263779041474" lon="16.071624019247935"><ele>113.0</ele><time>2026-05-03T07:44:11.999Z</time></trkpt><trkpt lat="39.15929265993355" lon="16.071740090116748"><ele>113.0</ele><time>2026-05-03T07:44:12.999Z</time></trkpt><trkpt lat="39.15932538011721" lon="16.071848616289426"><ele>113.00000000000001</ele><time>2026-05-03T07:44:13.999Z</time></trkpt><trkpt lat="39.15935734553039" lon="16.07195705901193"><ele>113.00000000000001</ele><time>2026-05-03T07:44:14.999Z</time></trkpt><trkpt lat="39.1593842995318" lon="16.072075790844"><ele>113.0</ele><time>2026-05-03T07:44:15.999Z</time></trkpt><trkpt lat="39.15940432289175" lon="16.072174386683237"><ele>113.0</ele><time>2026-05-03T07:44:16.999Z</time></trkpt><trkpt lat="39.15943651669574" lon="16.072308269735267"><ele>112.99999999999999</ele><time>2026-05-03T07:44:18.999Z</time></trkpt><trkpt lat="39.159498916543626" lon="16.072400563330685"><ele>113.0</ele><time>2026-05-03T07:44:20.999Z</time></trkpt><trkpt lat="39.1595137712353" lon="16.0724810659367"><ele>113.0</ele><time>2026-05-03T07:44:22.999Z</time></trkpt><trkpt lat="39.15944120258583" lon="16.07245891676566"><ele>113.0</ele><time>2026-05-03T07:44:28.999Z</time></trkpt><trkpt lat="39.159488376670275" lon="16.07254342172398"><ele>112.99999999999999</ele><time>2026-05-03T07:45:31Z</time></trkpt><trkpt lat="39.15950926314161" lon="16.07266164065961"><ele>113.0</ele><time>2026-05-03T07:45:33Z</time></trkpt><trkpt lat="39.1595597109112" lon="16.072710930615607"><ele>113.2</ele><time>2026-05-03T07:45:34Z</time></trkpt><trkpt lat="39.15960336032437" lon="16.07283282402227"><ele>113.4</ele><time>2026-05-03T07:45:36Z</time></trkpt><trkpt lat="39.15966968114586" lon="16.072918779519103"><ele>113.60000000000001</ele><time>2026-05-03T07:45:38Z</time></trkpt><trkpt lat="39.15975696570333" lon="16.07306007091715"><ele>113.80000000000001</ele><time>2026-05-03T07:45:40Z</time></trkpt><trkpt lat="39.15980388062379" lon="16.073143563137428"><ele>114.0</ele><time>2026-05-03T07:45:41Z</time></trkpt><trkpt lat="39.15984796020656" lon="16.073227823001297"><ele>117.25</ele><time>2026-05-03T07:45:42Z</time></trkpt><trkpt lat="39.1599173710059" lon="16.07338080299846"><ele>120.5</ele><time>2026-05-03T07:45:43Z</time></trkpt><trkpt lat="39.1599520301721" lon="16.073510241292084"><ele>123.75</ele><time>2026-05-03T07:45:44Z</time></trkpt><trkpt lat="39.159982178904926" lon="16.07364417868329"><ele>127.0</ele><time>2026-05-03T07:45:45Z</time></trkpt><trkpt lat="39.160041276120545" lon="16.073806207793695"><ele>127.0</ele><time>2026-05-03T07:45:47Z</time></trkpt><trkpt lat="39.160074186070496" lon="16.073898633899677"><ele>127.0</ele><time>2026-05-03T07:45:48Z</time></trkpt><trkpt lat="39.15981673504191" lon="16.074182754003957"><ele>127.0</ele><time>2026-05-03T07:45:50Z</time></trkpt><trkpt lat="39.15978552877013" lon="16.074281164356428"><ele>126.39999999999999</ele><time>2026-05-03T07:45:51Z</time></trkpt><trkpt lat="39.15974715555059" lon="16.074400029509718"><ele>125.79999999999998</ele><time>2026-05-03T07:45:52Z</time></trkpt><trkpt lat="39.15972007011923" lon="16.074522563115647"><ele>125.2</ele><time>2026-05-03T07:45:53Z</time></trkpt><trkpt lat="39.159705835043724" lon="16.074653241624905"><ele>124.6</ele><time>2026-05-03T07:45:54Z</time></trkpt><trkpt lat="39.159680062464346" lon="16.074785303039803"><ele>124.0</ele><time>2026-05-03T07:45:55Z</time></trkpt><trkpt lat="39.159652747208845" lon="16.07490803298494"><ele>126.80000000000001</ele><time>2026-05-03T07:45:56Z</time></trkpt><trkpt lat="39.1596240041465" lon="16.0750228350745"><ele>129.60000000000002</ele><time>2026-05-03T07:45:57Z</time></trkpt><trkpt lat="39.15961537487249" lon="16.075104384507828"><ele>132.4</ele><time>2026-05-03T07:45:57.999Z</time></trkpt><trkpt lat="39.159625933186106" lon="16.07518564604273"><ele>135.20000000000002</ele><time>2026-05-03T07:45:58.999Z</time></trkpt><trkpt lat="39.15966786748449" lon="16.07529958381053"><ele>138.0</ele><time>2026-05-03T07:46:00.999Z</time></trkpt><trkpt lat="39.15976277244952" lon="16.075438458174563"><ele>138.0</ele><time>2026-05-03T07:46:02.999Z</time></trkpt><trkpt lat="39.15979613896572" lon="16.075517983176645"><ele>138.0</ele><time>2026-05-03T07:46:03.999Z</time></trkpt><trkpt lat="39.15984951046729" lon="16.0755677966554"><ele>138.0</ele><time>2026-05-03T07:46:05.999Z</time></trkpt><trkpt lat="39.15988112884088" lon="16.075485601173614"><ele>138.0</ele><time>2026-05-03T07:46:07.999Z</time></trkpt><trkpt lat="39.15988363645327" lon="16.075344245837215"><ele>138.0</ele><time>2026-05-03T07:46:09.999Z</time></trkpt><trkpt lat="39.159899213412" lon="16.075258472795916"><ele>138.0</ele><time>2026-05-03T07:46:10.999Z</time></trkpt><trkpt lat="39.15992712768604" lon="16.07517148038834"><ele>144.83333333333334</ele><time>2026-05-03T07:46:11.999Z</time></trkpt><trkpt lat="39.159972215083016" lon="16.07510763354572"><ele>151.66666666666666</ele><time>2026-05-03T07:46:12.999Z</time></trkpt><trkpt lat="39.16003349411392" lon="16.075086578387758"><ele>158.5</ele><time>2026-05-03T07:46:35.999Z</time></trkpt><trkpt lat="39.16007781468798" lon="16.07519790663345"><ele>165.33333333333331</ele><time>2026-05-03T07:46:38.999Z</time></trkpt><trkpt lat="39.16010416485445" lon="16.07533469176274"><ele>172.16666666666666</ele><time>2026-05-03T07:46:40.999Z</time></trkpt><trkpt lat="39.160129064104495" lon="16.075412887319857"><ele>179.0</ele><time>2026-05-03T07:46:41.999Z</time></trkpt><trkpt lat="39.16017467869505" lon="16.075574811673565"><ele>179.0</ele><time>2026-05-03T07:46:43.999Z</time></trkpt><trkpt lat="39.160204270337694" lon="16.075677548719526"><ele>179.0</ele><time>2026-05-03T07:46:44.999Z</time></trkpt><trkpt lat="39.160249152973975" lon="16.075824131322914"><ele>179.0</ele><time>2026-05-03T07:46:46.999Z</time></trkpt><trkpt lat="39.16028244101024" lon="16.07592086269115"><ele>179.0</ele><time>2026-05-03T07:46:47.999Z</time></trkpt><trkpt lat="39.16033925267191" lon="16.076005416845664"><ele>179.0</ele><time>2026-05-03T07:46:49.999Z</time></trkpt><trkpt lat="39.16040691462158" lon="16.075994602015278"><ele>179.0</ele><time>2026-05-03T07:46:51.999Z</time></trkpt><trkpt lat="39.16036655530252" lon="16.076103027079263"><ele>181.83333333333331</ele><time>2026-05-03T07:47:02.999Z</time></trkpt><trkpt lat="39.160301097699985" lon="16.07617187602539"><ele>184.66666666666666</ele><time>2026-05-03T07:47:03.999Z</time></trkpt><trkpt lat="39.160252450646794" lon="16.076252773427786"><ele>187.5</ele><time>2026-05-03T07:47:04.999Z</time></trkpt><trkpt lat="39.160221047104685" lon="16.076331605481045"><ele>190.33333333333331</ele><time>2026-05-03T07:47:05.999Z</time></trkpt><trkpt lat="39.160196173603964" lon="16.076422341585754"><ele>193.16666666666666</ele><time>2026-05-03T07:47:07.999Z</time></trkpt><trkpt lat="39.16024286933334" lon="16.076498642413938"><ele>196.0</ele><time>2026-05-03T07:47:10.999Z</time></trkpt><trkpt lat="39.16028163255023" lon="16.076405331487937"><ele>195.99999999999997</ele><time>2026-05-03T07:47:12.999Z</time></trkpt><trkpt lat="39.16034107317885" lon="16.076283006933807"><ele>196.0</ele><time>2026-05-03T07:47:14.999Z</time></trkpt><trkpt lat="39.16037347872592" lon="16.07620339889108"><ele>196.0</ele><time>2026-05-03T07:47:15.999Z</time></trkpt><trkpt lat="39.16044038281446" lon="16.076113043900108"><ele>196.0</ele><time>2026-05-03T07:47:17.999Z</time></trkpt><trkpt lat="39.16050329990788" lon="16.076143573900985"><ele>195.99999999999997</ele><time>2026-05-03T07:47:20.999Z</time></trkpt><trkpt lat="39.160544141181695" lon="16.076218893491145"><ele>196.0</ele><time>2026-05-03T07:47:21.999Z</time></trkpt><trkpt lat="39.16056722220135" lon="16.0763038735029"><ele>196.0</ele><time>2026-05-03T07:47:22.999Z</time></trkpt><trkpt lat="39.1605807521085" lon="16.076394821698035"><ele>196.0</ele><time>2026-05-03T07:47:23.999Z</time></trkpt><trkpt lat="39.16063068952713" lon="16.076514967796317"><ele>196.0</ele><time>2026-05-03T07:47:24.999Z</time></trkpt><trkpt lat="39.16066331217948" lon="16.076619188831582"><ele>196.0</ele><time>2026-05-03T07:47:26Z</time></trkpt><trkpt lat="39.160653429861476" lon="16.07676703272703"><ele>196.0</ele><time>2026-05-03T07:47:28Z</time></trkpt><trkpt lat="39.16056687067908" lon="16.076763439110678"><ele>196.0</ele><time>2026-05-03T07:47:31Z</time></trkpt><trkpt lat="39.160574247390606" lon="16.076605170849493"><ele>196.0</ele><time>2026-05-03T07:47:33Z</time></trkpt><trkpt lat="39.16054886380295" lon="16.076522890243773"><ele>196.0</ele><time>2026-05-03T07:47:34Z</time></trkpt><trkpt lat="39.16050377587768" lon="16.076457556233933"><ele>196.0</ele><time>2026-05-03T07:47:35Z</time></trkpt><trkpt lat="39.16043784597251" lon="16.076502755240046"><ele>196.0</ele><time>2026-05-03T07:47:37Z</time></trkpt><trkpt lat="39.16044787280279" lon="16.07669948887751"><ele>200.0</ele><time>2026-05-03T07:47:39Z</time></trkpt><trkpt lat="39.16045861208133" lon="16.076845285290027"><ele>204.0</ele><time>2026-05-03T07:47:40Z</time></trkpt><trkpt lat="39.16047019414355" lon="16.076977084135176"><ele>208.00000000000003</ele><time>2026-05-03T07:47:41Z</time></trkpt><trkpt lat="39.16047609396367" lon="16.077066577864304"><ele>212.0</ele><time>2026-05-03T07:47:42Z</time></trkpt><trkpt lat="39.160465186577056" lon="16.077212378722074"><ele>216.0</ele><time>2026-05-03T07:47:44Z</time></trkpt><trkpt lat="39.160452569801016" lon="16.07731173910861"><ele>216.0</ele><time>2026-05-03T07:47:46Z</time></trkpt><trkpt lat="39.160449728276014" lon="16.077401991787788"><ele>216.0</ele><time>2026-05-03T07:47:48Z</time></trkpt><trkpt lat="39.16048788595474" lon="16.07749960604475"><ele>216.0</ele><time>2026-05-03T07:47:50Z</time></trkpt><trkpt lat="39.160562040809964" lon="16.077592007079648"><ele>216.0</ele><time>2026-05-03T07:47:52Z</time></trkpt><trkpt lat="39.16060118599097" lon="16.07770529506752"><ele>216.0</ele><time>2026-05-03T07:47:54Z</time></trkpt><trkpt lat="39.16063961467831" lon="16.077783061589336"><ele>216.0</ele><time>2026-05-03T07:47:56Z</time></trkpt><trkpt lat="39.16070323691914" lon="16.077814434727202"><ele>216.60000000000002</ele><time>2026-05-03T07:47:58Z</time></trkpt><trkpt lat="39.160682139853975" lon="16.077964740639462"><ele>217.20000000000002</ele><time>2026-05-03T07:48:00Z</time></trkpt><trkpt lat="39.160663719775854" lon="16.078073540107027"><ele>217.79999999999998</ele><time>2026-05-03T07:48:01Z</time></trkpt><trkpt lat="39.16066114356839" lon="16.07818932679556"><ele>218.39999999999998</ele><time>2026-05-03T07:48:03Z</time></trkpt><trkpt lat="39.160708858919264" lon="16.0782540091937"><ele>219.0</ele><time>2026-05-03T07:48:04Z</time></trkpt><trkpt lat="39.16076714538178" lon="16.078390306686444"><ele>220.0</ele><time>2026-05-03T07:48:06Z</time></trkpt><trkpt lat="39.16077791565586" lon="16.0785569798501"><ele>220.99999999999997</ele><time>2026-05-03T07:48:08Z</time></trkpt><trkpt lat="39.16074604548084" lon="16.07867349201693"><ele>221.99999999999997</ele><time>2026-05-03T07:48:09Z</time></trkpt><trkpt lat="39.160720882526114" lon="16.07878085820885"><ele>223.0</ele><time>2026-05-03T07:48:09.999Z</time></trkpt><trkpt lat="39.1606979030575" lon="16.078879675006814"><ele>224.0</ele><time>2026-05-03T07:48:10.999Z</time></trkpt><trkpt lat="39.1606745290038" lon="16.078958211561233"><ele>220.39999999999998</ele><time>2026-05-03T07:48:11.999Z</time></trkpt><trkpt lat="39.16069885280257" lon="16.079115534801574"><ele>216.79999999999998</ele><time>2026-05-03T07:48:13.999Z</time></trkpt><trkpt lat="39.1607592952445" lon="16.079262773288743"><ele>213.2</ele><time>2026-05-03T07:48:15.999Z</time></trkpt><trkpt lat="39.16084151743898" lon="16.079318819654905"><ele>209.60000000000002</ele><time>2026-05-03T07:48:16.999Z</time></trkpt><trkpt lat="39.16093203547983" lon="16.079379181301732"><ele>206.0</ele><time>2026-05-03T07:48:17.999Z</time></trkpt><trkpt lat="39.16103160450035" lon="16.079420636037177"><ele>213.00000000000003</ele><time>2026-05-03T07:48:18.999Z</time></trkpt><trkpt lat="39.16111742871135" lon="16.07945022522771"><ele>220.0</ele><time>2026-05-03T07:48:19.999Z</time></trkpt><trkpt lat="39.161192509155924" lon="16.07948222958226"><ele>227.0</ele><time>2026-05-03T07:48:20.999Z</time></trkpt><trkpt lat="39.16125303261684" lon="16.07953330752432"><ele>234.0</ele><time>2026-05-03T07:48:21.999Z</time></trkpt><trkpt lat="39.16130708457375" lon="16.07959109394065"><ele>241.00000000000003</ele><time>2026-05-03T07:48:22.999Z</time></trkpt><trkpt lat="39.16135016365011" lon="16.07965657412487"><ele>248.0</ele><time>2026-05-03T07:48:23.999Z</time></trkpt><trkpt lat="39.16137826647652" lon="16.079745956820787"><ele>248.00000000000003</ele><time>2026-05-03T07:48:24.999Z</time></trkpt><trkpt lat="39.16139493529519" lon="16.079843681768534"><ele>248.0</ele><time>2026-05-03T07:48:25.999Z</time></trkpt><trkpt lat="39.161420170852445" lon="16.07994698405903"><ele>248.0</ele><time>2026-05-03T07:48:26.999Z</time></trkpt><trkpt lat="39.16141671995171" lon="16.080053540645782"><ele>248.0</ele><time>2026-05-03T07:48:27.999Z</time></trkpt><trkpt lat="39.161460299882464" lon="16.08014506331386"><ele>248.00000000000003</ele><time>2026-05-03T07:48:28.999Z</time></trkpt><trkpt lat="39.16152292606873" lon="16.08024597852278"><ele>248.0</ele><time>2026-05-03T07:48:29.999Z</time></trkpt><trkpt lat="39.16159914573704" lon="16.08033983036736"><ele>248.2</ele><time>2026-05-03T07:48:30.999Z</time></trkpt><trkpt lat="39.16167906778235" lon="16.080440469224204"><ele>248.4</ele><time>2026-05-03T07:48:31.999Z</time></trkpt><trkpt lat="39.16174268035551" lon="16.08052029556164"><ele>248.59999999999997</ele><time>2026-05-03T07:48:32.999Z</time></trkpt><trkpt lat="39.16178420162067" lon="16.080636656459816"><ele>248.79999999999998</ele><time>2026-05-03T07:48:33.999Z</time></trkpt><trkpt lat="39.161835664561764" lon="16.080778791326157"><ele>249.0</ele><time>2026-05-03T07:48:34.999Z</time></trkpt><trkpt lat="39.161929643093416" lon="16.080910153323025"><ele>248.25</ele><time>2026-05-03T07:48:35.999Z</time></trkpt><trkpt lat="39.16196289737451" lon="16.081078700956162"><ele>247.5</ele><time>2026-05-03T07:48:36.999Z</time></trkpt><trkpt lat="39.161971513605195" lon="16.081253117025653"><ele>246.75</ele><time>2026-05-03T07:48:37.999Z</time></trkpt><trkpt lat="39.1619373435625" lon="16.081419447037735"><ele>246.0</ele><time>2026-05-03T07:48:38.999Z</time></trkpt><trkpt lat="39.16188236758978" lon="16.081575069036933"><ele>247.0</ele><time>2026-05-03T07:48:39.999Z</time></trkpt><trkpt lat="39.16178426819603" lon="16.081714451067413"><ele>248.0</ele><time>2026-05-03T07:48:40.999Z</time></trkpt><trkpt lat="39.16172042054687" lon="16.081885722461973"><ele>249.0</ele><time>2026-05-03T07:48:41.999Z</time></trkpt><trkpt lat="39.16169594538542" lon="16.082072306596253"><ele>250.0</ele><time>2026-05-03T07:48:42.999Z</time></trkpt><trkpt lat="39.16166116124692" lon="16.08226408668993"><ele>255.33333333333331</ele><time>2026-05-03T07:48:43.999Z</time></trkpt><trkpt lat="39.161635373848675" lon="16.08245769145754"><ele>260.6666666666667</ele><time>2026-05-03T07:48:44.999Z</time></trkpt><trkpt lat="39.16159610595489" lon="16.08264862008425"><ele>266.0</ele><time>2026-05-03T07:48:45.999Z</time></trkpt><trkpt lat="39.161573225515575" lon="16.08283769470771"><ele>266.0</ele><time>2026-05-03T07:48:46.999Z</time></trkpt><trkpt lat="39.16155876963565" lon="16.083028912978417"><ele>266.0</ele><time>2026-05-03T07:48:47.999Z</time></trkpt><trkpt lat="39.161565055727586" lon="16.083220384962342"><ele>266.0</ele><time>2026-05-03T07:48:48.999Z</time></trkpt><trkpt lat="39.16159479037224" lon="16.083397906138295"><ele>266.0</ele><time>2026-05-03T07:48:49.999Z</time></trkpt><trkpt lat="39.16159873228571" lon="16.083576999639472"><ele>267.75</ele><time>2026-05-03T07:48:50.999Z</time></trkpt><trkpt lat="39.16161617431449" lon="16.083750037599298"><ele>269.5</ele><time>2026-05-03T07:48:51.999Z</time></trkpt><trkpt lat="39.161632903624756" lon="16.083916005090565"><ele>271.25</ele><time>2026-05-03T07:48:52.999Z</time></trkpt><trkpt lat="39.16164610178361" lon="16.084051827504943"><ele>273.0</ele><time>2026-05-03T07:48:53.999Z</time></trkpt><trkpt lat="39.16165662742841" lon="16.0841647696451"><ele>274.0</ele><time>2026-05-03T07:48:54.999Z</time></trkpt><trkpt lat="39.161665891384274" lon="16.084264173790405"><ele>275.0</ele><time>2026-05-03T07:48:55.999Z</time></trkpt><trkpt lat="39.16167398166376" lon="16.08435098374668"><ele>276.0</ele><time>2026-05-03T07:48:56.999Z</time></trkpt><trkpt lat="39.16168663688521" lon="16.084486776698196"><ele>277.0</ele><time>2026-05-03T07:48:58.999Z</time></trkpt><trkpt lat="39.161594113503426" lon="16.084467604497334"><ele>278.0</ele><time>2026-05-03T07:49:01.999Z</time></trkpt><trkpt lat="39.16150431480836" lon="16.0844113240551"><ele>279.0</ele><time>2026-05-03T07:49:02.999Z</time></trkpt><trkpt lat="39.161435768549126" lon="16.084352744387523"><ele>275.5</ele><time>2026-05-03T07:49:03.999Z</time></trkpt><trkpt lat="39.16135632309345" lon="16.084317109562864"><ele>272.0</ele><time>2026-05-03T07:49:04.999Z</time></trkpt><trkpt lat="39.16127417352508" lon="16.08436197620268"><ele>268.5</ele><time>2026-05-03T07:49:05.999Z</time></trkpt><trkpt lat="39.16121550737384" lon="16.08439669279484"><ele>265.0</ele><time>2026-05-03T07:49:06.999Z</time></trkpt><trkpt lat="39.161191043788996" lon="16.08451282213692"><ele>261.5</ele><time>2026-05-03T07:49:07.999Z</time></trkpt><trkpt lat="39.16118057394143" lon="16.084644197197065"><ele>258.0</ele><time>2026-05-03T07:49:08.999Z</time></trkpt><trkpt lat="39.16115737159551" lon="16.084797828698758"><ele>258.6</ele><time>2026-05-03T07:49:09.999Z</time></trkpt><trkpt lat="39.16114511980005" lon="16.0849586740882"><ele>259.20000000000005</ele><time>2026-05-03T07:49:10.999Z</time></trkpt><trkpt lat="39.1611372307278" lon="16.08511303497207"><ele>259.8</ele><time>2026-05-03T07:49:11.999Z</time></trkpt><trkpt lat="39.16114666087491" lon="16.085239952877686"><ele>260.40000000000003</ele><time>2026-05-03T07:49:12.999Z</time></trkpt><trkpt lat="39.16113877134855" lon="16.085342018928127"><ele>261.0</ele><time>2026-05-03T07:49:13.999Z</time></trkpt><trkpt lat="39.16107004659685" lon="16.08541999819666"><ele>261.0</ele><time>2026-05-03T07:49:15.999Z</time></trkpt><trkpt lat="39.16099605289175" lon="16.08537939643803"><ele>261.0</ele><time>2026-05-03T07:49:16.999Z</time></trkpt><trkpt lat="39.16091271132662" lon="16.08536083780553"><ele>261.0</ele><time>2026-05-03T07:49:17.999Z</time></trkpt><trkpt lat="39.16085693996702" lon="16.085288367654805"><ele>261.0</ele><time>2026-05-03T07:49:18.999Z</time></trkpt><trkpt lat="39.160860883143066" lon="16.085177484393164"><ele>261.0</ele><time>2026-05-03T07:49:19.999Z</time></trkpt><trkpt lat="39.16084456624813" lon="16.085058014706487"><ele>261.0</ele><time>2026-05-03T07:49:20.999Z</time></trkpt><trkpt lat="39.16084878289167" lon="16.08491239629377"><ele>260.40000000000003</ele><time>2026-05-03T07:49:21.999Z</time></trkpt><trkpt lat="39.16084807289288" lon="16.084759935758555"><ele>259.8</ele><time>2026-05-03T07:49:22.999Z</time></trkpt><trkpt lat="39.16084979673042" lon="16.08461125712666"><ele>259.20000000000005</ele><time>2026-05-03T07:49:23.999Z</time></trkpt><trkpt lat="39.16086700955932" lon="16.084498839852476"><ele>258.6</ele><time>2026-05-03T07:49:24.999Z</time></trkpt><trkpt lat="39.16087633439715" lon="16.08441636270323"><ele>258.0</ele><time>2026-05-03T07:49:25.999Z</time></trkpt><trkpt lat="39.160825841018045" lon="16.084331647334587"><ele>258.0</ele><time>2026-05-03T07:49:27.999Z</time></trkpt><trkpt lat="39.16070097752199" lon="16.08432057377207"><ele>258.0</ele><time>2026-05-03T07:49:29.999Z</time></trkpt><trkpt lat="39.160612850738886" lon="16.084322752725544"><ele>258.0</ele><time>2026-05-03T07:49:32Z</time></trkpt><trkpt lat="39.16061859029551" lon="16.084167930951658"><ele>258.0</ele><time>2026-05-03T07:49:37Z</time></trkpt><trkpt lat="39.16064956592192" lon="16.08407460277943"><ele>258.0</ele><time>2026-05-03T07:49:39Z</time></trkpt><trkpt lat="39.16070464410237" lon="16.08396062641595"><ele>254.60000000000002</ele><time>2026-05-03T07:49:41Z</time></trkpt><trkpt lat="39.16076141834741" lon="16.083850205687988"><ele>251.20000000000002</ele><time>2026-05-03T07:49:43Z</time></trkpt><trkpt lat="39.16083701331061" lon="16.083721442732156"><ele>247.8</ele><time>2026-05-03T07:49:45Z</time></trkpt><trkpt lat="39.160879705504406" lon="16.083647449136787"><ele>244.4</ele><time>2026-05-03T07:49:46Z</time></trkpt><trkpt lat="39.160916891520486" lon="16.083576599985804"><ele>241.0</ele><time>2026-05-03T07:49:47Z</time></trkpt><trkpt lat="39.160985696468735" lon="16.08345113474831"><ele>240.99999999999997</ele><time>2026-05-03T07:49:49Z</time></trkpt><trkpt lat="39.16104456998443" lon="16.08332801300625"><ele>241.0</ele><time>2026-05-03T07:49:51Z</time></trkpt><trkpt lat="39.16107515667693" lon="16.083199729130175"><ele>241.0</ele><time>2026-05-03T07:49:53Z</time></trkpt><trkpt lat="39.16107016291769" lon="16.08310934140248"><ele>241.0</ele><time>2026-05-03T07:49:54Z</time></trkpt><trkpt lat="39.16105927367913" lon="16.083017827568266"><ele>240.99999999999997</ele><time>2026-05-03T07:49:55Z</time></trkpt><trkpt lat="39.16104126322836" lon="16.08292486829873"><ele>241.0</ele><time>2026-05-03T07:49:56Z</time></trkpt><trkpt lat="39.16100596158034" lon="16.08285367724021"><ele>238.16666666666666</ele><time>2026-05-03T07:49:57Z</time></trkpt><trkpt lat="39.160965910900295" lon="16.08275094534008"><ele>235.33333333333331</ele><time>2026-05-03T07:49:58.999Z</time></trkpt><trkpt lat="39.16087486473104" lon="16.082774690707776"><ele>232.5</ele><time>2026-05-03T07:50:00.999Z</time></trkpt><trkpt lat="39.16082796050659" lon="16.082828973499723"><ele>229.66666666666669</ele><time>2026-05-03T07:50:01.999Z</time></trkpt><trkpt lat="39.160759514160674" lon="16.08292701489647"><ele>226.83333333333334</ele><time>2026-05-03T07:50:03.999Z</time></trkpt><trkpt lat="39.16069746569454" lon="16.08299653557708"><ele>224.0</ele><time>2026-05-03T07:50:05.999Z</time></trkpt><trkpt lat="39.16064502930775" lon="16.083068764608797"><ele>222.00000000000003</ele><time>2026-05-03T07:50:07.999Z</time></trkpt><trkpt lat="39.160582291118175" lon="16.083134343231063"><ele>220.0</ele><time>2026-05-03T07:50:09.999Z</time></trkpt><trkpt lat="39.16051799818151" lon="16.083206229945247"><ele>218.0</ele><time>2026-05-03T07:50:21.999Z</time></trkpt><trkpt lat="39.16044949582647" lon="16.083231632556018"><ele>216.0</ele><time>2026-05-03T07:50:24.999Z</time></trkpt><trkpt lat="39.16038631806706" lon="16.083246239619506"><ele>214.00000000000003</ele><time>2026-05-03T07:50:28.999Z</time></trkpt><trkpt lat="39.16032094618466" lon="16.08329135691044"><ele>212.0</ele><time>2026-05-03T07:50:30.999Z</time></trkpt><trkpt lat="39.160209612154446" lon="16.083382150625184"><ele>212.00000000000003</ele><time>2026-05-03T07:50:32.999Z</time></trkpt><trkpt lat="39.160128011806954" lon="16.083440750280587"><ele>212.0</ele><time>2026-05-03T07:50:33.999Z</time></trkpt><trkpt lat="39.16003814737902" lon="16.083428931597183"><ele>212.0</ele><time>2026-05-03T07:50:34.999Z</time></trkpt><trkpt lat="39.15996610180496" lon="16.083456564593835"><ele>212.0</ele><time>2026-05-03T07:50:35.999Z</time></trkpt><trkpt lat="39.15990222913489" lon="16.083477764481287"><ele>212.00000000000003</ele><time>2026-05-03T07:50:36.999Z</time></trkpt><trkpt lat="39.15983503643598" lon="16.083490403870137"><ele>212.0</ele><time>2026-05-03T07:50:37.999Z</time></trkpt><trkpt lat="39.159761942037335" lon="16.083497237087595"><ele>208.83333333333334</ele><time>2026-05-03T07:50:38.999Z</time></trkpt><trkpt lat="39.159689962947894" lon="16.083517975567638"><ele>205.66666666666669</ele><time>2026-05-03T07:50:39.999Z</time></trkpt><trkpt lat="39.15963464544856" lon="16.083566212271535"><ele>202.5</ele><time>2026-05-03T07:50:40.999Z</time></trkpt><trkpt lat="39.159557529464756" lon="16.083597066361268"><ele>199.33333333333331</ele><time>2026-05-03T07:50:41.999Z</time></trkpt><trkpt lat="39.15946474970319" lon="16.083671285375473"><ele>196.16666666666666</ele><time>2026-05-03T07:50:42.999Z</time></trkpt><trkpt lat="39.15939473904343" lon="16.08374428233472"><ele>193.0</ele><time>2026-05-03T07:50:43.999Z</time></trkpt><trkpt lat="39.15933767085555" lon="16.083808710371528"><ele>192.99999999999997</ele><time>2026-05-03T07:50:44.999Z</time></trkpt><trkpt lat="39.15929082125466" lon="16.083902274767077"><ele>193.0</ele><time>2026-05-03T07:50:45.999Z</time></trkpt><trkpt lat="39.15924346467675" lon="16.083957655725822"><ele>193.0</ele><time>2026-05-03T07:50:46.999Z</time></trkpt><trkpt lat="39.15915591356189" lon="16.08400073022351"><ele>193.0</ele><time>2026-05-03T07:50:48.999Z</time></trkpt><trkpt lat="39.15905465871582" lon="16.08402611798292"><ele>192.99999999999997</ele><time>2026-05-03T07:50:51.999Z</time></trkpt><trkpt lat="39.15898691354899" lon="16.08396747189272"><ele>193.0</ele><time>2026-05-03T07:50:52.999Z</time></trkpt><trkpt lat="39.158923180485694" lon="16.083916217849918"><ele>191.2</ele><time>2026-05-03T07:50:53.999Z</time></trkpt><trkpt lat="39.15881259152781" lon="16.083827305680465"><ele>189.4</ele><time>2026-05-03T07:50:55.999Z</time></trkpt><trkpt lat="39.15877027115602" lon="16.083731328327215"><ele>187.6</ele><time>2026-05-03T07:50:57.999Z</time></trkpt><trkpt lat="39.15874703801225" lon="16.08362621226753"><ele>185.79999999999998</ele><time>2026-05-03T07:50:58.999Z</time></trkpt><trkpt lat="39.158733926581256" lon="16.083545346212983"><ele>184.0</ele><time>2026-05-03T07:50:59.999Z</time></trkpt><trkpt lat="39.158712910703684" lon="16.083411030571167"><ele>184.0</ele><time>2026-05-03T07:51:01.999Z</time></trkpt><trkpt lat="39.15870560829904" lon="16.08329414384204"><ele>184.0</ele><time>2026-05-03T07:51:03.999Z</time></trkpt><trkpt lat="39.15871734540843" lon="16.083191370380742"><ele>184.0</ele><time>2026-05-03T07:51:05.999Z</time></trkpt><trkpt lat="39.158823540934485" lon="16.08315347208301"><ele>184.0</ele><time>2026-05-03T07:51:07.999Z</time></trkpt><trkpt lat="39.1589291711693" lon="16.08313666865722"><ele>184.0</ele><time>2026-05-03T07:51:09.999Z</time></trkpt><trkpt lat="39.15903254660574" lon="16.083104424800563"><ele>181.6</ele><time>2026-05-03T07:51:11.999Z</time></trkpt><trkpt lat="39.15912958027962" lon="16.083045696264737"><ele>179.2</ele><time>2026-05-03T07:51:13.999Z</time></trkpt><trkpt lat="39.15921627123711" lon="16.08298140457869"><ele>176.79999999999998</ele><time>2026-05-03T07:51:15.999Z</time></trkpt><trkpt lat="39.15928532901575" lon="16.0828924327922"><ele>174.39999999999998</ele><time>2026-05-03T07:51:17.999Z</time></trkpt><trkpt lat="39.159342041191415" lon="16.082789672030334"><ele>172.0</ele><time>2026-05-03T07:51:20.999Z</time></trkpt><trkpt lat="39.15929990103682" lon="16.082669500383712"><ele>172.0</ele><time>2026-05-03T07:51:22.999Z</time></trkpt><trkpt lat="39.15926805845805" lon="16.08257507865353"><ele>172.0</ele><time>2026-05-03T07:51:24.999Z</time></trkpt><trkpt lat="39.159198247994794" lon="16.082515345189492"><ele>172.0</ele><time>2026-05-03T07:51:26.999Z</time></trkpt><trkpt lat="39.159085742107315" lon="16.082439434084538"><ele>172.0</ele><time>2026-05-03T07:51:28.999Z</time></trkpt><trkpt lat="39.15903209344203" lon="16.082376536479345"><ele>172.0</ele><time>2026-05-03T07:51:29.999Z</time></trkpt><trkpt lat="39.158964159803496" lon="16.082303393509093"><ele>168.0</ele><time>2026-05-03T07:51:30.999Z</time></trkpt><trkpt lat="39.15889436087223" lon="16.082245179346682"><ele>164.0</ele><time>2026-05-03T07:51:31.999Z</time></trkpt><trkpt lat="39.15882710691391" lon="16.082189862428862"><ele>160.0</ele><time>2026-05-03T07:51:32.999Z</time></trkpt><trkpt lat="39.15876271257349" lon="16.08215139623373"><ele>156.0</ele><time>2026-05-03T07:51:33.999Z</time></trkpt><trkpt lat="39.158676862236575" lon="16.082089997435613"><ele>152.0</ele><time>2026-05-03T07:51:35.999Z</time></trkpt><trkpt lat="39.15859752379868" lon="16.082020361440932"><ele>148.0</ele><time>2026-05-03T07:51:36.999Z</time></trkpt><trkpt lat="39.15854758969525" lon="16.08194956083452"><ele>148.0</ele><time>2026-05-03T07:51:38Z</time></trkpt><trkpt lat="39.158503818893415" lon="16.081864191769586"><ele>148.0</ele><time>2026-05-03T07:51:39Z</time></trkpt><trkpt lat="39.15846777962133" lon="16.081774234909002"><ele>148.0</ele><time>2026-05-03T07:51:40Z</time></trkpt><trkpt lat="39.15842045797379" lon="16.081697115650076"><ele>148.0</ele><time>2026-05-03T07:51:41Z</time></trkpt><trkpt lat="39.15836771461683" lon="16.08164289907777"><ele>148.0</ele><time>2026-05-03T07:51:42Z</time></trkpt><trkpt lat="39.15826729865787" lon="16.081583440306318"><ele>148.0</ele><time>2026-05-03T07:51:44Z</time></trkpt><trkpt lat="39.1581795565406" lon="16.081599687891362"><ele>145.16666666666669</ele><time>2026-05-03T07:51:46Z</time></trkpt><trkpt lat="39.158118435227" lon="16.081642360399588"><ele>142.33333333333334</ele><time>2026-05-03T07:51:48Z</time></trkpt><trkpt lat="39.158073870633785" lon="16.08156575060404"><ele>139.5</ele><time>2026-05-03T07:51:51Z</time></trkpt><trkpt lat="39.158124214808836" lon="16.08146707670067"><ele>136.66666666666666</ele><time>2026-05-03T07:51:53Z</time></trkpt><trkpt lat="39.15817672860259" lon="16.08140564961324"><ele>133.83333333333331</ele><time>2026-05-03T07:51:54Z</time></trkpt><trkpt lat="39.158229497420265" lon="16.081267300613927"><ele>131.0</ele><time>2026-05-03T07:51:55.999Z</time></trkpt><trkpt lat="39.158273777333804" lon="16.081175424411096"><ele>131.0</ele><time>2026-05-03T07:51:57.999Z</time></trkpt><trkpt lat="39.15835147623237" lon="16.081196080360204"><ele>131.0</ele><time>2026-05-03T07:51:59.999Z</time></trkpt><trkpt lat="39.15844217556955" lon="16.081321560004167"><ele>131.0</ele><time>2026-05-03T07:52:01.999Z</time></trkpt><trkpt lat="39.15849398491281" lon="16.081409667653325"><ele>131.0</ele><time>2026-05-03T07:52:02.999Z</time></trkpt><trkpt lat="39.158540110390845" lon="16.081474782472494"><ele>131.0</ele><time>2026-05-03T07:52:03.999Z</time></trkpt><trkpt lat="39.15859920133311" lon="16.081531338753123"><ele>131.0</ele><time>2026-05-03T07:52:05.999Z</time></trkpt><trkpt lat="39.158666506460754" lon="16.08146406780603"><ele>131.0</ele><time>2026-05-03T07:52:08.999Z</time></trkpt><trkpt lat="39.15859979862658" lon="16.081316724259615"><ele>131.0</ele><time>2026-05-03T07:52:10.999Z</time></trkpt><trkpt lat="39.15855508672275" lon="16.081228476473008"><ele>131.0</ele><time>2026-05-03T07:52:11.999Z</time></trkpt><trkpt lat="39.15851401133078" lon="16.081148495656326"><ele>131.0</ele><time>2026-05-03T07:52:12.999Z</time></trkpt><trkpt lat="39.15847340741738" lon="16.081052880877486"><ele>131.0</ele><time>2026-05-03T07:52:13.999Z</time></trkpt><trkpt lat="39.158435197137784" lon="16.08097622089314"><ele>131.0</ele><time>2026-05-03T07:52:14.999Z</time></trkpt><trkpt lat="39.1583741121527" lon="16.080858301887464"><ele>131.0</ele><time>2026-05-03T07:52:16.999Z</time></trkpt><trkpt lat="39.15835057215044" lon="16.080766222496656"><ele>131.0</ele><time>2026-05-03T07:52:19.999Z</time></trkpt><trkpt lat="39.158420535388345" lon="16.08070369627192"><ele>131.0</ele><time>2026-05-03T07:52:22.999Z</time></trkpt><trkpt lat="39.15847972153623" lon="16.080672684838635"><ele>131.0</ele><time>2026-05-03T07:52:23.999Z</time></trkpt><trkpt lat="39.158573095343854" lon="16.080588292881362"><ele>131.0</ele><time>2026-05-03T07:52:25.999Z</time></trkpt><trkpt lat="39.158625702352126" lon="16.08052615212571"><ele>131.0</ele><time>2026-05-03T07:52:27.999Z</time></trkpt><trkpt lat="39.15857326356409" lon="16.080414757316646"><ele>127.4</ele><time>2026-05-03T07:52:29.999Z</time></trkpt><trkpt lat="39.158514874585386" lon="16.080335318085776"><ele>123.8</ele><time>2026-05-03T07:52:30.999Z</time></trkpt><trkpt lat="39.15844851909736" lon="16.080254267537846"><ele>120.20000000000002</ele><time>2026-05-03T07:52:31.999Z</time></trkpt><trkpt lat="39.15839605016284" lon="16.08020074234674"><ele>116.60000000000001</ele><time>2026-05-03T07:52:32.999Z</time></trkpt><trkpt lat="39.158299057078885" lon="16.0801085707883"><ele>113.0</ele><time>2026-05-03T07:52:34.999Z</time></trkpt><trkpt lat="39.15819541166213" lon="16.080069310683623"><ele>109.80000000000001</ele><time>2026-05-03T07:52:36.999Z</time></trkpt><trkpt lat="39.15809775585977" lon="16.080059099176133"><ele>106.60000000000001</ele><time>2026-05-03T07:52:38.999Z</time></trkpt><trkpt lat="39.15801216702851" lon="16.0801440254602"><ele>103.4</ele><time>2026-05-03T07:52:40.999Z</time></trkpt><trkpt lat="39.15795479975198" lon="16.08022826074855"><ele>100.19999999999999</ele><time>2026-05-03T07:52:41.999Z</time></trkpt><trkpt lat="39.15789281897589" lon="16.080320306317407"><ele>97.0</ele><time>2026-05-03T07:52:42.999Z</time></trkpt><trkpt lat="39.15783890745492" lon="16.08037977844926"><ele>97.0</ele><time>2026-05-03T07:52:43.999Z</time></trkpt><trkpt lat="39.15781993846211" lon="16.080538004116327"><ele>97.0</ele><time>2026-05-03T07:52:45.999Z</time></trkpt><trkpt lat="39.15780935229226" lon="16.08061969103118"><ele>97.0</ele><time>2026-05-03T07:52:46.999Z</time></trkpt><trkpt lat="39.157788676661156" lon="16.080761743370648"><ele>97.0</ele><time>2026-05-03T07:52:48.999Z</time></trkpt><trkpt lat="39.15771912383319" lon="16.080874118898052"><ele>97.0</ele><time>2026-05-03T07:52:50.999Z</time></trkpt><trkpt lat="39.15762125480228" lon="16.080965451602868"><ele>96.19999999999999</ele><time>2026-05-03T07:52:52.999Z</time></trkpt><trkpt lat="39.15752412339717" lon="16.08102168224159"><ele>95.4</ele><time>2026-05-03T07:52:54.999Z</time></trkpt><trkpt lat="39.1574246791379" lon="16.08110836890611"><ele>94.6</ele><time>2026-05-03T07:52:56.999Z</time></trkpt><trkpt lat="39.15738987561403" lon="16.081180815434237"><ele>93.80000000000001</ele><time>2026-05-03T07:52:57.999Z</time></trkpt><trkpt lat="39.15735408387104" lon="16.081259272311634"><ele>93.0</ele><time>2026-05-03T07:52:58.999Z</time></trkpt><trkpt lat="39.15729501320526" lon="16.081360885561597"><ele>93.0</ele><time>2026-05-03T07:53:00.999Z</time></trkpt><trkpt lat="39.15720623406218" lon="16.08135234892097"><ele>93.0</ele><time>2026-05-03T07:53:02.999Z</time></trkpt><trkpt lat="39.15713060740956" lon="16.0813151408935"><ele>93.0</ele><time>2026-05-03T07:53:03.999Z</time></trkpt><trkpt lat="39.1570339343906" lon="16.081283051523727"><ele>93.0</ele><time>2026-05-03T07:53:04.999Z</time></trkpt><trkpt lat="39.1569566944091" lon="16.08125149641878"><ele>93.0</ele><time>2026-05-03T07:53:05.999Z</time></trkpt><trkpt lat="39.15687730353536" lon="16.0811856822529"><ele>93.0</ele><time>2026-05-03T07:53:07.999Z</time></trkpt><trkpt lat="39.15685820919884" lon="16.081102139356506"><ele>93.0</ele><time>2026-05-03T07:53:08.999Z</time></trkpt><trkpt lat="39.15684786859733" lon="16.080988774217847"><ele>93.0</ele><time>2026-05-03T07:53:09.999Z</time></trkpt><trkpt lat="39.156847459918055" lon="16.08083975902934"><ele>93.0</ele><time>2026-05-03T07:53:10.999Z</time></trkpt><trkpt lat="39.15683636734259" lon="16.080694805775803"><ele>93.0</ele><time>2026-05-03T07:53:11.999Z</time></trkpt><trkpt lat="39.15681903193448" lon="16.080549345037998"><ele>93.0</ele><time>2026-05-03T07:53:12.999Z</time></trkpt><trkpt lat="39.156809410734695" lon="16.08043349057299"><ele>93.0</ele><time>2026-05-03T07:53:13.999Z</time></trkpt><trkpt lat="39.15680681002294" lon="16.080333643885915"><ele>93.0</ele><time>2026-05-03T07:53:14.999Z</time></trkpt><trkpt lat="39.15680384646897" lon="16.080199102735325"><ele>93.0</ele><time>2026-05-03T07:53:16.999Z</time></trkpt><trkpt lat="39.15673054823058" lon="16.08008409415447"><ele>93.0</ele><time>2026-05-03T07:53:18.999Z</time></trkpt><trkpt lat="39.156676174271105" lon="16.080029291740562"><ele>93.0</ele><time>2026-05-03T07:53:19.999Z</time></trkpt><trkpt lat="39.15660979982085" lon="16.079964834737435"><ele>93.0</ele><time>2026-05-03T07:53:20.999Z</time></trkpt><trkpt lat="39.156537187119184" lon="16.07990199052682"><ele>95.0</ele><time>2026-05-03T07:53:21.999Z</time></trkpt><trkpt lat="39.156465751177045" lon="16.079844527674005"><ele>97.0</ele><time>2026-05-03T07:53:22.999Z</time></trkpt><trkpt lat="39.156396241739714" lon="16.079764684372265"><ele>99.0</ele><time>2026-05-03T07:53:24.999Z</time></trkpt><trkpt lat="39.15633171010812" lon="16.07978841874588"><ele>101.0</ele><time>2026-05-03T07:53:27.999Z</time></trkpt><trkpt lat="39.15631792047948" lon="16.079869843897935"><ele>103.0</ele><time>2026-05-03T07:53:30.999Z</time></trkpt><trkpt lat="39.15631279134415" lon="16.079975502184126"><ele>105.0</ele><time>2026-05-03T07:53:36.999Z</time></trkpt><trkpt lat="39.15629832568364" lon="16.080066464148256"><ele>106.0</ele><time>2026-05-03T07:53:50.999Z</time></trkpt><trkpt lat="39.15631078866745" lon="16.080179782920002"><ele>107.0</ele><time>2026-05-03T07:54:12.999Z</time></trkpt><trkpt lat="39.156276696299415" lon="16.080352783479285"><ele>108.0</ele><time>2026-05-03T07:54:14.999Z</time></trkpt><trkpt lat="39.15624466764399" lon="16.080454452551322"><ele>109.0</ele><time>2026-05-03T07:54:15.999Z</time></trkpt><trkpt lat="39.15619958623234" lon="16.08055929433948"><ele>110.0</ele><time>2026-05-03T07:54:16.999Z</time></trkpt><trkpt lat="39.15612483037651" lon="16.080651999752725"><ele>111.0</ele><time>2026-05-03T07:54:17.999Z</time></trkpt><trkpt lat="39.15607627971773" lon="16.080768915557034"><ele>112.0</ele><time>2026-05-03T07:54:18.999Z</time></trkpt><trkpt lat="39.15602557315814" lon="16.080891577823447"><ele>113.0</ele><time>2026-05-03T07:54:19.999Z</time></trkpt><trkpt lat="39.15597991521328" lon="16.081021466092412"><ele>114.0</ele><time>2026-05-03T07:54:20.999Z</time></trkpt><trkpt lat="39.155944162008424" lon="16.081162207759863"><ele>115.0</ele><time>2026-05-03T07:54:21.999Z</time></trkpt><trkpt lat="39.155919208259746" lon="16.08131071903194"><ele>115.0</ele><time>2026-05-03T07:54:22.999Z</time></trkpt><trkpt lat="39.15590062281791" lon="16.081456733848647"><ele>115.0</ele><time>2026-05-03T07:54:23.999Z</time></trkpt><trkpt lat="39.15588366595147" lon="16.081601930206567"><ele>115.0</ele><time>2026-05-03T07:54:24.999Z</time></trkpt><trkpt lat="39.155869375881196" lon="16.08175173793451"><ele>115.0</ele><time>2026-05-03T07:54:25.999Z</time></trkpt><trkpt lat="39.15586809550813" lon="16.081903519962488"><ele>114.5</ele><time>2026-05-03T07:54:26.999Z</time></trkpt><trkpt lat="39.15588786516057" lon="16.082059500037882"><ele>114.0</ele><time>2026-05-03T07:54:27.999Z</time></trkpt><trkpt lat="39.15591448446782" lon="16.082209294116"><ele>113.5</ele><time>2026-05-03T07:54:28.999Z</time></trkpt><trkpt lat="39.15594156082021" lon="16.08235916776429"><ele>113.0</ele><time>2026-05-03T07:54:29.999Z</time></trkpt><trkpt lat="39.155972860331964" lon="16.082541607696427"><ele>114.66666666666666</ele><time>2026-05-03T07:54:30.999Z</time></trkpt><trkpt lat="39.15601041356482" lon="16.082749154141094"><ele>116.33333333333334</ele><time>2026-05-03T07:54:31.999Z</time></trkpt><trkpt lat="39.15605549598571" lon="16.082978679530978"><ele>118.0</ele><time>2026-05-03T07:54:32.999Z</time></trkpt><trkpt lat="39.1561128864919" lon="16.08325820476633"><ele>120.66666666666667</ele><time>2026-05-03T07:54:33.999Z</time></trkpt><trkpt lat="39.15616831863291" lon="16.083489839418583"><ele>123.33333333333334</ele><time>2026-05-03T07:54:34.999Z</time></trkpt><trkpt lat="39.15621392603932" lon="16.08368556913016"><ele>126.0</ele><time>2026-05-03T07:54:35.999Z</time></trkpt><trkpt lat="39.15623978562058" lon="16.08384636899008"><ele>126.0</ele><time>2026-05-03T07:54:36.999Z</time></trkpt><trkpt lat="39.15625728837708" lon="16.083998183412493"><ele>126.0</ele><time>2026-05-03T07:54:37.999Z</time></trkpt><trkpt lat="39.156240182338266" lon="16.084159320376372"><ele>126.0</ele><time>2026-05-03T07:54:38.999Z</time></trkpt><trkpt lat="39.15620291088554" lon="16.08433200898945"><ele>126.0</ele><time>2026-05-03T07:54:39.999Z</time></trkpt><trkpt lat="39.15615535492702" lon="16.084543276307517"><ele>128.5</ele><time>2026-05-03T07:54:40.999Z</time></trkpt><trkpt lat="39.15611438438756" lon="16.08473913388765"><ele>131.0</ele><time>2026-05-03T07:54:41.999Z</time></trkpt><trkpt lat="39.1561041591222" lon="16.08489953866047"><ele>133.5</ele><time>2026-05-03T07:54:42.999Z</time></trkpt><trkpt lat="39.15607456278018" lon="16.085015589397706"><ele>136.0</ele><time>2026-05-03T07:54:43.999Z</time></trkpt><trkpt lat="39.156063899224186" lon="16.085120600108"><ele>137.4</ele><time>2026-05-03T07:54:44.999Z</time></trkpt><trkpt lat="39.15605555155375" lon="16.085205656032727"><ele>138.8</ele><time>2026-05-03T07:54:45.999Z</time></trkpt><trkpt lat="39.156043999747666" lon="16.085323359573316"><ele>140.20000000000002</ele><time>2026-05-03T07:54:47.999Z</time></trkpt><trkpt lat="39.15602743384869" lon="16.08549267602001"><ele>141.6</ele><time>2026-05-03T07:54:49.999Z</time></trkpt><trkpt lat="39.15601683087053" lon="16.085595531689492"><ele>143.0</ele><time>2026-05-03T07:54:51Z</time></trkpt><trkpt lat="39.156002020583024" lon="16.085715610032782"><ele>143.4</ele><time>2026-05-03T07:54:52Z</time></trkpt><trkpt lat="39.15598642774199" lon="16.08584305883149"><ele>143.8</ele><time>2026-05-03T07:54:53Z</time></trkpt><trkpt lat="39.155982236438746" lon="16.08598214278164"><ele>144.2</ele><time>2026-05-03T07:54:54Z</time></trkpt><trkpt lat="39.155995038440075" lon="16.086127464788905"><ele>144.6</ele><time>2026-05-03T07:54:55Z</time></trkpt><trkpt lat="39.15603625012186" lon="16.086271802815627"><ele>145.0</ele><time>2026-05-03T07:54:56Z</time></trkpt><trkpt lat="39.156088169201055" lon="16.086410396861947"><ele>145.0</ele><time>2026-05-03T07:54:57Z</time></trkpt><trkpt lat="39.15613441471521" lon="16.08654923713715"><ele>145.0</ele><time>2026-05-03T07:54:58Z</time></trkpt><trkpt lat="39.15617551175694" lon="16.086695752547588"><ele>145.0</ele><time>2026-05-03T07:54:59Z</time></trkpt><trkpt lat="39.15620239012059" lon="16.086852977155793"><ele>145.0</ele><time>2026-05-03T07:55:00Z</time></trkpt><trkpt lat="39.15620696707586" lon="16.08701003456922"><ele>145.6</ele><time>2026-05-03T07:55:01Z</time></trkpt><trkpt lat="39.15619396969552" lon="16.087148622369156"><ele>146.2</ele><time>2026-05-03T07:55:02Z</time></trkpt><trkpt lat="39.156181663225794" lon="16.08723995298938"><ele>146.8</ele><time>2026-05-03T07:55:03Z</time></trkpt><trkpt lat="39.15616838680292" lon="16.087332332449744"><ele>147.4</ele><time>2026-05-03T07:55:06Z</time></trkpt><trkpt lat="39.15599914410745" lon="16.08725943014017"><ele>148.0</ele><time>2026-05-03T07:56:27Z</time></trkpt><trkpt lat="39.15592965187941" lon="16.087260047731316"><ele>148.0</ele><time>2026-05-03T07:56:30Z</time></trkpt><trkpt lat="39.15586964562854" lon="16.08728557334423"><ele>148.0</ele><time>2026-05-03T07:56:32Z</time></trkpt><trkpt lat="39.155798018981805" lon="16.087328401959503"><ele>148.0</ele><time>2026-05-03T07:56:36Z</time></trkpt><trkpt lat="39.15571654776076" lon="16.087286922785196"><ele>148.0</ele><time>2026-05-03T07:56:39Z</time></trkpt><trkpt lat="39.155652056556534" lon="16.0872764443017"><ele>148.0</ele><time>2026-05-03T07:56:46Z</time></trkpt><trkpt lat="39.15558863970847" lon="16.08728209241297"><ele>148.0</ele><time>2026-05-03T07:56:49Z</time></trkpt><trkpt lat="39.155522323404654" lon="16.08727974328765"><ele>148.0</ele><time>2026-05-03T07:56:51Z</time></trkpt><trkpt lat="39.15545097509929" lon="16.08724730081163"><ele>152.57142857142858</ele><time>2026-05-03T08:08:25Z</time></trkpt><trkpt lat="39.155376001917276" lon="16.08724988941897"><ele>157.14285714285714</ele><time>2026-05-03T08:12:49Z</time></trkpt><trkpt lat="39.155312435905145" lon="16.087224766751206"><ele>161.71428571428572</ele><time>2026-05-03T08:13:07Z</time></trkpt><trkpt lat="39.15524950738019" lon="16.08723562629619"><ele>166.28571428571428</ele><time>2026-05-03T08:13:11Z</time></trkpt><trkpt lat="39.155181004168654" lon="16.087247673885788"><ele>170.85714285714286</ele><time>2026-05-03T08:13:37.999Z</time></trkpt><trkpt lat="39.155119147353034" lon="16.0873009266026"><ele>175.42857142857142</ele><time>2026-05-03T08:13:40.999Z</time></trkpt><trkpt lat="39.155057393391765" lon="16.087355829378502"><ele>180.0</ele><time>2026-05-03T08:13:42.999Z</time></trkpt><trkpt lat="39.15499791295746" lon="16.08741935673617"><ele>180.5</ele><time>2026-05-03T08:13:45.999Z</time></trkpt><trkpt lat="39.154957085750844" lon="16.08749335528046"><ele>181.0</ele><time>2026-05-03T08:13:48.999Z</time></trkpt><trkpt lat="39.15490106336191" lon="16.087576240624788"><ele>181.5</ele><time>2026-05-03T08:13:51.999Z</time></trkpt><trkpt lat="39.154807949068086" lon="16.087616196235174"><ele>182.0</ele><time>2026-05-03T08:13:55.999Z</time></trkpt><trkpt lat="39.15471493511207" lon="16.087637770769753"><ele>182.5</ele><time>2026-05-03T08:13:58.999Z</time></trkpt><trkpt lat="39.15464200660182" lon="16.087671301318363"><ele>183.0</ele><time>2026-05-03T08:14:00.999Z</time></trkpt><trkpt lat="39.15458914392097" lon="16.087740582957867"><ele>183.0</ele><time>2026-05-03T08:14:02.999Z</time></trkpt><trkpt lat="39.15453574741841" lon="16.087829005594205"><ele>183.0</ele><time>2026-05-03T08:14:05.999Z</time></trkpt><trkpt lat="39.15447338326704" lon="16.08789422694454"><ele>183.0</ele><time>2026-05-03T08:14:30.999Z</time></trkpt><trkpt lat="39.1543873879133" lon="16.087893156118827"><ele>183.0</ele><time>2026-05-03T08:14:33.999Z</time></trkpt><trkpt lat="39.1543603834069" lon="16.087810022954727"><ele>183.0</ele><time>2026-05-03T08:14:35.999Z</time></trkpt><trkpt lat="39.15435597682871" lon="16.087662909828374"><ele>183.0</ele><time>2026-05-03T08:14:37.999Z</time></trkpt><trkpt lat="39.154338513648206" lon="16.087522858704972"><ele>183.0</ele><time>2026-05-03T08:14:40Z</time></trkpt><trkpt lat="39.15433098756009" lon="16.087432298512837"><ele>183.0</ele><time>2026-05-03T08:14:42Z</time></trkpt><trkpt lat="39.15425276791744" lon="16.087427778358652"><ele>183.0</ele><time>2026-05-03T08:14:44Z</time></trkpt><trkpt lat="39.15416773621808" lon="16.08751125981834"><ele>183.0</ele><time>2026-05-03T08:14:46Z</time></trkpt><trkpt lat="39.15416832618663" lon="16.087632193456727"><ele>183.0</ele><time>2026-05-03T08:14:48Z</time></trkpt><trkpt lat="39.154213965262905" lon="16.087719071375524"><ele>183.0</ele><time>2026-05-03T08:14:50Z</time></trkpt><trkpt lat="39.15422452901542" lon="16.08781619229533"><ele>183.0</ele><time>2026-05-03T08:14:52Z</time></trkpt><trkpt lat="39.1541637270743" lon="16.087935407203112"><ele>183.0</ele><time>2026-05-03T08:14:54Z</time></trkpt><trkpt lat="39.154060091143485" lon="16.087974240327743"><ele>183.0</ele><time>2026-05-03T08:14:56Z</time></trkpt><trkpt lat="39.15399529565515" lon="16.087989717468705"><ele>183.0</ele><time>2026-05-03T08:14:57Z</time></trkpt><trkpt lat="39.15388569770265" lon="16.088015713060322"><ele>183.0</ele><time>2026-05-03T08:14:59Z</time></trkpt><trkpt lat="39.15378305622599" lon="16.0880018926444"><ele>187.5</ele><time>2026-05-03T08:15:01Z</time></trkpt><trkpt lat="39.153693708563246" lon="16.0879920851652"><ele>192.0</ele><time>2026-05-03T08:15:03Z</time></trkpt><trkpt lat="39.1536189930291" lon="16.087968056241657"><ele>196.5</ele><time>2026-05-03T08:15:05Z</time></trkpt><trkpt lat="39.15351654069115" lon="16.087986411249958"><ele>201.0</ele><time>2026-05-03T08:15:08Z</time></trkpt><trkpt lat="39.15344504131056" lon="16.088015259603214"><ele>205.5</ele><time>2026-05-03T08:15:18.999Z</time></trkpt><trkpt lat="39.15337190684128" lon="16.088025390893257"><ele>210.0</ele><time>2026-05-03T08:15:21.999Z</time></trkpt><trkpt lat="39.153288809912226" lon="16.088031089717322"><ele>210.0</ele><time>2026-05-03T08:15:25.999Z</time></trkpt><trkpt lat="39.15322299242476" lon="16.088042417554426"><ele>210.0</ele><time>2026-05-03T08:15:46.999Z</time></trkpt><trkpt lat="39.153156577414876" lon="16.088053594821883"><ele>210.0</ele><time>2026-05-03T08:15:50.999Z</time></trkpt><trkpt lat="39.15308819636488" lon="16.0880510625659"><ele>210.0</ele><time>2026-05-03T08:15:57.999Z</time></trkpt><trkpt lat="39.15300710772596" lon="16.088095763177314"><ele>210.0</ele><time>2026-05-03T08:16:00.999Z</time></trkpt><trkpt lat="39.152934931823474" lon="16.088122066027953"><ele>210.0</ele><time>2026-05-03T08:16:11.999Z</time></trkpt><trkpt lat="39.15286514403009" lon="16.08813094038109"><ele>210.0</ele><time>2026-05-03T08:16:14.999Z</time></trkpt><trkpt lat="39.152766844018885" lon="16.088163242576094"><ele>212.85714285714286</ele><time>2026-05-03T08:16:17.999Z</time></trkpt><trkpt lat="39.15269217540565" lon="16.08817281519259"><ele>215.71428571428572</ele><time>2026-05-03T08:16:19.999Z</time></trkpt><trkpt lat="39.15262985018491" lon="16.08815319789143"><ele>218.57142857142856</ele><time>2026-05-03T08:16:21.999Z</time></trkpt><trkpt lat="39.15256776632014" lon="16.08811461485547"><ele>221.42857142857142</ele><time>2026-05-03T08:16:23.999Z</time></trkpt><trkpt lat="39.15262255931485" lon="16.088174573321428"><ele>224.28571428571428</ele><time>2026-05-03T08:22:27.999Z</time></trkpt><trkpt lat="39.152692508939516" lon="16.088198158042623"><ele>227.1428571428571</ele><time>2026-05-03T08:22:34.999Z</time></trkpt><trkpt lat="39.152754480375684" lon="16.088181411731053"><ele>229.99999999999997</ele><time>2026-05-03T08:22:53.998Z</time></trkpt><trkpt lat="39.15282141992103" lon="16.08814850842269"><ele>229.99999999999997</ele><time>2026-05-03T08:22:59.998Z</time></trkpt><trkpt lat="39.152883863517026" lon="16.08813037812185"><ele>230.0</ele><time>2026-05-03T08:23:04.999Z</time></trkpt><trkpt lat="39.15294951925517" lon="16.088116475602984"><ele>229.99999999999997</ele><time>2026-05-03T08:23:09Z</time></trkpt><trkpt lat="39.153010050449566" lon="16.088083178385023"><ele>229.99999999999997</ele><time>2026-05-03T08:23:15Z</time></trkpt><trkpt lat="39.15307302202416" lon="16.08805606932003"><ele>230.0</ele><time>2026-05-03T08:23:20Z</time></trkpt><trkpt lat="39.153149487014936" lon="16.088047344368107"><ele>229.99999999999997</ele><time>2026-05-03T08:23:25Z</time></trkpt><trkpt lat="39.153222910989506" lon="16.088023919185733"><ele>229.99999999999997</ele><time>2026-05-03T08:23:30Z</time></trkpt><trkpt lat="39.15330259603539" lon="16.08802380540363"><ele>226.0</ele><time>2026-05-03T08:23:39Z</time></trkpt><trkpt lat="39.153459571930306" lon="16.08800588286647"><ele>222.0</ele><time>2026-05-03T08:24:03Z</time></trkpt><trkpt lat="39.153539132101145" lon="16.087981429413208"><ele>218.0</ele><time>2026-05-03T08:24:08Z</time></trkpt><trkpt lat="39.15362409165012" lon="16.087979512405905"><ele>214.0</ele><time>2026-05-03T08:24:12Z</time></trkpt><trkpt lat="39.15368744200888" lon="16.08800077335636"><ele>210.0</ele><time>2026-05-03T08:24:15Z</time></trkpt><trkpt lat="39.15376730633233" lon="16.088008236795343"><ele>210.0</ele><time>2026-05-03T08:24:19Z</time></trkpt><trkpt lat="39.15384545544051" lon="16.088015879102226"><ele>210.0</ele><time>2026-05-03T08:24:22Z</time></trkpt><trkpt lat="39.15392797156718" lon="16.08801146255451"><ele>210.0</ele><time>2026-05-03T08:24:25Z</time></trkpt><trkpt lat="39.15401386509887" lon="16.08798281028802"><ele>210.0</ele><time>2026-05-03T08:24:28Z</time></trkpt><trkpt lat="39.1540772576095" lon="16.087958207989097"><ele>210.0</ele><time>2026-05-03T08:24:30Z</time></trkpt><trkpt lat="39.15414298211851" lon="16.087906947443376"><ele>210.0</ele><time>2026-05-03T08:24:32Z</time></trkpt><trkpt lat="39.15418915129088" lon="16.08783512617181"><ele>205.5</ele><time>2026-05-03T08:24:34Z</time></trkpt><trkpt lat="39.15418722650714" lon="16.087718587298124"><ele>201.0</ele><time>2026-05-03T08:24:36.999Z</time></trkpt><trkpt lat="39.154140946418686" lon="16.087638319649855"><ele>196.5</ele><time>2026-05-03T08:24:39.999Z</time></trkpt><trkpt lat="39.154150429515134" lon="16.087552176014725"><ele>192.0</ele><time>2026-05-03T08:24:42.999Z</time></trkpt><trkpt lat="39.15419099328574" lon="16.087475420703715"><ele>187.5</ele><time>2026-05-03T08:24:45.999Z</time></trkpt><trkpt lat="39.154269054910564" lon="16.087478582871512"><ele>183.0</ele><time>2026-05-03T08:25:03.999Z</time></trkpt><trkpt lat="39.15433690002764" lon="16.087505837518403"><ele>183.0</ele><time>2026-05-03T08:25:06.999Z</time></trkpt><trkpt lat="39.154337474220355" lon="16.087613911036854"><ele>183.0</ele><time>2026-05-03T08:25:08.999Z</time></trkpt><trkpt lat="39.15435687190146" lon="16.087725955164103"><ele>183.0</ele><time>2026-05-03T08:25:12Z</time></trkpt><trkpt lat="39.154370352820806" lon="16.087839240932173"><ele>183.0</ele><time>2026-05-03T08:25:14Z</time></trkpt><trkpt lat="39.154409096010525" lon="16.087916480569948"><ele>183.0</ele><time>2026-05-03T08:25:28Z</time></trkpt><trkpt lat="39.154477429435794" lon="16.0879330766306"><ele>183.0</ele><time>2026-05-03T08:25:34Z</time></trkpt><trkpt lat="39.15452053295934" lon="16.087872096303403"><ele>183.0</ele><time>2026-05-03T08:25:40Z</time></trkpt><trkpt lat="39.154552948325374" lon="16.087799606199912"><ele>183.0</ele><time>2026-05-03T08:25:45Z</time></trkpt><trkpt lat="39.15459666587453" lon="16.087719431126942"><ele>183.0</ele><time>2026-05-03T08:25:50Z</time></trkpt><trkpt lat="39.15464928603244" lon="16.087651223318876"><ele>183.0</ele><time>2026-05-03T08:25:55Z</time></trkpt><trkpt lat="39.15470890081395" lon="16.087621883874526"><ele>183.0</ele><time>2026-05-03T08:25:59Z</time></trkpt><trkpt lat="39.15477512805901" lon="16.08761423004798"><ele>183.0</ele><time>2026-05-03T08:26:03Z</time></trkpt><trkpt lat="39.15483867845481" lon="16.087597471741866"><ele>183.0</ele><time>2026-05-03T08:26:07Z</time></trkpt><trkpt lat="39.1549120394115" lon="16.087561815562097"><ele>182.57142857142858</ele><time>2026-05-03T08:26:11Z</time></trkpt><trkpt lat="39.154966246595095" lon="16.087506028976406"><ele>182.14285714285717</ele><time>2026-05-03T08:27:04.999Z</time></trkpt><trkpt lat="39.155007410443574" lon="16.087439544115778"><ele>181.71428571428572</ele><time>2026-05-03T08:27:13.999Z</time></trkpt><trkpt lat="39.155048947141765" lon="16.087372052204504"><ele>181.28571428571428</ele><time>2026-05-03T08:27:19Z</time></trkpt><trkpt lat="39.155098473793785" lon="16.087309286402114"><ele>180.85714285714286</ele><time>2026-05-03T08:27:25Z</time></trkpt><trkpt lat="39.15515380370551" lon="16.087266492213928"><ele>180.42857142857142</ele><time>2026-05-03T08:27:30Z</time></trkpt><trkpt lat="39.155218474210265" lon="16.08722805336762"><ele>180.0</ele><time>2026-05-03T08:27:33Z</time></trkpt><trkpt lat="39.15529324747731" lon="16.08721582365008"><ele>180.0</ele><time>2026-05-03T08:27:37Z</time></trkpt><trkpt lat="39.15539800101502" lon="16.087250427715816"><ele>180.0</ele><time>2026-05-03T08:28:52.999Z</time></trkpt><trkpt lat="39.15547262301664" lon="16.087266423250504"><ele>180.0</ele><time>2026-05-03T08:29:22Z</time></trkpt><trkpt lat="39.15554080329898" lon="16.087274195192375"><ele>180.0</ele><time>2026-05-03T08:29:27Z</time></trkpt><trkpt lat="39.15560874743264" lon="16.087264335001656"><ele>180.0</ele><time>2026-05-03T08:29:33Z</time></trkpt><trkpt lat="39.155680437770926" lon="16.08725313127612"><ele>180.0</ele><time>2026-05-03T08:29:36Z</time></trkpt><trkpt lat="39.15575471788593" lon="16.087286451816787"><ele>174.66666666666666</ele><time>2026-05-03T08:29:40Z</time></trkpt><trkpt lat="39.15583415875279" lon="16.087289568695656"><ele>169.33333333333334</ele><time>2026-05-03T08:29:45Z</time></trkpt><trkpt lat="39.15589278369275" lon="16.087235224100734"><ele>164.0</ele><time>2026-05-03T08:29:48Z</time></trkpt><trkpt lat="39.15598305558586" lon="16.087247489009517"><ele>158.66666666666669</ele><time>2026-05-03T08:29:52Z</time></trkpt><trkpt lat="39.1560515826506" lon="16.087271787683477"><ele>153.33333333333334</ele><time>2026-05-03T08:29:55Z</time></trkpt><trkpt lat="39.1561274428998" lon="16.087254297151297"><ele>148.0</ele><time>2026-05-03T08:29:59Z</time></trkpt><trkpt lat="39.15618644653161" lon="16.0872998021157"><ele>148.0</ele><time>2026-05-03T08:30:03Z</time></trkpt><trkpt lat="39.1562002287733" lon="16.087404828183324"><ele>148.0</ele><time>2026-05-03T08:30:35Z</time></trkpt><trkpt lat="39.15618350756485" lon="16.087485449569144"><ele>148.0</ele><time>2026-05-03T08:30:36Z</time></trkpt><trkpt lat="39.156160344621036" lon="16.08761272855653"><ele>148.0</ele><time>2026-05-03T08:30:38Z</time></trkpt><trkpt lat="39.15610882765835" lon="16.08774713377158"><ele>148.0</ele><time>2026-05-03T08:30:40Z</time></trkpt><trkpt lat="39.15608911153039" lon="16.08792035508028"><ele>147.0</ele><time>2026-05-03T08:30:42Z</time></trkpt><trkpt lat="39.15607827051579" lon="16.088031642269943"><ele>146.0</ele><time>2026-05-03T08:30:43Z</time></trkpt><trkpt lat="39.15606728289275" lon="16.08815463860678"><ele>145.0</ele><time>2026-05-03T08:30:44Z</time></trkpt><trkpt lat="39.15606080930187" lon="16.08828266322459"><ele>144.0</ele><time>2026-05-03T08:30:44.999Z</time></trkpt><trkpt lat="39.156056453523945" lon="16.088410092599062"><ele>143.0</ele><time>2026-05-03T08:30:45.999Z</time></trkpt><trkpt lat="39.15605389175354" lon="16.08853528573612"><ele>145.66666666666666</ele><time>2026-05-03T08:30:46.999Z</time></trkpt><trkpt lat="39.156051418777054" lon="16.08865613934365"><ele>148.33333333333331</ele><time>2026-05-03T08:30:47.999Z</time></trkpt><trkpt lat="39.156049014714704" lon="16.08877362475818"><ele>151.0</ele><time>2026-05-03T08:30:48.999Z</time></trkpt><trkpt lat="39.15604682886968" lon="16.088880446537907"><ele>153.66666666666666</ele><time>2026-05-03T08:30:49.999Z</time></trkpt><trkpt lat="39.15604363268053" lon="16.088985972476177"><ele>156.33333333333334</ele><time>2026-05-03T08:30:50.999Z</time></trkpt><trkpt lat="39.1560387787029" lon="16.089092000017903"><ele>159.0</ele><time>2026-05-03T08:30:51.999Z</time></trkpt><trkpt lat="39.156032291773855" lon="16.08919000512257"><ele>160.16666666666666</ele><time>2026-05-03T08:30:52.999Z</time></trkpt><trkpt lat="39.156022536012436" lon="16.08929678730434"><ele>161.33333333333334</ele><time>2026-05-03T08:30:53.999Z</time></trkpt><trkpt lat="39.156008813598305" lon="16.089410131548103"><ele>162.5</ele><time>2026-05-03T08:30:54.999Z</time></trkpt><trkpt lat="39.155995877330255" lon="16.089516982159783"><ele>163.66666666666669</ele><time>2026-05-03T08:30:55.999Z</time></trkpt><trkpt lat="39.155989825316034" lon="16.0896148674565"><ele>164.83333333333334</ele><time>2026-05-03T08:30:56.999Z</time></trkpt><trkpt lat="39.1559949435574" lon="16.089722470514925"><ele>166.0</ele><time>2026-05-03T08:30:57.999Z</time></trkpt><trkpt lat="39.156038299280674" lon="16.08982379128243"><ele>166.0</ele><time>2026-05-03T08:30:58.999Z</time></trkpt><trkpt lat="39.156116731865914" lon="16.08989583937882"><ele>166.0</ele><time>2026-05-03T08:30:59.999Z</time></trkpt><trkpt lat="39.156212843444195" lon="16.0899176397268"><ele>166.0</ele><time>2026-05-03T08:31:00.999Z</time></trkpt><trkpt lat="39.15631233128918" lon="16.089937276805667"><ele>166.0</ele><time>2026-05-03T08:31:01.999Z</time></trkpt><trkpt lat="39.15640821342143" lon="16.089956861808286"><ele>166.0</ele><time>2026-05-03T08:31:02.999Z</time></trkpt><trkpt lat="39.15650308465917" lon="16.08997701814122"><ele>162.60000000000002</ele><time>2026-05-03T08:31:03.999Z</time></trkpt><trkpt lat="39.156599970688845" lon="16.089997602488836"><ele>159.20000000000002</ele><time>2026-05-03T08:31:04.999Z</time></trkpt><trkpt lat="39.15669677566266" lon="16.090023193077876"><ele>155.8</ele><time>2026-05-03T08:31:05.999Z</time></trkpt><trkpt lat="39.156780709042465" lon="16.09005831164468"><ele>152.4</ele><time>2026-05-03T08:31:06.999Z</time></trkpt><trkpt lat="39.156865254478674" lon="16.090102009068293"><ele>149.0</ele><time>2026-05-03T08:31:07.999Z</time></trkpt><trkpt lat="39.15695213179642" lon="16.090148208626335"><ele>149.0</ele><time>2026-05-03T08:31:08.999Z</time></trkpt><trkpt lat="39.15703838150162" lon="16.090197658646336"><ele>149.0</ele><time>2026-05-03T08:31:09.999Z</time></trkpt><trkpt lat="39.15711233171272" lon="16.090252427265423"><ele>149.0</ele><time>2026-05-03T08:31:10.999Z</time></trkpt><trkpt lat="39.15717585086684" lon="16.09030694073376"><ele>149.0</ele><time>2026-05-03T08:31:11.999Z</time></trkpt><trkpt lat="39.157233143089485" lon="16.090374566799472"><ele>149.0</ele><time>2026-05-03T08:31:12.999Z</time></trkpt><trkpt lat="39.15728419573526" lon="16.09046053272248"><ele>149.0</ele><time>2026-05-03T08:31:13.999Z</time></trkpt><trkpt lat="39.15733031257038" lon="16.090561064531318"><ele>149.0</ele><time>2026-05-03T08:31:14.999Z</time></trkpt><trkpt lat="39.15736806716226" lon="16.090647629040213"><ele>149.0</ele><time>2026-05-03T08:31:15.999Z</time></trkpt><trkpt lat="39.157430706940836" lon="16.090778960296916"><ele>149.0</ele><time>2026-05-03T08:31:17.999Z</time></trkpt><trkpt lat="39.157469794440935" lon="16.090843623775132"><ele>149.0</ele><time>2026-05-03T08:31:18.999Z</time></trkpt><trkpt lat="39.15751500445529" lon="16.09090786274021"><ele>149.0</ele><time>2026-05-03T08:31:19.999Z</time></trkpt><trkpt lat="39.15757586137258" lon="16.09097293792958"><ele>149.0</ele><time>2026-05-03T08:31:20.999Z</time></trkpt><trkpt lat="39.15763826626068" lon="16.0910307490939"><ele>151.0</ele><time>2026-05-03T08:31:21.999Z</time></trkpt><trkpt lat="39.15770240649822" lon="16.091087664460094"><ele>153.0</ele><time>2026-05-03T08:31:22.999Z</time></trkpt><trkpt lat="39.157780942247875" lon="16.091128827072414"><ele>155.0</ele><time>2026-05-03T08:31:23.999Z</time></trkpt><trkpt lat="39.15786023920746" lon="16.0911653944904"><ele>157.0</ele><time>2026-05-03T08:31:24.999Z</time></trkpt><trkpt lat="39.15794091388646" lon="16.091198141277985"><ele>159.0</ele><time>2026-05-03T08:31:25.999Z</time></trkpt><trkpt lat="39.15802255260883" lon="16.091226176574043"><ele>161.0</ele><time>2026-05-03T08:31:26.999Z</time></trkpt><trkpt lat="39.15809423789859" lon="16.091252809909435"><ele>161.0</ele><time>2026-05-03T08:31:28Z</time></trkpt><trkpt lat="39.158202700098286" lon="16.091305445923734"><ele>161.0</ele><time>2026-05-03T08:31:30Z</time></trkpt><trkpt lat="39.158268304967535" lon="16.09134377637132"><ele>161.0</ele><time>2026-05-03T08:31:31Z</time></trkpt><trkpt lat="39.158335557468604" lon="16.09139040993174"><ele>161.0</ele><time>2026-05-03T08:31:32Z</time></trkpt><trkpt lat="39.15840517451486" lon="16.091444075717522"><ele>161.0</ele><time>2026-05-03T08:31:33Z</time></trkpt><trkpt lat="39.15848280757435" lon="16.091508450184477"><ele>161.0</ele><time>2026-05-03T08:31:34Z</time></trkpt><trkpt lat="39.15856175695482" lon="16.091573915939353"><ele>164.16666666666666</ele><time>2026-05-03T08:31:35Z</time></trkpt><trkpt lat="39.15864109649563" lon="16.091638385311935"><ele>167.33333333333331</ele><time>2026-05-03T08:31:36Z</time></trkpt><trkpt lat="39.15872327695418" lon="16.091702638542344"><ele>170.5</ele><time>2026-05-03T08:31:37Z</time></trkpt><trkpt lat="39.15880360863951" lon="16.09176426050885"><ele>173.66666666666666</ele><time>2026-05-03T08:31:38Z</time></trkpt><trkpt lat="39.15887551845117" lon="16.09181942209076"><ele>176.83333333333334</ele><time>2026-05-03T08:31:39Z</time></trkpt><trkpt lat="39.15894010185095" lon="16.09184604562103"><ele>180.0</ele><time>2026-05-03T08:31:40Z</time></trkpt><trkpt lat="39.15903240712648" lon="16.091915724360412"><ele>178.33333333333334</ele><time>2026-05-03T08:31:42Z</time></trkpt><trkpt lat="39.15909511962145" lon="16.09195812212431"><ele>176.66666666666666</ele><time>2026-05-03T08:31:44Z</time></trkpt><trkpt lat="39.159186206854734" lon="16.092036076692793"><ele>175.0</ele><time>2026-05-03T08:34:54Z</time></trkpt><trkpt lat="39.15924925060135" lon="16.09207643071178"><ele>173.33333333333331</ele><time>2026-05-03T08:34:55Z</time></trkpt><trkpt lat="39.15932355114505" lon="16.09212352737427"><ele>171.66666666666666</ele><time>2026-05-03T08:34:55.999Z</time></trkpt><trkpt lat="39.15941020396908" lon="16.09217920190086"><ele>170.0</ele><time>2026-05-03T08:34:56.999Z</time></trkpt><trkpt lat="39.15949875736848" lon="16.09224106311899"><ele>170.0</ele><time>2026-05-03T08:34:57.999Z</time></trkpt><trkpt lat="39.159590607737755" lon="16.092305227503836"><ele>170.0</ele><time>2026-05-03T08:34:58.999Z</time></trkpt><trkpt lat="39.159682902655106" lon="16.092368031268176"><ele>170.0</ele><time>2026-05-03T08:34:59.999Z</time></trkpt><trkpt lat="39.159772217329845" lon="16.092427143836673"><ele>170.0</ele><time>2026-05-03T08:35:00.999Z</time></trkpt><trkpt lat="39.1598600418151" lon="16.092485270121124"><ele>170.0</ele><time>2026-05-03T08:35:01.999Z</time></trkpt><trkpt lat="39.159940496118175" lon="16.09254019572749"><ele>171.33333333333331</ele><time>2026-05-03T08:35:02.999Z</time></trkpt><trkpt lat="39.160019198165195" lon="16.092593330377536"><ele>172.66666666666666</ele><time>2026-05-03T08:35:03.999Z</time></trkpt><trkpt lat="39.160095927513055" lon="16.092645099822327"><ele>174.0</ele><time>2026-05-03T08:35:04.999Z</time></trkpt><trkpt lat="39.16017114717587" lon="16.092695246254177"><ele>175.33333333333334</ele><time>2026-05-03T08:35:05.999Z</time></trkpt><trkpt lat="39.16024590121778" lon="16.092745082297377"><ele>176.66666666666669</ele><time>2026-05-03T08:35:06.999Z</time></trkpt><trkpt lat="39.16032012633055" lon="16.092794565685438"><ele>178.0</ele><time>2026-05-03T08:35:07.999Z</time></trkpt><trkpt lat="39.160397444642804" lon="16.092846111270905"><ele>178.0</ele><time>2026-05-03T08:35:08.999Z</time></trkpt><trkpt lat="39.16047665586377" lon="16.09289861967386"><ele>178.0</ele><time>2026-05-03T08:35:09.999Z</time></trkpt><trkpt lat="39.16055548755872" lon="16.092950709227107"><ele>178.0</ele><time>2026-05-03T08:35:10.999Z</time></trkpt><trkpt lat="39.160630662124106" lon="16.093005742856864"><ele>178.0</ele><time>2026-05-03T08:35:11.999Z</time></trkpt><trkpt lat="39.16070491688353" lon="16.09306470080423"><ele>178.0</ele><time>2026-05-03T08:35:12.999Z</time></trkpt><trkpt lat="39.16078662491541" lon="16.093113719945194"><ele>178.0</ele><time>2026-05-03T08:35:13.999Z</time></trkpt><trkpt lat="39.16085529692927" lon="16.093197592579603"><ele>181.4</ele><time>2026-05-03T08:35:14.999Z</time></trkpt><trkpt lat="39.160903017173446" lon="16.093306276813994"><ele>184.8</ele><time>2026-05-03T08:35:15.999Z</time></trkpt><trkpt lat="39.16097271539493" lon="16.09340670761554"><ele>188.2</ele><time>2026-05-03T08:35:16.999Z</time></trkpt><trkpt lat="39.16099002717309" lon="16.093536937301746"><ele>191.6</ele><time>2026-05-03T08:35:17.999Z</time></trkpt><trkpt lat="39.161021920141266" lon="16.09366195715703"><ele>195.0</ele><time>2026-05-03T08:35:18.999Z</time></trkpt><trkpt lat="39.16105087859285" lon="16.093789347862998"><ele>195.0</ele><time>2026-05-03T08:35:19.999Z</time></trkpt><trkpt lat="39.161079266844276" lon="16.093928322136236"><ele>195.0</ele><time>2026-05-03T08:35:20.999Z</time></trkpt><trkpt lat="39.16110923580445" lon="16.09407682867559"><ele>195.0</ele><time>2026-05-03T08:35:21.999Z</time></trkpt><trkpt lat="39.16114074815088" lon="16.09422503762291"><ele>195.0</ele><time>2026-05-03T08:35:22.999Z</time></trkpt><trkpt lat="39.16117548180869" lon="16.094370721083965"><ele>197.83333333333334</ele><time>2026-05-03T08:35:23.999Z</time></trkpt><trkpt lat="39.161212106700496" lon="16.094514201283328"><ele>200.66666666666669</ele><time>2026-05-03T08:35:24.999Z</time></trkpt><trkpt lat="39.161243549274324" lon="16.09463428843222"><ele>203.5</ele><time>2026-05-03T08:35:25.999Z</time></trkpt><trkpt lat="39.16126811127101" lon="16.09473169359888"><ele>206.33333333333334</ele><time>2026-05-03T08:35:26.999Z</time></trkpt><trkpt lat="39.16127683240862" lon="16.09481475393254"><ele>209.16666666666669</ele><time>2026-05-03T08:35:28.999Z</time></trkpt><trkpt lat="39.16128841540481" lon="16.09491186890818"><ele>212.0</ele><time>2026-05-03T08:35:41Z</time></trkpt><trkpt lat="39.16132922677688" lon="16.095019298048165"><ele>210.33333333333334</ele><time>2026-05-03T08:35:43Z</time></trkpt><trkpt lat="39.16137151170814" lon="16.095124786666577"><ele>208.66666666666669</ele><time>2026-05-03T08:35:45Z</time></trkpt><trkpt lat="39.161402752027946" lon="16.0951994277384"><ele>207.0</ele><time>2026-05-03T08:35:46Z</time></trkpt><trkpt lat="39.161440736290395" lon="16.095290181823174"><ele>205.33333333333331</ele><time>2026-05-03T08:35:47Z</time></trkpt><trkpt lat="39.16149537261246" lon="16.09541757709395"><ele>203.66666666666666</ele><time>2026-05-03T08:35:49Z</time></trkpt><trkpt lat="39.16153332293608" lon="16.09550497019208"><ele>202.0</ele><time>2026-05-03T08:35:50Z</time></trkpt><trkpt lat="39.161572561574836" lon="16.09559442729539"><ele>201.99999999999997</ele><time>2026-05-03T08:35:51Z</time></trkpt><trkpt lat="39.161614160406735" lon="16.095685160439363"><ele>202.0</ele><time>2026-05-03T08:35:52Z</time></trkpt><trkpt lat="39.161663478051054" lon="16.095784162253945"><ele>202.0</ele><time>2026-05-03T08:35:53Z</time></trkpt><trkpt lat="39.16171276495095" lon="16.09587831192642"><ele>202.0</ele><time>2026-05-03T08:35:54Z</time></trkpt><trkpt lat="39.16176355581614" lon="16.095972252213823"><ele>201.99999999999997</ele><time>2026-05-03T08:35:55Z</time></trkpt><trkpt lat="39.16181506199512" lon="16.096067515584"><ele>202.0</ele><time>2026-05-03T08:35:56Z</time></trkpt><trkpt lat="39.161865675787425" lon="16.096162252653244"><ele>204.83333333333331</ele><time>2026-05-03T08:35:57Z</time></trkpt><trkpt lat="39.16191490778512" lon="16.096258774625692"><ele>207.66666666666666</ele><time>2026-05-03T08:35:58Z</time></trkpt><trkpt lat="39.16195614155647" lon="16.096356046551968"><ele>210.5</ele><time>2026-05-03T08:35:59Z</time></trkpt><trkpt lat="39.16198155401153" lon="16.096454623883606"><ele>213.33333333333331</ele><time>2026-05-03T08:36:00Z</time></trkpt><trkpt lat="39.16199422009427" lon="16.096554929468876"><ele>216.16666666666666</ele><time>2026-05-03T08:36:01Z</time></trkpt><trkpt lat="39.162008228738635" lon="16.096655936003806"><ele>219.0</ele><time>2026-05-03T08:36:02Z</time></trkpt><trkpt lat="39.16202281298667" lon="16.09675600643238"><ele>221.83333333333334</ele><time>2026-05-03T08:36:03Z</time></trkpt><trkpt lat="39.16203358325652" lon="16.096841300957045"><ele>224.66666666666669</ele><time>2026-05-03T08:36:04Z</time></trkpt><trkpt lat="39.16201631052376" lon="16.096955147499767"><ele>227.5</ele><time>2026-05-03T08:36:06Z</time></trkpt><trkpt lat="39.16190559619218" lon="16.096949157680704"><ele>230.33333333333334</ele><time>2026-05-03T08:36:08Z</time></trkpt><trkpt lat="39.16184057350647" lon="16.096903109377212"><ele>233.16666666666669</ele><time>2026-05-03T08:36:09Z</time></trkpt><trkpt lat="39.161776822745196" lon="16.0968403812119"><ele>236.0</ele><time>2026-05-03T08:36:10Z</time></trkpt><trkpt lat="39.16171117090685" lon="16.09676447041324"><ele>236.0</ele><time>2026-05-03T08:36:11Z</time></trkpt><trkpt lat="39.16163945774487" lon="16.09668897763688"><ele>236.00000000000003</ele><time>2026-05-03T08:36:12Z</time></trkpt><trkpt lat="39.16156072674959" lon="16.096600224405098"><ele>236.00000000000003</ele><time>2026-05-03T08:36:13Z</time></trkpt><trkpt lat="39.1614807444659" lon="16.096507474900886"><ele>236.0</ele><time>2026-05-03T08:36:14Z</time></trkpt><trkpt lat="39.16140207020287" lon="16.09641684224932"><ele>236.0</ele><time>2026-05-03T08:36:15Z</time></trkpt><trkpt lat="39.16132016169844" lon="16.09632581753554"><ele>238.60000000000002</ele><time>2026-05-03T08:36:16Z</time></trkpt><trkpt lat="39.161238086613025" lon="16.096231575975956"><ele>241.20000000000002</ele><time>2026-05-03T08:36:17Z</time></trkpt><trkpt lat="39.16115820863556" lon="16.096133372313485"><ele>243.79999999999998</ele><time>2026-05-03T08:36:18Z</time></trkpt><trkpt lat="39.161079924914105" lon="16.09603921850925"><ele>246.39999999999998</ele><time>2026-05-03T08:36:19Z</time></trkpt><trkpt lat="39.16100138699161" lon="16.095942851094836"><ele>249.0</ele><time>2026-05-03T08:36:20Z</time></trkpt><trkpt lat="39.16093015281613" lon="16.09583619558431"><ele>248.6</ele><time>2026-05-03T08:36:21Z</time></trkpt><trkpt lat="39.16086675572606" lon="16.095725223090817"><ele>248.2</ele><time>2026-05-03T08:36:22Z</time></trkpt><trkpt lat="39.160802211678515" lon="16.095616841784544"><ele>247.79999999999998</ele><time>2026-05-03T08:36:23Z</time></trkpt><trkpt lat="39.16073126807059" lon="16.095519522435097"><ele>247.39999999999998</ele><time>2026-05-03T08:36:24Z</time></trkpt><trkpt lat="39.16065519992614" lon="16.09544542942065"><ele>247.0</ele><time>2026-05-03T08:36:25Z</time></trkpt><trkpt lat="39.16057325722546" lon="16.09540612041456"><ele>247.0</ele><time>2026-05-03T08:36:26Z</time></trkpt><trkpt lat="39.16047805293641" lon="16.09537998359036"><ele>247.0</ele><time>2026-05-03T08:36:27Z</time></trkpt><trkpt lat="39.160373579902334" lon="16.095351707921033"><ele>247.0</ele><time>2026-05-03T08:36:28Z</time></trkpt><trkpt lat="39.16027417980256" lon="16.095310876136292"><ele>247.0</ele><time>2026-05-03T08:36:29Z</time></trkpt><trkpt lat="39.160176958343314" lon="16.095255432642222"><ele>247.0</ele><time>2026-05-03T08:36:30Z</time></trkpt><trkpt lat="39.160084124887426" lon="16.09519230225747"><ele>247.0</ele><time>2026-05-03T08:36:31Z</time></trkpt><trkpt lat="39.15998645396301" lon="16.09512447530235"><ele>247.0</ele><time>2026-05-03T08:36:32Z</time></trkpt><trkpt lat="39.159891130344754" lon="16.095061596474636"><ele>247.0</ele><time>2026-05-03T08:36:33Z</time></trkpt><trkpt lat="39.15979766320474" lon="16.094995525120986"><ele>247.0</ele><time>2026-05-03T08:36:33.999Z</time></trkpt><trkpt lat="39.15970438375048" lon="16.094928508470268"><ele>247.0</ele><time>2026-05-03T08:36:34.999Z</time></trkpt><trkpt lat="39.15961414771655" lon="16.09486048778552"><ele>248.6</ele><time>2026-05-03T08:36:35.999Z</time></trkpt><trkpt lat="39.159524154475655" lon="16.09478660404899"><ele>250.2</ele><time>2026-05-03T08:36:36.999Z</time></trkpt><trkpt lat="39.15944102615711" lon="16.09470688993944"><ele>251.8</ele><time>2026-05-03T08:36:37.999Z</time></trkpt><trkpt lat="39.1593592570469" lon="16.094622655368124"><ele>253.4</ele><time>2026-05-03T08:36:38.999Z</time></trkpt><trkpt lat="39.159275833065855" lon="16.09453883473612"><ele>255.0</ele><time>2026-05-03T08:36:39.999Z</time></trkpt><trkpt lat="39.15920105635085" lon="16.094456097334927"><ele>255.0</ele><time>2026-05-03T08:36:40.999Z</time></trkpt><trkpt lat="39.159114168162525" lon="16.094374631854055"><ele>255.0</ele><time>2026-05-03T08:36:41.999Z</time></trkpt><trkpt lat="39.15903129671502" lon="16.094294300860177"><ele>255.0</ele><time>2026-05-03T08:36:42.999Z</time></trkpt><trkpt lat="39.158950198735475" lon="16.094229798387353"><ele>255.0</ele><time>2026-05-03T08:36:43.999Z</time></trkpt><trkpt lat="39.15885514964982" lon="16.094160674170805"><ele>255.0</ele><time>2026-05-03T08:36:44.999Z</time></trkpt><trkpt lat="39.15876104357413" lon="16.09409782237285"><ele>252.4</ele><time>2026-05-03T08:36:45.999Z</time></trkpt><trkpt lat="39.15866503538824" lon="16.094035071990234"><ele>249.8</ele><time>2026-05-03T08:36:46.999Z</time></trkpt><trkpt lat="39.158571910924884" lon="16.093972353754605"><ele>247.2</ele><time>2026-05-03T08:36:47.999Z</time></trkpt><trkpt lat="39.158476786357326" lon="16.09391420538491"><ele>244.6</ele><time>2026-05-03T08:36:48.999Z</time></trkpt><trkpt lat="39.15837834452351" lon="16.093866663207468"><ele>242.0</ele><time>2026-05-03T08:36:49.999Z</time></trkpt><trkpt lat="39.15828110457649" lon="16.09382961824944"><ele>244.39999999999998</ele><time>2026-05-03T08:36:50.999Z</time></trkpt><trkpt lat="39.15818626432919" lon="16.093799175822948"><ele>246.79999999999998</ele><time>2026-05-03T08:36:51.999Z</time></trkpt><trkpt lat="39.15808881266684" lon="16.093780685340416"><ele>249.2</ele><time>2026-05-03T08:36:52.999Z</time></trkpt><trkpt lat="39.157999625098384" lon="16.093771792688084"><ele>251.6</ele><time>2026-05-03T08:36:53.999Z</time></trkpt><trkpt lat="39.15791320516352" lon="16.09379192775453"><ele>254.0</ele><time>2026-05-03T08:36:54.999Z</time></trkpt><trkpt lat="39.157830128823875" lon="16.093841543109388"><ele>254.0</ele><time>2026-05-03T08:36:55.999Z</time></trkpt><trkpt lat="39.15773486885715" lon="16.093891944892118"><ele>253.99999999999997</ele><time>2026-05-03T08:36:56.999Z</time></trkpt><trkpt lat="39.1576417013432" lon="16.09396086249714"><ele>253.99999999999997</ele><time>2026-05-03T08:36:57.999Z</time></trkpt><trkpt lat="39.157552077041906" lon="16.09404159694343"><ele>254.0</ele><time>2026-05-03T08:36:58.999Z</time></trkpt><trkpt lat="39.15746132503663" lon="16.0940956962526"><ele>254.0</ele><time>2026-05-03T08:36:59.999Z</time></trkpt><trkpt lat="39.15737060035222" lon="16.094134649130694"><ele>257.4</ele><time>2026-05-03T08:37:00.999Z</time></trkpt><trkpt lat="39.15728323190954" lon="16.094147645835736"><ele>260.79999999999995</ele><time>2026-05-03T08:37:01.999Z</time></trkpt><trkpt lat="39.15721592590661" lon="16.09412479675249"><ele>264.20000000000005</ele><time>2026-05-03T08:37:02.999Z</time></trkpt><trkpt lat="39.157142046044115" lon="16.093974436832877"><ele>267.6</ele><time>2026-05-03T08:37:04.999Z</time></trkpt><trkpt lat="39.15711416742804" lon="16.093846786010197"><ele>271.0</ele><time>2026-05-03T08:37:05.999Z</time></trkpt><trkpt lat="39.157077128728176" lon="16.093717251289853"><ele>271.0</ele><time>2026-05-03T08:37:06.999Z</time></trkpt><trkpt lat="39.15701910163042" lon="16.093604181975145"><ele>271.0</ele><time>2026-05-03T08:37:07.999Z</time></trkpt><trkpt lat="39.15694561467977" lon="16.093526423092854"><ele>271.0</ele><time>2026-05-03T08:37:08.999Z</time></trkpt><trkpt lat="39.156870126747165" lon="16.093506460214535"><ele>271.0</ele><time>2026-05-03T08:37:09.999Z</time></trkpt><trkpt lat="39.1568030509651" lon="16.093529639105405"><ele>271.0</ele><time>2026-05-03T08:37:10.999Z</time></trkpt><trkpt lat="39.156735178919256" lon="16.093590411630554"><ele>271.0</ele><time>2026-05-03T08:37:11.999Z</time></trkpt><trkpt lat="39.156654051350976" lon="16.093654920375602"><ele>271.0</ele><time>2026-05-03T08:37:12.999Z</time></trkpt><trkpt lat="39.15657355627673" lon="16.09372208133061"><ele>271.0</ele><time>2026-05-03T08:37:13.999Z</time></trkpt><trkpt lat="39.156491523308404" lon="16.09378644474022"><ele>271.0</ele><time>2026-05-03T08:37:14.999Z</time></trkpt><trkpt lat="39.156411684232125" lon="16.093861526052482"><ele>271.0</ele><time>2026-05-03T08:37:15.999Z</time></trkpt><trkpt lat="39.15631428093455" lon="16.09389669034168"><ele>271.0</ele><time>2026-05-03T08:37:16.999Z</time></trkpt><trkpt lat="39.15622527090722" lon="16.093916119259383"><ele>273.0</ele><time>2026-05-03T08:37:17.999Z</time></trkpt><trkpt lat="39.15614064942085" lon="16.09389462866945"><ele>275.0</ele><time>2026-05-03T08:37:18.999Z</time></trkpt><trkpt lat="39.15606074750863" lon="16.093858187648305"><ele>277.0</ele><time>2026-05-03T08:37:19.999Z</time></trkpt><trkpt lat="39.15597592109856" lon="16.09384498327488"><ele>279.0</ele><time>2026-05-03T08:37:20.999Z</time></trkpt><trkpt lat="39.15588804120843" lon="16.0938654909842"><ele>281.0</ele><time>2026-05-03T08:37:21.999Z</time></trkpt><trkpt lat="39.155793089727595" lon="16.093883699920678"><ele>283.0</ele><time>2026-05-03T08:37:22.999Z</time></trkpt><trkpt lat="39.15569080986824" lon="16.093871964593855"><ele>287.6</ele><time>2026-05-03T08:37:23.999Z</time></trkpt><trkpt lat="39.15559283224154" lon="16.0938467599573"><ele>292.20000000000005</ele><time>2026-05-03T08:37:24.999Z</time></trkpt><trkpt lat="39.15549877852249" lon="16.093836348822304"><ele>296.8</ele><time>2026-05-03T08:37:25.999Z</time></trkpt><trkpt lat="39.155414290660644" lon="16.093849075513912"><ele>301.40000000000003</ele><time>2026-05-03T08:37:26.999Z</time></trkpt><trkpt lat="39.155332643882645" lon="16.093879176026388"><ele>306.0</ele><time>2026-05-03T08:37:27.999Z</time></trkpt><trkpt lat="39.15525045590147" lon="16.093929908426013"><ele>306.0</ele><time>2026-05-03T08:37:28.999Z</time></trkpt><trkpt lat="39.15517119174381" lon="16.093987431470094"><ele>306.0</ele><time>2026-05-03T08:37:29.999Z</time></trkpt><trkpt lat="39.15510501571617" lon="16.09404709142058"><ele>306.0</ele><time>2026-05-03T08:37:30.999Z</time></trkpt><trkpt lat="39.15505679415501" lon="16.09410479666311"><ele>306.0</ele><time>2026-05-03T08:37:31.999Z</time></trkpt><trkpt lat="39.15501999064948" lon="16.094248447890305"><ele>306.0</ele><time>2026-05-03T08:37:33.999Z</time></trkpt><trkpt lat="39.15503879852002" lon="16.09435096850685"><ele>306.0</ele><time>2026-05-03T08:37:34.999Z</time></trkpt><trkpt lat="39.15508545216102" lon="16.094453572504566"><ele>307.8333333333333</ele><time>2026-05-03T08:37:35.999Z</time></trkpt><trkpt lat="39.155141272949535" lon="16.09454086393069"><ele>309.6666666666667</ele><time>2026-05-03T08:37:36.999Z</time></trkpt><trkpt lat="39.155190802988535" lon="16.094596364206975"><ele>311.5</ele><time>2026-05-03T08:37:37.999Z</time></trkpt><trkpt lat="39.15524145076216" lon="16.0946678293028"><ele>313.33333333333337</ele><time>2026-05-03T08:37:40.999Z</time></trkpt><trkpt lat="39.15532513382373" lon="16.094706014266453"><ele>315.1666666666667</ele><time>2026-05-03T08:38:15Z</time></trkpt><trkpt lat="39.15540629918788" lon="16.094761800712263"><ele>317.0</ele><time>2026-05-03T08:38:17Z</time></trkpt><trkpt lat="39.15548064528031" lon="16.0948140085548"><ele>317.0</ele><time>2026-05-03T08:38:19Z</time></trkpt><trkpt lat="39.155559772872216" lon="16.094870413586996"><ele>317.0</ele><time>2026-05-03T08:38:21Z</time></trkpt><trkpt lat="39.155637882579185" lon="16.09492684938272"><ele>317.0</ele><time>2026-05-03T08:38:23Z</time></trkpt><trkpt lat="39.15575141949186" lon="16.095003978100962"><ele>317.0</ele><time>2026-05-03T08:38:25Z</time></trkpt><trkpt lat="39.15582768410071" lon="16.095047254131032"><ele>317.0</ele><time>2026-05-03T08:38:26Z</time></trkpt><trkpt lat="39.15591429636079" lon="16.095095634307746"><ele>317.5</ele><time>2026-05-03T08:38:27Z</time></trkpt><trkpt lat="39.15598126252682" lon="16.09513304048611"><ele>318.0</ele><time>2026-05-03T08:38:28Z</time></trkpt><trkpt lat="39.156039188979044" lon="16.095165871175176"><ele>318.5</ele><time>2026-05-03T08:38:29Z</time></trkpt><trkpt lat="39.1561021176978" lon="16.095202836060402"><ele>319.0</ele><time>2026-05-03T08:38:30Z</time></trkpt><trkpt lat="39.15619209903216" lon="16.095272161662304"><ele>319.5</ele><time>2026-05-03T08:38:31Z</time></trkpt><trkpt lat="39.156252582597524" lon="16.095354585735322"><ele>320.0</ele><time>2026-05-03T08:38:33Z</time></trkpt><trkpt lat="39.156472850426475" lon="16.095913161446262"><ele>320.0</ele><time>2026-05-03T08:38:34Z</time></trkpt><trkpt lat="39.15642954046921" lon="16.096118150109895"><ele>320.0</ele><time>2026-05-03T08:38:35Z</time></trkpt><trkpt lat="39.15641235534041" lon="16.096208885738516"><ele>320.0</ele><time>2026-05-03T08:38:36Z</time></trkpt><trkpt lat="39.15638677246346" lon="16.096285177614444"><ele>320.0</ele><time>2026-05-03T08:38:38Z</time></trkpt><trkpt lat="39.155714654983434" lon="16.096195169151066"><ele>313.1666666666667</ele><time>2026-05-03T08:38:40Z</time></trkpt><trkpt lat="39.15564714468597" lon="16.096186050514266"><ele>306.33333333333337</ele><time>2026-05-03T08:38:41Z</time></trkpt><trkpt lat="39.15555795744124" lon="16.096170077644846"><ele>299.5</ele><time>2026-05-03T08:38:42Z</time></trkpt><trkpt lat="39.155475205803505" lon="16.096150754394916"><ele>292.6666666666667</ele><time>2026-05-03T08:38:43Z</time></trkpt><trkpt lat="39.15541001435425" lon="16.09612440116647"><ele>285.8333333333333</ele><time>2026-05-03T08:38:44Z</time></trkpt><trkpt lat="39.155312443947125" lon="16.096062646752596"><ele>279.0</ele><time>2026-05-03T08:38:46Z</time></trkpt><trkpt lat="39.15521962312787" lon="16.09605242487593"><ele>279.0</ele><time>2026-05-03T08:38:48Z</time></trkpt><trkpt lat="39.15519705858416" lon="16.096151754619466"><ele>279.0</ele><time>2026-05-03T08:38:50Z</time></trkpt><trkpt lat="39.155237833175455" lon="16.096285456041908"><ele>279.0</ele><time>2026-05-03T08:38:52Z</time></trkpt><trkpt lat="39.15531758475519" lon="16.09640022063754"><ele>279.0</ele><time>2026-05-03T08:38:53.999Z</time></trkpt><trkpt lat="39.15538204066586" lon="16.096506234824965"><ele>279.0</ele><time>2026-05-03T08:38:55.999Z</time></trkpt><trkpt lat="39.15543081297261" lon="16.096584769437012"><ele>278.5</ele><time>2026-05-03T08:38:57.999Z</time></trkpt><trkpt lat="39.15545845063549" lon="16.096687412061875"><ele>278.0</ele><time>2026-05-03T08:38:59.999Z</time></trkpt><trkpt lat="39.155463951284645" lon="16.096792288530715"><ele>277.5</ele><time>2026-05-03T08:39:01.999Z</time></trkpt><trkpt lat="39.155405000394666" lon="16.096857997258844"><ele>277.0</ele><time>2026-05-03T08:39:05.999Z</time></trkpt><trkpt lat="39.155360807743605" lon="16.096940493737915"><ele>276.5</ele><time>2026-05-03T08:39:09.999Z</time></trkpt><trkpt lat="39.15532481908006" lon="16.097020664075572"><ele>276.0</ele><time>2026-05-03T08:39:11.999Z</time></trkpt><trkpt lat="39.15528838122311" lon="16.097097066095284"><ele>276.0</ele><time>2026-05-03T08:39:14.999Z</time></trkpt><trkpt lat="39.155244072134906" lon="16.09716522956064"><ele>276.0</ele><time>2026-05-03T08:39:21.999Z</time></trkpt><trkpt lat="39.15518234458244" lon="16.097210525298138"><ele>276.0</ele><time>2026-05-03T08:39:25.999Z</time></trkpt><trkpt lat="39.1551199380154" lon="16.0972672448089"><ele>276.0</ele><time>2026-05-03T08:39:36.999Z</time></trkpt><trkpt lat="39.15501863308239" lon="16.09730776410236"><ele>276.0</ele><time>2026-05-03T08:39:38.999Z</time></trkpt><trkpt lat="39.15492518594602" lon="16.09735633293152"><ele>276.0</ele><time>2026-05-03T08:39:40.999Z</time></trkpt><trkpt lat="39.15483521641351" lon="16.097393783015164"><ele>273.2</ele><time>2026-05-03T08:39:42.999Z</time></trkpt><trkpt lat="39.15476940994484" lon="16.0974147083025"><ele>270.40000000000003</ele><time>2026-05-03T08:39:43.999Z</time></trkpt><trkpt lat="39.15467135928884" lon="16.097451241292294"><ele>267.6</ele><time>2026-05-03T08:39:45.999Z</time></trkpt><trkpt lat="39.154579998292654" lon="16.097477199520657"><ele>264.8</ele><time>2026-05-03T08:39:47.999Z</time></trkpt><trkpt lat="39.154458194117666" lon="16.09749609361971"><ele>262.0</ele><time>2026-05-03T08:39:49.999Z</time></trkpt><trkpt lat="39.15436280058087" lon="16.097500981017518"><ele>262.0</ele><time>2026-05-03T08:39:52Z</time></trkpt><trkpt lat="39.154248841677735" lon="16.09746294519927"><ele>262.0</ele><time>2026-05-03T08:39:54Z</time></trkpt><trkpt lat="39.15418892012034" lon="16.097437040467426"><ele>262.0</ele><time>2026-05-03T08:39:55Z</time></trkpt><trkpt lat="39.15408843397182" lon="16.097460025378044"><ele>262.0</ele><time>2026-05-03T08:39:57Z</time></trkpt><trkpt lat="39.1540230678726" lon="16.09751605661486"><ele>262.0</ele><time>2026-05-03T08:39:58Z</time></trkpt><trkpt lat="39.15397300904896" lon="16.09757663136901"><ele>262.0</ele><time>2026-05-03T08:39:59Z</time></trkpt><trkpt lat="39.15393455811403" lon="16.09764138715571"><ele>257.4</ele><time>2026-05-03T08:40:00Z</time></trkpt><trkpt lat="39.15385221777866" lon="16.09774352463056"><ele>252.79999999999998</ele><time>2026-05-03T08:40:02Z</time></trkpt><trkpt lat="39.15372975250383" lon="16.097815302969323"><ele>248.2</ele><time>2026-05-03T08:40:04Z</time></trkpt><trkpt lat="39.153663108785935" lon="16.097837307119885"><ele>243.6</ele><time>2026-05-03T08:40:05Z</time></trkpt><trkpt lat="39.15355855466253" lon="16.097891368653645"><ele>239.0</ele><time>2026-05-03T08:40:07Z</time></trkpt><trkpt lat="39.15349159465525" lon="16.097919635139462"><ele>239.00000000000003</ele><time>2026-05-03T08:40:08Z</time></trkpt><trkpt lat="39.15340264486475" lon="16.09793160394351"><ele>239.0</ele><time>2026-05-03T08:40:09Z</time></trkpt><trkpt lat="39.15331927686676" lon="16.09793070533841"><ele>239.0</ele><time>2026-05-03T08:40:10Z</time></trkpt><trkpt lat="39.15323493019637" lon="16.09791082960101"><ele>239.0</ele><time>2026-05-03T08:40:11Z</time></trkpt><trkpt lat="39.153150213759915" lon="16.097873415480574"><ele>239.00000000000003</ele><time>2026-05-03T08:40:12Z</time></trkpt><trkpt lat="39.153070211300594" lon="16.097841023716082"><ele>239.0</ele><time>2026-05-03T08:40:13Z</time></trkpt><trkpt lat="39.15300553666305" lon="16.097833269931296"><ele>233.75</ele><time>2026-05-03T08:40:14Z</time></trkpt><trkpt lat="39.1528844964278" lon="16.097826170846464"><ele>228.5</ele><time>2026-05-03T08:40:16Z</time></trkpt><trkpt lat="39.152781098296344" lon="16.097817277258187"><ele>223.25</ele><time>2026-05-03T08:40:18Z</time></trkpt><trkpt lat="39.15267289820125" lon="16.097813794671954"><ele>218.0</ele><time>2026-05-03T08:40:20Z</time></trkpt><trkpt lat="39.152551129601704" lon="16.097847100482614"><ele>218.00000000000003</ele><time>2026-05-03T08:40:22Z</time></trkpt><trkpt lat="39.15246658106253" lon="16.097892053933137"><ele>218.0</ele><time>2026-05-03T08:40:24Z</time></trkpt><trkpt lat="39.15239989730593" lon="16.09792683524032"><ele>218.0</ele><time>2026-05-03T08:40:26Z</time></trkpt><trkpt lat="39.15230708190432" lon="16.097918192307333"><ele>218.0</ele><time>2026-05-03T08:40:29Z</time></trkpt><trkpt lat="39.15223780372936" lon="16.09794523111868"><ele>218.00000000000003</ele><time>2026-05-03T08:40:46Z</time></trkpt><trkpt lat="39.15217829740636" lon="16.0979827413138"><ele>218.0</ele><time>2026-05-03T08:40:51Z</time></trkpt><trkpt lat="39.15211832401869" lon="16.09803189452511"><ele>214.4</ele><time>2026-05-03T08:40:54.999Z</time></trkpt><trkpt lat="39.152056757552096" lon="16.09806542416935"><ele>210.8</ele><time>2026-05-03T08:40:56.999Z</time></trkpt><trkpt lat="39.15196901470495" lon="16.098048576149488"><ele>207.2</ele><time>2026-05-03T08:40:58.999Z</time></trkpt><trkpt lat="39.1518928621656" lon="16.09803050460813"><ele>203.6</ele><time>2026-05-03T08:41:00.999Z</time></trkpt><trkpt lat="39.15179876929427" lon="16.09802366322264"><ele>200.0</ele><time>2026-05-03T08:41:02.999Z</time></trkpt><trkpt lat="39.151676352315874" lon="16.09806162727468"><ele>200.0</ele><time>2026-05-03T08:41:04.999Z</time></trkpt><trkpt lat="39.1516087521126" lon="16.09803083474906"><ele>200.0</ele><time>2026-05-03T08:41:05.999Z</time></trkpt><trkpt lat="39.15153832273475" lon="16.097993082226843"><ele>200.0</ele><time>2026-05-03T08:41:06.999Z</time></trkpt><trkpt lat="39.15142357789544" lon="16.09794686549985"><ele>200.0</ele><time>2026-05-03T08:41:08.999Z</time></trkpt><trkpt lat="39.151317032617285" lon="16.097958783013134"><ele>200.0</ele><time>2026-05-03T08:41:10.999Z</time></trkpt><trkpt lat="39.151225117686025" lon="16.09796346334399"><ele>196.66666666666669</ele><time>2026-05-03T08:41:12.999Z</time></trkpt><trkpt lat="39.15113860362199" lon="16.097982814773285"><ele>193.33333333333334</ele><time>2026-05-03T08:41:14.999Z</time></trkpt><trkpt lat="39.15105574870138" lon="16.097969278433027"><ele>190.0</ele><time>2026-05-03T08:41:16.999Z</time></trkpt><trkpt lat="39.15098499357182" lon="16.097950282082337"><ele>186.66666666666669</ele><time>2026-05-03T08:41:18.999Z</time></trkpt><trkpt lat="39.150914253262776" lon="16.097965715659296"><ele>183.33333333333334</ele><time>2026-05-03T08:41:21.999Z</time></trkpt><trkpt lat="39.15084384368282" lon="16.097978570280816"><ele>180.0</ele><time>2026-05-03T08:41:27.999Z</time></trkpt><trkpt lat="39.15076797638986" lon="16.097985091735364"><ele>175.66666666666666</ele><time>2026-05-03T08:41:31.999Z</time></trkpt><trkpt lat="39.15068921253186" lon="16.09800476008029"><ele>171.33333333333334</ele><time>2026-05-03T08:41:35.999Z</time></trkpt><trkpt lat="39.15061563989289" lon="16.098005948424472"><ele>167.0</ele><time>2026-05-03T08:41:38.999Z</time></trkpt><trkpt lat="39.15053332383592" lon="16.09802184476183"><ele>162.66666666666669</ele><time>2026-05-03T08:41:41.999Z</time></trkpt><trkpt lat="39.150465707401175" lon="16.098047496109228"><ele>158.33333333333334</ele><time>2026-05-03T08:41:43.999Z</time></trkpt><trkpt lat="39.15039343091932" lon="16.09807773555131"><ele>154.0</ele><time>2026-05-03T08:41:45.999Z</time></trkpt><trkpt lat="39.15036688728463" lon="16.09798402254976"><ele>154.0</ele><time>2026-05-03T08:41:48.999Z</time></trkpt><trkpt lat="39.15041669381978" lon="16.097933640638903"><ele>154.0</ele><time>2026-05-03T08:41:50.999Z</time></trkpt><trkpt lat="39.15048382127049" lon="16.09784090675721"><ele>154.0</ele><time>2026-05-03T08:41:53.999Z</time></trkpt><trkpt lat="39.150532898022206" lon="16.097766305935124"><ele>154.0</ele><time>2026-05-03T08:41:55.999Z</time></trkpt><trkpt lat="39.15059782805926" lon="16.09766580459204"><ele>154.0</ele><time>2026-05-03T08:41:59Z</time></trkpt><trkpt lat="39.15065153720545" lon="16.097587595576513"><ele>154.0</ele><time>2026-05-03T08:42:01Z</time></trkpt><trkpt lat="39.1506913751354" lon="16.097513142179967"><ele>153.33333333333334</ele><time>2026-05-03T08:42:03Z</time></trkpt><trkpt lat="39.15073705422978" lon="16.097448620448414"><ele>152.66666666666669</ele><time>2026-05-03T08:42:11Z</time></trkpt><trkpt lat="39.15078281060632" lon="16.097369833959938"><ele>152.0</ele><time>2026-05-03T08:42:15Z</time></trkpt><trkpt lat="39.15083167368915" lon="16.097298277809536"><ele>151.33333333333334</ele><time>2026-05-03T08:42:17Z</time></trkpt><trkpt lat="39.1509054658705" lon="16.097222355114525"><ele>150.66666666666666</ele><time>2026-05-03T08:42:19Z</time></trkpt><trkpt lat="39.1509650895981" lon="16.097146023420436"><ele>150.0</ele><time>2026-05-03T08:42:22Z</time></trkpt><trkpt lat="39.15090867330693" lon="16.097106063982913"><ele>150.0</ele><time>2026-05-03T08:42:24Z</time></trkpt><trkpt lat="39.150829177169484" lon="16.097135749940364"><ele>150.0</ele><time>2026-05-03T08:42:27Z</time></trkpt><trkpt lat="39.15074832819253" lon="16.097143744422898"><ele>150.0</ele><time>2026-05-03T08:42:31Z</time></trkpt><trkpt lat="39.150671263979014" lon="16.097160082567015"><ele>150.0</ele><time>2026-05-03T08:42:35Z</time></trkpt><trkpt lat="39.150607391372795" lon="16.097153781290753"><ele>150.0</ele><time>2026-05-03T08:42:37Z</time></trkpt><trkpt lat="39.15052044987814" lon="16.097164380904026"><ele>150.0</ele><time>2026-05-03T08:42:40Z</time></trkpt><trkpt lat="39.15045628566332" lon="16.097160798512398"><ele>147.5</ele><time>2026-05-03T08:42:42Z</time></trkpt><trkpt lat="39.15038271063995" lon="16.09715298809133"><ele>145.0</ele><time>2026-05-03T08:42:44Z</time></trkpt><trkpt lat="39.15029883255794" lon="16.09715129894255"><ele>142.5</ele><time>2026-05-03T08:42:46Z</time></trkpt><trkpt lat="39.1502183114367" lon="16.097153424314083"><ele>140.0</ele><time>2026-05-03T08:42:48Z</time></trkpt><trkpt lat="39.15014159980915" lon="16.097168532589922"><ele>137.5</ele><time>2026-05-03T08:42:49.999Z</time></trkpt><trkpt lat="39.15006112932073" lon="16.097204561818497"><ele>135.0</ele><time>2026-05-03T08:42:51.999Z</time></trkpt><trkpt lat="39.14998455843817" lon="16.09726445795715"><ele>135.0</ele><time>2026-05-03T08:42:53.999Z</time></trkpt><trkpt lat="39.149888528406855" lon="16.097329809150644"><ele>135.0</ele><time>2026-05-03T08:42:56.999Z</time></trkpt><trkpt lat="39.149828511025305" lon="16.097375703663822"><ele>135.0</ele><time>2026-05-03T08:42:58.999Z</time></trkpt><trkpt lat="39.14975127643492" lon="16.09742164372929"><ele>135.0</ele><time>2026-05-03T08:43:00.999Z</time></trkpt><trkpt lat="39.14966109955284" lon="16.097485515726536"><ele>135.0</ele><time>2026-05-03T08:43:02.999Z</time></trkpt><trkpt lat="39.14959354864116" lon="16.097556881125364"><ele>131.4</ele><time>2026-05-03T08:43:04.999Z</time></trkpt><trkpt lat="39.14958764823655" lon="16.097669623998872"><ele>127.8</ele><time>2026-05-03T08:43:06.999Z</time></trkpt><trkpt lat="39.14961423842905" lon="16.097798166220425"><ele>124.19999999999999</ele><time>2026-05-03T08:43:08.999Z</time></trkpt><trkpt lat="39.14965872640598" lon="16.097897578589905"><ele>120.6</ele><time>2026-05-03T08:43:10.999Z</time></trkpt><trkpt lat="39.14970645736834" lon="16.098001060994854"><ele>117.0</ele><time>2026-05-03T08:43:12.999Z</time></trkpt><trkpt lat="39.149708473661484" lon="16.09812176757207"><ele>117.0</ele><time>2026-05-03T08:43:14.999Z</time></trkpt><trkpt lat="39.14971286159898" lon="16.098219990210264"><ele>117.0</ele><time>2026-05-03T08:43:16.999Z</time></trkpt><trkpt lat="39.149694720800426" lon="16.0983160991909"><ele>117.0</ele><time>2026-05-03T08:43:18.999Z</time></trkpt><trkpt lat="39.14966396926898" lon="16.098419360262564"><ele>117.0</ele><time>2026-05-03T08:43:20.999Z</time></trkpt><trkpt lat="39.149628343531276" lon="16.09851967446502"><ele>117.0</ele><time>2026-05-03T08:43:23.999Z</time></trkpt><trkpt lat="39.149610072243135" lon="16.09860791612038"><ele>117.0</ele><time>2026-05-03T08:43:50.999Z</time></trkpt><trkpt lat="39.14960788639088" lon="16.09870204139955"><ele>116.83333333333333</ele><time>2026-05-03T08:44:54.999Z</time></trkpt><trkpt lat="39.14965577702679" lon="16.098803541862917"><ele>116.66666666666666</ele><time>2026-05-03T08:44:56.999Z</time></trkpt><trkpt lat="39.149735445585286" lon="16.09882772311795"><ele>116.5</ele><time>2026-05-03T08:44:59.999Z</time></trkpt><trkpt lat="39.14980648637097" lon="16.098836828488057"><ele>116.33333333333333</ele><time>2026-05-03T08:45:01.999Z</time></trkpt><trkpt lat="39.14987953667215" lon="16.09887340156142"><ele>116.16666666666666</ele><time>2026-05-03T08:45:04.999Z</time></trkpt><trkpt lat="39.14984181601236" lon="16.098946262078567"><ele>116.0</ele><time>2026-05-03T08:45:07.999Z</time></trkpt><trkpt lat="39.14977582186802" lon="16.098940523881648"><ele>115.99999999999999</ele><time>2026-05-03T08:45:08.999Z</time></trkpt><trkpt lat="39.1496932151716" lon="16.098928307282197"><ele>116.0</ele><time>2026-05-03T08:45:09.999Z</time></trkpt><trkpt lat="39.1496108095836" lon="16.098933025715255"><ele>116.0</ele><time>2026-05-03T08:45:10.999Z</time></trkpt><trkpt lat="39.149510913449454" lon="16.09900337138033"><ele>116.0</ele><time>2026-05-03T08:45:12.999Z</time></trkpt><trkpt lat="39.14944759539711" lon="16.09903861287273"><ele>115.99999999999999</ele><time>2026-05-03T08:45:14.999Z</time></trkpt><trkpt lat="39.14938175308507" lon="16.099047024556782"><ele>116.0</ele><time>2026-05-03T08:45:16.999Z</time></trkpt><trkpt lat="39.14930228405649" lon="16.099071483125826"><ele>115.66666666666666</ele><time>2026-05-03T08:45:18.999Z</time></trkpt><trkpt lat="39.149224201870005" lon="16.099104543274112"><ele>115.33333333333333</ele><time>2026-05-03T08:45:20.999Z</time></trkpt><trkpt lat="39.149143875286406" lon="16.099141233633574"><ele>115.0</ele><time>2026-05-03T08:45:22.999Z</time></trkpt><trkpt lat="39.14907142099349" lon="16.099162400316107"><ele>114.66666666666666</ele><time>2026-05-03T08:45:24.999Z</time></trkpt><trkpt lat="39.149005306917324" lon="16.09919111634584"><ele>114.33333333333333</ele><time>2026-05-03T08:45:26.999Z</time></trkpt><trkpt lat="39.14893360866813" lon="16.099228488447114"><ele>114.0</ele><time>2026-05-03T08:45:28.999Z</time></trkpt><trkpt lat="39.14885198773522" lon="16.099255146143264"><ele>112.5</ele><time>2026-05-03T08:45:30.999Z</time></trkpt><trkpt lat="39.14872511280098" lon="16.099292497102397"><ele>111.0</ele><time>2026-05-03T08:45:32.999Z</time></trkpt><trkpt lat="39.14862987009442" lon="16.099325916369022"><ele>109.5</ele><time>2026-05-03T08:45:33.999Z</time></trkpt><trkpt lat="39.14851441534571" lon="16.099320377679877"><ele>108.0</ele><time>2026-05-03T08:45:34.999Z</time></trkpt><trkpt lat="39.1484026464885" lon="16.099366912930233"><ele>108.0</ele><time>2026-05-03T08:45:35.999Z</time></trkpt><trkpt lat="39.14828917605885" lon="16.09943643379021"><ele>108.0</ele><time>2026-05-03T08:45:36.999Z</time></trkpt><trkpt lat="39.14816302354039" lon="16.099484338891852"><ele>108.0</ele><time>2026-05-03T08:45:37.999Z</time></trkpt><trkpt lat="39.14805679060896" lon="16.099528108755035"><ele>108.0</ele><time>2026-05-03T08:45:38.999Z</time></trkpt><trkpt lat="39.14797301886659" lon="16.09955776283392"><ele>108.16666666666667</ele><time>2026-05-03T08:45:39.999Z</time></trkpt><trkpt lat="39.147900327444304" lon="16.099579864975343"><ele>108.33333333333334</ele><time>2026-05-03T08:45:40.999Z</time></trkpt><trkpt lat="39.14783106670769" lon="16.09959355820762"><ele>108.5</ele><time>2026-05-03T08:45:41.999Z</time></trkpt><trkpt lat="39.14775886559278" lon="16.09959917570536"><ele>108.66666666666667</ele><time>2026-05-03T08:45:42.999Z</time></trkpt><trkpt lat="39.14766575695258" lon="16.099607750981228"><ele>108.83333333333334</ele><time>2026-05-03T08:45:43.999Z</time></trkpt><trkpt lat="39.14755026852398" lon="16.09962120265402"><ele>109.0</ele><time>2026-05-03T08:45:44.999Z</time></trkpt><trkpt lat="39.147428675957336" lon="16.099619961919906"><ele>109.0</ele><time>2026-05-03T08:45:45.999Z</time></trkpt><trkpt lat="39.14729538272279" lon="16.09961306130166"><ele>109.0</ele><time>2026-05-03T08:45:46.999Z</time></trkpt><trkpt lat="39.1471538623998" lon="16.0995927214815"><ele>109.0</ele><time>2026-05-03T08:45:47.999Z</time></trkpt><trkpt lat="39.14701453410793" lon="16.099557928726206"><ele>109.0</ele><time>2026-05-03T08:45:48.999Z</time></trkpt><trkpt lat="39.14688852265245" lon="16.099509612065454"><ele>109.0</ele><time>2026-05-03T08:45:49.999Z</time></trkpt><trkpt lat="39.146774408522475" lon="16.09947249267717"><ele>109.0</ele><time>2026-05-03T08:45:50.999Z</time></trkpt><trkpt lat="39.14666461585307" lon="16.09944025243984"><ele>109.0</ele><time>2026-05-03T08:45:51.999Z</time></trkpt><trkpt lat="39.14655662134765" lon="16.099413322043155"><ele>109.0</ele><time>2026-05-03T08:45:52.999Z</time></trkpt><trkpt lat="39.146447066609035" lon="16.099378835245894"><ele>106.75</ele><time>2026-05-03T08:45:53.999Z</time></trkpt><trkpt lat="39.146337501576944" lon="16.099348438449443"><ele>104.5</ele><time>2026-05-03T08:45:54.999Z</time></trkpt><trkpt lat="39.14622272069372" lon="16.099321471158007"><ele>102.25</ele><time>2026-05-03T08:45:55.999Z</time></trkpt><trkpt lat="39.146099219298655" lon="16.099290740151822"><ele>100.0</ele><time>2026-05-03T08:45:56.999Z</time></trkpt><trkpt lat="39.145946486857355" lon="16.09925550527245"><ele>100.0</ele><time>2026-05-03T08:45:57.999Z</time></trkpt><trkpt lat="39.145803766183874" lon="16.099214517319716"><ele>100.0</ele><time>2026-05-03T08:45:58.999Z</time></trkpt><trkpt lat="39.14568302327831" lon="16.09917713416013"><ele>100.0</ele><time>2026-05-03T08:45:59.999Z</time></trkpt><trkpt lat="39.145575788559874" lon="16.099140205320342"><ele>100.0</ele><time>2026-05-03T08:46:00.999Z</time></trkpt><trkpt lat="39.14547110722779" lon="16.099109132550645"><ele>99.0</ele><time>2026-05-03T08:46:01.999Z</time></trkpt><trkpt lat="39.14537434237105" lon="16.099081316283293"><ele>98.0</ele><time>2026-05-03T08:46:02.999Z</time></trkpt><trkpt lat="39.145283984401594" lon="16.0990546550499"><ele>97.0</ele><time>2026-05-03T08:46:03.999Z</time></trkpt><trkpt lat="39.145196693991196" lon="16.099029741355857"><ele>96.0</ele><time>2026-05-03T08:46:04.999Z</time></trkpt><trkpt lat="39.145112977036916" lon="16.09901099614766"><ele>95.0</ele><time>2026-05-03T08:46:05.999Z</time></trkpt><trkpt lat="39.14502089497195" lon="16.098986880450077"><ele>95.0</ele><time>2026-05-03T08:46:06.999Z</time></trkpt><trkpt lat="39.14493955928706" lon="16.098967335312466"><ele>95.0</ele><time>2026-05-03T08:46:07.999Z</time></trkpt><trkpt lat="39.144863324438866" lon="16.098945068867884"><ele>95.0</ele><time>2026-05-03T08:46:08.999Z</time></trkpt><trkpt lat="39.14479071075796" lon="16.098917285563314"><ele>95.0</ele><time>2026-05-03T08:46:10Z</time></trkpt><trkpt lat="39.14472116154479" lon="16.098885491040622"><ele>95.0</ele><time>2026-05-03T08:46:11Z</time></trkpt><trkpt lat="39.144652999920545" lon="16.0988566999248"><ele>95.0</ele><time>2026-05-03T08:46:12Z</time></trkpt><trkpt lat="39.14458819137282" lon="16.098828639836"><ele>94.8</ele><time>2026-05-03T08:46:13Z</time></trkpt><trkpt lat="39.144529813544565" lon="16.098795509223322"><ele>94.6</ele><time>2026-05-03T08:46:14Z</time></trkpt><trkpt lat="39.14442843971083" lon="16.098741279741514"><ele>94.4</ele><time>2026-05-03T08:46:16Z</time></trkpt><trkpt lat="39.14433163391397" lon="16.098685549352986"><ele>94.2</ele><time>2026-05-03T08:46:18Z</time></trkpt><trkpt lat="39.144241271615506" lon="16.098614281496136"><ele>94.0</ele><time>2026-05-03T08:46:20Z</time></trkpt><trkpt lat="39.14416606011385" lon="16.098551505676614"><ele>94.0</ele><time>2026-05-03T08:46:22Z</time></trkpt><trkpt lat="39.14411808326675" lon="16.098481107596694"><ele>94.0</ele><time>2026-05-03T08:46:25Z</time></trkpt><trkpt lat="39.144180957649276" lon="16.09856280244061"><ele>94.0</ele><time>2026-05-03T08:47:12.999Z</time></trkpt><trkpt lat="39.144295233110654" lon="16.09864280209744"><ele>94.0</ele><time>2026-05-03T08:47:14.999Z</time></trkpt><trkpt lat="39.14436513463945" lon="16.09868838272642"><ele>94.0</ele><time>2026-05-03T08:47:15.999Z</time></trkpt><trkpt lat="39.14443798740715" lon="16.09873293939908"><ele>94.0</ele><time>2026-05-03T08:47:16.999Z</time></trkpt><trkpt lat="39.144532899180476" lon="16.098786783337648"><ele>94.0</ele><time>2026-05-03T08:47:17.999Z</time></trkpt><trkpt lat="39.14462720031434" lon="16.09897909948066"><ele>94.0</ele><time>2026-05-03T08:47:18.999Z</time></trkpt><trkpt lat="39.14471068778178" lon="16.099027297848025"><ele>94.0</ele><time>2026-05-03T08:47:19.999Z</time></trkpt><trkpt lat="39.14479967125613" lon="16.099102546502756"><ele>96.0</ele><time>2026-05-03T08:47:20.999Z</time></trkpt><trkpt lat="39.144912809867385" lon="16.09915440832029"><ele>98.0</ele><time>2026-05-03T08:47:21.999Z</time></trkpt><trkpt lat="39.14503260351946" lon="16.099183795070577"><ele>100.0</ele><time>2026-05-03T08:47:22.999Z</time></trkpt><trkpt lat="39.14513621414135" lon="16.099210661950746"><ele>102.0</ele><time>2026-05-03T08:47:23.999Z</time></trkpt><trkpt lat="39.14522606446838" lon="16.09926489846632"><ele>104.0</ele><time>2026-05-03T08:47:24.999Z</time></trkpt><trkpt lat="39.14533802590603" lon="16.099324910234362"><ele>104.0</ele><time>2026-05-03T08:47:25.999Z</time></trkpt><trkpt lat="39.14545572537403" lon="16.09938799753935"><ele>104.0</ele><time>2026-05-03T08:47:26.999Z</time></trkpt><trkpt lat="39.14565267138536" lon="16.099217198940313"><ele>104.0</ele><time>2026-05-03T08:47:27.999Z</time></trkpt><trkpt lat="39.14578557528772" lon="16.09925033482485"><ele>103.0</ele><time>2026-05-03T08:47:28.999Z</time></trkpt><trkpt lat="39.14591981174176" lon="16.099288099523662"><ele>102.0</ele><time>2026-05-03T08:47:29.999Z</time></trkpt><trkpt lat="39.14605485604023" lon="16.099326986585517"><ele>101.0</ele><time>2026-05-03T08:47:30.999Z</time></trkpt><trkpt lat="39.146188279057235" lon="16.099367772390128"><ele>100.0</ele><time>2026-05-03T08:47:31.999Z</time></trkpt><trkpt lat="39.146320882736696" lon="16.099407048202895"><ele>100.0</ele><time>2026-05-03T08:47:32.999Z</time></trkpt><trkpt lat="39.14645335308427" lon="16.09944631794542"><ele>100.0</ele><time>2026-05-03T08:47:33.999Z</time></trkpt><trkpt lat="39.14658650997223" lon="16.099482049352822"><ele>100.0</ele><time>2026-05-03T08:47:34.999Z</time></trkpt><trkpt lat="39.14671828745794" lon="16.099515236966308"><ele>100.0</ele><time>2026-05-03T08:47:35.999Z</time></trkpt><trkpt lat="39.14684819303441" lon="16.099551078979978"><ele>102.25</ele><time>2026-05-03T08:47:36.999Z</time></trkpt><trkpt lat="39.14697497687108" lon="16.09958562645744"><ele>104.5</ele><time>2026-05-03T08:47:37.999Z</time></trkpt><trkpt lat="39.14710108359223" lon="16.099617362041368"><ele>106.75</ele><time>2026-05-03T08:47:38.999Z</time></trkpt><trkpt lat="39.14722327438063" lon="16.09964725914537"><ele>109.0</ele><time>2026-05-03T08:47:39.999Z</time></trkpt><trkpt lat="39.14734004467572" lon="16.09967452407592"><ele>109.0</ele><time>2026-05-03T08:47:40.999Z</time></trkpt><trkpt lat="39.14744927574554" lon="16.09968754913554"><ele>109.0</ele><time>2026-05-03T08:47:41.999Z</time></trkpt><trkpt lat="39.147551678686874" lon="16.099698750127395"><ele>109.0</ele><time>2026-05-03T08:47:42.999Z</time></trkpt><trkpt lat="39.147643725616575" lon="16.09971261553773"><ele>109.0</ele><time>2026-05-03T08:47:43.999Z</time></trkpt><trkpt lat="39.14773452194973" lon="16.0997330790265"><ele>109.0</ele><time>2026-05-03T08:47:44.999Z</time></trkpt><trkpt lat="39.14781155761102" lon="16.099762862021514"><ele>109.0</ele><time>2026-05-03T08:47:45.999Z</time></trkpt><trkpt lat="39.14793969335988" lon="16.099897607692355"><ele>109.0</ele><time>2026-05-03T08:47:47.999Z</time></trkpt><trkpt lat="39.14800774010221" lon="16.099944470826802"><ele>109.0</ele><time>2026-05-03T08:47:48.999Z</time></trkpt><trkpt lat="39.14802713649956" lon="16.100073433970596"><ele>109.0</ele><time>2026-05-03T08:47:49.999Z</time></trkpt><trkpt lat="39.14806134223194" lon="16.10016979447857"><ele>109.0</ele><time>2026-05-03T08:47:50.999Z</time></trkpt><trkpt lat="39.14809123168972" lon="16.10026651670061"><ele>110.42857142857143</ele><time>2026-05-03T08:47:51.999Z</time></trkpt><trkpt lat="39.14811691202298" lon="16.100362602611558"><ele>111.85714285714286</ele><time>2026-05-03T08:47:52.999Z</time></trkpt><trkpt lat="39.14813964503747" lon="16.1004465707831"><ele>113.28571428571428</ele><time>2026-05-03T08:47:53.999Z</time></trkpt><trkpt lat="39.14816603501744" lon="16.100521884419216"><ele>114.71428571428572</ele><time>2026-05-03T08:47:54.999Z</time></trkpt><trkpt lat="39.14819745149803" lon="16.100594847167674"><ele>116.14285714285714</ele><time>2026-05-03T08:47:55.999Z</time></trkpt><trkpt lat="39.148229062171545" lon="16.10066681411526"><ele>117.57142857142857</ele><time>2026-05-03T08:47:56.999Z</time></trkpt><trkpt lat="39.14826055896056" lon="16.100773710494728"><ele>119.0</ele><time>2026-05-03T08:47:58.999Z</time></trkpt><trkpt lat="39.148292960664776" lon="16.100848670971928"><ele>121.33333333333333</ele><time>2026-05-03T08:48:01.999Z</time></trkpt><trkpt lat="39.14836218962617" lon="16.100931063452975"><ele>123.66666666666666</ele><time>2026-05-03T08:48:50.999Z</time></trkpt><trkpt lat="39.1484392138886" lon="16.101056054561283"><ele>126.0</ele><time>2026-05-03T08:48:52.999Z</time></trkpt><trkpt lat="39.14848534503613" lon="16.101118932831287"><ele>128.33333333333334</ele><time>2026-05-03T08:48:53.999Z</time></trkpt><trkpt lat="39.14851646838163" lon="16.101209396329928"><ele>130.66666666666669</ele><time>2026-05-03T08:48:54.999Z</time></trkpt><trkpt lat="39.14857203583688" lon="16.10128481543255"><ele>133.0</ele><time>2026-05-03T08:48:55.999Z</time></trkpt><trkpt lat="39.14862880437732" lon="16.101360952551126"><ele>133.0</ele><time>2026-05-03T08:48:56.999Z</time></trkpt><trkpt lat="39.14868632790469" lon="16.101437051871528"><ele>133.0</ele><time>2026-05-03T08:48:57.999Z</time></trkpt><trkpt lat="39.14874935693742" lon="16.10151854834213"><ele>133.0</ele><time>2026-05-03T08:48:58.999Z</time></trkpt><trkpt lat="39.148821100194006" lon="16.101600855280434"><ele>133.0</ele><time>2026-05-03T08:48:59.999Z</time></trkpt><trkpt lat="39.14889614085004" lon="16.101663070127227"><ele>133.0</ele><time>2026-05-03T08:49:00.999Z</time></trkpt><trkpt lat="39.1489577941634" lon="16.101711582601062"><ele>133.0</ele><time>2026-05-03T08:49:01.999Z</time></trkpt><trkpt lat="39.14901281522129" lon="16.101758042030163"><ele>133.5</ele><time>2026-05-03T08:49:02.999Z</time></trkpt><trkpt lat="39.1490889607801" lon="16.10184684101722"><ele>134.0</ele><time>2026-05-03T08:49:04.999Z</time></trkpt><trkpt lat="39.14903036340701" lon="16.101951959649792"><ele>134.5</ele><time>2026-05-03T08:49:06.999Z</time></trkpt><trkpt lat="39.14896632206224" lon="16.10195987518146"><ele>135.0</ele><time>2026-05-03T08:49:07.999Z</time></trkpt><trkpt lat="39.14890102960884" lon="16.101920555052256"><ele>135.5</ele><time>2026-05-03T08:49:08.999Z</time></trkpt><trkpt lat="39.14884699343641" lon="16.101863511731175"><ele>136.0</ele><time>2026-05-03T08:49:09.999Z</time></trkpt><trkpt lat="39.14878952941404" lon="16.101803371006636"><ele>135.5</ele><time>2026-05-03T08:49:10.999Z</time></trkpt><trkpt lat="39.14872184799615" lon="16.10175117374161"><ele>135.0</ele><time>2026-05-03T08:49:11.999Z</time></trkpt><trkpt lat="39.14865031985504" lon="16.101702037091652"><ele>134.5</ele><time>2026-05-03T08:49:12.999Z</time></trkpt><trkpt lat="39.14857759609777" lon="16.10165413925392"><ele>134.0</ele><time>2026-05-03T08:49:13.999Z</time></trkpt><trkpt lat="39.14850966280411" lon="16.101609477225754"><ele>133.5</ele><time>2026-05-03T08:49:14.999Z</time></trkpt><trkpt lat="39.14844805910025" lon="16.101572060030342"><ele>133.0</ele><time>2026-05-03T08:49:15.999Z</time></trkpt><trkpt lat="39.14836036231193" lon="16.101524184320244"><ele>133.0</ele><time>2026-05-03T08:49:17.999Z</time></trkpt><trkpt lat="39.14830054029989" lon="16.10146904250455"><ele>133.0</ele><time>2026-05-03T08:49:19.999Z</time></trkpt><trkpt lat="39.1483526472472" lon="16.101568347775057"><ele>133.0</ele><time>2026-05-03T08:49:24.999Z</time></trkpt><trkpt lat="39.14847733042411" lon="16.10159634318648"><ele>133.0</ele><time>2026-05-03T08:49:26.999Z</time></trkpt><trkpt lat="39.148534542761944" lon="16.1016634594449"><ele>133.0</ele><time>2026-05-03T08:49:27.999Z</time></trkpt><trkpt lat="39.148610655241335" lon="16.10168975008907"><ele>133.0</ele><time>2026-05-03T08:49:28.999Z</time></trkpt><trkpt lat="39.14867769969912" lon="16.10174624890679"><ele>133.5</ele><time>2026-05-03T08:49:29.999Z</time></trkpt><trkpt lat="39.1487462584884" lon="16.101801324756927"><ele>134.0</ele><time>2026-05-03T08:49:30.999Z</time></trkpt><trkpt lat="39.14881175340475" lon="16.101855410734597"><ele>134.5</ele><time>2026-05-03T08:49:31.999Z</time></trkpt><trkpt lat="39.148871231864206" lon="16.101901514566272"><ele>135.0</ele><time>2026-05-03T08:49:32.999Z</time></trkpt><trkpt lat="39.14892456312088" lon="16.101945647755986"><ele>135.5</ele><time>2026-05-03T08:49:33.999Z</time></trkpt><trkpt lat="39.149031312566294" lon="16.101970316086042"><ele>136.0</ele><time>2026-05-03T08:49:35.999Z</time></trkpt><trkpt lat="39.149096978235626" lon="16.101866147072553"><ele>136.0</ele><time>2026-05-03T08:49:37.999Z</time></trkpt><trkpt lat="39.14906821445613" lon="16.101731640329398"><ele>136.0</ele><time>2026-05-03T08:49:39.999Z</time></trkpt><trkpt lat="39.14891122605946" lon="16.101618192452474"><ele>136.0</ele><time>2026-05-03T08:49:41.999Z</time></trkpt><trkpt lat="39.14882973179833" lon="16.10154693552207"><ele>136.0</ele><time>2026-05-03T08:49:42.999Z</time></trkpt><trkpt lat="39.148767011044406" lon="16.101475023017272"><ele>135.4</ele><time>2026-05-03T08:49:43.999Z</time></trkpt><trkpt lat="39.14869027255639" lon="16.101385024347113"><ele>134.8</ele><time>2026-05-03T08:49:45.999Z</time></trkpt><trkpt lat="39.14862219350186" lon="16.10129006774519"><ele>134.20000000000002</ele><time>2026-05-03T08:49:47.999Z</time></trkpt><trkpt lat="39.148533692617534" lon="16.101188808150688"><ele>133.6</ele><time>2026-05-03T08:49:49.999Z</time></trkpt><trkpt lat="39.1484492114498" lon="16.101078554499097"><ele>133.0</ele><time>2026-05-03T08:49:51.999Z</time></trkpt><trkpt lat="39.14840961793802" lon="16.101010627338287"><ele>133.0</ele><time>2026-05-03T08:49:52.999Z</time></trkpt><trkpt lat="39.14837122034545" lon="16.10094109946919"><ele>133.0</ele><time>2026-05-03T08:49:53.999Z</time></trkpt><trkpt lat="39.1483349228935" lon="16.10086881177869"><ele>133.0</ele><time>2026-05-03T08:49:54.999Z</time></trkpt><trkpt lat="39.148283961101214" lon="16.10073287350278"><ele>133.0</ele><time>2026-05-03T08:49:56.999Z</time></trkpt><trkpt lat="39.14821311778991" lon="16.10057829010776"><ele>133.0</ele><time>2026-05-03T08:49:58.999Z</time></trkpt><trkpt lat="39.148182256394065" lon="16.10047709236116"><ele>134.0</ele><time>2026-05-03T08:49:59.999Z</time></trkpt><trkpt lat="39.14815194010954" lon="16.10037523535971"><ele>135.0</ele><time>2026-05-03T08:50:00.999Z</time></trkpt><trkpt lat="39.14812013727677" lon="16.100277484878806"><ele>136.0</ele><time>2026-05-03T08:50:01.999Z</time></trkpt><trkpt lat="39.14808957306927" lon="16.1001846607673"><ele>137.0</ele><time>2026-05-03T08:50:02.999Z</time></trkpt><trkpt lat="39.148062291259784" lon="16.10010189982455"><ele>138.0</ele><time>2026-05-03T08:50:03.999Z</time></trkpt><trkpt lat="39.14804114582667" lon="16.100016911816212"><ele>139.0</ele><time>2026-05-03T08:50:04.999Z</time></trkpt><trkpt lat="39.14801779019923" lon="16.09993611581406"><ele>134.0</ele><time>2026-05-03T08:50:05.999Z</time></trkpt><trkpt lat="39.147992566420626" lon="16.099861296723915"><ele>129.0</ele><time>2026-05-03T08:50:06.999Z</time></trkpt><trkpt lat="39.14793660568929" lon="16.09974335571878"><ele>124.0</ele><time>2026-05-03T08:50:08.999Z</time></trkpt><trkpt lat="39.14789495136058" lon="16.099658199583878"><ele>119.0</ele><time>2026-05-03T08:50:10.999Z</time></trkpt><trkpt lat="39.14783532790797" lon="16.099603934707122"><ele>114.00000000000001</ele><time>2026-05-03T08:50:12.999Z</time></trkpt><trkpt lat="39.14775903599875" lon="16.099594998179658"><ele>109.0</ele><time>2026-05-03T08:50:14.999Z</time></trkpt><trkpt lat="39.1476787490491" lon="16.099601461879338"><ele>109.00000000000001</ele><time>2026-05-03T08:50:17.999Z</time></trkpt><trkpt lat="39.147590449184705" lon="16.099613794052363"><ele>109.0</ele><time>2026-05-03T08:50:20.999Z</time></trkpt><trkpt lat="39.147514732281515" lon="16.099622863095224"><ele>109.0</ele><time>2026-05-03T08:50:23Z</time></trkpt><trkpt lat="39.147426885954104" lon="16.099620153148763"><ele>109.0</ele><time>2026-05-03T08:50:25Z</time></trkpt><trkpt lat="39.147333772270294" lon="16.099621022947908"><ele>109.00000000000001</ele><time>2026-05-03T08:50:27Z</time></trkpt><trkpt lat="39.14724197298279" lon="16.09961136470838"><ele>109.0</ele><time>2026-05-03T08:50:29Z</time></trkpt><trkpt lat="39.14716119984514" lon="16.09956971914427"><ele>109.00000000000001</ele><time>2026-05-03T08:50:31Z</time></trkpt><trkpt lat="39.14707772408055" lon="16.09956000570924"><ele>109.0</ele><time>2026-05-03T08:50:33Z</time></trkpt><trkpt lat="39.14699249470278" lon="16.09956185209168"><ele>109.0</ele><time>2026-05-03T08:50:35Z</time></trkpt><trkpt lat="39.14692006137573" lon="16.099539501356322"><ele>109.0</ele><time>2026-05-03T08:50:37Z</time></trkpt><trkpt lat="39.14685991484385" lon="16.09948260987495"><ele>109.00000000000001</ele><time>2026-05-03T08:50:39Z</time></trkpt><trkpt lat="39.14694434810094" lon="16.09958595846822"><ele>109.0</ele><time>2026-05-03T08:50:45Z</time></trkpt><trkpt lat="39.14700646286968" lon="16.099632671850205"><ele>109.0</ele><time>2026-05-03T08:50:48Z</time></trkpt><trkpt lat="39.14709007170434" lon="16.099628408259598"><ele>109.0</ele><time>2026-05-03T08:53:59Z</time></trkpt><trkpt lat="39.14718413147515" lon="16.09964604130652"><ele>109.0</ele><time>2026-05-03T08:54:01Z</time></trkpt><trkpt lat="39.14728395191326" lon="16.099670955153776"><ele>109.0</ele><time>2026-05-03T08:54:03Z</time></trkpt><trkpt lat="39.1473888042245" lon="16.099680984264996"><ele>109.0</ele><time>2026-05-03T08:54:05Z</time></trkpt><trkpt lat="39.14749463259607" lon="16.099688568623296"><ele>109.0</ele><time>2026-05-03T08:54:07Z</time></trkpt><trkpt lat="39.14759980741027" lon="16.099705254617394"><ele>109.0</ele><time>2026-05-03T08:54:09Z</time></trkpt><trkpt lat="39.14770320838721" lon="16.09970654409374"><ele>109.0</ele><time>2026-05-03T08:54:11Z</time></trkpt><trkpt lat="39.14780075120997" lon="16.099707501441774"><ele>109.0</ele><time>2026-05-03T08:54:13Z</time></trkpt><trkpt lat="39.14787221734101" lon="16.0997587166555"><ele>109.0</ele><time>2026-05-03T08:54:15Z</time></trkpt><trkpt lat="39.14792337415375" lon="16.099810594823417"><ele>109.00000000000001</ele><time>2026-05-03T08:54:16.999Z</time></trkpt><trkpt lat="39.14795604951968" lon="16.09988766924019"><ele>109.0</ele><time>2026-05-03T08:54:19.999Z</time></trkpt><trkpt lat="39.14801909535646" lon="16.099992732565248"><ele>109.0</ele><time>2026-05-03T08:54:23.999Z</time></trkpt><trkpt lat="39.14802819279316" lon="16.100093368086828"><ele>109.0</ele><time>2026-05-03T08:54:24.999Z</time></trkpt><trkpt lat="39.14805949547933" lon="16.100191295131975"><ele>109.00000000000001</ele><time>2026-05-03T08:54:25.999Z</time></trkpt><trkpt lat="39.148093748625094" lon="16.10030052526806"><ele>109.0</ele><time>2026-05-03T08:54:26.999Z</time></trkpt><trkpt lat="39.14813196627434" lon="16.100417061173488"><ele>111.0</ele><time>2026-05-03T08:54:27.999Z</time></trkpt><trkpt lat="39.14817037864988" lon="16.100529298454678"><ele>113.0</ele><time>2026-05-03T08:54:28.999Z</time></trkpt><trkpt lat="39.14820458059185" lon="16.100627108859463"><ele>115.0</ele><time>2026-05-03T08:54:29.999Z</time></trkpt><trkpt lat="39.1482330527191" lon="16.100708533197228"><ele>117.0</ele><time>2026-05-03T08:54:30.999Z</time></trkpt><trkpt lat="39.14827288793337" lon="16.100822453809194"><ele>119.0</ele><time>2026-05-03T08:54:32.999Z</time></trkpt><trkpt lat="39.14840460998622" lon="16.10082511156176"><ele>121.33333333333333</ele><time>2026-05-03T08:54:34Z</time></trkpt><trkpt lat="39.148512714453744" lon="16.100876066380163"><ele>123.66666666666666</ele><time>2026-05-03T08:54:36Z</time></trkpt><trkpt lat="39.14857414381175" lon="16.100927533214"><ele>126.0</ele><time>2026-05-03T08:54:37Z</time></trkpt><trkpt lat="39.14862919982266" lon="16.100979460599078"><ele>128.33333333333334</ele><time>2026-05-03T08:54:38Z</time></trkpt><trkpt lat="39.148683084338046" lon="16.1010369260657"><ele>130.66666666666669</ele><time>2026-05-03T08:54:39Z</time></trkpt><trkpt lat="39.148741572971375" lon="16.101089521103532"><ele>133.0</ele><time>2026-05-03T08:54:40Z</time></trkpt><trkpt lat="39.148804831225" lon="16.10113647478981"><ele>133.0</ele><time>2026-05-03T08:54:41Z</time></trkpt><trkpt lat="39.14887406249586" lon="16.10117900579277"><ele>133.0</ele><time>2026-05-03T08:54:42Z</time></trkpt><trkpt lat="39.148952666426915" lon="16.101210162336272"><ele>133.0</ele><time>2026-05-03T08:54:43Z</time></trkpt><trkpt lat="39.149039850754235" lon="16.101225810115515"><ele>133.0</ele><time>2026-05-03T08:54:44Z</time></trkpt><trkpt lat="39.149120876498344" lon="16.101262461117937"><ele>133.0</ele><time>2026-05-03T08:54:45Z</time></trkpt><trkpt lat="39.14920457676335" lon="16.10129256367025"><ele>133.0</ele><time>2026-05-03T08:54:46Z</time></trkpt><trkpt lat="39.149284890964104" lon="16.101331969225242"><ele>133.6</ele><time>2026-05-03T08:54:47Z</time></trkpt><trkpt lat="39.149365761702704" lon="16.10138810960705"><ele>134.20000000000002</ele><time>2026-05-03T08:54:48Z</time></trkpt><trkpt lat="39.14943892820301" lon="16.101469975308277"><ele>134.8</ele><time>2026-05-03T08:54:49Z</time></trkpt><trkpt lat="39.14949418441723" lon="16.101576848792735"><ele>135.4</ele><time>2026-05-03T08:54:50Z</time></trkpt><trkpt lat="39.149555896049115" lon="16.101682719830997"><ele>136.0</ele><time>2026-05-03T08:54:51Z</time></trkpt><trkpt lat="39.14962477035459" lon="16.101775278194697"><ele>136.0</ele><time>2026-05-03T08:54:52Z</time></trkpt><trkpt lat="39.14970341323371" lon="16.101863252094628"><ele>136.0</ele><time>2026-05-03T08:54:53Z</time></trkpt><trkpt lat="39.14978670306173" lon="16.101958045255838"><ele>136.0</ele><time>2026-05-03T08:54:54Z</time></trkpt><trkpt lat="39.14987364607958" lon="16.102066309569857"><ele>136.0</ele><time>2026-05-03T08:54:55Z</time></trkpt><trkpt lat="39.14996519744606" lon="16.10218101249677"><ele>132.33333333333334</ele><time>2026-05-03T08:54:56Z</time></trkpt><trkpt lat="39.150064519089895" lon="16.102310006995936"><ele>128.66666666666666</ele><time>2026-05-03T08:54:57Z</time></trkpt><trkpt lat="39.150173380863016" lon="16.1024585801118"><ele>125.0</ele><time>2026-05-03T08:54:58Z</time></trkpt><trkpt lat="39.15028111225745" lon="16.102605519684474"><ele>125.0</ele><time>2026-05-03T08:54:59Z</time></trkpt><trkpt lat="39.15038557667856" lon="16.102736606808282"><ele>125.0</ele><time>2026-05-03T08:55:00Z</time></trkpt><trkpt lat="39.15048073044405" lon="16.102857662437835"><ele>125.0</ele><time>2026-05-03T08:55:01Z</time></trkpt><trkpt lat="39.15055530854491" lon="16.10296713717915"><ele>125.0</ele><time>2026-05-03T08:55:02Z</time></trkpt><trkpt lat="39.15061938649685" lon="16.103069843790838"><ele>125.0</ele><time>2026-05-03T08:55:03Z</time></trkpt><trkpt lat="39.15068796122872" lon="16.103185210798582"><ele>125.0</ele><time>2026-05-03T08:55:04Z</time></trkpt><trkpt lat="39.15074494308198" lon="16.103296884774682"><ele>125.0</ele><time>2026-05-03T08:55:05Z</time></trkpt><trkpt lat="39.1507935015032" lon="16.10340281043312"><ele>125.0</ele><time>2026-05-03T08:55:06Z</time></trkpt><trkpt lat="39.15083142644171" lon="16.103501825219862"><ele>125.0</ele><time>2026-05-03T08:55:07Z</time></trkpt><trkpt lat="39.150875100280956" lon="16.10359820911585"><ele>125.0</ele><time>2026-05-03T08:55:08Z</time></trkpt><trkpt lat="39.15087347595095" lon="16.103715395310953"><ele>125.0</ele><time>2026-05-03T08:55:09Z</time></trkpt><trkpt lat="39.15085107304589" lon="16.103849947952742"><ele>125.0</ele><time>2026-05-03T08:55:10Z</time></trkpt><trkpt lat="39.15082461304855" lon="16.10400201457873"><ele>125.0</ele><time>2026-05-03T08:55:11Z</time></trkpt><trkpt lat="39.1507690923894" lon="16.10415454850885"><ele>125.0</ele><time>2026-05-03T08:55:12Z</time></trkpt><trkpt lat="39.15073827095956" lon="16.104330183742725"><ele>126.0</ele><time>2026-05-03T08:55:13Z</time></trkpt><trkpt lat="39.15071282988825" lon="16.10451807175698"><ele>127.0</ele><time>2026-05-03T08:55:14Z</time></trkpt><trkpt lat="39.15069083567837" lon="16.10471121456869"><ele>128.0</ele><time>2026-05-03T08:55:15Z</time></trkpt><trkpt lat="39.15067096982211" lon="16.104901456000896"><ele>129.0</ele><time>2026-05-03T08:55:16Z</time></trkpt><trkpt lat="39.15065911469081" lon="16.105094643989915"><ele>136.25</ele><time>2026-05-03T08:55:17Z</time></trkpt><trkpt lat="39.150656279482135" lon="16.105289689999772"><ele>143.5</ele><time>2026-05-03T08:55:18Z</time></trkpt><trkpt lat="39.150652994980554" lon="16.10547437741722"><ele>150.75</ele><time>2026-05-03T08:55:19Z</time></trkpt><trkpt lat="39.150636102015724" lon="16.10565163335569"><ele>158.0</ele><time>2026-05-03T08:55:20Z</time></trkpt><trkpt lat="39.15059302882273" lon="16.105826567396964"><ele>158.0</ele><time>2026-05-03T08:55:21Z</time></trkpt><trkpt lat="39.15056787148023" lon="16.105993012643815"><ele>158.0</ele><time>2026-05-03T08:55:22Z</time></trkpt><trkpt lat="39.150544498450955" lon="16.10617478859739"><ele>158.0</ele><time>2026-05-03T08:55:23Z</time></trkpt><trkpt lat="39.15054595276859" lon="16.106361474145242"><ele>158.0</ele><time>2026-05-03T08:55:24Z</time></trkpt><trkpt lat="39.15054850939913" lon="16.10654493611173"><ele>154.66666666666666</ele><time>2026-05-03T08:55:25Z</time></trkpt><trkpt lat="39.15055306928812" lon="16.10674438163045"><ele>151.33333333333334</ele><time>2026-05-03T08:55:26Z</time></trkpt><trkpt lat="39.15055773892372" lon="16.106948627342494"><ele>148.0</ele><time>2026-05-03T08:55:27Z</time></trkpt><trkpt lat="39.150564205163896" lon="16.10717051162259"><ele>148.0</ele><time>2026-05-03T08:55:28Z</time></trkpt><trkpt lat="39.150570724525124" lon="16.1073900932962"><ele>148.0</ele><time>2026-05-03T08:55:29Z</time></trkpt><trkpt lat="39.15059585922635" lon="16.10760524618045"><ele>148.0</ele><time>2026-05-03T08:55:30Z</time></trkpt><trkpt lat="39.15060470088365" lon="16.10781827437619"><ele>147.25</ele><time>2026-05-03T08:55:31Z</time></trkpt><trkpt lat="39.15061095576756" lon="16.108001118351165"><ele>146.5</ele><time>2026-05-03T08:55:32Z</time></trkpt><trkpt lat="39.150599320131576" lon="16.108171379391003"><ele>145.75</ele><time>2026-05-03T08:55:33Z</time></trkpt><trkpt lat="39.15059908558266" lon="16.108338738076018"><ele>145.0</ele><time>2026-05-03T08:55:34Z</time></trkpt><trkpt lat="39.15059557309579" lon="16.108525629553217"><ele>147.0</ele><time>2026-05-03T08:55:35Z</time></trkpt><trkpt lat="39.150589670477544" lon="16.10871136482156"><ele>149.0</ele><time>2026-05-03T08:55:36Z</time></trkpt><trkpt lat="39.150584966576695" lon="16.108908270583004"><ele>151.0</ele><time>2026-05-03T08:55:37Z</time></trkpt><trkpt lat="39.150589597973784" lon="16.109088473269303"><ele>153.0</ele><time>2026-05-03T08:55:38Z</time></trkpt><trkpt lat="39.150604155107686" lon="16.10925474224995"><ele>155.60000000000002</ele><time>2026-05-03T08:55:39Z</time></trkpt><trkpt lat="39.15057945146746" lon="16.109416764490717"><ele>158.20000000000002</ele><time>2026-05-03T08:55:40Z</time></trkpt><trkpt lat="39.15055440762489" lon="16.10956725166451"><ele>160.8</ele><time>2026-05-03T08:55:41Z</time></trkpt><trkpt lat="39.1505183282971" lon="16.109694902598886"><ele>163.4</ele><time>2026-05-03T08:55:42Z</time></trkpt><trkpt lat="39.15046665758709" lon="16.109777786404283"><ele>166.0</ele><time>2026-05-03T08:55:43Z</time></trkpt><trkpt lat="39.150409354529046" lon="16.109894902746937"><ele>169.60000000000002</ele><time>2026-05-03T08:55:44Z</time></trkpt><trkpt lat="39.15038257970786" lon="16.11003128224496"><ele>173.2</ele><time>2026-05-03T08:55:45Z</time></trkpt><trkpt lat="39.15033824663531" lon="16.11014852812349"><ele>176.8</ele><time>2026-05-03T08:55:46Z</time></trkpt><trkpt lat="39.15031576992891" lon="16.11028469052007"><ele>180.39999999999998</ele><time>2026-05-03T08:55:47Z</time></trkpt><trkpt lat="39.150297661360646" lon="16.110444879119704"><ele>184.0</ele><time>2026-05-03T08:55:48Z</time></trkpt><trkpt lat="39.15028812804805" lon="16.11060505556799"><ele>184.6</ele><time>2026-05-03T08:55:49Z</time></trkpt><trkpt lat="39.150284399077535" lon="16.110755000398317"><ele>185.2</ele><time>2026-05-03T08:55:50Z</time></trkpt><trkpt lat="39.150284808450614" lon="16.1108981231205"><ele>185.79999999999998</ele><time>2026-05-03T08:55:51Z</time></trkpt><trkpt lat="39.15029023783911" lon="16.11102678665348"><ele>186.39999999999998</ele><time>2026-05-03T08:55:52Z</time></trkpt><trkpt lat="39.150304639749464" lon="16.111152265089295"><ele>187.0</ele><time>2026-05-03T08:55:53Z</time></trkpt><trkpt lat="39.15034986845679" lon="16.111262099611828"><ele>187.0</ele><time>2026-05-03T08:55:54Z</time></trkpt><trkpt lat="39.15036830944297" lon="16.111370598045557"><ele>187.0</ele><time>2026-05-03T08:55:55Z</time></trkpt><trkpt lat="39.15039648790106" lon="16.111492090789802"><ele>187.0</ele><time>2026-05-03T08:55:56Z</time></trkpt><trkpt lat="39.15042578158802" lon="16.111608217453796"><ele>187.0</ele><time>2026-05-03T08:55:57Z</time></trkpt><trkpt lat="39.150437447988146" lon="16.111696222061195"><ele>187.0</ele><time>2026-05-03T08:55:58Z</time></trkpt><trkpt lat="39.15043759080921" lon="16.111782478042215"><ele>187.0</ele><time>2026-05-03T08:55:59Z</time></trkpt><trkpt lat="39.150444027023454" lon="16.111873406545683"><ele>187.8</ele><time>2026-05-03T08:56:00Z</time></trkpt><trkpt lat="39.1504786617552" lon="16.111984710182305"><ele>188.6</ele><time>2026-05-03T08:56:01Z</time></trkpt><trkpt lat="39.150507935812" lon="16.112097998756106"><ele>189.4</ele><time>2026-05-03T08:56:02Z</time></trkpt><trkpt lat="39.15052812862915" lon="16.112221919475022"><ele>190.20000000000002</ele><time>2026-05-03T08:56:03Z</time></trkpt><trkpt lat="39.150551626264736" lon="16.11234644586487"><ele>191.0</ele><time>2026-05-03T08:56:04Z</time></trkpt><trkpt lat="39.15056722693015" lon="16.11244567422549"><ele>193.0</ele><time>2026-05-03T08:56:05Z</time></trkpt><trkpt lat="39.150575585673565" lon="16.11253626096193"><ele>195.0</ele><time>2026-05-03T08:56:06Z</time></trkpt><trkpt lat="39.15057583649083" lon="16.11262693006327"><ele>197.0</ele><time>2026-05-03T08:56:07Z</time></trkpt><trkpt lat="39.15055716649405" lon="16.112741988717534"><ele>199.0</ele><time>2026-05-03T08:56:08Z</time></trkpt><trkpt lat="39.150530112167516" lon="16.11289096265732"><ele>201.0</ele><time>2026-05-03T08:56:09Z</time></trkpt><trkpt lat="39.15051008626364" lon="16.113039438613285"><ele>201.0</ele><time>2026-05-03T08:56:10Z</time></trkpt><trkpt lat="39.15047457838336" lon="16.113190592417013"><ele>201.0</ele><time>2026-05-03T08:56:11Z</time></trkpt><trkpt lat="39.15043266356493" lon="16.113357587536594"><ele>201.0</ele><time>2026-05-03T08:56:12Z</time></trkpt><trkpt lat="39.150386630782414" lon="16.113518255396084"><ele>201.0</ele><time>2026-05-03T08:56:13Z</time></trkpt><trkpt lat="39.150346754064316" lon="16.113648284787576"><ele>197.60000000000002</ele><time>2026-05-03T08:56:14Z</time></trkpt><trkpt lat="39.15030830281172" lon="16.113767812459553"><ele>194.2</ele><time>2026-05-03T08:56:15Z</time></trkpt><trkpt lat="39.15027014861936" lon="16.11388630794668"><ele>190.8</ele><time>2026-05-03T08:56:16Z</time></trkpt><trkpt lat="39.15023677954184" lon="16.11398895007078"><ele>187.39999999999998</ele><time>2026-05-03T08:56:17Z</time></trkpt><trkpt lat="39.150205579251555" lon="16.114067885067364"><ele>184.0</ele><time>2026-05-03T08:56:18Z</time></trkpt><trkpt lat="39.1501474187114" lon="16.114171597623738"><ele>182.79999999999998</ele><time>2026-05-03T08:56:20Z</time></trkpt><trkpt lat="39.15006558586617" lon="16.114266019250206"><ele>181.6</ele><time>2026-05-03T08:56:22Z</time></trkpt><trkpt lat="39.14998432932508" lon="16.114331367394435"><ele>180.4</ele><time>2026-05-03T08:56:23Z</time></trkpt><trkpt lat="39.14988100768473" lon="16.11439647523628"><ele>179.2</ele><time>2026-05-03T08:56:24Z</time></trkpt><trkpt lat="39.149777601969674" lon="16.114455272631723"><ele>178.0</ele><time>2026-05-03T08:56:25Z</time></trkpt><trkpt lat="39.149687464118806" lon="16.114505935819878"><ele>178.0</ele><time>2026-05-03T08:56:26Z</time></trkpt><trkpt lat="39.149600492344426" lon="16.11455164171393"><ele>178.0</ele><time>2026-05-03T08:56:27Z</time></trkpt><trkpt lat="39.14950423151886" lon="16.114593752375423"><ele>178.0</ele><time>2026-05-03T08:56:28Z</time></trkpt><trkpt lat="39.14942167931416" lon="16.114617175989498"><ele>178.0</ele><time>2026-05-03T08:56:29Z</time></trkpt><trkpt lat="39.149336962073356" lon="16.114631385300438"><ele>178.0</ele><time>2026-05-03T08:56:30Z</time></trkpt><trkpt lat="39.14923923733513" lon="16.11464735191657"><ele>178.0</ele><time>2026-05-03T08:56:31Z</time></trkpt><trkpt lat="39.14915276822965" lon="16.114657087877283"><ele>178.0</ele><time>2026-05-03T08:56:32Z</time></trkpt><trkpt lat="39.149074850926596" lon="16.11466402631119"><ele>178.0</ele><time>2026-05-03T08:56:33Z</time></trkpt><trkpt lat="39.14900120122827" lon="16.114678185246337"><ele>178.0</ele><time>2026-05-03T08:56:34Z</time></trkpt><trkpt lat="39.14893401821381" lon="16.114699545459708"><ele>178.0</ele><time>2026-05-03T08:56:35Z</time></trkpt><trkpt lat="39.14885163879239" lon="16.11470394926062"><ele>178.0</ele><time>2026-05-03T08:56:36Z</time></trkpt><trkpt lat="39.1487895956011" lon="16.114761411010733"><ele>177.5</ele><time>2026-05-03T08:56:37Z</time></trkpt><trkpt lat="39.1487054070386" lon="16.114901197601785"><ele>177.0</ele><time>2026-05-03T08:56:39Z</time></trkpt><trkpt lat="39.148655700279996" lon="16.114974748456035"><ele>176.5</ele><time>2026-05-03T08:56:40.001Z</time></trkpt><trkpt lat="39.14860855094657" lon="16.115064285742886"><ele>176.0</ele><time>2026-05-03T08:56:41.001Z</time></trkpt><trkpt lat="39.14857727541518" lon="16.115150916594477"><ele>175.5</ele><time>2026-05-03T08:56:42.001Z</time></trkpt><trkpt lat="39.14852531352364" lon="16.115219284937567"><ele>175.0</ele><time>2026-05-03T08:56:43.001Z</time></trkpt><trkpt lat="39.1484520548333" lon="16.115258467331092"><ele>175.0</ele><time>2026-05-03T08:56:44.001Z</time></trkpt><trkpt lat="39.148394539729594" lon="16.115305406488154"><ele>175.0</ele><time>2026-05-03T08:56:45.001Z</time></trkpt><trkpt lat="39.148284077298285" lon="16.115388431522263"><ele>175.0</ele><time>2026-05-03T08:56:47.001Z</time></trkpt><trkpt lat="39.14820881077519" lon="16.11543339524585"><ele>175.0</ele><time>2026-05-03T08:56:48.001Z</time></trkpt><trkpt lat="39.148115049995546" lon="16.1155032558287"><ele>175.0</ele><time>2026-05-03T08:56:49.001Z</time></trkpt><trkpt lat="39.1480337643814" lon="16.115595293398442"><ele>175.2</ele><time>2026-05-03T08:56:50.001Z</time></trkpt><trkpt lat="39.1479907636429" lon="16.11573204729077"><ele>175.4</ele><time>2026-05-03T08:56:51.001Z</time></trkpt><trkpt lat="39.14794314759924" lon="16.115840528588233"><ele>175.60000000000002</ele><time>2026-05-03T08:56:52.001Z</time></trkpt><trkpt lat="39.147908073183345" lon="16.115949376436188"><ele>175.8</ele><time>2026-05-03T08:56:53.001Z</time></trkpt><trkpt lat="39.14787590911167" lon="16.116069261917392"><ele>176.0</ele><time>2026-05-03T08:56:54.001Z</time></trkpt><trkpt lat="39.14781557993984" lon="16.11614807159355"><ele>176.0</ele><time>2026-05-03T08:56:55.001Z</time></trkpt><trkpt lat="39.147769254521506" lon="16.116216236265995"><ele>176.0</ele><time>2026-05-03T08:56:56.001Z</time></trkpt><trkpt lat="39.14770911689963" lon="16.11630385284588"><ele>176.0</ele><time>2026-05-03T08:56:57Z</time></trkpt><trkpt lat="39.14764170810754" lon="16.116402502234482"><ele>176.0</ele><time>2026-05-03T08:56:58Z</time></trkpt><trkpt lat="39.147570828006636" lon="16.116506231705845"><ele>176.0</ele><time>2026-05-03T08:56:59Z</time></trkpt><trkpt lat="39.147485064815946" lon="16.116633596349832"><ele>176.4</ele><time>2026-05-03T08:57:00Z</time></trkpt><trkpt lat="39.147437383822094" lon="16.116736392520732"><ele>176.8</ele><time>2026-05-03T08:57:01Z</time></trkpt><trkpt lat="39.14739893659186" lon="16.116802222058908"><ele>177.20000000000002</ele><time>2026-05-03T08:57:02Z</time></trkpt><trkpt lat="39.147318044039636" lon="16.11688980770238"><ele>177.60000000000002</ele><time>2026-05-03T08:57:04Z</time></trkpt><trkpt lat="39.147218048727254" lon="16.117019734440195"><ele>178.0</ele><time>2026-05-03T08:57:06Z</time></trkpt><trkpt lat="39.14713645681755" lon="16.117085559041026"><ele>179.5</ele><time>2026-05-03T08:57:07Z</time></trkpt><trkpt lat="39.147048855247725" lon="16.11714300533423"><ele>181.0</ele><time>2026-05-03T08:57:08Z</time></trkpt><trkpt lat="39.14695596834404" lon="16.117183051212717"><ele>182.5</ele><time>2026-05-03T08:57:09Z</time></trkpt><trkpt lat="39.14687347291553" lon="16.117223719609168"><ele>184.0</ele><time>2026-05-03T08:57:10Z</time></trkpt><trkpt lat="39.146798687760544" lon="16.11725555483049"><ele>185.5</ele><time>2026-05-03T08:57:11Z</time></trkpt><trkpt lat="39.14672901590279" lon="16.11728294661372"><ele>187.0</ele><time>2026-05-03T08:57:12Z</time></trkpt><trkpt lat="39.14665564638815" lon="16.117312296302728"><ele>187.0</ele><time>2026-05-03T08:57:13Z</time></trkpt><trkpt lat="39.14658252373244" lon="16.117319892328137"><ele>187.0</ele><time>2026-05-03T08:57:14Z</time></trkpt><trkpt lat="39.14650124860775" lon="16.11736822081364"><ele>187.0</ele><time>2026-05-03T08:57:15Z</time></trkpt><trkpt lat="39.14643704851321" lon="16.117392281524978"><ele>187.0</ele><time>2026-05-03T08:57:16Z</time></trkpt><trkpt lat="39.14637241381218" lon="16.117410762856604"><ele>187.0</ele><time>2026-05-03T08:57:17Z</time></trkpt><trkpt lat="39.146268568808075" lon="16.117448083778907"><ele>187.0</ele><time>2026-05-03T08:57:19Z</time></trkpt><trkpt lat="39.1461491079763" lon="16.11750849515337"><ele>185.0</ele><time>2026-05-03T08:57:21Z</time></trkpt><trkpt lat="39.14608763439708" lon="16.117543010467465"><ele>183.0</ele><time>2026-05-03T08:57:22Z</time></trkpt><trkpt lat="39.14600293384083" lon="16.117575418022042"><ele>181.0</ele><time>2026-05-03T08:57:23Z</time></trkpt><trkpt lat="39.14577471294983" lon="16.11721604033369"><ele>191.5</ele><time>2026-05-03T08:57:24Z</time></trkpt><trkpt lat="39.14564872616667" lon="16.117203924319515"><ele>202.0</ele><time>2026-05-03T08:57:25Z</time></trkpt><trkpt lat="39.14551212835932" lon="16.11720267806352"><ele>212.5</ele><time>2026-05-03T08:57:26Z</time></trkpt><trkpt lat="39.14536932995792" lon="16.117210863848847"><ele>223.0</ele><time>2026-05-03T08:57:27Z</time></trkpt><trkpt lat="39.145236095251114" lon="16.117238842805346"><ele>223.0</ele><time>2026-05-03T08:57:28Z</time></trkpt><trkpt lat="39.145107991379" lon="16.117280559892357"><ele>223.0</ele><time>2026-05-03T08:57:29Z</time></trkpt><trkpt lat="39.14499173978186" lon="16.11732559913664"><ele>223.0</ele><time>2026-05-03T08:57:30Z</time></trkpt><trkpt lat="39.144887385545054" lon="16.11739621716933"><ele>223.0</ele><time>2026-05-03T08:57:31Z</time></trkpt><trkpt lat="39.14478416681223" lon="16.11748723880486"><ele>221.5</ele><time>2026-05-03T08:57:32Z</time></trkpt><trkpt lat="39.14467645211298" lon="16.117576428277"><ele>220.0</ele><time>2026-05-03T08:57:33Z</time></trkpt><trkpt lat="39.14458265931801" lon="16.117665757243465"><ele>218.5</ele><time>2026-05-03T08:57:34Z</time></trkpt><trkpt lat="39.14449700806938" lon="16.11778586133767"><ele>217.0</ele><time>2026-05-03T08:57:35Z</time></trkpt><trkpt lat="39.14440579269229" lon="16.117936615141296"><ele>217.0</ele><time>2026-05-03T08:57:36Z</time></trkpt><trkpt lat="39.14432624684102" lon="16.118071169870234"><ele>217.0</ele><time>2026-05-03T08:57:37Z</time></trkpt><trkpt lat="39.14426185445273" lon="16.118175248228034"><ele>217.0</ele><time>2026-05-03T08:57:38Z</time></trkpt><trkpt lat="39.14421262741543" lon="16.118257064198993"><ele>217.0</ele><time>2026-05-03T08:57:39Z</time></trkpt><trkpt lat="39.144176654327325" lon="16.11834140962715"><ele>217.0</ele><time>2026-05-03T08:57:40Z</time></trkpt><trkpt lat="39.14417377991174" lon="16.118425403192887"><ele>213.33333333333331</ele><time>2026-05-03T08:57:41Z</time></trkpt><trkpt lat="39.14419856443669" lon="16.118505357595428"><ele>209.66666666666666</ele><time>2026-05-03T08:57:42Z</time></trkpt><trkpt lat="39.144201171120585" lon="16.118592210629203"><ele>206.0</ele><time>2026-05-03T08:57:43Z</time></trkpt><trkpt lat="39.14417633571417" lon="16.118677910139255"><ele>202.33333333333331</ele><time>2026-05-03T08:57:45Z</time></trkpt><trkpt lat="39.14422173574604" lon="16.11877805410458"><ele>198.66666666666666</ele><time>2026-05-03T08:57:52Z</time></trkpt><trkpt lat="39.144137515165355" lon="16.118842709317043"><ele>195.0</ele><time>2026-05-03T08:57:55Z</time></trkpt><trkpt lat="39.14412590876845" lon="16.11892772372484"><ele>195.0</ele><time>2026-05-03T08:57:58Z</time></trkpt><trkpt lat="39.144179316087566" lon="16.11899731934225"><ele>195.0</ele><time>2026-05-03T08:57:59Z</time></trkpt><trkpt lat="39.144233904868635" lon="16.119074258668213"><ele>195.0</ele><time>2026-05-03T08:58:00Z</time></trkpt><trkpt lat="39.14428307332553" lon="16.119153013704658"><ele>195.0</ele><time>2026-05-03T08:58:01Z</time></trkpt><trkpt lat="39.144328533679975" lon="16.119235042246558"><ele>195.0</ele><time>2026-05-03T08:58:02Z</time></trkpt><trkpt lat="39.144360911102424" lon="16.1193527929457"><ele>195.0</ele><time>2026-05-03T08:58:04Z</time></trkpt><trkpt lat="39.14431463356967" lon="16.11941410648921"><ele>195.16666666666666</ele><time>2026-05-03T08:58:06Z</time></trkpt><trkpt lat="39.14424913882774" lon="16.119419685502134"><ele>195.33333333333331</ele><time>2026-05-03T08:58:07Z</time></trkpt><trkpt lat="39.14417465269099" lon="16.11944581151313"><ele>195.5</ele><time>2026-05-03T08:58:08Z</time></trkpt><trkpt lat="39.144107597771786" lon="16.119458134308754"><ele>195.66666666666666</ele><time>2026-05-03T08:58:09Z</time></trkpt><trkpt lat="39.1440300310187" lon="16.119459522703412"><ele>195.83333333333331</ele><time>2026-05-03T08:58:10Z</time></trkpt><trkpt lat="39.143950428721816" lon="16.119537668380453"><ele>196.0</ele><time>2026-05-03T08:58:12Z</time></trkpt><trkpt lat="39.14390318388921" lon="16.119609918510054"><ele>196.33333333333331</ele><time>2026-05-03T08:58:13Z</time></trkpt><trkpt lat="39.14384790256761" lon="16.119685314715483"><ele>196.66666666666666</ele><time>2026-05-03T08:58:14Z</time></trkpt><trkpt lat="39.14378691759233" lon="16.11973396313384"><ele>197.0</ele><time>2026-05-03T08:58:15Z</time></trkpt><trkpt lat="39.14372147213787" lon="16.119763540089817"><ele>197.33333333333331</ele><time>2026-05-03T08:58:16Z</time></trkpt><trkpt lat="39.14376676204493" lon="16.119884731917722"><ele>197.66666666666666</ele><time>2026-05-03T08:58:19Z</time></trkpt><trkpt lat="39.14385148227964" lon="16.11998037890499"><ele>198.0</ele><time>2026-05-03T08:58:21Z</time></trkpt><trkpt lat="39.143902306419434" lon="16.12004982575993"><ele>199.0</ele><time>2026-05-03T08:58:22Z</time></trkpt><trkpt lat="39.14395098803619" lon="16.120143197676587"><ele>200.0</ele><time>2026-05-03T08:58:23Z</time></trkpt><trkpt lat="39.143974612267556" lon="16.12022095505455"><ele>201.0</ele><time>2026-05-03T08:58:24Z</time></trkpt><trkpt lat="39.143898462863795" lon="16.120292146884935"><ele>202.0</ele><time>2026-05-03T08:58:26Z</time></trkpt><trkpt lat="39.14383470560237" lon="16.120320650675698"><ele>203.0</ele><time>2026-05-03T08:58:27Z</time></trkpt><trkpt lat="39.143745699676224" lon="16.120354699375568"><ele>204.0</ele><time>2026-05-03T08:58:28Z</time></trkpt><trkpt lat="39.14363992178447" lon="16.12040832242505"><ele>204.0</ele><time>2026-05-03T08:58:29Z</time></trkpt><trkpt lat="39.14352544109564" lon="16.120446289405873"><ele>204.0</ele><time>2026-05-03T08:58:29.999Z</time></trkpt><trkpt lat="39.14341035332009" lon="16.120475833417842"><ele>204.0</ele><time>2026-05-03T08:58:30.999Z</time></trkpt><trkpt lat="39.14331930451341" lon="16.12048988164305"><ele>204.0</ele><time>2026-05-03T08:58:31.999Z</time></trkpt><trkpt lat="39.14324548351062" lon="16.12049499512845"><ele>204.0</ele><time>2026-05-03T08:58:32.999Z</time></trkpt><trkpt lat="39.14315374877183" lon="16.1205591122303"><ele>206.5</ele><time>2026-05-03T08:58:34.999Z</time></trkpt><trkpt lat="39.1432061225684" lon="16.120690193108523"><ele>209.0</ele><time>2026-05-03T08:58:36.999Z</time></trkpt><trkpt lat="39.14327403339191" lon="16.12076111677672"><ele>211.5</ele><time>2026-05-03T08:58:37.999Z</time></trkpt><trkpt lat="39.14336372098052" lon="16.120861017744456"><ele>214.0</ele><time>2026-05-03T08:58:38.999Z</time></trkpt><trkpt lat="39.14345968442079" lon="16.12099127367754"><ele>217.0</ele><time>2026-05-03T08:58:39.999Z</time></trkpt><trkpt lat="39.14355631159303" lon="16.121110120318555"><ele>219.99999999999997</ele><time>2026-05-03T08:58:40.999Z</time></trkpt><trkpt lat="39.14360837478132" lon="16.12118066269853"><ele>222.99999999999997</ele><time>2026-05-03T08:58:41.999Z</time></trkpt><trkpt lat="39.14366377062273" lon="16.121275983123514"><ele>226.0</ele><time>2026-05-03T08:58:42.999Z</time></trkpt><trkpt lat="39.143731506615666" lon="16.121374898406295"><ele>229.0</ele><time>2026-05-03T08:58:43.999Z</time></trkpt><trkpt lat="39.14382344692626" lon="16.121473855274452"><ele>233.39999999999998</ele><time>2026-05-03T08:58:44.999Z</time></trkpt><trkpt lat="39.143940255659444" lon="16.121586936643126"><ele>237.79999999999998</ele><time>2026-05-03T08:58:46Z</time></trkpt><trkpt lat="39.14401527358344" lon="16.121686980145277"><ele>242.20000000000002</ele><time>2026-05-03T08:58:47Z</time></trkpt><trkpt lat="39.14407635939516" lon="16.12177730259634"><ele>246.60000000000002</ele><time>2026-05-03T08:58:48Z</time></trkpt><trkpt lat="39.144102099970496" lon="16.121857590415466"><ele>251.0</ele><time>2026-05-03T08:58:49Z</time></trkpt><trkpt lat="39.144124981123966" lon="16.121953216772223"><ele>251.0</ele><time>2026-05-03T08:58:50Z</time></trkpt><trkpt lat="39.14413713509943" lon="16.12206865862334"><ele>251.00000000000003</ele><time>2026-05-03T08:58:51Z</time></trkpt><trkpt lat="39.144136758981745" lon="16.122160668315132"><ele>251.00000000000003</ele><time>2026-05-03T08:58:52Z</time></trkpt><trkpt lat="39.14414042785122" lon="16.12232495304681"><ele>251.0</ele><time>2026-05-03T08:58:58Z</time></trkpt><trkpt lat="39.14414081414377" lon="16.122155717511497"><ele>251.0</ele><time>2026-05-03T08:58:59Z</time></trkpt><trkpt lat="39.14409743653807" lon="16.122076722706172"><ele>251.16666666666669</ele><time>2026-05-03T09:00:20.999Z</time></trkpt><trkpt lat="39.144032219786205" lon="16.12212132203321"><ele>251.33333333333334</ele><time>2026-05-03T09:00:24.999Z</time></trkpt><trkpt lat="39.14392203933629" lon="16.12208011862229"><ele>251.5</ele><time>2026-05-03T09:00:27.999Z</time></trkpt><trkpt lat="39.14385980315423" lon="16.122065701690605"><ele>251.66666666666669</ele><time>2026-05-03T09:00:28.999Z</time></trkpt><trkpt lat="39.143741719009256" lon="16.122027305823206"><ele>251.83333333333334</ele><time>2026-05-03T09:00:30.999Z</time></trkpt><trkpt lat="39.143674027842984" lon="16.12199996529637"><ele>252.0</ele><time>2026-05-03T09:00:31.999Z</time></trkpt><trkpt lat="39.143600610313285" lon="16.121983204615162"><ele>252.0</ele><time>2026-05-03T09:00:32.999Z</time></trkpt><trkpt lat="39.1435274906841" lon="16.121985472110058"><ele>252.0</ele><time>2026-05-03T09:00:33.999Z</time></trkpt><trkpt lat="39.143465031517046" lon="16.12200732115237"><ele>252.0</ele><time>2026-05-03T09:00:34.999Z</time></trkpt><trkpt lat="39.143371369096094" lon="16.12210208544124"><ele>252.0</ele><time>2026-05-03T09:00:36.999Z</time></trkpt><trkpt lat="39.14332485076455" lon="16.122163894948233"><ele>252.0</ele><time>2026-05-03T09:00:37.999Z</time></trkpt><trkpt lat="39.14328725790346" lon="16.12222919645084"><ele>252.0</ele><time>2026-05-03T09:00:38.999Z</time></trkpt><trkpt lat="39.14328773563364" lon="16.122404097895224"><ele>254.5</ele><time>2026-05-03T09:00:40.999Z</time></trkpt><trkpt lat="39.1433137144121" lon="16.122486725619556"><ele>257.0</ele><time>2026-05-03T09:00:41.999Z</time></trkpt><trkpt lat="39.14334577448061" lon="16.122558222939865"><ele>259.5</ele><time>2026-05-03T09:00:42.999Z</time></trkpt><trkpt lat="39.143388805202136" lon="16.122629857001478"><ele>262.0</ele><time>2026-05-03T09:00:43.999Z</time></trkpt><trkpt lat="39.14344258364175" lon="16.122707025808314"><ele>264.5</ele><time>2026-05-03T09:00:44.999Z</time></trkpt><trkpt lat="39.143482234619164" lon="16.12277329414255"><ele>267.0</ele><time>2026-05-03T09:00:45.999Z</time></trkpt><trkpt lat="39.1435674579493" lon="16.12285400256551"><ele>267.0</ele><time>2026-05-03T09:00:47.999Z</time></trkpt><trkpt lat="39.143617855728785" lon="16.122907475441007"><ele>267.0</ele><time>2026-05-03T09:00:48.999Z</time></trkpt><trkpt lat="39.14370042303" lon="16.123015721276854"><ele>267.0</ele><time>2026-05-03T09:00:50.999Z</time></trkpt><trkpt lat="39.143729723652896" lon="16.123093171042573"><ele>267.0</ele><time>2026-05-03T09:00:52Z</time></trkpt><trkpt lat="39.143762372941026" lon="16.123178379762628"><ele>267.0</ele><time>2026-05-03T09:00:53Z</time></trkpt><trkpt lat="39.14378984468472" lon="16.123271359617725"><ele>267.0</ele><time>2026-05-03T09:00:54Z</time></trkpt><trkpt lat="39.14381430887487" lon="16.123397835915483"><ele>268.6666666666667</ele><time>2026-05-03T09:00:56Z</time></trkpt><trkpt lat="39.14388122693357" lon="16.123490141610507"><ele>270.3333333333333</ele><time>2026-05-03T09:00:58Z</time></trkpt><trkpt lat="39.14393941114674" lon="16.12355571691507"><ele>272.0</ele><time>2026-05-03T09:01:02Z</time></trkpt><trkpt lat="39.14391279414649" lon="16.123639427992458"><ele>273.66666666666663</ele><time>2026-05-03T09:01:04Z</time></trkpt><trkpt lat="39.14388015761035" lon="16.123740063903284"><ele>275.3333333333333</ele><time>2026-05-03T09:01:06Z</time></trkpt><trkpt lat="39.143861803785676" lon="16.12384277026035"><ele>277.0</ele><time>2026-05-03T09:01:08Z</time></trkpt><trkpt lat="39.14381661274404" lon="16.12398333237395"><ele>277.0</ele><time>2026-05-03T09:01:11Z</time></trkpt><trkpt lat="39.143761254636146" lon="16.1240519075584"><ele>277.0</ele><time>2026-05-03T09:01:13Z</time></trkpt><trkpt lat="39.14370374901401" lon="16.12417038896275"><ele>277.0</ele><time>2026-05-03T09:01:15Z</time></trkpt><trkpt lat="39.143641254236385" lon="16.12431561803628"><ele>277.0</ele><time>2026-05-03T09:01:17Z</time></trkpt><trkpt lat="39.14361200447468" lon="16.124442857516833"><ele>277.0</ele><time>2026-05-03T09:01:19Z</time></trkpt><trkpt lat="39.14358727998344" lon="16.124571851154748"><ele>279.3333333333333</ele><time>2026-05-03T09:01:21Z</time></trkpt><trkpt lat="39.14354212416185" lon="16.12462957499863"><ele>281.66666666666663</ele><time>2026-05-03T09:01:23Z</time></trkpt><trkpt lat="39.143438097185346" lon="16.124599484102095"><ele>284.0</ele><time>2026-05-03T09:01:26Z</time></trkpt><trkpt lat="39.14335198725882" lon="16.124582498406873"><ele>286.3333333333333</ele><time>2026-05-03T09:01:28Z</time></trkpt><trkpt lat="39.14326973482997" lon="16.124613011821616"><ele>288.6666666666667</ele><time>2026-05-03T09:01:30Z</time></trkpt><trkpt lat="39.14318023863294" lon="16.124635061743856"><ele>291.0</ele><time>2026-05-03T09:01:32Z</time></trkpt><trkpt lat="39.143064915494115" lon="16.124695240811263"><ele>291.0</ele><time>2026-05-03T09:01:34Z</time></trkpt><trkpt lat="39.143004089432274" lon="16.124719976282034"><ele>291.0</ele><time>2026-05-03T09:01:35Z</time></trkpt><trkpt lat="39.14290042098291" lon="16.124771202247224"><ele>291.0</ele><time>2026-05-03T09:01:37Z</time></trkpt><trkpt lat="39.1428376682307" lon="16.124812794933742"><ele>291.0</ele><time>2026-05-03T09:01:39Z</time></trkpt><trkpt lat="39.14275627768741" lon="16.12485637012804"><ele>291.0</ele><time>2026-05-03T09:01:40Z</time></trkpt><trkpt lat="39.14268066383454" lon="16.124925500709477"><ele>291.0</ele><time>2026-05-03T09:01:41Z</time></trkpt><trkpt lat="39.142605461384434" lon="16.12502480756145"><ele>295.3333333333333</ele><time>2026-05-03T09:01:43Z</time></trkpt><trkpt lat="39.14255766106474" lon="16.125109626303534"><ele>299.6666666666667</ele><time>2026-05-03T09:01:46Z</time></trkpt><trkpt lat="39.14255176293437" lon="16.125266032442713"><ele>304.0</ele><time>2026-05-03T09:01:48Z</time></trkpt><trkpt lat="39.14252248799005" lon="16.12534229157707"><ele>308.33333333333337</ele><time>2026-05-03T09:01:50Z</time></trkpt><trkpt lat="39.14244518618551" lon="16.125384574182558"><ele>312.6666666666667</ele><time>2026-05-03T09:01:52Z</time></trkpt><trkpt lat="39.142391543716485" lon="16.125428527369348"><ele>317.0</ele><time>2026-05-03T09:01:55Z</time></trkpt><trkpt lat="39.14245636174532" lon="16.12554358293726"><ele>317.0</ele><time>2026-05-03T09:01:58Z</time></trkpt><trkpt lat="39.1425200224406" lon="16.125571368763904"><ele>317.0</ele><time>2026-05-03T09:02:00Z</time></trkpt><trkpt lat="39.142595053338724" lon="16.125495580110854"><ele>317.0</ele><time>2026-05-03T09:02:02Z</time></trkpt><trkpt lat="39.14269832740029" lon="16.125436069990155"><ele>317.0</ele><time>2026-05-03T09:02:04Z</time></trkpt><trkpt lat="39.14281210993134" lon="16.125437530117278"><ele>317.0</ele><time>2026-05-03T09:02:06Z</time></trkpt><trkpt lat="39.14291620005201" lon="16.125448424629994"><ele>317.0</ele><time>2026-05-03T09:02:08Z</time></trkpt><trkpt lat="39.142964323814894" lon="16.12554183395721"><ele>317.0</ele><time>2026-05-03T09:02:10Z</time></trkpt><trkpt lat="39.142992676669756" lon="16.12566223139895"><ele>317.0</ele><time>2026-05-03T09:02:12Z</time></trkpt><trkpt lat="39.1430486192389" lon="16.12576056552079"><ele>317.0</ele><time>2026-05-03T09:02:14Z</time></trkpt><trkpt lat="39.14309531040206" lon="16.12583298829284"><ele>317.0</ele><time>2026-05-03T09:02:16Z</time></trkpt><trkpt lat="39.143165173155055" lon="16.12595219916626"><ele>318.6</ele><time>2026-05-03T09:02:18.999Z</time></trkpt><trkpt lat="39.14321261621192" lon="16.126031005676197"><ele>320.2</ele><time>2026-05-03T09:02:19.999Z</time></trkpt><trkpt lat="39.14328285942489" lon="16.12613652612702"><ele>321.8</ele><time>2026-05-03T09:02:21.999Z</time></trkpt><trkpt lat="39.143364757798324" lon="16.126214421737856"><ele>323.4</ele><time>2026-05-03T09:02:23.999Z</time></trkpt><trkpt lat="39.14344499983147" lon="16.126289902784713"><ele>325.0</ele><time>2026-05-03T09:02:25.999Z</time></trkpt><trkpt lat="39.143513514742125" lon="16.12637606385174"><ele>329.8</ele><time>2026-05-03T09:02:27.999Z</time></trkpt><trkpt lat="39.14356922466461" lon="16.126458286006706"><ele>334.6</ele><time>2026-05-03T09:02:29.999Z</time></trkpt><trkpt lat="39.14365387100836" lon="16.126588680348792"><ele>339.4</ele><time>2026-05-03T09:02:31.999Z</time></trkpt><trkpt lat="39.14372895929191" lon="16.126719515823815"><ele>344.2</ele><time>2026-05-03T09:02:33.999Z</time></trkpt><trkpt lat="39.143769847724414" lon="16.126791121423622"><ele>349.0</ele><time>2026-05-03T09:02:34.999Z</time></trkpt><trkpt lat="39.143807748367536" lon="16.126862878267776"><ele>350.4</ele><time>2026-05-03T09:02:35.999Z</time></trkpt><trkpt lat="39.14384746177281" lon="16.127019338480043"><ele>351.79999999999995</ele><time>2026-05-03T09:02:37.999Z</time></trkpt><trkpt lat="39.14390043699721" lon="16.12715392964683"><ele>353.20000000000005</ele><time>2026-05-03T09:02:39.999Z</time></trkpt><trkpt lat="39.14395211236636" lon="16.12723060895603"><ele>354.6</ele><time>2026-05-03T09:02:41.999Z</time></trkpt><trkpt lat="39.14402065785508" lon="16.127257019614092"><ele>356.0</ele><time>2026-05-03T09:02:43.999Z</time></trkpt><trkpt lat="39.1440316818956" lon="16.127132205457382"><ele>356.0</ele><time>2026-05-03T09:02:46.999Z</time></trkpt><trkpt lat="39.144010975396505" lon="16.127039333988137"><ele>356.0</ele><time>2026-05-03T09:02:48.999Z</time></trkpt><trkpt lat="39.14406372915681" lon="16.126980713306406"><ele>356.0</ele><time>2026-05-03T09:02:51.999Z</time></trkpt><trkpt lat="39.14414705260921" lon="16.127045008681236"><ele>356.0</ele><time>2026-05-03T09:02:54.999Z</time></trkpt><trkpt lat="39.14421012069506" lon="16.127060317984117"><ele>356.0</ele><time>2026-05-03T09:02:56.999Z</time></trkpt><trkpt lat="39.144309782343456" lon="16.127083980477796"><ele>356.0</ele><time>2026-05-03T09:02:59Z</time></trkpt><trkpt lat="39.14438862869259" lon="16.12713025089348"><ele>362.20000000000005</ele><time>2026-05-03T09:03:02Z</time></trkpt><trkpt lat="39.14445463895825" lon="16.127156247295744"><ele>368.40000000000003</ele><time>2026-05-03T09:03:04Z</time></trkpt><trkpt lat="39.14452391711121" lon="16.1272497185581"><ele>374.6</ele><time>2026-05-03T09:04:07Z</time></trkpt><trkpt lat="39.14458202564505" lon="16.12737778729675"><ele>380.8</ele><time>2026-05-03T09:04:08.999Z</time></trkpt><trkpt lat="39.14463865737536" lon="16.127516991127923"><ele>387.0</ele><time>2026-05-03T09:04:10.999Z</time></trkpt><trkpt lat="39.14468553205792" lon="16.12759488424566"><ele>387.40000000000003</ele><time>2026-05-03T09:04:11.999Z</time></trkpt><trkpt lat="39.144722751394944" lon="16.127675351586063"><ele>387.8</ele><time>2026-05-03T09:04:12.999Z</time></trkpt><trkpt lat="39.144757403100165" lon="16.1277582432304"><ele>388.2</ele><time>2026-05-03T09:04:13.999Z</time></trkpt><trkpt lat="39.14480016181088" lon="16.127866581037495"><ele>388.6</ele><time>2026-05-03T09:04:14.999Z</time></trkpt><trkpt lat="39.1448432245038" lon="16.127984196489614"><ele>389.0</ele><time>2026-05-03T09:04:15.999Z</time></trkpt><trkpt lat="39.1448877641451" lon="16.12812029265062"><ele>395.79999999999995</ele><time>2026-05-03T09:04:16.999Z</time></trkpt><trkpt lat="39.144937870039705" lon="16.128268811972184"><ele>402.59999999999997</ele><time>2026-05-03T09:04:17.999Z</time></trkpt><trkpt lat="39.144995521162535" lon="16.128411178698435"><ele>409.4</ele><time>2026-05-03T09:04:18.999Z</time></trkpt><trkpt lat="39.14504470544514" lon="16.128531577314927"><ele>416.2</ele><time>2026-05-03T09:04:19.999Z</time></trkpt><trkpt lat="39.1450875146168" lon="16.12861607215174"><ele>423.0</ele><time>2026-05-03T09:04:20.999Z</time></trkpt><trkpt lat="39.14506797418765" lon="16.12869873505455"><ele>423.0</ele><time>2026-05-03T09:04:23.999Z</time></trkpt><trkpt lat="39.14504468840477" lon="16.128810620731787"><ele>423.0</ele><time>2026-05-03T09:04:25.999Z</time></trkpt><trkpt lat="39.1450083823447" lon="16.12890365885873"><ele>423.0</ele><time>2026-05-03T09:04:26.999Z</time></trkpt><trkpt lat="39.14495968506288" lon="16.129011073997685"><ele>423.0</ele><time>2026-05-03T09:04:27.999Z</time></trkpt><trkpt lat="39.144910357079894" lon="16.129128464489355"><ele>423.0</ele><time>2026-05-03T09:04:28.999Z</time></trkpt><trkpt lat="39.144866882808884" lon="16.129254500913625"><ele>421.4</ele><time>2026-05-03T09:04:29.999Z</time></trkpt><trkpt lat="39.144828229014905" lon="16.129392193534624"><ele>419.79999999999995</ele><time>2026-05-03T09:04:30.999Z</time></trkpt><trkpt lat="39.144793491147155" lon="16.129497118435467"><ele>418.2</ele><time>2026-05-03T09:04:31.999Z</time></trkpt><trkpt lat="39.144759331453564" lon="16.129582199574983"><ele>416.6</ele><time>2026-05-03T09:04:32.999Z</time></trkpt><trkpt lat="39.14473573790056" lon="16.12967242148175"><ele>415.0</ele><time>2026-05-03T09:04:33.999Z</time></trkpt><trkpt lat="39.14466684400243" lon="16.12979897564582"><ele>417.8</ele><time>2026-05-03T09:04:35.999Z</time></trkpt><trkpt lat="39.14463931786352" lon="16.129905043995013"><ele>420.6</ele><time>2026-05-03T09:04:37.999Z</time></trkpt><trkpt lat="39.144650698831505" lon="16.129985186150332"><ele>423.4</ele><time>2026-05-03T09:04:38.999Z</time></trkpt><trkpt lat="39.144648221247536" lon="16.130086103607127"><ele>426.2</ele><time>2026-05-03T09:04:39.999Z</time></trkpt><trkpt lat="39.14463810980521" lon="16.130233214754167"><ele>429.0</ele><time>2026-05-03T09:04:40.999Z</time></trkpt><trkpt lat="39.14463569013286" lon="16.130379397740402"><ele>429.0</ele><time>2026-05-03T09:04:41.999Z</time></trkpt><trkpt lat="39.144627248841964" lon="16.130515263934377"><ele>429.0</ele><time>2026-05-03T09:04:42.999Z</time></trkpt><trkpt lat="39.144629021376595" lon="16.13063380054269"><ele>429.0</ele><time>2026-05-03T09:04:43.999Z</time></trkpt><trkpt lat="39.14463780650644" lon="16.130730780281993"><ele>429.0</ele><time>2026-05-03T09:04:44.999Z</time></trkpt><trkpt lat="39.144639512777424" lon="16.130828517804883"><ele>429.0</ele><time>2026-05-03T09:04:45.999Z</time></trkpt><trkpt lat="39.144633037128074" lon="16.13092041258301"><ele>429.0</ele><time>2026-05-03T09:04:46.999Z</time></trkpt><trkpt lat="39.14462675030757" lon="16.13102654475234"><ele>431.6666666666667</ele><time>2026-05-03T09:04:47.999Z</time></trkpt><trkpt lat="39.1446294964621" lon="16.131131626412515"><ele>434.33333333333337</ele><time>2026-05-03T09:04:48.999Z</time></trkpt><trkpt lat="39.14462890509957" lon="16.13122252515952"><ele>437.0</ele><time>2026-05-03T09:04:49.999Z</time></trkpt><trkpt lat="39.14462346999697" lon="16.13132822380261"><ele>439.6666666666667</ele><time>2026-05-03T09:04:50.999Z</time></trkpt><trkpt lat="39.14461227951867" lon="16.1314473643022"><ele>442.33333333333337</ele><time>2026-05-03T09:04:51.999Z</time></trkpt><trkpt lat="39.14459829550219" lon="16.13155671138266"><ele>445.0</ele><time>2026-05-03T09:04:52.999Z</time></trkpt><trkpt lat="39.144581210179645" lon="16.131656600837918"><ele>449.4</ele><time>2026-05-03T09:04:53.999Z</time></trkpt><trkpt lat="39.14453781579209" lon="16.13174275472557"><ele>453.8</ele><time>2026-05-03T09:04:54.999Z</time></trkpt><trkpt lat="39.14448578015771" lon="16.1318196336717"><ele>458.20000000000005</ele><time>2026-05-03T09:04:55.999Z</time></trkpt><trkpt lat="39.1444133016399" lon="16.131916283007907"><ele>462.6</ele><time>2026-05-03T09:04:56.999Z</time></trkpt><trkpt lat="39.144340948608324" lon="16.132037296576204"><ele>467.0</ele><time>2026-05-03T09:04:57.999Z</time></trkpt><trkpt lat="39.14428817459894" lon="16.132159763797905"><ele>466.99999999999994</ele><time>2026-05-03T09:04:58.999Z</time></trkpt><trkpt lat="39.14423468735534" lon="16.132283848434533"><ele>467.0</ele><time>2026-05-03T09:04:59.999Z</time></trkpt><trkpt lat="39.144165561418376" lon="16.1323643111217"><ele>467.0</ele><time>2026-05-03T09:05:00.999Z</time></trkpt><trkpt lat="39.14408698812991" lon="16.132402271655668"><ele>467.0</ele><time>2026-05-03T09:05:01.999Z</time></trkpt><trkpt lat="39.14400745771088" lon="16.1324102685672"><ele>466.99999999999994</ele><time>2026-05-03T09:05:02.999Z</time></trkpt><trkpt lat="39.1439304650119" lon="16.132404276652775"><ele>467.0</ele><time>2026-05-03T09:05:04Z</time></trkpt><trkpt lat="39.14383923443301" lon="16.13231395602557"><ele>464.99999999999994</ele><time>2026-05-03T09:05:06Z</time></trkpt><trkpt lat="39.14379170935" lon="16.132254469014242"><ele>463.0</ele><time>2026-05-03T09:05:07Z</time></trkpt><trkpt lat="39.14371781571205" lon="16.132258360382746"><ele>461.0</ele><time>2026-05-03T09:05:09Z</time></trkpt><trkpt lat="39.14364992490989" lon="16.132359062176416"><ele>459.0</ele><time>2026-05-03T09:05:11Z</time></trkpt><trkpt lat="39.14361542401816" lon="16.13250590659279"><ele>456.99999999999994</ele><time>2026-05-03T09:05:13Z</time></trkpt><trkpt lat="39.143667202919524" lon="16.132574242667474"><ele>455.0</ele><time>2026-05-03T09:05:17Z</time></trkpt><trkpt lat="39.14373582556165" lon="16.13258712110202"><ele>459.16666666666663</ele><time>2026-05-03T09:05:18Z</time></trkpt><trkpt lat="39.14384205911755" lon="16.13263647822297"><ele>463.3333333333333</ele><time>2026-05-03T09:05:20Z</time></trkpt><trkpt lat="39.14391423637968" lon="16.132713138290335"><ele>467.5</ele><time>2026-05-03T09:05:22Z</time></trkpt><trkpt lat="39.143880019186945" lon="16.13279548414439"><ele>471.66666666666663</ele><time>2026-05-03T09:05:24Z</time></trkpt><trkpt lat="39.14382351529291" lon="16.132840604180014"><ele>475.8333333333333</ele><time>2026-05-03T09:05:25Z</time></trkpt><trkpt lat="39.14375547312461" lon="16.13287304829794"><ele>480.0</ele><time>2026-05-03T09:05:26Z</time></trkpt><trkpt lat="39.143688764697934" lon="16.132898632821934"><ele>480.0</ele><time>2026-05-03T09:05:27Z</time></trkpt><trkpt lat="39.143612735770276" lon="16.13293761216117"><ele>480.0</ele><time>2026-05-03T09:05:28Z</time></trkpt><trkpt lat="39.14354155934954" lon="16.13300300575425"><ele>480.0</ele><time>2026-05-03T09:05:29Z</time></trkpt><trkpt lat="39.14347620352206" lon="16.133086248001423"><ele>480.0</ele><time>2026-05-03T09:05:30Z</time></trkpt><trkpt lat="39.143432260105456" lon="16.133163222259515"><ele>480.0</ele><time>2026-05-03T09:05:31Z</time></trkpt><trkpt lat="39.143402169187624" lon="16.13323483693653"><ele>480.0</ele><time>2026-05-03T09:05:32Z</time></trkpt><trkpt lat="39.14343469115018" lon="16.133370809054735"><ele>481.1666666666667</ele><time>2026-05-03T09:05:34Z</time></trkpt><trkpt lat="39.14345858463745" lon="16.133476367985203"><ele>482.33333333333337</ele><time>2026-05-03T09:05:35Z</time></trkpt><trkpt lat="39.1434954619185" lon="16.133581964753162"><ele>483.5</ele><time>2026-05-03T09:05:36Z</time></trkpt><trkpt lat="39.14356161382251" lon="16.13366524556754"><ele>484.6666666666667</ele><time>2026-05-03T09:05:37Z</time></trkpt><trkpt lat="39.14359170837867" lon="16.13375337443931"><ele>485.83333333333337</ele><time>2026-05-03T09:05:38Z</time></trkpt><trkpt lat="39.143630296500746" lon="16.133846180930348"><ele>487.0</ele><time>2026-05-03T09:05:39Z</time></trkpt><trkpt lat="39.14366852416284" lon="16.133947646335216"><ele>486.83333333333337</ele><time>2026-05-03T09:05:40Z</time></trkpt><trkpt lat="39.14370622122234" lon="16.134065367174895"><ele>486.6666666666667</ele><time>2026-05-03T09:05:41Z</time></trkpt><trkpt lat="39.14371799384582" lon="16.134164886150547"><ele>486.5</ele><time>2026-05-03T09:05:42Z</time></trkpt><trkpt lat="39.14365808963328" lon="16.13423461909294"><ele>486.33333333333337</ele><time>2026-05-03T09:05:43Z</time></trkpt><trkpt lat="39.1436365465617" lon="16.13434122379351"><ele>486.1666666666667</ele><time>2026-05-03T09:05:44Z</time></trkpt><trkpt lat="39.143608698319774" lon="16.134460180518907"><ele>486.0</ele><time>2026-05-03T09:05:45Z</time></trkpt><trkpt lat="39.14359504273401" lon="16.134544915831064"><ele>486.0</ele><time>2026-05-03T09:05:46Z</time></trkpt><trkpt lat="39.143595862592996" lon="16.134668429973367"><ele>486.0</ele><time>2026-05-03T09:05:48Z</time></trkpt><trkpt lat="39.14361263531575" lon="16.134753229500205"><ele>486.0</ele><time>2026-05-03T09:05:50Z</time></trkpt><trkpt lat="39.14371718156832" lon="16.134728876694453"><ele>486.0</ele><time>2026-05-03T09:05:51Z</time></trkpt><trkpt lat="39.14377659080968" lon="16.134701199543173"><ele>486.0</ele><time>2026-05-03T09:05:52Z</time></trkpt><trkpt lat="39.14383425831092" lon="16.134660090691785"><ele>486.0</ele><time>2026-05-03T09:05:53Z</time></trkpt><trkpt lat="39.14395696048307" lon="16.13464148087533"><ele>486.0</ele><time>2026-05-03T09:05:55Z</time></trkpt><trkpt lat="39.14402981766121" lon="16.134648885913055"><ele>486.0</ele><time>2026-05-03T09:05:56Z</time></trkpt><trkpt lat="39.144113599314984" lon="16.13467473672949"><ele>486.0</ele><time>2026-05-03T09:05:57Z</time></trkpt><trkpt lat="39.14417661554268" lon="16.134702757689457"><ele>486.0</ele><time>2026-05-03T09:05:58Z</time></trkpt><trkpt lat="39.144274698033826" lon="16.134709468324804"><ele>486.0</ele><time>2026-05-03T09:06:00Z</time></trkpt><trkpt lat="39.1442599559961" lon="16.134584171266724"><ele>486.0</ele><time>2026-05-03T09:06:03Z</time></trkpt><trkpt lat="39.14417869612478" lon="16.13450416226713"><ele>490.8</ele><time>2026-05-03T09:06:04.999Z</time></trkpt><trkpt lat="39.14412993356894" lon="16.13442187676787"><ele>495.6</ele><time>2026-05-03T09:06:06.999Z</time></trkpt><trkpt lat="39.144165031625754" lon="16.134247950043072"><ele>500.4</ele><time>2026-05-03T09:06:08.999Z</time></trkpt><trkpt lat="39.1441725600318" lon="16.13414315731068"><ele>505.2</ele><time>2026-05-03T09:06:09.999Z</time></trkpt><trkpt lat="39.144159883501366" lon="16.13403593505722"><ele>510.0</ele><time>2026-05-03T09:06:10.999Z</time></trkpt><trkpt lat="39.144130638435406" lon="16.133959853495146"><ele>510.0</ele><time>2026-05-03T09:06:11.999Z</time></trkpt><trkpt lat="39.14408798803817" lon="16.13388877306696"><ele>510.0</ele><time>2026-05-03T09:06:12.999Z</time></trkpt><trkpt lat="39.14408662910321" lon="16.133787409555854"><ele>510.0</ele><time>2026-05-03T09:06:14.999Z</time></trkpt><trkpt lat="39.14413905808356" lon="16.133719459428082"><ele>510.0</ele><time>2026-05-03T09:06:16.999Z</time></trkpt><trkpt lat="39.144237460778186" lon="16.13373814942161"><ele>510.0</ele><time>2026-05-03T09:06:18.999Z</time></trkpt><trkpt lat="39.14430601469724" lon="16.13386609372194"><ele>510.0</ele><time>2026-05-03T09:06:20.999Z</time></trkpt><trkpt lat="39.14433292333701" lon="16.133952267400456"><ele>512.0</ele><time>2026-05-03T09:06:21.999Z</time></trkpt><trkpt lat="39.14436817392048" lon="16.134066306112068"><ele>514.0</ele><time>2026-05-03T09:06:22.999Z</time></trkpt><trkpt lat="39.14442966924506" lon="16.134137410252702"><ele>516.0</ele><time>2026-05-03T09:06:23.999Z</time></trkpt><trkpt lat="39.144519045396585" lon="16.134154642377865"><ele>518.0</ele><time>2026-05-03T09:06:25.999Z</time></trkpt><trkpt lat="39.1446056226577" lon="16.13413889852271"><ele>520.0</ele><time>2026-05-03T09:06:26.999Z</time></trkpt><trkpt lat="39.14470233411293" lon="16.13412770195413"><ele>520.0</ele><time>2026-05-03T09:06:27.999Z</time></trkpt><trkpt lat="39.144773367281275" lon="16.134175913678593"><ele>520.0</ele><time>2026-05-03T09:06:28.999Z</time></trkpt><trkpt lat="39.14485375554619" lon="16.13420974415649"><ele>520.0</ele><time>2026-05-03T09:06:29.999Z</time></trkpt><trkpt lat="39.14493336993464" lon="16.13430467923952"><ele>520.0</ele><time>2026-05-03T09:06:30.999Z</time></trkpt><trkpt lat="39.14498614572129" lon="16.134384092826924"><ele>520.0</ele><time>2026-05-03T09:06:31.999Z</time></trkpt><trkpt lat="39.145097796062934" lon="16.134469199507947"><ele>524.5</ele><time>2026-05-03T09:06:33.999Z</time></trkpt><trkpt lat="39.14518938435206" lon="16.134486919347577"><ele>529.0</ele><time>2026-05-03T09:06:34.999Z</time></trkpt><trkpt lat="39.14525796728728" lon="16.134482962888146"><ele>533.5</ele><time>2026-05-03T09:06:35.999Z</time></trkpt><trkpt lat="39.145325431061636" lon="16.134473716316265"><ele>538.0</ele><time>2026-05-03T09:06:36.999Z</time></trkpt><trkpt lat="39.14539993425546" lon="16.134458557266637"><ele>542.5</ele><time>2026-05-03T09:06:37.999Z</time></trkpt><trkpt lat="39.145471703576604" lon="16.134436968447428"><ele>547.0</ele><time>2026-05-03T09:06:38.999Z</time></trkpt><trkpt lat="39.14554244464873" lon="16.134397245144275"><ele>547.0</ele><time>2026-05-03T09:06:39.999Z</time></trkpt><trkpt lat="39.14561267575693" lon="16.134347800289603"><ele>547.0</ele><time>2026-05-03T09:06:40.999Z</time></trkpt><trkpt lat="39.14568432367799" lon="16.13430918087503"><ele>547.0</ele><time>2026-05-03T09:06:41.999Z</time></trkpt><trkpt lat="39.14576523087685" lon="16.134288026563777"><ele>547.0</ele><time>2026-05-03T09:06:42.999Z</time></trkpt><trkpt lat="39.14584048089042" lon="16.134287832970074"><ele>547.0</ele><time>2026-05-03T09:06:43.999Z</time></trkpt><trkpt lat="39.14591755136615" lon="16.134317634018313"><ele>547.0</ele><time>2026-05-03T09:06:44.999Z</time></trkpt><trkpt lat="39.14598201953939" lon="16.1343719963972"><ele>549.1666666666667</ele><time>2026-05-03T09:06:45.999Z</time></trkpt><trkpt lat="39.14603151829892" lon="16.134459924311862"><ele>551.3333333333334</ele><time>2026-05-03T09:06:46.999Z</time></trkpt><trkpt lat="39.14604806073133" lon="16.134577304462315"><ele>553.5</ele><time>2026-05-03T09:06:47.999Z</time></trkpt><trkpt lat="39.146039028318995" lon="16.13471905356427"><ele>555.6666666666666</ele><time>2026-05-03T09:06:48.999Z</time></trkpt><trkpt lat="39.14603075143261" lon="16.13482164168343"><ele>557.8333333333333</ele><time>2026-05-03T09:06:49.999Z</time></trkpt><trkpt lat="39.14602849453575" lon="16.13490688557062"><ele>560.0</ele><time>2026-05-03T09:06:50.999Z</time></trkpt><trkpt lat="39.1461017382109" lon="16.135034260531285"><ele>557.0</ele><time>2026-05-03T09:06:52.999Z</time></trkpt><trkpt lat="39.14616558357535" lon="16.135074488048936"><ele>554.0</ele><time>2026-05-03T09:06:53.999Z</time></trkpt><trkpt lat="39.146242335003926" lon="16.135092071753917"><ele>551.0</ele><time>2026-05-03T09:06:54.999Z</time></trkpt><trkpt lat="39.14633847668106" lon="16.135089067588705"><ele>548.0</ele><time>2026-05-03T09:06:55.999Z</time></trkpt><trkpt lat="39.14643909531739" lon="16.13507902182573"><ele>545.0</ele><time>2026-05-03T09:06:56.999Z</time></trkpt><trkpt lat="39.14652885414761" lon="16.13506314750084"><ele>542.0</ele><time>2026-05-03T09:06:57.999Z</time></trkpt><trkpt lat="39.14660878607823" lon="16.135035508682932"><ele>542.0</ele><time>2026-05-03T09:06:58.999Z</time></trkpt><trkpt lat="39.146694349401784" lon="16.135017350063347"><ele>542.0</ele><time>2026-05-03T09:06:59.999Z</time></trkpt><trkpt lat="39.146802097083935" lon="16.134991664379385"><ele>542.0</ele><time>2026-05-03T09:07:01.999Z</time></trkpt><trkpt lat="39.1468784609292" lon="16.135026048370968"><ele>542.0</ele><time>2026-05-03T09:07:03.999Z</time></trkpt><trkpt lat="39.146998093126065" lon="16.135117209539157"><ele>542.0</ele><time>2026-05-03T09:07:05.999Z</time></trkpt><trkpt lat="39.14704485156024" lon="16.135208021961912"><ele>542.0</ele><time>2026-05-03T09:07:06.999Z</time></trkpt><trkpt lat="39.147089979319134" lon="16.135309210032176"><ele>542.0</ele><time>2026-05-03T09:07:07.999Z</time></trkpt><trkpt lat="39.1471281395088" lon="16.135409067680047"><ele>542.0</ele><time>2026-05-03T09:07:08.999Z</time></trkpt><trkpt lat="39.14716868698342" lon="16.13550062916574"><ele>542.0</ele><time>2026-05-03T09:07:10Z</time></trkpt><trkpt lat="39.147229408544064" lon="16.135631080827963"><ele>542.0</ele><time>2026-05-03T09:07:12Z</time></trkpt><trkpt lat="39.14727128158857" lon="16.135760723978688"><ele>540.8000000000001</ele><time>2026-05-03T09:07:14Z</time></trkpt><trkpt lat="39.14732787976746" lon="16.13590012639362"><ele>539.6</ele><time>2026-05-03T09:07:16Z</time></trkpt><trkpt lat="39.14736531815833" lon="16.135966368642155"><ele>538.4000000000001</ele><time>2026-05-03T09:07:17Z</time></trkpt><trkpt lat="39.14743347813187" lon="16.136078921023696"><ele>537.2</ele><time>2026-05-03T09:07:19Z</time></trkpt><trkpt lat="39.147494600142515" lon="16.13619543448959"><ele>536.0</ele><time>2026-05-03T09:07:21Z</time></trkpt><trkpt lat="39.14757123199317" lon="16.13628264056848"><ele>536.0</ele><time>2026-05-03T09:07:23Z</time></trkpt><trkpt lat="39.147633899660235" lon="16.136333214463175"><ele>536.0</ele><time>2026-05-03T09:07:25Z</time></trkpt><trkpt lat="39.147633340496995" lon="16.13641827973906"><ele>536.0</ele><time>2026-05-03T09:07:27Z</time></trkpt><trkpt lat="39.14754211569836" lon="16.136478856127543"><ele>536.0</ele><time>2026-05-03T09:07:29Z</time></trkpt><trkpt lat="39.14748039589535" lon="16.136495293382236"><ele>536.0</ele><time>2026-05-03T09:07:30Z</time></trkpt><trkpt lat="39.14742178031863" lon="16.136561244574683"><ele>536.0</ele><time>2026-05-03T09:07:32Z</time></trkpt><trkpt lat="39.14749709349551" lon="16.136563665395922"><ele>536.0</ele><time>2026-05-03T09:08:32.999Z</time></trkpt><trkpt lat="39.14760008520851" lon="16.13654898927608"><ele>536.0</ele><time>2026-05-03T09:08:34.999Z</time></trkpt><trkpt lat="39.14767139089674" lon="16.136603562239344"><ele>536.0</ele><time>2026-05-03T09:08:36.999Z</time></trkpt><trkpt lat="39.147636683196424" lon="16.13671476539277"><ele>536.0</ele><time>2026-05-03T09:08:59.999Z</time></trkpt><trkpt lat="39.14759622159147" lon="16.13678436588589"><ele>536.0</ele><time>2026-05-03T09:09:00.999Z</time></trkpt><trkpt lat="39.14755093602606" lon="16.136871091880874"><ele>536.0</ele><time>2026-05-03T09:09:01.999Z</time></trkpt><trkpt lat="39.14750856268865" lon="16.136966850023665"><ele>535.6</ele><time>2026-05-03T09:09:02.999Z</time></trkpt><trkpt lat="39.14747559412879" lon="16.137090398300362"><ele>535.2</ele><time>2026-05-03T09:09:03.999Z</time></trkpt><trkpt lat="39.14741747538777" lon="16.137226878292783"><ele>534.8</ele><time>2026-05-03T09:09:04.999Z</time></trkpt><trkpt lat="39.1473665444516" lon="16.137331433974612"><ele>534.4</ele><time>2026-05-03T09:09:05.999Z</time></trkpt><trkpt lat="39.147343726127374" lon="16.13741906773283"><ele>534.0</ele><time>2026-05-03T09:09:06.999Z</time></trkpt><trkpt lat="39.14733853843064" lon="16.1375103406562"><ele>532.0</ele><time>2026-05-03T09:09:07.999Z</time></trkpt><trkpt lat="39.14732409010891" lon="16.137614855042845"><ele>530.0</ele><time>2026-05-03T09:09:08.999Z</time></trkpt><trkpt lat="39.14726718111752" lon="16.137672313180282"><ele>528.0</ele><time>2026-05-03T09:09:09.999Z</time></trkpt><trkpt lat="39.147186862905826" lon="16.137753779784607"><ele>526.0</ele><time>2026-05-03T09:09:10.999Z</time></trkpt><trkpt lat="39.147127174172326" lon="16.13786047390819"><ele>524.0</ele><time>2026-05-03T09:09:11.999Z</time></trkpt><trkpt lat="39.147088712450916" lon="16.13795720767529"><ele>522.0</ele><time>2026-05-03T09:09:12.999Z</time></trkpt><trkpt lat="39.14710814702298" lon="16.138041934452428"><ele>522.0</ele><time>2026-05-03T09:09:14.999Z</time></trkpt><trkpt lat="39.1472122469769" lon="16.13796717096781"><ele>522.0</ele><time>2026-05-03T09:09:17Z</time></trkpt><trkpt lat="39.14725022122745" lon="16.137892763535806"><ele>522.0</ele><time>2026-05-03T09:09:18Z</time></trkpt><trkpt lat="39.14734530837487" lon="16.137822046815607"><ele>522.0</ele><time>2026-05-03T09:09:20Z</time></trkpt><trkpt lat="39.14743027913937" lon="16.137798692895355"><ele>522.0</ele><time>2026-05-03T09:09:21Z</time></trkpt><trkpt lat="39.14753343868327" lon="16.13775948939111"><ele>527.6</ele><time>2026-05-03T09:09:22Z</time></trkpt><trkpt lat="39.14763765239767" lon="16.137716913152524"><ele>533.2</ele><time>2026-05-03T09:09:23Z</time></trkpt><trkpt lat="39.14773080411593" lon="16.137685726106866"><ele>538.8</ele><time>2026-05-03T09:09:24Z</time></trkpt><trkpt lat="39.1478077746321" lon="16.137670814500826"><ele>544.4</ele><time>2026-05-03T09:09:25Z</time></trkpt><trkpt lat="39.147871602654696" lon="16.13774455414485"><ele>550.0</ele><time>2026-05-03T09:09:27Z</time></trkpt><trkpt lat="39.14778266317636" lon="16.137849626864764"><ele>550.0</ele><time>2026-05-03T09:09:29Z</time></trkpt><trkpt lat="39.1476864232812" lon="16.137873088400344"><ele>550.0</ele><time>2026-05-03T09:09:30Z</time></trkpt><trkpt lat="39.147580849352295" lon="16.13790480249048"><ele>550.0</ele><time>2026-05-03T09:09:31Z</time></trkpt><trkpt lat="39.14751519982004" lon="16.13793249471177"><ele>550.0</ele><time>2026-05-03T09:09:32Z</time></trkpt><trkpt lat="39.14742848490399" lon="16.13804005240091"><ele>550.0</ele><time>2026-05-03T09:09:34Z</time></trkpt><trkpt lat="39.1473973214617" lon="16.13811099375444"><ele>550.0</ele><time>2026-05-03T09:09:35Z</time></trkpt><trkpt lat="39.1473516303183" lon="16.138194672655935"><ele>550.0</ele><time>2026-05-03T09:09:36Z</time></trkpt><trkpt lat="39.14729669536738" lon="16.13828186801867"><ele>550.0</ele><time>2026-05-03T09:09:37Z</time></trkpt><trkpt lat="39.147247228112796" lon="16.13837874252927"><ele>550.0</ele><time>2026-05-03T09:09:38Z</time></trkpt><trkpt lat="39.1472191506306" lon="16.13846500579035"><ele>550.0</ele><time>2026-05-03T09:09:39Z</time></trkpt><trkpt lat="39.147205710726645" lon="16.138561907836895"><ele>550.0</ele><time>2026-05-03T09:09:40Z</time></trkpt><trkpt lat="39.14722417839689" lon="16.13871643353416"><ele>550.0</ele><time>2026-05-03T09:09:42Z</time></trkpt><trkpt lat="39.14724144519476" lon="16.138811185044023"><ele>550.0</ele><time>2026-05-03T09:09:43Z</time></trkpt><trkpt lat="39.14721861428943" lon="16.138944667495746"><ele>550.0</ele><time>2026-05-03T09:09:45Z</time></trkpt><trkpt lat="39.14717759906629" lon="16.139011474872085"><ele>550.0</ele><time>2026-05-03T09:09:46Z</time></trkpt><trkpt lat="39.147055330749346" lon="16.13903713219686"><ele>550.0</ele><time>2026-05-03T09:09:48Z</time></trkpt><trkpt lat="39.14697596875948" lon="16.13903779851966"><ele>554.1428571428571</ele><time>2026-05-03T09:09:49Z</time></trkpt><trkpt lat="39.14690735174301" lon="16.139059667709038"><ele>558.2857142857142</ele><time>2026-05-03T09:09:49.999Z</time></trkpt><trkpt lat="39.1468296309948" lon="16.13908662998039"><ele>562.4285714285713</ele><time>2026-05-03T09:09:50.999Z</time></trkpt><trkpt lat="39.14675530253679" lon="16.13909567809371"><ele>566.5714285714286</ele><time>2026-05-03T09:09:51.999Z</time></trkpt><trkpt lat="39.146684793342395" lon="16.13908650313394"><ele>570.7142857142857</ele><time>2026-05-03T09:09:52.999Z</time></trkpt><trkpt lat="39.14663378121924" lon="16.139136136119404"><ele>574.8571428571428</ele><time>2026-05-03T09:09:55.999Z</time></trkpt><trkpt lat="39.146693397408036" lon="16.139211078360937"><ele>579.0</ele><time>2026-05-03T09:09:57.999Z</time></trkpt><trkpt lat="39.146769681641594" lon="16.139212596941018"><ele>578.9999999999999</ele><time>2026-05-03T09:09:58.999Z</time></trkpt><trkpt lat="39.14684464047238" lon="16.139210103004523"><ele>579.0</ele><time>2026-05-03T09:09:59.999Z</time></trkpt><trkpt lat="39.14691707220924" lon="16.13920466007351"><ele>579.0</ele><time>2026-05-03T09:10:00.999Z</time></trkpt><trkpt lat="39.14698637829709" lon="16.139208216190738"><ele>579.0</ele><time>2026-05-03T09:10:01.999Z</time></trkpt><trkpt lat="39.14705586132862" lon="16.139223014114464"><ele>579.0</ele><time>2026-05-03T09:10:02.999Z</time></trkpt><trkpt lat="39.14711633139933" lon="16.139248835973177"><ele>578.9999999999999</ele><time>2026-05-03T09:10:03.999Z</time></trkpt><trkpt lat="39.14717386603014" lon="16.139282669035122"><ele>579.0</ele><time>2026-05-03T09:10:04.999Z</time></trkpt><trkpt lat="39.147280502411" lon="16.139293236663395"><ele>578.9999999999999</ele><time>2026-05-03T09:10:06.999Z</time></trkpt><trkpt lat="39.14735301684996" lon="16.13921393841489"><ele>579.0</ele><time>2026-05-03T09:10:08.999Z</time></trkpt><trkpt lat="39.14738436703044" lon="16.13914190069449"><ele>579.0</ele><time>2026-05-03T09:10:09.999Z</time></trkpt><trkpt lat="39.14742327656887" lon="16.1390590690136"><ele>579.0</ele><time>2026-05-03T09:10:10.999Z</time></trkpt><trkpt lat="39.147459250935476" lon="16.13897039410479"><ele>579.0</ele><time>2026-05-03T09:10:11.999Z</time></trkpt><trkpt lat="39.14748301558595" lon="16.13888542932025"><ele>578.9999999999999</ele><time>2026-05-03T09:10:12.999Z</time></trkpt><trkpt lat="39.147498435013944" lon="16.138804124445347"><ele>579.0</ele><time>2026-05-03T09:10:13.999Z</time></trkpt><trkpt lat="39.147558247766945" lon="16.13883532707988"><ele>578.6</ele><time>2026-05-03T09:10:16.999Z</time></trkpt><trkpt lat="39.147524603646744" lon="16.1389799752037"><ele>578.2</ele><time>2026-05-03T09:10:18.999Z</time></trkpt><trkpt lat="39.14750786888855" lon="16.13909587537628"><ele>577.8000000000001</ele><time>2026-05-03T09:10:20.999Z</time></trkpt><trkpt lat="39.14748857713253" lon="16.139211782051962"><ele>577.4</ele><time>2026-05-03T09:10:22.999Z</time></trkpt><trkpt lat="39.14747561474959" lon="16.139312149418092"><ele>577.0</ele><time>2026-05-03T09:10:24.999Z</time></trkpt><trkpt lat="39.147449322266866" lon="16.139440328545344"><ele>580.1666666666667</ele><time>2026-05-03T09:10:26.999Z</time></trkpt><trkpt lat="39.1474365324649" lon="16.139561728006058"><ele>583.3333333333334</ele><time>2026-05-03T09:10:28.999Z</time></trkpt><trkpt lat="39.14746956649198" lon="16.139661200556954"><ele>586.5</ele><time>2026-05-03T09:10:30.999Z</time></trkpt><trkpt lat="39.14747509668248" lon="16.139748918586115"><ele>589.6666666666666</ele><time>2026-05-03T09:10:31.999Z</time></trkpt><trkpt lat="39.14747646357314" lon="16.1398535836078"><ele>592.8333333333333</ele><time>2026-05-03T09:10:32.999Z</time></trkpt><trkpt lat="39.14748224088296" lon="16.139945765751754"><ele>596.0</ele><time>2026-05-03T09:10:33.999Z</time></trkpt><trkpt lat="39.14748769276268" lon="16.140037474505238"><ele>597.1666666666666</ele><time>2026-05-03T09:10:47.999Z</time></trkpt><trkpt lat="39.14749880479442" lon="16.14011748621067"><ele>598.3333333333333</ele><time>2026-05-03T09:10:48.999Z</time></trkpt><trkpt lat="39.14752190168398" lon="16.14021338856745"><ele>599.5</ele><time>2026-05-03T09:10:49.999Z</time></trkpt><trkpt lat="39.14754373902375" lon="16.140306942909085"><ele>600.6666666666666</ele><time>2026-05-03T09:10:50.999Z</time></trkpt><trkpt lat="39.14755922469672" lon="16.140412452459014"><ele>601.8333333333334</ele><time>2026-05-03T09:10:51.999Z</time></trkpt><trkpt lat="39.147563991113635" lon="16.140503619379505"><ele>603.0</ele><time>2026-05-03T09:10:52.999Z</time></trkpt><trkpt lat="39.147567921542915" lon="16.14060871446776"><ele>603.1999999999999</ele><time>2026-05-03T09:10:53.999Z</time></trkpt><trkpt lat="39.14754997616987" lon="16.14072569167885"><ele>603.4</ele><time>2026-05-03T09:10:55.999Z</time></trkpt><trkpt lat="39.14752622174858" lon="16.140854931618783"><ele>603.5999999999999</ele><time>2026-05-03T09:10:57.999Z</time></trkpt><trkpt lat="39.14751543789161" lon="16.1409855987406"><ele>603.8</ele><time>2026-05-03T09:10:59.999Z</time></trkpt><trkpt lat="39.147492184852304" lon="16.141088516659362"><ele>604.0</ele><time>2026-05-03T09:11:01.999Z</time></trkpt><trkpt lat="39.1475080027613" lon="16.141191421110488"><ele>604.0</ele><time>2026-05-03T09:11:03.999Z</time></trkpt><trkpt lat="39.147581132015034" lon="16.141295631781805"><ele>604.0</ele><time>2026-05-03T09:11:05.999Z</time></trkpt><trkpt lat="39.147667818150445" lon="16.141403977397616"><ele>604.0</ele><time>2026-05-03T09:11:07.999Z</time></trkpt><trkpt lat="39.147746804839024" lon="16.141501342546448"><ele>604.0</ele><time>2026-05-03T09:11:09.999Z</time></trkpt><trkpt lat="39.147784883544126" lon="16.141638358569015"><ele>602.6666666666667</ele><time>2026-05-03T09:11:11.999Z</time></trkpt><trkpt lat="39.14777976866155" lon="16.141726805041387"><ele>601.3333333333334</ele><time>2026-05-03T09:11:13.999Z</time></trkpt><trkpt lat="39.14778117549442" lon="16.141861385586118"><ele>600.0</ele><time>2026-05-03T09:11:15.999Z</time></trkpt><trkpt lat="39.147785148654535" lon="16.141968490640146"><ele>598.6666666666666</ele><time>2026-05-03T09:11:16.999Z</time></trkpt><trkpt lat="39.14779778676928" lon="16.142053865488748"><ele>597.3333333333333</ele><time>2026-05-03T09:11:17.999Z</time></trkpt><trkpt lat="39.147851155146554" lon="16.14216983995603"><ele>596.0</ele><time>2026-05-03T09:11:19.999Z</time></trkpt><trkpt lat="39.14790860715542" lon="16.14223145084195"><ele>596.0</ele><time>2026-05-03T09:11:22Z</time></trkpt><trkpt lat="39.147983792236396" lon="16.14228560510704"><ele>596.0</ele><time>2026-05-03T09:11:24Z</time></trkpt><trkpt lat="39.14807577269662" lon="16.142363136411316"><ele>596.0</ele><time>2026-05-03T09:11:26Z</time></trkpt><trkpt lat="39.148171388020934" lon="16.14243978266921"><ele>596.0</ele><time>2026-05-03T09:11:28Z</time></trkpt><trkpt lat="39.14823119715319" lon="16.14249647929882"><ele>596.0</ele><time>2026-05-03T09:11:30Z</time></trkpt><trkpt lat="39.14832484027587" lon="16.142583063302734"><ele>597.0</ele><time>2026-05-03T09:11:32Z</time></trkpt><trkpt lat="39.14838741012424" lon="16.14263697912272"><ele>598.0</ele><time>2026-05-03T09:11:33Z</time></trkpt><trkpt lat="39.148454895346056" lon="16.142682393444503"><ele>599.0</ele><time>2026-05-03T09:11:34Z</time></trkpt><trkpt lat="39.14852440285315" lon="16.14272587898808"><ele>600.0</ele><time>2026-05-03T09:11:35Z</time></trkpt><trkpt lat="39.14859268208841" lon="16.142778451340583"><ele>601.0</ele><time>2026-05-03T09:11:36Z</time></trkpt><trkpt lat="39.148655834671736" lon="16.142827814883567"><ele>602.0</ele><time>2026-05-03T09:11:37Z</time></trkpt><trkpt lat="39.148725373769864" lon="16.142889023062207"><ele>602.0</ele><time>2026-05-03T09:11:38Z</time></trkpt><trkpt lat="39.148788710207754" lon="16.142948105336373"><ele>602.0</ele><time>2026-05-03T09:11:39Z</time></trkpt><trkpt lat="39.148845504097345" lon="16.14300430758709"><ele>602.0</ele><time>2026-05-03T09:11:40Z</time></trkpt><trkpt lat="39.148927178991094" lon="16.143095638268072"><ele>602.0</ele><time>2026-05-03T09:11:42Z</time></trkpt><trkpt lat="39.14899291066548" lon="16.143120286874577"><ele>602.0</ele><time>2026-05-03T09:11:43Z</time></trkpt><trkpt lat="39.149063114724214" lon="16.14315238448295"><ele>602.0</ele><time>2026-05-03T09:11:44Z</time></trkpt><trkpt lat="39.14912658086874" lon="16.14320226233559"><ele>601.8000000000001</ele><time>2026-05-03T09:11:44.999Z</time></trkpt><trkpt lat="39.14918026101938" lon="16.143261197895235"><ele>601.6</ele><time>2026-05-03T09:11:45.999Z</time></trkpt><trkpt lat="39.14923428158823" lon="16.143320844861353"><ele>601.4000000000001</ele><time>2026-05-03T09:11:46.999Z</time></trkpt><trkpt lat="39.149309937517486" lon="16.143410242421215"><ele>601.2</ele><time>2026-05-03T09:11:48.999Z</time></trkpt><trkpt lat="39.149375523580005" lon="16.143524562359335"><ele>601.0</ele><time>2026-05-03T09:11:50.999Z</time></trkpt><trkpt lat="39.14946452115516" lon="16.14360952973725"><ele>601.0</ele><time>2026-05-03T09:11:52.999Z</time></trkpt><trkpt lat="39.149545350952344" lon="16.143695784224537"><ele>601.0</ele><time>2026-05-03T09:11:54.999Z</time></trkpt><trkpt lat="39.149632811698396" lon="16.14375985595451"><ele>601.0</ele><time>2026-05-03T09:11:56.999Z</time></trkpt><trkpt lat="39.149717137002206" lon="16.143860881342746"><ele>601.0</ele><time>2026-05-03T09:11:58.999Z</time></trkpt><trkpt lat="39.14982124603763" lon="16.14395083370368"><ele>601.0</ele><time>2026-05-03T09:12:00.999Z</time></trkpt><trkpt lat="39.149860525491746" lon="16.144032286737406"><ele>598.0</ele><time>2026-05-03T09:12:01.999Z</time></trkpt><trkpt lat="39.14995516077101" lon="16.144109033401993"><ele>595.0</ele><time>2026-05-03T09:12:03.999Z</time></trkpt><trkpt lat="39.15004199192661" lon="16.144201774358432"><ele>592.0</ele><time>2026-05-03T09:12:05.999Z</time></trkpt><trkpt lat="39.15012863948021" lon="16.144296689814393"><ele>589.0</ele><time>2026-05-03T09:12:07.999Z</time></trkpt><trkpt lat="39.15021871931618" lon="16.14439790869407"><ele>589.0</ele><time>2026-05-03T09:12:09.999Z</time></trkpt><trkpt lat="39.150293006977336" lon="16.144503583555917"><ele>589.0</ele><time>2026-05-03T09:12:11.999Z</time></trkpt><trkpt lat="39.150375855159595" lon="16.144579305446552"><ele>589.0</ele><time>2026-05-03T09:12:13.999Z</time></trkpt><trkpt lat="39.15045863047764" lon="16.14467940045837"><ele>589.0</ele><time>2026-05-03T09:12:15.999Z</time></trkpt><trkpt lat="39.15054698849959" lon="16.144786636992055"><ele>589.0</ele><time>2026-05-03T09:12:17.999Z</time></trkpt><trkpt lat="39.15059957342511" lon="16.144843925965038"><ele>588.6666666666667</ele><time>2026-05-03T09:12:18.999Z</time></trkpt><trkpt lat="39.150656353486546" lon="16.144902852546497"><ele>588.3333333333334</ele><time>2026-05-03T09:12:20.999Z</time></trkpt><trkpt lat="39.150726954372736" lon="16.144931763807666"><ele>588.0</ele><time>2026-05-03T09:12:22.999Z</time></trkpt><trkpt lat="39.150819907636844" lon="16.14491075694096"><ele>587.6666666666666</ele><time>2026-05-03T09:12:24.999Z</time></trkpt><trkpt lat="39.150943548734766" lon="16.144874451801"><ele>587.3333333333333</ele><time>2026-05-03T09:12:26.999Z</time></trkpt><trkpt lat="39.151006913427935" lon="16.144859623502946"><ele>587.0</ele><time>2026-05-03T09:12:27.999Z</time></trkpt><trkpt lat="39.15111498905356" lon="16.144779646802604"><ele>582.3333333333333</ele><time>2026-05-03T09:12:29.999Z</time></trkpt><trkpt lat="39.1512028977179" lon="16.14472245060652"><ele>577.6666666666666</ele><time>2026-05-03T09:12:31.999Z</time></trkpt><trkpt lat="39.15128628729791" lon="16.1446897031215"><ele>573.0</ele><time>2026-05-03T09:12:33.999Z</time></trkpt><trkpt lat="39.15135028981884" lon="16.144745649807323"><ele>568.3333333333334</ele><time>2026-05-03T09:12:35.999Z</time></trkpt><trkpt lat="39.15140878080112" lon="16.14477749755895"><ele>563.6666666666667</ele><time>2026-05-03T09:12:38.999Z</time></trkpt><trkpt lat="39.15138644911467" lon="16.14487834805839"><ele>559.0</ele><time>2026-05-03T09:12:39.999Z</time></trkpt><trkpt lat="39.151271375522256" lon="16.144917042374097"><ele>559.0</ele><time>2026-05-03T09:12:41.999Z</time></trkpt><trkpt lat="39.1511956076567" lon="16.144984117962743"><ele>559.0</ele><time>2026-05-03T09:12:42.999Z</time></trkpt><trkpt lat="39.15111279375878" lon="16.14505911440383"><ele>559.0</ele><time>2026-05-03T09:12:43.999Z</time></trkpt><trkpt lat="39.15102752176531" lon="16.14513635492018"><ele>559.0</ele><time>2026-05-03T09:12:44.999Z</time></trkpt><trkpt lat="39.150945086977636" lon="16.145204774486835"><ele>559.0</ele><time>2026-05-03T09:12:45.999Z</time></trkpt><trkpt lat="39.15087069724589" lon="16.145268999673142"><ele>559.0</ele><time>2026-05-03T09:12:46.999Z</time></trkpt><trkpt lat="39.150796089053586" lon="16.14534057208031"><ele>559.0</ele><time>2026-05-03T09:12:47.999Z</time></trkpt><trkpt lat="39.150722480091545" lon="16.145417443336534"><ele>559.0</ele><time>2026-05-03T09:12:48.999Z</time></trkpt><trkpt lat="39.1506584537009" lon="16.14550014176962"><ele>559.0</ele><time>2026-05-03T09:12:49.999Z</time></trkpt><trkpt lat="39.15059615674558" lon="16.14559453850468"><ele>559.0</ele><time>2026-05-03T09:12:50.999Z</time></trkpt><trkpt lat="39.150547421557356" lon="16.145694353101305"><ele>557.8333333333334</ele><time>2026-05-03T09:12:51.999Z</time></trkpt><trkpt lat="39.15051543148856" lon="16.145796117499735"><ele>556.6666666666667</ele><time>2026-05-03T09:12:52.999Z</time></trkpt><trkpt lat="39.150483591951144" lon="16.145903562610272"><ele>555.5</ele><time>2026-05-03T09:12:53.999Z</time></trkpt><trkpt lat="39.1504550093294" lon="16.146002716664515"><ele>554.3333333333334</ele><time>2026-05-03T09:12:54.999Z</time></trkpt><trkpt lat="39.15041974474977" lon="16.146090417493227"><ele>553.1666666666666</ele><time>2026-05-03T09:12:55.999Z</time></trkpt><trkpt lat="39.15037211810177" lon="16.14617783668818"><ele>552.0</ele><time>2026-05-03T09:12:56.999Z</time></trkpt><trkpt lat="39.15030791794763" lon="16.146265062463012"><ele>552.0</ele><time>2026-05-03T09:12:57.999Z</time></trkpt><trkpt lat="39.15026207458755" lon="16.146366813369564"><ele>552.0</ele><time>2026-05-03T09:12:58.999Z</time></trkpt><trkpt lat="39.15020185978452" lon="16.146449359490816"><ele>552.0</ele><time>2026-05-03T09:12:59.999Z</time></trkpt><trkpt lat="39.150145531770036" lon="16.14652717799406"><ele>552.0</ele><time>2026-05-03T09:13:00.999Z</time></trkpt><trkpt lat="39.15009695685413" lon="16.146618659889292"><ele>552.0</ele><time>2026-05-03T09:13:01.999Z</time></trkpt><trkpt lat="39.150051474962375" lon="16.14671251683391"><ele>552.0</ele><time>2026-05-03T09:13:02.999Z</time></trkpt><trkpt lat="39.15001218995216" lon="16.14683135783024"><ele>550.1666666666666</ele><time>2026-05-03T09:13:03.999Z</time></trkpt><trkpt lat="39.14999523945388" lon="16.146951232572757"><ele>548.3333333333334</ele><time>2026-05-03T09:13:04.999Z</time></trkpt><trkpt lat="39.14997837667136" lon="16.14704331933051"><ele>546.5</ele><time>2026-05-03T09:13:05.999Z</time></trkpt><trkpt lat="39.14995990406758" lon="16.147130709379383"><ele>544.6666666666667</ele><time>2026-05-03T09:13:07.999Z</time></trkpt><trkpt lat="39.149915349033186" lon="16.147230569441916"><ele>542.8333333333334</ele><time>2026-05-03T09:13:11.999Z</time></trkpt><trkpt lat="39.14982949320199" lon="16.1472940277026"><ele>541.0</ele><time>2026-05-03T09:13:14.999Z</time></trkpt><trkpt lat="39.14974076426502" lon="16.147263906242255"><ele>540.0</ele><time>2026-05-03T09:13:15.999Z</time></trkpt><trkpt lat="39.14965286869781" lon="16.14722634229722"><ele>539.0</ele><time>2026-05-03T09:13:16.999Z</time></trkpt><trkpt lat="39.14957519072684" lon="16.14716278230396"><ele>538.0</ele><time>2026-05-03T09:13:17.999Z</time></trkpt><trkpt lat="39.14949178877186" lon="16.147119617539246"><ele>537.0</ele><time>2026-05-03T09:13:18.999Z</time></trkpt><trkpt lat="39.14940216449185" lon="16.14707531020859"><ele>536.0</ele><time>2026-05-03T09:13:19.999Z</time></trkpt><trkpt lat="39.14931032244336" lon="16.14704191306769"><ele>536.0</ele><time>2026-05-03T09:13:20.999Z</time></trkpt><trkpt lat="39.14921266886338" lon="16.147029102027115"><ele>536.0</ele><time>2026-05-03T09:13:21.999Z</time></trkpt><trkpt lat="39.14911356223581" lon="16.14699693368467"><ele>536.0</ele><time>2026-05-03T09:13:22.999Z</time></trkpt><trkpt lat="39.14902167614945" lon="16.146938470342732"><ele>536.0</ele><time>2026-05-03T09:13:23.999Z</time></trkpt><trkpt lat="39.148920510404295" lon="16.146899016940992"><ele>536.0</ele><time>2026-05-03T09:13:24.999Z</time></trkpt><trkpt lat="39.148819828220965" lon="16.146860954267527"><ele>532.6</ele><time>2026-05-03T09:13:25.999Z</time></trkpt><trkpt lat="39.14872726120995" lon="16.1468197699977"><ele>529.2</ele><time>2026-05-03T09:13:26.999Z</time></trkpt><trkpt lat="39.148651873233696" lon="16.146777400037124"><ele>525.8</ele><time>2026-05-03T09:13:27.999Z</time></trkpt><trkpt lat="39.14859480234671" lon="16.146724907586087"><ele>522.4</ele><time>2026-05-03T09:13:28.999Z</time></trkpt><trkpt lat="39.14848931351442" lon="16.146724754001944"><ele>519.0</ele><time>2026-05-03T09:13:30.999Z</time></trkpt><trkpt lat="39.148463306494136" lon="16.146923582073406"><ele>519.0</ele><time>2026-05-03T09:13:32.999Z</time></trkpt><trkpt lat="39.14841729630644" lon="16.147013252715006"><ele>519.0</ele><time>2026-05-03T09:13:33.999Z</time></trkpt><trkpt lat="39.14838022869013" lon="16.147104528234237"><ele>519.0</ele><time>2026-05-03T09:13:34.999Z</time></trkpt><trkpt lat="39.14837173742965" lon="16.147238579042504"><ele>519.0</ele><time>2026-05-03T09:13:36.999Z</time></trkpt><trkpt lat="39.14847906882402" lon="16.147269507879933"><ele>519.0</ele><time>2026-05-03T09:13:37.999Z</time></trkpt><trkpt lat="39.14854759283357" lon="16.14728502514039"><ele>519.0</ele><time>2026-05-03T09:13:38.999Z</time></trkpt><trkpt lat="39.14856881343357" lon="16.147380946116616"><ele>519.0</ele><time>2026-05-03T09:13:41Z</time></trkpt><trkpt lat="39.14845275257827" lon="16.147386401347198"><ele>519.0</ele><time>2026-05-03T09:13:42.999Z</time></trkpt><trkpt lat="39.148379236469516" lon="16.147344367215965"><ele>519.0</ele><time>2026-05-03T09:13:43.999Z</time></trkpt><trkpt lat="39.1482652429101" lon="16.14734070492414"><ele>519.0</ele><time>2026-05-03T09:13:44.999Z</time></trkpt><trkpt lat="39.14814325657971" lon="16.14728305836543"><ele>519.0</ele><time>2026-05-03T09:13:45.999Z</time></trkpt><trkpt lat="39.14803506781444" lon="16.14722185793701"><ele>517.2</ele><time>2026-05-03T09:13:46.999Z</time></trkpt><trkpt lat="39.14792796775837" lon="16.147159047296068"><ele>515.4</ele><time>2026-05-03T09:13:47.999Z</time></trkpt><trkpt lat="39.14782422898764" lon="16.14711624993101"><ele>513.6</ele><time>2026-05-03T09:13:48.999Z</time></trkpt><trkpt lat="39.14773741075172" lon="16.147092282032407"><ele>511.8</ele><time>2026-05-03T09:13:49.999Z</time></trkpt><trkpt lat="39.14766102143295" lon="16.147113758018186"><ele>510.0</ele><time>2026-05-03T09:13:50.999Z</time></trkpt><trkpt lat="39.147582696487426" lon="16.147151959285146"><ele>510.0</ele><time>2026-05-03T09:13:51.999Z</time></trkpt><trkpt lat="39.14748904766924" lon="16.147170179926647"><ele>510.0</ele><time>2026-05-03T09:13:52.999Z</time></trkpt><trkpt lat="39.14739640646128" lon="16.147149967054492"><ele>510.0</ele><time>2026-05-03T09:13:53.999Z</time></trkpt><trkpt lat="39.1473006610354" lon="16.147136071465614"><ele>510.0</ele><time>2026-05-03T09:13:54.999Z</time></trkpt><trkpt lat="39.14721398454638" lon="16.147120762149807"><ele>510.0</ele><time>2026-05-03T09:13:55.999Z</time></trkpt><trkpt lat="39.14713211889665" lon="16.147120600584604"><ele>507.5</ele><time>2026-05-03T09:13:56.999Z</time></trkpt><trkpt lat="39.14706765429695" lon="16.147161243157107"><ele>505.0</ele><time>2026-05-03T09:13:57.999Z</time></trkpt><trkpt lat="39.147015446848215" lon="16.1472171408762"><ele>502.5</ele><time>2026-05-03T09:13:58.999Z</time></trkpt><trkpt lat="39.146995202039484" lon="16.14733916829686"><ele>500.0</ele><time>2026-05-03T09:13:59.999Z</time></trkpt><trkpt lat="39.14699653664586" lon="16.147458627892412"><ele>497.5</ele><time>2026-05-03T09:14:00.999Z</time></trkpt><trkpt lat="39.14700822966327" lon="16.147576354650802"><ele>495.0</ele><time>2026-05-03T09:14:01.999Z</time></trkpt><trkpt lat="39.147020485632446" lon="16.147692015161873"><ele>490.8333333333333</ele><time>2026-05-03T09:14:02.999Z</time></trkpt><trkpt lat="39.147072341238676" lon="16.14780119576818"><ele>486.66666666666663</ele><time>2026-05-03T09:14:03.999Z</time></trkpt><trkpt lat="39.14709132884732" lon="16.147922425229172"><ele>482.5</ele><time>2026-05-03T09:14:04.999Z</time></trkpt><trkpt lat="39.14712051051742" lon="16.148035286266527"><ele>478.3333333333333</ele><time>2026-05-03T09:14:05.999Z</time></trkpt><trkpt lat="39.14714266815436" lon="16.148135684144833"><ele>474.16666666666663</ele><time>2026-05-03T09:14:06.999Z</time></trkpt><trkpt lat="39.14716104749063" lon="16.148233222924652"><ele>470.0</ele><time>2026-05-03T09:14:07.999Z</time></trkpt><trkpt lat="39.1471810215736" lon="16.14833855658032"><ele>467.99999999999994</ele><time>2026-05-03T09:14:08.999Z</time></trkpt><trkpt lat="39.147207510515656" lon="16.148437013867614"><ele>466.0</ele><time>2026-05-03T09:14:09.999Z</time></trkpt><trkpt lat="39.147238160486694" lon="16.148537796766657"><ele>464.0</ele><time>2026-05-03T09:14:10.999Z</time></trkpt><trkpt lat="39.14727063333858" lon="16.14864253198458"><ele>462.0</ele><time>2026-05-03T09:14:11.999Z</time></trkpt><trkpt lat="39.147299238393266" lon="16.148739779974225"><ele>459.99999999999994</ele><time>2026-05-03T09:14:12.999Z</time></trkpt><trkpt lat="39.147325368112625" lon="16.148833622339378"><ele>458.0</ele><time>2026-05-03T09:14:13.999Z</time></trkpt><trkpt lat="39.14733529696819" lon="16.148920302007927"><ele>457.99999999999994</ele><time>2026-05-03T09:14:14.999Z</time></trkpt><trkpt lat="39.14733253730272" lon="16.149003201511142"><ele>458.0</ele><time>2026-05-03T09:14:15.999Z</time></trkpt><trkpt lat="39.14727760721353" lon="16.14914289777468"><ele>458.0</ele><time>2026-05-03T09:14:17.999Z</time></trkpt><trkpt lat="39.14724943871009" lon="16.149231411356805"><ele>458.0</ele><time>2026-05-03T09:14:18.999Z</time></trkpt><trkpt lat="39.14721267706757" lon="16.149334253741035"><ele>457.99999999999994</ele><time>2026-05-03T09:14:19.999Z</time></trkpt><trkpt lat="39.14717232322306" lon="16.14944943205777"><ele>458.0</ele><time>2026-05-03T09:14:20.999Z</time></trkpt><trkpt lat="39.14713831001914" lon="16.149570203825316"><ele>456.2</ele><time>2026-05-03T09:14:21.999Z</time></trkpt><trkpt lat="39.14712384992157" lon="16.14970139579337"><ele>454.4</ele><time>2026-05-03T09:14:22.999Z</time></trkpt><trkpt lat="39.147123992576304" lon="16.1498127364242"><ele>452.59999999999997</ele><time>2026-05-03T09:14:23.999Z</time></trkpt><trkpt lat="39.14713558638318" lon="16.14992562343319"><ele>450.79999999999995</ele><time>2026-05-03T09:14:24.999Z</time></trkpt><trkpt lat="39.147167410946714" lon="16.15003384319144"><ele>449.0</ele><time>2026-05-03T09:14:25.999Z</time></trkpt><trkpt lat="39.14725360186543" lon="16.150138045630182"><ele>447.4</ele><time>2026-05-03T09:14:26.999Z</time></trkpt><trkpt lat="39.14731599089841" lon="16.15025304650451"><ele>445.79999999999995</ele><time>2026-05-03T09:14:27.999Z</time></trkpt><trkpt lat="39.14733888218009" lon="16.150342359383377"><ele>444.20000000000005</ele><time>2026-05-03T09:14:28.999Z</time></trkpt><trkpt lat="39.147339674654525" lon="16.15043289283681"><ele>442.6</ele><time>2026-05-03T09:14:30.999Z</time></trkpt><trkpt lat="39.14721949156349" lon="16.150326137873463"><ele>441.0</ele><time>2026-05-03T09:14:33.999Z</time></trkpt><trkpt lat="39.14714015982383" lon="16.15023366522816"><ele>441.0</ele><time>2026-05-03T09:14:34.999Z</time></trkpt><trkpt lat="39.147050676429636" lon="16.15013973599254"><ele>441.0</ele><time>2026-05-03T09:14:35.999Z</time></trkpt><trkpt lat="39.146956027285576" lon="16.150061041643696"><ele>441.0</ele><time>2026-05-03T09:14:36.999Z</time></trkpt><trkpt lat="39.14685425724296" lon="16.1499819141279"><ele>441.0</ele><time>2026-05-03T09:14:37.999Z</time></trkpt><trkpt lat="39.14674191483962" lon="16.149909111922614"><ele>443.0</ele><time>2026-05-03T09:14:38.999Z</time></trkpt><trkpt lat="39.14661856890489" lon="16.1498679718153"><ele>445.0</ele><time>2026-05-03T09:14:39.999Z</time></trkpt><trkpt lat="39.146493255459326" lon="16.149828280033585"><ele>447.0</ele><time>2026-05-03T09:14:40.999Z</time></trkpt><trkpt lat="39.14637139707633" lon="16.14978567561556"><ele>449.0</ele><time>2026-05-03T09:14:41.999Z</time></trkpt><trkpt lat="39.14625588287305" lon="16.14973321838968"><ele>443.5</ele><time>2026-05-03T09:14:42.999Z</time></trkpt><trkpt lat="39.14613023888024" lon="16.149671283287258"><ele>438.0</ele><time>2026-05-03T09:14:43.999Z</time></trkpt><trkpt lat="39.1460089676869" lon="16.149609683738692"><ele>432.5</ele><time>2026-05-03T09:14:44.999Z</time></trkpt><trkpt lat="39.145887365239886" lon="16.149554775915792"><ele>427.0</ele><time>2026-05-03T09:14:45.999Z</time></trkpt><trkpt lat="39.14577658431237" lon="16.14949972759221"><ele>424.40000000000003</ele><time>2026-05-03T09:14:46.999Z</time></trkpt><trkpt lat="39.14567567875994" lon="16.149435853629587"><ele>421.80000000000007</ele><time>2026-05-03T09:14:47.999Z</time></trkpt><trkpt lat="39.14558816541025" lon="16.149353827101248"><ele>419.2</ele><time>2026-05-03T09:14:48.999Z</time></trkpt><trkpt lat="39.14550827243013" lon="16.14926745278896"><ele>416.6</ele><time>2026-05-03T09:14:49.999Z</time></trkpt><trkpt lat="39.145433458568945" lon="16.149185505241565"><ele>414.0</ele><time>2026-05-03T09:14:50.999Z</time></trkpt><trkpt lat="39.14536389586885" lon="16.149117988321663"><ele>414.0</ele><time>2026-05-03T09:14:51.999Z</time></trkpt><trkpt lat="39.145285729988665" lon="16.149065098665176"><ele>414.0</ele><time>2026-05-03T09:14:52.999Z</time></trkpt><trkpt lat="39.1451894957322" lon="16.14903931228966"><ele>414.0</ele><time>2026-05-03T09:14:53.999Z</time></trkpt><trkpt lat="39.145109180981684" lon="16.149011551885547"><ele>414.0</ele><time>2026-05-03T09:14:54.999Z</time></trkpt><trkpt lat="39.14500874914525" lon="16.14895664872044"><ele>414.0</ele><time>2026-05-03T09:14:56.999Z</time></trkpt><trkpt lat="39.14491135227676" lon="16.148899148995216"><ele>412.4</ele><time>2026-05-03T09:14:58.999Z</time></trkpt><trkpt lat="39.14483573991226" lon="16.14885451008986"><ele>410.79999999999995</ele><time>2026-05-03T09:14:59.999Z</time></trkpt><trkpt lat="39.1446937231829" lon="16.148986113296065"><ele>409.20000000000005</ele><time>2026-05-03T09:15:00.999Z</time></trkpt><trkpt lat="39.14460792960947" lon="16.148964867156"><ele>407.6</ele><time>2026-05-03T09:15:01.999Z</time></trkpt><trkpt lat="39.144533791867495" lon="16.14896732627131"><ele>406.0</ele><time>2026-05-03T09:15:02.999Z</time></trkpt><trkpt lat="39.144457057466624" lon="16.148993036660023"><ele>406.0</ele><time>2026-05-03T09:15:03.999Z</time></trkpt><trkpt lat="39.144378062320854" lon="16.149021000839905"><ele>406.0</ele><time>2026-05-03T09:15:04.999Z</time></trkpt><trkpt lat="39.14429531846618" lon="16.149012521199776"><ele>406.0</ele><time>2026-05-03T09:15:05.999Z</time></trkpt><trkpt lat="39.14420762055508" lon="16.14896996517122"><ele>406.0</ele><time>2026-05-03T09:15:06.999Z</time></trkpt><trkpt lat="39.14411229083211" lon="16.148922505521764"><ele>406.0</ele><time>2026-05-03T09:15:07.999Z</time></trkpt><trkpt lat="39.14402801006471" lon="16.14886275310372"><ele>403.6</ele><time>2026-05-03T09:15:08.999Z</time></trkpt><trkpt lat="39.14395006776357" lon="16.148784328424725"><ele>401.20000000000005</ele><time>2026-05-03T09:15:09.999Z</time></trkpt><trkpt lat="39.143875819423215" lon="16.14870594853184"><ele>398.79999999999995</ele><time>2026-05-03T09:15:10.999Z</time></trkpt><trkpt lat="39.1437901211374" lon="16.148642754744852"><ele>396.4</ele><time>2026-05-03T09:15:11.999Z</time></trkpt><trkpt lat="39.14369782837864" lon="16.148602786339534"><ele>394.0</ele><time>2026-05-03T09:15:12.999Z</time></trkpt><trkpt lat="39.143613707936865" lon="16.14858333530836"><ele>394.00000000000006</ele><time>2026-05-03T09:15:13.999Z</time></trkpt><trkpt lat="39.14354668756559" lon="16.148567123079435"><ele>394.0</ele><time>2026-05-03T09:15:14.999Z</time></trkpt><trkpt lat="39.14343667691983" lon="16.148544245235385"><ele>394.0</ele><time>2026-05-03T09:15:16.999Z</time></trkpt><trkpt lat="39.143334368889924" lon="16.14858223146827"><ele>394.0</ele><time>2026-05-03T09:15:18.999Z</time></trkpt><trkpt lat="39.1432870434384" lon="16.148636246964625"><ele>394.00000000000006</ele><time>2026-05-03T09:15:19.999Z</time></trkpt><trkpt lat="39.14323249081635" lon="16.148704279231833"><ele>394.0</ele><time>2026-05-03T09:15:20.999Z</time></trkpt><trkpt lat="39.14317089964069" lon="16.148780761180586"><ele>391.50000000000006</ele><time>2026-05-03T09:15:21.999Z</time></trkpt><trkpt lat="39.1431067141211" lon="16.148879747227102"><ele>389.0</ele><time>2026-05-03T09:15:22.999Z</time></trkpt><trkpt lat="39.143055040865036" lon="16.148956949549763"><ele>386.5</ele><time>2026-05-03T09:15:23.999Z</time></trkpt><trkpt lat="39.14301362633852" lon="16.14902533663225"><ele>384.0</ele><time>2026-05-03T09:15:24.999Z</time></trkpt><trkpt lat="39.14295611492702" lon="16.149123811412817"><ele>381.5</ele><time>2026-05-03T09:15:26.999Z</time></trkpt><trkpt lat="39.14290955185979" lon="16.14921305747854"><ele>379.0</ele><time>2026-05-03T09:15:28.999Z</time></trkpt><trkpt lat="39.142853383037085" lon="16.149308285300915"><ele>379.0</ele><time>2026-05-03T09:15:30.999Z</time></trkpt><trkpt lat="39.14280053971403" lon="16.14940726413598"><ele>379.0</ele><time>2026-05-03T09:15:32.999Z</time></trkpt><trkpt lat="39.14274826828601" lon="16.14949215210611"><ele>379.0</ele><time>2026-05-03T09:15:34.999Z</time></trkpt><trkpt lat="39.14268396420827" lon="16.149584104108932"><ele>379.0</ele><time>2026-05-03T09:15:36.999Z</time></trkpt><trkpt lat="39.14262779679791" lon="16.14967453328702"><ele>379.0</ele><time>2026-05-03T09:15:38.999Z</time></trkpt><trkpt lat="39.14256811077993" lon="16.149756184456958"><ele>379.0</ele><time>2026-05-03T09:15:40.999Z</time></trkpt><trkpt lat="39.14252176697644" lon="16.149844048972657"><ele>379.0</ele><time>2026-05-03T09:15:42.999Z</time></trkpt><trkpt lat="39.14247836604369" lon="16.1499346721105"><ele>379.0</ele><time>2026-05-03T09:15:44.999Z</time></trkpt><trkpt lat="39.14242139789834" lon="16.150032689014655"><ele>379.0</ele><time>2026-05-03T09:15:46.999Z</time></trkpt><trkpt lat="39.142338954861394" lon="16.15010235833782"><ele>379.0</ele><time>2026-05-03T09:15:48.999Z</time></trkpt><trkpt lat="39.142249581589994" lon="16.15009321677566"><ele>379.0</ele><time>2026-05-03T09:15:50.999Z</time></trkpt><trkpt lat="39.14217295785829" lon="16.15000392101495"><ele>376.3333333333333</ele><time>2026-05-03T09:15:52.999Z</time></trkpt><trkpt lat="39.14212695379268" lon="16.149907037696163"><ele>373.66666666666663</ele><time>2026-05-03T09:15:54.999Z</time></trkpt><trkpt lat="39.142032942415746" lon="16.14978939982639"><ele>371.0</ele><time>2026-05-03T09:15:56.999Z</time></trkpt><trkpt lat="39.141975285132105" lon="16.1497126088226"><ele>368.3333333333333</ele><time>2026-05-03T09:15:57.999Z</time></trkpt><trkpt lat="39.14192135193128" lon="16.149654343312225"><ele>365.6666666666667</ele><time>2026-05-03T09:15:58.999Z</time></trkpt><trkpt lat="39.141874169395464" lon="16.149592155092787"><ele>363.0</ele><time>2026-05-03T09:15:59.999Z</time></trkpt><trkpt lat="39.141831844881345" lon="16.149528119488487"><ele>363.0</ele><time>2026-05-03T09:16:00.999Z</time></trkpt><trkpt lat="39.141751072359504" lon="16.149443688288077"><ele>363.0</ele><time>2026-05-03T09:16:02.999Z</time></trkpt><trkpt lat="39.14166807257308" lon="16.1494199800938"><ele>363.0</ele><time>2026-05-03T09:16:04.999Z</time></trkpt><trkpt lat="39.14160965687076" lon="16.149455690128146"><ele>363.0</ele><time>2026-05-03T09:16:06.999Z</time></trkpt><trkpt lat="39.14155841396153" lon="16.14952943860612"><ele>363.0</ele><time>2026-05-03T09:16:08.999Z</time></trkpt><trkpt lat="39.141500355549546" lon="16.14957791348258"><ele>363.0</ele><time>2026-05-03T09:16:10.999Z</time></trkpt><trkpt lat="39.14142265248228" lon="16.149633799378794"><ele>360.0</ele><time>2026-05-03T09:16:13.999Z</time></trkpt><trkpt lat="39.141352323413074" lon="16.14969725374418"><ele>357.0</ele><time>2026-05-03T09:16:17.999Z</time></trkpt><trkpt lat="39.14128357455514" lon="16.14975288961133"><ele>354.0</ele><time>2026-05-03T09:16:20.999Z</time></trkpt><trkpt lat="39.141227368080266" lon="16.149804554858115"><ele>351.0</ele><time>2026-05-03T09:16:23.999Z</time></trkpt><trkpt lat="39.141167733005155" lon="16.14985237780358"><ele>348.0</ele><time>2026-05-03T09:16:27.999Z</time></trkpt><trkpt lat="39.141103158567134" lon="16.14989373170922"><ele>345.0</ele><time>2026-05-03T09:16:32.999Z</time></trkpt><trkpt lat="39.141025800074495" lon="16.149939456372103"><ele>343.14285714285717</ele><time>2026-05-03T09:16:39.999Z</time></trkpt><trkpt lat="39.140955554664245" lon="16.149953673779304"><ele>341.2857142857143</ele><time>2026-05-03T09:16:46.999Z</time></trkpt><trkpt lat="39.14087836813255" lon="16.149949487278917"><ele>339.42857142857144</ele><time>2026-05-03T09:16:51.999Z</time></trkpt><trkpt lat="39.14080768921912" lon="16.14992902609236"><ele>337.57142857142856</ele><time>2026-05-03T09:16:55.999Z</time></trkpt><trkpt lat="39.14073614634053" lon="16.14990481496881"><ele>335.7142857142857</ele><time>2026-05-03T09:17:05.999Z</time></trkpt><trkpt lat="39.140673184535316" lon="16.149889975344383"><ele>333.85714285714283</ele><time>2026-05-03T09:17:09.999Z</time></trkpt><trkpt lat="39.14060511240996" lon="16.14988148700721"><ele>332.0</ele><time>2026-05-03T09:17:12.999Z</time></trkpt><trkpt lat="39.14051668237088" lon="16.14988250195723"><ele>329.33333333333337</ele><time>2026-05-03T09:17:15.999Z</time></trkpt><trkpt lat="39.1404486397451" lon="16.149901501188634"><ele>326.6666666666667</ele><time>2026-05-03T09:17:17.999Z</time></trkpt><trkpt lat="39.14036554101906" lon="16.14990662900293"><ele>324.0</ele><time>2026-05-03T09:17:19.999Z</time></trkpt><trkpt lat="39.14027903546677" lon="16.14990418191414"><ele>321.3333333333333</ele><time>2026-05-03T09:17:21.999Z</time></trkpt><trkpt lat="39.14021515415075" lon="16.149905186229788"><ele>318.66666666666663</ele><time>2026-05-03T09:17:22.999Z</time></trkpt><trkpt lat="39.14010777661521" lon="16.149912517597215"><ele>316.0</ele><time>2026-05-03T09:17:24.999Z</time></trkpt><trkpt lat="39.14001261861122" lon="16.14994872520627"><ele>316.0</ele><time>2026-05-03T09:17:26.999Z</time></trkpt><trkpt lat="39.13995597031154" lon="16.149987780681705"><ele>316.0</ele><time>2026-05-03T09:17:27.999Z</time></trkpt><trkpt lat="39.139894428947414" lon="16.150027087012518"><ele>316.0</ele><time>2026-05-03T09:17:28.999Z</time></trkpt><trkpt lat="39.13982599593198" lon="16.15006957705005"><ele>316.0</ele><time>2026-05-03T09:17:29.999Z</time></trkpt><trkpt lat="39.13976320358643" lon="16.150095679557747"><ele>316.0</ele><time>2026-05-03T09:17:30.999Z</time></trkpt><trkpt lat="39.1396813815551" lon="16.150133398956232"><ele>316.0</ele><time>2026-05-03T09:17:32.999Z</time></trkpt><trkpt lat="39.1395845616641" lon="16.1502209304313"><ele>315.8333333333333</ele><time>2026-05-03T09:17:35.998Z</time></trkpt><trkpt lat="39.139511931474246" lon="16.15026782746077"><ele>315.66666666666663</ele><time>2026-05-03T09:17:36.998Z</time></trkpt><trkpt lat="39.13944378979164" lon="16.15033353311207"><ele>315.5</ele><time>2026-05-03T09:17:37.998Z</time></trkpt><trkpt lat="39.13938159033478" lon="16.1503981851178"><ele>315.3333333333333</ele><time>2026-05-03T09:17:38.999Z</time></trkpt><trkpt lat="39.139320483497954" lon="16.150460897623873"><ele>315.1666666666667</ele><time>2026-05-03T09:17:39.999Z</time></trkpt><trkpt lat="39.139264526192655" lon="16.15050072914412"><ele>315.0</ele><time>2026-05-03T09:17:40.999Z</time></trkpt><trkpt lat="39.13913804925878" lon="16.150505322711343"><ele>315.0</ele><time>2026-05-03T09:17:42.999Z</time></trkpt><trkpt lat="39.13906089921415" lon="16.150490602682876"><ele>315.0</ele><time>2026-05-03T09:17:43.999Z</time></trkpt><trkpt lat="39.13897832444315" lon="16.15047754344982"><ele>315.0</ele><time>2026-05-03T09:17:44.999Z</time></trkpt><trkpt lat="39.1388898859758" lon="16.15048870999818"><ele>315.0</ele><time>2026-05-03T09:17:45.999Z</time></trkpt><trkpt lat="39.138814659815964" lon="16.15050647565138"><ele>315.0</ele><time>2026-05-03T09:17:46.999Z</time></trkpt><trkpt lat="39.13873810096085" lon="16.15054192060191"><ele>315.0</ele><time>2026-05-03T09:17:47.999Z</time></trkpt><trkpt lat="39.1386848577879" lon="16.150594944248226"><ele>314.6666666666667</ele><time>2026-05-03T09:17:48.999Z</time></trkpt><trkpt lat="39.13862392568862" lon="16.150649063778744"><ele>314.3333333333333</ele><time>2026-05-03T09:17:49.999Z</time></trkpt><trkpt lat="39.138560422949226" lon="16.15069099676411"><ele>314.0</ele><time>2026-05-03T09:17:50.999Z</time></trkpt><trkpt lat="39.13848678681235" lon="16.150707262710416"><ele>313.66666666666663</ele><time>2026-05-03T09:17:51.999Z</time></trkpt><trkpt lat="39.13841929293058" lon="16.150717397363945"><ele>313.3333333333333</ele><time>2026-05-03T09:17:52.999Z</time></trkpt><trkpt lat="39.13832284717234" lon="16.150752521472953"><ele>313.0</ele><time>2026-05-03T09:17:54.999Z</time></trkpt><trkpt lat="39.13821287066834" lon="16.150811708102957"><ele>312.4</ele><time>2026-05-03T09:17:56.999Z</time></trkpt><trkpt lat="39.13814987934118" lon="16.150846868608276"><ele>311.8</ele><time>2026-05-03T09:17:57.999Z</time></trkpt><trkpt lat="39.13807929367678" lon="16.1508833937081"><ele>311.2</ele><time>2026-05-03T09:17:58.999Z</time></trkpt><trkpt lat="39.137995666062764" lon="16.150929159824756"><ele>310.6</ele><time>2026-05-03T09:17:59.999Z</time></trkpt><trkpt lat="39.13790271428446" lon="16.150963316222434"><ele>310.0</ele><time>2026-05-03T09:18:00.999Z</time></trkpt><trkpt lat="39.13778421360546" lon="16.150990827991492"><ele>310.0</ele><time>2026-05-03T09:18:01.999Z</time></trkpt><trkpt lat="39.13768090823222" lon="16.151014246566145"><ele>310.0</ele><time>2026-05-03T09:18:02.999Z</time></trkpt><trkpt lat="39.137578491486046" lon="16.151048258535454"><ele>310.0</ele><time>2026-05-03T09:18:03.999Z</time></trkpt><trkpt lat="39.13746856328307" lon="16.151073087045372"><ele>310.0</ele><time>2026-05-03T09:18:04.999Z</time></trkpt><trkpt lat="39.13737580862764" lon="16.151089527712188"><ele>310.0</ele><time>2026-05-03T09:18:05.999Z</time></trkpt><trkpt lat="39.13729865862035" lon="16.15110056614486"><ele>309.8333333333333</ele><time>2026-05-03T09:18:06.999Z</time></trkpt><trkpt lat="39.13723578778356" lon="16.151112470551258"><ele>309.66666666666663</ele><time>2026-05-03T09:18:07.999Z</time></trkpt><trkpt lat="39.13713032596356" lon="16.151155178248604"><ele>309.5</ele><time>2026-05-03T09:18:09.999Z</time></trkpt><trkpt lat="39.137069531083775" lon="16.15119859567014"><ele>309.3333333333333</ele><time>2026-05-03T09:18:10.999Z</time></trkpt><trkpt lat="39.136953675261545" lon="16.151222679037726"><ele>309.1666666666667</ele><time>2026-05-03T09:18:12.999Z</time></trkpt><trkpt lat="39.13688273600154" lon="16.151202932459917"><ele>309.0</ele><time>2026-05-03T09:18:13.999Z</time></trkpt><trkpt lat="39.13679958760101" lon="16.15118384290394"><ele>309.0</ele><time>2026-05-03T09:18:14.999Z</time></trkpt><trkpt lat="39.136728572576615" lon="16.151172408704436"><ele>309.0</ele><time>2026-05-03T09:18:15.999Z</time></trkpt><trkpt lat="39.13665771295761" lon="16.151179164444226"><ele>309.0</ele><time>2026-05-03T09:18:16.999Z</time></trkpt><trkpt lat="39.1365675149025" lon="16.151171327460325"><ele>309.0</ele><time>2026-05-03T09:18:17.999Z</time></trkpt><trkpt lat="39.13649098482063" lon="16.151143795376363"><ele>309.0</ele><time>2026-05-03T09:18:18.999Z</time></trkpt><trkpt lat="39.13639842933695" lon="16.151135685289027"><ele>309.0</ele><time>2026-05-03T09:18:19.999Z</time></trkpt><trkpt lat="39.13629899668092" lon="16.151133055135098"><ele>308.6666666666667</ele><time>2026-05-03T09:18:20.999Z</time></trkpt><trkpt lat="39.13621930723864" lon="16.15112428979761"><ele>308.3333333333333</ele><time>2026-05-03T09:18:22Z</time></trkpt><trkpt lat="39.13614323677794" lon="16.15110277449527"><ele>308.0</ele><time>2026-05-03T09:18:23Z</time></trkpt><trkpt lat="39.136071615774355" lon="16.15106454657384"><ele>307.66666666666663</ele><time>2026-05-03T09:18:24Z</time></trkpt><trkpt lat="39.13598998718788" lon="16.15101689365576"><ele>307.3333333333333</ele><time>2026-05-03T09:18:25Z</time></trkpt><trkpt lat="39.13590257193528" lon="16.150957444993303"><ele>307.0</ele><time>2026-05-03T09:18:26Z</time></trkpt><trkpt lat="39.135835801227834" lon="16.150912139270016"><ele>307.0</ele><time>2026-05-03T09:18:27Z</time></trkpt><trkpt lat="39.13576930782847" lon="16.150898843810182"><ele>307.0</ele><time>2026-05-03T09:18:28Z</time></trkpt><trkpt lat="39.13568225399817" lon="16.150880953395067"><ele>307.0</ele><time>2026-05-03T09:18:31Z</time></trkpt><trkpt lat="39.13558868952125" lon="16.150956664971527"><ele>307.0</ele><time>2026-05-03T09:18:33Z</time></trkpt><trkpt lat="39.13550966126212" lon="16.15095525810262"><ele>307.0</ele><time>2026-05-03T09:18:35Z</time></trkpt><trkpt lat="39.13538678213627" lon="16.15094840706266"><ele>307.6</ele><time>2026-05-03T09:18:37Z</time></trkpt><trkpt lat="39.1352939971223" lon="16.150946727112665"><ele>308.2</ele><time>2026-05-03T09:18:38Z</time></trkpt><trkpt lat="39.13519068944191" lon="16.150957601735524"><ele>308.8</ele><time>2026-05-03T09:18:39Z</time></trkpt><trkpt lat="39.13509994177733" lon="16.15097465632296"><ele>309.4</ele><time>2026-05-03T09:18:40Z</time></trkpt><trkpt lat="39.135005129147565" lon="16.15096905762596"><ele>310.0</ele><time>2026-05-03T09:18:41Z</time></trkpt><trkpt lat="39.1349050617514" lon="16.1509678595338"><ele>310.25</ele><time>2026-05-03T09:18:42Z</time></trkpt><trkpt lat="39.134791064556765" lon="16.150966973799854"><ele>310.5</ele><time>2026-05-03T09:18:43Z</time></trkpt><trkpt lat="39.134669645601804" lon="16.150965907144116"><ele>310.75</ele><time>2026-05-03T09:18:44Z</time></trkpt><trkpt lat="39.134543910611896" lon="16.150971124836893"><ele>311.0</ele><time>2026-05-03T09:18:45Z</time></trkpt><trkpt lat="39.134433106357655" lon="16.151000385060073"><ele>311.0</ele><time>2026-05-03T09:18:46Z</time></trkpt><trkpt lat="39.13433628695457" lon="16.150974103241175"><ele>311.0</ele><time>2026-05-03T09:18:47Z</time></trkpt><trkpt lat="39.134242868424636" lon="16.151000356959173"><ele>311.0</ele><time>2026-05-03T09:18:48Z</time></trkpt><trkpt lat="39.134156750991046" lon="16.15101364444907"><ele>311.0</ele><time>2026-05-03T09:18:49Z</time></trkpt><trkpt lat="39.13407238797821" lon="16.151064127489004"><ele>311.0</ele><time>2026-05-03T09:18:50Z</time></trkpt><trkpt lat="39.13399892503192" lon="16.151134845004083"><ele>311.8</ele><time>2026-05-03T09:18:51Z</time></trkpt><trkpt lat="39.13392228062855" lon="16.151225174277005"><ele>312.6</ele><time>2026-05-03T09:18:52Z</time></trkpt><trkpt lat="39.133847173953704" lon="16.151326426366687"><ele>313.4</ele><time>2026-05-03T09:18:53Z</time></trkpt><trkpt lat="39.133770973750615" lon="16.151434671466752"><ele>314.2</ele><time>2026-05-03T09:18:54Z</time></trkpt><trkpt lat="39.133686085370044" lon="16.151542277606648"><ele>315.0</ele><time>2026-05-03T09:18:55Z</time></trkpt><trkpt lat="39.13360851129714" lon="16.151657307776023"><ele>312.5</ele><time>2026-05-03T09:18:56Z</time></trkpt><trkpt lat="39.133522773101284" lon="16.151775251538748"><ele>310.0</ele><time>2026-05-03T09:18:57Z</time></trkpt><trkpt lat="39.133449349574974" lon="16.151899563116892"><ele>307.5</ele><time>2026-05-03T09:18:58Z</time></trkpt><trkpt lat="39.13335972646017" lon="16.15199978859395"><ele>305.0</ele><time>2026-05-03T09:18:59Z</time></trkpt><trkpt lat="39.13328402464369" lon="16.152104553893995"><ele>305.75</ele><time>2026-05-03T09:19:00Z</time></trkpt><trkpt lat="39.13320683760428" lon="16.152207288871725"><ele>306.5</ele><time>2026-05-03T09:19:01Z</time></trkpt><trkpt lat="39.13313609431616" lon="16.152323162557384"><ele>307.25</ele><time>2026-05-03T09:19:02Z</time></trkpt><trkpt lat="39.13305843654326" lon="16.152443725125625"><ele>308.0</ele><time>2026-05-03T09:19:03Z</time></trkpt><trkpt lat="39.13294980714515" lon="16.15257129431056"><ele>308.0</ele><time>2026-05-03T09:19:04Z</time></trkpt><trkpt lat="39.1328385326228" lon="16.152727783590258"><ele>308.0</ele><time>2026-05-03T09:19:05Z</time></trkpt><trkpt lat="39.13272832893352" lon="16.15288302513185"><ele>308.0</ele><time>2026-05-03T09:19:06Z</time></trkpt><trkpt lat="39.13262268046442" lon="16.153030075500677"><ele>308.0</ele><time>2026-05-03T09:19:07Z</time></trkpt><trkpt lat="39.13251174898461" lon="16.153179542333714"><ele>308.0</ele><time>2026-05-03T09:19:08Z</time></trkpt><trkpt lat="39.13240869832914" lon="16.153326530098624"><ele>308.0</ele><time>2026-05-03T09:19:09Z</time></trkpt><trkpt lat="39.13231906959087" lon="16.153463621563844"><ele>309.5</ele><time>2026-05-03T09:19:10Z</time></trkpt><trkpt lat="39.132227774254915" lon="16.15360049530908"><ele>311.0</ele><time>2026-05-03T09:19:11Z</time></trkpt><trkpt lat="39.13212231136092" lon="16.15375240394064"><ele>312.5</ele><time>2026-05-03T09:19:12Z</time></trkpt><trkpt lat="39.1320228050144" lon="16.153880500018726"><ele>314.0</ele><time>2026-05-03T09:19:13Z</time></trkpt><trkpt lat="39.13195243748481" lon="16.15398717819593"><ele>312.8</ele><time>2026-05-03T09:19:14Z</time></trkpt><trkpt lat="39.13188659348789" lon="16.15408301538971"><ele>311.59999999999997</ele><time>2026-05-03T09:19:15Z</time></trkpt><trkpt lat="39.131805713498494" lon="16.154195082089675"><ele>310.4</ele><time>2026-05-03T09:19:16Z</time></trkpt><trkpt lat="39.13173184915664" lon="16.15429215200467"><ele>309.2</ele><time>2026-05-03T09:19:17Z</time></trkpt><trkpt lat="39.13165567708391" lon="16.15438766001847"><ele>308.0</ele><time>2026-05-03T09:19:18Z</time></trkpt><trkpt lat="39.13158262697514" lon="16.154481658234026"><ele>308.33333333333337</ele><time>2026-05-03T09:19:19Z</time></trkpt><trkpt lat="39.13150733115694" lon="16.154574975647247"><ele>308.6666666666667</ele><time>2026-05-03T09:19:20Z</time></trkpt><trkpt lat="39.131446139388686" lon="16.154675632834202"><ele>309.0</ele><time>2026-05-03T09:19:21Z</time></trkpt><trkpt lat="39.13137829401325" lon="16.15474386520895"><ele>309.3333333333333</ele><time>2026-05-03T09:19:22Z</time></trkpt><trkpt lat="39.1313237837926" lon="16.15481497019614"><ele>309.66666666666663</ele><time>2026-05-03T09:19:23Z</time></trkpt><trkpt lat="39.13128449562281" lon="16.15488250298487"><ele>310.0</ele><time>2026-05-03T09:19:24Z</time></trkpt><trkpt lat="39.13123679828726" lon="16.15494533312364"><ele>310.0</ele><time>2026-05-03T09:19:26Z</time></trkpt><trkpt lat="39.131188404781604" lon="16.154881266685855"><ele>310.0</ele><time>2026-05-03T09:19:29Z</time></trkpt><trkpt lat="39.131089414445924" lon="16.15480687536829"><ele>310.0</ele><time>2026-05-03T09:19:31Z</time></trkpt><trkpt lat="39.1309640606391" lon="16.154745633007362"><ele>310.0</ele><time>2026-05-03T09:20:36Z</time></trkpt><trkpt lat="39.13088420734381" lon="16.154741704721385"><ele>310.0</ele><time>2026-05-03T09:20:37Z</time></trkpt><trkpt lat="39.13080734840214" lon="16.154759746832337"><ele>312.8</ele><time>2026-05-03T09:20:38Z</time></trkpt><trkpt lat="39.13071453149" lon="16.154770017941015"><ele>315.6</ele><time>2026-05-03T09:20:39Z</time></trkpt><trkpt lat="39.1306227754091" lon="16.15476723493194"><ele>318.4</ele><time>2026-05-03T09:20:40Z</time></trkpt><trkpt lat="39.13050605340114" lon="16.154756615930754"><ele>321.2</ele><time>2026-05-03T09:20:41Z</time></trkpt><trkpt lat="39.13038204468724" lon="16.154743995153957"><ele>324.0</ele><time>2026-05-03T09:20:42Z</time></trkpt><trkpt lat="39.1302619323302" lon="16.154725787084317"><ele>324.0</ele><time>2026-05-03T09:20:43Z</time></trkpt><trkpt lat="39.13016561562899" lon="16.154699285198657"><ele>324.0</ele><time>2026-05-03T09:20:44Z</time></trkpt><trkpt lat="39.13010228216524" lon="16.154659657486583"><ele>324.0</ele><time>2026-05-03T09:20:45Z</time></trkpt><trkpt lat="39.130059144866905" lon="16.154479008760923"><ele>324.0</ele><time>2026-05-03T09:20:47Z</time></trkpt><trkpt lat="39.130031687063614" lon="16.154334853164762"><ele>324.0</ele><time>2026-05-03T09:20:48Z</time></trkpt><trkpt lat="39.1300280318127" lon="16.154212423266397"><ele>324.0</ele><time>2026-05-03T09:20:49Z</time></trkpt><trkpt lat="39.1300610030766" lon="16.154129808372286"><ele>324.0</ele><time>2026-05-03T09:20:51Z</time></trkpt><trkpt lat="39.130035484231584" lon="16.15391781631206"><ele>324.0</ele><time>2026-05-03T09:20:53Z</time></trkpt><trkpt lat="39.12999401144389" lon="16.153779793397135"><ele>324.0</ele><time>2026-05-03T09:20:54Z</time></trkpt><trkpt lat="39.12993079375551" lon="16.15365061251593"><ele>322.5</ele><time>2026-05-03T09:20:55Z</time></trkpt><trkpt lat="39.12984751183213" lon="16.15353535647469"><ele>321.0</ele><time>2026-05-03T09:20:56Z</time></trkpt><trkpt lat="39.12974264038564" lon="16.153426149823325"><ele>319.5</ele><time>2026-05-03T09:20:57Z</time></trkpt><trkpt lat="39.12961397293063" lon="16.153334500544887"><ele>318.0</ele><time>2026-05-03T09:20:58Z</time></trkpt><trkpt lat="39.129473658869784" lon="16.153264451749624"><ele>318.0</ele><time>2026-05-03T09:20:59Z</time></trkpt><trkpt lat="39.12933275707236" lon="16.15321932240917"><ele>318.0</ele><time>2026-05-03T09:21:00Z</time></trkpt><trkpt lat="39.12919745278734" lon="16.15317149886462"><ele>318.0</ele><time>2026-05-03T09:21:01Z</time></trkpt><trkpt lat="39.129068311997884" lon="16.153126445355564"><ele>318.0</ele><time>2026-05-03T09:21:02Z</time></trkpt><trkpt lat="39.12894647261913" lon="16.153091998134304"><ele>316.25</ele><time>2026-05-03T09:21:03Z</time></trkpt><trkpt lat="39.12881913734948" lon="16.153078548802647"><ele>314.5</ele><time>2026-05-03T09:21:04Z</time></trkpt><trkpt lat="39.1286920107806" lon="16.153083914354532"><ele>312.75</ele><time>2026-05-03T09:21:05Z</time></trkpt><trkpt lat="39.128566289074875" lon="16.153087253639946"><ele>311.0</ele><time>2026-05-03T09:21:06Z</time></trkpt><trkpt lat="39.12844976780338" lon="16.153112535857588"><ele>311.0</ele><time>2026-05-03T09:21:07Z</time></trkpt><trkpt lat="39.12835051095534" lon="16.153163991058715"><ele>311.0</ele><time>2026-05-03T09:21:08Z</time></trkpt><trkpt lat="39.1282720097501" lon="16.153264785037557"><ele>311.0</ele><time>2026-05-03T09:21:09Z</time></trkpt><trkpt lat="39.128210001023206" lon="16.15338234839841"><ele>311.0</ele><time>2026-05-03T09:21:10Z</time></trkpt><trkpt lat="39.12815569872411" lon="16.153481843443718"><ele>311.0</ele><time>2026-05-03T09:21:11Z</time></trkpt><trkpt lat="39.128101740540444" lon="16.153565343018524"><ele>307.0</ele><time>2026-05-03T09:21:12Z</time></trkpt><trkpt lat="39.128010825659985" lon="16.15359173496468"><ele>303.0</ele><time>2026-05-03T09:21:13Z</time></trkpt><trkpt lat="39.12790550852073" lon="16.15357446910045"><ele>299.0</ele><time>2026-05-03T09:21:14Z</time></trkpt><trkpt lat="39.127789263368896" lon="16.153536345817415"><ele>295.0</ele><time>2026-05-03T09:21:15Z</time></trkpt><trkpt lat="39.12768768586304" lon="16.15352985587579"><ele>291.0</ele><time>2026-05-03T09:21:16Z</time></trkpt><trkpt lat="39.127590659781035" lon="16.15353900553131"><ele>291.0</ele><time>2026-05-03T09:21:17Z</time></trkpt><trkpt lat="39.12750106102448" lon="16.15362875119152"><ele>291.0</ele><time>2026-05-03T09:21:18Z</time></trkpt><trkpt lat="39.12745448553651" lon="16.153772452841057"><ele>291.0</ele><time>2026-05-03T09:21:19Z</time></trkpt><trkpt lat="39.12739771372765" lon="16.15393921849477"><ele>291.0</ele><time>2026-05-03T09:21:20Z</time></trkpt><trkpt lat="39.12733463283218" lon="16.154132984591094"><ele>292.5</ele><time>2026-05-03T09:21:21Z</time></trkpt><trkpt lat="39.12727339791402" lon="16.154293564851475"><ele>294.0</ele><time>2026-05-03T09:21:22Z</time></trkpt><trkpt lat="39.12720252859998" lon="16.154427162257992"><ele>295.5</ele><time>2026-05-03T09:21:23Z</time></trkpt><trkpt lat="39.12709224623349" lon="16.15453372735819"><ele>297.0</ele><time>2026-05-03T09:21:24Z</time></trkpt><trkpt lat="39.12697694906591" lon="16.154639751417847"><ele>297.0</ele><time>2026-05-03T09:21:25Z</time></trkpt><trkpt lat="39.12686204745529" lon="16.154766926901356"><ele>297.0</ele><time>2026-05-03T09:21:26Z</time></trkpt><trkpt lat="39.12673605480202" lon="16.154883798916266"><ele>297.0</ele><time>2026-05-03T09:21:27Z</time></trkpt><trkpt lat="39.1266050709086" lon="16.155009605854644"><ele>297.3333333333333</ele><time>2026-05-03T09:21:28Z</time></trkpt><trkpt lat="39.12646241241503" lon="16.15514223971865"><ele>297.66666666666663</ele><time>2026-05-03T09:21:29Z</time></trkpt><trkpt lat="39.1262920518006" lon="16.155301663742947"><ele>298.0</ele><time>2026-05-03T09:21:30Z</time></trkpt><trkpt lat="39.126097194228734" lon="16.15546047104671"><ele>298.0</ele><time>2026-05-03T09:21:31Z</time></trkpt><trkpt lat="39.12591117085802" lon="16.155635711494124"><ele>298.0</ele><time>2026-05-03T09:21:32Z</time></trkpt><trkpt lat="39.12575500744353" lon="16.15578424905968"><ele>298.0</ele><time>2026-05-03T09:21:33Z</time></trkpt><trkpt lat="39.12560259214637" lon="16.155926463714597"><ele>298.3333333333333</ele><time>2026-05-03T09:21:34Z</time></trkpt><trkpt lat="39.12545789614594" lon="16.156061475698372"><ele>298.6666666666667</ele><time>2026-05-03T09:21:35Z</time></trkpt><trkpt lat="39.125312729988124" lon="16.156196926368207"><ele>299.0</ele><time>2026-05-03T09:21:36Z</time></trkpt><trkpt lat="39.12518724717313" lon="16.156314011047964"><ele>299.0</ele><time>2026-05-03T09:21:37Z</time></trkpt><trkpt lat="39.125079270602384" lon="16.156414761114327"><ele>299.0</ele><time>2026-05-03T09:21:38Z</time></trkpt><trkpt lat="39.125005674390906" lon="16.156508345185436"><ele>299.0</ele><time>2026-05-03T09:21:39Z</time></trkpt><trkpt lat="39.12494117445216" lon="16.156556379362055"><ele>299.0</ele><time>2026-05-03T09:21:40Z</time></trkpt><trkpt lat="39.124841432902635" lon="16.156589972063408"><ele>299.0</ele><time>2026-05-03T09:21:42Z</time></trkpt><trkpt lat="39.1247200411727" lon="16.15631922300839"><ele>297.5</ele><time>2026-05-03T09:21:45Z</time></trkpt><trkpt lat="39.12467965319421" lon="16.1561542617245"><ele>296.0</ele><time>2026-05-03T09:21:46Z</time></trkpt><trkpt lat="39.12462540222939" lon="16.155986646561665"><ele>294.5</ele><time>2026-05-03T09:21:47Z</time></trkpt><trkpt lat="39.12456091640866" lon="16.155844225299507"><ele>293.0</ele><time>2026-05-03T09:21:48Z</time></trkpt><trkpt lat="39.12446919233127" lon="16.155738880257044"><ele>292.25</ele><time>2026-05-03T09:21:49Z</time></trkpt><trkpt lat="39.12436077246807" lon="16.15566790244836"><ele>291.5</ele><time>2026-05-03T09:21:50Z</time></trkpt><trkpt lat="39.124236260014975" lon="16.155623522693762"><ele>290.75</ele><time>2026-05-03T09:21:51Z</time></trkpt><trkpt lat="39.12409422094664" lon="16.155598341758736"><ele>290.0</ele><time>2026-05-03T09:21:52Z</time></trkpt><trkpt lat="39.12394611552598" lon="16.155588404300133"><ele>288.33333333333337</ele><time>2026-05-03T09:21:53Z</time></trkpt><trkpt lat="39.12379720804999" lon="16.155580918780064"><ele>286.6666666666667</ele><time>2026-05-03T09:21:54Z</time></trkpt><trkpt lat="39.123643332743896" lon="16.155569973752"><ele>285.0</ele><time>2026-05-03T09:21:55Z</time></trkpt><trkpt lat="39.12348870947228" lon="16.15552472838996"><ele>285.0</ele><time>2026-05-03T09:21:56Z</time></trkpt><trkpt lat="39.12332653119592" lon="16.155502721396477"><ele>285.0</ele><time>2026-05-03T09:21:57Z</time></trkpt><trkpt lat="39.123154487537384" lon="16.155447591002957"><ele>285.0</ele><time>2026-05-03T09:21:58Z</time></trkpt><trkpt lat="39.122987751086065" lon="16.155400785132684"><ele>282.6666666666667</ele><time>2026-05-03T09:21:59Z</time></trkpt><trkpt lat="39.12283113867746" lon="16.155358432428542"><ele>280.33333333333337</ele><time>2026-05-03T09:22:00Z</time></trkpt><trkpt lat="39.122679875885964" lon="16.155313928124"><ele>278.0</ele><time>2026-05-03T09:22:01Z</time></trkpt><trkpt lat="39.12253106471786" lon="16.155281610023525"><ele>276.5</ele><time>2026-05-03T09:22:02Z</time></trkpt><trkpt lat="39.122386212336984" lon="16.15525008704163"><ele>275.0</ele><time>2026-05-03T09:22:03Z</time></trkpt><trkpt lat="39.12223721264725" lon="16.155231003200832"><ele>273.5</ele><time>2026-05-03T09:22:04Z</time></trkpt><trkpt lat="39.12209182303909" lon="16.155241644150433"><ele>272.0</ele><time>2026-05-03T09:22:05Z</time></trkpt><trkpt lat="39.12196754728461" lon="16.155263652621183"><ele>272.0</ele><time>2026-05-03T09:22:06Z</time></trkpt><trkpt lat="39.12187329425758" lon="16.15527548272521"><ele>272.0</ele><time>2026-05-03T09:22:07Z</time></trkpt><trkpt lat="39.121771087841225" lon="16.155192838324993"><ele>272.0</ele><time>2026-05-03T09:22:09Z</time></trkpt><trkpt lat="39.12166761934115" lon="16.155134528688958"><ele>272.0</ele><time>2026-05-03T09:22:10Z</time></trkpt><trkpt lat="39.12154358025321" lon="16.15508670029615"><ele>270.2</ele><time>2026-05-03T09:22:11Z</time></trkpt><trkpt lat="39.12145167516924" lon="16.15503927809388"><ele>268.4</ele><time>2026-05-03T09:22:12Z</time></trkpt><trkpt lat="39.121377704815124" lon="16.154982125790657"><ele>266.6</ele><time>2026-05-03T09:22:13Z</time></trkpt><trkpt lat="39.12130442788264" lon="16.154939990282994"><ele>264.8</ele><time>2026-05-03T09:22:14Z</time></trkpt><trkpt lat="39.12121420612294" lon="16.154807853888443"><ele>263.0</ele><time>2026-05-03T09:22:16Z</time></trkpt><trkpt lat="39.121185475270124" lon="16.15471193947284"><ele>262.33333333333337</ele><time>2026-05-03T09:22:17Z</time></trkpt><trkpt lat="39.12115621519118" lon="16.154640017767885"><ele>261.6666666666667</ele><time>2026-05-03T09:22:18Z</time></trkpt><trkpt lat="39.12106883560698" lon="16.154562117792413"><ele>261.0</ele><time>2026-05-03T09:22:20Z</time></trkpt><trkpt lat="39.1209881820353" lon="16.154524215899166"><ele>260.3333333333333</ele><time>2026-05-03T09:22:21Z</time></trkpt><trkpt lat="39.12089666261206" lon="16.154487552970412"><ele>259.66666666666663</ele><time>2026-05-03T09:22:22Z</time></trkpt><trkpt lat="39.12081545271174" lon="16.154441577334076"><ele>259.0</ele><time>2026-05-03T09:22:23Z</time></trkpt><trkpt lat="39.12074267563652" lon="16.1544241955209"><ele>258.3333333333333</ele><time>2026-05-03T09:22:24Z</time></trkpt><trkpt lat="39.12067223259231" lon="16.154427125445405"><ele>257.66666666666663</ele><time>2026-05-03T09:22:25Z</time></trkpt><trkpt lat="39.120605197490136" lon="16.154393145735572"><ele>257.0</ele><time>2026-05-03T09:22:26Z</time></trkpt><trkpt lat="39.12053007123433" lon="16.15437836789964"><ele>256.3333333333333</ele><time>2026-05-03T09:22:27Z</time></trkpt><trkpt lat="39.12045530768024" lon="16.154361823806966"><ele>255.66666666666666</ele><time>2026-05-03T09:22:28Z</time></trkpt><trkpt lat="39.120375386643225" lon="16.154334663740205"><ele>255.0</ele><time>2026-05-03T09:22:29Z</time></trkpt><trkpt lat="39.12029801099958" lon="16.15429826276932"><ele>255.0</ele><time>2026-05-03T09:22:30Z</time></trkpt><trkpt lat="39.12022068046797" lon="16.15426403292913"><ele>255.00000000000003</ele><time>2026-05-03T09:22:31Z</time></trkpt><trkpt lat="39.120147850197576" lon="16.154247400841246"><ele>255.0</ele><time>2026-05-03T09:22:32Z</time></trkpt><trkpt lat="39.12008749125125" lon="16.154169685032528"><ele>255.0</ele><time>2026-05-03T09:22:33Z</time></trkpt><trkpt lat="39.12002649770866" lon="16.154121967441785"><ele>255.00000000000003</ele><time>2026-05-03T09:22:34Z</time></trkpt><trkpt lat="39.1199633813061" lon="16.154095352206685"><ele>255.0</ele><time>2026-05-03T09:22:35Z</time></trkpt><trkpt lat="39.11991146563107" lon="16.154042844938676"><ele>255.0</ele><time>2026-05-03T09:22:36Z</time></trkpt><trkpt lat="39.119835238511875" lon="16.154007788085533"><ele>253.0</ele><time>2026-05-03T09:22:37Z</time></trkpt><trkpt lat="39.11974903152608" lon="16.15396373112396"><ele>251.0</ele><time>2026-05-03T09:22:38Z</time></trkpt><trkpt lat="39.11964808338224" lon="16.153935526424274"><ele>249.0</ele><time>2026-05-03T09:22:39Z</time></trkpt><trkpt lat="39.119562236067345" lon="16.153892616661686"><ele>247.0</ele><time>2026-05-03T09:22:40Z</time></trkpt><trkpt lat="39.11947390796668" lon="16.153859555801997"><ele>245.0</ele><time>2026-05-03T09:22:41Z</time></trkpt><trkpt lat="39.11938865823551" lon="16.1538220623852"><ele>245.00000000000003</ele><time>2026-05-03T09:22:42Z</time></trkpt><trkpt lat="39.119308981907736" lon="16.153766645326407"><ele>245.0</ele><time>2026-05-03T09:22:43Z</time></trkpt><trkpt lat="39.11921672662338" lon="16.153712471850092"><ele>245.0</ele><time>2026-05-03T09:22:44Z</time></trkpt><trkpt lat="39.11913981946169" lon="16.15365564706459"><ele>245.0</ele><time>2026-05-03T09:22:45Z</time></trkpt><trkpt lat="39.11907360682053" lon="16.153610066590208"><ele>245.00000000000003</ele><time>2026-05-03T09:22:46Z</time></trkpt><trkpt lat="39.1190134162024" lon="16.153586280548414"><ele>245.0</ele><time>2026-05-03T09:22:47Z</time></trkpt><trkpt lat="39.11892977330059" lon="16.153540448355916"><ele>245.00000000000003</ele><time>2026-05-03T09:22:49Z</time></trkpt><trkpt lat="39.11886263975303" lon="16.153510524449164"><ele>245.0</ele><time>2026-05-03T09:22:56Z</time></trkpt><trkpt lat="39.11893351043124" lon="16.153544076622303"><ele>245.0</ele><time>2026-05-03T09:23:11Z</time></trkpt><trkpt lat="39.1190456171082" lon="16.153609528542148"><ele>245.0</ele><time>2026-05-03T09:23:13Z</time></trkpt><trkpt lat="39.11910608360982" lon="16.153649127879778"><ele>245.00000000000003</ele><time>2026-05-03T09:23:14Z</time></trkpt><trkpt lat="39.11918634342556" lon="16.153718113870994"><ele>245.0</ele><time>2026-05-03T09:23:16Z</time></trkpt><trkpt lat="39.119250960538274" lon="16.15372476059016"><ele>245.0</ele><time>2026-05-03T09:23:19Z</time></trkpt><trkpt lat="39.119269070178916" lon="16.15363054254381"><ele>245.0</ele><time>2026-05-03T09:23:21Z</time></trkpt><trkpt lat="39.11927750227204" lon="16.153542636644563"><ele>245.0</ele><time>2026-05-03T09:23:22Z</time></trkpt><trkpt lat="39.11930240041417" lon="16.153460075740533"><ele>245.0</ele><time>2026-05-03T09:23:23Z</time></trkpt><trkpt lat="39.119325414729154" lon="16.153371663440158"><ele>245.0</ele><time>2026-05-03T09:23:24Z</time></trkpt><trkpt lat="39.11935089398414" lon="16.153272283713076"><ele>245.0</ele><time>2026-05-03T09:23:25Z</time></trkpt><trkpt lat="39.11937998950591" lon="16.15317711764241"><ele>245.0</ele><time>2026-05-03T09:23:26Z</time></trkpt><trkpt lat="39.11940639195598" lon="16.153079308460033"><ele>244.16666666666669</ele><time>2026-05-03T09:23:27Z</time></trkpt><trkpt lat="39.11940108741511" lon="16.152963553934246"><ele>243.33333333333334</ele><time>2026-05-03T09:23:29Z</time></trkpt><trkpt lat="39.11937222419858" lon="16.152881998172575"><ele>242.5</ele><time>2026-05-03T09:23:31Z</time></trkpt><trkpt lat="39.11934202013333" lon="16.15278830178065"><ele>241.66666666666669</ele><time>2026-05-03T09:23:33Z</time></trkpt><trkpt lat="39.11930223725709" lon="16.152689899869955"><ele>240.83333333333334</ele><time>2026-05-03T09:23:35Z</time></trkpt><trkpt lat="39.11927069779694" lon="16.152582714890883"><ele>240.0</ele><time>2026-05-03T09:23:38Z</time></trkpt><trkpt lat="39.11925497270634" lon="16.152469185135274"><ele>240.0</ele><time>2026-05-03T09:23:40Z</time></trkpt><trkpt lat="39.119240591681624" lon="16.152378365351307"><ele>240.0</ele><time>2026-05-03T09:23:41Z</time></trkpt><trkpt lat="39.119200932559224" lon="16.152309351712564"><ele>240.0</ele><time>2026-05-03T09:23:42Z</time></trkpt><trkpt lat="39.1191385655574" lon="16.152184080650105"><ele>240.0</ele><time>2026-05-03T09:23:43Z</time></trkpt><trkpt lat="39.11906057944793" lon="16.15209038192896"><ele>240.0</ele><time>2026-05-03T09:23:44Z</time></trkpt><trkpt lat="39.11898010080465" lon="16.152010854714835"><ele>239.0</ele><time>2026-05-03T09:23:45Z</time></trkpt><trkpt lat="39.11891211548461" lon="16.151944049274864"><ele>238.0</ele><time>2026-05-03T09:23:46Z</time></trkpt><trkpt lat="39.118866477167316" lon="16.15188656218248"><ele>237.0</ele><time>2026-05-03T09:23:47Z</time></trkpt><trkpt lat="39.118801623953395" lon="16.151829959908127"><ele>236.0</ele><time>2026-05-03T09:23:49Z</time></trkpt><trkpt lat="39.11868992834622" lon="16.151777624442946"><ele>235.0</ele><time>2026-05-03T09:23:51Z</time></trkpt><trkpt lat="39.11863321655728" lon="16.151707434955956"><ele>234.0</ele><time>2026-05-03T09:23:52Z</time></trkpt><trkpt lat="39.118580632275055" lon="16.151621076441714"><ele>233.16666666666666</ele><time>2026-05-03T09:23:53Z</time></trkpt><trkpt lat="39.11851924043618" lon="16.151533694032477"><ele>232.33333333333331</ele><time>2026-05-03T09:23:54Z</time></trkpt><trkpt lat="39.11845545139049" lon="16.15147978489938"><ele>231.5</ele><time>2026-05-03T09:23:55Z</time></trkpt><trkpt lat="39.11838724561983" lon="16.151407624674675"><ele>230.66666666666666</ele><time>2026-05-03T09:23:56Z</time></trkpt><trkpt lat="39.11832944398606" lon="16.151339415561882"><ele>229.83333333333331</ele><time>2026-05-03T09:23:57Z</time></trkpt><trkpt lat="39.11827363382239" lon="16.151283296172224"><ele>229.0</ele><time>2026-05-03T09:23:58Z</time></trkpt><trkpt lat="39.11820013651239" lon="16.151154116175885"><ele>228.33333333333331</ele><time>2026-05-03T09:24:00Z</time></trkpt><trkpt lat="39.11816656535016" lon="16.151062684199125"><ele>227.66666666666666</ele><time>2026-05-03T09:24:01Z</time></trkpt><trkpt lat="39.1181298244453" lon="16.15097421090987"><ele>227.0</ele><time>2026-05-03T09:24:02Z</time></trkpt><trkpt lat="39.11809654835006" lon="16.15087888295123"><ele>226.33333333333331</ele><time>2026-05-03T09:24:03Z</time></trkpt><trkpt lat="39.11805633226433" lon="16.15076997410429"><ele>225.66666666666666</ele><time>2026-05-03T09:24:04Z</time></trkpt><trkpt lat="39.118019779361205" lon="16.15068416431459"><ele>225.0</ele><time>2026-05-03T09:24:05Z</time></trkpt><trkpt lat="39.117967622220014" lon="16.150611213146547"><ele>224.4</ele><time>2026-05-03T09:24:06Z</time></trkpt><trkpt lat="39.117900231899824" lon="16.150534831164915"><ele>223.8</ele><time>2026-05-03T09:24:07Z</time></trkpt><trkpt lat="39.117816545524526" lon="16.150452701041146"><ele>223.2</ele><time>2026-05-03T09:24:08Z</time></trkpt><trkpt lat="39.11774686146827" lon="16.15037202108246"><ele>222.6</ele><time>2026-05-03T09:24:09Z</time></trkpt><trkpt lat="39.117674390238804" lon="16.150258615041142"><ele>222.0</ele><time>2026-05-03T09:24:10Z</time></trkpt><trkpt lat="39.117623138297574" lon="16.15016090807563"><ele>222.0</ele><time>2026-05-03T09:24:11Z</time></trkpt><trkpt lat="39.11752734855854" lon="16.150064942378805"><ele>222.0</ele><time>2026-05-03T09:24:13Z</time></trkpt><trkpt lat="39.11745711532963" lon="16.15003239253673"><ele>222.0</ele><time>2026-05-03T09:24:14Z</time></trkpt><trkpt lat="39.11739314187766" lon="16.150004339619873"><ele>222.0</ele><time>2026-05-03T09:24:15Z</time></trkpt><trkpt lat="39.117317319753624" lon="16.14997991160271"><ele>222.0</ele><time>2026-05-03T09:24:17Z</time></trkpt><trkpt lat="39.117214466924935" lon="16.149875151295134"><ele>220.39999999999998</ele><time>2026-05-03T09:24:19Z</time></trkpt><trkpt lat="39.11714238711307" lon="16.149815043958842"><ele>218.79999999999998</ele><time>2026-05-03T09:24:20Z</time></trkpt><trkpt lat="39.11703883161824" lon="16.149761446152514"><ele>217.2</ele><time>2026-05-03T09:24:21Z</time></trkpt><trkpt lat="39.11696028860797" lon="16.149731117599142"><ele>215.6</ele><time>2026-05-03T09:24:22Z</time></trkpt><trkpt lat="39.11685079373023" lon="16.149666197826924"><ele>214.0</ele><time>2026-05-03T09:24:24Z</time></trkpt><trkpt lat="39.11674833378548" lon="16.149647949684837"><ele>214.0</ele><time>2026-05-03T09:24:25Z</time></trkpt><trkpt lat="39.116599001010464" lon="16.149632273743023"><ele>214.0</ele><time>2026-05-03T09:24:26Z</time></trkpt><trkpt lat="39.11646556993574" lon="16.149617432933606"><ele>214.0</ele><time>2026-05-03T09:24:27Z</time></trkpt><trkpt lat="39.11637084415651" lon="16.149603583334482"><ele>214.0</ele><time>2026-05-03T09:24:28Z</time></trkpt><trkpt lat="39.11628579019062" lon="16.149576908622556"><ele>212.6</ele><time>2026-05-03T09:24:29Z</time></trkpt><trkpt lat="39.11621763850706" lon="16.149551554025948"><ele>211.2</ele><time>2026-05-03T09:24:30Z</time></trkpt><trkpt lat="39.11613843173427" lon="16.149503218928853"><ele>209.79999999999998</ele><time>2026-05-03T09:24:32Z</time></trkpt><trkpt lat="39.11608623378543" lon="16.149414205146034"><ele>208.39999999999998</ele><time>2026-05-03T09:24:51Z</time></trkpt><trkpt lat="39.11601863534215" lon="16.14925959607149"><ele>207.0</ele><time>2026-05-03T09:24:53Z</time></trkpt><trkpt lat="39.11599907988116" lon="16.149174239866024"><ele>207.0</ele><time>2026-05-03T09:24:54Z</time></trkpt><trkpt lat="39.11598755183152" lon="16.149004634312416"><ele>207.0</ele><time>2026-05-03T09:24:56Z</time></trkpt><trkpt lat="39.115990885573936" lon="16.148904574964618"><ele>207.0</ele><time>2026-05-03T09:24:57Z</time></trkpt><trkpt lat="39.11599924478019" lon="16.148810650261776"><ele>207.0</ele><time>2026-05-03T09:24:58Z</time></trkpt><trkpt lat="39.11597171897297" lon="16.148709129405177"><ele>207.0</ele><time>2026-05-03T09:24:59Z</time></trkpt><trkpt lat="39.11591846054869" lon="16.148624663840824"><ele>207.0</ele><time>2026-05-03T09:25:00Z</time></trkpt><trkpt lat="39.115897131951975" lon="16.14854109673889"><ele>207.0</ele><time>2026-05-03T09:25:02Z</time></trkpt><trkpt lat="39.11581813286009" lon="16.14849243976863"><ele>207.0</ele><time>2026-05-03T09:25:05Z</time></trkpt><trkpt lat="39.115800101361245" lon="16.14839943597153"><ele>207.0</ele><time>2026-05-03T09:25:06Z</time></trkpt><trkpt lat="39.115836314128344" lon="16.148326862730194"><ele>207.0</ele><time>2026-05-03T09:25:07Z</time></trkpt><trkpt lat="39.11579579305233" lon="16.148206525848366"><ele>207.0</ele><time>2026-05-03T09:25:08Z</time></trkpt><trkpt lat="39.11540339794014" lon="16.148207126986716"><ele>205.33333333333331</ele><time>2026-05-03T09:25:09Z</time></trkpt><trkpt lat="39.115299461732015" lon="16.148087674025252"><ele>203.66666666666666</ele><time>2026-05-03T09:25:10Z</time></trkpt><trkpt lat="39.115166388266076" lon="16.147974398697073"><ele>202.0</ele><time>2026-05-03T09:25:11Z</time></trkpt><trkpt lat="39.11501475235589" lon="16.147861110366684"><ele>199.66666666666666</ele><time>2026-05-03T09:25:12Z</time></trkpt><trkpt lat="39.11485641403479" lon="16.147749399433845"><ele>197.33333333333331</ele><time>2026-05-03T09:25:13Z</time></trkpt><trkpt lat="39.11471405970377" lon="16.147648912271034"><ele>195.0</ele><time>2026-05-03T09:25:14Z</time></trkpt><trkpt lat="39.11457810370954" lon="16.147539317358323"><ele>195.0</ele><time>2026-05-03T09:25:15Z</time></trkpt><trkpt lat="39.11447208460172" lon="16.14743791170844"><ele>195.0</ele><time>2026-05-03T09:25:16Z</time></trkpt><trkpt lat="39.11437892955767" lon="16.147357445726946"><ele>195.0</ele><time>2026-05-03T09:25:17Z</time></trkpt><trkpt lat="39.114271377327434" lon="16.14729567823161"><ele>195.0</ele><time>2026-05-03T09:25:18Z</time></trkpt><trkpt lat="39.114140234567124" lon="16.147214182844934"><ele>194.25</ele><time>2026-05-03T09:25:19Z</time></trkpt><trkpt lat="39.11401589832794" lon="16.147139180600714"><ele>193.5</ele><time>2026-05-03T09:25:20Z</time></trkpt><trkpt lat="39.113899338119474" lon="16.147084707515354"><ele>192.75</ele><time>2026-05-03T09:25:21Z</time></trkpt><trkpt lat="39.11376059060069" lon="16.14702548432378"><ele>192.0</ele><time>2026-05-03T09:25:22Z</time></trkpt><trkpt lat="39.11363873036021" lon="16.146938730529087"><ele>192.0</ele><time>2026-05-03T09:25:23Z</time></trkpt><trkpt lat="39.1135422535344" lon="16.146849925969963"><ele>192.0</ele><time>2026-05-03T09:25:24Z</time></trkpt><trkpt lat="39.11346606495109" lon="16.14676640649705"><ele>192.0</ele><time>2026-05-03T09:25:25Z</time></trkpt><trkpt lat="39.11340651888124" lon="16.146673016578834"><ele>192.0</ele><time>2026-05-03T09:25:26Z</time></trkpt><trkpt lat="39.113371189167" lon="16.146589453896596"><ele>192.0</ele><time>2026-05-03T09:25:27Z</time></trkpt><trkpt lat="39.11338787949017" lon="16.146477022571247"><ele>191.5</ele><time>2026-05-03T09:25:29Z</time></trkpt><trkpt lat="39.11342573918247" lon="16.146385894094575"><ele>191.0</ele><time>2026-05-03T09:25:30Z</time></trkpt><trkpt lat="39.113469878326946" lon="16.146233207733637"><ele>190.5</ele><time>2026-05-03T09:25:31Z</time></trkpt><trkpt lat="39.11351086755587" lon="16.146044927172557"><ele>190.0</ele><time>2026-05-03T09:25:32Z</time></trkpt><trkpt lat="39.11354664179328" lon="16.145855672007738"><ele>190.0</ele><time>2026-05-03T09:25:33Z</time></trkpt><trkpt lat="39.11357697586164" lon="16.145739000789444"><ele>190.0</ele><time>2026-05-03T09:25:34Z</time></trkpt><trkpt lat="39.11360276335373" lon="16.14563444113453"><ele>190.0</ele><time>2026-05-03T09:25:35Z</time></trkpt><trkpt lat="39.11361727479157" lon="16.145550892708325"><ele>190.0</ele><time>2026-05-03T09:25:36Z</time></trkpt><trkpt lat="39.11358667955114" lon="16.14539424172653"><ele>190.0</ele><time>2026-05-03T09:25:38Z</time></trkpt><trkpt lat="39.113525080639505" lon="16.145304123563346"><ele>190.4</ele><time>2026-05-03T09:25:39Z</time></trkpt><trkpt lat="39.11346455459348" lon="16.145230393394385"><ele>190.8</ele><time>2026-05-03T09:25:40Z</time></trkpt><trkpt lat="39.11343861334159" lon="16.145127538508568"><ele>191.2</ele><time>2026-05-03T09:25:43Z</time></trkpt><trkpt lat="39.113396341789425" lon="16.144990871568396"><ele>191.6</ele><time>2026-05-03T09:25:45Z</time></trkpt><trkpt lat="39.11332706918466" lon="16.144923940820426"><ele>192.0</ele><time>2026-05-03T09:25:46Z</time></trkpt><trkpt lat="39.11323748250279" lon="16.144831835435802"><ele>192.39999999999998</ele><time>2026-05-03T09:25:47Z</time></trkpt><trkpt lat="39.113178938967884" lon="16.14475106004782"><ele>192.79999999999998</ele><time>2026-05-03T09:25:48Z</time></trkpt><trkpt lat="39.11313585234172" lon="16.14466443835459"><ele>193.2</ele><time>2026-05-03T09:25:49Z</time></trkpt><trkpt lat="39.11308788290863" lon="16.144563203122303"><ele>193.6</ele><time>2026-05-03T09:25:50Z</time></trkpt><trkpt lat="39.113035196340924" lon="16.144458705437426"><ele>194.0</ele><time>2026-05-03T09:25:51Z</time></trkpt><trkpt lat="39.11296806828348" lon="16.14436264678687"><ele>194.0</ele><time>2026-05-03T09:25:52Z</time></trkpt><trkpt lat="39.11288794281283" lon="16.144266002132554"><ele>194.0</ele><time>2026-05-03T09:25:53Z</time></trkpt><trkpt lat="39.11284400345909" lon="16.144196376173426"><ele>194.0</ele><time>2026-05-03T09:25:54Z</time></trkpt><trkpt lat="39.11279648808222" lon="16.14407748476971"><ele>194.0</ele><time>2026-05-03T09:25:55Z</time></trkpt><trkpt lat="39.11276301280815" lon="16.14395929921058"><ele>194.0</ele><time>2026-05-03T09:25:56Z</time></trkpt><trkpt lat="39.112741554060754" lon="16.1438735054768"><ele>197.50000000000003</ele><time>2026-05-03T09:25:57Z</time></trkpt><trkpt lat="39.11272455366151" lon="16.1437950870114"><ele>201.0</ele><time>2026-05-03T09:25:58Z</time></trkpt><trkpt lat="39.11265702061236" lon="16.143718911635002"><ele>204.5</ele><time>2026-05-03T09:26:00Z</time></trkpt><trkpt lat="39.1125995526392" lon="16.14364441464704"><ele>208.0</ele><time>2026-05-03T09:26:01Z</time></trkpt><trkpt lat="39.11257013556049" lon="16.143564249227296"><ele>211.50000000000003</ele><time>2026-05-03T09:26:02Z</time></trkpt><trkpt lat="39.112580003689914" lon="16.143464828252743"><ele>215.0</ele><time>2026-05-03T09:26:04Z</time></trkpt><trkpt lat="39.11250435793228" lon="16.143460788765314"><ele>215.0</ele><time>2026-05-03T09:26:12Z</time></trkpt><trkpt lat="39.11241730173926" lon="16.143412656950584"><ele>215.0</ele><time>2026-05-03T09:26:14Z</time></trkpt><trkpt lat="39.11235728153592" lon="16.143347403277737"><ele>215.0</ele><time>2026-05-03T09:26:49Z</time></trkpt><trkpt lat="39.11227542289947" lon="16.143281181299173"><ele>215.0</ele><time>2026-05-03T09:26:51Z</time></trkpt><trkpt lat="39.11218321595395" lon="16.14318877702415"><ele>215.0</ele><time>2026-05-03T09:26:53Z</time></trkpt><trkpt lat="39.112139109873524" lon="16.14311754173195"><ele>212.33333333333334</ele><time>2026-05-03T09:26:54Z</time></trkpt><trkpt lat="39.11208663641345" lon="16.143068652452815"><ele>209.66666666666669</ele><time>2026-05-03T09:26:55Z</time></trkpt><trkpt lat="39.11199541186492" lon="16.143069797541298"><ele>207.0</ele><time>2026-05-03T09:26:57Z</time></trkpt><trkpt lat="39.111906769335945" lon="16.14304659935074"><ele>204.33333333333331</ele><time>2026-05-03T09:26:59Z</time></trkpt><trkpt lat="39.11182840444356" lon="16.14301159314725"><ele>201.66666666666666</ele><time>2026-05-03T09:27:01Z</time></trkpt><trkpt lat="39.11178801492182" lon="16.142889880492767"><ele>199.0</ele><time>2026-05-03T09:27:03Z</time></trkpt><trkpt lat="39.11179195679982" lon="16.14279186781663"><ele>199.0</ele><time>2026-05-03T09:27:04Z</time></trkpt><trkpt lat="39.1118136982155" lon="16.142622650613724"><ele>199.0</ele><time>2026-05-03T09:27:06Z</time></trkpt><trkpt lat="39.11181832290673" lon="16.14250992519924"><ele>199.0</ele><time>2026-05-03T09:27:07Z</time></trkpt><trkpt lat="39.111824371496674" lon="16.14241073877386"><ele>199.0</ele><time>2026-05-03T09:27:08Z</time></trkpt><trkpt lat="39.11183518173421" lon="16.1423021015315"><ele>199.0</ele><time>2026-05-03T09:27:09Z</time></trkpt><trkpt lat="39.111849243663734" lon="16.142216044257218"><ele>197.99999999999997</ele><time>2026-05-03T09:27:10Z</time></trkpt><trkpt lat="39.111854091997614" lon="16.14212460252598"><ele>197.0</ele><time>2026-05-03T09:27:11Z</time></trkpt><trkpt lat="39.1118502394931" lon="16.142022757672482"><ele>196.0</ele><time>2026-05-03T09:27:12Z</time></trkpt><trkpt lat="39.11183492174424" lon="16.141930888524616"><ele>195.0</ele><time>2026-05-03T09:27:13Z</time></trkpt><trkpt lat="39.11176350474584" lon="16.141879689104236"><ele>193.99999999999997</ele><time>2026-05-03T09:27:15Z</time></trkpt><trkpt lat="39.1117032390598" lon="16.14198373169716"><ele>193.0</ele><time>2026-05-03T09:27:17Z</time></trkpt><trkpt lat="39.11167952752979" lon="16.142074948224913"><ele>193.00000000000003</ele><time>2026-05-03T09:27:18Z</time></trkpt><trkpt lat="39.111639198317995" lon="16.142151871315114"><ele>193.0</ele><time>2026-05-03T09:27:19Z</time></trkpt><trkpt lat="39.11159669907664" lon="16.14221526630372"><ele>193.0</ele><time>2026-05-03T09:27:20Z</time></trkpt><trkpt lat="39.11154634369108" lon="16.142294744108003"><ele>193.0</ele><time>2026-05-03T09:27:21Z</time></trkpt><trkpt lat="39.11149840816219" lon="16.14237443885177"><ele>193.0</ele><time>2026-05-03T09:27:22Z</time></trkpt><trkpt lat="39.11144266772622" lon="16.142452167655467"><ele>193.00000000000003</ele><time>2026-05-03T09:27:23Z</time></trkpt><trkpt lat="39.11138627766405" lon="16.142502985075044"><ele>193.0</ele><time>2026-05-03T09:27:24Z</time></trkpt><trkpt lat="39.11132533975867" lon="16.14255754833924"><ele>189.66666666666666</ele><time>2026-05-03T09:27:25Z</time></trkpt><trkpt lat="39.111277079587985" lon="16.14262106847259"><ele>186.33333333333331</ele><time>2026-05-03T09:27:26Z</time></trkpt><trkpt lat="39.111231971348886" lon="16.14271975053519"><ele>183.0</ele><time>2026-05-03T09:27:27Z</time></trkpt><trkpt lat="39.111192384829636" lon="16.142852204002057"><ele>179.66666666666666</ele><time>2026-05-03T09:27:28Z</time></trkpt><trkpt lat="39.111155393632444" lon="16.142962185058895"><ele>176.33333333333331</ele><time>2026-05-03T09:27:29Z</time></trkpt><trkpt lat="39.11111567825086" lon="16.143046269272347"><ele>173.0</ele><time>2026-05-03T09:27:30Z</time></trkpt><trkpt lat="39.11105425997136" lon="16.14315416070614"><ele>173.0</ele><time>2026-05-03T09:27:31Z</time></trkpt><trkpt lat="39.11100741330749" lon="16.143260131908672"><ele>173.0</ele><time>2026-05-03T09:27:32Z</time></trkpt><trkpt lat="39.11093246958397" lon="16.1432680092254"><ele>173.0</ele><time>2026-05-03T09:27:35Z</time></trkpt><trkpt lat="39.1109363963042" lon="16.14316575243707"><ele>173.0</ele><time>2026-05-03T09:27:37Z</time></trkpt><trkpt lat="39.11098311232477" lon="16.14306347814617"><ele>173.0</ele><time>2026-05-03T09:27:38Z</time></trkpt><trkpt lat="39.11103089561751" lon="16.142938395955145"><ele>173.0</ele><time>2026-05-03T09:27:39Z</time></trkpt><trkpt lat="39.111058863910145" lon="16.142821706410327"><ele>173.0</ele><time>2026-05-03T09:27:40Z</time></trkpt><trkpt lat="39.11107912257505" lon="16.142706580273497"><ele>173.0</ele><time>2026-05-03T09:27:41Z</time></trkpt><trkpt lat="39.11110289992659" lon="16.14259361722052"><ele>173.0</ele><time>2026-05-03T09:27:42Z</time></trkpt><trkpt lat="39.11113422347139" lon="16.142508666526016"><ele>173.0</ele><time>2026-05-03T09:27:43Z</time></trkpt><trkpt lat="39.11115172362341" lon="16.142416184127807"><ele>173.0</ele><time>2026-05-03T09:27:45Z</time></trkpt><trkpt lat="39.11104315344678" lon="16.142353476780357"><ele>172.4</ele><time>2026-05-03T09:27:47Z</time></trkpt><trkpt lat="39.110924238196496" lon="16.142319242642902"><ele>171.8</ele><time>2026-05-03T09:27:48Z</time></trkpt><trkpt lat="39.110804907647264" lon="16.142276306385828"><ele>171.2</ele><time>2026-05-03T09:27:49Z</time></trkpt><trkpt lat="39.11073992545799" lon="16.14224648006173"><ele>170.6</ele><time>2026-05-03T09:27:50Z</time></trkpt><trkpt lat="39.11066886990199" lon="16.14218362274401"><ele>170.0</ele><time>2026-05-03T09:27:52Z</time></trkpt><trkpt lat="39.110616316611406" lon="16.14212589659337"><ele>170.0</ele><time>2026-05-03T09:27:53Z</time></trkpt><trkpt lat="39.110537720896986" lon="16.142083316141157"><ele>170.0</ele><time>2026-05-03T09:27:55Z</time></trkpt><trkpt lat="39.110470529356235" lon="16.142143493600702"><ele>170.0</ele><time>2026-05-03T09:27:57Z</time></trkpt><trkpt lat="39.110423310822995" lon="16.142295890511612"><ele>170.0</ele><time>2026-05-03T09:27:59Z</time></trkpt><trkpt lat="39.110409673855294" lon="16.142405740812926"><ele>170.0</ele><time>2026-05-03T09:28:01Z</time></trkpt><trkpt lat="39.11039078110494" lon="16.142525829935924"><ele>170.0</ele><time>2026-05-03T09:28:04Z</time></trkpt><trkpt lat="39.11035535829696" lon="16.142606765456915"><ele>170.0</ele><time>2026-05-03T09:28:06Z</time></trkpt><trkpt lat="39.11032907625986" lon="16.142754559876835"><ele>170.0</ele><time>2026-05-03T09:28:15Z</time></trkpt><trkpt lat="39.11030300999438" lon="16.142840638742424"><ele>170.0</ele><time>2026-05-03T09:28:16Z</time></trkpt><trkpt lat="39.11029595399116" lon="16.142947633700185"><ele>170.0</ele><time>2026-05-03T09:28:17Z</time></trkpt><trkpt lat="39.11027624781426" lon="16.143044251535088"><ele>170.0</ele><time>2026-05-03T09:28:18Z</time></trkpt><trkpt lat="39.1102448149652" lon="16.143115715404665"><ele>170.0</ele><time>2026-05-03T09:28:19Z</time></trkpt><trkpt lat="39.11022384882126" lon="16.143231762029632"><ele>170.0</ele><time>2026-05-03T09:28:21Z</time></trkpt><trkpt lat="39.110223446376274" lon="16.14331836532363"><ele>170.0</ele><time>2026-05-03T09:28:23Z</time></trkpt><trkpt lat="39.11019226091115" lon="16.143413661697167"><ele>170.0</ele><time>2026-05-03T09:28:37Z</time></trkpt><trkpt lat="39.110111749749926" lon="16.143365153596736"><ele>170.0</ele><time>2026-05-03T09:28:41Z</time></trkpt><trkpt lat="39.11004020453978" lon="16.143235469232653"><ele>170.0</ele><time>2026-05-03T09:28:42Z</time></trkpt><trkpt lat="39.10999121621818" lon="16.143096141317372"><ele>170.0</ele><time>2026-05-03T09:28:43Z</time></trkpt><trkpt lat="39.10993968283104" lon="16.142902776620765"><ele>170.0</ele><time>2026-05-03T09:28:44Z</time></trkpt><trkpt lat="39.109879893706676" lon="16.14260849791164"><ele>170.0</ele><time>2026-05-03T09:28:45Z</time></trkpt><trkpt lat="39.110476398314795" lon="16.142234333616692"><ele>170.0</ele><time>2026-05-03T09:28:46Z</time></trkpt><trkpt lat="39.110502555463505" lon="16.14202287576771"><ele>170.0</ele><time>2026-05-03T09:28:47Z</time></trkpt><trkpt lat="39.11051444630848" lon="16.141796710292496"><ele>170.0</ele><time>2026-05-03T09:28:48Z</time></trkpt><trkpt lat="39.11050869807896" lon="16.14158646353337"><ele>169.25</ele><time>2026-05-03T09:28:49Z</time></trkpt><trkpt lat="39.110486075343054" lon="16.141399049948355"><ele>168.5</ele><time>2026-05-03T09:28:50Z</time></trkpt><trkpt lat="39.11045606532491" lon="16.141238079703953"><ele>167.75</ele><time>2026-05-03T09:28:51Z</time></trkpt><trkpt lat="39.110427547369845" lon="16.141099152583003"><ele>167.0</ele><time>2026-05-03T09:28:52Z</time></trkpt><trkpt lat="39.11039748935363" lon="16.140969481053048"><ele>167.0</ele><time>2026-05-03T09:28:53Z</time></trkpt><trkpt lat="39.110358095059965" lon="16.14083909115261"><ele>167.0</ele><time>2026-05-03T09:28:54Z</time></trkpt><trkpt lat="39.11032284619507" lon="16.14072116249069"><ele>167.0</ele><time>2026-05-03T09:28:55Z</time></trkpt><trkpt lat="39.110301722356205" lon="16.14061289927732"><ele>167.0</ele><time>2026-05-03T09:28:56Z</time></trkpt><trkpt lat="39.11028140791216" lon="16.14051377277145"><ele>167.0</ele><time>2026-05-03T09:28:57Z</time></trkpt><trkpt lat="39.110258646845125" lon="16.140420795730858"><ele>167.0</ele><time>2026-05-03T09:28:58Z</time></trkpt><trkpt lat="39.11023046834806" lon="16.14033612179474"><ele>166.5</ele><time>2026-05-03T09:28:59Z</time></trkpt><trkpt lat="39.11020646543318" lon="16.140250483872535"><ele>166.0</ele><time>2026-05-03T09:29:00Z</time></trkpt><trkpt lat="39.11017624083018" lon="16.14016022330844"><ele>165.5</ele><time>2026-05-03T09:29:01Z</time></trkpt><trkpt lat="39.11014913532335" lon="16.140072152366372"><ele>165.0</ele><time>2026-05-03T09:29:02Z</time></trkpt><trkpt lat="39.1101289167262" lon="16.13998747167129"><ele>164.5</ele><time>2026-05-03T09:29:03Z</time></trkpt><trkpt lat="39.11009390205941" lon="16.139847447372148"><ele>164.0</ele><time>2026-05-03T09:29:05Z</time></trkpt><trkpt lat="39.11005784600328" lon="16.13971368622046"><ele>164.0</ele><time>2026-05-03T09:29:07Z</time></trkpt><trkpt lat="39.11002506981701" lon="16.13958815206587"><ele>164.0</ele><time>2026-05-03T09:29:09Z</time></trkpt><trkpt lat="39.10996168607633" lon="16.139472418239023"><ele>164.0</ele><time>2026-05-03T09:29:11Z</time></trkpt><trkpt lat="39.109884869847356" lon="16.139352183990948"><ele>164.0</ele><time>2026-05-03T09:29:13Z</time></trkpt><trkpt lat="39.10983116824143" lon="16.13928786776656"><ele>164.0</ele><time>2026-05-03T09:29:14Z</time></trkpt><trkpt lat="39.10977102223534" lon="16.13920945758135"><ele>162.6</ele><time>2026-05-03T09:29:15Z</time></trkpt><trkpt lat="39.10971245885728" lon="16.139115352971846"><ele>161.2</ele><time>2026-05-03T09:29:16Z</time></trkpt><trkpt lat="39.10964893409262" lon="16.139014192018397"><ele>159.79999999999998</ele><time>2026-05-03T09:29:17Z</time></trkpt><trkpt lat="39.109581585800285" lon="16.138904296259348"><ele>158.39999999999998</ele><time>2026-05-03T09:29:18Z</time></trkpt><trkpt lat="39.10951499133506" lon="16.13878587649908"><ele>157.0</ele><time>2026-05-03T09:29:19Z</time></trkpt><trkpt lat="39.109441261243035" lon="16.138662945224727"><ele>156.75</ele><time>2026-05-03T09:29:20Z</time></trkpt><trkpt lat="39.109359677892435" lon="16.138539154313726"><ele>156.5</ele><time>2026-05-03T09:29:21Z</time></trkpt><trkpt lat="39.10927918776204" lon="16.13840986012418"><ele>156.25</ele><time>2026-05-03T09:29:22Z</time></trkpt><trkpt lat="39.109200842028194" lon="16.138272955812187"><ele>156.0</ele><time>2026-05-03T09:29:23Z</time></trkpt><trkpt lat="39.109115791541996" lon="16.138132155590917"><ele>154.0</ele><time>2026-05-03T09:29:24Z</time></trkpt><trkpt lat="39.10902933823521" lon="16.137990033445153"><ele>152.0</ele><time>2026-05-03T09:29:25Z</time></trkpt><trkpt lat="39.10893943048125" lon="16.137845936117557"><ele>150.0</ele><time>2026-05-03T09:29:26Z</time></trkpt><trkpt lat="39.10884666594441" lon="16.137702901250144"><ele>148.0</ele><time>2026-05-03T09:29:27Z</time></trkpt><trkpt lat="39.108753020698835" lon="16.137559713145045"><ele>148.0</ele><time>2026-05-03T09:29:28Z</time></trkpt><trkpt lat="39.108661695721864" lon="16.137413915139465"><ele>148.0</ele><time>2026-05-03T09:29:29Z</time></trkpt><trkpt lat="39.10856749450182" lon="16.137269111775495"><ele>148.0</ele><time>2026-05-03T09:29:30Z</time></trkpt><trkpt lat="39.10847236942445" lon="16.137124838489417"><ele>148.0</ele><time>2026-05-03T09:29:31Z</time></trkpt><trkpt lat="39.10837938029326" lon="16.13697623280311"><ele>148.0</ele><time>2026-05-03T09:29:32Z</time></trkpt><trkpt lat="39.10828758605389" lon="16.136824910728816"><ele>148.0</ele><time>2026-05-03T09:29:33Z</time></trkpt><trkpt lat="39.108200791308654" lon="16.136667391753086"><ele>148.0</ele><time>2026-05-03T09:29:34Z</time></trkpt><trkpt lat="39.10812323341839" lon="16.13650069097047"><ele>146.66666666666669</ele><time>2026-05-03T09:29:35Z</time></trkpt><trkpt lat="39.10805096329374" lon="16.136330608867002"><ele>145.33333333333334</ele><time>2026-05-03T09:29:36Z</time></trkpt><trkpt lat="39.10797587233138" lon="16.13616094031845"><ele>144.0</ele><time>2026-05-03T09:29:37Z</time></trkpt><trkpt lat="39.107899084081545" lon="16.135987651059445"><ele>144.0</ele><time>2026-05-03T09:29:38Z</time></trkpt><trkpt lat="39.107824758972214" lon="16.13580933880851"><ele>144.0</ele><time>2026-05-03T09:29:39Z</time></trkpt><trkpt lat="39.10774964336325" lon="16.135629358523683"><ele>144.0</ele><time>2026-05-03T09:29:40Z</time></trkpt><trkpt lat="39.10766732159988" lon="16.13543974064443"><ele>144.0</ele><time>2026-05-03T09:29:41Z</time></trkpt><trkpt lat="39.10758214455932" lon="16.13524611108026"><ele>144.0</ele><time>2026-05-03T09:29:42Z</time></trkpt><trkpt lat="39.107492495744765" lon="16.13504956388625"><ele>144.0</ele><time>2026-05-03T09:29:43Z</time></trkpt><trkpt lat="39.107401716975936" lon="16.134851557003195"><ele>142.0</ele><time>2026-05-03T09:29:44Z</time></trkpt><trkpt lat="39.107311182330555" lon="16.134647818182223"><ele>140.0</ele><time>2026-05-03T09:29:45Z</time></trkpt><trkpt lat="39.107226791903244" lon="16.13444487118638"><ele>138.0</ele><time>2026-05-03T09:29:46Z</time></trkpt><trkpt lat="39.10714479728938" lon="16.134244123884066"><ele>138.33333333333334</ele><time>2026-05-03T09:29:47Z</time></trkpt><trkpt lat="39.10706168771988" lon="16.134045108935307"><ele>138.66666666666669</ele><time>2026-05-03T09:29:48Z</time></trkpt><trkpt lat="39.10697516552837" lon="16.133852284155573"><ele>139.0</ele><time>2026-05-03T09:29:49Z</time></trkpt><trkpt lat="39.106890798076726" lon="16.13366492910049"><ele>139.0</ele><time>2026-05-03T09:29:50Z</time></trkpt><trkpt lat="39.106807919014585" lon="16.13348041347608"><ele>139.0</ele><time>2026-05-03T09:29:51Z</time></trkpt><trkpt lat="39.10672870674475" lon="16.133297980705454"><ele>139.0</ele><time>2026-05-03T09:29:52Z</time></trkpt><trkpt lat="39.106652007475816" lon="16.13311365044174"><ele>138.0</ele><time>2026-05-03T09:29:53Z</time></trkpt><trkpt lat="39.1065730480523" lon="16.132932275650216"><ele>137.0</ele><time>2026-05-03T09:29:54Z</time></trkpt><trkpt lat="39.10649446401435" lon="16.132755746288804"><ele>136.0</ele><time>2026-05-03T09:29:55Z</time></trkpt><trkpt lat="39.10641752824047" lon="16.132579683886902"><ele>136.0</ele><time>2026-05-03T09:29:56Z</time></trkpt><trkpt lat="39.10633859242366" lon="16.13241035879187"><ele>136.0</ele><time>2026-05-03T09:29:57Z</time></trkpt><trkpt lat="39.106257435220336" lon="16.132246620634003"><ele>136.0</ele><time>2026-05-03T09:29:58Z</time></trkpt><trkpt lat="39.10617501739513" lon="16.132089727875563"><ele>135.2</ele><time>2026-05-03T09:29:59Z</time></trkpt><trkpt lat="39.10609228797086" lon="16.13195928228009"><ele>134.39999999999998</ele><time>2026-05-03T09:30:00Z</time></trkpt><trkpt lat="39.106018007759296" lon="16.13186165317194"><ele>133.6</ele><time>2026-05-03T09:30:01Z</time></trkpt><trkpt lat="39.105956646022804" lon="16.13179516382782"><ele>132.79999999999998</ele><time>2026-05-03T09:30:02Z</time></trkpt><trkpt lat="39.105900788438696" lon="16.131742973993116"><ele>132.0</ele><time>2026-05-03T09:30:03Z</time></trkpt><trkpt lat="39.10580794532534" lon="16.131642029888493"><ele>132.79999999999998</ele><time>2026-05-03T09:30:05Z</time></trkpt><trkpt lat="39.10568527084441" lon="16.131584990187335"><ele>133.6</ele><time>2026-05-03T09:30:07Z</time></trkpt><trkpt lat="39.105605861425964" lon="16.131560782399834"><ele>134.39999999999998</ele><time>2026-05-03T09:30:08Z</time></trkpt><trkpt lat="39.10552494111122" lon="16.13150739780515"><ele>135.2</ele><time>2026-05-03T09:30:09Z</time></trkpt><trkpt lat="39.10544615032931" lon="16.131482833990553"><ele>136.0</ele><time>2026-05-03T09:30:09.999Z</time></trkpt><trkpt lat="39.105374456663554" lon="16.131465436041616"><ele>136.0</ele><time>2026-05-03T09:30:10.999Z</time></trkpt><trkpt lat="39.105308764152845" lon="16.131452255473"><ele>136.0</ele><time>2026-05-03T09:30:11.999Z</time></trkpt><trkpt lat="39.10519367097523" lon="16.131439569758985"><ele>136.0</ele><time>2026-05-03T09:30:13.999Z</time></trkpt><trkpt lat="39.10511057122282" lon="16.1314402136176"><ele>136.0</ele><time>2026-05-03T09:30:16Z</time></trkpt><trkpt lat="39.10504725165081" lon="16.131443303007806"><ele>136.0</ele><time>2026-05-03T09:30:18Z</time></trkpt><trkpt lat="39.10508385630469" lon="16.131649632044187"><ele>136.0</ele><time>2026-05-03T09:30:25Z</time></trkpt><trkpt lat="39.10515148859596" lon="16.131674128818855"><ele>136.0</ele><time>2026-05-03T09:30:26Z</time></trkpt><trkpt lat="39.10521459919418" lon="16.131698232037056"><ele>136.0</ele><time>2026-05-03T09:30:27Z</time></trkpt><trkpt lat="39.10528879283372" lon="16.131729529945176"><ele>136.0</ele><time>2026-05-03T09:30:28Z</time></trkpt><trkpt lat="39.105354955550254" lon="16.13173809905671"><ele>136.0</ele><time>2026-05-03T09:30:29Z</time></trkpt><trkpt lat="39.10546784939971" lon="16.13174940169943"><ele>136.0</ele><time>2026-05-03T09:30:31Z</time></trkpt><trkpt lat="39.10539072137189" lon="16.13171735949502"><ele>136.0</ele><time>2026-05-03T09:31:11Z</time></trkpt><trkpt lat="39.105265975505304" lon="16.131711770857496"><ele>136.0</ele><time>2026-05-03T09:31:13Z</time></trkpt><trkpt lat="39.1051619741353" lon="16.131439811831775"><ele>136.0</ele><time>2026-05-03T09:31:15Z</time></trkpt><trkpt lat="39.105093841446134" lon="16.131440902181392"><ele>136.0</ele><time>2026-05-03T09:31:24Z</time></trkpt><trkpt lat="39.105023105476846" lon="16.131443813570957"><ele>136.16666666666669</ele><time>2026-05-03T09:31:26Z</time></trkpt><trkpt lat="39.10494367822091" lon="16.131445089936527"><ele>136.33333333333334</ele><time>2026-05-03T09:31:39Z</time></trkpt><trkpt lat="39.10486531519798" lon="16.131480003141228"><ele>136.5</ele><time>2026-05-03T09:31:41Z</time></trkpt><trkpt lat="39.10478359653879" lon="16.131504900162895"><ele>136.66666666666666</ele><time>2026-05-03T09:31:43Z</time></trkpt><trkpt lat="39.104695649924366" lon="16.131539671369776"><ele>136.83333333333331</ele><time>2026-05-03T09:31:45Z</time></trkpt><trkpt lat="39.1046185720352" lon="16.13156086609212"><ele>137.0</ele><time>2026-05-03T09:31:47Z</time></trkpt><trkpt lat="39.10454066201017" lon="16.13159260325267"><ele>137.0</ele><time>2026-05-03T09:31:49Z</time></trkpt><trkpt lat="39.104458756500584" lon="16.13162492307365"><ele>137.0</ele><time>2026-05-03T09:31:51Z</time></trkpt><trkpt lat="39.10437342207777" lon="16.131658074768957"><ele>137.0</ele><time>2026-05-03T09:31:53Z</time></trkpt><trkpt lat="39.10428270855361" lon="16.13169274256936"><ele>137.0</ele><time>2026-05-03T09:31:54.999Z</time></trkpt><trkpt lat="39.10419675544996" lon="16.131736209649493"><ele>137.0</ele><time>2026-05-03T09:31:56.999Z</time></trkpt><trkpt lat="39.1040973520932" lon="16.131751930596486"><ele>135.6</ele><time>2026-05-03T09:31:58.999Z</time></trkpt><trkpt lat="39.10398349108235" lon="16.13176947433274"><ele>134.2</ele><time>2026-05-03T09:32:00.999Z</time></trkpt><trkpt lat="39.1038705472424" lon="16.13176973456533"><ele>132.8</ele><time>2026-05-03T09:32:02.999Z</time></trkpt><trkpt lat="39.10376183021292" lon="16.131775530442034"><ele>131.4</ele><time>2026-05-03T09:32:04.999Z</time></trkpt><trkpt lat="39.10365653485619" lon="16.131762030228668"><ele>130.0</ele><time>2026-05-03T09:32:06.999Z</time></trkpt><trkpt lat="39.10355097278572" lon="16.13171743995963"><ele>130.0</ele><time>2026-05-03T09:32:08.999Z</time></trkpt><trkpt lat="39.1034438550345" lon="16.131679314576186"><ele>130.0</ele><time>2026-05-03T09:32:10.999Z</time></trkpt><trkpt lat="39.10333622930208" lon="16.131615723136303"><ele>130.0</ele><time>2026-05-03T09:32:12.999Z</time></trkpt><trkpt lat="39.10323014132277" lon="16.13154675029446"><ele>130.0</ele><time>2026-05-03T09:32:14.999Z</time></trkpt><trkpt lat="39.10312555523218" lon="16.13146985296081"><ele>129.2857142857143</ele><time>2026-05-03T09:32:16.999Z</time></trkpt><trkpt lat="39.10306971913479" lon="16.13142616422687"><ele>128.57142857142858</ele><time>2026-05-03T09:32:17.999Z</time></trkpt><trkpt lat="39.10301628298832" lon="16.131379461515795"><ele>127.85714285714286</ele><time>2026-05-03T09:32:18.999Z</time></trkpt><trkpt lat="39.10296654490811" lon="16.131322850962874"><ele>127.14285714285715</ele><time>2026-05-03T09:32:19.999Z</time></trkpt><trkpt lat="39.102917970524565" lon="16.131264399608757"><ele>126.42857142857144</ele><time>2026-05-03T09:32:21Z</time></trkpt><trkpt lat="39.102874973096924" lon="16.13120248505338"><ele>125.71428571428571</ele><time>2026-05-03T09:32:22Z</time></trkpt><trkpt lat="39.10282944319127" lon="16.131139801697188"><ele>125.0</ele><time>2026-05-03T09:32:23Z</time></trkpt><trkpt lat="39.102785434072324" lon="16.13107148777427"><ele>125.0</ele><time>2026-05-03T09:32:24Z</time></trkpt><trkpt lat="39.102742361237354" lon="16.13099962421264"><ele>125.0</ele><time>2026-05-03T09:32:25Z</time></trkpt><trkpt lat="39.102703485401605" lon="16.13092192726026"><ele>125.0</ele><time>2026-05-03T09:32:26Z</time></trkpt><trkpt lat="39.10266613826613" lon="16.130842542240718"><ele>125.0</ele><time>2026-05-03T09:32:27Z</time></trkpt><trkpt lat="39.10263271648126" lon="16.1307578253191"><ele>125.0</ele><time>2026-05-03T09:32:28Z</time></trkpt><trkpt lat="39.10261292584356" lon="16.130664167919402"><ele>125.0</ele><time>2026-05-03T09:32:29Z</time></trkpt><trkpt lat="39.102596619059874" lon="16.130572559021243"><ele>125.0</ele><time>2026-05-03T09:32:30Z</time></trkpt><trkpt lat="39.10257764807863" lon="16.130476495285734"><ele>125.33333333333333</ele><time>2026-05-03T09:32:31Z</time></trkpt><trkpt lat="39.102558333864984" lon="16.130378348938393"><ele>125.66666666666666</ele><time>2026-05-03T09:32:32Z</time></trkpt><trkpt lat="39.10253956374394" lon="16.130277481225924"><ele>126.0</ele><time>2026-05-03T09:32:33Z</time></trkpt><trkpt lat="39.1025244078224" lon="16.13017302903815"><ele>126.33333333333334</ele><time>2026-05-03T09:32:34Z</time></trkpt><trkpt lat="39.10251284941326" lon="16.130066019120992"><ele>126.66666666666667</ele><time>2026-05-03T09:32:35Z</time></trkpt><trkpt lat="39.1025021757868" lon="16.129959966148398"><ele>127.0</ele><time>2026-05-03T09:32:36Z</time></trkpt><trkpt lat="39.10248845106694" lon="16.129854728717305"><ele>127.00000000000001</ele><time>2026-05-03T09:32:37Z</time></trkpt><trkpt lat="39.1024735531709" lon="16.12975093773137"><ele>127.0</ele><time>2026-05-03T09:32:38Z</time></trkpt><trkpt lat="39.10246279733834" lon="16.129649498054842"><ele>127.0</ele><time>2026-05-03T09:32:39Z</time></trkpt><trkpt lat="39.10244781110987" lon="16.129552826013146"><ele>127.0</ele><time>2026-05-03T09:32:40Z</time></trkpt><trkpt lat="39.10243461425734" lon="16.129471535757354"><ele>127.00000000000001</ele><time>2026-05-03T09:32:41Z</time></trkpt><trkpt lat="39.10240233918855" lon="16.129363291966996"><ele>127.0</ele><time>2026-05-03T09:32:43Z</time></trkpt><trkpt lat="39.10232642436609" lon="16.129550203205298"><ele>126.0</ele><time>2026-05-03T09:32:47Z</time></trkpt><trkpt lat="39.10233075438507" lon="16.129674409546837"><ele>124.99999999999999</ele><time>2026-05-03T09:32:47.999Z</time></trkpt><trkpt lat="39.10231976362833" lon="16.12979135167509"><ele>123.99999999999999</ele><time>2026-05-03T09:32:48.999Z</time></trkpt><trkpt lat="39.10229952949905" lon="16.129961659145625"><ele>123.0</ele><time>2026-05-03T09:32:50.999Z</time></trkpt><trkpt lat="39.10228525371528" lon="16.130064547092896"><ele>122.0</ele><time>2026-05-03T09:32:51.999Z</time></trkpt><trkpt lat="39.10228110286528" lon="16.130148004705344"><ele>122.0</ele><time>2026-05-03T09:32:52.999Z</time></trkpt><trkpt lat="39.10245823829033" lon="16.130353194098642"><ele>122.0</ele><time>2026-05-03T09:32:57.999Z</time></trkpt><trkpt lat="39.10231136680609" lon="16.13044303281059"><ele>122.0</ele><time>2026-05-03T09:33:04.999Z</time></trkpt><trkpt lat="39.10248400865768" lon="16.130524084426007"><ele>122.6</ele><time>2026-05-03T09:33:56.999Z</time></trkpt><trkpt lat="39.10250822426923" lon="16.130652595393176"><ele>123.19999999999999</ele><time>2026-05-03T09:33:58.999Z</time></trkpt><trkpt lat="39.10253095469721" lon="16.130749024132502"><ele>123.8</ele><time>2026-05-03T09:34:00.999Z</time></trkpt><trkpt lat="39.10244967687469" lon="16.130924423455436"><ele>124.4</ele><time>2026-05-03T09:34:17.998Z</time></trkpt><trkpt lat="39.102395964525535" lon="16.130990025809133"><ele>125.0</ele><time>2026-05-03T09:34:38Z</time></trkpt><trkpt lat="39.102311601008886" lon="16.130968325604787"><ele>124.4</ele><time>2026-05-03T09:34:43Z</time></trkpt><trkpt lat="39.102223197227005" lon="16.130877449450455"><ele>123.8</ele><time>2026-05-03T09:34:45Z</time></trkpt><trkpt lat="39.10217254352219" lon="16.13076178483924"><ele>123.19999999999999</ele><time>2026-05-03T09:34:47Z</time></trkpt><trkpt lat="39.102139671546325" lon="16.130689883482287"><ele>122.6</ele><time>2026-05-03T09:34:49Z</time></trkpt><trkpt lat="39.102080672465455" lon="16.13062758248684"><ele>122.0</ele><time>2026-05-03T09:36:06.999Z</time></trkpt><trkpt lat="39.10202678434887" lon="16.13052737013695"><ele>122.0</ele><time>2026-05-03T09:36:08.999Z</time></trkpt><trkpt lat="39.10193602230062" lon="16.130424501138336"><ele>121.99999999999999</ele><time>2026-05-03T09:36:10.999Z</time></trkpt><trkpt lat="39.10185861400544" lon="16.1303463750735"><ele>121.99999999999999</ele><time>2026-05-03T09:36:12.999Z</time></trkpt><trkpt lat="39.101778278182685" lon="16.130273182108116"><ele>122.0</ele><time>2026-05-03T09:36:15.999Z</time></trkpt><trkpt lat="39.10175787488927" lon="16.13018805353284"><ele>122.0</ele><time>2026-05-03T09:36:17.999Z</time></trkpt><trkpt lat="39.10168882939143" lon="16.130155535523617"><ele>121.99999999999999</ele><time>2026-05-03T09:36:24.999Z</time></trkpt><trkpt lat="39.10161054619018" lon="16.130167568632555"><ele>122.0</ele><time>2026-05-03T09:36:26.999Z</time></trkpt><trkpt lat="39.101532659939735" lon="16.130202982344493"><ele>122.0</ele><time>2026-05-03T09:36:28.999Z</time></trkpt><trkpt lat="39.101506190775375" lon="16.130335887746888"><ele>122.0</ele><time>2026-05-03T09:36:30.999Z</time></trkpt><trkpt lat="39.101507583156916" lon="16.130423016317575"><ele>121.99999999999999</ele><time>2026-05-03T09:36:32Z</time></trkpt><trkpt lat="39.101528324869726" lon="16.130515909821437"><ele>122.0</ele><time>2026-05-03T09:36:33Z</time></trkpt><trkpt lat="39.10154889084739" lon="16.130598246887427"><ele>123.33333333333333</ele><time>2026-05-03T09:36:34Z</time></trkpt><trkpt lat="39.10158334557956" lon="16.130730750863254"><ele>124.66666666666666</ele><time>2026-05-03T09:36:36Z</time></trkpt><trkpt lat="39.101606539827394" lon="16.13080691462288"><ele>126.0</ele><time>2026-05-03T09:36:37Z</time></trkpt><trkpt lat="39.10162919810408" lon="16.130888101546088"><ele>127.33333333333334</ele><time>2026-05-03T09:36:38Z</time></trkpt><trkpt lat="39.101649486332114" lon="16.13098308903924"><ele>128.66666666666669</ele><time>2026-05-03T09:36:39Z</time></trkpt><trkpt lat="39.10167193225188" lon="16.131079741099477"><ele>130.0</ele><time>2026-05-03T09:36:40Z</time></trkpt><trkpt lat="39.101698085641225" lon="16.131190374875658"><ele>130.0</ele><time>2026-05-03T09:36:41Z</time></trkpt><trkpt lat="39.10171542631255" lon="16.131307613019608"><ele>130.0</ele><time>2026-05-03T09:36:42Z</time></trkpt><trkpt lat="39.10172982194949" lon="16.13143497450721"><ele>130.0</ele><time>2026-05-03T09:36:43Z</time></trkpt><trkpt lat="39.10174318262895" lon="16.131564207292175"><ele>130.0</ele><time>2026-05-03T09:36:44Z</time></trkpt><trkpt lat="39.101760493950785" lon="16.131707603731368"><ele>130.0</ele><time>2026-05-03T09:36:45Z</time></trkpt><trkpt lat="39.101795373517376" lon="16.131853579934063"><ele>132.2</ele><time>2026-05-03T09:36:46Z</time></trkpt><trkpt lat="39.10182082025258" lon="16.13199474407575"><ele>134.4</ele><time>2026-05-03T09:36:47Z</time></trkpt><trkpt lat="39.10182290818989" lon="16.132122758784327"><ele>136.6</ele><time>2026-05-03T09:36:48Z</time></trkpt><trkpt lat="39.101814248287646" lon="16.13224607313762"><ele>138.8</ele><time>2026-05-03T09:36:49Z</time></trkpt><trkpt lat="39.10182900271535" lon="16.132360259389046"><ele>141.0</ele><time>2026-05-03T09:36:50Z</time></trkpt><trkpt lat="39.10183823795662" lon="16.13244381648522"><ele>141.0</ele><time>2026-05-03T09:36:51Z</time></trkpt><trkpt lat="39.101828975253376" lon="16.13252482118043"><ele>141.0</ele><time>2026-05-03T09:36:52Z</time></trkpt><trkpt lat="39.10180185662641" lon="16.132624520316437"><ele>141.0</ele><time>2026-05-03T09:36:53Z</time></trkpt><trkpt lat="39.101779813113566" lon="16.132714014054155"><ele>141.0</ele><time>2026-05-03T09:36:54Z</time></trkpt><trkpt lat="39.10173950932494" lon="16.132800911166562"><ele>141.0</ele><time>2026-05-03T09:36:55Z</time></trkpt><trkpt lat="39.101677970230355" lon="16.132880800887193"><ele>141.0</ele><time>2026-05-03T09:36:56Z</time></trkpt><trkpt lat="39.101623404307325" lon="16.132953256213536"><ele>149.6</ele><time>2026-05-03T09:36:57Z</time></trkpt><trkpt lat="39.10152517927506" lon="16.133017933261495"><ele>158.2</ele><time>2026-05-03T09:36:59Z</time></trkpt><trkpt lat="39.10144034219512" lon="16.13296728038345"><ele>166.79999999999998</ele><time>2026-05-03T09:37:01Z</time></trkpt><trkpt lat="39.1014349779094" lon="16.132829706405314"><ele>175.39999999999998</ele><time>2026-05-03T09:37:03Z</time></trkpt><trkpt lat="39.101488137939484" lon="16.132737481667924"><ele>184.0</ele><time>2026-05-03T09:37:05Z</time></trkpt><trkpt lat="39.10153514855013" lon="16.132660031518775"><ele>184.0</ele><time>2026-05-03T09:37:07Z</time></trkpt><trkpt lat="39.1015249999045" lon="16.132577915192748"><ele>184.0</ele><time>2026-05-03T09:37:08Z</time></trkpt><trkpt lat="39.10150496618679" lon="16.132475139074767"><ele>184.0</ele><time>2026-05-03T09:37:09Z</time></trkpt><trkpt lat="39.10148291245733" lon="16.13237850906192"><ele>184.0</ele><time>2026-05-03T09:37:10Z</time></trkpt><trkpt lat="39.101452211688056" lon="16.13227552818166"><ele>184.0</ele><time>2026-05-03T09:37:11Z</time></trkpt><trkpt lat="39.10141814485322" lon="16.132183932421295"><ele>184.0</ele><time>2026-05-03T09:37:12Z</time></trkpt><trkpt lat="39.10138546907575" lon="16.132087611542243"><ele>184.57142857142858</ele><time>2026-05-03T09:37:13Z</time></trkpt><trkpt lat="39.10136028597243" lon="16.132000179165992"><ele>185.14285714285714</ele><time>2026-05-03T09:37:14Z</time></trkpt><trkpt lat="39.101337402224075" lon="16.13191167586536"><ele>185.71428571428572</ele><time>2026-05-03T09:37:15Z</time></trkpt><trkpt lat="39.10131755010036" lon="16.13182578971899"><ele>186.28571428571428</ele><time>2026-05-03T09:37:16Z</time></trkpt><trkpt lat="39.10129679651671" lon="16.13174046505282"><ele>186.85714285714283</ele><time>2026-05-03T09:37:17Z</time></trkpt><trkpt lat="39.101276649902374" lon="16.1316551998032"><ele>187.42857142857142</ele><time>2026-05-03T09:37:18Z</time></trkpt><trkpt lat="39.101263998776446" lon="16.131566695093863"><ele>188.0</ele><time>2026-05-03T09:37:19Z</time></trkpt><trkpt lat="39.10125023758879" lon="16.13148743010241"><ele>186.33333333333331</ele><time>2026-05-03T09:37:20Z</time></trkpt><trkpt lat="39.10121382647579" lon="16.13141943349198"><ele>184.66666666666666</ele><time>2026-05-03T09:37:21Z</time></trkpt><trkpt lat="39.10115766483981" lon="16.13134753713257"><ele>183.0</ele><time>2026-05-03T09:37:22Z</time></trkpt><trkpt lat="39.10109289994226" lon="16.131259972250977"><ele>181.33333333333334</ele><time>2026-05-03T09:37:23Z</time></trkpt><trkpt lat="39.101036433885696" lon="16.131169388719446"><ele>179.66666666666669</ele><time>2026-05-03T09:37:24Z</time></trkpt><trkpt lat="39.10096976405659" lon="16.131069193327487"><ele>178.0</ele><time>2026-05-03T09:37:25Z</time></trkpt><trkpt lat="39.10088897991774" lon="16.130960790620485"><ele>178.0</ele><time>2026-05-03T09:37:26Z</time></trkpt><trkpt lat="39.10080329909701" lon="16.130858248038937"><ele>178.0</ele><time>2026-05-03T09:37:27Z</time></trkpt><trkpt lat="39.10074100692382" lon="16.130793705426626"><ele>178.0</ele><time>2026-05-03T09:37:28Z</time></trkpt><trkpt lat="39.100666420467135" lon="16.130876240955175"><ele>178.0</ele><time>2026-05-03T09:37:31Z</time></trkpt><trkpt lat="39.10067695178688" lon="16.13096887312553"><ele>178.0</ele><time>2026-05-03T09:37:32Z</time></trkpt><trkpt lat="39.10068535075101" lon="16.131067251334166"><ele>178.0</ele><time>2026-05-03T09:37:33Z</time></trkpt><trkpt lat="39.10068916894094" lon="16.13118114229871"><ele>183.42857142857142</ele><time>2026-05-03T09:37:34Z</time></trkpt><trkpt lat="39.100682198762144" lon="16.131274658116265"><ele>188.85714285714286</ele><time>2026-05-03T09:37:35Z</time></trkpt><trkpt lat="39.10066222763954" lon="16.131357005383133"><ele>194.28571428571428</ele><time>2026-05-03T09:37:36Z</time></trkpt><trkpt lat="39.10063863327332" lon="16.131439930569258"><ele>199.71428571428572</ele><time>2026-05-03T09:37:37Z</time></trkpt><trkpt lat="39.10061708916978" lon="16.13152166219002"><ele>205.14285714285714</ele><time>2026-05-03T09:37:38Z</time></trkpt><trkpt lat="39.100589225260414" lon="16.131607468972458"><ele>210.57142857142856</ele><time>2026-05-03T09:37:39Z</time></trkpt><trkpt lat="39.10055993465312" lon="16.131693205677475"><ele>216.0</ele><time>2026-05-03T09:37:40Z</time></trkpt><trkpt lat="39.100529949791394" lon="16.131778089254112"><ele>216.0</ele><time>2026-05-03T09:37:41Z</time></trkpt><trkpt lat="39.10049331795445" lon="16.131871236694998"><ele>216.0</ele><time>2026-05-03T09:37:42Z</time></trkpt><trkpt lat="39.10046144984345" lon="16.131978137913396"><ele>216.0</ele><time>2026-05-03T09:37:43Z</time></trkpt><trkpt lat="39.100437394413284" lon="16.13207973249515"><ele>216.0</ele><time>2026-05-03T09:37:44Z</time></trkpt><trkpt lat="39.10041202431597" lon="16.13217785563206"><ele>216.0</ele><time>2026-05-03T09:37:45Z</time></trkpt><trkpt lat="39.10040959984636" lon="16.13226530134625"><ele>216.0</ele><time>2026-05-03T09:37:46Z</time></trkpt><trkpt lat="39.10041070634515" lon="16.132361102689934"><ele>216.0</ele><time>2026-05-03T09:37:47Z</time></trkpt><trkpt lat="39.10039308385298" lon="16.132470020648633"><ele>216.00000000000003</ele><time>2026-05-03T09:37:48Z</time></trkpt><trkpt lat="39.100360210523355" lon="16.1325492529488"><ele>216.00000000000003</ele><time>2026-05-03T09:37:49Z</time></trkpt><trkpt lat="39.100272554615415" lon="16.13253493464182"><ele>216.0</ele><time>2026-05-03T09:37:51Z</time></trkpt><trkpt lat="39.10020071589234" lon="16.13243898014555"><ele>216.0</ele><time>2026-05-03T09:37:53Z</time></trkpt><trkpt lat="39.10010744964769" lon="16.132274493599365"><ele>216.0</ele><time>2026-05-03T09:37:55Z</time></trkpt><trkpt lat="39.10004210519735" lon="16.132158091059285"><ele>216.00000000000003</ele><time>2026-05-03T09:37:55.999Z</time></trkpt><trkpt lat="39.099986578199434" lon="16.132056556868825"><ele>216.00000000000003</ele><time>2026-05-03T09:37:56.999Z</time></trkpt><trkpt lat="39.09995264591416" lon="16.131963130875402"><ele>216.0</ele><time>2026-05-03T09:37:57.999Z</time></trkpt><trkpt lat="39.09992723332479" lon="16.131855947172546"><ele>216.0</ele><time>2026-05-03T09:37:58.999Z</time></trkpt><trkpt lat="39.09991693743717" lon="16.131744531494725"><ele>223.8</ele><time>2026-05-03T09:37:59.999Z</time></trkpt><trkpt lat="39.099911695102605" lon="16.131654206380112"><ele>231.60000000000002</ele><time>2026-05-03T09:38:00.999Z</time></trkpt><trkpt lat="39.099887153418386" lon="16.13150430729666"><ele>239.4</ele><time>2026-05-03T09:38:02.999Z</time></trkpt><trkpt lat="39.09987485109724" lon="16.13134547288246"><ele>247.2</ele><time>2026-05-03T09:38:04.999Z</time></trkpt><trkpt lat="39.09987302974721" lon="16.13125785646531"><ele>255.0</ele><time>2026-05-03T09:38:05.999Z</time></trkpt><trkpt lat="39.09986466765536" lon="16.131150883486743"><ele>255.0</ele><time>2026-05-03T09:38:06.999Z</time></trkpt><trkpt lat="39.09984233251618" lon="16.13102980977293"><ele>255.0</ele><time>2026-05-03T09:38:07.999Z</time></trkpt><trkpt lat="39.099810572949615" lon="16.130917653129732"><ele>255.0</ele><time>2026-05-03T09:38:08.999Z</time></trkpt><trkpt lat="39.09977567938995" lon="16.130831075599207"><ele>255.0</ele><time>2026-05-03T09:38:09.999Z</time></trkpt><trkpt lat="39.0997148331455" lon="16.130726507762375"><ele>255.0</ele><time>2026-05-03T09:38:11.999Z</time></trkpt><trkpt lat="39.0996598482265" lon="16.130662890115392"><ele>255.0</ele><time>2026-05-03T09:38:14.999Z</time></trkpt><trkpt lat="39.0995863883489" lon="16.130700312617304"><ele>254.83333333333334</ele><time>2026-05-03T09:38:22.999Z</time></trkpt><trkpt lat="39.09954907763733" lon="16.130595054960985"><ele>254.66666666666669</ele><time>2026-05-03T09:38:24.999Z</time></trkpt><trkpt lat="39.099594983040554" lon="16.130475157465593"><ele>254.5</ele><time>2026-05-03T09:42:40.999Z</time></trkpt><trkpt lat="39.099589420110284" lon="16.130393792328157"><ele>254.33333333333334</ele><time>2026-05-03T09:42:41.999Z</time></trkpt><trkpt lat="39.0995675096818" lon="16.130295730446843"><ele>254.16666666666669</ele><time>2026-05-03T09:42:42.999Z</time></trkpt><trkpt lat="39.099535665410755" lon="16.13018851883674"><ele>254.0</ele><time>2026-05-03T09:42:43.999Z</time></trkpt><trkpt lat="39.09949220165883" lon="16.13006078631264"><ele>254.00000000000003</ele><time>2026-05-03T09:42:44.999Z</time></trkpt><trkpt lat="39.09945975217116" lon="16.12995692320943"><ele>254.0</ele><time>2026-05-03T09:42:45.999Z</time></trkpt><trkpt lat="39.099428965478296" lon="16.129868618133457"><ele>254.0</ele><time>2026-05-03T09:42:46.999Z</time></trkpt><trkpt lat="39.09939588003888" lon="16.129780098681834"><ele>254.0</ele><time>2026-05-03T09:42:47.999Z</time></trkpt><trkpt lat="39.09936125917133" lon="16.129678335354804"><ele>254.00000000000003</ele><time>2026-05-03T09:42:48.999Z</time></trkpt><trkpt lat="39.09933747301297" lon="16.12958086737922"><ele>254.0</ele><time>2026-05-03T09:42:49.999Z</time></trkpt><trkpt lat="39.099357293881845" lon="16.129391104459494"><ele>255.2</ele><time>2026-05-03T09:42:51.999Z</time></trkpt><trkpt lat="39.099340145246636" lon="16.12927738861051"><ele>256.4</ele><time>2026-05-03T09:42:52.999Z</time></trkpt><trkpt lat="39.099249156898466" lon="16.129182793955124"><ele>257.6</ele><time>2026-05-03T09:42:54.999Z</time></trkpt><trkpt lat="39.0991806880391" lon="16.129135838018243"><ele>258.8</ele><time>2026-05-03T09:42:55.999Z</time></trkpt><trkpt lat="39.09906832987981" lon="16.1290921054598"><ele>260.0</ele><time>2026-05-03T09:42:56.999Z</time></trkpt><trkpt lat="39.09895283960689" lon="16.12905862157644"><ele>260.0</ele><time>2026-05-03T09:42:57.999Z</time></trkpt><trkpt lat="39.09885694998795" lon="16.12902599255086"><ele>260.0</ele><time>2026-05-03T09:42:58.999Z</time></trkpt><trkpt lat="39.09876225352401" lon="16.12898490334596"><ele>260.0</ele><time>2026-05-03T09:42:59.999Z</time></trkpt><trkpt lat="39.09869500725024" lon="16.12893363502043"><ele>260.0</ele><time>2026-05-03T09:43:00.999Z</time></trkpt><trkpt lat="39.09863669373486" lon="16.128852763320964"><ele>260.0</ele><time>2026-05-03T09:43:01.999Z</time></trkpt><trkpt lat="39.098563590430054" lon="16.128770155368805"><ele>260.0</ele><time>2026-05-03T09:43:02.999Z</time></trkpt><trkpt lat="39.09849230451483" lon="16.1287070190497"><ele>260.0</ele><time>2026-05-03T09:43:04.999Z</time></trkpt><trkpt lat="39.09843284514555" lon="16.128569427867607"><ele>260.0</ele><time>2026-05-03T09:43:08.999Z</time></trkpt><trkpt lat="39.09838710399729" lon="16.128440978932847"><ele>260.0</ele><time>2026-05-03T09:43:09.999Z</time></trkpt><trkpt lat="39.09834690419088" lon="16.128275773880137"><ele>257.8</ele><time>2026-05-03T09:43:10.999Z</time></trkpt><trkpt lat="39.098323658854426" lon="16.12815376779988"><ele>255.6</ele><time>2026-05-03T09:43:11.999Z</time></trkpt><trkpt lat="39.098308634742494" lon="16.128057072945996"><ele>253.39999999999998</ele><time>2026-05-03T09:43:12.999Z</time></trkpt><trkpt lat="39.098287236537274" lon="16.127938496585788"><ele>251.2</ele><time>2026-05-03T09:43:13.999Z</time></trkpt><trkpt lat="39.0982641284437" lon="16.127825059586932"><ele>249.0</ele><time>2026-05-03T09:43:14.999Z</time></trkpt><trkpt lat="39.098251998189625" lon="16.127695316871904"><ele>250.5</ele><time>2026-05-03T09:43:15.999Z</time></trkpt><trkpt lat="39.09823836325879" lon="16.12756738396961"><ele>252.0</ele><time>2026-05-03T09:43:16.999Z</time></trkpt><trkpt lat="39.09824242968535" lon="16.127440997721042"><ele>253.5</ele><time>2026-05-03T09:43:17.999Z</time></trkpt><trkpt lat="39.09824666986944" lon="16.127331726427137"><ele>255.0</ele><time>2026-05-03T09:43:18.999Z</time></trkpt><trkpt lat="39.098242273127006" lon="16.127243059800378"><ele>256.5</ele><time>2026-05-03T09:43:19.999Z</time></trkpt><trkpt lat="39.098229988761446" lon="16.12715461897304"><ele>258.0</ele><time>2026-05-03T09:43:20.999Z</time></trkpt><trkpt lat="39.09820271246015" lon="16.1270791603383"><ele>258.0</ele><time>2026-05-03T09:43:21.999Z</time></trkpt><trkpt lat="39.09815970262991" lon="16.12697841209889"><ele>258.0</ele><time>2026-05-03T09:43:22.999Z</time></trkpt><trkpt lat="39.09811395745298" lon="16.12690061207982"><ele>258.0</ele><time>2026-05-03T09:43:23.999Z</time></trkpt><trkpt lat="39.09807786167787" lon="16.12680186894376"><ele>258.0</ele><time>2026-05-03T09:43:24.999Z</time></trkpt><trkpt lat="39.098041115752864" lon="16.126708487603388"><ele>258.0</ele><time>2026-05-03T09:43:25.999Z</time></trkpt><trkpt lat="39.09801111602819" lon="16.126626275090732"><ele>258.0</ele><time>2026-05-03T09:43:26.999Z</time></trkpt><trkpt lat="39.0979824888744" lon="16.126541555583668"><ele>252.5</ele><time>2026-05-03T09:43:27.999Z</time></trkpt><trkpt lat="39.09796931014334" lon="16.126461800460596"><ele>247.0</ele><time>2026-05-03T09:43:28.999Z</time></trkpt><trkpt lat="39.0979265677438" lon="16.12635099518806"><ele>241.5</ele><time>2026-05-03T09:43:30.999Z</time></trkpt><trkpt lat="39.09787481575952" lon="16.126244775759556"><ele>236.0</ele><time>2026-05-03T09:43:32.999Z</time></trkpt><trkpt lat="39.097918559366235" lon="16.126170571158998"><ele>230.5</ele><time>2026-05-03T09:43:34.999Z</time></trkpt><trkpt lat="39.09801293919546" lon="16.126220372642035"><ele>225.0</ele><time>2026-05-03T09:43:36.999Z</time></trkpt><trkpt lat="39.09807730748709" lon="16.126290121844047"><ele>225.0</ele><time>2026-05-03T09:43:37.999Z</time></trkpt><trkpt lat="39.0981619326241" lon="16.126358236518453"><ele>225.0</ele><time>2026-05-03T09:43:38.999Z</time></trkpt><trkpt lat="39.09822367790252" lon="16.12640269366641"><ele>225.0</ele><time>2026-05-03T09:43:39.999Z</time></trkpt><trkpt lat="39.09828982436378" lon="16.126459947825786"><ele>225.0</ele><time>2026-05-03T09:43:40.999Z</time></trkpt><trkpt lat="39.09838656506167" lon="16.126525087708167"><ele>225.0</ele><time>2026-05-03T09:43:41.999Z</time></trkpt><trkpt lat="39.09848071023169" lon="16.12659978144235"><ele>226.0</ele><time>2026-05-03T09:43:42.999Z</time></trkpt><trkpt lat="39.09853121851761" lon="16.126660383490073"><ele>227.0</ele><time>2026-05-03T09:43:43.999Z</time></trkpt><trkpt lat="39.09859557861511" lon="16.126709733276474"><ele>228.0</ele><time>2026-05-03T09:43:44.999Z</time></trkpt><trkpt lat="39.098678805548886" lon="16.126713965443066"><ele>229.0</ele><time>2026-05-03T09:43:45.999Z</time></trkpt><trkpt lat="39.09875819723376" lon="16.126785492125236"><ele>230.0</ele><time>2026-05-03T09:43:47.999Z</time></trkpt><trkpt lat="39.09877129066413" lon="16.126871009337908"><ele>231.0</ele><time>2026-05-03T09:43:48.999Z</time></trkpt><trkpt lat="39.098788648440696" lon="16.126996540610353"><ele>231.0</ele><time>2026-05-03T09:43:49.999Z</time></trkpt><trkpt lat="39.09883763929543" lon="16.1271365045581"><ele>231.0</ele><time>2026-05-03T09:43:50.999Z</time></trkpt><trkpt lat="39.09887897073684" lon="16.127230308190995"><ele>231.0</ele><time>2026-05-03T09:43:51.999Z</time></trkpt><trkpt lat="39.09890661664413" lon="16.12732593997211"><ele>231.0</ele><time>2026-05-03T09:43:52.999Z</time></trkpt><trkpt lat="39.09895359184876" lon="16.127399659909052"><ele>231.0</ele><time>2026-05-03T09:43:53.999Z</time></trkpt><trkpt lat="39.09900593251306" lon="16.12748331325037"><ele>231.0</ele><time>2026-05-03T09:43:54.999Z</time></trkpt><trkpt lat="39.09906831496059" lon="16.127543835939772"><ele>228.33333333333334</ele><time>2026-05-03T09:43:55.999Z</time></trkpt><trkpt lat="39.099123521121" lon="16.1275934549348"><ele>225.66666666666669</ele><time>2026-05-03T09:43:57.999Z</time></trkpt><trkpt lat="39.0991618581249" lon="16.127523292428176"><ele>223.0</ele><time>2026-05-03T09:43:59.999Z</time></trkpt><trkpt lat="39.09911997686975" lon="16.127367019235667"><ele>220.33333333333334</ele><time>2026-05-03T09:44:01.999Z</time></trkpt><trkpt lat="39.099085255368" lon="16.12726654337529"><ele>217.66666666666669</ele><time>2026-05-03T09:44:02.999Z</time></trkpt><trkpt lat="39.09909945284002" lon="16.12718642601463"><ele>215.0</ele><time>2026-05-03T09:44:03.999Z</time></trkpt><trkpt lat="39.0991611979288" lon="16.127005587561207"><ele>211.50000000000003</ele><time>2026-05-03T09:44:05.999Z</time></trkpt><trkpt lat="39.09915663204493" lon="16.126890119662356"><ele>208.0</ele><time>2026-05-03T09:44:06.999Z</time></trkpt><trkpt lat="39.09915613711577" lon="16.126788461431254"><ele>204.5</ele><time>2026-05-03T09:44:07.999Z</time></trkpt><trkpt lat="39.09915866132427" lon="16.12670596771553"><ele>201.0</ele><time>2026-05-03T09:44:08.999Z</time></trkpt><trkpt lat="39.099152074516745" lon="16.12660362979755"><ele>197.50000000000003</ele><time>2026-05-03T09:44:09.999Z</time></trkpt><trkpt lat="39.09913110075728" lon="16.1265175387328"><ele>194.0</ele><time>2026-05-03T09:44:10.999Z</time></trkpt><trkpt lat="39.099087484556314" lon="16.126411890306496"><ele>195.0</ele><time>2026-05-03T09:44:11.999Z</time></trkpt><trkpt lat="39.09905067603627" lon="16.126297569997462"><ele>196.0</ele><time>2026-05-03T09:44:12.999Z</time></trkpt><trkpt lat="39.099023878472856" lon="16.12621328970055"><ele>197.0</ele><time>2026-05-03T09:44:13.999Z</time></trkpt><trkpt lat="39.09896221314314" lon="16.126106517026965"><ele>198.0</ele><time>2026-05-03T09:44:15.999Z</time></trkpt><trkpt lat="39.09884106988734" lon="16.12601450860826"><ele>199.0</ele><time>2026-05-03T09:44:17.999Z</time></trkpt><trkpt lat="39.09877657622414" lon="16.125958536768987"><ele>199.0</ele><time>2026-05-03T09:44:18.999Z</time></trkpt><trkpt lat="39.098724015682215" lon="16.125864629555974"><ele>199.0</ele><time>2026-05-03T09:44:20.999Z</time></trkpt><trkpt lat="39.09863380168431" lon="16.12576250265944"><ele>199.0</ele><time>2026-05-03T09:44:22.999Z</time></trkpt><trkpt lat="39.0985777451465" lon="16.125721480101102"><ele>199.0</ele><time>2026-05-03T09:44:23.999Z</time></trkpt><trkpt lat="39.098505632292444" lon="16.125604026069897"><ele>199.0</ele><time>2026-05-03T09:44:25.999Z</time></trkpt><trkpt lat="39.098481406676" lon="16.125501008694133"><ele>193.99999999999997</ele><time>2026-05-03T09:44:26.999Z</time></trkpt><trkpt lat="39.09846914029183" lon="16.12539754507985"><ele>189.0</ele><time>2026-05-03T09:44:27.999Z</time></trkpt><trkpt lat="39.09844444002582" lon="16.12530441857632"><ele>184.0</ele><time>2026-05-03T09:44:28.999Z</time></trkpt><trkpt lat="39.09838718130182" lon="16.125205629906862"><ele>179.0</ele><time>2026-05-03T09:44:29.999Z</time></trkpt><trkpt lat="39.09835495984563" lon="16.125102596698994"><ele>174.0</ele><time>2026-05-03T09:44:30.999Z</time></trkpt><trkpt lat="39.09832806410299" lon="16.12499429278888"><ele>169.0</ele><time>2026-05-03T09:44:31.999Z</time></trkpt><trkpt lat="39.098292752208934" lon="16.124880149322554"><ele>166.33333333333334</ele><time>2026-05-03T09:44:32.999Z</time></trkpt><trkpt lat="39.09826193299741" lon="16.124775434054687"><ele>163.66666666666669</ele><time>2026-05-03T09:44:33.999Z</time></trkpt><trkpt lat="39.0982483245469" lon="16.124690390188253"><ele>161.0</ele><time>2026-05-03T09:44:34.999Z</time></trkpt><trkpt lat="39.098232957681866" lon="16.12461136357749"><ele>158.33333333333334</ele><time>2026-05-03T09:44:35.999Z</time></trkpt><trkpt lat="39.09819111664973" lon="16.12453278809659"><ele>155.66666666666666</ele><time>2026-05-03T09:44:36.999Z</time></trkpt><trkpt lat="39.09812573470578" lon="16.124428070188365"><ele>153.0</ele><time>2026-05-03T09:44:37.999Z</time></trkpt><trkpt lat="39.09808994090572" lon="16.12433880920415"><ele>153.0</ele><time>2026-05-03T09:44:38.999Z</time></trkpt><trkpt lat="39.09806319616702" lon="16.12423438367011"><ele>153.0</ele><time>2026-05-03T09:44:39.999Z</time></trkpt><trkpt lat="39.09804579967388" lon="16.124111620369924"><ele>153.0</ele><time>2026-05-03T09:44:40.999Z</time></trkpt><trkpt lat="39.09803627464233" lon="16.12398829463536"><ele>153.0</ele><time>2026-05-03T09:44:41.999Z</time></trkpt><trkpt lat="39.09802735611426" lon="16.123887331917494"><ele>153.0</ele><time>2026-05-03T09:44:42.999Z</time></trkpt><trkpt lat="39.09801333509433" lon="16.12374409714548"><ele>148.8</ele><time>2026-05-03T09:44:44.998Z</time></trkpt><trkpt lat="39.0979326609384" lon="16.12366992692126"><ele>144.60000000000002</ele><time>2026-05-03T09:44:46.998Z</time></trkpt><trkpt lat="39.097808482186394" lon="16.12372565497201"><ele>140.39999999999998</ele><time>2026-05-03T09:44:48.998Z</time></trkpt><trkpt lat="39.09775107660783" lon="16.12379353528744"><ele>136.2</ele><time>2026-05-03T09:44:49.998Z</time></trkpt><trkpt lat="39.0976951480877" lon="16.123883198270583"><ele>132.0</ele><time>2026-05-03T09:44:50.998Z</time></trkpt><trkpt lat="39.09762219480024" lon="16.12399997528443"><ele>132.0</ele><time>2026-05-03T09:44:52.998Z</time></trkpt><trkpt lat="39.09753946660712" lon="16.124139072118172"><ele>132.0</ele><time>2026-05-03T09:44:54.998Z</time></trkpt><trkpt lat="39.0974714856894" lon="16.124169634885803"><ele>132.0</ele><time>2026-05-03T09:44:55.999Z</time></trkpt><trkpt lat="39.09740731214026" lon="16.124238824419738"><ele>132.0</ele><time>2026-05-03T09:44:58.999Z</time></trkpt><trkpt lat="39.0973471577098" lon="16.12417132600664"><ele>132.0</ele><time>2026-05-03T09:45:01.999Z</time></trkpt><trkpt lat="39.097423708256215" lon="16.124049095457266"><ele>132.0</ele><time>2026-05-03T09:45:03.999Z</time></trkpt><trkpt lat="39.097464165489825" lon="16.12397793950742"><ele>132.0</ele><time>2026-05-03T09:45:04.999Z</time></trkpt><trkpt lat="39.09750252105442" lon="16.1238673462764"><ele>132.0</ele><time>2026-05-03T09:45:06.999Z</time></trkpt><trkpt lat="39.09754179678913" lon="16.12379530164501"><ele>132.0</ele><time>2026-05-03T09:45:07.999Z</time></trkpt><trkpt lat="39.097582072584146" lon="16.123706678246148"><ele>132.0</ele><time>2026-05-03T09:45:08.999Z</time></trkpt><trkpt lat="39.09760154017362" lon="16.12361051673706"><ele>132.0</ele><time>2026-05-03T09:45:09.999Z</time></trkpt><trkpt lat="39.097624652464894" lon="16.12350543857818"><ele>132.0</ele><time>2026-05-03T09:45:10.999Z</time></trkpt><trkpt lat="39.09764342146335" lon="16.123357047648454"><ele>132.0</ele><time>2026-05-03T09:45:12.999Z</time></trkpt><trkpt lat="39.09770943163298" lon="16.12325256872434"><ele>132.0</ele><time>2026-05-03T09:45:13.999Z</time></trkpt><trkpt lat="39.09777732194731" lon="16.123165519286875"><ele>132.0</ele><time>2026-05-03T09:45:14.999Z</time></trkpt><trkpt lat="39.09783035302131" lon="16.123068397886637"><ele>132.0</ele><time>2026-05-03T09:45:15.999Z</time></trkpt><trkpt lat="39.09788054465588" lon="16.122983987165433"><ele>128.16666666666666</ele><time>2026-05-03T09:45:16.999Z</time></trkpt><trkpt lat="39.09791504688028" lon="16.12291294724987"><ele>124.33333333333334</ele><time>2026-05-03T09:45:17.999Z</time></trkpt><trkpt lat="39.097990516104225" lon="16.12284711660901"><ele>120.5</ele><time>2026-05-03T09:45:19.999Z</time></trkpt><trkpt lat="39.09797953552011" lon="16.12276253815186"><ele>116.66666666666667</ele><time>2026-05-03T09:45:21.999Z</time></trkpt><trkpt lat="39.0978915598655" lon="16.122815677721835"><ele>112.83333333333334</ele><time>2026-05-03T09:45:23.999Z</time></trkpt><trkpt lat="39.097837440235" lon="16.122880811315692"><ele>109.0</ele><time>2026-05-03T09:45:24.999Z</time></trkpt><trkpt lat="39.097731723395924" lon="16.12298728283735"><ele>109.0</ele><time>2026-05-03T09:45:26.999Z</time></trkpt><trkpt lat="39.097647650999875" lon="16.123037804305415"><ele>109.0</ele><time>2026-05-03T09:45:28.999Z</time></trkpt><trkpt lat="39.09757088640588" lon="16.122943894207186"><ele>109.0</ele><time>2026-05-03T09:45:31.999Z</time></trkpt><trkpt lat="39.09759358039048" lon="16.122851954099044"><ele>109.0</ele><time>2026-05-03T09:45:32.999Z</time></trkpt><trkpt lat="39.09762115763619" lon="16.122739863048576"><ele>109.0</ele><time>2026-05-03T09:45:33.999Z</time></trkpt><trkpt lat="39.09763874040335" lon="16.122608700573764"><ele>109.0</ele><time>2026-05-03T09:45:34.999Z</time></trkpt><trkpt lat="39.09764075798751" lon="16.12252082886077"><ele>109.0</ele><time>2026-05-03T09:45:35.999Z</time></trkpt><trkpt lat="39.09761087622747" lon="16.122419351718293"><ele>109.0</ele><time>2026-05-03T09:45:37.999Z</time></trkpt><trkpt lat="39.097486745223726" lon="16.122322295375035"><ele>109.0</ele><time>2026-05-03T09:45:39.999Z</time></trkpt><trkpt lat="39.09739662402754" lon="16.12228122632267"><ele>109.0</ele><time>2026-05-03T09:45:40.999Z</time></trkpt><trkpt lat="39.09733782359361" lon="16.122245976350815"><ele>107.42857142857143</ele><time>2026-05-03T09:45:41.999Z</time></trkpt><trkpt lat="39.09728946918978" lon="16.122181587836902"><ele>105.85714285714286</ele><time>2026-05-03T09:45:42.999Z</time></trkpt><trkpt lat="39.09723747782621" lon="16.12211151881029"><ele>104.28571428571428</ele><time>2026-05-03T09:45:43.999Z</time></trkpt><trkpt lat="39.09717903025197" lon="16.122048198599657"><ele>102.71428571428572</ele><time>2026-05-03T09:45:46Z</time></trkpt><trkpt lat="39.097101473924276" lon="16.121991911630477"><ele>101.14285714285714</ele><time>2026-05-03T09:45:48Z</time></trkpt><trkpt lat="39.09706225861592" lon="16.12192010077307"><ele>99.57142857142857</ele><time>2026-05-03T09:45:50Z</time></trkpt><trkpt lat="39.09712245672514" lon="16.12188025058789"><ele>98.0</ele><time>2026-05-03T09:45:52Z</time></trkpt><trkpt lat="39.09721550666887" lon="16.12192198445475"><ele>97.99999999999999</ele><time>2026-05-03T09:45:54Z</time></trkpt><trkpt lat="39.09729380574804" lon="16.12194977677768"><ele>98.0</ele><time>2026-05-03T09:45:55Z</time></trkpt><trkpt lat="39.09739658043829" lon="16.121971457026948"><ele>98.0</ele><time>2026-05-03T09:45:56Z</time></trkpt><trkpt lat="39.09747442996211" lon="16.121992236846722"><ele>98.0</ele><time>2026-05-03T09:45:57Z</time></trkpt><trkpt lat="39.09751499034063" lon="16.121930117023936"><ele>97.99999999999999</ele><time>2026-05-03T09:46:00Z</time></trkpt><trkpt lat="39.09742937277431" lon="16.121855224693324"><ele>98.0</ele><time>2026-05-03T09:46:02Z</time></trkpt><trkpt lat="39.097341451107326" lon="16.12180063972908"><ele>98.0</ele><time>2026-05-03T09:46:03Z</time></trkpt><trkpt lat="39.0972403412097" lon="16.12172858164068"><ele>98.0</ele><time>2026-05-03T09:46:04Z</time></trkpt><trkpt lat="39.097129468943805" lon="16.121631557313204"><ele>98.0</ele><time>2026-05-03T09:46:05Z</time></trkpt><trkpt lat="39.09702101518713" lon="16.121506735134364"><ele>98.0</ele><time>2026-05-03T09:46:06Z</time></trkpt><trkpt lat="39.09691476989024" lon="16.121354333315583"><ele>98.80000000000001</ele><time>2026-05-03T09:46:07Z</time></trkpt><trkpt lat="39.09681308319433" lon="16.121216375013198"><ele>99.6</ele><time>2026-05-03T09:46:08Z</time></trkpt><trkpt lat="39.09674353525867" lon="16.121140919148928"><ele>100.4</ele><time>2026-05-03T09:46:09Z</time></trkpt><trkpt lat="39.09666383134381" lon="16.121085096141233"><ele>101.19999999999999</ele><time>2026-05-03T09:46:10Z</time></trkpt><trkpt lat="39.0965546998155" lon="16.121027709713122"><ele>102.0</ele><time>2026-05-03T09:46:11Z</time></trkpt><trkpt lat="39.09641851696497" lon="16.120951147322952"><ele>102.0</ele><time>2026-05-03T09:46:12Z</time></trkpt><trkpt lat="39.09627951283267" lon="16.120880381173418"><ele>102.0</ele><time>2026-05-03T09:46:13Z</time></trkpt><trkpt lat="39.096146126083774" lon="16.12079679761286"><ele>102.0</ele><time>2026-05-03T09:46:14Z</time></trkpt><trkpt lat="39.09601525585783" lon="16.12068741314862"><ele>99.66666666666667</ele><time>2026-05-03T09:46:15Z</time></trkpt><trkpt lat="39.09586466351192" lon="16.120561292924624"><ele>97.33333333333334</ele><time>2026-05-03T09:46:16Z</time></trkpt><trkpt lat="39.09573808004595" lon="16.12045615726115"><ele>95.0</ele><time>2026-05-03T09:46:17Z</time></trkpt><trkpt lat="39.09563458718774" lon="16.120377074771586"><ele>95.0</ele><time>2026-05-03T09:46:18Z</time></trkpt><trkpt lat="39.09553403824345" lon="16.12031887954558"><ele>95.0</ele><time>2026-05-03T09:46:19Z</time></trkpt><trkpt lat="39.095438389842556" lon="16.120280200400288"><ele>95.0</ele><time>2026-05-03T09:46:20Z</time></trkpt><trkpt lat="39.095320305568315" lon="16.12025357343721"><ele>95.0</ele><time>2026-05-03T09:46:21Z</time></trkpt><trkpt lat="39.09516587672045" lon="16.120193625593316"><ele>95.0</ele><time>2026-05-03T09:46:22Z</time></trkpt><trkpt lat="39.09502696681525" lon="16.12010033518478"><ele>95.0</ele><time>2026-05-03T09:46:23Z</time></trkpt><trkpt lat="39.09492327799299" lon="16.119988889353092"><ele>95.0</ele><time>2026-05-03T09:46:24Z</time></trkpt><trkpt lat="39.09484599819192" lon="16.119883689354968"><ele>95.0</ele><time>2026-05-03T09:46:25Z</time></trkpt><trkpt lat="39.09477433952087" lon="16.11981581247138"><ele>93.0</ele><time>2026-05-03T09:46:26Z</time></trkpt><trkpt lat="39.09466879484707" lon="16.119775748595398"><ele>91.0</ele><time>2026-05-03T09:46:27Z</time></trkpt><trkpt lat="39.09453182081125" lon="16.119744522752576"><ele>89.0</ele><time>2026-05-03T09:46:28Z</time></trkpt><trkpt lat="39.094411094110676" lon="16.119717702263106"><ele>87.0</ele><time>2026-05-03T09:46:29Z</time></trkpt><trkpt lat="39.094318368789935" lon="16.119650694293643"><ele>87.0</ele><time>2026-05-03T09:46:30Z</time></trkpt><trkpt lat="39.09424333706663" lon="16.119574330825486"><ele>87.0</ele><time>2026-05-03T09:46:31Z</time></trkpt><trkpt lat="39.09420469287786" lon="16.11950762912758"><ele>87.0</ele><time>2026-05-03T09:46:32Z</time></trkpt><trkpt lat="39.09416015243993" lon="16.11941294605104"><ele>87.0</ele><time>2026-05-03T09:46:33Z</time></trkpt><trkpt lat="39.094099648511666" lon="16.119295757951193"><ele>87.0</ele><time>2026-05-03T09:46:34Z</time></trkpt><trkpt lat="39.094004161888094" lon="16.11921396729052"><ele>85.6</ele><time>2026-05-03T09:46:35Z</time></trkpt><trkpt lat="39.09392841828321" lon="16.11911681075646"><ele>84.19999999999999</ele><time>2026-05-03T09:46:36Z</time></trkpt><trkpt lat="39.093888400149666" lon="16.119052641812043"><ele>82.8</ele><time>2026-05-03T09:46:37Z</time></trkpt><trkpt lat="39.0938148832947" lon="16.11900388163157"><ele>81.4</ele><time>2026-05-03T09:46:38Z</time></trkpt><trkpt lat="39.09371162223244" lon="16.11894881842842"><ele>80.0</ele><time>2026-05-03T09:46:39Z</time></trkpt><trkpt lat="39.093610836246306" lon="16.118856015223475"><ele>80.0</ele><time>2026-05-03T09:46:40Z</time></trkpt><trkpt lat="39.093564059051424" lon="16.118784679420457"><ele>80.0</ele><time>2026-05-03T09:46:41Z</time></trkpt><trkpt lat="39.093489504639564" lon="16.118744792594555"><ele>80.0</ele><time>2026-05-03T09:46:42Z</time></trkpt><trkpt lat="39.093422570135566" lon="16.11873868218874"><ele>80.0</ele><time>2026-05-03T09:46:43Z</time></trkpt><trkpt lat="39.09334473550451" lon="16.118741990490438"><ele>80.0</ele><time>2026-05-03T09:46:44Z</time></trkpt><trkpt lat="39.093231082248884" lon="16.118775393071743"><ele>80.0</ele><time>2026-05-03T09:46:45Z</time></trkpt><trkpt lat="39.093102229300804" lon="16.11880886106036"><ele>80.66666666666667</ele><time>2026-05-03T09:46:46Z</time></trkpt><trkpt lat="39.09300170936871" lon="16.118821136229926"><ele>81.33333333333334</ele><time>2026-05-03T09:46:47Z</time></trkpt><trkpt lat="39.092923705212" lon="16.11879778430271"><ele>82.0</ele><time>2026-05-03T09:46:48Z</time></trkpt><trkpt lat="39.09285894307686" lon="16.11876012396463"><ele>82.66666666666667</ele><time>2026-05-03T09:46:49Z</time></trkpt><trkpt lat="39.09279619040446" lon="16.11870180937269"><ele>83.33333333333333</ele><time>2026-05-03T09:46:50Z</time></trkpt><trkpt lat="39.09271441370006" lon="16.118605350938854"><ele>84.0</ele><time>2026-05-03T09:46:51Z</time></trkpt><trkpt lat="39.092627549638614" lon="16.118510906238452"><ele>84.0</ele><time>2026-05-03T09:46:52Z</time></trkpt><trkpt lat="39.09256886296425" lon="16.118476026028386"><ele>84.0</ele><time>2026-05-03T09:46:53Z</time></trkpt><trkpt lat="39.09249331743726" lon="16.118460108297306"><ele>84.0</ele><time>2026-05-03T09:46:55Z</time></trkpt><trkpt lat="39.09241538913263" lon="16.118454966324816"><ele>84.0</ele><time>2026-05-03T09:46:56Z</time></trkpt><trkpt lat="39.092331121851615" lon="16.118445052373097"><ele>84.0</ele><time>2026-05-03T09:46:57Z</time></trkpt><trkpt lat="39.09224042010907" lon="16.118436209360578"><ele>84.0</ele><time>2026-05-03T09:46:58Z</time></trkpt><trkpt lat="39.09216735403695" lon="16.11842995324871"><ele>84.33333333333333</ele><time>2026-05-03T09:46:59Z</time></trkpt><trkpt lat="39.092098868523344" lon="16.118436430693496"><ele>84.66666666666667</ele><time>2026-05-03T09:47:00Z</time></trkpt><trkpt lat="39.091996642094955" lon="16.11847460048721"><ele>85.0</ele><time>2026-05-03T09:47:02Z</time></trkpt><trkpt lat="39.091889330999884" lon="16.118501411897228"><ele>85.33333333333334</ele><time>2026-05-03T09:47:04Z</time></trkpt><trkpt lat="39.09180045660037" lon="16.11851228969508"><ele>85.66666666666667</ele><time>2026-05-03T09:47:06Z</time></trkpt><trkpt lat="39.09172791515436" lon="16.11851352115842"><ele>86.0</ele><time>2026-05-03T09:47:08Z</time></trkpt><trkpt lat="39.09166021616448" lon="16.118510493034922"><ele>85.16666666666667</ele><time>2026-05-03T09:47:10Z</time></trkpt><trkpt lat="39.091584731393446" lon="16.118498893011818"><ele>84.33333333333334</ele><time>2026-05-03T09:47:12Z</time></trkpt><trkpt lat="39.091500947969195" lon="16.118490421987403"><ele>83.5</ele><time>2026-05-03T09:47:14Z</time></trkpt><trkpt lat="39.091423653740215" lon="16.11844712170742"><ele>82.66666666666667</ele><time>2026-05-03T09:47:16Z</time></trkpt><trkpt lat="39.09137009970794" lon="16.11838914619954"><ele>81.83333333333333</ele><time>2026-05-03T09:47:18Z</time></trkpt><trkpt lat="39.091304644035496" lon="16.118322349350244"><ele>81.0</ele><time>2026-05-03T09:47:22Z</time></trkpt><trkpt lat="39.091231483404805" lon="16.118305758245306"><ele>81.0</ele><time>2026-05-03T09:47:34Z</time></trkpt><trkpt lat="39.09110853135573" lon="16.118321292891753"><ele>81.0</ele><time>2026-05-03T09:47:36Z</time></trkpt><trkpt lat="39.09103558250285" lon="16.118353114810226"><ele>81.0</ele><time>2026-05-03T09:47:37Z</time></trkpt><trkpt lat="39.09095755771652" lon="16.118404000317746"><ele>81.0</ele><time>2026-05-03T09:47:38Z</time></trkpt><trkpt lat="39.090867223642306" lon="16.1184859972634"><ele>81.0</ele><time>2026-05-03T09:47:39Z</time></trkpt><trkpt lat="39.090772295139594" lon="16.118539491130967"><ele>78.25</ele><time>2026-05-03T09:47:40Z</time></trkpt><trkpt lat="39.09065413005285" lon="16.11855517700283"><ele>75.5</ele><time>2026-05-03T09:47:41Z</time></trkpt><trkpt lat="39.090498738659285" lon="16.118557447948653"><ele>72.75</ele><time>2026-05-03T09:47:42Z</time></trkpt><trkpt lat="39.09033875945238" lon="16.118553696620754"><ele>70.0</ele><time>2026-05-03T09:47:43Z</time></trkpt><trkpt lat="39.09016606290704" lon="16.118543322291917"><ele>70.0</ele><time>2026-05-03T09:47:44Z</time></trkpt><trkpt lat="39.09003353821466" lon="16.118523637790307"><ele>70.0</ele><time>2026-05-03T09:47:45Z</time></trkpt><trkpt lat="39.08991832048261" lon="16.11848748483759"><ele>70.0</ele><time>2026-05-03T09:47:46Z</time></trkpt><trkpt lat="39.08981612718592" lon="16.11842557987582"><ele>70.0</ele><time>2026-05-03T09:47:47Z</time></trkpt><trkpt lat="39.08973790187149" lon="16.11835206598952"><ele>69.2</ele><time>2026-05-03T09:47:48Z</time></trkpt><trkpt lat="39.08966295434189" lon="16.118230787962123"><ele>68.4</ele><time>2026-05-03T09:47:50Z</time></trkpt><trkpt lat="39.08961068078331" lon="16.118171960741527"><ele>67.6</ele><time>2026-05-03T09:47:51Z</time></trkpt><trkpt lat="39.08950305117866" lon="16.11816664342256"><ele>66.8</ele><time>2026-05-03T09:47:53Z</time></trkpt><trkpt lat="39.08944286145282" lon="16.11821270427484"><ele>66.0</ele><time>2026-05-03T09:47:54Z</time></trkpt><trkpt lat="39.089348769269996" lon="16.118276699195434"><ele>66.0</ele><time>2026-05-03T09:47:55Z</time></trkpt><trkpt lat="39.08922361475245" lon="16.118325386977688"><ele>66.0</ele><time>2026-05-03T09:47:56Z</time></trkpt><trkpt lat="39.08911719167583" lon="16.118349350986854"><ele>66.0</ele><time>2026-05-03T09:47:57Z</time></trkpt><trkpt lat="39.088986077860284" lon="16.11835528731698"><ele>66.0</ele><time>2026-05-03T09:47:58Z</time></trkpt><trkpt lat="39.08884204374559" lon="16.11837496541121"><ele>66.25</ele><time>2026-05-03T09:47:59Z</time></trkpt><trkpt lat="39.08872112416594" lon="16.118379990673542"><ele>66.5</ele><time>2026-05-03T09:48:00Z</time></trkpt><trkpt lat="39.08857676384656" lon="16.11836423760617"><ele>66.75</ele><time>2026-05-03T09:48:01Z</time></trkpt><trkpt lat="39.08839630256068" lon="16.118322627572905"><ele>67.0</ele><time>2026-05-03T09:48:02Z</time></trkpt><trkpt lat="39.0882274163086" lon="16.118280407092882"><ele>67.2</ele><time>2026-05-03T09:48:03Z</time></trkpt><trkpt lat="39.088110398459925" lon="16.118251401214913"><ele>67.4</ele><time>2026-05-03T09:48:04Z</time></trkpt><trkpt lat="39.08802864175215" lon="16.118230733875905"><ele>67.6</ele><time>2026-05-03T09:48:05Z</time></trkpt><trkpt lat="39.08793096963133" lon="16.118153909573646"><ele>67.8</ele><time>2026-05-03T09:48:07Z</time></trkpt><trkpt lat="39.0878891219609" lon="16.118071076691354"><ele>68.0</ele><time>2026-05-03T09:48:08Z</time></trkpt><trkpt lat="39.08783161207714" lon="16.1179746324"><ele>67.0</ele><time>2026-05-03T09:48:09Z</time></trkpt><trkpt lat="39.087762793776236" lon="16.117922228884563"><ele>66.0</ele><time>2026-05-03T09:48:10Z</time></trkpt><trkpt lat="39.08766039102951" lon="16.117887878641305"><ele>65.0</ele><time>2026-05-03T09:48:11Z</time></trkpt><trkpt lat="39.08752170568745" lon="16.117840316902015"><ele>64.0</ele><time>2026-05-03T09:48:12Z</time></trkpt><trkpt lat="39.087358591820376" lon="16.117757760845834"><ele>63.25</ele><time>2026-05-03T09:48:13Z</time></trkpt><trkpt lat="39.0872166204543" lon="16.117660700730134"><ele>62.5</ele><time>2026-05-03T09:48:14Z</time></trkpt><trkpt lat="39.08710023799072" lon="16.117573629189792"><ele>61.75</ele><time>2026-05-03T09:48:15Z</time></trkpt><trkpt lat="39.086997648939345" lon="16.117507425545952"><ele>61.0</ele><time>2026-05-03T09:48:16Z</time></trkpt><trkpt lat="39.08690526130477" lon="16.117445935593544"><ele>61.0</ele><time>2026-05-03T09:48:17Z</time></trkpt><trkpt lat="39.086813715102615" lon="16.11740460409256"><ele>61.0</ele><time>2026-05-03T09:48:18Z</time></trkpt><trkpt lat="39.086708358903245" lon="16.117378842446655"><ele>61.0</ele><time>2026-05-03T09:48:19Z</time></trkpt><trkpt lat="39.0865595576771" lon="16.117370920206255"><ele>61.0</ele><time>2026-05-03T09:48:20Z</time></trkpt><trkpt lat="39.086403888680344" lon="16.1173313655015"><ele>61.0</ele><time>2026-05-03T09:48:21Z</time></trkpt><trkpt lat="39.086283525802656" lon="16.117297131944003"><ele>60.99999999999999</ele><time>2026-05-03T09:48:22Z</time></trkpt><trkpt lat="39.08619721915366" lon="16.11726509740722"><ele>60.99999999999999</ele><time>2026-05-03T09:48:23Z</time></trkpt><trkpt lat="39.086129740356334" lon="16.117216928938696"><ele>61.0</ele><time>2026-05-03T09:48:24Z</time></trkpt><trkpt lat="39.08606811983892" lon="16.117143351143188"><ele>61.0</ele><time>2026-05-03T09:48:25Z</time></trkpt><trkpt lat="39.08599829320049" lon="16.117030503990794"><ele>61.0</ele><time>2026-05-03T09:48:26Z</time></trkpt><trkpt lat="39.085909850886345" lon="16.11688597940858"><ele>60.99999999999999</ele><time>2026-05-03T09:48:27Z</time></trkpt><trkpt lat="39.0858336239125" lon="16.1167607542835"><ele>60.99999999999999</ele><time>2026-05-03T09:48:28Z</time></trkpt><trkpt lat="39.08578507715144" lon="16.11665607462484"><ele>61.0</ele><time>2026-05-03T09:48:29Z</time></trkpt><trkpt lat="39.08575801121879" lon="16.11657081944754"><ele>61.0</ele><time>2026-05-03T09:48:30Z</time></trkpt><trkpt lat="39.08573504143762" lon="16.116495225937722"><ele>60.599999999999994</ele><time>2026-05-03T09:48:31Z</time></trkpt><trkpt lat="39.08568872472807" lon="16.11640454485088"><ele>60.199999999999996</ele><time>2026-05-03T09:48:32Z</time></trkpt><trkpt lat="39.08561005393115" lon="16.11627200022505"><ele>59.800000000000004</ele><time>2026-05-03T09:48:33Z</time></trkpt><trkpt lat="39.08555978639983" lon="16.11616774521177"><ele>59.400000000000006</ele><time>2026-05-03T09:48:34Z</time></trkpt><trkpt lat="39.085538608640185" lon="16.116079341194514"><ele>59.0</ele><time>2026-05-03T09:48:35Z</time></trkpt><trkpt lat="39.085499870504286" lon="16.11594981742507"><ele>59.00000000000001</ele><time>2026-05-03T09:48:37Z</time></trkpt><trkpt lat="39.085442645756274" lon="16.115881360562884"><ele>59.0</ele><time>2026-05-03T09:50:43Z</time></trkpt><trkpt lat="39.085401748499024" lon="16.11577955787158"><ele>59.0</ele><time>2026-05-03T09:50:46Z</time></trkpt><trkpt lat="39.085375020876576" lon="16.115687746750854"><ele>59.0</ele><time>2026-05-03T09:50:49Z</time></trkpt><trkpt lat="39.08533480992739" lon="16.115557912458314"><ele>59.00000000000001</ele><time>2026-05-03T09:50:51Z</time></trkpt><trkpt lat="39.085298085480495" lon="16.115477135725225"><ele>59.0</ele><time>2026-05-03T09:50:52Z</time></trkpt><trkpt lat="39.085252607482445" lon="16.115389876541656"><ele>56.0</ele><time>2026-05-03T09:50:53Z</time></trkpt><trkpt lat="39.085206328250834" lon="16.115301477228833"><ele>56.0</ele><time>2026-05-03T09:50:54Z</time></trkpt><trkpt lat="39.08516007778865" lon="16.115177174384996"><ele>56.0</ele><time>2026-05-03T09:50:56Z</time></trkpt><trkpt lat="39.08516126572322" lon="16.115072226732373"><ele>56.0</ele><time>2026-05-03T09:50:58Z</time></trkpt></trkseg><trkseg><trkpt lat="39.04301838635244" lon="16.12435491121155"><ele>26.0</ele><time>2026-05-03T10:11:45.999Z</time></trkpt><trkpt lat="39.04307132789428" lon="16.124285457145756"><ele>26.0</ele><time>2026-05-03T10:11:46.999Z</time></trkpt><trkpt lat="39.04314076434801" lon="16.124206422136613"><ele>26.0</ele><time>2026-05-03T10:11:47.999Z</time></trkpt><trkpt lat="39.043195186943976" lon="16.124098747382554"><ele>26.0</ele><time>2026-05-03T10:11:48.999Z</time></trkpt><trkpt lat="39.04323956899237" lon="16.12395263015429"><ele>26.0</ele><time>2026-05-03T10:11:49.999Z</time></trkpt><trkpt lat="39.04327865782029" lon="16.123778516698465"><ele>29.666666666666664</ele><time>2026-05-03T10:11:50.999Z</time></trkpt><trkpt lat="39.04330282476658" lon="16.123592200809465"><ele>33.333333333333336</ele><time>2026-05-03T10:11:51.999Z</time></trkpt><trkpt lat="39.043308384211905" lon="16.123391898858753"><ele>37.0</ele><time>2026-05-03T10:11:52.999Z</time></trkpt><trkpt lat="39.043320144997764" lon="16.123187541238238"><ele>37.0</ele><time>2026-05-03T10:11:53.999Z</time></trkpt><trkpt lat="39.043337650188114" lon="16.1229715537475"><ele>37.0</ele><time>2026-05-03T10:11:54.999Z</time></trkpt><trkpt lat="39.04336963220752" lon="16.122763901799434"><ele>37.0</ele><time>2026-05-03T10:11:55.999Z</time></trkpt><trkpt lat="39.043406823351546" lon="16.122576265668858"><ele>37.0</ele><time>2026-05-03T10:11:56.999Z</time></trkpt><trkpt lat="39.04343066197003" lon="16.12240337264376"><ele>37.0</ele><time>2026-05-03T10:11:57.999Z</time></trkpt><trkpt lat="39.043431102155715" lon="16.122230681713912"><ele>37.0</ele><time>2026-05-03T10:11:58.999Z</time></trkpt><trkpt lat="39.04341617908586" lon="16.122053699505994"><ele>37.0</ele><time>2026-05-03T10:11:59.999Z</time></trkpt><trkpt lat="39.04338189410252" lon="16.121875569487948"><ele>37.5</ele><time>2026-05-03T10:12:00.999Z</time></trkpt><trkpt lat="39.04334305382599" lon="16.1216974508925"><ele>38.0</ele><time>2026-05-03T10:12:01.999Z</time></trkpt><trkpt lat="39.043293441245496" lon="16.121520900194362"><ele>38.5</ele><time>2026-05-03T10:12:02.999Z</time></trkpt><trkpt lat="39.04325003266933" lon="16.12133940478339"><ele>39.0</ele><time>2026-05-03T10:12:03.999Z</time></trkpt><trkpt lat="39.04319738083823" lon="16.12115695800101"><ele>38.666666666666664</ele><time>2026-05-03T10:12:04.999Z</time></trkpt><trkpt lat="39.04313473567569" lon="16.120980422530266"><ele>38.33333333333333</ele><time>2026-05-03T10:12:05.999Z</time></trkpt><trkpt lat="39.04306051645717" lon="16.120807894407115"><ele>38.0</ele><time>2026-05-03T10:12:06.999Z</time></trkpt><trkpt lat="39.04297540829502" lon="16.120646594515904"><ele>38.0</ele><time>2026-05-03T10:12:07.999Z</time></trkpt><trkpt lat="39.04285876340519" lon="16.120506805782373"><ele>38.0</ele><time>2026-05-03T10:12:08.999Z</time></trkpt><trkpt lat="39.04274912023226" lon="16.12037296124601"><ele>38.0</ele><time>2026-05-03T10:12:09.999Z</time></trkpt><trkpt lat="39.04262849175278" lon="16.120255054679365"><ele>38.0</ele><time>2026-05-03T10:12:10.999Z</time></trkpt><trkpt lat="39.042498087520286" lon="16.12015605254845"><ele>38.0</ele><time>2026-05-03T10:12:11.999Z</time></trkpt><trkpt lat="39.04236759302735" lon="16.120069670259955"><ele>38.0</ele><time>2026-05-03T10:12:12.999Z</time></trkpt><trkpt lat="39.04225667879573" lon="16.119966737270225"><ele>38.0</ele><time>2026-05-03T10:12:13.999Z</time></trkpt><trkpt lat="39.042169013411204" lon="16.11989132586436"><ele>35.0</ele><time>2026-05-03T10:12:14.999Z</time></trkpt><trkpt lat="39.042096054520634" lon="16.11982919847273"><ele>32.0</ele><time>2026-05-03T10:12:15.999Z</time></trkpt><trkpt lat="39.04206238669182" lon="16.119734692032008"><ele>29.0</ele><time>2026-05-03T10:12:16.999Z</time></trkpt><trkpt lat="39.04207470749831" lon="16.11964813156996"><ele>26.0</ele><time>2026-05-03T10:12:17.999Z</time></trkpt><trkpt lat="39.04212440844513" lon="16.11957238960377"><ele>23.0</ele><time>2026-05-03T10:12:18.999Z</time></trkpt><trkpt lat="39.042203222364506" lon="16.11948234543758"><ele>20.0</ele><time>2026-05-03T10:12:19.999Z</time></trkpt><trkpt lat="39.042293696794665" lon="16.119372708015614"><ele>20.0</ele><time>2026-05-03T10:12:20.999Z</time></trkpt><trkpt lat="39.04238733802708" lon="16.119256304707623"><ele>20.0</ele><time>2026-05-03T10:12:21.999Z</time></trkpt><trkpt lat="39.04248929620343" lon="16.11913684286212"><ele>20.0</ele><time>2026-05-03T10:12:22.999Z</time></trkpt><trkpt lat="39.04260261647319" lon="16.119030721097264"><ele>20.0</ele><time>2026-05-03T10:12:23.999Z</time></trkpt><trkpt lat="39.04271736042705" lon="16.118947455875496"><ele>20.4</ele><time>2026-05-03T10:12:24.999Z</time></trkpt><trkpt lat="39.04290225682551" lon="16.118860103402525"><ele>20.8</ele><time>2026-05-03T10:12:26.999Z</time></trkpt><trkpt lat="39.0429766485945" lon="16.11883570244433"><ele>21.200000000000003</ele><time>2026-05-03T10:12:27.999Z</time></trkpt><trkpt lat="39.04304535228279" lon="16.118815795858215"><ele>21.6</ele><time>2026-05-03T10:12:28.999Z</time></trkpt><trkpt lat="39.04312165894346" lon="16.118793186724574"><ele>22.0</ele><time>2026-05-03T10:12:29.999Z</time></trkpt><trkpt lat="39.04320060300395" lon="16.118771062994234"><ele>22.0</ele><time>2026-05-03T10:12:30.999Z</time></trkpt><trkpt lat="39.04326221408494" lon="16.118747247919643"><ele>22.0</ele><time>2026-05-03T10:12:31.999Z</time></trkpt><trkpt lat="39.043322714645036" lon="16.118721201153583"><ele>22.0</ele><time>2026-05-03T10:12:32.999Z</time></trkpt><trkpt lat="39.04339879449309" lon="16.11868525003116"><ele>22.0</ele><time>2026-05-03T10:12:33.999Z</time></trkpt><trkpt lat="39.04348079284122" lon="16.118644096181004"><ele>22.0</ele><time>2026-05-03T10:12:34.999Z</time></trkpt><trkpt lat="39.04356371692285" lon="16.11859521642825"><ele>22.0</ele><time>2026-05-03T10:12:35.999Z</time></trkpt><trkpt lat="39.043650506861844" lon="16.118545982578592"><ele>22.8</ele><time>2026-05-03T10:12:36.999Z</time></trkpt><trkpt lat="39.04374185731716" lon="16.11849197105964"><ele>23.6</ele><time>2026-05-03T10:12:37.999Z</time></trkpt><trkpt lat="39.04383648540447" lon="16.118440729703625"><ele>24.400000000000002</ele><time>2026-05-03T10:12:38.999Z</time></trkpt><trkpt lat="39.043934421931574" lon="16.118392006832615"><ele>25.200000000000003</ele><time>2026-05-03T10:12:39.999Z</time></trkpt><trkpt lat="39.044023824249095" lon="16.118354976847222"><ele>26.0</ele><time>2026-05-03T10:12:40.999Z</time></trkpt><trkpt lat="39.0441199160581" lon="16.118333648040558"><ele>28.25</ele><time>2026-05-03T10:12:41.999Z</time></trkpt><trkpt lat="39.044223244111876" lon="16.118340763138743"><ele>30.5</ele><time>2026-05-03T10:12:42.999Z</time></trkpt><trkpt lat="39.04433254448397" lon="16.11838147940078"><ele>32.75</ele><time>2026-05-03T10:12:43.999Z</time></trkpt><trkpt lat="39.0444509779086" lon="16.118436805776458"><ele>35.0</ele><time>2026-05-03T10:12:44.999Z</time></trkpt><trkpt lat="39.04457358304352" lon="16.118490110658765"><ele>35.0</ele><time>2026-05-03T10:12:45.999Z</time></trkpt><trkpt lat="39.04470337623924" lon="16.118541264934464"><ele>35.0</ele><time>2026-05-03T10:12:46.999Z</time></trkpt><trkpt lat="39.044839611641194" lon="16.118587168160463"><ele>35.0</ele><time>2026-05-03T10:12:47.999Z</time></trkpt><trkpt lat="39.044980690174356" lon="16.118630695835552"><ele>35.0</ele><time>2026-05-03T10:12:48.999Z</time></trkpt><trkpt lat="39.04512229381019" lon="16.11867997835042"><ele>34.0</ele><time>2026-05-03T10:12:49.999Z</time></trkpt><trkpt lat="39.045262758913374" lon="16.118740159317127"><ele>33.0</ele><time>2026-05-03T10:12:50.999Z</time></trkpt><trkpt lat="39.04540345448598" lon="16.118801558314843"><ele>32.0</ele><time>2026-05-03T10:12:51.999Z</time></trkpt><trkpt lat="39.045547306127524" lon="16.118857820240436"><ele>31.0</ele><time>2026-05-03T10:12:52.999Z</time></trkpt><trkpt lat="39.04569367047699" lon="16.118917065465677"><ele>30.75</ele><time>2026-05-03T10:12:53.999Z</time></trkpt><trkpt lat="39.04583541510152" lon="16.118972287982057"><ele>30.5</ele><time>2026-05-03T10:12:54.999Z</time></trkpt><trkpt lat="39.04596304034505" lon="16.119020246692422"><ele>30.25</ele><time>2026-05-03T10:12:55.999Z</time></trkpt><trkpt lat="39.04606918119177" lon="16.119056023719175"><ele>30.0</ele><time>2026-05-03T10:12:56.999Z</time></trkpt><trkpt lat="39.046163868748415" lon="16.119074866216298"><ele>30.0</ele><time>2026-05-03T10:12:57.999Z</time></trkpt><trkpt lat="39.04625929675946" lon="16.119068007243946"><ele>30.0</ele><time>2026-05-03T10:12:58.999Z</time></trkpt><trkpt lat="39.04634782556252" lon="16.119028402541772"><ele>30.0</ele><time>2026-05-03T10:12:59.999Z</time></trkpt><trkpt lat="39.0464204086785" lon="16.118959469519353"><ele>30.0</ele><time>2026-05-03T10:13:00.999Z</time></trkpt><trkpt lat="39.04648183089139" lon="16.118893071497446"><ele>30.0</ele><time>2026-05-03T10:13:01.998Z</time></trkpt><trkpt lat="39.046569500534126" lon="16.118847373303684"><ele>30.0</ele><time>2026-05-03T10:13:03.998Z</time></trkpt><trkpt lat="39.046620148233615" lon="16.118772011882857"><ele>30.0</ele><time>2026-05-03T10:13:05.998Z</time></trkpt><trkpt lat="39.046675083201805" lon="16.118724012540618"><ele>30.0</ele><time>2026-05-03T10:13:06.998Z</time></trkpt><trkpt lat="39.04686315026508" lon="16.118858371082013"><ele>30.0</ele><time>2026-05-03T10:13:07.998Z</time></trkpt><trkpt lat="39.04696675684427" lon="16.118820145638026"><ele>32.4</ele><time>2026-05-03T10:13:08.998Z</time></trkpt><trkpt lat="39.047081160784096" lon="16.11876132309277"><ele>34.8</ele><time>2026-05-03T10:13:09.998Z</time></trkpt><trkpt lat="39.04717667182924" lon="16.11872603971515"><ele>37.2</ele><time>2026-05-03T10:13:10.998Z</time></trkpt><trkpt lat="39.04726367532265" lon="16.118707465428436"><ele>39.6</ele><time>2026-05-03T10:13:11.998Z</time></trkpt><trkpt lat="39.04734384200841" lon="16.118662335246867"><ele>42.0</ele><time>2026-05-03T10:13:12.998Z</time></trkpt><trkpt lat="39.04740804029529" lon="16.118555069842568"><ele>44.2</ele><time>2026-05-03T10:13:13.999Z</time></trkpt><trkpt lat="39.0474705084273" lon="16.118405724902228"><ele>46.400000000000006</ele><time>2026-05-03T10:13:14.999Z</time></trkpt><trkpt lat="39.04751309220207" lon="16.118337745605285"><ele>48.599999999999994</ele><time>2026-05-03T10:13:15.999Z</time></trkpt><trkpt lat="39.047561494236895" lon="16.118432801857125"><ele>50.8</ele><time>2026-05-03T10:13:18.999Z</time></trkpt><trkpt lat="39.04758464702797" lon="16.11852292461747"><ele>53.0</ele><time>2026-05-03T10:13:19.999Z</time></trkpt><trkpt lat="39.047602681377164" lon="16.11867779600644"><ele>53.0</ele><time>2026-05-03T10:13:20.999Z</time></trkpt><trkpt lat="39.04763693157672" lon="16.118808390562474"><ele>53.0</ele><time>2026-05-03T10:13:22Z</time></trkpt><trkpt lat="39.0476888803924" lon="16.11891450979489"><ele>53.0</ele><time>2026-05-03T10:13:23Z</time></trkpt><trkpt lat="39.04771568890977" lon="16.119043831002493"><ele>53.0</ele><time>2026-05-03T10:13:24Z</time></trkpt><trkpt lat="39.04776006688754" lon="16.119175260762674"><ele>53.0</ele><time>2026-05-03T10:13:25Z</time></trkpt><trkpt lat="39.04781660203335" lon="16.11930224507013"><ele>53.25</ele><time>2026-05-03T10:13:26Z</time></trkpt><trkpt lat="39.04785891491206" lon="16.11944747895585"><ele>53.5</ele><time>2026-05-03T10:13:27Z</time></trkpt><trkpt lat="39.04791457348939" lon="16.119596526537446"><ele>53.75</ele><time>2026-05-03T10:13:28Z</time></trkpt><trkpt lat="39.04798339460522" lon="16.11975693276344"><ele>54.0</ele><time>2026-05-03T10:13:29Z</time></trkpt><trkpt lat="39.04806009352613" lon="16.11991150331248"><ele>54.25</ele><time>2026-05-03T10:13:30Z</time></trkpt><trkpt lat="39.048148698242656" lon="16.12004539335353"><ele>54.5</ele><time>2026-05-03T10:13:31Z</time></trkpt><trkpt lat="39.04824630118606" lon="16.12016923437621"><ele>54.75</ele><time>2026-05-03T10:13:32Z</time></trkpt><trkpt lat="39.048348055817684" lon="16.12029222295419"><ele>55.0</ele><time>2026-05-03T10:13:33Z</time></trkpt><trkpt lat="39.04843119245499" lon="16.1204209296784"><ele>58.0</ele><time>2026-05-03T10:13:34Z</time></trkpt><trkpt lat="39.048485578211846" lon="16.1205691745942"><ele>61.0</ele><time>2026-05-03T10:13:35Z</time></trkpt><trkpt lat="39.04850904398897" lon="16.120733435101585"><ele>64.0</ele><time>2026-05-03T10:13:36Z</time></trkpt><trkpt lat="39.04851559557963" lon="16.120908047368157"><ele>67.0</ele><time>2026-05-03T10:13:37Z</time></trkpt><trkpt lat="39.0485082818319" lon="16.121082270640652"><ele>67.75</ele><time>2026-05-03T10:13:38Z</time></trkpt><trkpt lat="39.04848139093512" lon="16.121257287676343"><ele>68.5</ele><time>2026-05-03T10:13:39Z</time></trkpt><trkpt lat="39.04844843036618" lon="16.12143652981506"><ele>69.25</ele><time>2026-05-03T10:13:40Z</time></trkpt><trkpt lat="39.04841336417934" lon="16.12161909616321"><ele>70.0</ele><time>2026-05-03T10:13:41Z</time></trkpt><trkpt lat="39.04836725618072" lon="16.1217846185498"><ele>71.25</ele><time>2026-05-03T10:13:42Z</time></trkpt><trkpt lat="39.04829530827854" lon="16.1219170196591"><ele>72.5</ele><time>2026-05-03T10:13:43Z</time></trkpt><trkpt lat="39.04821146257892" lon="16.12203980964964"><ele>73.75</ele><time>2026-05-03T10:13:44Z</time></trkpt><trkpt lat="39.04811232092878" lon="16.122154704752475"><ele>75.0</ele><time>2026-05-03T10:13:45Z</time></trkpt><trkpt lat="39.04801042138885" lon="16.1222750284392"><ele>77.75</ele><time>2026-05-03T10:13:46Z</time></trkpt><trkpt lat="39.04791071518285" lon="16.122398438686133"><ele>80.5</ele><time>2026-05-03T10:13:47Z</time></trkpt><trkpt lat="39.04780558589203" lon="16.122533947880775"><ele>83.25</ele><time>2026-05-03T10:13:48Z</time></trkpt><trkpt lat="39.04770160053966" lon="16.122667691760523"><ele>86.0</ele><time>2026-05-03T10:13:49Z</time></trkpt><trkpt lat="39.04762176519631" lon="16.122793504386532"><ele>86.0</ele><time>2026-05-03T10:13:50Z</time></trkpt><trkpt lat="39.04757549334243" lon="16.122922007642302"><ele>86.0</ele><time>2026-05-03T10:13:51Z</time></trkpt><trkpt lat="39.047565717843135" lon="16.12306475877954"><ele>86.0</ele><time>2026-05-03T10:13:52Z</time></trkpt><trkpt lat="39.04758410397103" lon="16.123222564883196"><ele>86.0</ele><time>2026-05-03T10:13:53Z</time></trkpt><trkpt lat="39.04762634104364" lon="16.123379246349117"><ele>89.0</ele><time>2026-05-03T10:13:54Z</time></trkpt><trkpt lat="39.04769401026967" lon="16.123526637405384"><ele>92.0</ele><time>2026-05-03T10:13:55Z</time></trkpt><trkpt lat="39.04778780334591" lon="16.123654577252143"><ele>95.0</ele><time>2026-05-03T10:13:56Z</time></trkpt><trkpt lat="39.047902875662764" lon="16.12376386834325"><ele>98.0</ele><time>2026-05-03T10:13:57Z</time></trkpt><trkpt lat="39.0480330520742" lon="16.12385282960345"><ele>98.0</ele><time>2026-05-03T10:13:58Z</time></trkpt><trkpt lat="39.04817112231501" lon="16.123934150924008"><ele>98.0</ele><time>2026-05-03T10:13:59Z</time></trkpt><trkpt lat="39.04830837028877" lon="16.124020536123293"><ele>98.0</ele><time>2026-05-03T10:14:00Z</time></trkpt><trkpt lat="39.04844108722314" lon="16.124128723347233"><ele>100.33333333333333</ele><time>2026-05-03T10:14:01Z</time></trkpt><trkpt lat="39.0485622927584" lon="16.12425973544589"><ele>102.66666666666666</ele><time>2026-05-03T10:14:02Z</time></trkpt><trkpt lat="39.04868018205402" lon="16.12440487997557"><ele>105.0</ele><time>2026-05-03T10:14:03Z</time></trkpt><trkpt lat="39.048787401635856" lon="16.12452172233463"><ele>105.0</ele><time>2026-05-03T10:14:04Z</time></trkpt><trkpt lat="39.04888867919711" lon="16.12459636141045"><ele>105.0</ele><time>2026-05-03T10:14:05Z</time></trkpt><trkpt lat="39.049004705660025" lon="16.124650696649653"><ele>105.0</ele><time>2026-05-03T10:14:06Z</time></trkpt><trkpt lat="39.049132466181796" lon="16.124664159711898"><ele>105.0</ele><time>2026-05-03T10:14:07Z</time></trkpt><trkpt lat="39.04926159520084" lon="16.124634730052026"><ele>105.5</ele><time>2026-05-03T10:14:08Z</time></trkpt><trkpt lat="39.04938558408363" lon="16.12457723899401"><ele>106.0</ele><time>2026-05-03T10:14:09Z</time></trkpt><trkpt lat="39.04949779390001" lon="16.124494189217526"><ele>106.5</ele><time>2026-05-03T10:14:10Z</time></trkpt><trkpt lat="39.04959199639892" lon="16.12437787147086"><ele>107.0</ele><time>2026-05-03T10:14:11Z</time></trkpt><trkpt lat="39.049674329677664" lon="16.12424136554425"><ele>107.0</ele><time>2026-05-03T10:14:12Z</time></trkpt><trkpt lat="39.04974376309286" lon="16.124083364792817"><ele>107.0</ele><time>2026-05-03T10:14:13Z</time></trkpt><trkpt lat="39.04981011824871" lon="16.123912486054202"><ele>107.0</ele><time>2026-05-03T10:14:14Z</time></trkpt><trkpt lat="39.04988214230009" lon="16.12374666493211"><ele>107.0</ele><time>2026-05-03T10:14:15Z</time></trkpt><trkpt lat="39.04995662517069" lon="16.123580146970173"><ele>107.5</ele><time>2026-05-03T10:14:16Z</time></trkpt><trkpt lat="39.05003629442971" lon="16.123414907761415"><ele>108.0</ele><time>2026-05-03T10:14:17Z</time></trkpt><trkpt lat="39.050120130217394" lon="16.123266556441617"><ele>108.5</ele><time>2026-05-03T10:14:18Z</time></trkpt><trkpt lat="39.05021454683724" lon="16.12314722200253"><ele>109.0</ele><time>2026-05-03T10:14:19Z</time></trkpt><trkpt lat="39.05031154907871" lon="16.123059927074536"><ele>109.0</ele><time>2026-05-03T10:14:20Z</time></trkpt><trkpt lat="39.05043372285313" lon="16.123010366412995"><ele>109.0</ele><time>2026-05-03T10:14:21Z</time></trkpt><trkpt lat="39.05056876192395" lon="16.12298249881704"><ele>109.0</ele><time>2026-05-03T10:14:22Z</time></trkpt><trkpt lat="39.05070902234685" lon="16.122970999453074"><ele>109.0</ele><time>2026-05-03T10:14:23Z</time></trkpt><trkpt lat="39.05085026653534" lon="16.12296301275614"><ele>111.75</ele><time>2026-05-03T10:14:24Z</time></trkpt><trkpt lat="39.050995489899805" lon="16.122952143555498"><ele>114.5</ele><time>2026-05-03T10:14:25Z</time></trkpt><trkpt lat="39.05114255475758" lon="16.12293803913247"><ele>117.25</ele><time>2026-05-03T10:14:26Z</time></trkpt><trkpt lat="39.051290899366116" lon="16.12292080547055"><ele>120.0</ele><time>2026-05-03T10:14:27Z</time></trkpt><trkpt lat="39.05143961748746" lon="16.12291543079566"><ele>120.0</ele><time>2026-05-03T10:14:28Z</time></trkpt><trkpt lat="39.051595748782724" lon="16.122925282497196"><ele>120.0</ele><time>2026-05-03T10:14:29Z</time></trkpt><trkpt lat="39.051750703374246" lon="16.122953586542454"><ele>120.0</ele><time>2026-05-03T10:14:30Z</time></trkpt><trkpt lat="39.05189928061087" lon="16.123001185108013"><ele>124.0</ele><time>2026-05-03T10:14:31Z</time></trkpt><trkpt lat="39.052041323295526" lon="16.123079326189917"><ele>128.0</ele><time>2026-05-03T10:14:32Z</time></trkpt><trkpt lat="39.052173298775955" lon="16.12318180408591"><ele>132.0</ele><time>2026-05-03T10:14:33Z</time></trkpt><trkpt lat="39.052298318597806" lon="16.123301667321172"><ele>132.0</ele><time>2026-05-03T10:14:34Z</time></trkpt><trkpt lat="39.052416448197455" lon="16.123426453596977"><ele>132.0</ele><time>2026-05-03T10:14:35Z</time></trkpt><trkpt lat="39.05252113523792" lon="16.12356522562368"><ele>132.0</ele><time>2026-05-03T10:14:36Z</time></trkpt><trkpt lat="39.0525777690264" lon="16.123743636091906"><ele>136.33333333333334</ele><time>2026-05-03T10:14:37Z</time></trkpt><trkpt lat="39.05264155189403" lon="16.123926272619798"><ele>140.66666666666669</ele><time>2026-05-03T10:14:38Z</time></trkpt><trkpt lat="39.05271436916112" lon="16.124117688165903"><ele>145.0</ele><time>2026-05-03T10:14:39Z</time></trkpt><trkpt lat="39.05278236992027" lon="16.124321155374854"><ele>145.0</ele><time>2026-05-03T10:14:40Z</time></trkpt><trkpt lat="39.05285597440927" lon="16.12452271382715"><ele>145.0</ele><time>2026-05-03T10:14:41Z</time></trkpt><trkpt lat="39.052926017803564" lon="16.124724288806966"><ele>145.0</ele><time>2026-05-03T10:14:42Z</time></trkpt><trkpt lat="39.0529955598104" lon="16.124934237921323"><ele>146.33333333333334</ele><time>2026-05-03T10:14:43Z</time></trkpt><trkpt lat="39.05306809107899" lon="16.12514071075932"><ele>147.66666666666666</ele><time>2026-05-03T10:14:44Z</time></trkpt><trkpt lat="39.053143570918316" lon="16.12536322626021"><ele>149.0</ele><time>2026-05-03T10:14:45Z</time></trkpt><trkpt lat="39.053220225142155" lon="16.12559612641102"><ele>152.66666666666666</ele><time>2026-05-03T10:14:46Z</time></trkpt><trkpt lat="39.05329745846314" lon="16.125834052285168"><ele>156.33333333333334</ele><time>2026-05-03T10:14:47Z</time></trkpt><trkpt lat="39.05337695745316" lon="16.126072211848992"><ele>160.0</ele><time>2026-05-03T10:14:48Z</time></trkpt><trkpt lat="39.05345945265771" lon="16.126309410722737"><ele>160.0</ele><time>2026-05-03T10:14:48.999Z</time></trkpt><trkpt lat="39.053545833472" lon="16.12654875140415"><ele>160.0</ele><time>2026-05-03T10:14:49.999Z</time></trkpt><trkpt lat="39.053632644464095" lon="16.12678287608913"><ele>160.0</ele><time>2026-05-03T10:14:50.999Z</time></trkpt><trkpt lat="39.05371549958219" lon="16.127020053463774"><ele>161.66666666666669</ele><time>2026-05-03T10:14:51.999Z</time></trkpt><trkpt lat="39.05378279529781" lon="16.127266337214618"><ele>163.33333333333334</ele><time>2026-05-03T10:14:52.999Z</time></trkpt><trkpt lat="39.05387866843205" lon="16.127497311468023"><ele>165.0</ele><time>2026-05-03T10:14:53.999Z</time></trkpt><trkpt lat="39.053959004666794" lon="16.127738197881694"><ele>166.66666666666666</ele><time>2026-05-03T10:14:54.999Z</time></trkpt><trkpt lat="39.05403947691144" lon="16.127984186796077"><ele>168.33333333333331</ele><time>2026-05-03T10:14:55.999Z</time></trkpt><trkpt lat="39.0541194394563" lon="16.12821575150441"><ele>170.0</ele><time>2026-05-03T10:14:56.999Z</time></trkpt><trkpt lat="39.05419824454208" lon="16.128439944713733"><ele>166.0</ele><time>2026-05-03T10:14:57.999Z</time></trkpt><trkpt lat="39.054270749904994" lon="16.12863949826234"><ele>162.0</ele><time>2026-05-03T10:14:58.999Z</time></trkpt><trkpt lat="39.05435019325541" lon="16.12883040159554"><ele>158.0</ele><time>2026-05-03T10:14:59.999Z</time></trkpt><trkpt lat="39.054441542977415" lon="16.129012643761993"><ele>160.66666666666666</ele><time>2026-05-03T10:15:00.999Z</time></trkpt><trkpt lat="39.05454826920717" lon="16.12918623849295"><ele>163.33333333333334</ele><time>2026-05-03T10:15:01.999Z</time></trkpt><trkpt lat="39.0546679597597" lon="16.12935326031559"><ele>166.0</ele><time>2026-05-03T10:15:02.999Z</time></trkpt><trkpt lat="39.054789658580326" lon="16.129516433673643"><ele>166.0</ele><time>2026-05-03T10:15:03.999Z</time></trkpt><trkpt lat="39.05491172163677" lon="16.12968565474436"><ele>166.0</ele><time>2026-05-03T10:15:04.999Z</time></trkpt><trkpt lat="39.055017482994664" lon="16.129856172116842"><ele>166.0</ele><time>2026-05-03T10:15:05.999Z</time></trkpt><trkpt lat="39.05510086352641" lon="16.13003871640378"><ele>166.0</ele><time>2026-05-03T10:15:06.999Z</time></trkpt><trkpt lat="39.0551439112106" lon="16.130245238466355"><ele>166.0</ele><time>2026-05-03T10:15:07.999Z</time></trkpt><trkpt lat="39.05518931191491" lon="16.13048312982358"><ele>166.0</ele><time>2026-05-03T10:15:08.999Z</time></trkpt><trkpt lat="39.0552552801069" lon="16.1307714903159"><ele>166.0</ele><time>2026-05-03T10:15:09.999Z</time></trkpt><trkpt lat="39.05534464883727" lon="16.131035269856852"><ele>166.0</ele><time>2026-05-03T10:15:10.999Z</time></trkpt><trkpt lat="39.05545889280223" lon="16.1312942768401"><ele>166.0</ele><time>2026-05-03T10:15:11.999Z</time></trkpt><trkpt lat="39.05557524880694" lon="16.131533919758507"><ele>166.0</ele><time>2026-05-03T10:15:12.999Z</time></trkpt><trkpt lat="39.05568059226445" lon="16.131758396641658"><ele>166.0</ele><time>2026-05-03T10:15:13.999Z</time></trkpt><trkpt lat="39.055778820906326" lon="16.131937787076044"><ele>165.0</ele><time>2026-05-03T10:15:14.999Z</time></trkpt><trkpt lat="39.05583658347846" lon="16.13212227169374"><ele>164.0</ele><time>2026-05-03T10:15:15.999Z</time></trkpt><trkpt lat="39.05584782791122" lon="16.132311132269876"><ele>163.0</ele><time>2026-05-03T10:15:16.999Z</time></trkpt><trkpt lat="39.05584441744234" lon="16.13250566099304"><ele>163.0</ele><time>2026-05-03T10:15:17.999Z</time></trkpt><trkpt lat="39.05583230385677" lon="16.132748707763366"><ele>163.0</ele><time>2026-05-03T10:15:18.999Z</time></trkpt><trkpt lat="39.05581354113473" lon="16.133022451874535"><ele>163.0</ele><time>2026-05-03T10:15:20Z</time></trkpt><trkpt lat="39.05579595787092" lon="16.133289405452324"><ele>166.66666666666669</ele><time>2026-05-03T10:15:21Z</time></trkpt><trkpt lat="39.05578013842824" lon="16.13352741152026"><ele>170.33333333333334</ele><time>2026-05-03T10:15:22Z</time></trkpt><trkpt lat="39.055782874093865" lon="16.133740069288677"><ele>174.0</ele><time>2026-05-03T10:15:23Z</time></trkpt><trkpt lat="39.055778231186174" lon="16.133939281195445"><ele>172.0</ele><time>2026-05-03T10:15:24Z</time></trkpt><trkpt lat="39.055791897042845" lon="16.13413727618578"><ele>170.0</ele><time>2026-05-03T10:15:25Z</time></trkpt><trkpt lat="39.05583146333684" lon="16.134328722924856"><ele>168.0</ele><time>2026-05-03T10:15:26Z</time></trkpt><trkpt lat="39.055900689319635" lon="16.134504743111478"><ele>168.0</ele><time>2026-05-03T10:15:27Z</time></trkpt><trkpt lat="39.05599495990014" lon="16.134674597286562"><ele>168.0</ele><time>2026-05-03T10:15:28Z</time></trkpt><trkpt lat="39.05610562471193" lon="16.13483970023983"><ele>168.0</ele><time>2026-05-03T10:15:29Z</time></trkpt><trkpt lat="39.05622904743751" lon="16.135001719086524"><ele>167.33333333333334</ele><time>2026-05-03T10:15:30Z</time></trkpt><trkpt lat="39.056365668684144" lon="16.135163554101034"><ele>166.66666666666669</ele><time>2026-05-03T10:15:31Z</time></trkpt><trkpt lat="39.056495521834364" lon="16.135344333917168"><ele>166.0</ele><time>2026-05-03T10:15:32Z</time></trkpt><trkpt lat="39.05663958393853" lon="16.135520079745227"><ele>166.0</ele><time>2026-05-03T10:15:33Z</time></trkpt><trkpt lat="39.05678050401657" lon="16.13569530325456"><ele>166.0</ele><time>2026-05-03T10:15:34Z</time></trkpt><trkpt lat="39.056931115466405" lon="16.135862015517247"><ele>166.0</ele><time>2026-05-03T10:15:35Z</time></trkpt><trkpt lat="39.05707731456553" lon="16.136045665879568"><ele>170.33333333333334</ele><time>2026-05-03T10:15:36Z</time></trkpt><trkpt lat="39.0572384548985" lon="16.136242182455998"><ele>174.66666666666666</ele><time>2026-05-03T10:15:37Z</time></trkpt><trkpt lat="39.057399142577395" lon="16.136439651539543"><ele>179.0</ele><time>2026-05-03T10:15:38Z</time></trkpt><trkpt lat="39.057541478066454" lon="16.13664752461909"><ele>179.33333333333331</ele><time>2026-05-03T10:15:39Z</time></trkpt><trkpt lat="39.05769615940858" lon="16.13681538408281"><ele>179.66666666666666</ele><time>2026-05-03T10:15:40Z</time></trkpt><trkpt lat="39.057826669097985" lon="16.136988613149697"><ele>180.0</ele><time>2026-05-03T10:15:41Z</time></trkpt><trkpt lat="39.05794961059945" lon="16.137144991552535"><ele>180.0</ele><time>2026-05-03T10:15:42Z</time></trkpt><trkpt lat="39.058069734644896" lon="16.137283008074565"><ele>180.0</ele><time>2026-05-03T10:15:43Z</time></trkpt><trkpt lat="39.05815604814234" lon="16.137425450138583"><ele>180.0</ele><time>2026-05-03T10:15:44Z</time></trkpt><trkpt lat="39.058239250987434" lon="16.137567542013983"><ele>180.0</ele><time>2026-05-03T10:15:45Z</time></trkpt><trkpt lat="39.05831927666318" lon="16.13773765102721"><ele>180.66666666666666</ele><time>2026-05-03T10:15:46Z</time></trkpt><trkpt lat="39.05841316980992" lon="16.137922656144795"><ele>181.33333333333331</ele><time>2026-05-03T10:15:47Z</time></trkpt><trkpt lat="39.05848782936491" lon="16.13812895890836"><ele>182.0</ele><time>2026-05-03T10:15:48Z</time></trkpt><trkpt lat="39.058566320177434" lon="16.138340431136463"><ele>184.33333333333331</ele><time>2026-05-03T10:15:49Z</time></trkpt><trkpt lat="39.05864006239118" lon="16.138538986091355"><ele>186.66666666666666</ele><time>2026-05-03T10:15:50Z</time></trkpt><trkpt lat="39.05870346243781" lon="16.138736263401466"><ele>189.0</ele><time>2026-05-03T10:15:51Z</time></trkpt><trkpt lat="39.05875110661574" lon="16.138945238514395"><ele>191.0</ele><time>2026-05-03T10:15:52Z</time></trkpt><trkpt lat="39.058787814661606" lon="16.139161828169396"><ele>193.0</ele><time>2026-05-03T10:15:53Z</time></trkpt><trkpt lat="39.0588132082507" lon="16.139376774562397"><ele>195.0</ele><time>2026-05-03T10:15:54Z</time></trkpt><trkpt lat="39.058836189968474" lon="16.139600975607877"><ele>195.0</ele><time>2026-05-03T10:15:55Z</time></trkpt><trkpt lat="39.05886141851868" lon="16.139826079722134"><ele>195.0</ele><time>2026-05-03T10:15:56Z</time></trkpt><trkpt lat="39.0588873922583" lon="16.1400395234607"><ele>195.0</ele><time>2026-05-03T10:15:57Z</time></trkpt><trkpt lat="39.058904158619356" lon="16.14026274242823"><ele>197.0</ele><time>2026-05-03T10:15:58Z</time></trkpt><trkpt lat="39.05896122574337" lon="16.140460844295212"><ele>199.0</ele><time>2026-05-03T10:15:59Z</time></trkpt><trkpt lat="39.05906234388933" lon="16.14063827787696"><ele>201.0</ele><time>2026-05-03T10:16:00Z</time></trkpt><trkpt lat="39.05916533662296" lon="16.140809406836006"><ele>201.0</ele><time>2026-05-03T10:16:01Z</time></trkpt><trkpt lat="39.05929904364731" lon="16.14094948114667"><ele>201.0</ele><time>2026-05-03T10:16:02Z</time></trkpt><trkpt lat="39.05945271215395" lon="16.141069284187974"><ele>201.0</ele><time>2026-05-03T10:16:03Z</time></trkpt><trkpt lat="39.05964023368652" lon="16.14118034062569"><ele>201.0</ele><time>2026-05-03T10:16:04Z</time></trkpt><trkpt lat="39.05982537177888" lon="16.141318569268545"><ele>201.0</ele><time>2026-05-03T10:16:05Z</time></trkpt><trkpt lat="39.0599990206812" lon="16.141427207599055"><ele>201.0</ele><time>2026-05-03T10:16:06Z</time></trkpt><trkpt lat="39.06015350399456" lon="16.141524893192774"><ele>204.33333333333331</ele><time>2026-05-03T10:16:07Z</time></trkpt><trkpt lat="39.06029130583129" lon="16.141632317887876"><ele>207.66666666666666</ele><time>2026-05-03T10:16:08Z</time></trkpt><trkpt lat="39.060437505595445" lon="16.141743333225804"><ele>211.0</ele><time>2026-05-03T10:16:09Z</time></trkpt><trkpt lat="39.06057693401655" lon="16.141902585805187"><ele>211.0</ele><time>2026-05-03T10:16:10Z</time></trkpt><trkpt lat="39.06071052166543" lon="16.142075925511424"><ele>211.0</ele><time>2026-05-03T10:16:11Z</time></trkpt><trkpt lat="39.06083497385731" lon="16.14224790889961"><ele>211.0</ele><time>2026-05-03T10:16:12Z</time></trkpt><trkpt lat="39.06090516341" lon="16.14242461385701"><ele>212.66666666666666</ele><time>2026-05-03T10:16:13Z</time></trkpt><trkpt lat="39.06096503477493" lon="16.142593343707695"><ele>214.33333333333331</ele><time>2026-05-03T10:16:14Z</time></trkpt><trkpt lat="39.06101533825738" lon="16.142803894291458"><ele>216.0</ele><time>2026-05-03T10:16:15Z</time></trkpt><trkpt lat="39.061065937616604" lon="16.14304012044257"><ele>219.0</ele><time>2026-05-03T10:16:16Z</time></trkpt><trkpt lat="39.061116974678484" lon="16.14328822236251"><ele>222.0</ele><time>2026-05-03T10:16:17Z</time></trkpt><trkpt lat="39.061182115058465" lon="16.143538768727346"><ele>225.0</ele><time>2026-05-03T10:16:18Z</time></trkpt><trkpt lat="39.06123036748987" lon="16.143782889418866"><ele>225.0</ele><time>2026-05-03T10:16:19Z</time></trkpt><trkpt lat="39.06128515110598" lon="16.144009560709197"><ele>225.0</ele><time>2026-05-03T10:16:20Z</time></trkpt><trkpt lat="39.06135472067523" lon="16.14422189118255"><ele>225.0</ele><time>2026-05-03T10:16:21Z</time></trkpt><trkpt lat="39.06143862436872" lon="16.1444137350638"><ele>225.66666666666669</ele><time>2026-05-03T10:16:22Z</time></trkpt><trkpt lat="39.06154809458964" lon="16.14458177633387"><ele>226.33333333333334</ele><time>2026-05-03T10:16:23Z</time></trkpt><trkpt lat="39.06167763132859" lon="16.144734388914745"><ele>227.0</ele><time>2026-05-03T10:16:24Z</time></trkpt><trkpt lat="39.0618241105997" lon="16.14487467687441"><ele>229.33333333333334</ele><time>2026-05-03T10:16:25Z</time></trkpt><trkpt lat="39.06198810643031" lon="16.144987888010355"><ele>231.66666666666669</ele><time>2026-05-03T10:16:26Z</time></trkpt><trkpt lat="39.062166758566285" lon="16.145084182623776"><ele>234.0</ele><time>2026-05-03T10:16:27Z</time></trkpt><trkpt lat="39.06236955271999" lon="16.145200567255998"><ele>234.5</ele><time>2026-05-03T10:16:28Z</time></trkpt><trkpt lat="39.06257793469445" lon="16.145330009547564"><ele>235.0</ele><time>2026-05-03T10:16:29Z</time></trkpt><trkpt lat="39.06277774309545" lon="16.14545434803749"><ele>235.0</ele><time>2026-05-03T10:16:30Z</time></trkpt><trkpt lat="39.06296614138847" lon="16.145573454283554"><ele>235.0</ele><time>2026-05-03T10:16:31Z</time></trkpt><trkpt lat="39.063151001696745" lon="16.145690298056934"><ele>235.0</ele><time>2026-05-03T10:16:32Z</time></trkpt><trkpt lat="39.06333366005869" lon="16.145795065314854"><ele>238.33333333333331</ele><time>2026-05-03T10:16:33Z</time></trkpt><trkpt lat="39.0635162082637" lon="16.145897058004657"><ele>241.66666666666669</ele><time>2026-05-03T10:16:34Z</time></trkpt><trkpt lat="39.06369587669187" lon="16.146004918076994"><ele>245.0</ele><time>2026-05-03T10:16:35Z</time></trkpt><trkpt lat="39.06387118738763" lon="16.146121423476377"><ele>245.0</ele><time>2026-05-03T10:16:36Z</time></trkpt><trkpt lat="39.06404627919788" lon="16.146257874396778"><ele>245.0</ele><time>2026-05-03T10:16:37Z</time></trkpt><trkpt lat="39.06421371554748" lon="16.14644427810917"><ele>245.0</ele><time>2026-05-03T10:16:38Z</time></trkpt><trkpt lat="39.064410843576944" lon="16.1466302232111"><ele>250.5</ele><time>2026-05-03T10:16:39Z</time></trkpt><trkpt lat="39.06459587942008" lon="16.146834277175092"><ele>256.0</ele><time>2026-05-03T10:16:40Z</time></trkpt><trkpt lat="39.064759144720284" lon="16.14703703652229"><ele>256.0</ele><time>2026-05-03T10:16:41Z</time></trkpt><trkpt lat="39.064928206703684" lon="16.147224532371"><ele>256.0</ele><time>2026-05-03T10:16:42Z</time></trkpt><trkpt lat="39.06509834294734" lon="16.147413219614585"><ele>256.0</ele><time>2026-05-03T10:16:42.999Z</time></trkpt><trkpt lat="39.06526622098431" lon="16.147599446840943"><ele>257.66666666666663</ele><time>2026-05-03T10:16:43.999Z</time></trkpt><trkpt lat="39.06543241370186" lon="16.14778393477326"><ele>259.3333333333333</ele><time>2026-05-03T10:16:44.999Z</time></trkpt><trkpt lat="39.065597069903205" lon="16.147966717010082"><ele>261.0</ele><time>2026-05-03T10:16:45.999Z</time></trkpt><trkpt lat="39.06576588197942" lon="16.14812783686006"><ele>262.25</ele><time>2026-05-03T10:16:46.999Z</time></trkpt><trkpt lat="39.06590264471891" lon="16.14828260926877"><ele>263.5</ele><time>2026-05-03T10:16:47.999Z</time></trkpt><trkpt lat="39.06599775059227" lon="16.1483923706355"><ele>264.75</ele><time>2026-05-03T10:16:48.999Z</time></trkpt><trkpt lat="39.06606350096752" lon="16.148489298646773"><ele>266.0</ele><time>2026-05-03T10:16:49.999Z</time></trkpt><trkpt lat="39.06608514396554" lon="16.148628172192268"><ele>266.0</ele><time>2026-05-03T10:16:51.999Z</time></trkpt><trkpt lat="39.06620942865175" lon="16.148729421080454"><ele>266.0</ele><time>2026-05-03T10:16:53.999Z</time></trkpt><trkpt lat="39.06629528226276" lon="16.148770862877228"><ele>266.0</ele><time>2026-05-03T10:16:54.999Z</time></trkpt><trkpt lat="39.06635197270178" lon="16.148851850768544"><ele>266.0</ele><time>2026-05-03T10:16:55.999Z</time></trkpt><trkpt lat="39.066377838118086" lon="16.14893761673591"><ele>266.0</ele><time>2026-05-03T10:16:56.999Z</time></trkpt><trkpt lat="39.06632887235123" lon="16.14904865945542"><ele>266.6</ele><time>2026-05-03T10:16:57.999Z</time></trkpt><trkpt lat="39.066339319894524" lon="16.14915814341857"><ele>267.20000000000005</ele><time>2026-05-03T10:16:58.999Z</time></trkpt><trkpt lat="39.06635827801202" lon="16.149263747340036"><ele>267.79999999999995</ele><time>2026-05-03T10:16:59.999Z</time></trkpt><trkpt lat="39.06643540217956" lon="16.149362819477812"><ele>268.4</ele><time>2026-05-03T10:17:00.999Z</time></trkpt><trkpt lat="39.06651461841897" lon="16.14946425107809"><ele>269.0</ele><time>2026-05-03T10:17:01.999Z</time></trkpt><trkpt lat="39.06658020653917" lon="16.149579325459907"><ele>271.0</ele><time>2026-05-03T10:17:02.999Z</time></trkpt><trkpt lat="39.06665045129453" lon="16.149689440553924"><ele>273.0</ele><time>2026-05-03T10:17:03.999Z</time></trkpt><trkpt lat="39.066729296758936" lon="16.149798165319964"><ele>275.0</ele><time>2026-05-03T10:17:04.999Z</time></trkpt><trkpt lat="39.06683000538552" lon="16.149891415718162"><ele>277.0</ele><time>2026-05-03T10:17:05.999Z</time></trkpt><trkpt lat="39.0669375670075" lon="16.149972579801418"><ele>278.0</ele><time>2026-05-03T10:17:06.999Z</time></trkpt><trkpt lat="39.06706437392472" lon="16.150027968680092"><ele>279.0</ele><time>2026-05-03T10:17:07.999Z</time></trkpt><trkpt lat="39.067177627380005" lon="16.150116511200608"><ele>280.0</ele><time>2026-05-03T10:17:08.999Z</time></trkpt><trkpt lat="39.06729001647363" lon="16.150230562801397"><ele>281.0</ele><time>2026-05-03T10:17:09.999Z</time></trkpt><trkpt lat="39.067405059137094" lon="16.150369123854123"><ele>282.0</ele><time>2026-05-03T10:17:10.999Z</time></trkpt><trkpt lat="39.0675122781229" lon="16.150532251940483"><ele>283.0</ele><time>2026-05-03T10:17:11.999Z</time></trkpt><trkpt lat="39.06764191812615" lon="16.150678047084263"><ele>284.0</ele><time>2026-05-03T10:17:12.999Z</time></trkpt><trkpt lat="39.06778813421753" lon="16.15082188038493"><ele>287.0</ele><time>2026-05-03T10:17:13.999Z</time></trkpt><trkpt lat="39.067930367301685" lon="16.150947216756844"><ele>290.0</ele><time>2026-05-03T10:17:14.999Z</time></trkpt><trkpt lat="39.068073892219445" lon="16.151054117233887"><ele>293.0</ele><time>2026-05-03T10:17:15.999Z</time></trkpt><trkpt lat="39.06822560524327" lon="16.151124475763137"><ele>293.6666666666667</ele><time>2026-05-03T10:17:16.999Z</time></trkpt><trkpt lat="39.06837008896131" lon="16.15121730823175"><ele>294.3333333333333</ele><time>2026-05-03T10:17:17.999Z</time></trkpt><trkpt lat="39.06852037269845" lon="16.15128552281462"><ele>295.0</ele><time>2026-05-03T10:17:18.999Z</time></trkpt><trkpt lat="39.068666399422085" lon="16.151351805073304"><ele>295.0</ele><time>2026-05-03T10:17:19.999Z</time></trkpt><trkpt lat="39.06880901806118" lon="16.151416540405073"><ele>295.0</ele><time>2026-05-03T10:17:20.999Z</time></trkpt><trkpt lat="39.068953668946676" lon="16.151482131600524"><ele>295.0</ele><time>2026-05-03T10:17:21.999Z</time></trkpt><trkpt lat="39.069100844002605" lon="16.151523150424904"><ele>299.75</ele><time>2026-05-03T10:17:22.999Z</time></trkpt><trkpt lat="39.06924278022513" lon="16.15158803172118"><ele>304.5</ele><time>2026-05-03T10:17:23.999Z</time></trkpt><trkpt lat="39.06938295604824" lon="16.15164881371037"><ele>309.25</ele><time>2026-05-03T10:17:24.999Z</time></trkpt><trkpt lat="39.06951203613014" lon="16.151705207846728"><ele>314.0</ele><time>2026-05-03T10:17:26Z</time></trkpt><trkpt lat="39.06961359060569" lon="16.151756759608514"><ele>314.0</ele><time>2026-05-03T10:17:27Z</time></trkpt><trkpt lat="39.06968480051234" lon="16.151808850832634"><ele>314.0</ele><time>2026-05-03T10:17:28Z</time></trkpt><trkpt lat="39.069727459395246" lon="16.15188285532889"><ele>314.0</ele><time>2026-05-03T10:17:29Z</time></trkpt><trkpt lat="39.069782611241465" lon="16.151963386105535"><ele>314.0</ele><time>2026-05-03T10:17:30Z</time></trkpt><trkpt lat="39.069835923704744" lon="16.152073209546128"><ele>314.0</ele><time>2026-05-03T10:17:31Z</time></trkpt><trkpt lat="39.069890716697174" lon="16.15221459823706"><ele>313.5</ele><time>2026-05-03T10:17:32Z</time></trkpt><trkpt lat="39.069953945417254" lon="16.152369131689607"><ele>313.0</ele><time>2026-05-03T10:17:33Z</time></trkpt><trkpt lat="39.07001871176625" lon="16.152526109270273"><ele>312.5</ele><time>2026-05-03T10:17:34Z</time></trkpt><trkpt lat="39.07008069729715" lon="16.152675909276724"><ele>312.0</ele><time>2026-05-03T10:17:35Z</time></trkpt><trkpt lat="39.07015338919383" lon="16.15281874614096"><ele>311.75</ele><time>2026-05-03T10:17:36Z</time></trkpt><trkpt lat="39.07024462956098" lon="16.152948183583213"><ele>311.5</ele><time>2026-05-03T10:17:37Z</time></trkpt><trkpt lat="39.0703253267606" lon="16.15309323407216"><ele>311.25</ele><time>2026-05-03T10:17:38Z</time></trkpt><trkpt lat="39.070399235932136" lon="16.15325508614672"><ele>311.0</ele><time>2026-05-03T10:17:39Z</time></trkpt><trkpt lat="39.07048363531529" lon="16.153408161522627"><ele>311.0</ele><time>2026-05-03T10:17:40Z</time></trkpt><trkpt lat="39.07057730462924" lon="16.153558467099256"><ele>311.0</ele><time>2026-05-03T10:17:41Z</time></trkpt><trkpt lat="39.070691554538804" lon="16.153691459676292"><ele>311.0</ele><time>2026-05-03T10:17:42Z</time></trkpt><trkpt lat="39.070804328281525" lon="16.153836585275535"><ele>311.5</ele><time>2026-05-03T10:17:43Z</time></trkpt><trkpt lat="39.070924183054466" lon="16.15396517583723"><ele>312.0</ele><time>2026-05-03T10:17:44Z</time></trkpt><trkpt lat="39.07102210692713" lon="16.154101355729534"><ele>312.5</ele><time>2026-05-03T10:17:45Z</time></trkpt><trkpt lat="39.07111478825444" lon="16.15418906434318"><ele>313.0</ele><time>2026-05-03T10:17:46Z</time></trkpt><trkpt lat="39.07120839773487" lon="16.154269697685148"><ele>313.0</ele><time>2026-05-03T10:17:47Z</time></trkpt><trkpt lat="39.07124108465071" lon="16.154397249684738"><ele>313.0</ele><time>2026-05-03T10:17:48Z</time></trkpt><trkpt lat="39.07127929462487" lon="16.154534311525932"><ele>313.0</ele><time>2026-05-03T10:17:49Z</time></trkpt><trkpt lat="39.071323234551535" lon="16.154681452160002"><ele>313.0</ele><time>2026-05-03T10:17:50Z</time></trkpt><trkpt lat="39.071370828273686" lon="16.154809307475595"><ele>312.2</ele><time>2026-05-03T10:17:51Z</time></trkpt><trkpt lat="39.07142203610681" lon="16.154919662844417"><ele>311.4</ele><time>2026-05-03T10:17:52Z</time></trkpt><trkpt lat="39.07147785446102" lon="16.155003315158165"><ele>310.59999999999997</ele><time>2026-05-03T10:17:53Z</time></trkpt><trkpt lat="39.07148711771997" lon="16.155104152421007"><ele>309.8</ele><time>2026-05-03T10:17:54Z</time></trkpt><trkpt lat="39.07143732976716" lon="16.15521173307084"><ele>309.0</ele><time>2026-05-03T10:17:55Z</time></trkpt><trkpt lat="39.07139531001277" lon="16.155346341199195"><ele>309.0</ele><time>2026-05-03T10:17:56Z</time></trkpt><trkpt lat="39.07136831581404" lon="16.155491580077182"><ele>309.0</ele><time>2026-05-03T10:17:57Z</time></trkpt><trkpt lat="39.071335276192904" lon="16.155645724440955"><ele>309.0</ele><time>2026-05-03T10:17:58Z</time></trkpt><trkpt lat="39.07130002205466" lon="16.15580810965431"><ele>309.0</ele><time>2026-05-03T10:17:59Z</time></trkpt><trkpt lat="39.071323116396705" lon="16.155980614358207"><ele>307.5</ele><time>2026-05-03T10:18:00Z</time></trkpt><trkpt lat="39.07133814634319" lon="16.15615777120325"><ele>306.0</ele><time>2026-05-03T10:18:01Z</time></trkpt><trkpt lat="39.071327646416286" lon="16.156342485318127"><ele>304.5</ele><time>2026-05-03T10:18:02Z</time></trkpt><trkpt lat="39.07134424929672" lon="16.156525248810492"><ele>303.0</ele><time>2026-05-03T10:18:03Z</time></trkpt><trkpt lat="39.07131742548019" lon="16.1566989933893"><ele>302.75</ele><time>2026-05-03T10:18:04Z</time></trkpt><trkpt lat="39.07130261137916" lon="16.1568761392102"><ele>302.5</ele><time>2026-05-03T10:18:05Z</time></trkpt><trkpt lat="39.07131144135167" lon="16.15705099829193"><ele>302.25</ele><time>2026-05-03T10:18:06Z</time></trkpt><trkpt lat="39.07129339541307" lon="16.157211345493224"><ele>302.0</ele><time>2026-05-03T10:18:07Z</time></trkpt><trkpt lat="39.0712888046427" lon="16.157375144756376"><ele>301.25</ele><time>2026-05-03T10:18:08Z</time></trkpt><trkpt lat="39.07128399654257" lon="16.15754592000815"><ele>300.5</ele><time>2026-05-03T10:18:09Z</time></trkpt><trkpt lat="39.071294835619554" lon="16.15769944905336"><ele>299.75</ele><time>2026-05-03T10:18:10Z</time></trkpt><trkpt lat="39.07133858966581" lon="16.157851513122957"><ele>299.0</ele><time>2026-05-03T10:18:11Z</time></trkpt><trkpt lat="39.071409722719245" lon="16.15798602608963"><ele>299.0</ele><time>2026-05-03T10:18:12Z</time></trkpt><trkpt lat="39.07145524885622" lon="16.158142270055546"><ele>299.0</ele><time>2026-05-03T10:18:13Z</time></trkpt><trkpt lat="39.07151768930796" lon="16.15829654069761"><ele>299.0</ele><time>2026-05-03T10:18:14Z</time></trkpt><trkpt lat="39.071579076719686" lon="16.158448209718074"><ele>299.0</ele><time>2026-05-03T10:18:15Z</time></trkpt><trkpt lat="39.071637423611996" lon="16.1585851369432"><ele>301.75</ele><time>2026-05-03T10:18:16Z</time></trkpt><trkpt lat="39.071705662772544" lon="16.158714757743"><ele>304.5</ele><time>2026-05-03T10:18:17Z</time></trkpt><trkpt lat="39.07180478059531" lon="16.15881015906438"><ele>307.25</ele><time>2026-05-03T10:18:18Z</time></trkpt><trkpt lat="39.07188178877714" lon="16.15893148914265"><ele>310.0</ele><time>2026-05-03T10:18:19Z</time></trkpt><trkpt lat="39.0719765248714" lon="16.15900845840624"><ele>310.0</ele><time>2026-05-03T10:18:20Z</time></trkpt><trkpt lat="39.07210138387113" lon="16.15902926529105"><ele>310.0</ele><time>2026-05-03T10:18:21Z</time></trkpt><trkpt lat="39.07222640643903" lon="16.159060369853876"><ele>310.0</ele><time>2026-05-03T10:18:22Z</time></trkpt><trkpt lat="39.07235433156453" lon="16.1591069839698"><ele>310.0</ele><time>2026-05-03T10:18:23Z</time></trkpt><trkpt lat="39.0724783220875" lon="16.159181903518633"><ele>310.5</ele><time>2026-05-03T10:18:24Z</time></trkpt><trkpt lat="39.07257868136691" lon="16.159273974495864"><ele>311.0</ele><time>2026-05-03T10:18:25Z</time></trkpt><trkpt lat="39.07265683943011" lon="16.159384834392164"><ele>311.5</ele><time>2026-05-03T10:18:26Z</time></trkpt><trkpt lat="39.072692886084084" lon="16.159539234297554"><ele>312.0</ele><time>2026-05-03T10:18:27Z</time></trkpt><trkpt lat="39.0727461312174" lon="16.159695068263883"><ele>312.0</ele><time>2026-05-03T10:18:28Z</time></trkpt><trkpt lat="39.07281329972591" lon="16.159810453638954"><ele>312.0</ele><time>2026-05-03T10:18:29Z</time></trkpt><trkpt lat="39.07285875889191" lon="16.159917453052568"><ele>312.0</ele><time>2026-05-03T10:18:30Z</time></trkpt><trkpt lat="39.07289935493643" lon="16.160023843869453"><ele>312.0</ele><time>2026-05-03T10:18:31Z</time></trkpt><trkpt lat="39.0729587152948" lon="16.16008973507545"><ele>312.0</ele><time>2026-05-03T10:18:32Z</time></trkpt><trkpt lat="39.0729125299415" lon="16.160226853807313"><ele>310.25</ele><time>2026-05-03T10:18:33Z</time></trkpt><trkpt lat="39.07289600920638" lon="16.160352887276428"><ele>308.5</ele><time>2026-05-03T10:18:34Z</time></trkpt><trkpt lat="39.07281514643035" lon="16.160463978700207"><ele>306.75</ele><time>2026-05-03T10:18:35Z</time></trkpt><trkpt lat="39.072738132219854" lon="16.160611199692237"><ele>305.0</ele><time>2026-05-03T10:18:36Z</time></trkpt><trkpt lat="39.072659999334405" lon="16.160763197220422"><ele>305.0</ele><time>2026-05-03T10:18:37Z</time></trkpt><trkpt lat="39.072586858737125" lon="16.160929798932507"><ele>305.0</ele><time>2026-05-03T10:18:37.999Z</time></trkpt><trkpt lat="39.07249569484152" lon="16.16107936737282"><ele>305.0</ele><time>2026-05-03T10:18:38.999Z</time></trkpt><trkpt lat="39.072367526054606" lon="16.161146272762856"><ele>305.0</ele><time>2026-05-03T10:18:39.999Z</time></trkpt><trkpt lat="39.07221961614554" lon="16.161242338957052"><ele>302.8</ele><time>2026-05-03T10:18:40.999Z</time></trkpt><trkpt lat="39.072075086441295" lon="16.161338550233744"><ele>300.6</ele><time>2026-05-03T10:18:41.999Z</time></trkpt><trkpt lat="39.07197854685388" lon="16.161426737843925"><ele>298.4</ele><time>2026-05-03T10:18:42.999Z</time></trkpt><trkpt lat="39.07190077413839" lon="16.161486985970313"><ele>296.2</ele><time>2026-05-03T10:18:43.999Z</time></trkpt><trkpt lat="39.07184481844446" lon="16.161552575578686"><ele>294.0</ele><time>2026-05-03T10:18:44.999Z</time></trkpt><trkpt lat="39.071845888600826" lon="16.161686017550867"><ele>294.0</ele><time>2026-05-03T10:18:45.999Z</time></trkpt><trkpt lat="39.07187676804945" lon="16.161818782152405"><ele>294.0</ele><time>2026-05-03T10:18:46.999Z</time></trkpt><trkpt lat="39.07193986047753" lon="16.1619432093636"><ele>294.0</ele><time>2026-05-03T10:18:47.999Z</time></trkpt><trkpt lat="39.07200688301355" lon="16.162083703271882"><ele>294.0</ele><time>2026-05-03T10:18:48.999Z</time></trkpt><trkpt lat="39.071983716984654" lon="16.16222655063277"><ele>294.0</ele><time>2026-05-03T10:18:49.999Z</time></trkpt><trkpt lat="39.07195031131385" lon="16.16236464081851"><ele>294.0</ele><time>2026-05-03T10:18:50.999Z</time></trkpt><trkpt lat="39.07189327647644" lon="16.162535657718067"><ele>294.0</ele><time>2026-05-03T10:18:51.999Z</time></trkpt><trkpt lat="39.07182911637824" lon="16.162728683627734"><ele>294.0</ele><time>2026-05-03T10:18:52.999Z</time></trkpt><trkpt lat="39.071772068256095" lon="16.162894006879508"><ele>295.5</ele><time>2026-05-03T10:18:53.999Z</time></trkpt><trkpt lat="39.07172285005758" lon="16.163041261282956"><ele>297.0</ele><time>2026-05-03T10:18:54.999Z</time></trkpt><trkpt lat="39.07167335825908" lon="16.163179714091886"><ele>298.5</ele><time>2026-05-03T10:18:55.999Z</time></trkpt><trkpt lat="39.071642916163135" lon="16.16331687071833"><ele>300.0</ele><time>2026-05-03T10:18:56.999Z</time></trkpt><trkpt lat="39.07168365568802" lon="16.16346061225511"><ele>300.0</ele><time>2026-05-03T10:18:57.999Z</time></trkpt><trkpt lat="39.07173388562764" lon="16.163608725898698"><ele>300.0</ele><time>2026-05-03T10:18:58.999Z</time></trkpt><trkpt lat="39.07178863545877" lon="16.16376714964385"><ele>300.0</ele><time>2026-05-03T10:18:59.999Z</time></trkpt><trkpt lat="39.07184900627459" lon="16.16392857878296"><ele>300.0</ele><time>2026-05-03T10:19:00.999Z</time></trkpt><trkpt lat="39.071908048999205" lon="16.16408575729751"><ele>297.5</ele><time>2026-05-03T10:19:01.999Z</time></trkpt><trkpt lat="39.07195968757141" lon="16.16423926003802"><ele>295.0</ele><time>2026-05-03T10:19:02.999Z</time></trkpt><trkpt lat="39.071993828271864" lon="16.16438830042457"><ele>292.5</ele><time>2026-05-03T10:19:03.999Z</time></trkpt><trkpt lat="39.07200599733021" lon="16.164532871789966"><ele>290.0</ele><time>2026-05-03T10:19:04.999Z</time></trkpt><trkpt lat="39.07201183481269" lon="16.164696325777378"><ele>290.0</ele><time>2026-05-03T10:19:05.999Z</time></trkpt><trkpt lat="39.07200263581021" lon="16.164823062072557"><ele>290.0</ele><time>2026-05-03T10:19:06.999Z</time></trkpt><trkpt lat="39.071913229276014" lon="16.164903332829688"><ele>290.0</ele><time>2026-05-03T10:19:07.999Z</time></trkpt><trkpt lat="39.07188792324934" lon="16.16500440847577"><ele>290.0</ele><time>2026-05-03T10:19:08.999Z</time></trkpt><trkpt lat="39.07189464716235" lon="16.16516513055397"><ele>290.0</ele><time>2026-05-03T10:19:09.999Z</time></trkpt><trkpt lat="39.071853860938134" lon="16.165276968393243"><ele>290.57142857142856</ele><time>2026-05-03T10:19:10.999Z</time></trkpt><trkpt lat="39.07182312629438" lon="16.165368912677696"><ele>291.14285714285717</ele><time>2026-05-03T10:19:11.999Z</time></trkpt><trkpt lat="39.07178776091562" lon="16.165447404469305"><ele>291.7142857142857</ele><time>2026-05-03T10:19:13.999Z</time></trkpt><trkpt lat="39.07175519997084" lon="16.165531283972022"><ele>292.2857142857143</ele><time>2026-05-03T10:20:22Z</time></trkpt><trkpt lat="39.07172701184406" lon="16.165608335805864"><ele>292.8571428571429</ele><time>2026-05-03T10:20:28.999Z</time></trkpt><trkpt lat="39.07166475891906" lon="16.165637397412766"><ele>293.42857142857144</ele><time>2026-05-03T10:25:04Z</time></trkpt><trkpt lat="39.07171911395058" lon="16.1655946742107"><ele>294.0</ele><time>2026-05-03T10:44:48Z</time></trkpt><trkpt lat="39.071773172492364" lon="16.16554262842296"><ele>294.0</ele><time>2026-05-03T10:44:55Z</time></trkpt><trkpt lat="39.071818724093845" lon="16.165477684611208"><ele>294.0</ele><time>2026-05-03T10:45:02Z</time></trkpt><trkpt lat="39.07175474504322" lon="16.165522017075588"><ele>294.0</ele><time>2026-05-03T10:52:12Z</time></trkpt><trkpt lat="39.07172001855454" lon="16.165599380621998"><ele>294.0</ele><time>2026-05-03T10:52:14.999Z</time></trkpt><trkpt lat="39.07177505617792" lon="16.1656747377494"><ele>294.0</ele><time>2026-05-03T10:52:17.999Z</time></trkpt><trkpt lat="39.0718515878969" lon="16.16572685278977"><ele>294.0</ele><time>2026-05-03T10:52:20.999Z</time></trkpt><trkpt lat="39.07192844126817" lon="16.16577286861307"><ele>297.59999999999997</ele><time>2026-05-03T10:52:23.999Z</time></trkpt><trkpt lat="39.07199769315964" lon="16.165847894524205"><ele>301.2</ele><time>2026-05-03T10:52:26.999Z</time></trkpt><trkpt lat="39.072038778680366" lon="16.165913949606622"><ele>304.79999999999995</ele><time>2026-05-03T10:52:28.999Z</time></trkpt><trkpt lat="39.07208693617286" lon="16.166003344067548"><ele>308.4</ele><time>2026-05-03T10:52:30.999Z</time></trkpt><trkpt lat="39.072170846028634" lon="16.16607440524804"><ele>312.0</ele><time>2026-05-03T10:52:32.999Z</time></trkpt><trkpt lat="39.072293717319894" lon="16.166104864467883"><ele>312.0</ele><time>2026-05-03T10:52:34.999Z</time></trkpt><trkpt lat="39.072410372222535" lon="16.16608160946949"><ele>312.0</ele><time>2026-05-03T10:52:36.999Z</time></trkpt><trkpt lat="39.07251005325227" lon="16.166060039022877"><ele>312.0</ele><time>2026-05-03T10:52:38.999Z</time></trkpt><trkpt lat="39.072610067855" lon="16.16604083343906"><ele>312.0</ele><time>2026-05-03T10:52:40.999Z</time></trkpt><trkpt lat="39.07268144488273" lon="16.166029437451147"><ele>312.0</ele><time>2026-05-03T10:52:43.999Z</time></trkpt><trkpt lat="39.07274788952582" lon="16.165987043367725"><ele>312.6666666666667</ele><time>2026-05-03T10:52:48.999Z</time></trkpt><trkpt lat="39.07268966215817" lon="16.16586375256975"><ele>313.3333333333333</ele><time>2026-05-03T10:52:50.999Z</time></trkpt><trkpt lat="39.0726195537599" lon="16.16589803180602"><ele>314.0</ele><time>2026-05-03T10:52:51.999Z</time></trkpt><trkpt lat="39.07255354304847" lon="16.165886268908576"><ele>314.66666666666663</ele><time>2026-05-03T10:52:53.999Z</time></trkpt><trkpt lat="39.07253931540297" lon="16.165804963853287"><ele>315.3333333333333</ele><time>2026-05-03T10:52:55.999Z</time></trkpt><trkpt lat="39.072635467414145" lon="16.165784633911016"><ele>316.0</ele><time>2026-05-03T10:52:57.999Z</time></trkpt><trkpt lat="39.07273589575054" lon="16.16574995529807"><ele>316.0</ele><time>2026-05-03T10:52:59.999Z</time></trkpt><trkpt lat="39.072848177128584" lon="16.165732538950163"><ele>316.0</ele><time>2026-05-03T10:53:01.999Z</time></trkpt><trkpt lat="39.07291102211096" lon="16.165702487235272"><ele>316.0</ele><time>2026-05-03T10:53:03Z</time></trkpt><trkpt lat="39.07297195185822" lon="16.165648992449462"><ele>316.0</ele><time>2026-05-03T10:53:04Z</time></trkpt><trkpt lat="39.07309547958997" lon="16.165585713799665"><ele>316.0</ele><time>2026-05-03T10:53:05Z</time></trkpt><trkpt lat="39.073231025178686" lon="16.1655138273897"><ele>321.3333333333333</ele><time>2026-05-03T10:53:06Z</time></trkpt><trkpt lat="39.07333465272345" lon="16.16546387054889"><ele>326.66666666666663</ele><time>2026-05-03T10:53:07Z</time></trkpt><trkpt lat="39.07339962451518" lon="16.165420225577893"><ele>332.0</ele><time>2026-05-03T10:53:08Z</time></trkpt><trkpt lat="39.073451586840875" lon="16.165344796500992"><ele>337.3333333333333</ele><time>2026-05-03T10:53:09Z</time></trkpt><trkpt lat="39.073500951228965" lon="16.165266065265904"><ele>342.6666666666667</ele><time>2026-05-03T10:53:10Z</time></trkpt><trkpt lat="39.07355818365466" lon="16.165207379021208"><ele>348.0</ele><time>2026-05-03T10:53:11Z</time></trkpt><trkpt lat="39.073619789664974" lon="16.16515197173899"><ele>348.0</ele><time>2026-05-03T10:53:12Z</time></trkpt><trkpt lat="39.073677519944006" lon="16.165093221988066"><ele>348.0</ele><time>2026-05-03T10:53:13Z</time></trkpt><trkpt lat="39.07372808332822" lon="16.165025704464263"><ele>348.0</ele><time>2026-05-03T10:53:14Z</time></trkpt><trkpt lat="39.07377391552521" lon="16.164946841434766"><ele>348.0</ele><time>2026-05-03T10:53:15Z</time></trkpt><trkpt lat="39.07382025341874" lon="16.16486504392816"><ele>348.0</ele><time>2026-05-03T10:53:16Z</time></trkpt><trkpt lat="39.07387042815982" lon="16.164777560108206"><ele>348.0</ele><time>2026-05-03T10:53:17Z</time></trkpt><trkpt lat="39.0739208397384" lon="16.164687204658428"><ele>348.79999999999995</ele><time>2026-05-03T10:53:18Z</time></trkpt><trkpt lat="39.07395992147008" lon="16.164578162136756"><ele>349.6</ele><time>2026-05-03T10:53:19Z</time></trkpt><trkpt lat="39.073981907924946" lon="16.16446582338254"><ele>350.4</ele><time>2026-05-03T10:53:20Z</time></trkpt><trkpt lat="39.07399251817479" lon="16.16434732863717"><ele>351.20000000000005</ele><time>2026-05-03T10:53:21Z</time></trkpt><trkpt lat="39.07400105594518" lon="16.164225148055852"><ele>352.0</ele><time>2026-05-03T10:53:22Z</time></trkpt><trkpt lat="39.074019597655095" lon="16.164100944729388"><ele>352.40000000000003</ele><time>2026-05-03T10:53:23Z</time></trkpt><trkpt lat="39.07405272928356" lon="16.163979255474132"><ele>352.8</ele><time>2026-05-03T10:53:24Z</time></trkpt><trkpt lat="39.07410615796019" lon="16.16387546118511"><ele>353.2</ele><time>2026-05-03T10:53:25Z</time></trkpt><trkpt lat="39.07417828735335" lon="16.163793212717284"><ele>353.6</ele><time>2026-05-03T10:53:26Z</time></trkpt><trkpt lat="39.07426528754386" lon="16.16371920975268"><ele>354.0</ele><time>2026-05-03T10:53:27Z</time></trkpt><trkpt lat="39.07435864819982" lon="16.16365085916974"><ele>354.0</ele><time>2026-05-03T10:53:28Z</time></trkpt><trkpt lat="39.07444956807951" lon="16.163583039140054"><ele>354.0</ele><time>2026-05-03T10:53:29Z</time></trkpt><trkpt lat="39.07453889457887" lon="16.16351798974672"><ele>354.0</ele><time>2026-05-03T10:53:30Z</time></trkpt><trkpt lat="39.07462296674172" lon="16.163449391489497"><ele>354.0</ele><time>2026-05-03T10:53:31Z</time></trkpt><trkpt lat="39.07469439210083" lon="16.16336497610808"><ele>354.0</ele><time>2026-05-03T10:53:32Z</time></trkpt><trkpt lat="39.074759178431634" lon="16.163263526533886"><ele>354.0</ele><time>2026-05-03T10:53:33Z</time></trkpt><trkpt lat="39.07482945436659" lon="16.163162119034055"><ele>354.0</ele><time>2026-05-03T10:53:34Z</time></trkpt><trkpt lat="39.07490550348985" lon="16.163067478923967"><ele>354.0</ele><time>2026-05-03T10:53:35Z</time></trkpt><trkpt lat="39.07497799704559" lon="16.16298137059348"><ele>354.0</ele><time>2026-05-03T10:53:36Z</time></trkpt><trkpt lat="39.07504684825946" lon="16.16289178289743"><ele>354.0</ele><time>2026-05-03T10:53:37Z</time></trkpt><trkpt lat="39.075109523077714" lon="16.162793629624545"><ele>354.0</ele><time>2026-05-03T10:53:38Z</time></trkpt><trkpt lat="39.0751669470742" lon="16.162680347472804"><ele>354.0</ele><time>2026-05-03T10:53:39Z</time></trkpt><trkpt lat="39.0752161623371" lon="16.162553258121303"><ele>354.0</ele><time>2026-05-03T10:53:40Z</time></trkpt><trkpt lat="39.075259570554955" lon="16.162427856967497"><ele>354.0</ele><time>2026-05-03T10:53:41Z</time></trkpt><trkpt lat="39.07530573011862" lon="16.162308725208973"><ele>354.0</ele><time>2026-05-03T10:53:42Z</time></trkpt><trkpt lat="39.07535166891101" lon="16.16219270527395"><ele>353.4</ele><time>2026-05-03T10:53:43Z</time></trkpt><trkpt lat="39.07539285652104" lon="16.16208797258481"><ele>352.79999999999995</ele><time>2026-05-03T10:53:44Z</time></trkpt><trkpt lat="39.07542371932242" lon="16.161999345794374"><ele>352.20000000000005</ele><time>2026-05-03T10:53:45Z</time></trkpt><trkpt lat="39.0754549064668" lon="16.161921395584006"><ele>351.6</ele><time>2026-05-03T10:53:46Z</time></trkpt><trkpt lat="39.07554596355904" lon="16.161844104296616"><ele>351.0</ele><time>2026-05-03T10:53:48Z</time></trkpt><trkpt lat="39.075671054859" lon="16.161888262962147"><ele>352.75</ele><time>2026-05-03T10:53:49Z</time></trkpt><trkpt lat="39.075803415680284" lon="16.161868439403843"><ele>354.5</ele><time>2026-05-03T10:53:50Z</time></trkpt><trkpt lat="39.075944259764114" lon="16.16185131465001"><ele>356.25</ele><time>2026-05-03T10:53:51Z</time></trkpt><trkpt lat="39.0760804175618" lon="16.161815983781743"><ele>358.0</ele><time>2026-05-03T10:53:52Z</time></trkpt><trkpt lat="39.076208546956785" lon="16.161775608235285"><ele>358.0</ele><time>2026-05-03T10:53:53Z</time></trkpt><trkpt lat="39.076328515686484" lon="16.161718876099155"><ele>358.0</ele><time>2026-05-03T10:53:54Z</time></trkpt><trkpt lat="39.07644512613555" lon="16.161651592482574"><ele>358.0</ele><time>2026-05-03T10:53:55Z</time></trkpt><trkpt lat="39.07655659444728" lon="16.161585607365"><ele>358.0</ele><time>2026-05-03T10:53:56Z</time></trkpt><trkpt lat="39.076672568821635" lon="16.161555513646345"><ele>358.25</ele><time>2026-05-03T10:53:57Z</time></trkpt><trkpt lat="39.076789730182114" lon="16.161535753425778"><ele>358.5</ele><time>2026-05-03T10:53:58Z</time></trkpt><trkpt lat="39.0769013740586" lon="16.161501860873035"><ele>358.75</ele><time>2026-05-03T10:53:59Z</time></trkpt><trkpt lat="39.07701711285452" lon="16.161505886048026"><ele>359.0</ele><time>2026-05-03T10:54:00Z</time></trkpt><trkpt lat="39.07712768723312" lon="16.16153612965795"><ele>358.0</ele><time>2026-05-03T10:54:01Z</time></trkpt><trkpt lat="39.0772233759197" lon="16.161581370997183"><ele>357.0</ele><time>2026-05-03T10:54:02Z</time></trkpt><trkpt lat="39.0773161456161" lon="16.161641309654925"><ele>356.0</ele><time>2026-05-03T10:54:03Z</time></trkpt><trkpt lat="39.07741025293862" lon="16.161709320415703"><ele>355.0</ele><time>2026-05-03T10:54:04Z</time></trkpt><trkpt lat="39.077490198357474" lon="16.16179482600142"><ele>354.0</ele><time>2026-05-03T10:54:05Z</time></trkpt><trkpt lat="39.07755230999806" lon="16.16187342179404"><ele>353.0</ele><time>2026-05-03T10:54:06Z</time></trkpt><trkpt lat="39.07759422828437" lon="16.1619372884119"><ele>352.0</ele><time>2026-05-03T10:54:07Z</time></trkpt><trkpt lat="39.07768547186062" lon="16.162027427198854"><ele>351.0</ele><time>2026-05-03T10:54:09Z</time></trkpt><trkpt lat="39.07776594915892" lon="16.162098603410058"><ele>350.0</ele><time>2026-05-03T10:54:11Z</time></trkpt><trkpt lat="39.07775422555182" lon="16.162213411955257"><ele>349.0</ele><time>2026-05-03T10:54:11.999Z</time></trkpt><trkpt lat="39.077803463299695" lon="16.16229900741454"><ele>348.66666666666663</ele><time>2026-05-03T10:54:13.999Z</time></trkpt><trkpt lat="39.07787705131432" lon="16.162423948511105"><ele>348.3333333333333</ele><time>2026-05-03T10:54:15.999Z</time></trkpt><trkpt lat="39.07792623495563" lon="16.16248726111743"><ele>348.0</ele><time>2026-05-03T10:54:16.999Z</time></trkpt><trkpt lat="39.07797214233347" lon="16.162559724086652"><ele>347.6666666666667</ele><time>2026-05-03T10:54:17.999Z</time></trkpt><trkpt lat="39.078018808412374" lon="16.162641255611312"><ele>347.33333333333337</ele><time>2026-05-03T10:54:18.999Z</time></trkpt><trkpt lat="39.07807078764413" lon="16.16273168818164"><ele>347.0</ele><time>2026-05-03T10:54:19.999Z</time></trkpt><trkpt lat="39.07812385798517" lon="16.16282216075022"><ele>347.0</ele><time>2026-05-03T10:54:20.999Z</time></trkpt><trkpt lat="39.07818255733252" lon="16.162918998016522"><ele>347.0</ele><time>2026-05-03T10:54:21.999Z</time></trkpt><trkpt lat="39.07824380336148" lon="16.163017129516803"><ele>347.0</ele><time>2026-05-03T10:54:22.999Z</time></trkpt><trkpt lat="39.07830488265483" lon="16.16311644890106"><ele>347.0</ele><time>2026-05-03T10:54:23.999Z</time></trkpt><trkpt lat="39.07836010002379" lon="16.16319967865928"><ele>347.0</ele><time>2026-05-03T10:54:24.999Z</time></trkpt><trkpt lat="39.07841180797502" lon="16.163287301202185"><ele>349.0</ele><time>2026-05-03T10:54:25.999Z</time></trkpt><trkpt lat="39.07846560566906" lon="16.163380508590972"><ele>351.0</ele><time>2026-05-03T10:54:26.999Z</time></trkpt><trkpt lat="39.07852101599839" lon="16.163476028860693"><ele>353.0</ele><time>2026-05-03T10:54:27.999Z</time></trkpt><trkpt lat="39.07857506384448" lon="16.163571872244425"><ele>355.0</ele><time>2026-05-03T10:54:28.999Z</time></trkpt><trkpt lat="39.078625623931906" lon="16.16367326684439"><ele>357.0</ele><time>2026-05-03T10:54:29.999Z</time></trkpt><trkpt lat="39.0786616504324" lon="16.163786459728822"><ele>357.0</ele><time>2026-05-03T10:54:30.999Z</time></trkpt><trkpt lat="39.078686666637054" lon="16.163904513600986"><ele>357.0</ele><time>2026-05-03T10:54:31.999Z</time></trkpt><trkpt lat="39.07871703674306" lon="16.164028466885245"><ele>357.0</ele><time>2026-05-03T10:54:32.999Z</time></trkpt><trkpt lat="39.07874653527563" lon="16.164150994695213"><ele>357.0</ele><time>2026-05-03T10:54:33.999Z</time></trkpt><trkpt lat="39.07878006798195" lon="16.16427270477244"><ele>357.0</ele><time>2026-05-03T10:54:34.999Z</time></trkpt><trkpt lat="39.07881153487619" lon="16.164386491811165"><ele>357.6</ele><time>2026-05-03T10:54:35.999Z</time></trkpt><trkpt lat="39.078845757124085" lon="16.16450256357108"><ele>358.20000000000005</ele><time>2026-05-03T10:54:36.999Z</time></trkpt><trkpt lat="39.078881295679594" lon="16.1646159794443"><ele>358.8</ele><time>2026-05-03T10:54:37.999Z</time></trkpt><trkpt lat="39.07891803507799" lon="16.164725461446903"><ele>359.4</ele><time>2026-05-03T10:54:38.999Z</time></trkpt><trkpt lat="39.07895850474083" lon="16.164831051440775"><ele>360.0</ele><time>2026-05-03T10:54:39.999Z</time></trkpt><trkpt lat="39.079010022613986" lon="16.164948065898926"><ele>362.0</ele><time>2026-05-03T10:54:40.999Z</time></trkpt><trkpt lat="39.07906194174461" lon="16.165062415140323"><ele>364.0</ele><time>2026-05-03T10:54:41.999Z</time></trkpt><trkpt lat="39.07911523306907" lon="16.165175406672095"><ele>366.0</ele><time>2026-05-03T10:54:42.999Z</time></trkpt><trkpt lat="39.079161228083294" lon="16.165289727007742"><ele>368.0</ele><time>2026-05-03T10:54:43.999Z</time></trkpt><trkpt lat="39.07918005047836" lon="16.16542916617134"><ele>370.0</ele><time>2026-05-03T10:54:44.999Z</time></trkpt><trkpt lat="39.079193942138225" lon="16.16556277518062"><ele>374.5</ele><time>2026-05-03T10:54:45.999Z</time></trkpt><trkpt lat="39.079199828465626" lon="16.165717683088634"><ele>379.0</ele><time>2026-05-03T10:54:46.999Z</time></trkpt><trkpt lat="39.07920077182975" lon="16.16587434694225"><ele>383.5</ele><time>2026-05-03T10:54:47.999Z</time></trkpt><trkpt lat="39.07920257005512" lon="16.166027522996817"><ele>388.0</ele><time>2026-05-03T10:54:48.999Z</time></trkpt><trkpt lat="39.079216093126114" lon="16.16616988545571"><ele>388.0</ele><time>2026-05-03T10:54:49.999Z</time></trkpt><trkpt lat="39.07925158626731" lon="16.166308512963944"><ele>388.0</ele><time>2026-05-03T10:54:50.999Z</time></trkpt><trkpt lat="39.07931801001461" lon="16.166427815864445"><ele>388.0</ele><time>2026-05-03T10:54:51.999Z</time></trkpt><trkpt lat="39.07938651436533" lon="16.16654045849749"><ele>388.0</ele><time>2026-05-03T10:54:52.999Z</time></trkpt><trkpt lat="39.07946109575469" lon="16.166664355950356"><ele>390.6666666666667</ele><time>2026-05-03T10:54:53.999Z</time></trkpt><trkpt lat="39.07953212394289" lon="16.16681393733739"><ele>393.33333333333337</ele><time>2026-05-03T10:54:54.999Z</time></trkpt><trkpt lat="39.0796235303767" lon="16.166985689136595"><ele>396.0</ele><time>2026-05-03T10:54:55.999Z</time></trkpt><trkpt lat="39.07971788131921" lon="16.167168683001638"><ele>396.0</ele><time>2026-05-03T10:54:56.999Z</time></trkpt><trkpt lat="39.07982203499213" lon="16.167343369869293"><ele>396.0</ele><time>2026-05-03T10:54:57.999Z</time></trkpt><trkpt lat="39.079922526738514" lon="16.16749382059008"><ele>396.0</ele><time>2026-05-03T10:54:58.999Z</time></trkpt><trkpt lat="39.08001840164382" lon="16.167635978422854"><ele>396.5</ele><time>2026-05-03T10:54:59.999Z</time></trkpt><trkpt lat="39.08011533645388" lon="16.167775214868506"><ele>397.0</ele><time>2026-05-03T10:55:00.999Z</time></trkpt><trkpt lat="39.08020871811845" lon="16.16790754819319"><ele>397.5</ele><time>2026-05-03T10:55:01.999Z</time></trkpt><trkpt lat="39.08029845893858" lon="16.16803249400291"><ele>398.0</ele><time>2026-05-03T10:55:02.999Z</time></trkpt><trkpt lat="39.080390027293234" lon="16.168148086222292"><ele>397.59999999999997</ele><time>2026-05-03T10:55:03.999Z</time></trkpt><trkpt lat="39.08048680935423" lon="16.168247386965305"><ele>397.2</ele><time>2026-05-03T10:55:04.999Z</time></trkpt><trkpt lat="39.080579951054304" lon="16.16832482580101"><ele>396.8</ele><time>2026-05-03T10:55:05.999Z</time></trkpt><trkpt lat="39.080655564947094" lon="16.168385738234974"><ele>396.4</ele><time>2026-05-03T10:55:06.999Z</time></trkpt><trkpt lat="39.080710291377514" lon="16.168447357857083"><ele>396.0</ele><time>2026-05-03T10:55:07.999Z</time></trkpt><trkpt lat="39.080758146144596" lon="16.16852905896536"><ele>398.6</ele><time>2026-05-03T10:55:09Z</time></trkpt><trkpt lat="39.08078844908411" lon="16.168625209710306"><ele>401.20000000000005</ele><time>2026-05-03T10:55:10Z</time></trkpt><trkpt lat="39.080801708839196" lon="16.168749410159247"><ele>403.79999999999995</ele><time>2026-05-03T10:55:11Z</time></trkpt><trkpt lat="39.08081680496428" lon="16.168870014776637"><ele>406.4</ele><time>2026-05-03T10:55:12Z</time></trkpt><trkpt lat="39.08082533849204" lon="16.169001568129996"><ele>409.0</ele><time>2026-05-03T10:55:13Z</time></trkpt><trkpt lat="39.08082403635445" lon="16.169127832244758"><ele>409.0</ele><time>2026-05-03T10:55:14Z</time></trkpt><trkpt lat="39.08081846964417" lon="16.16925459541142"><ele>409.0</ele><time>2026-05-03T10:55:15Z</time></trkpt><trkpt lat="39.08080862003446" lon="16.169378375906682"><ele>409.0</ele><time>2026-05-03T10:55:16Z</time></trkpt><trkpt lat="39.08079040859857" lon="16.169510661174844"><ele>409.0</ele><time>2026-05-03T10:55:17Z</time></trkpt><trkpt lat="39.080765613731785" lon="16.169620121826423"><ele>409.0</ele><time>2026-05-03T10:55:18Z</time></trkpt><trkpt lat="39.08073470924063" lon="16.169714759409185"><ele>405.79999999999995</ele><time>2026-05-03T10:55:19Z</time></trkpt><trkpt lat="39.080702077409605" lon="16.169797660668635"><ele>402.59999999999997</ele><time>2026-05-03T10:55:20Z</time></trkpt><trkpt lat="39.08066800153528" lon="16.169875534512027"><ele>399.4</ele><time>2026-05-03T10:55:21Z</time></trkpt><trkpt lat="39.08058919050862" lon="16.169986462334514"><ele>396.2</ele><time>2026-05-03T10:55:23Z</time></trkpt><trkpt lat="39.08052642596897" lon="16.170056315436806"><ele>393.0</ele><time>2026-05-03T10:55:25Z</time></trkpt><trkpt lat="39.080585346812256" lon="16.170286923969453"><ele>393.0</ele><time>2026-05-03T10:55:27Z</time></trkpt><trkpt lat="39.08059434530793" lon="16.17039783911243"><ele>393.0</ele><time>2026-05-03T10:55:28Z</time></trkpt><trkpt lat="39.080619513981055" lon="16.17051643018565"><ele>393.0</ele><time>2026-05-03T10:55:29Z</time></trkpt><trkpt lat="39.08064207020454" lon="16.170652897376822"><ele>393.0</ele><time>2026-05-03T10:55:30Z</time></trkpt><trkpt lat="39.08066086841103" lon="16.170816948601136"><ele>393.0</ele><time>2026-05-03T10:55:31Z</time></trkpt><trkpt lat="39.080664536959176" lon="16.1709831635927"><ele>391.2</ele><time>2026-05-03T10:55:32Z</time></trkpt><trkpt lat="39.08067816993288" lon="16.171139123442018"><ele>389.4</ele><time>2026-05-03T10:55:33Z</time></trkpt><trkpt lat="39.08064942328943" lon="16.171276911863675"><ele>387.59999999999997</ele><time>2026-05-03T10:55:34Z</time></trkpt><trkpt lat="39.08062159586848" lon="16.171408661091768"><ele>385.79999999999995</ele><time>2026-05-03T10:55:35Z</time></trkpt><trkpt lat="39.08057659641431" lon="16.171534607731118"><ele>384.0</ele><time>2026-05-03T10:55:36Z</time></trkpt><trkpt lat="39.080567032802165" lon="16.171667116693428"><ele>383.0</ele><time>2026-05-03T10:55:37Z</time></trkpt><trkpt lat="39.0805673275468" lon="16.171797776152964"><ele>382.0</ele><time>2026-05-03T10:55:38Z</time></trkpt><trkpt lat="39.08060176503393" lon="16.17192137948754"><ele>381.0</ele><time>2026-05-03T10:55:39Z</time></trkpt><trkpt lat="39.08066234059786" lon="16.172025425342564"><ele>380.0</ele><time>2026-05-03T10:55:40Z</time></trkpt><trkpt lat="39.08073567850805" lon="16.172125291781057"><ele>379.0</ele><time>2026-05-03T10:55:41Z</time></trkpt><trkpt lat="39.080803876850446" lon="16.172236131652372"><ele>385.4</ele><time>2026-05-03T10:55:42Z</time></trkpt><trkpt lat="39.080871602088806" lon="16.172348969213566"><ele>391.79999999999995</ele><time>2026-05-03T10:55:43Z</time></trkpt><trkpt lat="39.080945947627" lon="16.172460333075964"><ele>398.20000000000005</ele><time>2026-05-03T10:55:44Z</time></trkpt><trkpt lat="39.081027290306864" lon="16.17255745280573"><ele>404.6</ele><time>2026-05-03T10:55:45Z</time></trkpt><trkpt lat="39.08109722555211" lon="16.172642928254064"><ele>411.0</ele><time>2026-05-03T10:55:46Z</time></trkpt><trkpt lat="39.081144492307594" lon="16.172741817132934"><ele>411.0</ele><time>2026-05-03T10:55:47Z</time></trkpt><trkpt lat="39.08115280391143" lon="16.172845396512873"><ele>411.0</ele><time>2026-05-03T10:55:48Z</time></trkpt><trkpt lat="39.08115231461874" lon="16.1729590951239"><ele>411.0</ele><time>2026-05-03T10:55:49Z</time></trkpt><trkpt lat="39.081136397197135" lon="16.173052417904945"><ele>411.0</ele><time>2026-05-03T10:55:50Z</time></trkpt><trkpt lat="39.081121210077804" lon="16.173162380580834"><ele>411.0</ele><time>2026-05-03T10:55:51Z</time></trkpt><trkpt lat="39.08105725760338" lon="16.17322442107854"><ele>411.0</ele><time>2026-05-03T10:55:52Z</time></trkpt><trkpt lat="39.080993623509706" lon="16.173280317436515"><ele>410.4</ele><time>2026-05-03T10:55:53Z</time></trkpt><trkpt lat="39.08094007657611" lon="16.173372424261842"><ele>409.8</ele><time>2026-05-03T10:55:53.999Z</time></trkpt><trkpt lat="39.080908600549165" lon="16.173483312466377"><ele>409.2</ele><time>2026-05-03T10:55:54.999Z</time></trkpt><trkpt lat="39.08092524015491" lon="16.1736031302965"><ele>408.59999999999997</ele><time>2026-05-03T10:55:55.999Z</time></trkpt><trkpt lat="39.08095803578317" lon="16.17373249778735"><ele>408.0</ele><time>2026-05-03T10:55:56.999Z</time></trkpt><trkpt lat="39.08097407853694" lon="16.173876258164437"><ele>408.0</ele><time>2026-05-03T10:55:57.999Z</time></trkpt><trkpt lat="39.08098561907395" lon="16.174016146042703"><ele>408.0</ele><time>2026-05-03T10:55:58.999Z</time></trkpt><trkpt lat="39.08098637934474" lon="16.17416370297743"><ele>408.0</ele><time>2026-05-03T10:55:59.999Z</time></trkpt><trkpt lat="39.08098141431344" lon="16.174294885074683"><ele>408.0</ele><time>2026-05-03T10:56:00.999Z</time></trkpt><trkpt lat="39.0809800369735" lon="16.17441422170074"><ele>408.0</ele><time>2026-05-03T10:56:01.999Z</time></trkpt><trkpt lat="39.080989630722726" lon="16.174531453218183"><ele>407.2</ele><time>2026-05-03T10:56:02.999Z</time></trkpt><trkpt lat="39.0810265211241" lon="16.174621057977255"><ele>406.4</ele><time>2026-05-03T10:56:03.999Z</time></trkpt><trkpt lat="39.08105004626617" lon="16.174713880776444"><ele>405.59999999999997</ele><time>2026-05-03T10:56:04.999Z</time></trkpt><trkpt lat="39.08112182134689" lon="16.174794975869816"><ele>404.79999999999995</ele><time>2026-05-03T10:56:05.999Z</time></trkpt><trkpt lat="39.08118769930892" lon="16.17489068283298"><ele>404.0</ele><time>2026-05-03T10:56:06.999Z</time></trkpt><trkpt lat="39.08124699280841" lon="16.175004222772046"><ele>403.49999999999994</ele><time>2026-05-03T10:56:07.999Z</time></trkpt><trkpt lat="39.0813081646135" lon="16.17510803184711"><ele>403.0</ele><time>2026-05-03T10:56:08.999Z</time></trkpt><trkpt lat="39.08134836330149" lon="16.175202278480928"><ele>402.5</ele><time>2026-05-03T10:56:09.999Z</time></trkpt><trkpt lat="39.0813892122105" lon="16.175290565009973"><ele>402.0</ele><time>2026-05-03T10:56:10.999Z</time></trkpt><trkpt lat="39.08138078607357" lon="16.17537895108435"><ele>401.49999999999994</ele><time>2026-05-03T10:56:11.999Z</time></trkpt><trkpt lat="39.08134207619413" lon="16.1754731971199"><ele>401.0</ele><time>2026-05-03T10:56:12.999Z</time></trkpt><trkpt lat="39.081263670548466" lon="16.175548701689824"><ele>401.0</ele><time>2026-05-03T10:56:13.999Z</time></trkpt><trkpt lat="39.0811782866928" lon="16.175627028389854"><ele>401.0</ele><time>2026-05-03T10:56:14.999Z</time></trkpt><trkpt lat="39.081086811533766" lon="16.175701333974125"><ele>401.0</ele><time>2026-05-03T10:56:15.999Z</time></trkpt><trkpt lat="39.0809754139762" lon="16.17575548071249"><ele>401.0</ele><time>2026-05-03T10:56:16.999Z</time></trkpt><trkpt lat="39.08085344020122" lon="16.175793849841945"><ele>410.0</ele><time>2026-05-03T10:56:17.999Z</time></trkpt><trkpt lat="39.08072848376787" lon="16.175823448343348"><ele>419.0</ele><time>2026-05-03T10:56:18.999Z</time></trkpt><trkpt lat="39.080593699576546" lon="16.175835172553"><ele>428.0</ele><time>2026-05-03T10:56:19.999Z</time></trkpt><trkpt lat="39.08045376431418" lon="16.175829360835742"><ele>437.0</ele><time>2026-05-03T10:56:20.999Z</time></trkpt><trkpt lat="39.08031224033315" lon="16.175809805577835"><ele>437.0</ele><time>2026-05-03T10:56:21.999Z</time></trkpt><trkpt lat="39.08018149534715" lon="16.1757938123342"><ele>437.0</ele><time>2026-05-03T10:56:22.999Z</time></trkpt><trkpt lat="39.08006006959987" lon="16.175761605085917"><ele>437.0</ele><time>2026-05-03T10:56:23.999Z</time></trkpt><trkpt lat="39.07995729825184" lon="16.17566283788689"><ele>437.0</ele><time>2026-05-03T10:56:24.999Z</time></trkpt><trkpt lat="39.079833432016294" lon="16.175556166814683"><ele>434.0</ele><time>2026-05-03T10:56:25.999Z</time></trkpt><trkpt lat="39.07970558485222" lon="16.1753990257712"><ele>431.0</ele><time>2026-05-03T10:56:26.999Z</time></trkpt><trkpt lat="39.07959549584191" lon="16.175249465177775"><ele>428.0</ele><time>2026-05-03T10:56:27.999Z</time></trkpt><trkpt lat="39.079448346371386" lon="16.175154124281207"><ele>428.0</ele><time>2026-05-03T10:56:28.999Z</time></trkpt><trkpt lat="39.07933748829417" lon="16.17505880792086"><ele>428.0</ele><time>2026-05-03T10:56:29.999Z</time></trkpt><trkpt lat="39.07923344982599" lon="16.174955793310524"><ele>428.0</ele><time>2026-05-03T10:56:30.999Z</time></trkpt><trkpt lat="39.0791305082463" lon="16.174853416237536"><ele>428.0</ele><time>2026-05-03T10:56:31.999Z</time></trkpt><trkpt lat="39.07905999195991" lon="16.174749819948154"><ele>425.4</ele><time>2026-05-03T10:56:32.999Z</time></trkpt><trkpt lat="39.078981301556894" lon="16.17468055777964"><ele>422.79999999999995</ele><time>2026-05-03T10:56:33.999Z</time></trkpt><trkpt lat="39.0788942356621" lon="16.174641553537075"><ele>420.2</ele><time>2026-05-03T10:56:34.999Z</time></trkpt><trkpt lat="39.078786662410515" lon="16.17463779867261"><ele>417.6</ele><time>2026-05-03T10:56:35.999Z</time></trkpt><trkpt lat="39.07867186897441" lon="16.174648849112323"><ele>415.0</ele><time>2026-05-03T10:56:36.999Z</time></trkpt><trkpt lat="39.0785565448617" lon="16.174638480250916"><ele>415.0</ele><time>2026-05-03T10:56:37.999Z</time></trkpt><trkpt lat="39.07844972654949" lon="16.17455638536788"><ele>415.0</ele><time>2026-05-03T10:56:38.999Z</time></trkpt><trkpt lat="39.078330849191694" lon="16.174520294892073"><ele>415.0</ele><time>2026-05-03T10:56:39.999Z</time></trkpt><trkpt lat="39.07822292211572" lon="16.174492538835544"><ele>415.0</ele><time>2026-05-03T10:56:40.999Z</time></trkpt><trkpt lat="39.078123147198355" lon="16.17447182110444"><ele>413.4</ele><time>2026-05-03T10:56:41.999Z</time></trkpt><trkpt lat="39.07802789150084" lon="16.174525439590575"><ele>411.8</ele><time>2026-05-03T10:56:42.999Z</time></trkpt><trkpt lat="39.07796091022326" lon="16.17460864619853"><ele>410.20000000000005</ele><time>2026-05-03T10:56:43.999Z</time></trkpt><trkpt lat="39.07793274018738" lon="16.17471232000546"><ele>408.6</ele><time>2026-05-03T10:56:44.999Z</time></trkpt><trkpt lat="39.07792189742425" lon="16.174849196993915"><ele>407.0</ele><time>2026-05-03T10:56:45.999Z</time></trkpt><trkpt lat="39.077890151336376" lon="16.174986802553946"><ele>411.0</ele><time>2026-05-03T10:56:46.999Z</time></trkpt><trkpt lat="39.07785685127966" lon="16.17512928807322"><ele>415.0</ele><time>2026-05-03T10:56:47.999Z</time></trkpt><trkpt lat="39.07781946683201" lon="16.175268981056245"><ele>419.00000000000006</ele><time>2026-05-03T10:56:48.999Z</time></trkpt><trkpt lat="39.07777929742008" lon="16.17540308586864"><ele>423.0</ele><time>2026-05-03T10:56:49.999Z</time></trkpt><trkpt lat="39.07773537122786" lon="16.175526166313812"><ele>427.0</ele><time>2026-05-03T10:56:50.999Z</time></trkpt><trkpt lat="39.07769577277431" lon="16.175645337688422"><ele>428.6666666666667</ele><time>2026-05-03T10:56:51.999Z</time></trkpt><trkpt lat="39.077619812953266" lon="16.17572608975363"><ele>430.33333333333337</ele><time>2026-05-03T10:56:52.999Z</time></trkpt><trkpt lat="39.07756427061634" lon="16.17581622545305"><ele>432.0</ele><time>2026-05-03T10:56:53.999Z</time></trkpt><trkpt lat="39.07749438190146" lon="16.175875627436685"><ele>433.66666666666663</ele><time>2026-05-03T10:56:54.999Z</time></trkpt><trkpt lat="39.07743731796316" lon="16.17593115514732"><ele>435.3333333333333</ele><time>2026-05-03T10:56:55.999Z</time></trkpt><trkpt lat="39.07737267368638" lon="16.176010362848533"><ele>437.0</ele><time>2026-05-03T10:56:57.999Z</time></trkpt><trkpt lat="39.077333893659386" lon="16.176086293335565"><ele>437.0</ele><time>2026-05-03T10:57:00.999Z</time></trkpt><trkpt lat="39.07730519599309" lon="16.176164063776138"><ele>437.0</ele><time>2026-05-03T10:57:03.999Z</time></trkpt><trkpt lat="39.07749987064554" lon="16.176085106468015"><ele>437.0</ele><time>2026-05-03T10:57:07.999Z</time></trkpt><trkpt lat="39.07756603305237" lon="16.17602892743901"><ele>437.0</ele><time>2026-05-03T10:57:09.999Z</time></trkpt><trkpt lat="39.077676013443856" lon="16.176040434873162"><ele>436.99999999999994</ele><time>2026-05-03T10:57:11.999Z</time></trkpt><trkpt lat="39.077747082583954" lon="16.176087661046886"><ele>437.0</ele><time>2026-05-03T10:57:12.999Z</time></trkpt><trkpt lat="39.07780305596493" lon="16.176157742036064"><ele>437.0</ele><time>2026-05-03T10:57:13.999Z</time></trkpt><trkpt lat="39.077851299791966" lon="16.176217564923466"><ele>437.0</ele><time>2026-05-03T10:57:14.999Z</time></trkpt><trkpt lat="39.07790821480699" lon="16.176276437792467"><ele>436.99999999999994</ele><time>2026-05-03T10:57:15.999Z</time></trkpt><trkpt lat="39.077951892569885" lon="16.176336467717025"><ele>437.0</ele><time>2026-05-03T10:57:16.999Z</time></trkpt><trkpt lat="39.07800629444868" lon="16.176430086915225"><ele>436.99999999999994</ele><time>2026-05-03T10:57:17.999Z</time></trkpt><trkpt lat="39.07803006510951" lon="16.1765172527716"><ele>437.0</ele><time>2026-05-03T10:57:18.999Z</time></trkpt><trkpt lat="39.07803637824006" lon="16.1766139678205"><ele>437.0</ele><time>2026-05-03T10:57:19.999Z</time></trkpt><trkpt lat="39.07805143374433" lon="16.17673868398171"><ele>437.0</ele><time>2026-05-03T10:57:20.999Z</time></trkpt><trkpt lat="39.07806047286188" lon="16.176866506980943"><ele>436.99999999999994</ele><time>2026-05-03T10:57:21.999Z</time></trkpt><trkpt lat="39.07807675260191" lon="16.176952779761553"><ele>437.0</ele><time>2026-05-03T10:57:22.999Z</time></trkpt><trkpt lat="39.07816434927455" lon="16.176946957580597"><ele>435.49999999999994</ele><time>2026-05-03T10:57:24.999Z</time></trkpt><trkpt lat="39.07819955562488" lon="16.17685059024081"><ele>434.0</ele><time>2026-05-03T10:58:19.999Z</time></trkpt><trkpt lat="39.07822920654116" lon="16.176752003380177"><ele>432.5</ele><time>2026-05-03T10:58:22.999Z</time></trkpt><trkpt lat="39.07828252899638" lon="16.176650416603007"><ele>431.0</ele><time>2026-05-03T10:58:25.999Z</time></trkpt><trkpt lat="39.07829551935207" lon="16.176553246209423"><ele>429.49999999999994</ele><time>2026-05-03T10:58:26.999Z</time></trkpt><trkpt lat="39.078299898329796" lon="16.17645601272334"><ele>428.0</ele><time>2026-05-03T10:58:27.999Z</time></trkpt><trkpt lat="39.07829931378305" lon="16.17636377277341"><ele>433.0</ele><time>2026-05-03T10:58:28.999Z</time></trkpt><trkpt lat="39.07830670756162" lon="16.176255894452762"><ele>437.99999999999994</ele><time>2026-05-03T10:58:29.999Z</time></trkpt><trkpt lat="39.078328464111664" lon="16.176113909571317"><ele>442.99999999999994</ele><time>2026-05-03T10:58:30.999Z</time></trkpt><trkpt lat="39.078348098339326" lon="16.175960647711566"><ele>448.0</ele><time>2026-05-03T10:58:31.999Z</time></trkpt><trkpt lat="39.078363162010724" lon="16.175859435275274"><ele>453.0</ele><time>2026-05-03T10:58:32.999Z</time></trkpt><trkpt lat="39.078434546068905" lon="16.17584136001832"><ele>453.0</ele><time>2026-05-03T10:58:34.999Z</time></trkpt><trkpt lat="39.07852112901443" lon="16.175866008733145"><ele>452.99999999999994</ele><time>2026-05-03T10:58:35.999Z</time></trkpt><trkpt lat="39.078637278260565" lon="16.175899217578355"><ele>452.99999999999994</ele><time>2026-05-03T10:58:36.999Z</time></trkpt><trkpt lat="39.07875920220869" lon="16.175940195273398"><ele>453.0</ele><time>2026-05-03T10:58:37.999Z</time></trkpt><trkpt lat="39.078846008559935" lon="16.1759528453577"><ele>453.0</ele><time>2026-05-03T10:58:38.999Z</time></trkpt><trkpt lat="39.07892707837243" lon="16.175905983059607"><ele>453.0</ele><time>2026-05-03T10:58:39.999Z</time></trkpt><trkpt lat="39.07899032763923" lon="16.17587229976365"><ele>452.99999999999994</ele><time>2026-05-03T10:58:40.999Z</time></trkpt><trkpt lat="39.07906255073677" lon="16.175880992072553"><ele>452.99999999999994</ele><time>2026-05-03T10:58:41.999Z</time></trkpt><trkpt lat="39.0790291805018" lon="16.176035199352278"><ele>453.0</ele><time>2026-05-03T10:58:43.999Z</time></trkpt><trkpt lat="39.07895175923864" lon="16.176156115716292"><ele>453.0</ele><time>2026-05-03T10:58:45.999Z</time></trkpt><trkpt lat="39.07892705247162" lon="16.176346528312877"><ele>453.0</ele><time>2026-05-03T10:58:47.999Z</time></trkpt><trkpt lat="39.078914944321454" lon="16.17646130888672"><ele>452.99999999999994</ele><time>2026-05-03T10:58:48.999Z</time></trkpt><trkpt lat="39.078882897945824" lon="16.176569383252364"><ele>452.99999999999994</ele><time>2026-05-03T10:58:49.999Z</time></trkpt><trkpt lat="39.078839730139514" lon="16.176694877759235"><ele>453.0</ele><time>2026-05-03T10:58:50.999Z</time></trkpt><trkpt lat="39.07882216147134" lon="16.17679922418577"><ele>453.0</ele><time>2026-05-03T10:58:51.999Z</time></trkpt><trkpt lat="39.07885056705756" lon="16.176978792367617"><ele>453.5</ele><time>2026-05-03T10:58:53.999Z</time></trkpt><trkpt lat="39.078893380889006" lon="16.177136887265217"><ele>454.0</ele><time>2026-05-03T10:58:54.999Z</time></trkpt><trkpt lat="39.07893304326241" lon="16.17724721624738"><ele>454.5</ele><time>2026-05-03T10:58:55.999Z</time></trkpt><trkpt lat="39.07894095504299" lon="16.177334486387252"><ele>455.0</ele><time>2026-05-03T10:58:56.999Z</time></trkpt><trkpt lat="39.07893321487325" lon="16.177441065257412"><ele>455.5</ele><time>2026-05-03T10:58:57.999Z</time></trkpt><trkpt lat="39.07894844822551" lon="16.177526797665717"><ele>456.0</ele><time>2026-05-03T10:58:58.999Z</time></trkpt><trkpt lat="39.078974234934506" lon="16.177639567679734"><ele>456.5</ele><time>2026-05-03T10:58:59.999Z</time></trkpt><trkpt lat="39.079000812330946" lon="16.177755905849107"><ele>457.0</ele><time>2026-05-03T10:59:00.999Z</time></trkpt><trkpt lat="39.07900197247687" lon="16.17784472831443"><ele>457.5</ele><time>2026-05-03T10:59:01.999Z</time></trkpt><trkpt lat="39.07899566346021" lon="16.17793563231405"><ele>458.0</ele><time>2026-05-03T10:59:02.999Z</time></trkpt><trkpt lat="39.078986414732846" lon="16.178035553945712"><ele>458.5</ele><time>2026-05-03T10:59:03.999Z</time></trkpt><trkpt lat="39.07901455950124" lon="16.178146051668428"><ele>459.0</ele><time>2026-05-03T10:59:04.999Z</time></trkpt><trkpt lat="39.07912316075759" lon="16.1780601188837"><ele>465.1666666666667</ele><time>2026-05-03T10:59:05.999Z</time></trkpt><trkpt lat="39.07920061100794" lon="16.178027455113057"><ele>471.33333333333337</ele><time>2026-05-03T10:59:06.999Z</time></trkpt><trkpt lat="39.079245937525585" lon="16.17795256302107"><ele>477.5</ele><time>2026-05-03T10:59:07.999Z</time></trkpt><trkpt lat="39.079279127589224" lon="16.177838935778993"><ele>483.6666666666667</ele><time>2026-05-03T10:59:08.999Z</time></trkpt><trkpt lat="39.07930446869373" lon="16.17771406609797"><ele>489.83333333333337</ele><time>2026-05-03T10:59:09.999Z</time></trkpt><trkpt lat="39.07933052655555" lon="16.17762133938639"><ele>496.0</ele><time>2026-05-03T10:59:10.999Z</time></trkpt><trkpt lat="39.079351408544696" lon="16.17752962872636"><ele>496.00000000000006</ele><time>2026-05-03T10:59:11.999Z</time></trkpt><trkpt lat="39.07938418893635" lon="16.1774337005245"><ele>496.0</ele><time>2026-05-03T10:59:12.999Z</time></trkpt><trkpt lat="39.07941053195736" lon="16.177340365133034"><ele>496.0</ele><time>2026-05-03T10:59:13.999Z</time></trkpt><trkpt lat="39.07944952755383" lon="16.177255155091313"><ele>496.0</ele><time>2026-05-03T10:59:14.999Z</time></trkpt><trkpt lat="39.07952439480781" lon="16.17723349486317"><ele>496.00000000000006</ele><time>2026-05-03T10:59:16.999Z</time></trkpt><trkpt lat="39.07960450569283" lon="16.177353187350892"><ele>496.0</ele><time>2026-05-03T10:59:18.999Z</time></trkpt><trkpt lat="39.07964909755095" lon="16.17744949358733"><ele>496.0</ele><time>2026-05-03T10:59:19.999Z</time></trkpt><trkpt lat="39.07968690499549" lon="16.177552139783757"><ele>496.0</ele><time>2026-05-03T10:59:20.999Z</time></trkpt><trkpt lat="39.0796907452222" lon="16.177654413468414"><ele>496.0</ele><time>2026-05-03T10:59:21.999Z</time></trkpt><trkpt lat="39.079683388016" lon="16.1777831607233"><ele>496.0</ele><time>2026-05-03T10:59:22.999Z</time></trkpt><trkpt lat="39.07968757499921" lon="16.177957785964253"><ele>496.0</ele><time>2026-05-03T10:59:23.999Z</time></trkpt><trkpt lat="39.07970527766589" lon="16.178072360967107"><ele>497.20000000000005</ele><time>2026-05-03T10:59:24.999Z</time></trkpt><trkpt lat="39.079735357801546" lon="16.178210311952135"><ele>498.40000000000003</ele><time>2026-05-03T10:59:25.999Z</time></trkpt><trkpt lat="39.0797496944706" lon="16.178337449915393"><ele>499.6</ele><time>2026-05-03T10:59:26.999Z</time></trkpt><trkpt lat="39.07975385024385" lon="16.178497055133402"><ele>500.8</ele><time>2026-05-03T10:59:27.999Z</time></trkpt><trkpt lat="39.07976566382326" lon="16.178630296332905"><ele>502.0</ele><time>2026-05-03T10:59:28.999Z</time></trkpt><trkpt lat="39.079750441836694" lon="16.17872472483491"><ele>502.0</ele><time>2026-05-03T10:59:29.999Z</time></trkpt><trkpt lat="39.079718861172445" lon="16.17883089463447"><ele>502.00000000000006</ele><time>2026-05-03T10:59:30.999Z</time></trkpt><trkpt lat="39.07966851474678" lon="16.17893503725529"><ele>502.00000000000006</ele><time>2026-05-03T10:59:31.999Z</time></trkpt><trkpt lat="39.07963608672216" lon="16.179028433841793"><ele>502.0</ele><time>2026-05-03T10:59:32.999Z</time></trkpt><trkpt lat="39.07964467579836" lon="16.179178137074818"><ele>502.0</ele><time>2026-05-03T10:59:34.999Z</time></trkpt><trkpt lat="39.07968187597023" lon="16.17927994513421"><ele>502.5714285714285</ele><time>2026-05-03T10:59:35.999Z</time></trkpt><trkpt lat="39.07971378134137" lon="16.17938198762688"><ele>503.1428571428571</ele><time>2026-05-03T10:59:36.999Z</time></trkpt><trkpt lat="39.079743481023044" lon="16.179465214550987"><ele>503.7142857142857</ele><time>2026-05-03T10:59:37.999Z</time></trkpt><trkpt lat="39.07978189969875" lon="16.17953098006375"><ele>504.2857142857143</ele><time>2026-05-03T10:59:38.999Z</time></trkpt><trkpt lat="39.07984241804775" lon="16.179581725327218"><ele>504.8571428571429</ele><time>2026-05-03T10:59:39.999Z</time></trkpt><trkpt lat="39.07991296590618" lon="16.17961450518366"><ele>505.4285714285715</ele><time>2026-05-03T10:59:40.999Z</time></trkpt><trkpt lat="39.07997078865285" lon="16.179580296718544"><ele>506.00000000000006</ele><time>2026-05-03T10:59:41.999Z</time></trkpt><trkpt lat="39.08003987382565" lon="16.179528359641417"><ele>512.6</ele><time>2026-05-03T10:59:42.999Z</time></trkpt><trkpt lat="39.08013581926612" lon="16.17950469557971"><ele>519.2</ele><time>2026-05-03T10:59:43.999Z</time></trkpt><trkpt lat="39.08025699324748" lon="16.179488802263126"><ele>525.8</ele><time>2026-05-03T10:59:44.999Z</time></trkpt><trkpt lat="39.080325867239445" lon="16.179479366448803"><ele>532.4</ele><time>2026-05-03T10:59:45.999Z</time></trkpt><trkpt lat="39.08042264629258" lon="16.179352836018825"><ele>539.0</ele><time>2026-05-03T10:59:47.999Z</time></trkpt><trkpt lat="39.080493551769095" lon="16.179229024738934"><ele>539.0</ele><time>2026-05-03T10:59:48.999Z</time></trkpt><trkpt lat="39.08052700020205" lon="16.179127213582035"><ele>539.0</ele><time>2026-05-03T10:59:49.999Z</time></trkpt><trkpt lat="39.080536315920625" lon="16.178998601358785"><ele>539.0</ele><time>2026-05-03T10:59:50.999Z</time></trkpt><trkpt lat="39.08053320834757" lon="16.178877495469003"><ele>539.0</ele><time>2026-05-03T10:59:51.999Z</time></trkpt><trkpt lat="39.08057693485066" lon="16.178803208158975"><ele>539.0</ele><time>2026-05-03T10:59:53.999Z</time></trkpt><trkpt lat="39.08068676955165" lon="16.17883746610712"><ele>539.6666666666666</ele><time>2026-05-03T10:59:55.999Z</time></trkpt><trkpt lat="39.08074694222589" lon="16.17889530171775"><ele>540.3333333333333</ele><time>2026-05-03T10:59:56.999Z</time></trkpt><trkpt lat="39.080807924053275" lon="16.17893914288058"><ele>541.0</ele><time>2026-05-03T10:59:57.999Z</time></trkpt><trkpt lat="39.08087741100297" lon="16.17896976324448"><ele>541.6666666666666</ele><time>2026-05-03T10:59:58.999Z</time></trkpt><trkpt lat="39.080951737045346" lon="16.17892577617369"><ele>542.3333333333334</ele><time>2026-05-03T11:00:00.999Z</time></trkpt><trkpt lat="39.08101266467375" lon="16.17883549722039"><ele>543.0</ele><time>2026-05-03T11:00:02.999Z</time></trkpt><trkpt lat="39.0810638136966" lon="16.17870859434377"><ele>543.0</ele><time>2026-05-03T11:00:04.999Z</time></trkpt><trkpt lat="39.08111592111378" lon="16.178566333133258"><ele>543.0</ele><time>2026-05-03T11:00:06.999Z</time></trkpt><trkpt lat="39.08114656954224" lon="16.178495042436477"><ele>543.0</ele><time>2026-05-03T11:00:07.999Z</time></trkpt><trkpt lat="39.08118873055672" lon="16.178333722149322"><ele>543.0</ele><time>2026-05-03T11:00:09.999Z</time></trkpt><trkpt lat="39.08122649194535" lon="16.178227475461558"><ele>543.0</ele><time>2026-05-03T11:00:10.999Z</time></trkpt><trkpt lat="39.08128138362046" lon="16.17815120592476"><ele>539.6666666666666</ele><time>2026-05-03T11:00:11.999Z</time></trkpt><trkpt lat="39.08134643691756" lon="16.17807928815614"><ele>536.3333333333334</ele><time>2026-05-03T11:00:12.999Z</time></trkpt><trkpt lat="39.0814191385474" lon="16.17799692811176"><ele>533.0</ele><time>2026-05-03T11:00:13.999Z</time></trkpt><trkpt lat="39.08147897144824" lon="16.17792369599056"><ele>529.6666666666667</ele><time>2026-05-03T11:00:14.999Z</time></trkpt><trkpt lat="39.08152702752131" lon="16.177978388313687"><ele>526.3333333333334</ele><time>2026-05-03T11:00:16.999Z</time></trkpt><trkpt lat="39.08155958828903" lon="16.178067392809496"><ele>523.0</ele><time>2026-05-03T11:00:17.999Z</time></trkpt><trkpt lat="39.08157989184306" lon="16.178180315478727"><ele>527.0</ele><time>2026-05-03T11:00:18.999Z</time></trkpt><trkpt lat="39.08158883045357" lon="16.17830307473282"><ele>531.0</ele><time>2026-05-03T11:00:19.999Z</time></trkpt><trkpt lat="39.081574474572854" lon="16.178442170303338"><ele>535.0</ele><time>2026-05-03T11:00:20.999Z</time></trkpt><trkpt lat="39.08156570893505" lon="16.178549708677643"><ele>539.0</ele><time>2026-05-03T11:00:21.999Z</time></trkpt><trkpt lat="39.08157677519251" lon="16.178661721141392"><ele>543.0</ele><time>2026-05-03T11:00:22.999Z</time></trkpt><trkpt lat="39.081618046029625" lon="16.178781672013113"><ele>547.1999999999999</ele><time>2026-05-03T11:00:23.999Z</time></trkpt><trkpt lat="39.081655725625815" lon="16.178925249584644"><ele>551.4</ele><time>2026-05-03T11:00:24.999Z</time></trkpt><trkpt lat="39.08167032888965" lon="16.179065189371656"><ele>555.5999999999999</ele><time>2026-05-03T11:00:25.999Z</time></trkpt><trkpt lat="39.081678566599855" lon="16.17919235926099"><ele>559.8</ele><time>2026-05-03T11:00:26.999Z</time></trkpt><trkpt lat="39.081745043882364" lon="16.1792423931337"><ele>564.0</ele><time>2026-05-03T11:00:28.999Z</time></trkpt><trkpt lat="39.081788980623934" lon="16.179124914181266"><ele>564.0</ele><time>2026-05-03T11:00:30.999Z</time></trkpt><trkpt lat="39.08180882774372" lon="16.179019054144938"><ele>564.0</ele><time>2026-05-03T11:00:31.999Z</time></trkpt><trkpt lat="39.081834813151815" lon="16.17888927730002"><ele>564.0</ele><time>2026-05-03T11:00:32.999Z</time></trkpt><trkpt lat="39.08189817346972" lon="16.178700137521293"><ele>564.0</ele><time>2026-05-03T11:00:33.999Z</time></trkpt><trkpt lat="39.08195093965508" lon="16.17851553057167"><ele>564.0</ele><time>2026-05-03T11:00:34.999Z</time></trkpt><trkpt lat="39.08198631419241" lon="16.178441629581787"><ele>564.0</ele><time>2026-05-03T11:00:35.999Z</time></trkpt><trkpt lat="39.08208533864389" lon="16.178524684459887"><ele>564.0</ele><time>2026-05-03T11:00:38.999Z</time></trkpt><trkpt lat="39.08214665086922" lon="16.17857357803436"><ele>564.0</ele><time>2026-05-03T11:00:39.999Z</time></trkpt><trkpt lat="39.082218593151104" lon="16.178643949349166"><ele>564.0</ele><time>2026-05-03T11:00:40.999Z</time></trkpt><trkpt lat="39.08231192809473" lon="16.17870953729518"><ele>564.0</ele><time>2026-05-03T11:00:41.999Z</time></trkpt><trkpt lat="39.082401997922496" lon="16.178754949584057"><ele>564.0</ele><time>2026-05-03T11:00:42.999Z</time></trkpt><trkpt lat="39.082474485413094" lon="16.17877499536745"><ele>564.0</ele><time>2026-05-03T11:00:43.999Z</time></trkpt><trkpt lat="39.082554089556346" lon="16.178811970117078"><ele>564.0</ele><time>2026-05-03T11:00:44.999Z</time></trkpt><trkpt lat="39.082635690351864" lon="16.1788723213593"><ele>564.0</ele><time>2026-05-03T11:00:45.999Z</time></trkpt><trkpt lat="39.0827540240625" lon="16.17895936620961"><ele>571.8</ele><time>2026-05-03T11:00:46.999Z</time></trkpt><trkpt lat="39.08288311500442" lon="16.179050016682677"><ele>579.5999999999999</ele><time>2026-05-03T11:00:47.999Z</time></trkpt><trkpt lat="39.08296520472257" lon="16.179112595056402"><ele>587.4</ele><time>2026-05-03T11:00:48.999Z</time></trkpt><trkpt lat="39.08303983769582" lon="16.179177078509788"><ele>595.1999999999999</ele><time>2026-05-03T11:00:49.999Z</time></trkpt><trkpt lat="39.08311990660237" lon="16.179237307054574"><ele>603.0</ele><time>2026-05-03T11:00:50.999Z</time></trkpt><trkpt lat="39.083216149770216" lon="16.17929591148821"><ele>604.5</ele><time>2026-05-03T11:00:51.999Z</time></trkpt><trkpt lat="39.08329226460201" lon="16.17933033749638"><ele>606.0</ele><time>2026-05-03T11:00:52.999Z</time></trkpt><trkpt lat="39.0833778878506" lon="16.179350776975166"><ele>607.5</ele><time>2026-05-03T11:00:53.999Z</time></trkpt><trkpt lat="39.08345054640615" lon="16.179348853702823"><ele>609.0</ele><time>2026-05-03T11:00:54.999Z</time></trkpt><trkpt lat="39.083507990406524" lon="16.17925805211772"><ele>610.5</ele><time>2026-05-03T11:00:56.999Z</time></trkpt><trkpt lat="39.083494822181336" lon="16.179169010341752"><ele>612.0</ele><time>2026-05-03T11:00:57.999Z</time></trkpt><trkpt lat="39.08346918831028" lon="16.17904401563397"><ele>608.6</ele><time>2026-05-03T11:00:58.999Z</time></trkpt><trkpt lat="39.083443541438434" lon="16.178927284285574"><ele>605.2</ele><time>2026-05-03T11:00:59.999Z</time></trkpt><trkpt lat="39.08344544968295" lon="16.178822823504163"><ele>601.8</ele><time>2026-05-03T11:01:00.999Z</time></trkpt><trkpt lat="39.08346891109936" lon="16.178683865601627"><ele>598.4</ele><time>2026-05-03T11:01:01.999Z</time></trkpt><trkpt lat="39.08350128211255" lon="16.178538808486856"><ele>595.0</ele><time>2026-05-03T11:01:02.999Z</time></trkpt><trkpt lat="39.083546781739436" lon="16.178429500705885"><ele>595.0</ele><time>2026-05-03T11:01:03.999Z</time></trkpt><trkpt lat="39.0836334410361" lon="16.178391098614046"><ele>595.0</ele><time>2026-05-03T11:01:05.999Z</time></trkpt><trkpt lat="39.083723723249726" lon="16.178392533949612"><ele>595.0</ele><time>2026-05-03T11:01:07.999Z</time></trkpt><trkpt lat="39.08378337239231" lon="16.178433944597153"><ele>595.0</ele><time>2026-05-03T11:01:08.999Z</time></trkpt><trkpt lat="39.083856335613206" lon="16.1784485474167"><ele>595.0</ele><time>2026-05-03T11:01:09.999Z</time></trkpt><trkpt lat="39.0839168742149" lon="16.178423853164283"><ele>595.0</ele><time>2026-05-03T11:01:10.999Z</time></trkpt><trkpt lat="39.08396218614233" lon="16.17835831860601"><ele>595.0</ele><time>2026-05-03T11:01:11.999Z</time></trkpt><trkpt lat="39.084030476844084" lon="16.178256559891704"><ele>595.0</ele><time>2026-05-03T11:01:12.999Z</time></trkpt><trkpt lat="39.08410643039185" lon="16.178177063708095"><ele>595.0</ele><time>2026-05-03T11:01:13.999Z</time></trkpt><trkpt lat="39.08417280465917" lon="16.178140733285634"><ele>595.0</ele><time>2026-05-03T11:01:14.999Z</time></trkpt><trkpt lat="39.08427148309951" lon="16.178097866984285"><ele>595.0</ele><time>2026-05-03T11:01:15.999Z</time></trkpt><trkpt lat="39.08437822706691" lon="16.178067894190956"><ele>595.1666666666667</ele><time>2026-05-03T11:01:16.999Z</time></trkpt><trkpt lat="39.08447709532593" lon="16.17803382730888"><ele>595.3333333333334</ele><time>2026-05-03T11:01:17.999Z</time></trkpt><trkpt lat="39.08454142100699" lon="16.178003047972936"><ele>595.5</ele><time>2026-05-03T11:01:18.999Z</time></trkpt><trkpt lat="39.0846355196779" lon="16.178020770942165"><ele>595.6666666666666</ele><time>2026-05-03T11:01:20.999Z</time></trkpt><trkpt lat="39.0847103409621" lon="16.178075688194603"><ele>595.8333333333333</ele><time>2026-05-03T11:01:21.999Z</time></trkpt><trkpt lat="39.08476089272712" lon="16.1781289732864"><ele>596.0</ele><time>2026-05-03T11:01:22.999Z</time></trkpt><trkpt lat="39.084850503659375" lon="16.178130154606936"><ele>596.0</ele><time>2026-05-03T11:01:24.999Z</time></trkpt><trkpt lat="39.084927932829366" lon="16.178087925129404"><ele>596.0</ele><time>2026-05-03T11:01:25.999Z</time></trkpt><trkpt lat="39.08501742943198" lon="16.178034327740036"><ele>596.0</ele><time>2026-05-03T11:01:26.999Z</time></trkpt><trkpt lat="39.0850830452405" lon="16.177976013522315"><ele>596.0</ele><time>2026-05-03T11:01:27.999Z</time></trkpt><trkpt lat="39.08514749223419" lon="16.177921712556227"><ele>596.0</ele><time>2026-05-03T11:01:28.999Z</time></trkpt><trkpt lat="39.0852086795236" lon="16.17788770461733"><ele>596.0</ele><time>2026-05-03T11:01:29.999Z</time></trkpt><trkpt lat="39.08530202971428" lon="16.17792608209842"><ele>599.0</ele><time>2026-05-03T11:01:31.999Z</time></trkpt><trkpt lat="39.085376041278906" lon="16.17795670278543"><ele>602.0</ele><time>2026-05-03T11:01:32.999Z</time></trkpt><trkpt lat="39.08546063274613" lon="16.177989271346206"><ele>605.0</ele><time>2026-05-03T11:01:33.999Z</time></trkpt><trkpt lat="39.08554876254401" lon="16.178020939522884"><ele>608.0</ele><time>2026-05-03T11:01:34.999Z</time></trkpt><trkpt lat="39.08562465317924" lon="16.17808348403773"><ele>611.0</ele><time>2026-05-03T11:01:36.999Z</time></trkpt><trkpt lat="39.08569005982779" lon="16.17818508887766"><ele>619.0</ele><time>2026-05-03T11:01:37.999Z</time></trkpt><trkpt lat="39.08577156885972" lon="16.17825418457452"><ele>627.0</ele><time>2026-05-03T11:01:38.999Z</time></trkpt><trkpt lat="39.085855478481136" lon="16.178301255570886"><ele>635.0</ele><time>2026-05-03T11:01:39.999Z</time></trkpt><trkpt lat="39.085920496434795" lon="16.17834175236701"><ele>643.0</ele><time>2026-05-03T11:01:40.999Z</time></trkpt><trkpt lat="39.085989046965466" lon="16.178369539534803"><ele>651.0</ele><time>2026-05-03T11:01:41.999Z</time></trkpt><trkpt lat="39.086051643791215" lon="16.17838673045823"><ele>659.0</ele><time>2026-05-03T11:01:42.999Z</time></trkpt><trkpt lat="39.08616599775827" lon="16.178424556300765"><ele>659.0</ele><time>2026-05-03T11:01:44.999Z</time></trkpt><trkpt lat="39.08625324616075" lon="16.178416631362104"><ele>659.0</ele><time>2026-05-03T11:01:45.999Z</time></trkpt><trkpt lat="39.08635280415854" lon="16.178338582015822"><ele>659.0</ele><time>2026-05-03T11:01:47.999Z</time></trkpt><trkpt lat="39.08646163080994" lon="16.178350556944928"><ele>659.0</ele><time>2026-05-03T11:01:49.999Z</time></trkpt><trkpt lat="39.08656008307908" lon="16.178422088584355"><ele>659.0</ele><time>2026-05-03T11:01:51.999Z</time></trkpt><trkpt lat="39.08662243353279" lon="16.178458572518036"><ele>659.8333333333333</ele><time>2026-05-03T11:01:52.999Z</time></trkpt><trkpt lat="39.086686203656264" lon="16.17846453713193"><ele>660.6666666666666</ele><time>2026-05-03T11:01:53.999Z</time></trkpt><trkpt lat="39.086755152086894" lon="16.17843357145465"><ele>661.5</ele><time>2026-05-03T11:01:54.999Z</time></trkpt><trkpt lat="39.08682945043706" lon="16.17837667328855"><ele>662.3333333333334</ele><time>2026-05-03T11:01:55.999Z</time></trkpt><trkpt lat="39.0869012673016" lon="16.178350788631636"><ele>663.1666666666667</ele><time>2026-05-03T11:01:56.999Z</time></trkpt><trkpt lat="39.08698730308946" lon="16.178338120660715"><ele>664.0</ele><time>2026-05-03T11:01:57.999Z</time></trkpt><trkpt lat="39.0870739924691" lon="16.17832263828797"><ele>664.0</ele><time>2026-05-03T11:01:58.999Z</time></trkpt><trkpt lat="39.08717381003225" lon="16.178295165095232"><ele>664.0</ele><time>2026-05-03T11:01:59.999Z</time></trkpt><trkpt lat="39.087238728692476" lon="16.178300068184825"><ele>664.0</ele><time>2026-05-03T11:02:00.999Z</time></trkpt><trkpt lat="39.087368510270736" lon="16.17835043814461"><ele>664.0</ele><time>2026-05-03T11:02:02.999Z</time></trkpt><trkpt lat="39.087469295592754" lon="16.178367107480824"><ele>664.0</ele><time>2026-05-03T11:02:03.999Z</time></trkpt><trkpt lat="39.087585101073614" lon="16.178375679827138"><ele>667.6666666666667</ele><time>2026-05-03T11:02:04.999Z</time></trkpt><trkpt lat="39.08770199061023" lon="16.178375966212876"><ele>671.3333333333334</ele><time>2026-05-03T11:02:05.999Z</time></trkpt><trkpt lat="39.087794088804785" lon="16.178347334186224"><ele>675.0</ele><time>2026-05-03T11:02:07.999Z</time></trkpt><trkpt lat="39.08779674364228" lon="16.17824583860147"><ele>678.6666666666666</ele><time>2026-05-03T11:02:09.999Z</time></trkpt><trkpt lat="39.08775859173348" lon="16.178177536937813"><ele>682.3333333333333</ele><time>2026-05-03T11:02:10.999Z</time></trkpt><trkpt lat="39.08769813314865" lon="16.1780963415459"><ele>686.0</ele><time>2026-05-03T11:02:11.999Z</time></trkpt><trkpt lat="39.08762457708595" lon="16.177962886633733"><ele>686.8</ele><time>2026-05-03T11:02:12.999Z</time></trkpt><trkpt lat="39.08754863004371" lon="16.177858757620847"><ele>687.5999999999999</ele><time>2026-05-03T11:02:13.999Z</time></trkpt><trkpt lat="39.08749818719103" lon="16.177758408169183"><ele>688.4</ele><time>2026-05-03T11:02:14.999Z</time></trkpt><trkpt lat="39.0874551246659" lon="16.17759959449267"><ele>689.2</ele><time>2026-05-03T11:02:16.999Z</time></trkpt><trkpt lat="39.08740207113672" lon="16.177528165583073"><ele>690.0</ele><time>2026-05-03T11:02:17.999Z</time></trkpt><trkpt lat="39.08731912457119" lon="16.177488196222704"><ele>683.4</ele><time>2026-05-03T11:02:18.999Z</time></trkpt><trkpt lat="39.087268661725616" lon="16.177434110993378"><ele>676.8</ele><time>2026-05-03T11:02:19.999Z</time></trkpt><trkpt lat="39.08723385299764" lon="16.17729831407043"><ele>670.2</ele><time>2026-05-03T11:02:21.999Z</time></trkpt><trkpt lat="39.08716158164069" lon="16.17717491402124"><ele>663.6</ele><time>2026-05-03T11:02:22.999Z</time></trkpt><trkpt lat="39.08709922607421" lon="16.177087517410573"><ele>657.0</ele><time>2026-05-03T11:02:23.999Z</time></trkpt><trkpt lat="39.08705480538618" lon="16.177011599170463"><ele>657.0</ele><time>2026-05-03T11:02:24.999Z</time></trkpt><trkpt lat="39.08705429254492" lon="16.176851646247737"><ele>657.0</ele><time>2026-05-03T11:02:26.999Z</time></trkpt><trkpt lat="39.087065572393904" lon="16.176724587261273"><ele>657.0</ele><time>2026-05-03T11:02:27.999Z</time></trkpt><trkpt lat="39.08710332845175" lon="16.17660410687497"><ele>657.0</ele><time>2026-05-03T11:02:28.999Z</time></trkpt><trkpt lat="39.08715238565816" lon="16.176534908130872"><ele>657.0</ele><time>2026-05-03T11:02:29.999Z</time></trkpt><trkpt lat="39.08720811867359" lon="16.17646570487578"><ele>658.4000000000001</ele><time>2026-05-03T11:02:30.999Z</time></trkpt><trkpt lat="39.08727488097107" lon="16.17636363577069"><ele>659.8000000000001</ele><time>2026-05-03T11:02:31.999Z</time></trkpt><trkpt lat="39.08732443108618" lon="16.176262855790064"><ele>661.2</ele><time>2026-05-03T11:02:32.999Z</time></trkpt><trkpt lat="39.08732633293179" lon="16.176098998541697"><ele>662.6</ele><time>2026-05-03T11:02:34.999Z</time></trkpt><trkpt lat="39.08732805848563" lon="16.175979985303155"><ele>664.0</ele><time>2026-05-03T11:02:35.999Z</time></trkpt><trkpt lat="39.08734245942812" lon="16.1758651846508"><ele>664.0</ele><time>2026-05-03T11:02:36.999Z</time></trkpt><trkpt lat="39.08736704582596" lon="16.17577549640689"><ele>664.0</ele><time>2026-05-03T11:02:37.999Z</time></trkpt><trkpt lat="39.0874489175878" lon="16.175664191753945"><ele>664.0</ele><time>2026-05-03T11:02:39.999Z</time></trkpt><trkpt lat="39.08751062986144" lon="16.17562751442561"><ele>664.0</ele><time>2026-05-03T11:02:40.999Z</time></trkpt><trkpt lat="39.0875772296985" lon="16.17561137963227"><ele>664.0</ele><time>2026-05-03T11:02:41.999Z</time></trkpt><trkpt lat="39.087643338693304" lon="16.175626515497342"><ele>664.0</ele><time>2026-05-03T11:02:42.999Z</time></trkpt><trkpt lat="39.08775897455486" lon="16.17573034682213"><ele>673.0</ele><time>2026-05-03T11:02:44.999Z</time></trkpt><trkpt lat="39.08784094582389" lon="16.175802090685067"><ele>682.0</ele><time>2026-05-03T11:02:45.999Z</time></trkpt><trkpt lat="39.0879425272335" lon="16.175911872505434"><ele>691.0</ele><time>2026-05-03T11:02:46.999Z</time></trkpt><trkpt lat="39.08805355795093" lon="16.176032047524604"><ele>700.0</ele><time>2026-05-03T11:02:47.999Z</time></trkpt><trkpt lat="39.08816759771404" lon="16.176164754667187"><ele>703.25</ele><time>2026-05-03T11:02:48.999Z</time></trkpt><trkpt lat="39.08827268287267" lon="16.176281713717437"><ele>706.5</ele><time>2026-05-03T11:02:49.999Z</time></trkpt><trkpt lat="39.08835574439424" lon="16.176382484539687"><ele>709.75</ele><time>2026-05-03T11:02:50.999Z</time></trkpt><trkpt lat="39.08842391365136" lon="16.176436548998144"><ele>713.0</ele><time>2026-05-03T11:02:51.999Z</time></trkpt><trkpt lat="39.08855778763411" lon="16.176413331307977"><ele>713.0</ele><time>2026-05-03T11:02:53.999Z</time></trkpt><trkpt lat="39.088655176219675" lon="16.176322196595276"><ele>713.0</ele><time>2026-05-03T11:02:54.999Z</time></trkpt><trkpt lat="39.08877145782416" lon="16.176206590173525"><ele>713.0</ele><time>2026-05-03T11:02:55.999Z</time></trkpt><trkpt lat="39.088908706351276" lon="16.176065135673728"><ele>713.0</ele><time>2026-05-03T11:02:56.999Z</time></trkpt><trkpt lat="39.08902137105268" lon="16.17592990022792"><ele>712.8</ele><time>2026-05-03T11:02:57.999Z</time></trkpt><trkpt lat="39.08913454138429" lon="16.1758084433439"><ele>712.5999999999999</ele><time>2026-05-03T11:02:58.999Z</time></trkpt><trkpt lat="39.089212075382996" lon="16.175734684305368"><ele>712.4000000000001</ele><time>2026-05-03T11:02:59.999Z</time></trkpt><trkpt lat="39.089276969023196" lon="16.175681382293142"><ele>712.2</ele><time>2026-05-03T11:03:00.999Z</time></trkpt><trkpt lat="39.08938161678343" lon="16.175690920430775"><ele>712.0</ele><time>2026-05-03T11:03:02.999Z</time></trkpt><trkpt lat="39.089454173815945" lon="16.17575333990459"><ele>716.0</ele><time>2026-05-03T11:03:03.999Z</time></trkpt><trkpt lat="39.089536589965476" lon="16.175831130152435"><ele>720.0</ele><time>2026-05-03T11:03:04.999Z</time></trkpt><trkpt lat="39.089627702641636" lon="16.175939075513128"><ele>724.0</ele><time>2026-05-03T11:03:05.999Z</time></trkpt><trkpt lat="39.08973592518229" lon="16.176049122801665"><ele>728.0</ele><time>2026-05-03T11:03:06.999Z</time></trkpt><trkpt lat="39.08981899649954" lon="16.176161467139973"><ele>728.0</ele><time>2026-05-03T11:03:07.999Z</time></trkpt><trkpt lat="39.08985319346333" lon="16.176254520950312"><ele>728.0</ele><time>2026-05-03T11:03:08.999Z</time></trkpt><trkpt lat="39.08989644727514" lon="16.176328373329913"><ele>728.0</ele><time>2026-05-03T11:03:09.999Z</time></trkpt><trkpt lat="39.08995993854258" lon="16.17638988777037"><ele>728.0</ele><time>2026-05-03T11:03:10.999Z</time></trkpt><trkpt lat="39.090067489633505" lon="16.176466810516683"><ele>728.0</ele><time>2026-05-03T11:03:11.999Z</time></trkpt><trkpt lat="39.090182570138175" lon="16.176544630335847"><ele>732.0</ele><time>2026-05-03T11:03:12.999Z</time></trkpt><trkpt lat="39.090280465078415" lon="16.176608327257693"><ele>736.0</ele><time>2026-05-03T11:03:13.999Z</time></trkpt><trkpt lat="39.09038162910524" lon="16.17667126246456"><ele>740.0</ele><time>2026-05-03T11:03:14.999Z</time></trkpt><trkpt lat="39.090459784441464" lon="16.176703496163373"><ele>744.0</ele><time>2026-05-03T11:03:15.999Z</time></trkpt><trkpt lat="39.09052515234528" lon="16.17672098567556"><ele>748.0</ele><time>2026-05-03T11:03:16.999Z</time></trkpt><trkpt lat="39.09067199212688" lon="16.17670388570159"><ele>747.2</ele><time>2026-05-03T11:03:18.999Z</time></trkpt><trkpt lat="39.0907961007581" lon="16.176676098495196"><ele>746.4</ele><time>2026-05-03T11:03:19.999Z</time></trkpt><trkpt lat="39.090875988000796" lon="16.17665139268696"><ele>745.6</ele><time>2026-05-03T11:03:20.999Z</time></trkpt><trkpt lat="39.09096511592255" lon="16.17658170537804"><ele>744.8000000000001</ele><time>2026-05-03T11:03:21.999Z</time></trkpt><trkpt lat="39.09106021397123" lon="16.176482266943484"><ele>744.0</ele><time>2026-05-03T11:03:22.999Z</time></trkpt><trkpt lat="39.091140178248125" lon="16.176374304300687"><ele>739.8000000000001</ele><time>2026-05-03T11:03:23.999Z</time></trkpt><trkpt lat="39.09120978604208" lon="16.17624627711216"><ele>735.6</ele><time>2026-05-03T11:03:24.999Z</time></trkpt><trkpt lat="39.09128731200222" lon="16.176119822004694"><ele>731.4</ele><time>2026-05-03T11:03:25.999Z</time></trkpt><trkpt lat="39.09134704118222" lon="16.176038384394875"><ele>727.2</ele><time>2026-05-03T11:03:26.999Z</time></trkpt><trkpt lat="39.091435662949415" lon="16.17599615145712"><ele>723.0</ele><time>2026-05-03T11:03:28.999Z</time></trkpt><trkpt lat="39.09151606547281" lon="16.17600284217091"><ele>726.0</ele><time>2026-05-03T11:03:29.999Z</time></trkpt><trkpt lat="39.091628775275744" lon="16.17604441481784"><ele>729.0</ele><time>2026-05-03T11:03:30.999Z</time></trkpt><trkpt lat="39.09177024059107" lon="16.176098476295955"><ele>732.0</ele><time>2026-05-03T11:03:31.999Z</time></trkpt><trkpt lat="39.09191416961431" lon="16.17615161730753"><ele>735.0</ele><time>2026-05-03T11:03:32.999Z</time></trkpt><trkpt lat="39.09200690722738" lon="16.176192379439353"><ele>735.0</ele><time>2026-05-03T11:03:33.999Z</time></trkpt><trkpt lat="39.09206209995313" lon="16.17624281195894"><ele>735.0</ele><time>2026-05-03T11:03:34.999Z</time></trkpt><trkpt lat="39.09211647914386" lon="16.176320165375806"><ele>735.0</ele><time>2026-05-03T11:03:35.999Z</time></trkpt><trkpt lat="39.092213468029215" lon="16.176437239291175"><ele>735.0</ele><time>2026-05-03T11:03:36.999Z</time></trkpt><trkpt lat="39.09230397158464" lon="16.17650525662483"><ele>735.0</ele><time>2026-05-03T11:03:37.999Z</time></trkpt><trkpt lat="39.092392968636055" lon="16.176538650153933"><ele>738.0</ele><time>2026-05-03T11:03:38.999Z</time></trkpt><trkpt lat="39.09250093000675" lon="16.176553918561147"><ele>741.0</ele><time>2026-05-03T11:03:39.999Z</time></trkpt><trkpt lat="39.092601078808585" lon="16.176568206948705"><ele>744.0</ele><time>2026-05-03T11:03:40.999Z</time></trkpt><trkpt lat="39.092669255593925" lon="16.176598274157147"><ele>747.0</ele><time>2026-05-03T11:03:41.999Z</time></trkpt><trkpt lat="39.092762129288154" lon="16.17665796216624"><ele>750.0</ele><time>2026-05-03T11:03:42.999Z</time></trkpt><trkpt lat="39.09288544418854" lon="16.176750821348072"><ele>750.0</ele><time>2026-05-03T11:03:43.999Z</time></trkpt><trkpt lat="39.09304110906092" lon="16.176857552831613"><ele>750.0</ele><time>2026-05-03T11:03:44.999Z</time></trkpt><trkpt lat="39.093174817699676" lon="16.176932383918192"><ele>750.0</ele><time>2026-05-03T11:03:45.999Z</time></trkpt><trkpt lat="39.09325847872127" lon="16.176989533589524"><ele>750.0</ele><time>2026-05-03T11:03:46.999Z</time></trkpt><trkpt lat="39.09335157271186" lon="16.177006744291468"><ele>749.75</ele><time>2026-05-03T11:03:47.999Z</time></trkpt><trkpt lat="39.09346389690146" lon="16.17701279534399"><ele>749.5</ele><time>2026-05-03T11:03:48.999Z</time></trkpt><trkpt lat="39.09360941989289" lon="16.177026078522243"><ele>749.25</ele><time>2026-05-03T11:03:49.999Z</time></trkpt><trkpt lat="39.0937483116315" lon="16.177018210336442"><ele>749.0</ele><time>2026-05-03T11:03:50.999Z</time></trkpt><trkpt lat="39.093861876908" lon="16.176975404951104"><ele>749.0</ele><time>2026-05-03T11:03:51.999Z</time></trkpt><trkpt lat="39.093993289363986" lon="16.176920514256846"><ele>749.0</ele><time>2026-05-03T11:03:52.999Z</time></trkpt><trkpt lat="39.09415536791416" lon="16.176835037362267"><ele>749.0</ele><time>2026-05-03T11:03:53.999Z</time></trkpt><trkpt lat="39.094308414479215" lon="16.176756601036427"><ele>750.25</ele><time>2026-05-03T11:03:54.999Z</time></trkpt><trkpt lat="39.09442649010483" lon="16.17669245998153"><ele>751.5</ele><time>2026-05-03T11:03:55.999Z</time></trkpt><trkpt lat="39.09454092549004" lon="16.17661887485387"><ele>752.75</ele><time>2026-05-03T11:03:56.999Z</time></trkpt><trkpt lat="39.09463754712374" lon="16.176503164663895"><ele>754.0</ele><time>2026-05-03T11:03:57.999Z</time></trkpt><trkpt lat="39.094720130322905" lon="16.176364629198417"><ele>749.0</ele><time>2026-05-03T11:03:58.999Z</time></trkpt><trkpt lat="39.094792384179314" lon="16.17621866113009"><ele>744.0</ele><time>2026-05-03T11:03:59.999Z</time></trkpt><trkpt lat="39.094850882832866" lon="16.17608137809581"><ele>739.0</ele><time>2026-05-03T11:04:00.999Z</time></trkpt><trkpt lat="39.09487982301811" lon="16.175932356563603"><ele>734.0</ele><time>2026-05-03T11:04:01.999Z</time></trkpt><trkpt lat="39.09488245647966" lon="16.17579783424151"><ele>731.2</ele><time>2026-05-03T11:04:02.999Z</time></trkpt><trkpt lat="39.094903176102456" lon="16.175680711567345"><ele>728.4000000000001</ele><time>2026-05-03T11:04:03.999Z</time></trkpt><trkpt lat="39.09494197600067" lon="16.175600840065524"><ele>725.6</ele><time>2026-05-03T11:04:04.999Z</time></trkpt><trkpt lat="39.094996438668765" lon="16.175550351200606"><ele>722.8</ele><time>2026-05-03T11:04:05.999Z</time></trkpt><trkpt lat="39.09507752555101" lon="16.175486750807167"><ele>720.0</ele><time>2026-05-03T11:04:06.999Z</time></trkpt><trkpt lat="39.09519050172461" lon="16.175409869304392"><ele>720.0</ele><time>2026-05-03T11:04:07.999Z</time></trkpt><trkpt lat="39.095293359959705" lon="16.175364494839357"><ele>720.0</ele><time>2026-05-03T11:04:08.999Z</time></trkpt><trkpt lat="39.095378701783176" lon="16.175320452597166"><ele>720.0</ele><time>2026-05-03T11:04:09.999Z</time></trkpt><trkpt lat="39.09546776782747" lon="16.175292639727353"><ele>720.0</ele><time>2026-05-03T11:04:10.999Z</time></trkpt><trkpt lat="39.09555751560892" lon="16.17526335927402"><ele>720.0</ele><time>2026-05-03T11:04:11.999Z</time></trkpt><trkpt lat="39.09563475582824" lon="16.17524966892138"><ele>720.0</ele><time>2026-05-03T11:04:12.999Z</time></trkpt><trkpt lat="39.09571969849265" lon="16.175257613388872"><ele>720.0</ele><time>2026-05-03T11:04:13.999Z</time></trkpt><trkpt lat="39.09578847510528" lon="16.175296591191376"><ele>720.0</ele><time>2026-05-03T11:04:14.999Z</time></trkpt><trkpt lat="39.09589132599103" lon="16.17532580873546"><ele>720.0</ele><time>2026-05-03T11:04:15.999Z</time></trkpt><trkpt lat="39.096012561321416" lon="16.175367523971563"><ele>720.0</ele><time>2026-05-03T11:04:16.999Z</time></trkpt><trkpt lat="39.09614524442688" lon="16.175398104801605"><ele>720.0</ele><time>2026-05-03T11:04:17.999Z</time></trkpt><trkpt lat="39.09626714752932" lon="16.17539236358768"><ele>720.0</ele><time>2026-05-03T11:04:18.999Z</time></trkpt><trkpt lat="39.09639025996402" lon="16.175369562064365"><ele>720.0</ele><time>2026-05-03T11:04:19.999Z</time></trkpt><trkpt lat="39.09649264395183" lon="16.17534638049883"><ele>720.0</ele><time>2026-05-03T11:04:20.999Z</time></trkpt><trkpt lat="39.096574456674446" lon="16.175331424951946"><ele>720.0</ele><time>2026-05-03T11:04:21.999Z</time></trkpt><trkpt lat="39.09664755348153" lon="16.17533626522348"><ele>720.8</ele><time>2026-05-03T11:04:22.999Z</time></trkpt><trkpt lat="39.09672703672284" lon="16.17530461127734"><ele>721.6</ele><time>2026-05-03T11:04:23.999Z</time></trkpt><trkpt lat="39.09686021179043" lon="16.175261434733542"><ele>722.4000000000001</ele><time>2026-05-03T11:04:24.999Z</time></trkpt><trkpt lat="39.096977868911935" lon="16.17521658957243"><ele>723.2</ele><time>2026-05-03T11:04:25.999Z</time></trkpt><trkpt lat="39.09706374850956" lon="16.175195321667996"><ele>724.0</ele><time>2026-05-03T11:04:26.999Z</time></trkpt><trkpt lat="39.09713092826882" lon="16.175169985938982"><ele>724.0</ele><time>2026-05-03T11:04:27.999Z</time></trkpt><trkpt lat="39.09721296631536" lon="16.175190141235287"><ele>724.0</ele><time>2026-05-03T11:04:28.999Z</time></trkpt><trkpt lat="39.0973123929769" lon="16.17523200855638"><ele>724.0</ele><time>2026-05-03T11:04:29.999Z</time></trkpt><trkpt lat="39.097447612527766" lon="16.175303831341814"><ele>724.0</ele><time>2026-05-03T11:04:30.999Z</time></trkpt><trkpt lat="39.09758503155817" lon="16.17538588314218"><ele>724.0</ele><time>2026-05-03T11:04:31.999Z</time></trkpt><trkpt lat="39.09766939586028" lon="16.175434462747706"><ele>724.0</ele><time>2026-05-03T11:04:32.999Z</time></trkpt><trkpt lat="39.09770462098014" lon="16.17553161816228"><ele>724.0</ele><time>2026-05-03T11:04:35.999Z</time></trkpt><trkpt lat="39.09766991472469" lon="16.175639911774415"><ele>724.0</ele><time>2026-05-03T11:04:37.999Z</time></trkpt><trkpt lat="39.09758802964869" lon="16.175706298511553"><ele>724.0</ele><time>2026-05-03T11:04:39.999Z</time></trkpt><trkpt lat="39.09754528286597" lon="16.175820036012492"><ele>724.0</ele><time>2026-05-03T11:04:41.999Z</time></trkpt><trkpt lat="39.09754423028566" lon="16.17592887989059"><ele>724.0</ele><time>2026-05-03T11:04:42.999Z</time></trkpt><trkpt lat="39.09752590274169" lon="16.176073442989363"><ele>724.0</ele><time>2026-05-03T11:04:43.999Z</time></trkpt><trkpt lat="39.09751609327705" lon="16.176196909119327"><ele>724.0</ele><time>2026-05-03T11:04:44.999Z</time></trkpt><trkpt lat="39.09750408267633" lon="16.17629767053475"><ele>724.0</ele><time>2026-05-03T11:04:45.999Z</time></trkpt><trkpt lat="39.097470265778846" lon="16.176404438768053"><ele>724.0</ele><time>2026-05-03T11:04:46.999Z</time></trkpt><trkpt lat="39.09745274433725" lon="16.176511433897797"><ele>724.0</ele><time>2026-05-03T11:04:47.999Z</time></trkpt><trkpt lat="39.09744524329444" lon="16.176666777067997"><ele>724.0</ele><time>2026-05-03T11:04:48.999Z</time></trkpt><trkpt lat="39.09744048115858" lon="16.176787678912888"><ele>724.0</ele><time>2026-05-03T11:04:49.999Z</time></trkpt><trkpt lat="39.09743781849981" lon="16.176897126136055"><ele>724.0</ele><time>2026-05-03T11:04:50.999Z</time></trkpt><trkpt lat="39.0974220806307" lon="16.17698591193262"><ele>722.8333333333334</ele><time>2026-05-03T11:04:51.999Z</time></trkpt><trkpt lat="39.09741200487578" lon="16.17708442901409"><ele>721.6666666666667</ele><time>2026-05-03T11:04:52.999Z</time></trkpt><trkpt lat="39.097418871427095" lon="16.177189853280673"><ele>720.5</ele><time>2026-05-03T11:04:53.999Z</time></trkpt><trkpt lat="39.09743934053447" lon="16.177286320068884"><ele>719.3333333333334</ele><time>2026-05-03T11:04:54.999Z</time></trkpt><trkpt lat="39.09748855832074" lon="16.177388454041747"><ele>718.1666666666666</ele><time>2026-05-03T11:04:55.999Z</time></trkpt><trkpt lat="39.097536702644334" lon="16.1774972441899"><ele>717.0</ele><time>2026-05-03T11:04:56.999Z</time></trkpt><trkpt lat="39.09756723031267" lon="16.177571602527603"><ele>713.8333333333334</ele><time>2026-05-03T11:04:57.999Z</time></trkpt><trkpt lat="39.09760997465861" lon="16.177658014827053"><ele>710.6666666666666</ele><time>2026-05-03T11:04:58.999Z</time></trkpt><trkpt lat="39.097685914160586" lon="16.177737777579345"><ele>707.5</ele><time>2026-05-03T11:04:59.999Z</time></trkpt><trkpt lat="39.09776051621159" lon="16.177787460104557"><ele>704.3333333333333</ele><time>2026-05-03T11:05:00.999Z</time></trkpt><trkpt lat="39.09782949511178" lon="16.177807071278135"><ele>701.1666666666666</ele><time>2026-05-03T11:05:02.999Z</time></trkpt><trkpt lat="39.09785670849584" lon="16.177700248353688"><ele>698.0</ele><time>2026-05-03T11:05:04.999Z</time></trkpt><trkpt lat="39.097806461826416" lon="16.1775844088118"><ele>698.0</ele><time>2026-05-03T11:05:06.999Z</time></trkpt><trkpt lat="39.097761143936424" lon="16.177509753820868"><ele>698.0</ele><time>2026-05-03T11:05:07.999Z</time></trkpt><trkpt lat="39.097719192711494" lon="16.177411397718412"><ele>698.0</ele><time>2026-05-03T11:05:08.999Z</time></trkpt><trkpt lat="39.09770552069601" lon="16.177331580175906"><ele>698.0</ele><time>2026-05-03T11:05:09.999Z</time></trkpt><trkpt lat="39.09771169926354" lon="16.177157304570557"><ele>698.0</ele><time>2026-05-03T11:05:11.999Z</time></trkpt><trkpt lat="39.097745762051765" lon="16.177076787753514"><ele>698.0</ele><time>2026-05-03T11:05:12.999Z</time></trkpt><trkpt lat="39.09781537884873" lon="16.17702360476972"><ele>702.75</ele><time>2026-05-03T11:05:13.999Z</time></trkpt><trkpt lat="39.09789723287365" lon="16.17692014873827"><ele>707.5</ele><time>2026-05-03T11:05:15.999Z</time></trkpt><trkpt lat="39.0979055296837" lon="16.176760074818446"><ele>712.25</ele><time>2026-05-03T11:05:17.999Z</time></trkpt><trkpt lat="39.09796028933004" lon="16.176674269629345"><ele>717.0</ele><time>2026-05-03T11:05:18.999Z</time></trkpt><trkpt lat="39.098057940022066" lon="16.17651637533371"><ele>718.4000000000001</ele><time>2026-05-03T11:05:20.999Z</time></trkpt><trkpt lat="39.09812182135234" lon="16.176442431045185"><ele>719.8000000000001</ele><time>2026-05-03T11:05:21.999Z</time></trkpt><trkpt lat="39.09823225498318" lon="16.17640497699814"><ele>721.2</ele><time>2026-05-03T11:05:23.999Z</time></trkpt><trkpt lat="39.09833383419958" lon="16.17642328578114"><ele>722.6</ele><time>2026-05-03T11:05:24.999Z</time></trkpt><trkpt lat="39.09841581141378" lon="16.176428800041833"><ele>724.0</ele><time>2026-05-03T11:05:25.999Z</time></trkpt><trkpt lat="39.09852166792531" lon="16.176376627358366"><ele>720.0</ele><time>2026-05-03T11:05:27.999Z</time></trkpt><trkpt lat="39.09860081261439" lon="16.176361856819508"><ele>716.0</ele><time>2026-05-03T11:05:28.999Z</time></trkpt><trkpt lat="39.09867182835722" lon="16.17635853943081"><ele>712.0</ele><time>2026-05-03T11:05:29.999Z</time></trkpt><trkpt lat="39.09874154144556" lon="16.176368343946894"><ele>708.0</ele><time>2026-05-03T11:05:30.999Z</time></trkpt><trkpt lat="39.09881609333166" lon="16.176398075632157"><ele>704.0</ele><time>2026-05-03T11:05:31.999Z</time></trkpt><trkpt lat="39.098888890137474" lon="16.176441721619284"><ele>700.0</ele><time>2026-05-03T11:05:32.999Z</time></trkpt><trkpt lat="39.09895751626277" lon="16.176478496262543"><ele>700.0</ele><time>2026-05-03T11:05:33.999Z</time></trkpt><trkpt lat="39.09905874381823" lon="16.176516191317884"><ele>700.0</ele><time>2026-05-03T11:05:35.999Z</time></trkpt><trkpt lat="39.099122555707346" lon="16.17650185759497"><ele>700.0</ele><time>2026-05-03T11:05:36.999Z</time></trkpt><trkpt lat="39.099189768829056" lon="16.176437357366474"><ele>700.0</ele><time>2026-05-03T11:05:37.999Z</time></trkpt><trkpt lat="39.099269342950016" lon="16.176366501885415"><ele>700.0</ele><time>2026-05-03T11:05:38.999Z</time></trkpt><trkpt lat="39.09934233940196" lon="16.176324473270746"><ele>700.0</ele><time>2026-05-03T11:05:39.999Z</time></trkpt><trkpt lat="39.09941904099325" lon="16.176310333938446"><ele>695.6666666666667</ele><time>2026-05-03T11:05:40.999Z</time></trkpt><trkpt lat="39.099509884145895" lon="16.176274853232336"><ele>691.3333333333334</ele><time>2026-05-03T11:05:41.999Z</time></trkpt><trkpt lat="39.09957456863413" lon="16.176272964184193"><ele>687.0</ele><time>2026-05-03T11:05:42.999Z</time></trkpt><trkpt lat="39.09965183912889" lon="16.176289248239726"><ele>682.6666666666666</ele><time>2026-05-03T11:05:43.999Z</time></trkpt><trkpt lat="39.09974986767109" lon="16.17632739065284"><ele>678.3333333333333</ele><time>2026-05-03T11:05:45.999Z</time></trkpt><trkpt lat="39.09978559046611" lon="16.17641121527791"><ele>674.0</ele><time>2026-05-03T11:05:46.999Z</time></trkpt><trkpt lat="39.09986099303661" lon="16.176532365467157"><ele>668.4000000000001</ele><time>2026-05-03T11:05:47.999Z</time></trkpt><trkpt lat="39.09989870728547" lon="16.17663357606765"><ele>662.8</ele><time>2026-05-03T11:05:48.999Z</time></trkpt><trkpt lat="39.09997919203765" lon="16.17677891148405"><ele>657.2</ele><time>2026-05-03T11:05:50.999Z</time></trkpt><trkpt lat="39.10002850028658" lon="16.176836524850387"><ele>651.5999999999999</ele><time>2026-05-03T11:05:51.999Z</time></trkpt><trkpt lat="39.10008512494604" lon="16.17690804815526"><ele>646.0</ele><time>2026-05-03T11:05:52.999Z</time></trkpt><trkpt lat="39.10013599171855" lon="16.17699581094418"><ele>642.6666666666667</ele><time>2026-05-03T11:05:53.999Z</time></trkpt><trkpt lat="39.100161774515705" lon="16.177080325832968"><ele>639.3333333333334</ele><time>2026-05-03T11:05:54.999Z</time></trkpt><trkpt lat="39.10015954620054" lon="16.177195597598192"><ele>636.0</ele><time>2026-05-03T11:05:55.999Z</time></trkpt><trkpt lat="39.10015474481856" lon="16.177314368444254"><ele>632.6666666666666</ele><time>2026-05-03T11:05:56.999Z</time></trkpt><trkpt lat="39.100162793255464" lon="16.177422097354295"><ele>629.3333333333333</ele><time>2026-05-03T11:05:57.999Z</time></trkpt><trkpt lat="39.10016828897493" lon="16.177522005759187"><ele>626.0</ele><time>2026-05-03T11:05:58.999Z</time></trkpt><trkpt lat="39.100179091466394" lon="16.177610097460907"><ele>623.3333333333333</ele><time>2026-05-03T11:05:59.999Z</time></trkpt><trkpt lat="39.10019976247966" lon="16.17768981096395"><ele>620.6666666666666</ele><time>2026-05-03T11:06:00.999Z</time></trkpt><trkpt lat="39.10023119001624" lon="16.17776454922237"><ele>618.0</ele><time>2026-05-03T11:06:01.999Z</time></trkpt><trkpt lat="39.10031614692411" lon="16.17787139752863"><ele>615.3333333333334</ele><time>2026-05-03T11:06:03.999Z</time></trkpt><trkpt lat="39.10037020096427" lon="16.177937570116434"><ele>612.6666666666667</ele><time>2026-05-03T11:06:04.999Z</time></trkpt><trkpt lat="39.100417571147105" lon="16.178017765919943"><ele>610.0</ele><time>2026-05-03T11:06:05.999Z</time></trkpt><trkpt lat="39.10047303117932" lon="16.17814590183857"><ele>608.1666666666667</ele><time>2026-05-03T11:06:07.999Z</time></trkpt><trkpt lat="39.10050456271495" lon="16.178278189955314"><ele>606.3333333333334</ele><time>2026-05-03T11:06:09.999Z</time></trkpt><trkpt lat="39.100553251837255" lon="16.17837891592855"><ele>604.5</ele><time>2026-05-03T11:06:11.999Z</time></trkpt><trkpt lat="39.100626625712486" lon="16.178446624403538"><ele>602.6666666666666</ele><time>2026-05-03T11:06:13.999Z</time></trkpt><trkpt lat="39.100705482586804" lon="16.178435249977476"><ele>600.8333333333333</ele><time>2026-05-03T11:06:15.999Z</time></trkpt><trkpt lat="39.10074565147712" lon="16.17836631972589"><ele>599.0</ele><time>2026-05-03T11:06:17.999Z</time></trkpt><trkpt lat="39.10074991833497" lon="16.178272119838113"><ele>601.0</ele><time>2026-05-03T11:06:18.999Z</time></trkpt><trkpt lat="39.1007664969072" lon="16.17817414836634"><ele>603.0</ele><time>2026-05-03T11:06:19.999Z</time></trkpt><trkpt lat="39.100797533055186" lon="16.178078747669563"><ele>605.0</ele><time>2026-05-03T11:06:20.999Z</time></trkpt><trkpt lat="39.100853045776965" lon="16.177985852957935"><ele>607.0</ele><time>2026-05-03T11:06:21.999Z</time></trkpt><trkpt lat="39.100899161448396" lon="16.177901003287058"><ele>609.0</ele><time>2026-05-03T11:06:22.999Z</time></trkpt><trkpt lat="39.10095293656102" lon="16.17783301703983"><ele>611.0</ele><time>2026-05-03T11:06:23.999Z</time></trkpt><trkpt lat="39.101011067615" lon="16.177776447196557"><ele>611.0</ele><time>2026-05-03T11:06:24.999Z</time></trkpt><trkpt lat="39.10107018213984" lon="16.177702079073438"><ele>611.0</ele><time>2026-05-03T11:06:25.999Z</time></trkpt><trkpt lat="39.10110133510725" lon="16.177627305983165"><ele>611.0</ele><time>2026-05-03T11:06:26.999Z</time></trkpt><trkpt lat="39.10113451020023" lon="16.17755648195505"><ele>611.0</ele><time>2026-05-03T11:06:28.999Z</time></trkpt><trkpt lat="39.10120172558157" lon="16.17758936816784"><ele>611.0</ele><time>2026-05-03T11:07:06.999Z</time></trkpt><trkpt lat="39.10117428581678" lon="16.177724624565165"><ele>611.0</ele><time>2026-05-03T11:07:08.999Z</time></trkpt><trkpt lat="39.1011367711409" lon="16.17782396958615"><ele>611.0</ele><time>2026-05-03T11:07:09.999Z</time></trkpt><trkpt lat="39.1011010643236" lon="16.17793695874997"><ele>611.0</ele><time>2026-05-03T11:07:10.999Z</time></trkpt><trkpt lat="39.101073159091314" lon="16.17804801015617"><ele>611.0</ele><time>2026-05-03T11:07:11.999Z</time></trkpt><trkpt lat="39.10105413836316" lon="16.178139504126875"><ele>611.0</ele><time>2026-05-03T11:07:12.999Z</time></trkpt><trkpt lat="39.10105822042059" lon="16.178224811986013"><ele>611.0</ele><time>2026-05-03T11:07:13.999Z</time></trkpt><trkpt lat="39.101085970273566" lon="16.1783115509598"><ele>611.0</ele><time>2026-05-03T11:07:14.999Z</time></trkpt><trkpt lat="39.10112820506341" lon="16.178397503271817"><ele>609.0</ele><time>2026-05-03T11:07:15.999Z</time></trkpt><trkpt lat="39.10116374877506" lon="16.17847622716176"><ele>607.0</ele><time>2026-05-03T11:07:16.999Z</time></trkpt><trkpt lat="39.1011997515185" lon="16.178554063524253"><ele>605.0</ele><time>2026-05-03T11:07:17.999Z</time></trkpt><trkpt lat="39.101236603753414" lon="16.17863841151691"><ele>603.0</ele><time>2026-05-03T11:07:18.999Z</time></trkpt><trkpt lat="39.101267846885605" lon="16.1787202041189"><ele>601.0</ele><time>2026-05-03T11:07:19.999Z</time></trkpt><trkpt lat="39.10129813217808" lon="16.178796313776726"><ele>599.0</ele><time>2026-05-03T11:07:20.999Z</time></trkpt><trkpt lat="39.10133818045544" lon="16.178923668925574"><ele>596.0</ele><time>2026-05-03T11:07:22.999Z</time></trkpt><trkpt lat="39.101348997444966" lon="16.179069316930597"><ele>593.0</ele><time>2026-05-03T11:07:24.999Z</time></trkpt><trkpt lat="39.10134607896137" lon="16.179194862102946"><ele>590.0</ele><time>2026-05-03T11:07:26.999Z</time></trkpt><trkpt lat="39.10132923449641" lon="16.17928399970754"><ele>587.0</ele><time>2026-05-03T11:07:28.999Z</time></trkpt><trkpt lat="39.10152912195503" lon="16.17923641925569"><ele>584.2</ele><time>2026-05-03T11:07:31.999Z</time></trkpt><trkpt lat="39.10161822469525" lon="16.17918293493702"><ele>581.4000000000001</ele><time>2026-05-03T11:07:32.999Z</time></trkpt><trkpt lat="39.1017206257813" lon="16.179156509904864"><ele>578.5999999999999</ele><time>2026-05-03T11:07:33.999Z</time></trkpt><trkpt lat="39.101811123245994" lon="16.1792252606657"><ele>575.8</ele><time>2026-05-03T11:07:34.999Z</time></trkpt><trkpt lat="39.101874674192686" lon="16.17930761029997"><ele>573.0</ele><time>2026-05-03T11:07:35.999Z</time></trkpt><trkpt lat="39.101907124078515" lon="16.179408137589125"><ele>573.0</ele><time>2026-05-03T11:07:36.999Z</time></trkpt><trkpt lat="39.10191777097317" lon="16.179534359273006"><ele>573.0</ele><time>2026-05-03T11:07:37.999Z</time></trkpt><trkpt lat="39.10192222044245" lon="16.179650132992126"><ele>573.0</ele><time>2026-05-03T11:07:38.999Z</time></trkpt><trkpt lat="39.10194222326928" lon="16.179768235547368"><ele>573.0</ele><time>2026-05-03T11:07:39.999Z</time></trkpt><trkpt lat="39.102007835521476" lon="16.17987594828604"><ele>573.0</ele><time>2026-05-03T11:07:40.999Z</time></trkpt><trkpt lat="39.10208370183698" lon="16.17995656929001"><ele>574.6</ele><time>2026-05-03T11:07:41.999Z</time></trkpt><trkpt lat="39.10216987373281" lon="16.180026339907613"><ele>576.1999999999999</ele><time>2026-05-03T11:07:42.999Z</time></trkpt><trkpt lat="39.10222020452518" lon="16.180132906925234"><ele>577.8</ele><time>2026-05-03T11:07:44Z</time></trkpt><trkpt lat="39.10224852654147" lon="16.18025792476713"><ele>579.4</ele><time>2026-05-03T11:07:45Z</time></trkpt><trkpt lat="39.102248434721545" lon="16.180397986581294"><ele>581.0</ele><time>2026-05-03T11:07:46Z</time></trkpt><trkpt lat="39.102234228538464" lon="16.18053307935142"><ele>584.25</ele><time>2026-05-03T11:07:47Z</time></trkpt><trkpt lat="39.10220137566891" lon="16.180690415734105"><ele>587.5</ele><time>2026-05-03T11:07:48Z</time></trkpt><trkpt lat="39.10222370493062" lon="16.18083039921292"><ele>590.75</ele><time>2026-05-03T11:07:49Z</time></trkpt><trkpt lat="39.10228649089779" lon="16.180946181386556"><ele>594.0</ele><time>2026-05-03T11:07:50Z</time></trkpt><trkpt lat="39.10234582918872" lon="16.181056541797286"><ele>594.0</ele><time>2026-05-03T11:07:51Z</time></trkpt><trkpt lat="39.1023915196616" lon="16.181166705331066"><ele>594.0</ele><time>2026-05-03T11:07:52Z</time></trkpt><trkpt lat="39.10241911464978" lon="16.181278248517312"><ele>594.0</ele><time>2026-05-03T11:07:53Z</time></trkpt><trkpt lat="39.10243703898366" lon="16.181388910503095"><ele>594.0</ele><time>2026-05-03T11:07:54Z</time></trkpt><trkpt lat="39.10244959561102" lon="16.1815010450636"><ele>594.0</ele><time>2026-05-03T11:07:55Z</time></trkpt><trkpt lat="39.10246348239533" lon="16.181621181409017"><ele>594.6</ele><time>2026-05-03T11:07:56Z</time></trkpt><trkpt lat="39.10248235552789" lon="16.181750478511006"><ele>595.2</ele><time>2026-05-03T11:07:56.999Z</time></trkpt><trkpt lat="39.102497154916676" lon="16.181890990652644"><ele>595.8000000000001</ele><time>2026-05-03T11:07:57.999Z</time></trkpt><trkpt lat="39.10254064814993" lon="16.182028604433864"><ele>596.4</ele><time>2026-05-03T11:07:58.999Z</time></trkpt><trkpt lat="39.1026109648475" lon="16.18214146210735"><ele>597.0</ele><time>2026-05-03T11:07:59.999Z</time></trkpt><trkpt lat="39.10268244745975" lon="16.182239113939126"><ele>597.0</ele><time>2026-05-03T11:08:00.999Z</time></trkpt><trkpt lat="39.10277472656636" lon="16.18229628196833"><ele>597.0</ele><time>2026-05-03T11:08:01.999Z</time></trkpt><trkpt lat="39.10288206946801" lon="16.182325773596826"><ele>597.0</ele><time>2026-05-03T11:08:02.999Z</time></trkpt><trkpt lat="39.102989498786734" lon="16.182328478563125"><ele>597.0</ele><time>2026-05-03T11:08:03.999Z</time></trkpt><trkpt lat="39.10309661181931" lon="16.18228650477033"><ele>597.0</ele><time>2026-05-03T11:08:04.999Z</time></trkpt><trkpt lat="39.103215198777136" lon="16.18222091291374"><ele>594.5</ele><time>2026-05-03T11:08:05.999Z</time></trkpt><trkpt lat="39.10334657472876" lon="16.18217513631721"><ele>592.0</ele><time>2026-05-03T11:08:06.999Z</time></trkpt><trkpt lat="39.10348688243144" lon="16.182121965714998"><ele>589.5</ele><time>2026-05-03T11:08:07.999Z</time></trkpt><trkpt lat="39.1036327574025" lon="16.18207795407279"><ele>587.0</ele><time>2026-05-03T11:08:08.999Z</time></trkpt><trkpt lat="39.10376885893329" lon="16.182034053086884"><ele>587.0</ele><time>2026-05-03T11:08:09.999Z</time></trkpt><trkpt lat="39.10388928594285" lon="16.181976768603565"><ele>587.0</ele><time>2026-05-03T11:08:10.999Z</time></trkpt><trkpt lat="39.10399964471645" lon="16.181889694401203"><ele>587.0</ele><time>2026-05-03T11:08:11.999Z</time></trkpt><trkpt lat="39.10409915407616" lon="16.181777324416935"><ele>587.0</ele><time>2026-05-03T11:08:12.999Z</time></trkpt><trkpt lat="39.10419296966392" lon="16.181654591219274"><ele>585.0</ele><time>2026-05-03T11:08:13.999Z</time></trkpt><trkpt lat="39.10429748690969" lon="16.181545198725296"><ele>583.0</ele><time>2026-05-03T11:08:14.999Z</time></trkpt><trkpt lat="39.10440600019617" lon="16.181450774325985"><ele>581.0</ele><time>2026-05-03T11:08:15.999Z</time></trkpt><trkpt lat="39.104509103687974" lon="16.181372725864687"><ele>579.0</ele><time>2026-05-03T11:08:16.999Z</time></trkpt><trkpt lat="39.10460330879012" lon="16.18129560452831"><ele>579.0</ele><time>2026-05-03T11:08:17.999Z</time></trkpt><trkpt lat="39.10468743938197" lon="16.18119851697556"><ele>579.0</ele><time>2026-05-03T11:08:18.999Z</time></trkpt><trkpt lat="39.1047701829656" lon="16.181095576494645"><ele>579.0</ele><time>2026-05-03T11:08:19.999Z</time></trkpt><trkpt lat="39.10485737845746" lon="16.1810201734602"><ele>579.0</ele><time>2026-05-03T11:08:20.999Z</time></trkpt><trkpt lat="39.104972487886606" lon="16.18101467433916"><ele>579.0</ele><time>2026-05-03T11:08:21.999Z</time></trkpt><trkpt lat="39.10507189083179" lon="16.1809833131976"><ele>578.2</ele><time>2026-05-03T11:08:22.999Z</time></trkpt><trkpt lat="39.105161179120564" lon="16.18091446274474"><ele>577.4</ele><time>2026-05-03T11:08:23.999Z</time></trkpt><trkpt lat="39.105220718095445" lon="16.180787798674956"><ele>576.6</ele><time>2026-05-03T11:08:24.999Z</time></trkpt><trkpt lat="39.10525081941958" lon="16.180639007975895"><ele>575.8</ele><time>2026-05-03T11:08:25.999Z</time></trkpt><trkpt lat="39.10524778201233" lon="16.180509895128903"><ele>575.0</ele><time>2026-05-03T11:08:26.999Z</time></trkpt><trkpt lat="39.10527306466939" lon="16.180420360000085"><ele>575.0</ele><time>2026-05-03T11:08:27.999Z</time></trkpt><trkpt lat="39.10536176432753" lon="16.180367354040342"><ele>575.0</ele><time>2026-05-03T11:08:29.999Z</time></trkpt><trkpt lat="39.10540680447989" lon="16.180453392335988"><ele>575.0</ele><time>2026-05-03T11:08:30.999Z</time></trkpt><trkpt lat="39.10548473586413" lon="16.180537759632998"><ele>575.0</ele><time>2026-05-03T11:08:31.999Z</time></trkpt><trkpt lat="39.10559951467231" lon="16.180640212560398"><ele>575.0</ele><time>2026-05-03T11:08:32.999Z</time></trkpt><trkpt lat="39.105686203344106" lon="16.180762730098017"><ele>579.0</ele><time>2026-05-03T11:08:33.999Z</time></trkpt><trkpt lat="39.10577534155113" lon="16.18087289350046"><ele>583.0</ele><time>2026-05-03T11:08:34.999Z</time></trkpt><trkpt lat="39.10585697185521" lon="16.180980644382252"><ele>587.0</ele><time>2026-05-03T11:08:35.999Z</time></trkpt><trkpt lat="39.10596124237819" lon="16.181048255228042"><ele>591.0</ele><time>2026-05-03T11:08:36.999Z</time></trkpt><trkpt lat="39.10605525115433" lon="16.181118949470875"><ele>591.0</ele><time>2026-05-03T11:08:37.999Z</time></trkpt><trkpt lat="39.10613436616149" lon="16.181202747537878"><ele>591.0</ele><time>2026-05-03T11:08:38.999Z</time></trkpt><trkpt lat="39.10617228034769" lon="16.181325354601476"><ele>591.0</ele><time>2026-05-03T11:08:39.999Z</time></trkpt><trkpt lat="39.10622933127873" lon="16.181448701835006"><ele>591.0</ele><time>2026-05-03T11:08:40.999Z</time></trkpt><trkpt lat="39.10629756733472" lon="16.1815659370448"><ele>591.0</ele><time>2026-05-03T11:08:41.999Z</time></trkpt><trkpt lat="39.10638141811265" lon="16.18165321137753"><ele>591.8333333333334</ele><time>2026-05-03T11:08:42.999Z</time></trkpt><trkpt lat="39.10644664548774" lon="16.18174826996732"><ele>592.6666666666666</ele><time>2026-05-03T11:08:43.999Z</time></trkpt><trkpt lat="39.106507612231496" lon="16.181838361562093"><ele>593.5</ele><time>2026-05-03T11:08:44.999Z</time></trkpt><trkpt lat="39.10656373067168" lon="16.181925931657414"><ele>594.3333333333333</ele><time>2026-05-03T11:08:45.999Z</time></trkpt><trkpt lat="39.10661445195352" lon="16.182012714182026"><ele>595.1666666666666</ele><time>2026-05-03T11:08:46.999Z</time></trkpt><trkpt lat="39.1066638283097" lon="16.182090596392335"><ele>596.0</ele><time>2026-05-03T11:08:47.999Z</time></trkpt><trkpt lat="39.106719651191185" lon="16.182152892225172"><ele>596.0</ele><time>2026-05-03T11:08:48.999Z</time></trkpt><trkpt lat="39.106783308472174" lon="16.182186556831176"><ele>596.0</ele><time>2026-05-03T11:08:49.999Z</time></trkpt><trkpt lat="39.10690274500119" lon="16.18213944498521"><ele>596.0</ele><time>2026-05-03T11:08:51.999Z</time></trkpt><trkpt lat="39.1069456152426" lon="16.18206174747487"><ele>596.0</ele><time>2026-05-03T11:08:52.999Z</time></trkpt><trkpt lat="39.106967680796046" lon="16.181958567045925"><ele>596.0</ele><time>2026-05-03T11:08:53.999Z</time></trkpt><trkpt lat="39.10697008212956" lon="16.18182212667564"><ele>596.0</ele><time>2026-05-03T11:08:54.999Z</time></trkpt><trkpt lat="39.10697108624482" lon="16.181674907402538"><ele>596.0</ele><time>2026-05-03T11:08:55.999Z</time></trkpt><trkpt lat="39.106985722004474" lon="16.18153215817637"><ele>596.0</ele><time>2026-05-03T11:08:56.999Z</time></trkpt><trkpt lat="39.10702575111" lon="16.181395712942418"><ele>596.0</ele><time>2026-05-03T11:08:57.999Z</time></trkpt><trkpt lat="39.10708096295426" lon="16.181274885515034"><ele>596.0</ele><time>2026-05-03T11:08:58.999Z</time></trkpt><trkpt lat="39.1071593040288" lon="16.181164931029983"><ele>595.75</ele><time>2026-05-03T11:08:59.999Z</time></trkpt><trkpt lat="39.10724273790679" lon="16.181057625685895"><ele>595.5</ele><time>2026-05-03T11:09:00.999Z</time></trkpt><trkpt lat="39.10733056618851" lon="16.180949748459774"><ele>595.25</ele><time>2026-05-03T11:09:01.999Z</time></trkpt><trkpt lat="39.10741760459914" lon="16.18083249257755"><ele>595.0</ele><time>2026-05-03T11:09:02.999Z</time></trkpt><trkpt lat="39.107501782757204" lon="16.18070837772313"><ele>592.5</ele><time>2026-05-03T11:09:03.999Z</time></trkpt><trkpt lat="39.10758820762965" lon="16.18058319241922"><ele>590.0</ele><time>2026-05-03T11:09:04.999Z</time></trkpt><trkpt lat="39.10769397693731" lon="16.18046644472044"><ele>587.5</ele><time>2026-05-03T11:09:05.999Z</time></trkpt><trkpt lat="39.107786310395525" lon="16.18033995129217"><ele>585.0</ele><time>2026-05-03T11:09:06.999Z</time></trkpt><trkpt lat="39.107861668255325" lon="16.18020945732034"><ele>585.0</ele><time>2026-05-03T11:09:07.999Z</time></trkpt><trkpt lat="39.107959950682044" lon="16.18010484573202"><ele>585.0</ele><time>2026-05-03T11:09:08.999Z</time></trkpt><trkpt lat="39.108061933755174" lon="16.180003631507848"><ele>585.0</ele><time>2026-05-03T11:09:09.999Z</time></trkpt><trkpt lat="39.10816825984541" lon="16.179901914430054"><ele>585.0</ele><time>2026-05-03T11:09:10.999Z</time></trkpt><trkpt lat="39.10827434252752" lon="16.179801598828575"><ele>587.0</ele><time>2026-05-03T11:09:11.999Z</time></trkpt><trkpt lat="39.10839584831674" lon="16.179717423836195"><ele>589.0</ele><time>2026-05-03T11:09:12.999Z</time></trkpt><trkpt lat="39.108504299508446" lon="16.179600506305775"><ele>591.0</ele><time>2026-05-03T11:09:13.999Z</time></trkpt><trkpt lat="39.10862222626525" lon="16.179496445577804"><ele>593.0</ele><time>2026-05-03T11:09:14.999Z</time></trkpt><trkpt lat="39.10874152727272" lon="16.179388508304125"><ele>593.0</ele><time>2026-05-03T11:09:15.999Z</time></trkpt><trkpt lat="39.10885908332181" lon="16.17927709282532"><ele>593.0</ele><time>2026-05-03T11:09:16.999Z</time></trkpt><trkpt lat="39.10898238664808" lon="16.179190085498252"><ele>593.0</ele><time>2026-05-03T11:09:17.999Z</time></trkpt><trkpt lat="39.109095200743134" lon="16.17908800884138"><ele>593.0</ele><time>2026-05-03T11:09:18.999Z</time></trkpt><trkpt lat="39.10920356255775" lon="16.178989960688153"><ele>594.0</ele><time>2026-05-03T11:09:19.999Z</time></trkpt><trkpt lat="39.10931126210479" lon="16.17889360816213"><ele>595.0</ele><time>2026-05-03T11:09:20.999Z</time></trkpt><trkpt lat="39.10940169659645" lon="16.178801496572838"><ele>596.0</ele><time>2026-05-03T11:09:21.999Z</time></trkpt><trkpt lat="39.10949958672532" lon="16.178758495475304"><ele>597.0</ele><time>2026-05-03T11:09:22.999Z</time></trkpt><trkpt lat="39.10960656305629" lon="16.178746335725343"><ele>597.0</ele><time>2026-05-03T11:09:23.999Z</time></trkpt><trkpt lat="39.10970715647482" lon="16.178778718106226"><ele>597.0</ele><time>2026-05-03T11:09:24.999Z</time></trkpt><trkpt lat="39.10978920209093" lon="16.17885302579812"><ele>597.0</ele><time>2026-05-03T11:09:25.999Z</time></trkpt><trkpt lat="39.10984304387769" lon="16.17895781291222"><ele>597.0</ele><time>2026-05-03T11:09:26.999Z</time></trkpt><trkpt lat="39.109865490666614" lon="16.17907974343555"><ele>597.0</ele><time>2026-05-03T11:09:27.999Z</time></trkpt><trkpt lat="39.10985726227232" lon="16.179199560938276"><ele>598.2</ele><time>2026-05-03T11:09:28.999Z</time></trkpt><trkpt lat="39.109818541561495" lon="16.179313311704725"><ele>599.4000000000001</ele><time>2026-05-03T11:09:29.999Z</time></trkpt><trkpt lat="39.10976067676219" lon="16.179417362863116"><ele>600.5999999999999</ele><time>2026-05-03T11:09:30.999Z</time></trkpt><trkpt lat="39.1096793590427" lon="16.179526176091425"><ele>601.8</ele><time>2026-05-03T11:09:31.999Z</time></trkpt><trkpt lat="39.109588733270975" lon="16.17964841436742"><ele>603.0</ele><time>2026-05-03T11:09:32.999Z</time></trkpt><trkpt lat="39.10949309197049" lon="16.179791855256443"><ele>608.0</ele><time>2026-05-03T11:09:33.999Z</time></trkpt><trkpt lat="39.10939771519049" lon="16.179943921026698"><ele>613.0</ele><time>2026-05-03T11:09:34.999Z</time></trkpt><trkpt lat="39.10930785671608" lon="16.180095847055114"><ele>618.0</ele><time>2026-05-03T11:09:35.999Z</time></trkpt><trkpt lat="39.10923269232908" lon="16.18026338105049"><ele>618.0</ele><time>2026-05-03T11:09:36.999Z</time></trkpt><trkpt lat="39.1091739151041" lon="16.18044330764033"><ele>618.0</ele><time>2026-05-03T11:09:37.999Z</time></trkpt><trkpt lat="39.10911193884946" lon="16.18062346470403"><ele>618.0</ele><time>2026-05-03T11:09:38.999Z</time></trkpt><trkpt lat="39.10901612971142" lon="16.180781275877763"><ele>616.0</ele><time>2026-05-03T11:09:39.999Z</time></trkpt><trkpt lat="39.10890734251783" lon="16.180927176402687"><ele>614.0</ele><time>2026-05-03T11:09:40.999Z</time></trkpt><trkpt lat="39.108801962919024" lon="16.181069796362678"><ele>612.0</ele><time>2026-05-03T11:09:41.999Z</time></trkpt><trkpt lat="39.10871923075408" lon="16.181226025342177"><ele>612.0</ele><time>2026-05-03T11:09:42.999Z</time></trkpt><trkpt lat="39.10865283004335" lon="16.181393145814972"><ele>612.0</ele><time>2026-05-03T11:09:43.999Z</time></trkpt><trkpt lat="39.10859351829952" lon="16.18155737190059"><ele>612.0</ele><time>2026-05-03T11:09:44.999Z</time></trkpt><trkpt lat="39.108523572174846" lon="16.181716893914228"><ele>612.0</ele><time>2026-05-03T11:09:45.999Z</time></trkpt><trkpt lat="39.108447761849355" lon="16.181867975170878"><ele>614.8000000000001</ele><time>2026-05-03T11:09:46.999Z</time></trkpt><trkpt lat="39.108388494844455" lon="16.18199337250624"><ele>617.6</ele><time>2026-05-03T11:09:47.999Z</time></trkpt><trkpt lat="39.1083612863022" lon="16.182083200071645"><ele>620.4000000000001</ele><time>2026-05-03T11:09:48.999Z</time></trkpt><trkpt lat="39.10840803824941" lon="16.18222019043602"><ele>623.2</ele><time>2026-05-03T11:09:51Z</time></trkpt><trkpt lat="39.108476899972594" lon="16.182248691975865"><ele>626.0</ele><time>2026-05-03T11:09:52Z</time></trkpt><trkpt lat="39.108605596217835" lon="16.18213736458489"><ele>626.0</ele><time>2026-05-03T11:09:54Z</time></trkpt><trkpt lat="39.108652115236985" lon="16.182017675598388"><ele>626.0</ele><time>2026-05-03T11:09:55Z</time></trkpt><trkpt lat="39.10869667667101" lon="16.181889250506657"><ele>626.0</ele><time>2026-05-03T11:09:56Z</time></trkpt><trkpt lat="39.10876646240293" lon="16.18176837489098"><ele>626.0</ele><time>2026-05-03T11:09:57Z</time></trkpt><trkpt lat="39.10889358967614" lon="16.181689972948426"><ele>626.0</ele><time>2026-05-03T11:09:58Z</time></trkpt><trkpt lat="39.1090296139966" lon="16.18154308056787"><ele>626.0</ele><time>2026-05-03T11:09:59Z</time></trkpt><trkpt lat="39.10919781665957" lon="16.181405559118986"><ele>626.0</ele><time>2026-05-03T11:10:00Z</time></trkpt><trkpt lat="39.10935106862325" lon="16.181284468905"><ele>627.0</ele><time>2026-05-03T11:10:01Z</time></trkpt><trkpt lat="39.109462104552165" lon="16.181183132697374"><ele>628.0</ele><time>2026-05-03T11:10:02Z</time></trkpt><trkpt lat="39.10956349796709" lon="16.18108855473023"><ele>629.0</ele><time>2026-05-03T11:10:03Z</time></trkpt><trkpt lat="39.109674908788996" lon="16.181001657264748"><ele>630.0</ele><time>2026-05-03T11:10:04Z</time></trkpt><trkpt lat="39.10978479098282" lon="16.18094372179397"><ele>630.0</ele><time>2026-05-03T11:10:05Z</time></trkpt><trkpt lat="39.109905494605556" lon="16.180939988108683"><ele>630.0</ele><time>2026-05-03T11:10:06Z</time></trkpt><trkpt lat="39.11001695527044" lon="16.18094401672767"><ele>630.0</ele><time>2026-05-03T11:10:07Z</time></trkpt><trkpt lat="39.11011395794887" lon="16.181030719081694"><ele>630.0</ele><time>2026-05-03T11:10:08Z</time></trkpt><trkpt lat="39.11018190305638" lon="16.18111042993933"><ele>630.0</ele><time>2026-05-03T11:10:09Z</time></trkpt><trkpt lat="39.11017476924316" lon="16.181251525689618"><ele>633.0</ele><time>2026-05-03T11:10:10Z</time></trkpt><trkpt lat="39.11018273307076" lon="16.181413676773566"><ele>636.0</ele><time>2026-05-03T11:10:11Z</time></trkpt><trkpt lat="39.1101959148375" lon="16.181617058456844"><ele>639.0</ele><time>2026-05-03T11:10:12Z</time></trkpt><trkpt lat="39.11021669697538" lon="16.18181763765221"><ele>642.0</ele><time>2026-05-03T11:10:13Z</time></trkpt><trkpt lat="39.110230891661466" lon="16.181980353323073"><ele>644.2</ele><time>2026-05-03T11:10:14Z</time></trkpt><trkpt lat="39.11023641105985" lon="16.18211801891399"><ele>646.4000000000001</ele><time>2026-05-03T11:10:15Z</time></trkpt><trkpt lat="39.11023455332139" lon="16.182235068427843"><ele>648.5999999999999</ele><time>2026-05-03T11:10:16Z</time></trkpt><trkpt lat="39.11019676990262" lon="16.18233494674114"><ele>650.8</ele><time>2026-05-03T11:10:17Z</time></trkpt><trkpt lat="39.11012903688405" lon="16.182395477583285"><ele>653.0</ele><time>2026-05-03T11:10:18Z</time></trkpt><trkpt lat="39.11003466571321" lon="16.182416987229995"><ele>654.0</ele><time>2026-05-03T11:10:19Z</time></trkpt><trkpt lat="39.10993004644679" lon="16.182375429613828"><ele>655.0</ele><time>2026-05-03T11:10:20Z</time></trkpt><trkpt lat="39.109819665666265" lon="16.18231767786201"><ele>656.0</ele><time>2026-05-03T11:10:21Z</time></trkpt><trkpt lat="39.10969312913066" lon="16.18226574992286"><ele>657.0</ele><time>2026-05-03T11:10:22Z</time></trkpt><trkpt lat="39.10957747269967" lon="16.182202710254504"><ele>654.6</ele><time>2026-05-03T11:10:23Z</time></trkpt><trkpt lat="39.109468441758935" lon="16.182173667394164"><ele>652.2</ele><time>2026-05-03T11:10:24Z</time></trkpt><trkpt lat="39.10936081655688" lon="16.18217751245975"><ele>649.8</ele><time>2026-05-03T11:10:25Z</time></trkpt><trkpt lat="39.10925196654048" lon="16.18221399580095"><ele>647.4</ele><time>2026-05-03T11:10:26Z</time></trkpt><trkpt lat="39.10915198336453" lon="16.18228680672786"><ele>645.0</ele><time>2026-05-03T11:10:27Z</time></trkpt><trkpt lat="39.109072742672495" lon="16.182403603134365"><ele>644.25</ele><time>2026-05-03T11:10:28Z</time></trkpt><trkpt lat="39.109001069610414" lon="16.182539400739838"><ele>643.5</ele><time>2026-05-03T11:10:29Z</time></trkpt><trkpt lat="39.108930868026974" lon="16.182688493117176"><ele>642.75</ele><time>2026-05-03T11:10:30Z</time></trkpt><trkpt lat="39.10885238159923" lon="16.182832549845998"><ele>642.0</ele><time>2026-05-03T11:10:31Z</time></trkpt><trkpt lat="39.10876567738922" lon="16.182975819054132"><ele>642.0</ele><time>2026-05-03T11:10:32Z</time></trkpt><trkpt lat="39.10867791336777" lon="16.18312195486375"><ele>642.0</ele><time>2026-05-03T11:10:33Z</time></trkpt><trkpt lat="39.10859016210866" lon="16.183271812504728"><ele>642.0</ele><time>2026-05-03T11:10:34Z</time></trkpt><trkpt lat="39.108502774703965" lon="16.18341607848117"><ele>642.0</ele><time>2026-05-03T11:10:35Z</time></trkpt><trkpt lat="39.10842326893777" lon="16.183538856727807"><ele>644.8333333333334</ele><time>2026-05-03T11:10:36Z</time></trkpt><trkpt lat="39.10835857443168" lon="16.18364433763555"><ele>647.6666666666666</ele><time>2026-05-03T11:10:36.999Z</time></trkpt><trkpt lat="39.10832849819242" lon="16.183738691825006"><ele>650.5</ele><time>2026-05-03T11:10:37.999Z</time></trkpt><trkpt lat="39.10833523293486" lon="16.18383346904066"><ele>653.3333333333333</ele><time>2026-05-03T11:10:38.999Z</time></trkpt><trkpt lat="39.10837009585354" lon="16.183927406080226"><ele>656.1666666666666</ele><time>2026-05-03T11:10:39.999Z</time></trkpt><trkpt lat="39.10842811307376" lon="16.18401158363678"><ele>659.0</ele><time>2026-05-03T11:10:40.999Z</time></trkpt><trkpt lat="39.10851264525315" lon="16.18404544645028"><ele>659.0</ele><time>2026-05-03T11:10:41.999Z</time></trkpt><trkpt lat="39.10860502740114" lon="16.184025821670506"><ele>659.0</ele><time>2026-05-03T11:10:42.999Z</time></trkpt><trkpt lat="39.108694163193206" lon="16.183961283187905"><ele>659.0</ele><time>2026-05-03T11:10:43.999Z</time></trkpt><trkpt lat="39.10876422328104" lon="16.183856253474175"><ele>659.0</ele><time>2026-05-03T11:10:44.999Z</time></trkpt><trkpt lat="39.108822114633774" lon="16.183710424530478"><ele>659.0</ele><time>2026-05-03T11:10:45.999Z</time></trkpt><trkpt lat="39.108886624123315" lon="16.183536308776596"><ele>659.0</ele><time>2026-05-03T11:10:46.999Z</time></trkpt><trkpt lat="39.108962629893604" lon="16.1834110895408"><ele>659.0</ele><time>2026-05-03T11:10:48Z</time></trkpt><trkpt lat="39.109033030533105" lon="16.183324989623273"><ele>659.0</ele><time>2026-05-03T11:10:49Z</time></trkpt><trkpt lat="39.10911192237074" lon="16.183278109541657"><ele>659.0</ele><time>2026-05-03T11:10:50Z</time></trkpt><trkpt lat="39.109208073467435" lon="16.183267467630316"><ele>659.0</ele><time>2026-05-03T11:10:51Z</time></trkpt><trkpt lat="39.10929772839454" lon="16.183291240170345"><ele>662.0</ele><time>2026-05-03T11:10:52Z</time></trkpt><trkpt lat="39.10936789567304" lon="16.18334343387478"><ele>665.0</ele><time>2026-05-03T11:10:53Z</time></trkpt><trkpt lat="39.109455991805994" lon="16.183463028553437"><ele>668.0</ele><time>2026-05-03T11:10:54Z</time></trkpt><trkpt lat="39.10953034399507" lon="16.18357122360074"><ele>671.0</ele><time>2026-05-03T11:10:55Z</time></trkpt><trkpt lat="39.1095816100992" lon="16.183655913954347"><ele>674.0</ele><time>2026-05-03T11:10:56Z</time></trkpt><trkpt lat="39.10962190204225" lon="16.183734079788373"><ele>674.0</ele><time>2026-05-03T11:10:57Z</time></trkpt><trkpt lat="39.109651565151125" lon="16.183814756111556"><ele>674.0</ele><time>2026-05-03T11:10:58Z</time></trkpt><trkpt lat="39.10969993688125" lon="16.183935346112108"><ele>674.0</ele><time>2026-05-03T11:11:00Z</time></trkpt><trkpt lat="39.10956916701099" lon="16.183969500944503"><ele>674.0</ele><time>2026-05-03T11:11:02Z</time></trkpt><trkpt lat="39.1094783342787" lon="16.183949939851605"><ele>674.0</ele><time>2026-05-03T11:11:03Z</time></trkpt><trkpt lat="39.10935581410775" lon="16.183937608753777"><ele>674.0</ele><time>2026-05-03T11:11:04Z</time></trkpt><trkpt lat="39.109249393505166" lon="16.183928319484977"><ele>674.0</ele><time>2026-05-03T11:11:05Z</time></trkpt><trkpt lat="39.109154226045604" lon="16.183972286375646"><ele>674.0</ele><time>2026-05-03T11:11:06Z</time></trkpt><trkpt lat="39.109080458888606" lon="16.184059869838148"><ele>674.0</ele><time>2026-05-03T11:11:07Z</time></trkpt><trkpt lat="39.10903010917026" lon="16.184174653147668"><ele>674.0</ele><time>2026-05-03T11:11:08Z</time></trkpt><trkpt lat="39.109010350389426" lon="16.18430256167959"><ele>673.8000000000001</ele><time>2026-05-03T11:11:09Z</time></trkpt><trkpt lat="39.10903198070315" lon="16.184425007800616"><ele>673.6</ele><time>2026-05-03T11:11:10Z</time></trkpt><trkpt lat="39.10908749629965" lon="16.18453523820754"><ele>673.4</ele><time>2026-05-03T11:11:11Z</time></trkpt><trkpt lat="39.10916801842836" lon="16.18462361176627"><ele>673.2</ele><time>2026-05-03T11:11:12Z</time></trkpt><trkpt lat="39.10926819916581" lon="16.184702780437945"><ele>673.0</ele><time>2026-05-03T11:11:13Z</time></trkpt><trkpt lat="39.10937066231002" lon="16.184792195395904"><ele>679.25</ele><time>2026-05-03T11:11:14Z</time></trkpt><trkpt lat="39.10947197257959" lon="16.184891927227433"><ele>685.5</ele><time>2026-05-03T11:11:15Z</time></trkpt><trkpt lat="39.10957570559451" lon="16.18500119320244"><ele>691.75</ele><time>2026-05-03T11:11:16Z</time></trkpt><trkpt lat="39.1096731611866" lon="16.18510471488293"><ele>698.0</ele><time>2026-05-03T11:11:17Z</time></trkpt><trkpt lat="39.109759159178964" lon="16.18519884773509"><ele>698.0</ele><time>2026-05-03T11:11:18Z</time></trkpt><trkpt lat="39.10983650781557" lon="16.18527429601347"><ele>698.0</ele><time>2026-05-03T11:11:19Z</time></trkpt><trkpt lat="39.10992441492421" lon="16.185323702039867"><ele>698.0</ele><time>2026-05-03T11:11:20Z</time></trkpt><trkpt lat="39.11002758194192" lon="16.185332964369838"><ele>698.0</ele><time>2026-05-03T11:11:21Z</time></trkpt><trkpt lat="39.11012943025753" lon="16.185295646251404"><ele>698.0</ele><time>2026-05-03T11:11:22Z</time></trkpt><trkpt lat="39.110227471874644" lon="16.185225594470815"><ele>697.25</ele><time>2026-05-03T11:11:23Z</time></trkpt><trkpt lat="39.110323817920474" lon="16.18513745578726"><ele>696.5</ele><time>2026-05-03T11:11:24Z</time></trkpt><trkpt lat="39.11042884554745" lon="16.18507067135501"><ele>695.75</ele><time>2026-05-03T11:11:25Z</time></trkpt><trkpt lat="39.110546552575734" lon="16.185037397747635"><ele>695.0</ele><time>2026-05-03T11:11:26Z</time></trkpt><trkpt lat="39.110678770708006" lon="16.18502899891929"><ele>696.0</ele><time>2026-05-03T11:11:27Z</time></trkpt><trkpt lat="39.11081643693825" lon="16.185047214056354"><ele>697.0</ele><time>2026-05-03T11:11:28Z</time></trkpt><trkpt lat="39.1109572602528" lon="16.18508308631827"><ele>698.0</ele><time>2026-05-03T11:11:29Z</time></trkpt><trkpt lat="39.11109657988451" lon="16.18513724958992"><ele>699.0</ele><time>2026-05-03T11:11:30Z</time></trkpt><trkpt lat="39.111231246028005" lon="16.185208969807306"><ele>699.0</ele><time>2026-05-03T11:11:31Z</time></trkpt><trkpt lat="39.111365026442364" lon="16.185275909328283"><ele>699.0</ele><time>2026-05-03T11:11:32Z</time></trkpt><trkpt lat="39.11149460214621" lon="16.18533125289367"><ele>699.0</ele><time>2026-05-03T11:11:33Z</time></trkpt><trkpt lat="39.111620753659075" lon="16.185382694427307"><ele>699.0</ele><time>2026-05-03T11:11:34Z</time></trkpt><trkpt lat="39.111748262732576" lon="16.185418321235886"><ele>699.2</ele><time>2026-05-03T11:11:35Z</time></trkpt><trkpt lat="39.11186616428462" lon="16.18542053242674"><ele>699.4000000000001</ele><time>2026-05-03T11:11:36Z</time></trkpt><trkpt lat="39.111964957933736" lon="16.18537862499792"><ele>699.6</ele><time>2026-05-03T11:11:37Z</time></trkpt><trkpt lat="39.1120506229072" lon="16.18531731025644"><ele>699.8</ele><time>2026-05-03T11:11:38Z</time></trkpt><trkpt lat="39.112128698606206" lon="16.18529281049513"><ele>700.0</ele><time>2026-05-03T11:11:39Z</time></trkpt><trkpt lat="39.11219700090889" lon="16.18531857731978"><ele>700.0</ele><time>2026-05-03T11:11:40Z</time></trkpt><trkpt lat="39.112262165140166" lon="16.18545031392425"><ele>700.0</ele><time>2026-05-03T11:11:42Z</time></trkpt><trkpt lat="39.11215353333855" lon="16.185559001075447"><ele>700.0</ele><time>2026-05-03T11:11:44Z</time></trkpt><trkpt lat="39.11205284048145" lon="16.18557764026077"><ele>700.0</ele><time>2026-05-03T11:11:45Z</time></trkpt><trkpt lat="39.11194739228222" lon="16.185585569640466"><ele>700.0</ele><time>2026-05-03T11:11:46Z</time></trkpt><trkpt lat="39.11183935025623" lon="16.185598541902532"><ele>700.0</ele><time>2026-05-03T11:11:47Z</time></trkpt><trkpt lat="39.111718731479705" lon="16.185618811245185"><ele>700.0</ele><time>2026-05-03T11:11:48Z</time></trkpt><trkpt lat="39.111599734905624" lon="16.185646075786327"><ele>700.0</ele><time>2026-05-03T11:11:49Z</time></trkpt><trkpt lat="39.11148582033787" lon="16.185666365197086"><ele>703.5</ele><time>2026-05-03T11:11:50Z</time></trkpt><trkpt lat="39.11137198077887" lon="16.185682175679148"><ele>707.0</ele><time>2026-05-03T11:11:51Z</time></trkpt><trkpt lat="39.11126002012054" lon="16.185702795863893"><ele>710.5</ele><time>2026-05-03T11:11:52Z</time></trkpt><trkpt lat="39.11114879404796" lon="16.18573017907463"><ele>714.0</ele><time>2026-05-03T11:11:53Z</time></trkpt><trkpt lat="39.11104401707577" lon="16.185773409219426"><ele>714.0</ele><time>2026-05-03T11:11:54Z</time></trkpt><trkpt lat="39.1109536621624" lon="16.185849131801255"><ele>714.0</ele><time>2026-05-03T11:11:55Z</time></trkpt><trkpt lat="39.11088688303119" lon="16.185960643547403"><ele>714.0</ele><time>2026-05-03T11:11:56.001Z</time></trkpt><trkpt lat="39.110827106344026" lon="16.186080786133534"><ele>714.0</ele><time>2026-05-03T11:11:57.001Z</time></trkpt><trkpt lat="39.11075258807173" lon="16.18618529767533"><ele>714.0</ele><time>2026-05-03T11:11:58.001Z</time></trkpt><trkpt lat="39.11064751981233" lon="16.186264811220312"><ele>713.75</ele><time>2026-05-03T11:11:59.001Z</time></trkpt><trkpt lat="39.11051339197485" lon="16.186308748903027"><ele>713.5</ele><time>2026-05-03T11:12:00.001Z</time></trkpt><trkpt lat="39.11038047675511" lon="16.186381987610506"><ele>713.25</ele><time>2026-05-03T11:12:01.001Z</time></trkpt><trkpt lat="39.110246270921245" lon="16.18643807744717"><ele>713.0</ele><time>2026-05-03T11:12:02.001Z</time></trkpt><trkpt lat="39.110114534464174" lon="16.186502951926624"><ele>716.5</ele><time>2026-05-03T11:12:03.001Z</time></trkpt><trkpt lat="39.10998619825418" lon="16.186569236704123"><ele>720.0</ele><time>2026-05-03T11:12:04.001Z</time></trkpt><trkpt lat="39.109860470758235" lon="16.18663372169368"><ele>723.5</ele><time>2026-05-03T11:12:05.001Z</time></trkpt><trkpt lat="39.10974044735233" lon="16.186711784186812"><ele>727.0</ele><time>2026-05-03T11:12:06.001Z</time></trkpt><trkpt lat="39.10962551779605" lon="16.18680310050378"><ele>727.0</ele><time>2026-05-03T11:12:07Z</time></trkpt><trkpt lat="39.10950903348563" lon="16.186902827473244"><ele>727.0</ele><time>2026-05-03T11:12:08Z</time></trkpt><trkpt lat="39.10940222569947" lon="16.186989759128696"><ele>727.0</ele><time>2026-05-03T11:12:09Z</time></trkpt><trkpt lat="39.10930377362491" lon="16.187054192581627"><ele>727.0</ele><time>2026-05-03T11:12:10Z</time></trkpt><trkpt lat="39.10919708405315" lon="16.18710824346993"><ele>727.0</ele><time>2026-05-03T11:12:11Z</time></trkpt><trkpt lat="39.1091006672723" lon="16.187145530165775"><ele>727.0</ele><time>2026-05-03T11:12:12Z</time></trkpt><trkpt lat="39.10902036041889" lon="16.187198393242156"><ele>727.0</ele><time>2026-05-03T11:12:13Z</time></trkpt><trkpt lat="39.10896360507115" lon="16.187277639045547"><ele>727.0</ele><time>2026-05-03T11:12:14Z</time></trkpt><trkpt lat="39.10894048955218" lon="16.187383204376005"><ele>727.0</ele><time>2026-05-03T11:12:15Z</time></trkpt><trkpt lat="39.10896464509772" lon="16.18749273401363"><ele>727.0</ele><time>2026-05-03T11:12:16Z</time></trkpt><trkpt lat="39.109027064369904" lon="16.187584051216657"><ele>730.75</ele><time>2026-05-03T11:12:17Z</time></trkpt><trkpt lat="39.10911246653454" lon="16.187632951548085"><ele>734.5</ele><time>2026-05-03T11:12:18Z</time></trkpt><trkpt lat="39.10921307586938" lon="16.18763409579928"><ele>738.25</ele><time>2026-05-03T11:12:19Z</time></trkpt><trkpt lat="39.109335205263086" lon="16.187591486401153"><ele>742.0</ele><time>2026-05-03T11:12:20Z</time></trkpt><trkpt lat="39.10946350466083" lon="16.18752472483769"><ele>742.0</ele><time>2026-05-03T11:12:21Z</time></trkpt><trkpt lat="39.10958238325214" lon="16.18744265244589"><ele>742.0</ele><time>2026-05-03T11:12:22Z</time></trkpt><trkpt lat="39.10968578806728" lon="16.18734797632798"><ele>742.0</ele><time>2026-05-03T11:12:23Z</time></trkpt><trkpt lat="39.10977031078186" lon="16.187265788574123"><ele>742.0</ele><time>2026-05-03T11:12:24Z</time></trkpt><trkpt lat="39.10985738304589" lon="16.18722770744752"><ele>741.75</ele><time>2026-05-03T11:12:25Z</time></trkpt><trkpt lat="39.10995573569905" lon="16.187232621747757"><ele>741.5</ele><time>2026-05-03T11:12:26Z</time></trkpt><trkpt lat="39.110079147487376" lon="16.187275745278942"><ele>741.25</ele><time>2026-05-03T11:12:27Z</time></trkpt><trkpt lat="39.110207767502715" lon="16.187334866313076"><ele>741.0</ele><time>2026-05-03T11:12:28Z</time></trkpt><trkpt lat="39.110341999152" lon="16.187390518332478"><ele>741.0</ele><time>2026-05-03T11:12:29Z</time></trkpt><trkpt lat="39.11047549211561" lon="16.187440381625326"><ele>741.0</ele><time>2026-05-03T11:12:30Z</time></trkpt><trkpt lat="39.1106000435742" lon="16.187465940927463"><ele>741.0</ele><time>2026-05-03T11:12:31Z</time></trkpt><trkpt lat="39.110710764120185" lon="16.187445809906347"><ele>741.0</ele><time>2026-05-03T11:12:32Z</time></trkpt><trkpt lat="39.11081047984211" lon="16.1873848122339"><ele>739.0</ele><time>2026-05-03T11:12:33Z</time></trkpt><trkpt lat="39.11090492627821" lon="16.187283836854903"><ele>737.0</ele><time>2026-05-03T11:12:34Z</time></trkpt><trkpt lat="39.110994769691835" lon="16.18715244809548"><ele>735.0</ele><time>2026-05-03T11:12:35Z</time></trkpt><trkpt lat="39.111094004308235" lon="16.18701283145313"><ele>733.0</ele><time>2026-05-03T11:12:36Z</time></trkpt><trkpt lat="39.111218953598836" lon="16.186889943031833"><ele>733.0</ele><time>2026-05-03T11:12:37Z</time></trkpt><trkpt lat="39.11136083745497" lon="16.18679286470478"><ele>733.0</ele><time>2026-05-03T11:12:38Z</time></trkpt><trkpt lat="39.1115105946837" lon="16.186724863800013"><ele>733.0</ele><time>2026-05-03T11:12:39Z</time></trkpt><trkpt lat="39.11166902641966" lon="16.186673115065844"><ele>739.0</ele><time>2026-05-03T11:12:40Z</time></trkpt><trkpt lat="39.11183285986192" lon="16.186625271642235"><ele>745.0</ele><time>2026-05-03T11:12:41Z</time></trkpt><trkpt lat="39.11200014116865" lon="16.186579033256834"><ele>751.0</ele><time>2026-05-03T11:12:42Z</time></trkpt><trkpt lat="39.112169916666026" lon="16.1865393122146"><ele>746.5</ele><time>2026-05-03T11:12:43Z</time></trkpt><trkpt lat="39.11232638339977" lon="16.18650621943702"><ele>742.0</ele><time>2026-05-03T11:12:44Z</time></trkpt><trkpt lat="39.11244985470552" lon="16.186472071583253"><ele>737.5</ele><time>2026-05-03T11:12:45Z</time></trkpt><trkpt lat="39.11255676979431" lon="16.186433880017812"><ele>733.0</ele><time>2026-05-03T11:12:46Z</time></trkpt><trkpt lat="39.112651743274185" lon="16.186405548932353"><ele>733.0</ele><time>2026-05-03T11:12:47Z</time></trkpt><trkpt lat="39.11272919330585" lon="16.186391505984403"><ele>733.0</ele><time>2026-05-03T11:12:48Z</time></trkpt><trkpt lat="39.11279538549584" lon="16.18639957256106"><ele>733.0</ele><time>2026-05-03T11:12:49Z</time></trkpt><trkpt lat="39.112842703004894" lon="16.186522222525696"><ele>733.0</ele><time>2026-05-03T11:12:51Z</time></trkpt><trkpt lat="39.11274187228244" lon="16.186599619720326"><ele>733.0</ele><time>2026-05-03T11:12:53Z</time></trkpt><trkpt lat="39.11265828122176" lon="16.18661090583874"><ele>737.5</ele><time>2026-05-03T11:12:54Z</time></trkpt><trkpt lat="39.11255443914908" lon="16.186643819631467"><ele>742.0</ele><time>2026-05-03T11:12:55Z</time></trkpt><trkpt lat="39.112442282973745" lon="16.186662406994312"><ele>746.5</ele><time>2026-05-03T11:12:56Z</time></trkpt><trkpt lat="39.11232601364237" lon="16.186696947157895"><ele>751.0</ele><time>2026-05-03T11:12:57Z</time></trkpt><trkpt lat="39.1122028902472" lon="16.186745628334666"><ele>751.0</ele><time>2026-05-03T11:12:58Z</time></trkpt><trkpt lat="39.11207895737124" lon="16.186805301435975"><ele>751.0</ele><time>2026-05-03T11:12:59Z</time></trkpt><trkpt lat="39.11196259076987" lon="16.18688785459659"><ele>751.0</ele><time>2026-05-03T11:13:00Z</time></trkpt><trkpt lat="39.111860735502205" lon="16.186998791082836"><ele>751.0</ele><time>2026-05-03T11:13:01Z</time></trkpt><trkpt lat="39.11178264470452" lon="16.18713117666015"><ele>751.0</ele><time>2026-05-03T11:13:02Z</time></trkpt><trkpt lat="39.111742350527784" lon="16.18726602044999"><ele>751.0</ele><time>2026-05-03T11:13:03Z</time></trkpt><trkpt lat="39.11173816671077" lon="16.18740142561547"><ele>751.0</ele><time>2026-05-03T11:13:04Z</time></trkpt><trkpt lat="39.11176585289236" lon="16.187539715517246"><ele>751.0</ele><time>2026-05-03T11:13:05Z</time></trkpt><trkpt lat="39.1118129546153" lon="16.187671603172046"><ele>751.0</ele><time>2026-05-03T11:13:06Z</time></trkpt><trkpt lat="39.1118700380717" lon="16.187808007339143"><ele>754.25</ele><time>2026-05-03T11:13:07Z</time></trkpt><trkpt lat="39.11190614359015" lon="16.187950041974"><ele>757.5</ele><time>2026-05-03T11:13:08Z</time></trkpt><trkpt lat="39.11190979971691" lon="16.188096328503907"><ele>760.75</ele><time>2026-05-03T11:13:09Z</time></trkpt><trkpt lat="39.11188415730937" lon="16.188239527912366"><ele>764.0</ele><time>2026-05-03T11:13:10Z</time></trkpt><trkpt lat="39.111806850546046" lon="16.18835295017796"><ele>763.25</ele><time>2026-05-03T11:13:11Z</time></trkpt><trkpt lat="39.11172018050676" lon="16.18844056556367"><ele>762.5</ele><time>2026-05-03T11:13:12Z</time></trkpt><trkpt lat="39.111616174658394" lon="16.188520691300084"><ele>761.75</ele><time>2026-05-03T11:13:13Z</time></trkpt><trkpt lat="39.11151361056499" lon="16.188612415730997"><ele>761.0</ele><time>2026-05-03T11:13:14Z</time></trkpt><trkpt lat="39.11140219002695" lon="16.18870221510332"><ele>761.0</ele><time>2026-05-03T11:13:15Z</time></trkpt><trkpt lat="39.11129311387128" lon="16.18881269078465"><ele>761.0</ele><time>2026-05-03T11:13:16Z</time></trkpt><trkpt lat="39.11118847566959" lon="16.18892896723538"><ele>761.0</ele><time>2026-05-03T11:13:17Z</time></trkpt><trkpt lat="39.11108296847771" lon="16.18903524477337"><ele>761.0</ele><time>2026-05-03T11:13:18Z</time></trkpt><trkpt lat="39.11097724673212" lon="16.18913245869228"><ele>765.5</ele><time>2026-05-03T11:13:19Z</time></trkpt><trkpt lat="39.11086788592505" lon="16.189217040315018"><ele>770.0</ele><time>2026-05-03T11:13:20Z</time></trkpt><trkpt lat="39.11075754007388" lon="16.189282661953687"><ele>774.5</ele><time>2026-05-03T11:13:21Z</time></trkpt><trkpt lat="39.11064748110808" lon="16.189328192939456"><ele>779.0</ele><time>2026-05-03T11:13:22Z</time></trkpt><trkpt lat="39.110539963854706" lon="16.189361812500472"><ele>780.2</ele><time>2026-05-03T11:13:23Z</time></trkpt><trkpt lat="39.1104318399099" lon="16.189379873860105"><ele>781.4000000000001</ele><time>2026-05-03T11:13:24Z</time></trkpt><trkpt lat="39.11032468408513" lon="16.18938539723298"><ele>782.6</ele><time>2026-05-03T11:13:25Z</time></trkpt><trkpt lat="39.110221062517844" lon="16.189393035018654"><ele>783.8</ele><time>2026-05-03T11:13:26Z</time></trkpt><trkpt lat="39.11012197900587" lon="16.18940142504328"><ele>785.0</ele><time>2026-05-03T11:13:27Z</time></trkpt><trkpt lat="39.11002879343204" lon="16.189404135726434"><ele>785.0</ele><time>2026-05-03T11:13:28Z</time></trkpt><trkpt lat="39.10993029986991" lon="16.18938587825129"><ele>785.0</ele><time>2026-05-03T11:13:29Z</time></trkpt><trkpt lat="39.109840612433416" lon="16.189348397331067"><ele>785.0</ele><time>2026-05-03T11:13:30Z</time></trkpt><trkpt lat="39.10975196368069" lon="16.189303515768078"><ele>785.0</ele><time>2026-05-03T11:13:31Z</time></trkpt><trkpt lat="39.10965531569953" lon="16.18926357585535"><ele>785.0</ele><time>2026-05-03T11:13:32Z</time></trkpt><trkpt lat="39.109569807389924" lon="16.189225315586892"><ele>785.8333333333334</ele><time>2026-05-03T11:13:33Z</time></trkpt><trkpt lat="39.10948545682642" lon="16.189172401656766"><ele>786.6666666666667</ele><time>2026-05-03T11:13:34Z</time></trkpt><trkpt lat="39.10941986705833" lon="16.189140065536634"><ele>787.5</ele><time>2026-05-03T11:13:35Z</time></trkpt><trkpt lat="39.109354976364685" lon="16.189136841551235"><ele>788.3333333333333</ele><time>2026-05-03T11:13:36Z</time></trkpt><trkpt lat="39.109296506223316" lon="16.18916768313919"><ele>789.1666666666666</ele><time>2026-05-03T11:13:37Z</time></trkpt><trkpt lat="39.1092550630254" lon="16.189341501017044"><ele>790.0</ele><time>2026-05-03T11:13:39Z</time></trkpt><trkpt lat="39.109278423833295" lon="16.1894290854094"><ele>790.0</ele><time>2026-05-03T11:13:40Z</time></trkpt><trkpt lat="39.10938687446587" lon="16.18946978563879"><ele>790.0</ele><time>2026-05-03T11:13:41Z</time></trkpt><trkpt lat="39.10950917045952" lon="16.189471445400436"><ele>790.0</ele><time>2026-05-03T11:13:42Z</time></trkpt><trkpt lat="39.10961413463653" lon="16.18948948443825"><ele>790.0</ele><time>2026-05-03T11:13:43Z</time></trkpt><trkpt lat="39.10972443695331" lon="16.18952844938625"><ele>790.0</ele><time>2026-05-03T11:13:44Z</time></trkpt><trkpt lat="39.10982826864468" lon="16.189570712790243"><ele>790.0</ele><time>2026-05-03T11:13:45Z</time></trkpt><trkpt lat="39.10993242080695" lon="16.18961514140379"><ele>790.0</ele><time>2026-05-03T11:13:46Z</time></trkpt><trkpt lat="39.11003573291615" lon="16.18965799928241"><ele>790.0</ele><time>2026-05-03T11:13:47Z</time></trkpt><trkpt lat="39.11014298465811" lon="16.18970036809316"><ele>790.0</ele><time>2026-05-03T11:13:48Z</time></trkpt><trkpt lat="39.110244942453996" lon="16.189762950469664"><ele>788.75</ele><time>2026-05-03T11:13:49Z</time></trkpt><trkpt lat="39.11035079184752" lon="16.189804779769204"><ele>787.5</ele><time>2026-05-03T11:13:50Z</time></trkpt><trkpt lat="39.1104571831596" lon="16.189846823217053"><ele>786.25</ele><time>2026-05-03T11:13:51Z</time></trkpt><trkpt lat="39.11056784859159" lon="16.18989121918519"><ele>785.0</ele><time>2026-05-03T11:13:52Z</time></trkpt><trkpt lat="39.110677892425095" lon="16.189924588248722"><ele>788.2</ele><time>2026-05-03T11:13:53Z</time></trkpt><trkpt lat="39.110780001561004" lon="16.1899853680707"><ele>791.4</ele><time>2026-05-03T11:13:54Z</time></trkpt><trkpt lat="39.11087599864285" lon="16.190050710524837"><ele>794.5999999999999</ele><time>2026-05-03T11:13:55Z</time></trkpt><trkpt lat="39.11096580984278" lon="16.19012602064759"><ele>797.8</ele><time>2026-05-03T11:13:56Z</time></trkpt><trkpt lat="39.11103767849223" lon="16.190209864520817"><ele>801.0</ele><time>2026-05-03T11:13:57Z</time></trkpt><trkpt lat="39.111088919283596" lon="16.190283991990096"><ele>801.0</ele><time>2026-05-03T11:13:58Z</time></trkpt><trkpt lat="39.111116151008005" lon="16.190379278887175"><ele>801.0</ele><time>2026-05-03T11:13:59Z</time></trkpt><trkpt lat="39.11115191415574" lon="16.19047108320704"><ele>801.0</ele><time>2026-05-03T11:14:00Z</time></trkpt><trkpt lat="39.11117197868174" lon="16.190551974219698"><ele>801.0</ele><time>2026-05-03T11:14:01Z</time></trkpt><trkpt lat="39.11129009284262" lon="16.190553486766962"><ele>801.0</ele><time>2026-05-03T11:14:02.001Z</time></trkpt><trkpt lat="39.11139115210092" lon="16.190633706923457"><ele>801.0</ele><time>2026-05-03T11:14:04.001Z</time></trkpt><trkpt lat="39.111462176364704" lon="16.190648368705798"><ele>801.0</ele><time>2026-05-03T11:14:06.001Z</time></trkpt><trkpt lat="39.11153353148833" lon="16.190652908750476"><ele>801.0</ele><time>2026-05-03T11:14:10.001Z</time></trkpt><trkpt lat="39.11157623032372" lon="16.190590194352378"><ele>801.0</ele><time>2026-05-03T11:14:30Z</time></trkpt><trkpt lat="39.111667380669125" lon="16.19052227980284"><ele>801.0</ele><time>2026-05-03T11:14:32Z</time></trkpt><trkpt lat="39.11172417082618" lon="16.190486379049183"><ele>801.0</ele><time>2026-05-03T11:14:33Z</time></trkpt><trkpt lat="39.11178121334719" lon="16.190445367802912"><ele>801.0</ele><time>2026-05-03T11:14:34Z</time></trkpt><trkpt lat="39.11184743783498" lon="16.190395734835604"><ele>801.8</ele><time>2026-05-03T11:14:35Z</time></trkpt><trkpt lat="39.11191818899889" lon="16.190347161950402"><ele>802.5999999999999</ele><time>2026-05-03T11:14:36Z</time></trkpt><trkpt lat="39.11199491873818" lon="16.1902924917149"><ele>803.4</ele><time>2026-05-03T11:14:37Z</time></trkpt><trkpt lat="39.112078828719945" lon="16.190224008093693"><ele>804.2</ele><time>2026-05-03T11:14:38Z</time></trkpt><trkpt lat="39.11216107894661" lon="16.190144345823974"><ele>805.0</ele><time>2026-05-03T11:14:39Z</time></trkpt><trkpt lat="39.112223286154794" lon="16.19006799216912"><ele>804.9999999999999</ele><time>2026-05-03T11:14:40Z</time></trkpt><trkpt lat="39.11226522592569" lon="16.18998477122865"><ele>805.0</ele><time>2026-05-03T11:14:41Z</time></trkpt><trkpt lat="39.11228850212126" lon="16.18989193152634"><ele>805.0</ele><time>2026-05-03T11:14:42Z</time></trkpt><trkpt lat="39.112331240515616" lon="16.189794986689108"><ele>805.0</ele><time>2026-05-03T11:14:43Z</time></trkpt><trkpt lat="39.11236612199557" lon="16.189699127459452"><ele>804.9999999999999</ele><time>2026-05-03T11:14:44Z</time></trkpt><trkpt lat="39.11242294751644" lon="16.189617474607182"><ele>805.0</ele><time>2026-05-03T11:14:45Z</time></trkpt><trkpt lat="39.11248654863255" lon="16.189543639292072"><ele>805.9999999999999</ele><time>2026-05-03T11:14:46Z</time></trkpt><trkpt lat="39.112547072609274" lon="16.189473554088494"><ele>807.0</ele><time>2026-05-03T11:14:47Z</time></trkpt><trkpt lat="39.112603944343114" lon="16.18942428551567"><ele>808.0</ele><time>2026-05-03T11:14:48Z</time></trkpt><trkpt lat="39.11266883561409" lon="16.18937641958624"><ele>809.0</ele><time>2026-05-03T11:14:50Z</time></trkpt><trkpt lat="39.11271143518573" lon="16.189550508370967"><ele>809.9999999999999</ele><time>2026-05-03T11:14:54Z</time></trkpt><trkpt lat="39.11267270476896" lon="16.189628439670205"><ele>811.0</ele><time>2026-05-03T11:14:55Z</time></trkpt><trkpt lat="39.11261372485038" lon="16.18971654971029"><ele>810.9999999999999</ele><time>2026-05-03T11:14:56Z</time></trkpt><trkpt lat="39.112589414760386" lon="16.189834577931563"><ele>811.0</ele><time>2026-05-03T11:14:57Z</time></trkpt><trkpt lat="39.11257319404891" lon="16.18994165079988"><ele>811.0</ele><time>2026-05-03T11:14:58Z</time></trkpt><trkpt lat="39.11257212489506" lon="16.190054537277494"><ele>811.0</ele><time>2026-05-03T11:14:59Z</time></trkpt><trkpt lat="39.112568079156254" lon="16.19016303468835"><ele>810.9999999999999</ele><time>2026-05-03T11:15:00Z</time></trkpt><trkpt lat="39.11255078602252" lon="16.190275103326396"><ele>811.0</ele><time>2026-05-03T11:15:01Z</time></trkpt><trkpt lat="39.11251551615191" lon="16.190380270162763"><ele>811.8333333333333</ele><time>2026-05-03T11:15:02Z</time></trkpt><trkpt lat="39.1124623455183" lon="16.190474812231106"><ele>812.6666666666666</ele><time>2026-05-03T11:15:03Z</time></trkpt><trkpt lat="39.112418435166454" lon="16.19057961398071"><ele>813.5</ele><time>2026-05-03T11:15:04Z</time></trkpt><trkpt lat="39.112372780460454" lon="16.190678199460034"><ele>814.3333333333333</ele><time>2026-05-03T11:15:05Z</time></trkpt><trkpt lat="39.11233561967032" lon="16.190772241724215"><ele>815.1666666666666</ele><time>2026-05-03T11:15:06Z</time></trkpt><trkpt lat="39.112321549159894" lon="16.190867666447016"><ele>816.0</ele><time>2026-05-03T11:15:07Z</time></trkpt><trkpt lat="39.112359150996305" lon="16.19096805180928"><ele>819.4</ele><time>2026-05-03T11:15:09Z</time></trkpt><trkpt lat="39.11246586160912" lon="16.190950368884856"><ele>822.8</ele><time>2026-05-03T11:15:11Z</time></trkpt><trkpt lat="39.11254640198442" lon="16.190831362275837"><ele>826.1999999999999</ele><time>2026-05-03T11:15:13Z</time></trkpt><trkpt lat="39.112608515340554" lon="16.19075885226119"><ele>829.5999999999999</ele><time>2026-05-03T11:15:14Z</time></trkpt><trkpt lat="39.11266663804977" lon="16.19067696510936"><ele>833.0</ele><time>2026-05-03T11:15:15Z</time></trkpt><trkpt lat="39.112723566569585" lon="16.19059676044888"><ele>833.0000000000001</ele><time>2026-05-03T11:15:16Z</time></trkpt><trkpt lat="39.112787100044656" lon="16.190511889612857"><ele>833.0</ele><time>2026-05-03T11:15:17Z</time></trkpt><trkpt lat="39.11284423686092" lon="16.19041528207296"><ele>833.0</ele><time>2026-05-03T11:15:18Z</time></trkpt><trkpt lat="39.112893822141174" lon="16.19035077704676"><ele>833.0</ele><time>2026-05-03T11:15:19Z</time></trkpt><trkpt lat="39.11294208352949" lon="16.19029096597319"><ele>833.0000000000001</ele><time>2026-05-03T11:15:20Z</time></trkpt><trkpt lat="39.113003851143525" lon="16.19023168696018"><ele>833.0</ele><time>2026-05-03T11:15:21Z</time></trkpt><trkpt lat="39.11306042461411" lon="16.19015910866411"><ele>833.0000000000001</ele><time>2026-05-03T11:15:22Z</time></trkpt><trkpt lat="39.11311328354035" lon="16.19009146913703"><ele>833.0</ele><time>2026-05-03T11:15:23Z</time></trkpt><trkpt lat="39.11316007215237" lon="16.19000928810072"><ele>833.0</ele><time>2026-05-03T11:15:24Z</time></trkpt><trkpt lat="39.113210940589546" lon="16.189933837046205"><ele>833.0</ele><time>2026-05-03T11:15:25Z</time></trkpt><trkpt lat="39.11327765459042" lon="16.18986995412005"><ele>833.0000000000001</ele><time>2026-05-03T11:15:26Z</time></trkpt><trkpt lat="39.11333658594824" lon="16.18980085408116"><ele>833.0</ele><time>2026-05-03T11:15:27Z</time></trkpt><trkpt lat="39.11339723678138" lon="16.18971025882982"><ele>835.1666666666667</ele><time>2026-05-03T11:15:28Z</time></trkpt><trkpt lat="39.113470649354696" lon="16.18963768809222"><ele>837.3333333333334</ele><time>2026-05-03T11:15:29Z</time></trkpt><trkpt lat="39.11353650543983" lon="16.189571650287004"><ele>839.5</ele><time>2026-05-03T11:15:30Z</time></trkpt><trkpt lat="39.113611900960976" lon="16.189515796892604"><ele>841.6666666666667</ele><time>2026-05-03T11:15:31Z</time></trkpt><trkpt lat="39.11366459338483" lon="16.189467945868287"><ele>843.8333333333334</ele><time>2026-05-03T11:15:32Z</time></trkpt><trkpt lat="39.11374904696125" lon="16.189443778448528"><ele>846.0</ele><time>2026-05-03T11:15:34Z</time></trkpt><trkpt lat="39.11375443351961" lon="16.189593863689637"><ele>846.0</ele><time>2026-05-03T11:15:36Z</time></trkpt><trkpt lat="39.11368228032881" lon="16.189595520587194"><ele>846.0</ele><time>2026-05-03T11:15:37Z</time></trkpt><trkpt lat="39.113625175569275" lon="16.189646712513397"><ele>846.0</ele><time>2026-05-03T11:15:38Z</time></trkpt><trkpt lat="39.113565694904736" lon="16.189707328711435"><ele>846.0</ele><time>2026-05-03T11:15:39Z</time></trkpt><trkpt lat="39.11350057875589" lon="16.189785141089832"><ele>846.0</ele><time>2026-05-03T11:15:40Z</time></trkpt><trkpt lat="39.113461489938544" lon="16.189892596216115"><ele>846.0</ele><time>2026-05-03T11:15:41Z</time></trkpt><trkpt lat="39.1134400709288" lon="16.189982857832007"><ele>849.1666666666666</ele><time>2026-05-03T11:15:42Z</time></trkpt><trkpt lat="39.11342843933755" lon="16.190096688647404"><ele>852.3333333333333</ele><time>2026-05-03T11:15:43Z</time></trkpt><trkpt lat="39.113427245335615" lon="16.190215814005658"><ele>855.5</ele><time>2026-05-03T11:15:44Z</time></trkpt><trkpt lat="39.11343003114602" lon="16.190328894159904"><ele>858.6666666666666</ele><time>2026-05-03T11:15:45Z</time></trkpt><trkpt lat="39.113423961227106" lon="16.190444845292014"><ele>861.8333333333333</ele><time>2026-05-03T11:15:46Z</time></trkpt><trkpt lat="39.11340065441632" lon="16.190555249479054"><ele>865.0</ele><time>2026-05-03T11:15:47Z</time></trkpt><trkpt lat="39.11338476039269" lon="16.190657560349685"><ele>867.8</ele><time>2026-05-03T11:15:48Z</time></trkpt><trkpt lat="39.11336159414863" lon="16.19076686737855"><ele>870.6</ele><time>2026-05-03T11:15:49Z</time></trkpt><trkpt lat="39.113306162692005" lon="16.190853217819548"><ele>873.4000000000001</ele><time>2026-05-03T11:15:50Z</time></trkpt><trkpt lat="39.11323507679" lon="16.190919039958295"><ele>876.2</ele><time>2026-05-03T11:15:51Z</time></trkpt><trkpt lat="39.113160627337464" lon="16.19101167031569"><ele>879.0</ele><time>2026-05-03T11:15:52Z</time></trkpt><trkpt lat="39.113097856821824" lon="16.191113214382415"><ele>879.0</ele><time>2026-05-03T11:15:53Z</time></trkpt><trkpt lat="39.11306084496094" lon="16.191197643746946"><ele>879.0</ele><time>2026-05-03T11:15:54Z</time></trkpt><trkpt lat="39.1131166730379" lon="16.191354156622328"><ele>879.0</ele><time>2026-05-03T11:15:56Z</time></trkpt><trkpt lat="39.11317663308346" lon="16.191392788285416"><ele>879.0</ele><time>2026-05-03T11:15:57Z</time></trkpt><trkpt lat="39.113253004173544" lon="16.191370604668762"><ele>879.0</ele><time>2026-05-03T11:15:59Z</time></trkpt><trkpt lat="39.11331679958449" lon="16.19130590772116"><ele>879.0</ele><time>2026-05-03T11:16:01Z</time></trkpt><trkpt lat="39.113394570380414" lon="16.19124964893126"><ele>879.0</ele><time>2026-05-03T11:16:03Z</time></trkpt><trkpt lat="39.11345815050958" lon="16.191034472540483"><ele>879.0</ele><time>2026-05-03T11:16:21Z</time></trkpt><trkpt lat="39.11354051263253" lon="16.190956855101355"><ele>879.0</ele><time>2026-05-03T11:16:23Z</time></trkpt><trkpt lat="39.11363101422952" lon="16.19083947180037"><ele>879.0</ele><time>2026-05-03T11:16:25Z</time></trkpt><trkpt lat="39.11367397448754" lon="16.190760461446985"><ele>879.0</ele><time>2026-05-03T11:16:26Z</time></trkpt><trkpt lat="39.11371980900718" lon="16.19067781733929"><ele>879.0</ele><time>2026-05-03T11:16:27Z</time></trkpt><trkpt lat="39.11377027780262" lon="16.190593663627045"><ele>879.0</ele><time>2026-05-03T11:16:28Z</time></trkpt><trkpt lat="39.11382251167761" lon="16.190508111737373"><ele>879.0</ele><time>2026-05-03T11:16:29Z</time></trkpt><trkpt lat="39.11387858196272" lon="16.19041893011179"><ele>879.0</ele><time>2026-05-03T11:16:30Z</time></trkpt><trkpt lat="39.11393781847141" lon="16.19033016181915"><ele>879.0</ele><time>2026-05-03T11:16:31Z</time></trkpt><trkpt lat="39.1139949579596" lon="16.190238851813458"><ele>878.0</ele><time>2026-05-03T11:16:32Z</time></trkpt><trkpt lat="39.114050405218045" lon="16.190140440127323"><ele>877.0000000000001</ele><time>2026-05-03T11:16:33Z</time></trkpt><trkpt lat="39.11410443376777" lon="16.190040135659537"><ele>876.0000000000001</ele><time>2026-05-03T11:16:34Z</time></trkpt><trkpt lat="39.11416630133004" lon="16.18994169723981"><ele>875.0</ele><time>2026-05-03T11:16:35Z</time></trkpt><trkpt lat="39.114237440631626" lon="16.18984566359941"><ele>874.0</ele><time>2026-05-03T11:16:36Z</time></trkpt><trkpt lat="39.1143146686762" lon="16.189753624819613"><ele>874.0</ele><time>2026-05-03T11:16:37Z</time></trkpt><trkpt lat="39.11439508679796" lon="16.18966553406831"><ele>874.0000000000001</ele><time>2026-05-03T11:16:38Z</time></trkpt><trkpt lat="39.11447595328861" lon="16.18958283455404"><ele>874.0000000000001</ele><time>2026-05-03T11:16:39Z</time></trkpt><trkpt lat="39.114559426853255" lon="16.18950630916345"><ele>874.0</ele><time>2026-05-03T11:16:40Z</time></trkpt><trkpt lat="39.11464762776421" lon="16.18944728941889"><ele>874.0</ele><time>2026-05-03T11:16:41Z</time></trkpt><trkpt lat="39.11474555059128" lon="16.18941459495135"><ele>874.0</ele><time>2026-05-03T11:16:42Z</time></trkpt><trkpt lat="39.11485093875271" lon="16.18940723861221"><ele>874.0000000000001</ele><time>2026-05-03T11:16:43Z</time></trkpt><trkpt lat="39.11496062018213" lon="16.189404642111825"><ele>874.0000000000001</ele><time>2026-05-03T11:16:44Z</time></trkpt><trkpt lat="39.115066894186505" lon="16.189401482573896"><ele>874.0</ele><time>2026-05-03T11:16:45Z</time></trkpt><trkpt lat="39.11517032664912" lon="16.189372731863294"><ele>874.0</ele><time>2026-05-03T11:16:46Z</time></trkpt><trkpt lat="39.11526448130631" lon="16.189326158486512"><ele>880.25</ele><time>2026-05-03T11:16:47Z</time></trkpt><trkpt lat="39.11535476022209" lon="16.189239772604513"><ele>886.5</ele><time>2026-05-03T11:16:48Z</time></trkpt><trkpt lat="39.11545921031978" lon="16.189157416912018"><ele>892.75</ele><time>2026-05-03T11:16:49Z</time></trkpt><trkpt lat="39.11557421454537" lon="16.189086313118597"><ele>899.0</ele><time>2026-05-03T11:16:50Z</time></trkpt><trkpt lat="39.1157026202505" lon="16.18904094653343"><ele>896.75</ele><time>2026-05-03T11:16:51Z</time></trkpt><trkpt lat="39.11582750604666" lon="16.189012062993818"><ele>894.5</ele><time>2026-05-03T11:16:52Z</time></trkpt><trkpt lat="39.115957927188305" lon="16.188975414327224"><ele>892.25</ele><time>2026-05-03T11:16:53Z</time></trkpt><trkpt lat="39.116081915294025" lon="16.188927856309544"><ele>890.0</ele><time>2026-05-03T11:16:54Z</time></trkpt><trkpt lat="39.11619088774262" lon="16.188847176315505"><ele>890.0</ele><time>2026-05-03T11:16:55Z</time></trkpt><trkpt lat="39.116270158362354" lon="16.18874560592889"><ele>890.0</ele><time>2026-05-03T11:16:56Z</time></trkpt><trkpt lat="39.11635444039002" lon="16.18863888152429"><ele>890.0</ele><time>2026-05-03T11:16:57Z</time></trkpt><trkpt lat="39.11645115540479" lon="16.188544636903806"><ele>890.0</ele><time>2026-05-03T11:16:58Z</time></trkpt><trkpt lat="39.116559143250555" lon="16.18846004031871"><ele>889.0</ele><time>2026-05-03T11:16:59Z</time></trkpt><trkpt lat="39.116666853641256" lon="16.18837205682693"><ele>888.0</ele><time>2026-05-03T11:17:00Z</time></trkpt><trkpt lat="39.116772463013525" lon="16.188276834957627"><ele>887.0</ele><time>2026-05-03T11:17:01Z</time></trkpt><trkpt lat="39.116874153552814" lon="16.18817218400856"><ele>886.0</ele><time>2026-05-03T11:17:02Z</time></trkpt><trkpt lat="39.11695960024633" lon="16.188075625360383"><ele>886.0</ele><time>2026-05-03T11:17:03Z</time></trkpt><trkpt lat="39.117036047938385" lon="16.188000527707054"><ele>885.9999999999999</ele><time>2026-05-03T11:17:04Z</time></trkpt><trkpt lat="39.117109547084475" lon="16.18798368179743"><ele>885.9999999999999</ele><time>2026-05-03T11:17:05Z</time></trkpt><trkpt lat="39.11718816528237" lon="16.18801399905654"><ele>886.0</ele><time>2026-05-03T11:17:06Z</time></trkpt><trkpt lat="39.11726893789361" lon="16.18808136877194"><ele>886.0</ele><time>2026-05-03T11:17:07Z</time></trkpt><trkpt lat="39.117349017158716" lon="16.18817440149202"><ele>891.1666666666666</ele><time>2026-05-03T11:17:08Z</time></trkpt><trkpt lat="39.117407921169665" lon="16.188265934133693"><ele>896.3333333333333</ele><time>2026-05-03T11:17:09Z</time></trkpt><trkpt lat="39.11745643141232" lon="16.188362727256383"><ele>901.5</ele><time>2026-05-03T11:17:11Z</time></trkpt><trkpt lat="39.11749134620977" lon="16.18843105549368"><ele>906.6666666666667</ele><time>2026-05-03T11:17:15Z</time></trkpt><trkpt lat="39.11747232484298" lon="16.1883255003118"><ele>911.8333333333334</ele><time>2026-05-03T11:17:21Z</time></trkpt><trkpt lat="39.117414228525014" lon="16.188250891193025"><ele>917.0</ele><time>2026-05-03T11:17:23Z</time></trkpt><trkpt lat="39.11735309557468" lon="16.188182118674927"><ele>914.8333333333334</ele><time>2026-05-03T11:17:27Z</time></trkpt><trkpt lat="39.117290519774315" lon="16.18810780760553"><ele>912.6666666666667</ele><time>2026-05-03T11:17:30Z</time></trkpt><trkpt lat="39.117224083872756" lon="16.18805534745597"><ele>910.5</ele><time>2026-05-03T11:17:33Z</time></trkpt><trkpt lat="39.11716215951375" lon="16.1880330231446"><ele>908.3333333333333</ele><time>2026-05-03T11:17:36Z</time></trkpt><trkpt lat="39.11721112099904" lon="16.187977649312774"><ele>906.1666666666666</ele><time>2026-05-03T11:17:51Z</time></trkpt><trkpt lat="39.1173130871669" lon="16.187961893856514"><ele>904.0</ele><time>2026-05-03T11:17:53Z</time></trkpt><trkpt lat="39.11742290346529" lon="16.187946112025767"><ele>904.0</ele><time>2026-05-03T11:17:55Z</time></trkpt><trkpt lat="39.11754255020054" lon="16.187921322827773"><ele>904.0000000000001</ele><time>2026-05-03T11:17:57Z</time></trkpt><trkpt lat="39.11766718374721" lon="16.187914867796124"><ele>904.0000000000001</ele><time>2026-05-03T11:17:59Z</time></trkpt><trkpt lat="39.11774712591099" lon="16.187914378904242"><ele>904.0</ele><time>2026-05-03T11:18:00Z</time></trkpt><trkpt lat="39.117832704330226" lon="16.18792043946504"><ele>904.0</ele><time>2026-05-03T11:18:01Z</time></trkpt><trkpt lat="39.11794813031487" lon="16.187939168251084"><ele>904.0</ele><time>2026-05-03T11:18:02Z</time></trkpt><trkpt lat="39.11806955016287" lon="16.187986922628355"><ele>904.0000000000001</ele><time>2026-05-03T11:18:03Z</time></trkpt><trkpt lat="39.11815910651634" lon="16.188025426358703"><ele>904.0000000000001</ele><time>2026-05-03T11:18:04Z</time></trkpt><trkpt lat="39.11824480289182" lon="16.188044716618254"><ele>904.0</ele><time>2026-05-03T11:18:05Z</time></trkpt><trkpt lat="39.1183368388343" lon="16.18804862983918"><ele>904.0</ele><time>2026-05-03T11:18:06Z</time></trkpt><trkpt lat="39.118429045910425" lon="16.18805539654867"><ele>902.6666666666666</ele><time>2026-05-03T11:18:07Z</time></trkpt><trkpt lat="39.11851415375147" lon="16.188080842280808"><ele>901.3333333333333</ele><time>2026-05-03T11:18:08Z</time></trkpt><trkpt lat="39.118580158973" lon="16.188110243135185"><ele>900.0</ele><time>2026-05-03T11:18:09Z</time></trkpt><trkpt lat="39.118636117464504" lon="16.188172679451654"><ele>898.6666666666667</ele><time>2026-05-03T11:18:10Z</time></trkpt><trkpt lat="39.11870086895566" lon="16.188263362417104"><ele>897.3333333333334</ele><time>2026-05-03T11:18:11Z</time></trkpt><trkpt lat="39.11875333795772" lon="16.188337215629762"><ele>896.0</ele><time>2026-05-03T11:18:12Z</time></trkpt><trkpt lat="39.118773774358985" lon="16.188428303364045"><ele>899.3333333333334</ele><time>2026-05-03T11:18:13Z</time></trkpt><trkpt lat="39.11877126821329" lon="16.188510387458653"><ele>902.6666666666667</ele><time>2026-05-03T11:18:14Z</time></trkpt><trkpt lat="39.118778332858234" lon="16.18862072279875"><ele>906.0</ele><time>2026-05-03T11:18:16Z</time></trkpt><trkpt lat="39.11884556182412" lon="16.188526044120156"><ele>909.3333333333333</ele><time>2026-05-03T11:18:19Z</time></trkpt><trkpt lat="39.118873801300126" lon="16.188407518504135"><ele>912.6666666666666</ele><time>2026-05-03T11:18:20Z</time></trkpt><trkpt lat="39.118908133056316" lon="16.188313264195152"><ele>916.0</ele><time>2026-05-03T11:18:21Z</time></trkpt><trkpt lat="39.11897391900145" lon="16.188240618635525"><ele>915.9999999999999</ele><time>2026-05-03T11:18:22Z</time></trkpt><trkpt lat="39.11904627775135" lon="16.18818752493951"><ele>916.0</ele><time>2026-05-03T11:18:23Z</time></trkpt><trkpt lat="39.11909225904536" lon="16.188122872836576"><ele>916.0</ele><time>2026-05-03T11:18:24Z</time></trkpt><trkpt lat="39.119092394861035" lon="16.187957781801487"><ele>916.0</ele><time>2026-05-03T11:18:26Z</time></trkpt><trkpt lat="39.11906653783784" lon="16.187858919367155"><ele>915.9999999999999</ele><time>2026-05-03T11:18:27Z</time></trkpt><trkpt lat="39.1190269340987" lon="16.187760409832663"><ele>916.0</ele><time>2026-05-03T11:18:28Z</time></trkpt><trkpt lat="39.11899287544711" lon="16.18767082714754"><ele>912.0</ele><time>2026-05-03T11:18:29Z</time></trkpt><trkpt lat="39.11895544272561" lon="16.187591560182796"><ele>907.9999999999999</ele><time>2026-05-03T11:18:30Z</time></trkpt><trkpt lat="39.11887971453703" lon="16.187443642687175"><ele>903.9999999999999</ele><time>2026-05-03T11:18:32Z</time></trkpt><trkpt lat="39.11882921258119" lon="16.187380351926116"><ele>900.0</ele><time>2026-05-03T11:18:33Z</time></trkpt><trkpt lat="39.118752547597545" lon="16.187224675106524"><ele>896.0</ele><time>2026-05-03T11:18:35Z</time></trkpt><trkpt lat="39.11868771549187" lon="16.187072036457025"><ele>889.4</ele><time>2026-05-03T11:18:37Z</time></trkpt><trkpt lat="39.11865892578952" lon="16.186988372017815"><ele>882.8</ele><time>2026-05-03T11:18:38Z</time></trkpt><trkpt lat="39.1186098763924" lon="16.186914304850628"><ele>876.1999999999999</ele><time>2026-05-03T11:18:39Z</time></trkpt><trkpt lat="39.11854926290354" lon="16.186791676282137"><ele>869.5999999999999</ele><time>2026-05-03T11:18:41Z</time></trkpt><trkpt lat="39.11846215989188" lon="16.18669800811574"><ele>863.0</ele><time>2026-05-03T11:18:43Z</time></trkpt><trkpt lat="39.11839741230022" lon="16.186620327041172"><ele>863.0000000000001</ele><time>2026-05-03T11:18:44Z</time></trkpt><trkpt lat="39.11834552744008" lon="16.186549368778014"><ele>863.0</ele><time>2026-05-03T11:18:45Z</time></trkpt><trkpt lat="39.118271835761995" lon="16.186454830195455"><ele>863.0</ele><time>2026-05-03T11:18:46Z</time></trkpt><trkpt lat="39.11820449750011" lon="16.186373596242476"><ele>863.0</ele><time>2026-05-03T11:18:47Z</time></trkpt><trkpt lat="39.118134369694204" lon="16.186320522953398"><ele>863.0000000000001</ele><time>2026-05-03T11:18:48Z</time></trkpt><trkpt lat="39.118075308100984" lon="16.1862730018286"><ele>863.0</ele><time>2026-05-03T11:18:49Z</time></trkpt><trkpt lat="39.11802047808877" lon="16.18621496152006"><ele>860.0</ele><time>2026-05-03T11:18:50Z</time></trkpt><trkpt lat="39.11797200052157" lon="16.186138475851543"><ele>857.0</ele><time>2026-05-03T11:18:51Z</time></trkpt><trkpt lat="39.11792334368875" lon="16.18608204015307"><ele>854.0</ele><time>2026-05-03T11:18:52Z</time></trkpt><trkpt lat="39.11783234367882" lon="16.18597855724012"><ele>851.0</ele><time>2026-05-03T11:18:54Z</time></trkpt><trkpt lat="39.11777368922987" lon="16.185894623099333"><ele>848.0</ele><time>2026-05-03T11:18:55Z</time></trkpt><trkpt lat="39.117707314723766" lon="16.185799187904802"><ele>848.0000000000001</ele><time>2026-05-03T11:18:56Z</time></trkpt><trkpt lat="39.11763852092366" lon="16.185706645253987"><ele>848.0</ele><time>2026-05-03T11:18:57Z</time></trkpt><trkpt lat="39.11757351905413" lon="16.18564100953633"><ele>848.0</ele><time>2026-05-03T11:18:58Z</time></trkpt><trkpt lat="39.11750795759473" lon="16.185568911986078"><ele>848.0</ele><time>2026-05-03T11:18:59Z</time></trkpt><trkpt lat="39.117451249479956" lon="16.185488675089303"><ele>848.0000000000001</ele><time>2026-05-03T11:19:00Z</time></trkpt><trkpt lat="39.11739838916603" lon="16.185392764872223"><ele>848.0</ele><time>2026-05-03T11:19:01Z</time></trkpt><trkpt lat="39.117357287313794" lon="16.18531610862923"><ele>839.8</ele><time>2026-05-03T11:19:02Z</time></trkpt><trkpt lat="39.11731841778692" lon="16.185233678617937"><ele>831.5999999999999</ele><time>2026-05-03T11:19:03Z</time></trkpt><trkpt lat="39.1172665485844" lon="16.185125030655836"><ele>823.4000000000001</ele><time>2026-05-03T11:19:04Z</time></trkpt><trkpt lat="39.11719908766826" lon="16.18500345526987"><ele>815.2</ele><time>2026-05-03T11:19:05Z</time></trkpt><trkpt lat="39.11713690137928" lon="16.184881772537803"><ele>807.0</ele><time>2026-05-03T11:19:06Z</time></trkpt><trkpt lat="39.11708843370558" lon="16.184793141572992"><ele>803.2</ele><time>2026-05-03T11:19:07Z</time></trkpt><trkpt lat="39.117045488045875" lon="16.184701493739638"><ele>799.4000000000001</ele><time>2026-05-03T11:19:08Z</time></trkpt><trkpt lat="39.116992694410165" lon="16.184616685085214"><ele>795.5999999999999</ele><time>2026-05-03T11:19:09Z</time></trkpt><trkpt lat="39.11694277773196" lon="16.18455822445504"><ele>791.8</ele><time>2026-05-03T11:19:10Z</time></trkpt><trkpt lat="39.11687814399534" lon="16.1845232574859"><ele>788.0</ele><time>2026-05-03T11:19:11Z</time></trkpt><trkpt lat="39.116744583009584" lon="16.184223651359773"><ele>788.0</ele><time>2026-05-03T11:19:13Z</time></trkpt><trkpt lat="39.11660747391842" lon="16.184318243878167"><ele>788.0</ele><time>2026-05-03T11:19:14Z</time></trkpt><trkpt lat="39.11664861341888" lon="16.18462359706965"><ele>788.0</ele><time>2026-05-03T11:19:15Z</time></trkpt><trkpt lat="39.11662119646124" lon="16.184697446543023"><ele>788.0000000000001</ele><time>2026-05-03T11:19:17Z</time></trkpt><trkpt lat="39.11657716728896" lon="16.18463827750737"><ele>788.0</ele><time>2026-05-03T11:19:19Z</time></trkpt><trkpt lat="39.116603938405326" lon="16.184521176153105"><ele>788.0</ele><time>2026-05-03T11:19:21Z</time></trkpt><trkpt lat="39.1166243075269" lon="16.184423016897487"><ele>788.0</ele><time>2026-05-03T11:19:22Z</time></trkpt><trkpt lat="39.116659755316014" lon="16.18432005462467"><ele>788.0000000000001</ele><time>2026-05-03T11:19:23Z</time></trkpt><trkpt lat="39.11671483443667" lon="16.18425477582666"><ele>788.0</ele><time>2026-05-03T11:19:24Z</time></trkpt><trkpt lat="39.116786284597815" lon="16.184237941193444"><ele>788.0000000000001</ele><time>2026-05-03T11:19:25Z</time></trkpt><trkpt lat="39.11685658382583" lon="16.184249195162067"><ele>788.0</ele><time>2026-05-03T11:19:26Z</time></trkpt><trkpt lat="39.11692546171579" lon="16.184270539978193"><ele>788.0</ele><time>2026-05-03T11:19:27Z</time></trkpt><trkpt lat="39.11705485833593" lon="16.184302150453107"><ele>788.0</ele><time>2026-05-03T11:19:29Z</time></trkpt><trkpt lat="39.117117796001" lon="16.184315382319397"><ele>788.0000000000001</ele><time>2026-05-03T11:19:30Z</time></trkpt><trkpt lat="39.117183986365006" lon="16.18433955051236"><ele>788.0</ele><time>2026-05-03T11:19:31Z</time></trkpt><trkpt lat="39.11730568889587" lon="16.184416967001837"><ele>788.0000000000001</ele><time>2026-05-03T11:19:33Z</time></trkpt><trkpt lat="39.11737347479769" lon="16.184463209041095"><ele>788.0</ele><time>2026-05-03T11:19:34Z</time></trkpt><trkpt lat="39.11744778678434" lon="16.184490786221623"><ele>788.0</ele><time>2026-05-03T11:19:35Z</time></trkpt><trkpt lat="39.11751956050285" lon="16.184519342952036"><ele>788.0</ele><time>2026-05-03T11:19:36Z</time></trkpt><trkpt lat="39.117578711164256" lon="16.184548508223696"><ele>788.0000000000001</ele><time>2026-05-03T11:19:37Z</time></trkpt><trkpt lat="39.11769278520998" lon="16.184598792090746"><ele>788.0</ele><time>2026-05-03T11:19:39Z</time></trkpt><trkpt lat="39.11777340966975" lon="16.18460855350004"><ele>788.0000000000001</ele><time>2026-05-03T11:19:40Z</time></trkpt><trkpt lat="39.11785193477322" lon="16.184632679589843"><ele>788.0</ele><time>2026-05-03T11:19:41Z</time></trkpt><trkpt lat="39.11791820946591" lon="16.184683601528963"><ele>788.0</ele><time>2026-05-03T11:19:42Z</time></trkpt><trkpt lat="39.11798924981027" lon="16.184718363158197"><ele>788.0</ele><time>2026-05-03T11:19:43Z</time></trkpt><trkpt lat="39.11805715476355" lon="16.184758217469486"><ele>788.0000000000001</ele><time>2026-05-03T11:19:44Z</time></trkpt><trkpt lat="39.11812224064445" lon="16.18481179787428"><ele>788.0</ele><time>2026-05-03T11:19:45Z</time></trkpt><trkpt lat="39.11818952346277" lon="16.184892053033018"><ele>788.4</ele><time>2026-05-03T11:19:46Z</time></trkpt><trkpt lat="39.11825184438838" lon="16.18498682964042"><ele>788.8</ele><time>2026-05-03T11:19:47Z</time></trkpt><trkpt lat="39.11831352363907" lon="16.185078519756143"><ele>789.2</ele><time>2026-05-03T11:19:48Z</time></trkpt><trkpt lat="39.11839341731129" lon="16.18516730282946"><ele>789.6</ele><time>2026-05-03T11:19:49Z</time></trkpt><trkpt lat="39.11847826942786" lon="16.185252329184525"><ele>790.0</ele><time>2026-05-03T11:19:50Z</time></trkpt><trkpt lat="39.11855762818087" lon="16.185317911197096"><ele>789.9999999999999</ele><time>2026-05-03T11:19:51Z</time></trkpt><trkpt lat="39.11864135605861" lon="16.18534266615965"><ele>790.0</ele><time>2026-05-03T11:19:52Z</time></trkpt><trkpt lat="39.118706941329" lon="16.185370527291226"><ele>790.0</ele><time>2026-05-03T11:19:53Z</time></trkpt><trkpt lat="39.118777528870595" lon="16.185386526626104"><ele>790.0</ele><time>2026-05-03T11:19:54Z</time></trkpt><trkpt lat="39.11884668102916" lon="16.185376827921278"><ele>789.9999999999999</ele><time>2026-05-03T11:19:55Z</time></trkpt><trkpt lat="39.11892578263978" lon="16.18538970575707"><ele>790.0</ele><time>2026-05-03T11:19:56Z</time></trkpt><trkpt lat="39.11902081961814" lon="16.185365172852315"><ele>786.4</ele><time>2026-05-03T11:19:57Z</time></trkpt><trkpt lat="39.119118536328386" lon="16.18536667867562"><ele>782.8</ele><time>2026-05-03T11:19:58Z</time></trkpt><trkpt lat="39.11921753958144" lon="16.18537408675768"><ele>779.2</ele><time>2026-05-03T11:19:59Z</time></trkpt><trkpt lat="39.11931131246079" lon="16.185378186168744"><ele>775.6</ele><time>2026-05-03T11:20:00Z</time></trkpt><trkpt lat="39.11939990550883" lon="16.185390741375418"><ele>772.0</ele><time>2026-05-03T11:20:01Z</time></trkpt><trkpt lat="39.11949799044873" lon="16.18541691699906"><ele>772.0</ele><time>2026-05-03T11:20:02Z</time></trkpt><trkpt lat="39.119573639758556" lon="16.185458743644006"><ele>772.0</ele><time>2026-05-03T11:20:03Z</time></trkpt><trkpt lat="39.11964167577665" lon="16.18551729385504"><ele>772.0</ele><time>2026-05-03T11:20:04Z</time></trkpt><trkpt lat="39.119727887752795" lon="16.1855523232556"><ele>772.0</ele><time>2026-05-03T11:20:05Z</time></trkpt><trkpt lat="39.1198280658689" lon="16.18560971998221"><ele>772.0</ele><time>2026-05-03T11:20:06Z</time></trkpt><trkpt lat="39.11991835136734" lon="16.18567029360739"><ele>774.9999999999999</ele><time>2026-05-03T11:20:07Z</time></trkpt><trkpt lat="39.12001571504865" lon="16.185716040945003"><ele>778.0</ele><time>2026-05-03T11:20:08Z</time></trkpt><trkpt lat="39.12010314893865" lon="16.185753813218106"><ele>781.0</ele><time>2026-05-03T11:20:09Z</time></trkpt><trkpt lat="39.1201795475828" lon="16.185791452361528"><ele>784.0</ele><time>2026-05-03T11:20:10Z</time></trkpt><trkpt lat="39.12024967110738" lon="16.185845005260667"><ele>786.9999999999999</ele><time>2026-05-03T11:20:11Z</time></trkpt><trkpt lat="39.12026885144071" lon="16.18593021560187"><ele>790.0</ele><time>2026-05-03T11:20:12Z</time></trkpt><trkpt lat="39.12030956044535" lon="16.186015146886863"><ele>790.0</ele><time>2026-05-03T11:20:13Z</time></trkpt><trkpt lat="39.12033642821227" lon="16.186112250376308"><ele>790.0</ele><time>2026-05-03T11:20:14Z</time></trkpt><trkpt lat="39.12042160848469" lon="16.18616958669674"><ele>790.0</ele><time>2026-05-03T11:20:16Z</time></trkpt><trkpt lat="39.12050567833992" lon="16.18611883046279"><ele>790.0</ele><time>2026-05-03T11:20:17Z</time></trkpt><trkpt lat="39.120611533715326" lon="16.18610514383535"><ele>790.0</ele><time>2026-05-03T11:20:18Z</time></trkpt><trkpt lat="39.12071128485407" lon="16.18607193469144"><ele>787.0</ele><time>2026-05-03T11:20:19Z</time></trkpt><trkpt lat="39.12081292829988" lon="16.18603178059184"><ele>784.0</ele><time>2026-05-03T11:20:20Z</time></trkpt><trkpt lat="39.12092156555111" lon="16.18602160194193"><ele>781.0</ele><time>2026-05-03T11:20:21Z</time></trkpt><trkpt lat="39.121024296470615" lon="16.186012668186525"><ele>778.0</ele><time>2026-05-03T11:20:22Z</time></trkpt><trkpt lat="39.121123987734535" lon="16.18600133969385"><ele>775.0</ele><time>2026-05-03T11:20:23Z</time></trkpt><trkpt lat="39.12121614992053" lon="16.186000232455505"><ele>774.9999999999999</ele><time>2026-05-03T11:20:24Z</time></trkpt><trkpt lat="39.121312880287114" lon="16.186010848429117"><ele>775.0</ele><time>2026-05-03T11:20:25Z</time></trkpt><trkpt lat="39.12141416770993" lon="16.186020751012283"><ele>775.0</ele><time>2026-05-03T11:20:26Z</time></trkpt><trkpt lat="39.12150248334129" lon="16.186042826877344"><ele>775.0</ele><time>2026-05-03T11:20:27Z</time></trkpt><trkpt lat="39.12157187273425" lon="16.186079014288087"><ele>774.9999999999999</ele><time>2026-05-03T11:20:28Z</time></trkpt><trkpt lat="39.12162915658594" lon="16.186132527610788"><ele>775.0</ele><time>2026-05-03T11:20:29Z</time></trkpt><trkpt lat="39.121682601132584" lon="16.186212439993383"><ele>773.8333333333333</ele><time>2026-05-03T11:20:30Z</time></trkpt><trkpt lat="39.1217028502793" lon="16.18633539477458"><ele>772.6666666666666</ele><time>2026-05-03T11:20:31Z</time></trkpt><trkpt lat="39.121750985150406" lon="16.186419217495523"><ele>771.5</ele><time>2026-05-03T11:20:32Z</time></trkpt><trkpt lat="39.121785616488125" lon="16.186514175555725"><ele>770.3333333333333</ele><time>2026-05-03T11:20:33Z</time></trkpt><trkpt lat="39.12183533910331" lon="16.186584974454792"><ele>769.1666666666666</ele><time>2026-05-03T11:20:34Z</time></trkpt><trkpt lat="39.12189781106096" lon="16.186653891074897"><ele>768.0</ele><time>2026-05-03T11:20:35Z</time></trkpt><trkpt lat="39.12194450626442" lon="16.186746161585088"><ele>772.8</ele><time>2026-05-03T11:20:36Z</time></trkpt><trkpt lat="39.12201775328038" lon="16.186818008907444"><ele>777.5999999999999</ele><time>2026-05-03T11:20:37Z</time></trkpt><trkpt lat="39.12212110583934" lon="16.186841415020837"><ele>782.4000000000001</ele><time>2026-05-03T11:20:38Z</time></trkpt><trkpt lat="39.122204455040915" lon="16.18688386692652"><ele>787.2</ele><time>2026-05-03T11:20:39Z</time></trkpt><trkpt lat="39.122299094455784" lon="16.186918215405633"><ele>792.0</ele><time>2026-05-03T11:20:40Z</time></trkpt><trkpt lat="39.12237409704166" lon="16.18695401445698"><ele>791.2</ele><time>2026-05-03T11:20:41Z</time></trkpt><trkpt lat="39.1224449258487" lon="16.18699019009094"><ele>790.4000000000001</ele><time>2026-05-03T11:20:42Z</time></trkpt><trkpt lat="39.12251719221213" lon="16.187060455375843"><ele>789.5999999999999</ele><time>2026-05-03T11:20:43Z</time></trkpt><trkpt lat="39.12258688837312" lon="16.187150167051026"><ele>788.8</ele><time>2026-05-03T11:20:44Z</time></trkpt><trkpt lat="39.12264735796445" lon="16.187255244025348"><ele>788.0</ele><time>2026-05-03T11:20:45Z</time></trkpt><trkpt lat="39.12270794792167" lon="16.187347809088873"><ele>788.0</ele><time>2026-05-03T11:20:46Z</time></trkpt><trkpt lat="39.12278873530737" lon="16.187428721981206"><ele>788.0</ele><time>2026-05-03T11:20:47Z</time></trkpt><trkpt lat="39.122846315975494" lon="16.187503822931053"><ele>788.0</ele><time>2026-05-03T11:20:48Z</time></trkpt><trkpt lat="39.12292920547432" lon="16.187577849515346"><ele>788.0</ele><time>2026-05-03T11:20:50Z</time></trkpt><trkpt lat="39.12301332373811" lon="16.187552059650667"><ele>788.0</ele><time>2026-05-03T11:20:51Z</time></trkpt><trkpt lat="39.12310274076829" lon="16.187522996951458"><ele>788.0</ele><time>2026-05-03T11:20:52Z</time></trkpt><trkpt lat="39.12318375674006" lon="16.187522310731215"><ele>788.0</ele><time>2026-05-03T11:20:53Z</time></trkpt><trkpt lat="39.123322100629714" lon="16.187577523597586"><ele>788.0</ele><time>2026-05-03T11:20:55Z</time></trkpt><trkpt lat="39.12340907557452" lon="16.1876495299292"><ele>788.0</ele><time>2026-05-03T11:20:56Z</time></trkpt><trkpt lat="39.123498824035906" lon="16.187741746382706"><ele>788.0</ele><time>2026-05-03T11:20:57Z</time></trkpt><trkpt lat="39.123587491889495" lon="16.187824444464436"><ele>784.0</ele><time>2026-05-03T11:20:58Z</time></trkpt><trkpt lat="39.12366822101557" lon="16.187881051906007"><ele>780.0</ele><time>2026-05-03T11:20:59Z</time></trkpt><trkpt lat="39.12380256708813" lon="16.18789099069059"><ele>776.0</ele><time>2026-05-03T11:21:01Z</time></trkpt><trkpt lat="39.12389688466419" lon="16.187848946590517"><ele>772.0</ele><time>2026-05-03T11:21:02Z</time></trkpt><trkpt lat="39.1240009785428" lon="16.187845258965513"><ele>768.0</ele><time>2026-05-03T11:21:03Z</time></trkpt><trkpt lat="39.12407217433352" lon="16.18781459940071"><ele>764.4</ele><time>2026-05-03T11:21:04Z</time></trkpt><trkpt lat="39.12414512205791" lon="16.18782805054482"><ele>760.8</ele><time>2026-05-03T11:21:05Z</time></trkpt><trkpt lat="39.12424924089289" lon="16.187846310876754"><ele>757.2</ele><time>2026-05-03T11:21:07Z</time></trkpt><trkpt lat="39.12430862589294" lon="16.1879035591848"><ele>753.6</ele><time>2026-05-03T11:21:08Z</time></trkpt><trkpt lat="39.124336162271014" lon="16.187996271691816"><ele>750.0</ele><time>2026-05-03T11:21:09Z</time></trkpt><trkpt lat="39.12441688854965" lon="16.1881360237705"><ele>753.8</ele><time>2026-05-03T11:21:10Z</time></trkpt><trkpt lat="39.124491114088386" lon="16.18825622415513"><ele>757.6</ele><time>2026-05-03T11:21:11Z</time></trkpt><trkpt lat="39.12455615405081" lon="16.188350830181776"><ele>761.4000000000001</ele><time>2026-05-03T11:21:12Z</time></trkpt><trkpt lat="39.12462908668247" lon="16.188431101689947"><ele>765.2</ele><time>2026-05-03T11:21:13Z</time></trkpt><trkpt lat="39.1247064918357" lon="16.18849397357361"><ele>769.0</ele><time>2026-05-03T11:21:14Z</time></trkpt><trkpt lat="39.12480334775895" lon="16.188557204178338"><ele>765.4999999999999</ele><time>2026-05-03T11:21:15Z</time></trkpt><trkpt lat="39.124902975842645" lon="16.188611522787628"><ele>762.0</ele><time>2026-05-03T11:21:16Z</time></trkpt><trkpt lat="39.125000015477355" lon="16.1886748891377"><ele>758.5</ele><time>2026-05-03T11:21:17Z</time></trkpt><trkpt lat="39.12508084130707" lon="16.188738405648625"><ele>755.0</ele><time>2026-05-03T11:21:18Z</time></trkpt><trkpt lat="39.12513793262862" lon="16.188790545220925"><ele>751.5</ele><time>2026-05-03T11:21:19Z</time></trkpt><trkpt lat="39.1251895834942" lon="16.18884561767428"><ele>748.0</ele><time>2026-05-03T11:21:20Z</time></trkpt><trkpt lat="39.125271566506704" lon="16.188998308682994"><ele>751.1666666666667</ele><time>2026-05-03T11:21:22Z</time></trkpt><trkpt lat="39.12531470318241" lon="16.189110263630052"><ele>754.3333333333334</ele><time>2026-05-03T11:21:23Z</time></trkpt><trkpt lat="39.1253619215608" lon="16.189251221952855"><ele>757.5</ele><time>2026-05-03T11:21:24Z</time></trkpt><trkpt lat="39.125418485039084" lon="16.189327636857975"><ele>760.6666666666666</ele><time>2026-05-03T11:21:25Z</time></trkpt><trkpt lat="39.12547164144443" lon="16.189395869915693"><ele>763.8333333333333</ele><time>2026-05-03T11:21:26Z</time></trkpt><trkpt lat="39.12553883428853" lon="16.18942320788034"><ele>767.0</ele><time>2026-05-03T11:21:27Z</time></trkpt><trkpt lat="39.12560607058219" lon="16.189446761355576"><ele>767.0</ele><time>2026-05-03T11:21:28Z</time></trkpt><trkpt lat="39.12568974260137" lon="16.18946313499533"><ele>767.0</ele><time>2026-05-03T11:21:29Z</time></trkpt><trkpt lat="39.125767534823076" lon="16.1894980483767"><ele>767.0</ele><time>2026-05-03T11:21:30Z</time></trkpt><trkpt lat="39.12583283280438" lon="16.18957829406689"><ele>767.0</ele><time>2026-05-03T11:21:31Z</time></trkpt><trkpt lat="39.125900342810766" lon="16.18965873351021"><ele>767.0</ele><time>2026-05-03T11:21:32Z</time></trkpt><trkpt lat="39.125953279850755" lon="16.189751817273194"><ele>767.0</ele><time>2026-05-03T11:21:33Z</time></trkpt><trkpt lat="39.126003036079545" lon="16.189858485962638"><ele>769.6666666666666</ele><time>2026-05-03T11:21:34Z</time></trkpt><trkpt lat="39.12604853795594" lon="16.189950571826706"><ele>772.3333333333333</ele><time>2026-05-03T11:21:35Z</time></trkpt><trkpt lat="39.1260850554036" lon="16.190020235887335"><ele>775.0</ele><time>2026-05-03T11:21:36Z</time></trkpt><trkpt lat="39.126125821514876" lon="16.19009512503555"><ele>777.6666666666666</ele><time>2026-05-03T11:21:37Z</time></trkpt><trkpt lat="39.12617922177577" lon="16.190155634458513"><ele>780.3333333333334</ele><time>2026-05-03T11:21:38Z</time></trkpt><trkpt lat="39.12629034754901" lon="16.190194646442066"><ele>783.0</ele><time>2026-05-03T11:21:40Z</time></trkpt><trkpt lat="39.12636667209865" lon="16.19014682503516"><ele>783.0</ele><time>2026-05-03T11:21:41Z</time></trkpt><trkpt lat="39.12643896114484" lon="16.190169330636937"><ele>783.0</ele><time>2026-05-03T11:21:42Z</time></trkpt><trkpt lat="39.12650960042634" lon="16.190190381857285"><ele>783.0</ele><time>2026-05-03T11:21:43Z</time></trkpt><trkpt lat="39.12657707615788" lon="16.190217956794328"><ele>783.0</ele><time>2026-05-03T11:21:44Z</time></trkpt><trkpt lat="39.12664469669408" lon="16.190249111045496"><ele>783.0</ele><time>2026-05-03T11:21:45Z</time></trkpt><trkpt lat="39.12669536273364" lon="16.190320992712888"><ele>783.0</ele><time>2026-05-03T11:21:46Z</time></trkpt><trkpt lat="39.12671889731848" lon="16.19041038910357"><ele>783.0</ele><time>2026-05-03T11:21:47Z</time></trkpt><trkpt lat="39.1267736493713" lon="16.190493694072373"><ele>782.1666666666666</ele><time>2026-05-03T11:21:49Z</time></trkpt><trkpt lat="39.12684516022142" lon="16.190476077750407"><ele>781.3333333333333</ele><time>2026-05-03T11:21:51Z</time></trkpt><trkpt lat="39.12690756759019" lon="16.190329154003262"><ele>780.5</ele><time>2026-05-03T11:21:53Z</time></trkpt><trkpt lat="39.12692400283031" lon="16.190240386976612"><ele>779.6666666666666</ele><time>2026-05-03T11:21:54Z</time></trkpt><trkpt lat="39.126951763186064" lon="16.19016494693155"><ele>778.8333333333333</ele><time>2026-05-03T11:21:55Z</time></trkpt><trkpt lat="39.1269779624229" lon="16.190068623943514"><ele>778.0</ele><time>2026-05-03T11:21:56Z</time></trkpt><trkpt lat="39.12700544466408" lon="16.18995997305811"><ele>778.0</ele><time>2026-05-03T11:21:57Z</time></trkpt><trkpt lat="39.127025098655224" lon="16.18985615718648"><ele>778.0</ele><time>2026-05-03T11:21:58Z</time></trkpt><trkpt lat="39.12702730509339" lon="16.18973525066869"><ele>778.0</ele><time>2026-05-03T11:21:59Z</time></trkpt><trkpt lat="39.1270894913007" lon="16.18961762885735"><ele>778.0</ele><time>2026-05-03T11:22:00Z</time></trkpt><trkpt lat="39.12715453872692" lon="16.189482351466403"><ele>778.0</ele><time>2026-05-03T11:22:01Z</time></trkpt><trkpt lat="39.12722536877608" lon="16.189341685003313"><ele>779.3333333333333</ele><time>2026-05-03T11:22:02Z</time></trkpt><trkpt lat="39.127286953848696" lon="16.18922851207303"><ele>780.6666666666666</ele><time>2026-05-03T11:22:03Z</time></trkpt><trkpt lat="39.12734450528417" lon="16.189143876401662"><ele>782.0</ele><time>2026-05-03T11:22:04Z</time></trkpt><trkpt lat="39.127403415894555" lon="16.189094545114042"><ele>783.3333333333333</ele><time>2026-05-03T11:22:05Z</time></trkpt><trkpt lat="39.12747404671876" lon="16.189036504249522"><ele>784.6666666666666</ele><time>2026-05-03T11:22:06Z</time></trkpt><trkpt lat="39.12755411447922" lon="16.188962452215588"><ele>786.0</ele><time>2026-05-03T11:22:07Z</time></trkpt><trkpt lat="39.12765090818505" lon="16.188907435708206"><ele>779.8</ele><time>2026-05-03T11:22:08Z</time></trkpt><trkpt lat="39.127752677687546" lon="16.188841519909552"><ele>773.5999999999999</ele><time>2026-05-03T11:22:09Z</time></trkpt><trkpt lat="39.127855788269166" lon="16.188788433766504"><ele>767.4</ele><time>2026-05-03T11:22:10Z</time></trkpt><trkpt lat="39.1279463065593" lon="16.188766726663825"><ele>761.2</ele><time>2026-05-03T11:22:11Z</time></trkpt><trkpt lat="39.12803883254197" lon="16.188786118594486"><ele>755.0</ele><time>2026-05-03T11:22:12Z</time></trkpt><trkpt lat="39.12813719343218" lon="16.188833664127152"><ele>758.8</ele><time>2026-05-03T11:22:13Z</time></trkpt><trkpt lat="39.12823397027687" lon="16.188882888492408"><ele>762.6</ele><time>2026-05-03T11:22:14Z</time></trkpt><trkpt lat="39.12832760850463" lon="16.188904693056188"><ele>766.4000000000001</ele><time>2026-05-03T11:22:15Z</time></trkpt><trkpt lat="39.12842745979435" lon="16.188887042018408"><ele>770.2</ele><time>2026-05-03T11:22:16Z</time></trkpt><trkpt lat="39.12853582817644" lon="16.188852529668022"><ele>774.0</ele><time>2026-05-03T11:22:17Z</time></trkpt><trkpt lat="39.12865288730134" lon="16.188821521520566"><ele>774.0</ele><time>2026-05-03T11:22:18Z</time></trkpt><trkpt lat="39.12876780671103" lon="16.18880152052058"><ele>774.0</ele><time>2026-05-03T11:22:19Z</time></trkpt><trkpt lat="39.12887748152194" lon="16.188821067977717"><ele>774.0</ele><time>2026-05-03T11:22:20Z</time></trkpt><trkpt lat="39.12897653793845" lon="16.18883155993687"><ele>774.0</ele><time>2026-05-03T11:22:21Z</time></trkpt><trkpt lat="39.12906393120425" lon="16.18885085812361"><ele>774.0</ele><time>2026-05-03T11:22:22Z</time></trkpt><trkpt lat="39.1291503152924" lon="16.188869293199353"><ele>773.6</ele><time>2026-05-03T11:22:23Z</time></trkpt><trkpt lat="39.12923299567248" lon="16.18893606387615"><ele>773.2</ele><time>2026-05-03T11:22:24Z</time></trkpt><trkpt lat="39.129328906489555" lon="16.188993850878212"><ele>772.8000000000001</ele><time>2026-05-03T11:22:25Z</time></trkpt><trkpt lat="39.12942782311588" lon="16.189026908346023"><ele>772.4000000000001</ele><time>2026-05-03T11:22:26Z</time></trkpt><trkpt lat="39.12951999778379" lon="16.18904495195601"><ele>772.0</ele><time>2026-05-03T11:22:27Z</time></trkpt><trkpt lat="39.12960589487457" lon="16.189060854126033"><ele>775.3333333333333</ele><time>2026-05-03T11:22:28Z</time></trkpt><trkpt lat="39.12968661810826" lon="16.18907221859662"><ele>778.6666666666666</ele><time>2026-05-03T11:22:29Z</time></trkpt><trkpt lat="39.12974849546801" lon="16.18909201353944"><ele>782.0</ele><time>2026-05-03T11:22:30Z</time></trkpt><trkpt lat="39.12984320553684" lon="16.189187009982426"><ele>785.3333333333333</ele><time>2026-05-03T11:22:32Z</time></trkpt><trkpt lat="39.12989688155127" lon="16.189247470705155"><ele>788.6666666666666</ele><time>2026-05-03T11:22:33Z</time></trkpt><trkpt lat="39.12995024673205" lon="16.18931241800151"><ele>792.0</ele><time>2026-05-03T11:22:35Z</time></trkpt><trkpt lat="39.13000564841222" lon="16.189259208531922"><ele>792.0</ele><time>2026-05-03T11:22:37Z</time></trkpt><trkpt lat="39.13002892337997" lon="16.189112203735483"><ele>792.0</ele><time>2026-05-03T11:22:39Z</time></trkpt><trkpt lat="39.13001458049389" lon="16.18895554811346"><ele>792.0</ele><time>2026-05-03T11:22:41Z</time></trkpt><trkpt lat="39.130030613075704" lon="16.188845769352287"><ele>792.0</ele><time>2026-05-03T11:22:42Z</time></trkpt><trkpt lat="39.13005342099341" lon="16.18872671424847"><ele>792.0</ele><time>2026-05-03T11:22:43Z</time></trkpt><trkpt lat="39.13008535850169" lon="16.18860370193112"><ele>788.2</ele><time>2026-05-03T11:22:44Z</time></trkpt><trkpt lat="39.13013183784966" lon="16.188498642446273"><ele>784.4000000000001</ele><time>2026-05-03T11:22:45Z</time></trkpt><trkpt lat="39.13017983454241" lon="16.1883997095709"><ele>780.5999999999999</ele><time>2026-05-03T11:22:46Z</time></trkpt><trkpt lat="39.13023354897508" lon="16.188341075676238"><ele>776.8</ele><time>2026-05-03T11:22:47Z</time></trkpt><trkpt lat="39.13033462854777" lon="16.188319636554894"><ele>773.0</ele><time>2026-05-03T11:22:49Z</time></trkpt><trkpt lat="39.13045989260667" lon="16.18827802303304"><ele>773.0000000000001</ele><time>2026-05-03T11:22:51Z</time></trkpt><trkpt lat="39.130496819007675" lon="16.188182343452986"><ele>773.0</ele><time>2026-05-03T11:22:52Z</time></trkpt><trkpt lat="39.1305092663196" lon="16.188083979722553"><ele>773.0</ele><time>2026-05-03T11:22:53Z</time></trkpt><trkpt lat="39.1304832403518" lon="16.18798406910512"><ele>773.0</ele><time>2026-05-03T11:22:54Z</time></trkpt><trkpt lat="39.130463654420645" lon="16.187877700671287"><ele>773.0000000000001</ele><time>2026-05-03T11:22:55Z</time></trkpt><trkpt lat="39.130507685115845" lon="16.187768228932175"><ele>773.0</ele><time>2026-05-03T11:22:56Z</time></trkpt><trkpt lat="39.130554230884854" lon="16.18765431042594"><ele>774.0</ele><time>2026-05-03T11:22:57Z</time></trkpt><trkpt lat="39.13062426205359" lon="16.18757414172864"><ele>775.0</ele><time>2026-05-03T11:22:58Z</time></trkpt><trkpt lat="39.13068571764751" lon="16.18747426807172"><ele>776.0</ele><time>2026-05-03T11:22:59Z</time></trkpt><trkpt lat="39.13076615168253" lon="16.187397069205357"><ele>777.0</ele><time>2026-05-03T11:23:00Z</time></trkpt><trkpt lat="39.130834565722495" lon="16.187315295088233"><ele>778.0</ele><time>2026-05-03T11:23:01Z</time></trkpt><trkpt lat="39.130894786507156" lon="16.187234520891383"><ele>775.4</ele><time>2026-05-03T11:23:02Z</time></trkpt><trkpt lat="39.13093461605654" lon="16.187149097022143"><ele>772.8</ele><time>2026-05-03T11:23:03Z</time></trkpt><trkpt lat="39.13097287988993" lon="16.187073538105047"><ele>770.2</ele><time>2026-05-03T11:23:04Z</time></trkpt><trkpt lat="39.13099337911898" lon="16.186906894706553"><ele>767.6</ele><time>2026-05-03T11:23:06Z</time></trkpt><trkpt lat="39.1309442072042" lon="16.18682441889538"><ele>765.0</ele><time>2026-05-03T11:23:07Z</time></trkpt><trkpt lat="39.13083952290291" lon="16.186787074500796"><ele>765.0</ele><time>2026-05-03T11:23:08Z</time></trkpt><trkpt lat="39.130731378938926" lon="16.186820514998026"><ele>765.0</ele><time>2026-05-03T11:23:09Z</time></trkpt><trkpt lat="39.1306158793579" lon="16.186829000531645"><ele>765.0</ele><time>2026-05-03T11:23:10Z</time></trkpt><trkpt lat="39.130501654573806" lon="16.186881264318167"><ele>765.0</ele><time>2026-05-03T11:23:11Z</time></trkpt><trkpt lat="39.130413217819836" lon="16.18697016983181"><ele>762.6666666666666</ele><time>2026-05-03T11:23:12Z</time></trkpt><trkpt lat="39.13032369827779" lon="16.187028298928446"><ele>760.3333333333334</ele><time>2026-05-03T11:23:13Z</time></trkpt><trkpt lat="39.13024550174031" lon="16.187081228757528"><ele>758.0</ele><time>2026-05-03T11:23:14Z</time></trkpt><trkpt lat="39.13016019850494" lon="16.187112584308615"><ele>755.6666666666667</ele><time>2026-05-03T11:23:15Z</time></trkpt><trkpt lat="39.13009381780124" lon="16.187180769005543"><ele>753.3333333333334</ele><time>2026-05-03T11:23:16Z</time></trkpt><trkpt lat="39.1300287469204" lon="16.18722222632355"><ele>751.0</ele><time>2026-05-03T11:23:17Z</time></trkpt><trkpt lat="39.12992939326339" lon="16.187201958723318"><ele>751.0</ele><time>2026-05-03T11:23:19Z</time></trkpt><trkpt lat="39.12994829370165" lon="16.187046981434037"><ele>751.0</ele><time>2026-05-03T11:23:21Z</time></trkpt><trkpt lat="39.12999608015839" lon="16.18695394300742"><ele>751.0</ele><time>2026-05-03T11:23:22Z</time></trkpt><trkpt lat="39.13004756409713" lon="16.186826358000612"><ele>751.0</ele><time>2026-05-03T11:23:23Z</time></trkpt><trkpt lat="39.130089902612525" lon="16.186685007296834"><ele>751.0</ele><time>2026-05-03T11:23:24Z</time></trkpt><trkpt lat="39.13016063880069" lon="16.186542030703237"><ele>748.0</ele><time>2026-05-03T11:23:25Z</time></trkpt><trkpt lat="39.130220403585355" lon="16.18639854608027"><ele>745.0</ele><time>2026-05-03T11:23:26Z</time></trkpt><trkpt lat="39.13027049453762" lon="16.186271358893922"><ele>742.0</ele><time>2026-05-03T11:23:27Z</time></trkpt><trkpt lat="39.13033552242045" lon="16.186156107044283"><ele>739.0</ele><time>2026-05-03T11:23:28Z</time></trkpt><trkpt lat="39.130371715626886" lon="16.18603855652761"><ele>736.0</ele><time>2026-05-03T11:23:29Z</time></trkpt><trkpt lat="39.13044063849797" lon="16.185965997528474"><ele>736.0</ele><time>2026-05-03T11:23:30Z</time></trkpt><trkpt lat="39.13052007309705" lon="16.18592299132878"><ele>736.0</ele><time>2026-05-03T11:23:31Z</time></trkpt><trkpt lat="39.13060657376653" lon="16.185892067108632"><ele>736.0</ele><time>2026-05-03T11:23:32Z</time></trkpt><trkpt lat="39.13068690275572" lon="16.18586688462314"><ele>736.0</ele><time>2026-05-03T11:23:33Z</time></trkpt><trkpt lat="39.130759194399765" lon="16.185826108004274"><ele>736.0</ele><time>2026-05-03T11:23:34Z</time></trkpt><trkpt lat="39.13082457738528" lon="16.18578224193971"><ele>736.0</ele><time>2026-05-03T11:23:35Z</time></trkpt><trkpt lat="39.13087438867359" lon="16.18569485726619"><ele>735.5999999999999</ele><time>2026-05-03T11:23:36Z</time></trkpt><trkpt lat="39.13088107660058" lon="16.185550496582792"><ele>735.2</ele><time>2026-05-03T11:23:37Z</time></trkpt><trkpt lat="39.1309286422603" lon="16.185444895735174"><ele>734.8</ele><time>2026-05-03T11:23:38Z</time></trkpt><trkpt lat="39.130991636539385" lon="16.18535286116549"><ele>734.4000000000001</ele><time>2026-05-03T11:23:39Z</time></trkpt><trkpt lat="39.1310971416049" lon="16.18526839710521"><ele>734.0</ele><time>2026-05-03T11:23:40Z</time></trkpt><trkpt lat="39.13121857462419" lon="16.185172081987602"><ele>734.0</ele><time>2026-05-03T11:23:41Z</time></trkpt><trkpt lat="39.13133409284347" lon="16.18509937317127"><ele>734.0</ele><time>2026-05-03T11:23:42Z</time></trkpt><trkpt lat="39.13145284366486" lon="16.18502132845231"><ele>734.0</ele><time>2026-05-03T11:23:43Z</time></trkpt><trkpt lat="39.131571914951834" lon="16.184967642338453"><ele>734.0</ele><time>2026-05-03T11:23:44Z</time></trkpt><trkpt lat="39.13166311436149" lon="16.184894271319"><ele>735.5</ele><time>2026-05-03T11:23:45Z</time></trkpt><trkpt lat="39.13173702266033" lon="16.18478541527352"><ele>737.0</ele><time>2026-05-03T11:23:46Z</time></trkpt><trkpt lat="39.131786661329954" lon="16.18464450625856"><ele>738.5</ele><time>2026-05-03T11:23:47Z</time></trkpt><trkpt lat="39.13185374034698" lon="16.184487478805192"><ele>740.0</ele><time>2026-05-03T11:23:48Z</time></trkpt><trkpt lat="39.13192109274434" lon="16.184311646640218"><ele>740.0</ele><time>2026-05-03T11:23:49Z</time></trkpt><trkpt lat="39.13199533686149" lon="16.184142443380594"><ele>740.0</ele><time>2026-05-03T11:23:50Z</time></trkpt><trkpt lat="39.1320586720817" lon="16.183989622103265"><ele>740.0</ele><time>2026-05-03T11:23:51Z</time></trkpt><trkpt lat="39.13208594542974" lon="16.183840828947034"><ele>740.0</ele><time>2026-05-03T11:23:52Z</time></trkpt><trkpt lat="39.132114264952016" lon="16.183706525861666"><ele>737.25</ele><time>2026-05-03T11:23:53Z</time></trkpt><trkpt lat="39.13211716203153" lon="16.18356839778075"><ele>734.5</ele><time>2026-05-03T11:23:54Z</time></trkpt><trkpt lat="39.13209847535562" lon="16.183417375668427"><ele>731.75</ele><time>2026-05-03T11:23:55Z</time></trkpt><trkpt lat="39.13207721697219" lon="16.183260769878874"><ele>729.0</ele><time>2026-05-03T11:23:56Z</time></trkpt><trkpt lat="39.132053312429754" lon="16.18311355122865"><ele>728.25</ele><time>2026-05-03T11:23:57Z</time></trkpt><trkpt lat="39.132024245181285" lon="16.18295297655362"><ele>727.5</ele><time>2026-05-03T11:23:58Z</time></trkpt><trkpt lat="39.132000434034055" lon="16.182784259730376"><ele>726.75</ele><time>2026-05-03T11:23:59Z</time></trkpt><trkpt lat="39.13198800436177" lon="16.18262456084178"><ele>726.0</ele><time>2026-05-03T11:24:00Z</time></trkpt><trkpt lat="39.131988399994" lon="16.182475244346776"><ele>726.75</ele><time>2026-05-03T11:24:01Z</time></trkpt><trkpt lat="39.131990904299116" lon="16.182312464485268"><ele>727.5</ele><time>2026-05-03T11:24:02Z</time></trkpt><trkpt lat="39.131994769934764" lon="16.18213978293402"><ele>728.25</ele><time>2026-05-03T11:24:03Z</time></trkpt><trkpt lat="39.13200210359891" lon="16.181966186888133"><ele>729.0</ele><time>2026-05-03T11:24:03.999Z</time></trkpt><trkpt lat="39.13200472919792" lon="16.1817982162001"><ele>729.0</ele><time>2026-05-03T11:24:04.999Z</time></trkpt><trkpt lat="39.13200071254266" lon="16.18164366184928"><ele>729.0</ele><time>2026-05-03T11:24:05.999Z</time></trkpt><trkpt lat="39.131986062254384" lon="16.18148225839539"><ele>729.0</ele><time>2026-05-03T11:24:06.999Z</time></trkpt><trkpt lat="39.13196345093076" lon="16.18131577830462"><ele>729.0</ele><time>2026-05-03T11:24:07.999Z</time></trkpt><trkpt lat="39.131937829993234" lon="16.18114986951812"><ele>729.5</ele><time>2026-05-03T11:24:08.999Z</time></trkpt><trkpt lat="39.13190986115588" lon="16.180984402973255"><ele>730.0</ele><time>2026-05-03T11:24:09.999Z</time></trkpt><trkpt lat="39.131881352032735" lon="16.18081574004703"><ele>730.5</ele><time>2026-05-03T11:24:10.999Z</time></trkpt><trkpt lat="39.13185213498908" lon="16.180649310701664"><ele>731.0</ele><time>2026-05-03T11:24:11.999Z</time></trkpt><trkpt lat="39.13182199302105" lon="16.18048172669326"><ele>731.25</ele><time>2026-05-03T11:24:12.999Z</time></trkpt><trkpt lat="39.131784288412206" lon="16.180316491061806"><ele>731.5</ele><time>2026-05-03T11:24:13.999Z</time></trkpt><trkpt lat="39.131734118002775" lon="16.180162728892757"><ele>731.75</ele><time>2026-05-03T11:24:14.999Z</time></trkpt><trkpt lat="39.13167963249605" lon="16.18001369166228"><ele>732.0</ele><time>2026-05-03T11:24:15.999Z</time></trkpt><trkpt lat="39.13162869469678" lon="16.179872502848283"><ele>730.3333333333334</ele><time>2026-05-03T11:24:16.999Z</time></trkpt><trkpt lat="39.131589358368544" lon="16.179763470903673"><ele>728.6666666666666</ele><time>2026-05-03T11:24:17.999Z</time></trkpt><trkpt lat="39.13154818697214" lon="16.179693572957"><ele>727.0</ele><time>2026-05-03T11:24:18.999Z</time></trkpt><trkpt lat="39.13151772773945" lon="16.179593461408366"><ele>725.3333333333333</ele><time>2026-05-03T11:24:20.999Z</time></trkpt><trkpt lat="39.13149747894025" lon="16.17951416880362"><ele>723.6666666666666</ele><time>2026-05-03T11:24:22.999Z</time></trkpt><trkpt lat="39.13143367756615" lon="16.179555913367142"><ele>722.0</ele><time>2026-05-03T11:24:32Z</time></trkpt><trkpt lat="39.13136979039834" lon="16.17950962591651"><ele>722.0</ele><time>2026-05-03T11:24:33Z</time></trkpt><trkpt lat="39.13158111760969" lon="16.179766900025868"><ele>722.0</ele><time>2026-05-03T11:24:34Z</time></trkpt><trkpt lat="39.13159906162308" lon="16.179863598498116"><ele>722.0</ele><time>2026-05-03T11:24:35Z</time></trkpt><trkpt lat="39.131634843585516" lon="16.179957258331783"><ele>722.0</ele><time>2026-05-03T11:24:36Z</time></trkpt><trkpt lat="39.13167337912778" lon="16.180051602353345"><ele>723.6666666666666</ele><time>2026-05-03T11:24:37Z</time></trkpt><trkpt lat="39.13171291422479" lon="16.18012594114039"><ele>725.3333333333333</ele><time>2026-05-03T11:24:38Z</time></trkpt><trkpt lat="39.13174855001807" lon="16.180239254374097"><ele>727.0</ele><time>2026-05-03T11:24:40Z</time></trkpt><trkpt lat="39.13177570162154" lon="16.180334556379357"><ele>728.6666666666666</ele><time>2026-05-03T11:24:42Z</time></trkpt><trkpt lat="39.13173918039371" lon="16.18042193095163"><ele>730.3333333333334</ele><time>2026-05-03T11:24:46Z</time></trkpt><trkpt lat="39.13168358043148" lon="16.180360734196828"><ele>732.0</ele><time>2026-05-03T11:24:48Z</time></trkpt><trkpt lat="39.13172684706497" lon="16.180142895250206"><ele>732.0</ele><time>2026-05-03T11:24:51Z</time></trkpt><trkpt lat="39.131698215228845" lon="16.18006479351645"><ele>732.0</ele><time>2026-05-03T11:24:52Z</time></trkpt><trkpt lat="39.13166549524295" lon="16.179974506185513"><ele>732.0</ele><time>2026-05-03T11:24:53Z</time></trkpt><trkpt lat="39.13163387067344" lon="16.179886849550044"><ele>732.0</ele><time>2026-05-03T11:24:54Z</time></trkpt><trkpt lat="39.13160635008753" lon="16.179810568323937"><ele>732.0</ele><time>2026-05-03T11:24:55Z</time></trkpt><trkpt lat="39.13155402563477" lon="16.17966660964227"><ele>732.0</ele><time>2026-05-03T11:24:57Z</time></trkpt><trkpt lat="39.13152461006995" lon="16.17958641008035"><ele>726.6</ele><time>2026-05-03T11:24:58Z</time></trkpt><trkpt lat="39.13149627398475" lon="16.179509154850518"><ele>721.2</ele><time>2026-05-03T11:24:59Z</time></trkpt><trkpt lat="39.13146529162183" lon="16.179367747033762"><ele>715.8</ele><time>2026-05-03T11:25:01Z</time></trkpt><trkpt lat="39.13143955007041" lon="16.179269404684028"><ele>710.4</ele><time>2026-05-03T11:25:02Z</time></trkpt><trkpt lat="39.13140365539328" lon="16.179101251722816"><ele>705.0</ele><time>2026-05-03T11:25:04Z</time></trkpt><trkpt lat="39.131347867981674" lon="16.178954542736925"><ele>701.0</ele><time>2026-05-03T11:25:06Z</time></trkpt><trkpt lat="39.130840513873764" lon="16.179012317608862"><ele>701.0</ele><time>2026-05-03T11:25:07Z</time></trkpt><trkpt lat="39.13074523744451" lon="16.178933530420142"><ele>701.0</ele><time>2026-05-03T11:25:09Z</time></trkpt><trkpt lat="39.13069479415295" lon="16.17898841481981"><ele>701.0</ele><time>2026-05-03T11:25:11Z</time></trkpt><trkpt lat="39.13070075067402" lon="16.179146331444205"><ele>701.0</ele><time>2026-05-03T11:25:13Z</time></trkpt><trkpt lat="39.13072973638031" lon="16.17927410028559"><ele>701.0</ele><time>2026-05-03T11:25:14Z</time></trkpt><trkpt lat="39.130762312140256" lon="16.179410219908057"><ele>701.5999999999999</ele><time>2026-05-03T11:25:15Z</time></trkpt><trkpt lat="39.13079227698559" lon="16.179518145782346"><ele>702.2</ele><time>2026-05-03T11:25:16Z</time></trkpt><trkpt lat="39.13080511076804" lon="16.179634909343267"><ele>702.8</ele><time>2026-05-03T11:25:17Z</time></trkpt><trkpt lat="39.13080963025724" lon="16.17977121727243"><ele>703.4000000000001</ele><time>2026-05-03T11:25:18Z</time></trkpt><trkpt lat="39.13080245800072" lon="16.179907326361313"><ele>704.0</ele><time>2026-05-03T11:25:19Z</time></trkpt><trkpt lat="39.13079476209763" lon="16.180027295659507"><ele>704.0</ele><time>2026-05-03T11:25:20Z</time></trkpt><trkpt lat="39.130790874569655" lon="16.180119405461436"><ele>704.0</ele><time>2026-05-03T11:25:21Z</time></trkpt><trkpt lat="39.130797471551084" lon="16.180229679400227"><ele>704.0</ele><time>2026-05-03T11:25:22Z</time></trkpt><trkpt lat="39.13081496096129" lon="16.180350059260885"><ele>704.0</ele><time>2026-05-03T11:25:23Z</time></trkpt><trkpt lat="39.130818449734605" lon="16.180455457529"><ele>704.0</ele><time>2026-05-03T11:25:24Z</time></trkpt><trkpt lat="39.1307600832227" lon="16.18063027229089"><ele>703.5</ele><time>2026-05-03T11:25:26Z</time></trkpt><trkpt lat="39.13070195892482" lon="16.180744283453304"><ele>703.0</ele><time>2026-05-03T11:25:27Z</time></trkpt><trkpt lat="39.13068650778764" lon="16.180832550772067"><ele>702.5</ele><time>2026-05-03T11:25:28Z</time></trkpt><trkpt lat="39.13075963613601" lon="16.18100869852696"><ele>702.0</ele><time>2026-05-03T11:25:30Z</time></trkpt><trkpt lat="39.13082129948588" lon="16.181153648114407"><ele>702.0</ele><time>2026-05-03T11:25:31Z</time></trkpt><trkpt lat="39.13085235474918" lon="16.181263733620394"><ele>702.0</ele><time>2026-05-03T11:25:32Z</time></trkpt><trkpt lat="39.13087647664934" lon="16.181366173642164"><ele>702.0</ele><time>2026-05-03T11:25:33Z</time></trkpt><trkpt lat="39.13090116735993" lon="16.181457141241506"><ele>702.0</ele><time>2026-05-03T11:25:34Z</time></trkpt><trkpt lat="39.13091368213956" lon="16.181539321368575"><ele>702.0</ele><time>2026-05-03T11:25:35Z</time></trkpt><trkpt lat="39.130930664322754" lon="16.181645687517065"><ele>702.0</ele><time>2026-05-03T11:25:36Z</time></trkpt><trkpt lat="39.13093259805358" lon="16.18177734649592"><ele>701.0</ele><time>2026-05-03T11:25:37Z</time></trkpt><trkpt lat="39.13091192348548" lon="16.181892936273787"><ele>700.0</ele><time>2026-05-03T11:25:38Z</time></trkpt><trkpt lat="39.13084176857104" lon="16.18199097524514"><ele>699.0</ele><time>2026-05-03T11:25:40Z</time></trkpt><trkpt lat="39.13075681884537" lon="16.182025750389837"><ele>698.0</ele><time>2026-05-03T11:25:41Z</time></trkpt><trkpt lat="39.13064576369142" lon="16.18203092418214"><ele>697.0</ele><time>2026-05-03T11:25:42Z</time></trkpt><trkpt lat="39.13054992318685" lon="16.182034395626243"><ele>693.8</ele><time>2026-05-03T11:25:43Z</time></trkpt><trkpt lat="39.13047219706947" lon="16.18201123734388"><ele>690.6</ele><time>2026-05-03T11:25:44Z</time></trkpt><trkpt lat="39.13038318542949" lon="16.181950463861043"><ele>687.4</ele><time>2026-05-03T11:25:45Z</time></trkpt><trkpt lat="39.13027637816174" lon="16.18186512104003"><ele>684.1999999999999</ele><time>2026-05-03T11:25:46Z</time></trkpt><trkpt lat="39.130175051776156" lon="16.181796557695407"><ele>681.0</ele><time>2026-05-03T11:25:47Z</time></trkpt><trkpt lat="39.13009239542829" lon="16.181728760497144"><ele>681.0</ele><time>2026-05-03T11:25:48Z</time></trkpt><trkpt lat="39.130003458299626" lon="16.181653782095108"><ele>681.0</ele><time>2026-05-03T11:25:49Z</time></trkpt><trkpt lat="39.12991745581626" lon="16.181583699395695"><ele>681.0</ele><time>2026-05-03T11:25:50Z</time></trkpt><trkpt lat="39.1298375222043" lon="16.181521316510267"><ele>681.0</ele><time>2026-05-03T11:25:51Z</time></trkpt><trkpt lat="39.12976496680822" lon="16.181447075092155"><ele>681.0</ele><time>2026-05-03T11:25:52Z</time></trkpt><trkpt lat="39.12969976913816" lon="16.181380629168327"><ele>678.5</ele><time>2026-05-03T11:25:53Z</time></trkpt><trkpt lat="39.12967613043477" lon="16.181304738484894"><ele>676.0</ele><time>2026-05-03T11:25:54Z</time></trkpt><trkpt lat="39.12967152744412" lon="16.18118039902466"><ele>673.5</ele><time>2026-05-03T11:25:55Z</time></trkpt><trkpt lat="39.12966720885547" lon="16.181067724178543"><ele>671.0</ele><time>2026-05-03T11:25:56Z</time></trkpt><trkpt lat="39.12966047241712" lon="16.1809827245639"><ele>668.5</ele><time>2026-05-03T11:25:57Z</time></trkpt><trkpt lat="39.129579036452434" lon="16.180959442733766"><ele>666.0</ele><time>2026-05-03T11:25:59Z</time></trkpt><trkpt lat="39.12946016001447" lon="16.180977167665613"><ele>666.0</ele><time>2026-05-03T11:26:01Z</time></trkpt><trkpt lat="39.12937970294296" lon="16.181027216245678"><ele>666.0</ele><time>2026-05-03T11:26:02Z</time></trkpt><trkpt lat="39.129308478889044" lon="16.18109079411328"><ele>666.0</ele><time>2026-05-03T11:26:02.999Z</time></trkpt><trkpt lat="39.12925561874052" lon="16.181192174387313"><ele>666.0</ele><time>2026-05-03T11:26:04.999Z</time></trkpt><trkpt lat="39.12922004377523" lon="16.181310521576467"><ele>666.0</ele><time>2026-05-03T11:26:05.999Z</time></trkpt><trkpt lat="39.12919474557326" lon="16.18141153867616"><ele>666.0</ele><time>2026-05-03T11:26:06.999Z</time></trkpt><trkpt lat="39.12914241348681" lon="16.18145873943255"><ele>666.0</ele><time>2026-05-03T11:26:07.999Z</time></trkpt><trkpt lat="39.12907721348054" lon="16.181483025430996"><ele>666.0</ele><time>2026-05-03T11:26:08.999Z</time></trkpt><trkpt lat="39.128994263134544" lon="16.181513431228435"><ele>666.0</ele><time>2026-05-03T11:26:09.999Z</time></trkpt><trkpt lat="39.12892737526331" lon="16.181528289884167"><ele>666.0</ele><time>2026-05-03T11:26:10.999Z</time></trkpt><trkpt lat="39.128786338645895" lon="16.181510713325867"><ele>666.0</ele><time>2026-05-03T11:26:12.999Z</time></trkpt><trkpt lat="39.12872055372045" lon="16.181476526835542"><ele>663.6666666666666</ele><time>2026-05-03T11:26:13.999Z</time></trkpt><trkpt lat="39.128611150105634" lon="16.181387903906554"><ele>661.3333333333334</ele><time>2026-05-03T11:26:15.999Z</time></trkpt><trkpt lat="39.128551779549724" lon="16.181342406155533"><ele>659.0</ele><time>2026-05-03T11:26:16.999Z</time></trkpt><trkpt lat="39.12849135667758" lon="16.18131737793483"><ele>656.6666666666667</ele><time>2026-05-03T11:26:17.999Z</time></trkpt><trkpt lat="39.128408954381435" lon="16.181327997672074"><ele>654.3333333333334</ele><time>2026-05-03T11:26:19.999Z</time></trkpt><trkpt lat="39.12833456110688" lon="16.181329895987933"><ele>652.0</ele><time>2026-05-03T11:26:21.999Z</time></trkpt><trkpt lat="39.12825141797313" lon="16.181301310821972"><ele>649.1666666666667</ele><time>2026-05-03T11:26:24.999Z</time></trkpt><trkpt lat="39.128161722580295" lon="16.181252192995952"><ele>646.3333333333334</ele><time>2026-05-03T11:26:27.999Z</time></trkpt><trkpt lat="39.128090256678796" lon="16.181209382913362"><ele>643.5</ele><time>2026-05-03T11:26:29.999Z</time></trkpt><trkpt lat="39.12803046416251" lon="16.181249661298157"><ele>640.6666666666666</ele><time>2026-05-03T11:26:31.999Z</time></trkpt><trkpt lat="39.12797775938662" lon="16.1812964612006"><ele>637.8333333333333</ele><time>2026-05-03T11:26:33.999Z</time></trkpt><trkpt lat="39.12790199847196" lon="16.181370346033635"><ele>635.0</ele><time>2026-05-03T11:26:35.999Z</time></trkpt><trkpt lat="39.12785937313489" lon="16.181435711808412"><ele>635.0</ele><time>2026-05-03T11:26:38Z</time></trkpt><trkpt lat="39.12777707058225" lon="16.181525879675227"><ele>635.0</ele><time>2026-05-03T11:26:40Z</time></trkpt><trkpt lat="39.127713735684615" lon="16.181547378242215"><ele>635.0</ele><time>2026-05-03T11:26:41Z</time></trkpt><trkpt lat="39.12761807248155" lon="16.181519717108877"><ele>635.0</ele><time>2026-05-03T11:26:43Z</time></trkpt><trkpt lat="39.12753761507366" lon="16.181481089092536"><ele>635.0</ele><time>2026-05-03T11:26:44Z</time></trkpt><trkpt lat="39.127505252777276" lon="16.181377765030685"><ele>635.0</ele><time>2026-05-03T11:26:45Z</time></trkpt><trkpt lat="39.12748128864623" lon="16.181247639142036"><ele>635.0</ele><time>2026-05-03T11:26:46Z</time></trkpt><trkpt lat="39.12746971916269" lon="16.181118633131383"><ele>635.0</ele><time>2026-05-03T11:26:47Z</time></trkpt><trkpt lat="39.127458309673784" lon="16.18098948302424"><ele>635.0</ele><time>2026-05-03T11:26:48Z</time></trkpt><trkpt lat="39.12744684302411" lon="16.18088373559408"><ele>635.0</ele><time>2026-05-03T11:26:49Z</time></trkpt><trkpt lat="39.12744036572931" lon="16.18077802013891"><ele>635.0</ele><time>2026-05-03T11:26:50Z</time></trkpt><trkpt lat="39.127442251064565" lon="16.18067382632292"><ele>635.0</ele><time>2026-05-03T11:26:51Z</time></trkpt><trkpt lat="39.127434295208296" lon="16.180580617195766"><ele>633.6666666666666</ele><time>2026-05-03T11:26:52Z</time></trkpt><trkpt lat="39.127412878812315" lon="16.180474260463516"><ele>632.3333333333333</ele><time>2026-05-03T11:26:53Z</time></trkpt><trkpt lat="39.1273962024834" lon="16.180344480033433"><ele>631.0</ele><time>2026-05-03T11:26:54Z</time></trkpt><trkpt lat="39.1273789727793" lon="16.18023887642955"><ele>629.6666666666666</ele><time>2026-05-03T11:26:55Z</time></trkpt><trkpt lat="39.12734632698557" lon="16.180147534779934"><ele>628.3333333333334</ele><time>2026-05-03T11:26:56Z</time></trkpt><trkpt lat="39.12732144556223" lon="16.180065542954274"><ele>627.0</ele><time>2026-05-03T11:26:57Z</time></trkpt><trkpt lat="39.127300195424176" lon="16.179982968658315"><ele>620.6</ele><time>2026-05-03T11:26:58Z</time></trkpt><trkpt lat="39.1272808254195" lon="16.179903820894914"><ele>614.2</ele><time>2026-05-03T11:26:59Z</time></trkpt><trkpt lat="39.1272239683151" lon="16.17983646868665"><ele>607.8</ele><time>2026-05-03T11:27:01Z</time></trkpt><trkpt lat="39.127138377222906" lon="16.17989943221065"><ele>601.4</ele><time>2026-05-03T11:27:03Z</time></trkpt><trkpt lat="39.127108082430304" lon="16.18008590378342"><ele>595.0</ele><time>2026-05-03T11:27:05Z</time></trkpt><trkpt lat="39.127117610366554" lon="16.180204569040605"><ele>595.0</ele><time>2026-05-03T11:27:06Z</time></trkpt><trkpt lat="39.127133706585596" lon="16.180299638837802"><ele>595.0</ele><time>2026-05-03T11:27:07Z</time></trkpt><trkpt lat="39.12713779249082" lon="16.180396475164546"><ele>595.0</ele><time>2026-05-03T11:27:08Z</time></trkpt><trkpt lat="39.127160568438676" lon="16.180484733000494"><ele>595.0</ele><time>2026-05-03T11:27:09Z</time></trkpt><trkpt lat="39.12717156532764" lon="16.18057493704232"><ele>595.0</ele><time>2026-05-03T11:27:10Z</time></trkpt><trkpt lat="39.12714305369994" lon="16.18072846388456"><ele>595.0</ele><time>2026-05-03T11:27:12Z</time></trkpt><trkpt lat="39.127086341961615" lon="16.18083133415733"><ele>594.3333333333334</ele><time>2026-05-03T11:27:13Z</time></trkpt><trkpt lat="39.12702759603772" lon="16.180906020588736"><ele>593.6666666666667</ele><time>2026-05-03T11:27:14Z</time></trkpt><trkpt lat="39.12697718748736" lon="16.18104107038011"><ele>593.0</ele><time>2026-05-03T11:27:16Z</time></trkpt><trkpt lat="39.12693029159121" lon="16.18110830733443"><ele>592.3333333333334</ele><time>2026-05-03T11:27:18Z</time></trkpt><trkpt lat="39.12686314443529" lon="16.181023533058397"><ele>591.6666666666666</ele><time>2026-05-03T11:27:20Z</time></trkpt><trkpt lat="39.12684327979853" lon="16.180924762897753"><ele>591.0</ele><time>2026-05-03T11:27:21Z</time></trkpt><trkpt lat="39.12683890473818" lon="16.1807950896957"><ele>591.8</ele><time>2026-05-03T11:27:22Z</time></trkpt><trkpt lat="39.12682555075262" lon="16.180670578425193"><ele>592.6</ele><time>2026-05-03T11:27:23Z</time></trkpt><trkpt lat="39.12679737300291" lon="16.180572284290346"><ele>593.4</ele><time>2026-05-03T11:27:24Z</time></trkpt><trkpt lat="39.12677093489667" lon="16.180494454381947"><ele>594.2</ele><time>2026-05-03T11:27:25Z</time></trkpt><trkpt lat="39.126781910009875" lon="16.18032599663133"><ele>595.0</ele><time>2026-05-03T11:27:27Z</time></trkpt><trkpt lat="39.12680298336693" lon="16.180204813949384"><ele>595.0</ele><time>2026-05-03T11:27:28Z</time></trkpt><trkpt lat="39.12680192408643" lon="16.18006213776376"><ele>595.0</ele><time>2026-05-03T11:27:29Z</time></trkpt><trkpt lat="39.12676803923938" lon="16.179923820646238"><ele>595.0</ele><time>2026-05-03T11:27:30Z</time></trkpt><trkpt lat="39.12672509458086" lon="16.179779014476022"><ele>595.0</ele><time>2026-05-03T11:27:31Z</time></trkpt><trkpt lat="39.12669993033302" lon="16.17964966151172"><ele>595.0</ele><time>2026-05-03T11:27:32Z</time></trkpt><trkpt lat="39.12667622602229" lon="16.179521534714745"><ele>594.1666666666667</ele><time>2026-05-03T11:27:33Z</time></trkpt><trkpt lat="39.126660378552984" lon="16.179396649029492"><ele>593.3333333333334</ele><time>2026-05-03T11:27:34Z</time></trkpt><trkpt lat="39.12665324248718" lon="16.17927697828949"><ele>592.5</ele><time>2026-05-03T11:27:35Z</time></trkpt><trkpt lat="39.12665473879115" lon="16.179161476362406"><ele>591.6666666666666</ele><time>2026-05-03T11:27:36Z</time></trkpt><trkpt lat="39.12667006707273" lon="16.179067191536493"><ele>590.8333333333333</ele><time>2026-05-03T11:27:37Z</time></trkpt><trkpt lat="39.12669527370393" lon="16.178985501667228"><ele>590.0</ele><time>2026-05-03T11:27:38Z</time></trkpt><trkpt lat="39.1267266707212" lon="16.178909504104233"><ele>589.0</ele><time>2026-05-03T11:27:39Z</time></trkpt><trkpt lat="39.12676540700959" lon="16.17879824292289"><ele>588.0</ele><time>2026-05-03T11:27:40Z</time></trkpt><trkpt lat="39.12680852661638" lon="16.17870111741397"><ele>587.0</ele><time>2026-05-03T11:27:41Z</time></trkpt><trkpt lat="39.12684601157484" lon="16.178619146202994"><ele>586.0</ele><time>2026-05-03T11:27:42Z</time></trkpt><trkpt lat="39.126883315559596" lon="16.17851931021795"><ele>585.0</ele><time>2026-05-03T11:27:43Z</time></trkpt><trkpt lat="39.12691973262274" lon="16.17843543256061"><ele>584.0</ele><time>2026-05-03T11:27:44Z</time></trkpt><trkpt lat="39.1270225655121" lon="16.17832073408069"><ele>584.0</ele><time>2026-05-03T11:27:46Z</time></trkpt><trkpt lat="39.12711472360262" lon="16.178230810166482"><ele>584.0</ele><time>2026-05-03T11:27:47Z</time></trkpt><trkpt lat="39.1271803146393" lon="16.178161229781647"><ele>584.0</ele><time>2026-05-03T11:27:48Z</time></trkpt><trkpt lat="39.127212126857195" lon="16.178054232402484"><ele>584.0</ele><time>2026-05-03T11:27:50Z</time></trkpt><trkpt lat="39.127191080944435" lon="16.177933029967534"><ele>584.0</ele><time>2026-05-03T11:27:52Z</time></trkpt><trkpt lat="39.127136085083244" lon="16.177891704993897"><ele>584.0</ele><time>2026-05-03T11:27:53Z</time></trkpt><trkpt lat="39.12705487214011" lon="16.177878589467"><ele>581.8333333333333</ele><time>2026-05-03T11:27:54Z</time></trkpt><trkpt lat="39.12697816009674" lon="16.177902551548073"><ele>579.6666666666666</ele><time>2026-05-03T11:27:55Z</time></trkpt><trkpt lat="39.126903771826186" lon="16.177954710768866"><ele>577.5</ele><time>2026-05-03T11:27:56Z</time></trkpt><trkpt lat="39.12684251012349" lon="16.178018171759707"><ele>575.3333333333334</ele><time>2026-05-03T11:27:57Z</time></trkpt><trkpt lat="39.12678492809461" lon="16.17807274060383"><ele>573.1666666666667</ele><time>2026-05-03T11:27:58Z</time></trkpt><trkpt lat="39.12667865230225" lon="16.178151106606343"><ele>571.0</ele><time>2026-05-03T11:28:00Z</time></trkpt><trkpt lat="39.12661416447897" lon="16.178147614208243"><ele>566.5</ele><time>2026-05-03T11:28:00.999Z</time></trkpt><trkpt lat="39.126550702040724" lon="16.17811882478211"><ele>562.0</ele><time>2026-05-03T11:28:01.999Z</time></trkpt><trkpt lat="39.12649281509682" lon="16.17807203796428"><ele>557.5</ele><time>2026-05-03T11:28:02.999Z</time></trkpt><trkpt lat="39.12644801219924" lon="16.177976557455125"><ele>553.0</ele><time>2026-05-03T11:28:03.999Z</time></trkpt><trkpt lat="39.126407236580945" lon="16.177868261729138"><ele>548.5</ele><time>2026-05-03T11:28:04.999Z</time></trkpt><trkpt lat="39.12636269044132" lon="16.17778364961115"><ele>544.0</ele><time>2026-05-03T11:28:05.999Z</time></trkpt><trkpt lat="39.12631597621658" lon="16.17771067386164"><ele>544.0</ele><time>2026-05-03T11:28:06.999Z</time></trkpt><trkpt lat="39.12628190775301" lon="16.177642035827553"><ele>544.0</ele><time>2026-05-03T11:28:07.999Z</time></trkpt><trkpt lat="39.126252980799684" lon="16.17756512088818"><ele>544.0</ele><time>2026-05-03T11:28:08.999Z</time></trkpt><trkpt lat="39.12626160429519" lon="16.17745459637359"><ele>544.0</ele><time>2026-05-03T11:28:10.999Z</time></trkpt><trkpt lat="39.12637168764292" lon="16.177404031560567"><ele>544.0</ele><time>2026-05-03T11:28:12.999Z</time></trkpt><trkpt lat="39.12645559758969" lon="16.177396719810666"><ele>544.0</ele><time>2026-05-03T11:28:13.999Z</time></trkpt><trkpt lat="39.126535167711666" lon="16.177397110048844"><ele>543.8333333333334</ele><time>2026-05-03T11:28:14.999Z</time></trkpt><trkpt lat="39.12660090031897" lon="16.1773885358402"><ele>543.6666666666667</ele><time>2026-05-03T11:28:15.999Z</time></trkpt><trkpt lat="39.12666564616672" lon="16.177375951868996"><ele>543.5</ele><time>2026-05-03T11:28:16.999Z</time></trkpt><trkpt lat="39.12669670573729" lon="16.177297660723173"><ele>543.3333333333334</ele><time>2026-05-03T11:28:19.999Z</time></trkpt><trkpt lat="39.12665167839016" lon="16.17721264729626"><ele>543.1666666666666</ele><time>2026-05-03T11:28:21.999Z</time></trkpt><trkpt lat="39.126566353502334" lon="16.177189725884002"><ele>543.0</ele><time>2026-05-03T11:28:22.999Z</time></trkpt><trkpt lat="39.12647078131705" lon="16.17716822274424"><ele>539.1666666666666</ele><time>2026-05-03T11:28:23.999Z</time></trkpt><trkpt lat="39.126389498478034" lon="16.177139365782715"><ele>535.3333333333334</ele><time>2026-05-03T11:28:24.999Z</time></trkpt><trkpt lat="39.1262638282308" lon="16.177110048472628"><ele>531.5</ele><time>2026-05-03T11:28:26.999Z</time></trkpt><trkpt lat="39.12619618415698" lon="16.177089653706613"><ele>527.6666666666667</ele><time>2026-05-03T11:28:27.999Z</time></trkpt><trkpt lat="39.12612693138412" lon="16.177083354576713"><ele>523.8333333333334</ele><time>2026-05-03T11:28:28.999Z</time></trkpt><trkpt lat="39.126058559968016" lon="16.177081236785234"><ele>520.0</ele><time>2026-05-03T11:28:29.999Z</time></trkpt><trkpt lat="39.125956379544085" lon="16.177072502469564"><ele>520.0</ele><time>2026-05-03T11:28:31.999Z</time></trkpt><trkpt lat="39.125837593925986" lon="16.177172968472455"><ele>520.0</ele><time>2026-05-03T11:28:33.999Z</time></trkpt><trkpt lat="39.12576954757859" lon="16.177313819549386"><ele>520.0</ele><time>2026-05-03T11:28:35.999Z</time></trkpt><trkpt lat="39.125720172220646" lon="16.177419092603394"><ele>520.0</ele><time>2026-05-03T11:28:36.999Z</time></trkpt><trkpt lat="39.12569257671973" lon="16.17749737427536"><ele>520.0</ele><time>2026-05-03T11:28:37.999Z</time></trkpt><trkpt lat="39.12567414700503" lon="16.177580928050713"><ele>519.1666666666667</ele><time>2026-05-03T11:28:38.999Z</time></trkpt><trkpt lat="39.12567558836068" lon="16.177666281733305"><ele>518.3333333333334</ele><time>2026-05-03T11:28:39.999Z</time></trkpt><trkpt lat="39.125677795622" lon="16.177786138085"><ele>517.5</ele><time>2026-05-03T11:28:40.999Z</time></trkpt><trkpt lat="39.125660870114366" lon="16.177901797639908"><ele>516.6666666666666</ele><time>2026-05-03T11:28:41.999Z</time></trkpt><trkpt lat="39.12563489091773" lon="16.17799592045531"><ele>515.8333333333333</ele><time>2026-05-03T11:28:43Z</time></trkpt><trkpt lat="39.12561382814467" lon="16.17807510809973"><ele>515.0</ele><time>2026-05-03T11:28:44Z</time></trkpt><trkpt lat="39.12562384327881" lon="16.17823849116303"><ele>515.0</ele><time>2026-05-03T11:28:46Z</time></trkpt><trkpt lat="39.12563533915675" lon="16.17832791752218"><ele>515.0</ele><time>2026-05-03T11:28:47Z</time></trkpt><trkpt lat="39.12563259607909" lon="16.178412200270177"><ele>515.0</ele><time>2026-05-03T11:28:48Z</time></trkpt><trkpt lat="39.12562062506597" lon="16.17850850780398"><ele>515.0</ele><time>2026-05-03T11:28:49Z</time></trkpt><trkpt lat="39.125602344675805" lon="16.178618040885425"><ele>515.0</ele><time>2026-05-03T11:28:50Z</time></trkpt><trkpt lat="39.125584669400226" lon="16.17870378740735"><ele>515.0</ele><time>2026-05-03T11:28:51Z</time></trkpt><trkpt lat="39.12558371961871" lon="16.178799434015783"><ele>515.0</ele><time>2026-05-03T11:28:52Z</time></trkpt><trkpt lat="39.12559098088272" lon="16.17890849959376"><ele>515.0</ele><time>2026-05-03T11:28:53Z</time></trkpt><trkpt lat="39.12559480400036" lon="16.17901321818768"><ele>515.0</ele><time>2026-05-03T11:28:54Z</time></trkpt><trkpt lat="39.125601468313704" lon="16.179122341683417"><ele>515.0</ele><time>2026-05-03T11:28:55Z</time></trkpt><trkpt lat="39.125609804680245" lon="16.179210493604735"><ele>515.0</ele><time>2026-05-03T11:28:56Z</time></trkpt><trkpt lat="39.12562040497553" lon="16.179292290333887"><ele>515.0</ele><time>2026-05-03T11:28:57Z</time></trkpt><trkpt lat="39.12559695411386" lon="16.17938011637067"><ele>515.0</ele><time>2026-05-03T11:28:59Z</time></trkpt><trkpt lat="39.12551870963768" lon="16.179341028551537"><ele>515.0</ele><time>2026-05-03T11:29:01Z</time></trkpt><trkpt lat="39.125504255005964" lon="16.179251969954443"><ele>515.0</ele><time>2026-05-03T11:29:02Z</time></trkpt><trkpt lat="39.12550000756442" lon="16.179148987872498"><ele>515.0</ele><time>2026-05-03T11:29:03Z</time></trkpt><trkpt lat="39.125491369031764" lon="16.17901424128105"><ele>515.0</ele><time>2026-05-03T11:29:04Z</time></trkpt><trkpt lat="39.12546335349589" lon="16.17889455863752"><ele>515.0</ele><time>2026-05-03T11:29:05Z</time></trkpt><trkpt lat="39.125420231190056" lon="16.178808398345375"><ele>515.0</ele><time>2026-05-03T11:29:06Z</time></trkpt><trkpt lat="39.125369584565306" lon="16.17871155445441"><ele>515.0</ele><time>2026-05-03T11:29:07Z</time></trkpt><trkpt lat="39.12533054467683" lon="16.178615719018843"><ele>515.0</ele><time>2026-05-03T11:29:08Z</time></trkpt><trkpt lat="39.12530288975067" lon="16.178521552253212"><ele>515.0</ele><time>2026-05-03T11:29:09Z</time></trkpt><trkpt lat="39.125271739200706" lon="16.178405136385177"><ele>515.0</ele><time>2026-05-03T11:29:10Z</time></trkpt><trkpt lat="39.12524016606288" lon="16.178270489333478"><ele>515.0</ele><time>2026-05-03T11:29:11Z</time></trkpt><trkpt lat="39.125216863235" lon="16.178146973094993"><ele>513.3333333333333</ele><time>2026-05-03T11:29:12Z</time></trkpt><trkpt lat="39.12518558031069" lon="16.178033541168233"><ele>511.66666666666663</ele><time>2026-05-03T11:29:13Z</time></trkpt><trkpt lat="39.12515475711515" lon="16.177933914545637"><ele>510.0</ele><time>2026-05-03T11:29:14Z</time></trkpt><trkpt lat="39.125135138683575" lon="16.17783274232671"><ele>508.33333333333337</ele><time>2026-05-03T11:29:15Z</time></trkpt><trkpt lat="39.12511473425682" lon="16.177725898694668"><ele>506.6666666666667</ele><time>2026-05-03T11:29:16Z</time></trkpt><trkpt lat="39.12509538215679" lon="16.17763134754268"><ele>505.0</ele><time>2026-05-03T11:29:17Z</time></trkpt><trkpt lat="39.125075432628044" lon="16.177528088770572"><ele>505.00000000000006</ele><time>2026-05-03T11:29:18Z</time></trkpt><trkpt lat="39.12506463254308" lon="16.177425730730235"><ele>505.0</ele><time>2026-05-03T11:29:19Z</time></trkpt><trkpt lat="39.12505224060199" lon="16.177328689000337"><ele>505.0</ele><time>2026-05-03T11:29:20Z</time></trkpt><trkpt lat="39.12503555387823" lon="16.177228291494597"><ele>505.0</ele><time>2026-05-03T11:29:21Z</time></trkpt><trkpt lat="39.12501909182363" lon="16.177133861901982"><ele>505.00000000000006</ele><time>2026-05-03T11:29:22Z</time></trkpt><trkpt lat="39.12500923495916" lon="16.177039583726742"><ele>505.0</ele><time>2026-05-03T11:29:23Z</time></trkpt><trkpt lat="39.12501320241174" lon="16.176955595659564"><ele>502.6666666666667</ele><time>2026-05-03T11:29:24Z</time></trkpt><trkpt lat="39.1250283870329" lon="16.176847377594104"><ele>500.33333333333337</ele><time>2026-05-03T11:29:25Z</time></trkpt><trkpt lat="39.125050728766894" lon="16.176750854358396"><ele>498.0</ele><time>2026-05-03T11:29:26Z</time></trkpt><trkpt lat="39.1250605179577" lon="16.176644754151837"><ele>495.66666666666663</ele><time>2026-05-03T11:29:27Z</time></trkpt><trkpt lat="39.12505661213891" lon="16.17652718574444"><ele>493.3333333333333</ele><time>2026-05-03T11:29:28Z</time></trkpt><trkpt lat="39.12505059156105" lon="16.176428058338306"><ele>491.0</ele><time>2026-05-03T11:29:29Z</time></trkpt><trkpt lat="39.12505537124598" lon="16.176323076605758"><ele>488.8</ele><time>2026-05-03T11:29:30Z</time></trkpt><trkpt lat="39.12507533698657" lon="16.176214657074695"><ele>486.6</ele><time>2026-05-03T11:29:31Z</time></trkpt><trkpt lat="39.125091235957214" lon="16.176108312743526"><ele>484.4</ele><time>2026-05-03T11:29:32Z</time></trkpt><trkpt lat="39.12511008105642" lon="16.17595595784931"><ele>482.2</ele><time>2026-05-03T11:29:33Z</time></trkpt><trkpt lat="39.125120948451226" lon="16.175823332922107"><ele>480.0</ele><time>2026-05-03T11:29:34Z</time></trkpt><trkpt lat="39.125135622786885" lon="16.175702431609377"><ele>478.5</ele><time>2026-05-03T11:29:35Z</time></trkpt><trkpt lat="39.12514722854247" lon="16.175584067677658"><ele>477.0</ele><time>2026-05-03T11:29:36Z</time></trkpt><trkpt lat="39.12515109386232" lon="16.17546882636709"><ele>475.5</ele><time>2026-05-03T11:29:37Z</time></trkpt><trkpt lat="39.125158323392014" lon="16.175364973404495"><ele>474.0</ele><time>2026-05-03T11:29:38Z</time></trkpt><trkpt lat="39.12518133684277" lon="16.175256899523944"><ele>472.5</ele><time>2026-05-03T11:29:39Z</time></trkpt><trkpt lat="39.125222061041676" lon="16.175157354682913"><ele>471.0</ele><time>2026-05-03T11:29:40Z</time></trkpt><trkpt lat="39.125280540718116" lon="16.175069188487456"><ele>471.0</ele><time>2026-05-03T11:29:41Z</time></trkpt><trkpt lat="39.12533878181753" lon="16.174997826162"><ele>471.0</ele><time>2026-05-03T11:29:42Z</time></trkpt><trkpt lat="39.12539180562889" lon="16.17492439077646"><ele>471.0</ele><time>2026-05-03T11:29:43Z</time></trkpt><trkpt lat="39.125448301442155" lon="16.17486209374894"><ele>471.0</ele><time>2026-05-03T11:29:44Z</time></trkpt><trkpt lat="39.12552627385669" lon="16.174795687463572"><ele>471.0</ele><time>2026-05-03T11:29:45Z</time></trkpt><trkpt lat="39.125592158862545" lon="16.174745317860907"><ele>471.0</ele><time>2026-05-03T11:29:46Z</time></trkpt><trkpt lat="39.12565109182945" lon="16.174695226904856"><ele>471.0</ele><time>2026-05-03T11:29:47Z</time></trkpt><trkpt lat="39.1257257312963" lon="16.174646804012408"><ele>471.0</ele><time>2026-05-03T11:29:49Z</time></trkpt><trkpt lat="39.12578410731844" lon="16.174609513060158"><ele>471.0</ele><time>2026-05-03T11:30:09.999Z</time></trkpt><trkpt lat="39.125861223389116" lon="16.17449790384612"><ele>471.0</ele><time>2026-05-03T11:30:11.999Z</time></trkpt><trkpt lat="39.1258933431237" lon="16.174418449883813"><ele>471.0</ele><time>2026-05-03T11:30:12.999Z</time></trkpt><trkpt lat="39.12591153204762" lon="16.174331745377394"><ele>471.0</ele><time>2026-05-03T11:30:13.999Z</time></trkpt><trkpt lat="39.1259027993733" lon="16.17424212109123"><ele>468.0</ele><time>2026-05-03T11:30:14.999Z</time></trkpt><trkpt lat="39.12590313230404" lon="16.174145241813"><ele>465.0</ele><time>2026-05-03T11:30:15.999Z</time></trkpt><trkpt lat="39.12594167755474" lon="16.174052920237436"><ele>462.0</ele><time>2026-05-03T11:30:16.999Z</time></trkpt><trkpt lat="39.125962495277776" lon="16.173932972169503"><ele>459.0</ele><time>2026-05-03T11:30:17.999Z</time></trkpt><trkpt lat="39.125990511505464" lon="16.173806201157216"><ele>456.0</ele><time>2026-05-03T11:30:18.999Z</time></trkpt><trkpt lat="39.126013187352406" lon="16.17372139439501"><ele>453.0</ele><time>2026-05-03T11:30:19.999Z</time></trkpt><trkpt lat="39.126043682412465" lon="16.173611703199875"><ele>451.4</ele><time>2026-05-03T11:30:20.999Z</time></trkpt><trkpt lat="39.126070908738996" lon="16.173517685942123"><ele>449.79999999999995</ele><time>2026-05-03T11:30:21.999Z</time></trkpt><trkpt lat="39.12609648900921" lon="16.1733993167095"><ele>448.2</ele><time>2026-05-03T11:30:22.999Z</time></trkpt><trkpt lat="39.12609186282251" lon="16.17329174907054"><ele>446.6</ele><time>2026-05-03T11:30:23.999Z</time></trkpt><trkpt lat="39.12604157158312" lon="16.17316847702945"><ele>445.0</ele><time>2026-05-03T11:30:24.999Z</time></trkpt><trkpt lat="39.12601841266539" lon="16.173032839000253"><ele>443.50000000000006</ele><time>2026-05-03T11:30:25.999Z</time></trkpt><trkpt lat="39.12602586599557" lon="16.172922937510908"><ele>442.0</ele><time>2026-05-03T11:30:26.999Z</time></trkpt><trkpt lat="39.12605909809023" lon="16.17282996156609"><ele>440.5</ele><time>2026-05-03T11:30:27.999Z</time></trkpt><trkpt lat="39.12610395577004" lon="16.172726758793512"><ele>439.0</ele><time>2026-05-03T11:30:28.999Z</time></trkpt><trkpt lat="39.12614876671376" lon="16.17262373146"><ele>437.50000000000006</ele><time>2026-05-03T11:30:29.999Z</time></trkpt><trkpt lat="39.12617690750746" lon="16.172519959730394"><ele>436.0</ele><time>2026-05-03T11:30:30.999Z</time></trkpt><trkpt lat="39.12618806820632" lon="16.17238921819441"><ele>434.0</ele><time>2026-05-03T11:30:31.999Z</time></trkpt><trkpt lat="39.12616044531857" lon="16.17225923255401"><ele>432.0</ele><time>2026-05-03T11:30:32.999Z</time></trkpt><trkpt lat="39.12617077534048" lon="16.17213047351521"><ele>430.0</ele><time>2026-05-03T11:30:33.999Z</time></trkpt><trkpt lat="39.12617275013931" lon="16.17201878370255"><ele>428.0</ele><time>2026-05-03T11:30:34.999Z</time></trkpt><trkpt lat="39.12618569716974" lon="16.171895865578048"><ele>426.0</ele><time>2026-05-03T11:30:35.999Z</time></trkpt><trkpt lat="39.12619735995691" lon="16.17178701809404"><ele>426.0</ele><time>2026-05-03T11:30:36.999Z</time></trkpt><trkpt lat="39.12621490881481" lon="16.171683455718355"><ele>426.0</ele><time>2026-05-03T11:30:37.999Z</time></trkpt><trkpt lat="39.126244960031066" lon="16.17158897458094"><ele>426.0</ele><time>2026-05-03T11:30:38.999Z</time></trkpt><trkpt lat="39.12628663624015" lon="16.171503511637763"><ele>426.0</ele><time>2026-05-03T11:30:39.999Z</time></trkpt><trkpt lat="39.12632748159347" lon="16.171427757307114"><ele>426.0</ele><time>2026-05-03T11:30:40.999Z</time></trkpt><trkpt lat="39.12637701921101" lon="16.171331670793695"><ele>426.0</ele><time>2026-05-03T11:30:41.999Z</time></trkpt><trkpt lat="39.126411055872325" lon="16.171220827067284"><ele>424.4</ele><time>2026-05-03T11:30:42.999Z</time></trkpt><trkpt lat="39.1264284910501" lon="16.17111827991952"><ele>422.8</ele><time>2026-05-03T11:30:43.999Z</time></trkpt><trkpt lat="39.12642521835918" lon="16.170988429821637"><ele>421.2</ele><time>2026-05-03T11:30:44.999Z</time></trkpt><trkpt lat="39.12641882053367" lon="16.17084049216808"><ele>419.59999999999997</ele><time>2026-05-03T11:30:45.999Z</time></trkpt><trkpt lat="39.126401239491074" lon="16.170698271627764"><ele>418.0</ele><time>2026-05-03T11:30:46.999Z</time></trkpt><trkpt lat="39.12640465022807" lon="16.1705415278798"><ele>416.0</ele><time>2026-05-03T11:30:47.999Z</time></trkpt><trkpt lat="39.126394790757956" lon="16.170388747640235"><ele>414.0</ele><time>2026-05-03T11:30:49Z</time></trkpt><trkpt lat="39.12637829541938" lon="16.170250483294296"><ele>412.0</ele><time>2026-05-03T11:30:50Z</time></trkpt><trkpt lat="39.12636978132203" lon="16.170111572307977"><ele>410.0</ele><time>2026-05-03T11:30:51Z</time></trkpt><trkpt lat="39.12635940294369" lon="16.169978342530634"><ele>408.0</ele><time>2026-05-03T11:30:52Z</time></trkpt><trkpt lat="39.12635205820487" lon="16.169847472847742"><ele>406.59999999999997</ele><time>2026-05-03T11:30:53Z</time></trkpt><trkpt lat="39.12635401555131" lon="16.169713422564058"><ele>405.2</ele><time>2026-05-03T11:30:54Z</time></trkpt><trkpt lat="39.126357863522564" lon="16.169575798526513"><ele>403.8</ele><time>2026-05-03T11:30:55Z</time></trkpt><trkpt lat="39.12636455389831" lon="16.16942694301887"><ele>402.4</ele><time>2026-05-03T11:30:56Z</time></trkpt><trkpt lat="39.12636834919886" lon="16.169276553611176"><ele>401.0</ele><time>2026-05-03T11:30:57Z</time></trkpt><trkpt lat="39.12639836751409" lon="16.16912257173045"><ele>399.25</ele><time>2026-05-03T11:30:58Z</time></trkpt><trkpt lat="39.12642632082738" lon="16.16896273043588"><ele>397.5</ele><time>2026-05-03T11:30:59Z</time></trkpt><trkpt lat="39.12645861721877" lon="16.168792134650698"><ele>395.75</ele><time>2026-05-03T11:31:00Z</time></trkpt><trkpt lat="39.12647575439735" lon="16.168631814437692"><ele>394.0</ele><time>2026-05-03T11:31:01Z</time></trkpt><trkpt lat="39.1264950028381" lon="16.168478721260097"><ele>394.0</ele><time>2026-05-03T11:31:02Z</time></trkpt><trkpt lat="39.12649903596061" lon="16.168312294027366"><ele>394.0</ele><time>2026-05-03T11:31:03Z</time></trkpt><trkpt lat="39.12649746624952" lon="16.168127238346386"><ele>394.0</ele><time>2026-05-03T11:31:04Z</time></trkpt><trkpt lat="39.1265003677225" lon="16.167928542842"><ele>394.0</ele><time>2026-05-03T11:31:05Z</time></trkpt><trkpt lat="39.126503206875675" lon="16.167740447983295"><ele>391.75</ele><time>2026-05-03T11:31:06Z</time></trkpt><trkpt lat="39.126506729531414" lon="16.167562750629145"><ele>389.5</ele><time>2026-05-03T11:31:07Z</time></trkpt><trkpt lat="39.12650723853099" lon="16.167395912413962"><ele>387.25</ele><time>2026-05-03T11:31:08Z</time></trkpt><trkpt lat="39.12649181461035" lon="16.16723498806106"><ele>385.0</ele><time>2026-05-03T11:31:09Z</time></trkpt><trkpt lat="39.126458174061874" lon="16.167083262289463"><ele>383.75</ele><time>2026-05-03T11:31:10Z</time></trkpt><trkpt lat="39.12642546653436" lon="16.166937362746783"><ele>382.5</ele><time>2026-05-03T11:31:11Z</time></trkpt><trkpt lat="39.12642921779739" lon="16.166792446017208"><ele>381.25</ele><time>2026-05-03T11:31:12Z</time></trkpt><trkpt lat="39.1264236146288" lon="16.166638669643486"><ele>380.0</ele><time>2026-05-03T11:31:13Z</time></trkpt><trkpt lat="39.12644396734545" lon="16.166474756369123"><ele>378.0</ele><time>2026-05-03T11:31:14Z</time></trkpt><trkpt lat="39.12649281416685" lon="16.166320224285574"><ele>376.0</ele><time>2026-05-03T11:31:15Z</time></trkpt><trkpt lat="39.12650296190858" lon="16.166163974453493"><ele>374.0</ele><time>2026-05-03T11:31:16Z</time></trkpt><trkpt lat="39.12649405102745" lon="16.166013988134313"><ele>372.0</ele><time>2026-05-03T11:31:17Z</time></trkpt><trkpt lat="39.12646407704073" lon="16.165854997459483"><ele>372.0</ele><time>2026-05-03T11:31:18Z</time></trkpt><trkpt lat="39.12646533451444" lon="16.165702194494735"><ele>372.0</ele><time>2026-05-03T11:31:19Z</time></trkpt><trkpt lat="39.1264725721815" lon="16.165558926474237"><ele>372.0</ele><time>2026-05-03T11:31:20Z</time></trkpt><trkpt lat="39.1264741273302" lon="16.16542482464282"><ele>372.0</ele><time>2026-05-03T11:31:21Z</time></trkpt><trkpt lat="39.12645329999277" lon="16.16530266445706"><ele>372.0</ele><time>2026-05-03T11:31:22Z</time></trkpt><trkpt lat="39.12642578876776" lon="16.165173883371555"><ele>370.6</ele><time>2026-05-03T11:31:23Z</time></trkpt><trkpt lat="39.12635032955734" lon="16.16506259924125"><ele>369.20000000000005</ele><time>2026-05-03T11:31:24Z</time></trkpt><trkpt lat="39.126285602076855" lon="16.164960244995687"><ele>367.8</ele><time>2026-05-03T11:31:25Z</time></trkpt><trkpt lat="39.126242560657474" lon="16.164844719102984"><ele>366.4</ele><time>2026-05-03T11:31:26Z</time></trkpt><trkpt lat="39.126229345435014" lon="16.16471913343117"><ele>365.0</ele><time>2026-05-03T11:31:27Z</time></trkpt><trkpt lat="39.12621697622892" lon="16.164578854237398"><ele>363.8</ele><time>2026-05-03T11:31:28Z</time></trkpt><trkpt lat="39.12619178130263" lon="16.164437583913724"><ele>362.6</ele><time>2026-05-03T11:31:29Z</time></trkpt><trkpt lat="39.12619412745889" lon="16.164311784760674"><ele>361.4</ele><time>2026-05-03T11:31:30Z</time></trkpt><trkpt lat="39.126209687235075" lon="16.16419068013237"><ele>360.2</ele><time>2026-05-03T11:31:31Z</time></trkpt><trkpt lat="39.12624966144081" lon="16.164082261299356"><ele>359.0</ele><time>2026-05-03T11:31:32Z</time></trkpt><trkpt lat="39.12629277427481" lon="16.163977849984423"><ele>358.0</ele><time>2026-05-03T11:31:33Z</time></trkpt><trkpt lat="39.126334396180546" lon="16.163874186904685"><ele>357.0</ele><time>2026-05-03T11:31:34Z</time></trkpt><trkpt lat="39.12631750513924" lon="16.16374304955875"><ele>356.0</ele><time>2026-05-03T11:31:35Z</time></trkpt><trkpt lat="39.12630117022603" lon="16.163635526748866"><ele>355.0</ele><time>2026-05-03T11:31:36Z</time></trkpt><trkpt lat="39.12628356384866" lon="16.163549414215904"><ele>354.0</ele><time>2026-05-03T11:31:37Z</time></trkpt><trkpt lat="39.126274535819334" lon="16.163457856577278"><ele>353.0</ele><time>2026-05-03T11:31:38Z</time></trkpt><trkpt lat="39.12632758297405" lon="16.163291188938757"><ele>353.0</ele><time>2026-05-03T11:31:40Z</time></trkpt><trkpt lat="39.1264659916454" lon="16.16324683600288"><ele>353.0</ele><time>2026-05-03T11:31:42Z</time></trkpt><trkpt lat="39.12655302372714" lon="16.163202722583573"><ele>353.0</ele><time>2026-05-03T11:31:43Z</time></trkpt><trkpt lat="39.1266422888759" lon="16.163130940917267"><ele>353.0</ele><time>2026-05-03T11:31:44Z</time></trkpt><trkpt lat="39.1267477602936" lon="16.163078506151308"><ele>351.5</ele><time>2026-05-03T11:31:45Z</time></trkpt><trkpt lat="39.12686109515044" lon="16.163022842206832"><ele>350.0</ele><time>2026-05-03T11:31:46Z</time></trkpt><trkpt lat="39.1269837184167" lon="16.16296094050138"><ele>348.5</ele><time>2026-05-03T11:31:47Z</time></trkpt><trkpt lat="39.12710933286516" lon="16.1628934990228"><ele>347.0</ele><time>2026-05-03T11:31:47.999Z</time></trkpt><trkpt lat="39.12722293188423" lon="16.16281739259758"><ele>347.0</ele><time>2026-05-03T11:31:48.999Z</time></trkpt><trkpt lat="39.127321611703486" lon="16.16273544999652"><ele>347.0</ele><time>2026-05-03T11:31:49.999Z</time></trkpt><trkpt lat="39.12742467560583" lon="16.16267627898553"><ele>347.0</ele><time>2026-05-03T11:31:50.999Z</time></trkpt><trkpt lat="39.12752105133501" lon="16.162596035272763"><ele>347.0</ele><time>2026-05-03T11:31:51.999Z</time></trkpt><trkpt lat="39.12761640285431" lon="16.16249991311291"><ele>347.25</ele><time>2026-05-03T11:31:52.999Z</time></trkpt><trkpt lat="39.127723577433784" lon="16.162434136663705"><ele>347.5</ele><time>2026-05-03T11:31:53.999Z</time></trkpt><trkpt lat="39.127829283786596" lon="16.162366775715046"><ele>347.75</ele><time>2026-05-03T11:31:54.999Z</time></trkpt><trkpt lat="39.12793126759368" lon="16.16230195689081"><ele>348.0</ele><time>2026-05-03T11:31:55.999Z</time></trkpt><trkpt lat="39.12802146565195" lon="16.16223799002221"><ele>346.59999999999997</ele><time>2026-05-03T11:31:56.999Z</time></trkpt><trkpt lat="39.12810440332001" lon="16.162192017500733"><ele>345.2</ele><time>2026-05-03T11:31:57.999Z</time></trkpt><trkpt lat="39.12817103872774" lon="16.16211509875232"><ele>343.8</ele><time>2026-05-03T11:31:58.999Z</time></trkpt><trkpt lat="39.12820770488158" lon="16.16199899146038"><ele>342.4</ele><time>2026-05-03T11:31:59.999Z</time></trkpt><trkpt lat="39.12825643710683" lon="16.16190629856218"><ele>341.0</ele><time>2026-05-03T11:32:00.999Z</time></trkpt><trkpt lat="39.12832425058602" lon="16.16181239122472"><ele>341.0</ele><time>2026-05-03T11:32:01.999Z</time></trkpt><trkpt lat="39.128416832118205" lon="16.16173944620229"><ele>341.0</ele><time>2026-05-03T11:32:02.999Z</time></trkpt><trkpt lat="39.12850370431836" lon="16.161645658092066"><ele>341.0</ele><time>2026-05-03T11:32:03.999Z</time></trkpt><trkpt lat="39.12858978626906" lon="16.16153779649271"><ele>341.0</ele><time>2026-05-03T11:32:04.999Z</time></trkpt><trkpt lat="39.12869375177669" lon="16.161449778574315"><ele>339.75</ele><time>2026-05-03T11:32:05.999Z</time></trkpt><trkpt lat="39.12879579707048" lon="16.161357327108707"><ele>338.5</ele><time>2026-05-03T11:32:06.999Z</time></trkpt><trkpt lat="39.12890107579488" lon="16.161260231667423"><ele>337.25</ele><time>2026-05-03T11:32:07.999Z</time></trkpt><trkpt lat="39.129004814267326" lon="16.16117153855434"><ele>336.0</ele><time>2026-05-03T11:32:08.999Z</time></trkpt><trkpt lat="39.129105701960775" lon="16.161078834098817"><ele>335.75</ele><time>2026-05-03T11:32:09.999Z</time></trkpt><trkpt lat="39.129205539009334" lon="16.160985960453477"><ele>335.5</ele><time>2026-05-03T11:32:10.999Z</time></trkpt><trkpt lat="39.129307055132124" lon="16.16089758072283"><ele>335.25</ele><time>2026-05-03T11:32:11.999Z</time></trkpt><trkpt lat="39.12940860208667" lon="16.16080981413511"><ele>335.0</ele><time>2026-05-03T11:32:12.999Z</time></trkpt><trkpt lat="39.12950838748438" lon="16.160719964607768"><ele>333.5</ele><time>2026-05-03T11:32:13.999Z</time></trkpt><trkpt lat="39.12961242946549" lon="16.160638089576217"><ele>332.0</ele><time>2026-05-03T11:32:14.999Z</time></trkpt><trkpt lat="39.12970653956275" lon="16.160540766038988"><ele>330.5</ele><time>2026-05-03T11:32:15.999Z</time></trkpt><trkpt lat="39.12980472039296" lon="16.16045301245736"><ele>329.0</ele><time>2026-05-03T11:32:16.999Z</time></trkpt><trkpt lat="39.12990374794595" lon="16.160362952622858"><ele>329.0</ele><time>2026-05-03T11:32:17.999Z</time></trkpt><trkpt lat="39.13000535326337" lon="16.160273243678336"><ele>329.0</ele><time>2026-05-03T11:32:18.999Z</time></trkpt><trkpt lat="39.13010908699568" lon="16.160185319077026"><ele>329.0</ele><time>2026-05-03T11:32:19.999Z</time></trkpt><trkpt lat="39.1302122091284" lon="16.160096253259216"><ele>329.0</ele><time>2026-05-03T11:32:20.999Z</time></trkpt><trkpt lat="39.13031387536348" lon="16.160008419104106"><ele>329.0</ele><time>2026-05-03T11:32:21.999Z</time></trkpt><trkpt lat="39.130410907046745" lon="16.159918340663655"><ele>329.0</ele><time>2026-05-03T11:32:22.999Z</time></trkpt><trkpt lat="39.13050841412684" lon="16.159839363928825"><ele>329.0</ele><time>2026-05-03T11:32:23.999Z</time></trkpt><trkpt lat="39.1306040558065" lon="16.159756223983553"><ele>329.0</ele><time>2026-05-03T11:32:24.999Z</time></trkpt><trkpt lat="39.13070298631027" lon="16.159675547932867"><ele>327.5</ele><time>2026-05-03T11:32:25.999Z</time></trkpt><trkpt lat="39.130801765028856" lon="16.159587063076955"><ele>326.0</ele><time>2026-05-03T11:32:26.999Z</time></trkpt><trkpt lat="39.130903818420315" lon="16.15949933873771"><ele>324.5</ele><time>2026-05-03T11:32:27.999Z</time></trkpt><trkpt lat="39.131008909122315" lon="16.159406945658006"><ele>323.0</ele><time>2026-05-03T11:32:28.999Z</time></trkpt><trkpt lat="39.1311120444054" lon="16.159311021845394"><ele>323.0</ele><time>2026-05-03T11:32:29.999Z</time></trkpt><trkpt lat="39.13121632819929" lon="16.15921423335"><ele>323.0</ele><time>2026-05-03T11:32:30.999Z</time></trkpt><trkpt lat="39.13132165424856" lon="16.15912539735501"><ele>323.0</ele><time>2026-05-03T11:32:31.999Z</time></trkpt><trkpt lat="39.13142221647438" lon="16.15903754298394"><ele>323.0</ele><time>2026-05-03T11:32:32.999Z</time></trkpt><trkpt lat="39.13152242798815" lon="16.158950894260666"><ele>321.79999999999995</ele><time>2026-05-03T11:32:33.999Z</time></trkpt><trkpt lat="39.131614996370566" lon="16.15886925051288"><ele>320.59999999999997</ele><time>2026-05-03T11:32:34.999Z</time></trkpt><trkpt lat="39.13170730823368" lon="16.158801243683545"><ele>319.4</ele><time>2026-05-03T11:32:35.999Z</time></trkpt><trkpt lat="39.1318018494075" lon="16.15876054040054"><ele>318.2</ele><time>2026-05-03T11:32:36.999Z</time></trkpt><trkpt lat="39.13189757256891" lon="16.15874351224994"><ele>317.0</ele><time>2026-05-03T11:32:37.999Z</time></trkpt><trkpt lat="39.13200147779113" lon="16.15874572434348"><ele>317.0</ele><time>2026-05-03T11:32:38.999Z</time></trkpt><trkpt lat="39.13210417853906" lon="16.15873573501368"><ele>317.0</ele><time>2026-05-03T11:32:39.999Z</time></trkpt><trkpt lat="39.13221029581066" lon="16.15872154515332"><ele>317.0</ele><time>2026-05-03T11:32:40.999Z</time></trkpt><trkpt lat="39.1323188764665" lon="16.158725127075286"><ele>317.0</ele><time>2026-05-03T11:32:41.999Z</time></trkpt><trkpt lat="39.13243354798146" lon="16.158734078259698"><ele>317.0</ele><time>2026-05-03T11:32:42.999Z</time></trkpt><trkpt lat="39.13254641065437" lon="16.158736679618258"><ele>315.75</ele><time>2026-05-03T11:32:43.999Z</time></trkpt><trkpt lat="39.132662485174784" lon="16.158737652466247"><ele>314.5</ele><time>2026-05-03T11:32:44.999Z</time></trkpt><trkpt lat="39.13278329114971" lon="16.158728969316904"><ele>313.25</ele><time>2026-05-03T11:32:45.999Z</time></trkpt><trkpt lat="39.13290139651822" lon="16.158710423544317"><ele>312.0</ele><time>2026-05-03T11:32:46.999Z</time></trkpt><trkpt lat="39.13300468610643" lon="16.15868761481387"><ele>312.0</ele><time>2026-05-03T11:32:47.999Z</time></trkpt><trkpt lat="39.13310098606764" lon="16.15867503826743"><ele>312.0</ele><time>2026-05-03T11:32:48.999Z</time></trkpt><trkpt lat="39.13319994894011" lon="16.158680546771155"><ele>312.0</ele><time>2026-05-03T11:32:49.999Z</time></trkpt><trkpt lat="39.13328155203722" lon="16.158696669175477"><ele>312.0</ele><time>2026-05-03T11:32:50.999Z</time></trkpt><trkpt lat="39.13335038004576" lon="16.158789291447356"><ele>312.0</ele><time>2026-05-03T11:32:51.999Z</time></trkpt><trkpt lat="39.13342341225246" lon="16.1588438025364"><ele>312.1666666666667</ele><time>2026-05-03T11:32:52.999Z</time></trkpt><trkpt lat="39.13348226219177" lon="16.158900664800527"><ele>312.3333333333333</ele><time>2026-05-03T11:32:53.999Z</time></trkpt><trkpt lat="39.133551794529666" lon="16.15896775832607"><ele>312.5</ele><time>2026-05-03T11:32:56Z</time></trkpt><trkpt lat="39.13362889297072" lon="16.158906580402604"><ele>312.66666666666663</ele><time>2026-05-03T11:32:57Z</time></trkpt><trkpt lat="39.133655494056015" lon="16.15882652357305"><ele>312.8333333333333</ele><time>2026-05-03T11:32:58Z</time></trkpt><trkpt lat="39.133689460614384" lon="16.158752360482158"><ele>313.0</ele><time>2026-05-03T11:32:59Z</time></trkpt><trkpt lat="39.13373444252043" lon="16.158681933009202"><ele>313.0</ele><time>2026-05-03T11:33:00Z</time></trkpt><trkpt lat="39.13375892753994" lon="16.15859149887637"><ele>313.0</ele><time>2026-05-03T11:33:01Z</time></trkpt><trkpt lat="39.133799608643585" lon="16.158520254078738"><ele>313.0</ele><time>2026-05-03T11:33:04Z</time></trkpt><trkpt lat="39.13385492993575" lon="16.15847161371265"><ele>313.0</ele><time>2026-05-03T11:33:19.999Z</time></trkpt><trkpt lat="39.13393420684717" lon="16.15841931157815"><ele>313.0</ele><time>2026-05-03T11:33:22.999Z</time></trkpt><trkpt lat="39.13399074912446" lon="16.15834946810064"><ele>313.0</ele><time>2026-05-03T11:33:24.999Z</time></trkpt><trkpt lat="39.1340171878009" lon="16.158246650026403"><ele>312.66666666666663</ele><time>2026-05-03T11:33:26.999Z</time></trkpt><trkpt lat="39.133988574589985" lon="16.158144529204552"><ele>312.3333333333333</ele><time>2026-05-03T11:33:28.999Z</time></trkpt><trkpt lat="39.13396583207699" lon="16.15801491264295"><ele>312.0</ele><time>2026-05-03T11:33:40.999Z</time></trkpt><trkpt lat="39.13395148857064" lon="16.1579326400952"><ele>311.6666666666667</ele><time>2026-05-03T11:33:41.999Z</time></trkpt><trkpt lat="39.133928308681845" lon="16.15783745315666"><ele>311.33333333333337</ele><time>2026-05-03T11:33:42.999Z</time></trkpt><trkpt lat="39.13394992026055" lon="16.157748282916188"><ele>311.0</ele><time>2026-05-03T11:33:43.999Z</time></trkpt><trkpt lat="39.133947259938374" lon="16.15764647873414"><ele>311.0</ele><time>2026-05-03T11:33:44.999Z</time></trkpt><trkpt lat="39.13397513023794" lon="16.157540326091304"><ele>311.0</ele><time>2026-05-03T11:33:45.999Z</time></trkpt><trkpt lat="39.1340487865052" lon="16.15744360731036"><ele>311.0</ele><time>2026-05-03T11:33:46.999Z</time></trkpt><trkpt lat="39.13411793313235" lon="16.157380025274026"><ele>311.0</ele><time>2026-05-03T11:33:47.999Z</time></trkpt><trkpt lat="39.134135882325765" lon="16.157284140551386"><ele>311.0</ele><time>2026-05-03T11:33:49.999Z</time></trkpt><trkpt lat="39.134042037250694" lon="16.157152266374617"><ele>310.1666666666667</ele><time>2026-05-03T11:33:52.999Z</time></trkpt><trkpt lat="39.1339327269981" lon="16.157103364487387"><ele>309.33333333333337</ele><time>2026-05-03T11:33:54.999Z</time></trkpt><trkpt lat="39.1338635129657" lon="16.157089386789266"><ele>308.5</ele><time>2026-05-03T11:33:55.999Z</time></trkpt><trkpt lat="39.13380293351996" lon="16.157038638335713"><ele>307.6666666666667</ele><time>2026-05-03T11:33:56.999Z</time></trkpt><trkpt lat="39.133733702653934" lon="16.15700411389882"><ele>306.8333333333333</ele><time>2026-05-03T11:33:57.999Z</time></trkpt><trkpt lat="39.133664929134035" lon="16.156970480725047"><ele>306.0</ele><time>2026-05-03T11:33:58.999Z</time></trkpt><trkpt lat="39.13359276509035" lon="16.156935492121413"><ele>306.0</ele><time>2026-05-03T11:33:59.999Z</time></trkpt><trkpt lat="39.13352048714974" lon="16.15690044827793"><ele>306.0</ele><time>2026-05-03T11:34:00.999Z</time></trkpt><trkpt lat="39.13344147532114" lon="16.156862139505424"><ele>306.0</ele><time>2026-05-03T11:34:01.999Z</time></trkpt><trkpt lat="39.1333625342245" lon="16.156842136390274"><ele>306.0</ele><time>2026-05-03T11:34:02.999Z</time></trkpt><trkpt lat="39.13328596772339" lon="16.156784835230038"><ele>306.0</ele><time>2026-05-03T11:34:03.999Z</time></trkpt><trkpt lat="39.13320909098396" lon="16.156746340238737"><ele>306.0</ele><time>2026-05-03T11:34:04.999Z</time></trkpt><trkpt lat="39.133125549556304" lon="16.156704507939118"><ele>306.0</ele><time>2026-05-03T11:34:05.999Z</time></trkpt><trkpt lat="39.1330354225773" lon="16.156682058114264"><ele>306.0</ele><time>2026-05-03T11:34:06.999Z</time></trkpt><trkpt lat="39.132947942813054" lon="16.15663115156692"><ele>306.0</ele><time>2026-05-03T11:34:07.999Z</time></trkpt><trkpt lat="39.13286140489296" lon="16.15658946250525"><ele>306.0</ele><time>2026-05-03T11:34:08.999Z</time></trkpt><trkpt lat="39.132776107077845" lon="16.15655087160481"><ele>306.0</ele><time>2026-05-03T11:34:09.999Z</time></trkpt><trkpt lat="39.13268864046621" lon="16.15650824499404"><ele>306.0</ele><time>2026-05-03T11:34:10.999Z</time></trkpt><trkpt lat="39.13260169106879" lon="16.15646451288046"><ele>306.0</ele><time>2026-05-03T11:34:11.999Z</time></trkpt><trkpt lat="39.13251387551178" lon="16.156422608211802"><ele>306.0</ele><time>2026-05-03T11:34:12.999Z</time></trkpt><trkpt lat="39.13242729951292" lon="16.15637485318717"><ele>306.0</ele><time>2026-05-03T11:34:13.999Z</time></trkpt><trkpt lat="39.132342137249545" lon="16.156312930263535"><ele>306.0</ele><time>2026-05-03T11:34:14.999Z</time></trkpt><trkpt lat="39.132258210311" lon="16.15626992464189"><ele>306.2</ele><time>2026-05-03T11:34:15.999Z</time></trkpt><trkpt lat="39.13217823393321" lon="16.156224910856892"><ele>306.40000000000003</ele><time>2026-05-03T11:34:16.999Z</time></trkpt><trkpt lat="39.13208749105365" lon="16.156174345712646"><ele>306.6</ele><time>2026-05-03T11:34:17.999Z</time></trkpt><trkpt lat="39.13198256956201" lon="16.15614279792461"><ele>306.8</ele><time>2026-05-03T11:34:18.999Z</time></trkpt><trkpt lat="39.13188824137883" lon="16.156074779021065"><ele>307.0</ele><time>2026-05-03T11:34:19.999Z</time></trkpt><trkpt lat="39.131805949441656" lon="16.15603376784945"><ele>307.0</ele><time>2026-05-03T11:34:20.999Z</time></trkpt><trkpt lat="39.13171785431165" lon="16.155986451566537"><ele>307.0</ele><time>2026-05-03T11:34:21.999Z</time></trkpt><trkpt lat="39.13162476717659" lon="16.15595199272308"><ele>307.0</ele><time>2026-05-03T11:34:22.999Z</time></trkpt><trkpt lat="39.13154106533781" lon="16.1559046008295"><ele>307.0</ele><time>2026-05-03T11:34:23.999Z</time></trkpt><trkpt lat="39.13144783806628" lon="16.155880027800997"><ele>307.0</ele><time>2026-05-03T11:34:24.999Z</time></trkpt><trkpt lat="39.13136636872067" lon="16.155820984826466"><ele>306.4</ele><time>2026-05-03T11:34:25.999Z</time></trkpt><trkpt lat="39.131302816972024" lon="16.155786754726762"><ele>305.79999999999995</ele><time>2026-05-03T11:34:26.999Z</time></trkpt><trkpt lat="39.131211109045054" lon="16.15568179164104"><ele>305.2</ele><time>2026-05-03T11:34:28.999Z</time></trkpt><trkpt lat="39.131222552012865" lon="16.15556852131828"><ele>304.59999999999997</ele><time>2026-05-03T11:34:29.999Z</time></trkpt><trkpt lat="39.13124275190897" lon="16.155451142706237"><ele>304.0</ele><time>2026-05-03T11:34:30.999Z</time></trkpt><trkpt lat="39.1312463817503" lon="16.15530391896809"><ele>305.0</ele><time>2026-05-03T11:34:31.999Z</time></trkpt><trkpt lat="39.1312631320026" lon="16.155177965302702"><ele>306.0</ele><time>2026-05-03T11:34:32.999Z</time></trkpt><trkpt lat="39.13127602683574" lon="16.155068365711003"><ele>307.0</ele><time>2026-05-03T11:34:33.999Z</time></trkpt><trkpt lat="39.1312750320002" lon="16.154976790786748"><ele>308.0</ele><time>2026-05-03T11:34:34.999Z</time></trkpt><trkpt lat="39.1312675212152" lon="16.15488738957638"><ele>309.0</ele><time>2026-05-03T11:34:35.999Z</time></trkpt><trkpt lat="39.131355499943965" lon="16.154809864712966"><ele>310.0</ele><time>2026-05-03T11:34:36.999Z</time></trkpt><trkpt lat="39.131432817818855" lon="16.154720695680517"><ele>309.5</ele><time>2026-05-03T11:34:37.999Z</time></trkpt><trkpt lat="39.131512923736906" lon="16.1546147749195"><ele>309.0</ele><time>2026-05-03T11:34:38.999Z</time></trkpt><trkpt lat="39.13160009841687" lon="16.154512348023506"><ele>308.5</ele><time>2026-05-03T11:34:39.999Z</time></trkpt><trkpt lat="39.13167909543436" lon="16.154400059152245"><ele>308.0</ele><time>2026-05-03T11:34:40.999Z</time></trkpt><trkpt lat="39.131772431097176" lon="16.15430143001224"><ele>308.0</ele><time>2026-05-03T11:34:41.999Z</time></trkpt><trkpt lat="39.131851053733136" lon="16.154187524251675"><ele>308.0</ele><time>2026-05-03T11:34:42.999Z</time></trkpt><trkpt lat="39.13192622035222" lon="16.154084952358104"><ele>308.0</ele><time>2026-05-03T11:34:43.999Z</time></trkpt><trkpt lat="39.13199284129921" lon="16.153974932110962"><ele>308.0</ele><time>2026-05-03T11:34:44.999Z</time></trkpt><trkpt lat="39.13205965829043" lon="16.15386441307029"><ele>308.0</ele><time>2026-05-03T11:34:45.999Z</time></trkpt><trkpt lat="39.13214770183281" lon="16.153780309771825"><ele>308.0</ele><time>2026-05-03T11:34:46.999Z</time></trkpt><trkpt lat="39.13221589989279" lon="16.153670061523027"><ele>308.0</ele><time>2026-05-03T11:34:47.999Z</time></trkpt><trkpt lat="39.13228156600157" lon="16.153561535145066"><ele>308.0</ele><time>2026-05-03T11:34:48.999Z</time></trkpt><trkpt lat="39.132356274412096" lon="16.15344645593294"><ele>308.0</ele><time>2026-05-03T11:34:49.999Z</time></trkpt><trkpt lat="39.1324328130513" lon="16.15333650815981"><ele>308.0</ele><time>2026-05-03T11:34:50.999Z</time></trkpt><trkpt lat="39.13251546970599" lon="16.15323655593134"><ele>308.0</ele><time>2026-05-03T11:34:51.999Z</time></trkpt><trkpt lat="39.13258121402662" lon="16.153118981165274"><ele>308.0</ele><time>2026-05-03T11:34:52.999Z</time></trkpt><trkpt lat="39.13265528533885" lon="16.153035195735765"><ele>308.0</ele><time>2026-05-03T11:34:53.999Z</time></trkpt><trkpt lat="39.13271331508501" lon="16.15295042376055"><ele>308.0</ele><time>2026-05-03T11:34:54.999Z</time></trkpt><trkpt lat="39.13278184143641" lon="16.15284934503342"><ele>308.0</ele><time>2026-05-03T11:34:55.999Z</time></trkpt><trkpt lat="39.132851644247346" lon="16.15274924956091"><ele>308.0</ele><time>2026-05-03T11:34:56.999Z</time></trkpt><trkpt lat="39.13293713743829" lon="16.152652575789862"><ele>308.0</ele><time>2026-05-03T11:34:57.999Z</time></trkpt><trkpt lat="39.13300572917194" lon="16.15252741352263"><ele>308.0</ele><time>2026-05-03T11:34:58.999Z</time></trkpt><trkpt lat="39.1330947766941" lon="16.152424597177014"><ele>308.0</ele><time>2026-05-03T11:34:59.999Z</time></trkpt><trkpt lat="39.13316621878216" lon="16.152296043642398"><ele>307.25</ele><time>2026-05-03T11:35:00.999Z</time></trkpt><trkpt lat="39.13325150965942" lon="16.1521890160666"><ele>306.5</ele><time>2026-05-03T11:35:01.999Z</time></trkpt><trkpt lat="39.13333655129246" lon="16.152079105353657"><ele>305.75</ele><time>2026-05-03T11:35:02.999Z</time></trkpt><trkpt lat="39.13341758017316" lon="16.151950168185373"><ele>305.0</ele><time>2026-05-03T11:35:03.999Z</time></trkpt><trkpt lat="39.13349764390645" lon="16.151826895777383"><ele>305.0</ele><time>2026-05-03T11:35:04.999Z</time></trkpt><trkpt lat="39.13357208201666" lon="16.151715051187377"><ele>305.0</ele><time>2026-05-03T11:35:05.999Z</time></trkpt><trkpt lat="39.133649281675716" lon="16.15160162183322"><ele>305.0</ele><time>2026-05-03T11:35:06.999Z</time></trkpt><trkpt lat="39.13373209144772" lon="16.151497308215422"><ele>305.0</ele><time>2026-05-03T11:35:07.999Z</time></trkpt><trkpt lat="39.133810320759" lon="16.15138467505546"><ele>306.5</ele><time>2026-05-03T11:35:08.999Z</time></trkpt><trkpt lat="39.133894767411284" lon="16.151277542828964"><ele>308.0</ele><time>2026-05-03T11:35:09.999Z</time></trkpt><trkpt lat="39.13397319864337" lon="16.15117138694944"><ele>309.5</ele><time>2026-05-03T11:35:10.999Z</time></trkpt><trkpt lat="39.13406564164664" lon="16.15109050892894"><ele>311.0</ele><time>2026-05-03T11:35:11.999Z</time></trkpt><trkpt lat="39.13416776839773" lon="16.15103012130293"><ele>311.0</ele><time>2026-05-03T11:35:12.999Z</time></trkpt><trkpt lat="39.134275129011385" lon="16.150998351234893"><ele>311.0</ele><time>2026-05-03T11:35:13.999Z</time></trkpt><trkpt lat="39.134388885494815" lon="16.151009784832663"><ele>311.0</ele><time>2026-05-03T11:35:14.999Z</time></trkpt><trkpt lat="39.1345046331422" lon="16.151035770121783"><ele>311.0</ele><time>2026-05-03T11:35:15.999Z</time></trkpt><trkpt lat="39.134624144250076" lon="16.151009885267875"><ele>311.0</ele><time>2026-05-03T11:35:16.999Z</time></trkpt><trkpt lat="39.13472901763779" lon="16.151022670445766"><ele>311.0</ele><time>2026-05-03T11:35:17.999Z</time></trkpt><trkpt lat="39.1348540040312" lon="16.151011402497826"><ele>311.0</ele><time>2026-05-03T11:35:18.999Z</time></trkpt><trkpt lat="39.13497770082087" lon="16.151011216646545"><ele>311.0</ele><time>2026-05-03T11:35:19.999Z</time></trkpt><trkpt lat="39.13509258568729" lon="16.15100352926621"><ele>310.8</ele><time>2026-05-03T11:35:20.999Z</time></trkpt><trkpt lat="39.135188564937" lon="16.15099322027549"><ele>310.6</ele><time>2026-05-03T11:35:21.999Z</time></trkpt><trkpt lat="39.135274456411466" lon="16.15097550083097"><ele>310.4</ele><time>2026-05-03T11:35:22.999Z</time></trkpt><trkpt lat="39.13537084647838" lon="16.150990914725902"><ele>310.2</ele><time>2026-05-03T11:35:23.999Z</time></trkpt><trkpt lat="39.13546755458731" lon="16.150992665709335"><ele>310.0</ele><time>2026-05-03T11:35:24.999Z</time></trkpt><trkpt lat="39.13558788325626" lon="16.15099091036253"><ele>310.0</ele><time>2026-05-03T11:35:26.999Z</time></trkpt><trkpt lat="39.135677414274866" lon="16.15093427254547"><ele>310.0</ele><time>2026-05-03T11:35:29.999Z</time></trkpt><trkpt lat="39.13554652296504" lon="16.150706959381072"><ele>310.0</ele><time>2026-05-03T11:35:42.999Z</time></trkpt><trkpt lat="39.13548748817933" lon="16.150672304966832"><ele>310.0</ele><time>2026-05-03T11:35:43.999Z</time></trkpt><trkpt lat="39.13538249412881" lon="16.150596519035066"><ele>312.5</ele><time>2026-05-03T11:35:45.999Z</time></trkpt><trkpt lat="39.135329805420184" lon="16.150534368333126"><ele>315.0</ele><time>2026-05-03T11:35:46.999Z</time></trkpt><trkpt lat="39.135285366407416" lon="16.150469607978845"><ele>317.5</ele><time>2026-05-03T11:35:47.999Z</time></trkpt><trkpt lat="39.13523245510946" lon="16.15038672578248"><ele>320.0</ele><time>2026-05-03T11:35:48.999Z</time></trkpt><trkpt lat="39.13517959380552" lon="16.15028172934104"><ele>322.5</ele><time>2026-05-03T11:35:49.999Z</time></trkpt><trkpt lat="39.13515341529612" lon="16.150190793816314"><ele>325.0</ele><time>2026-05-03T11:35:50.999Z</time></trkpt><trkpt lat="39.13512865018972" lon="16.150071436155805"><ele>325.0</ele><time>2026-05-03T11:35:51.999Z</time></trkpt><trkpt lat="39.135110508329326" lon="16.14995960686023"><ele>325.0</ele><time>2026-05-03T11:35:52.999Z</time></trkpt><trkpt lat="39.135081965180774" lon="16.149856927203317"><ele>325.0</ele><time>2026-05-03T11:35:53.999Z</time></trkpt><trkpt lat="39.135051082775064" lon="16.149737133555373"><ele>325.0</ele><time>2026-05-03T11:35:54.999Z</time></trkpt><trkpt lat="39.135020050382415" lon="16.149614610447042"><ele>325.0</ele><time>2026-05-03T11:35:55.999Z</time></trkpt><trkpt lat="39.13499506984937" lon="16.149502018355935"><ele>328.0</ele><time>2026-05-03T11:35:56.999Z</time></trkpt><trkpt lat="39.13498391716034" lon="16.1494103011416"><ele>331.0</ele><time>2026-05-03T11:35:57.999Z</time></trkpt><trkpt lat="39.134975357111095" lon="16.149325260379342"><ele>334.0</ele><time>2026-05-03T11:35:58.999Z</time></trkpt><trkpt lat="39.134964929545305" lon="16.149204820420984"><ele>337.0</ele><time>2026-05-03T11:35:59.999Z</time></trkpt><trkpt lat="39.1349555987778" lon="16.1490856147172"><ele>340.0</ele><time>2026-05-03T11:36:00.999Z</time></trkpt><trkpt lat="39.13495751599706" lon="16.148975277081888"><ele>343.0</ele><time>2026-05-03T11:36:01.999Z</time></trkpt><trkpt lat="39.13494207483606" lon="16.148816390844363"><ele>345.2</ele><time>2026-05-03T11:36:21.999Z</time></trkpt><trkpt lat="39.134935468626" lon="16.14873072437371"><ele>347.4</ele><time>2026-05-03T11:36:22.999Z</time></trkpt><trkpt lat="39.134799149208426" lon="16.14856810688804"><ele>349.59999999999997</ele><time>2026-05-03T11:36:24.999Z</time></trkpt><trkpt lat="39.13478744143786" lon="16.148478957776593"><ele>351.79999999999995</ele><time>2026-05-03T11:36:25.999Z</time></trkpt><trkpt lat="39.13476983912204" lon="16.148386760120214"><ele>354.0</ele><time>2026-05-03T11:36:27.999Z</time></trkpt><trkpt lat="39.13469948760911" lon="16.14834920802044"><ele>354.0</ele><time>2026-05-03T11:36:29.999Z</time></trkpt><trkpt lat="39.134621697270646" lon="16.148299468293832"><ele>354.0</ele><time>2026-05-03T11:36:30.999Z</time></trkpt><trkpt lat="39.134542284576305" lon="16.14822980954258"><ele>354.0</ele><time>2026-05-03T11:36:31.999Z</time></trkpt><trkpt lat="39.134498010122904" lon="16.14817191438315"><ele>354.0</ele><time>2026-05-03T11:36:32.999Z</time></trkpt><trkpt lat="39.134440018750475" lon="16.148085898955287"><ele>354.0</ele><time>2026-05-03T11:36:33.999Z</time></trkpt><trkpt lat="39.13438285050405" lon="16.14798567649211"><ele>354.0</ele><time>2026-05-03T11:36:34.999Z</time></trkpt><trkpt lat="39.13436533495794" lon="16.147893265793577"><ele>356.6</ele><time>2026-05-03T11:36:37.999Z</time></trkpt><trkpt lat="39.13434713930022" lon="16.14777580050104"><ele>359.2</ele><time>2026-05-03T11:36:39.999Z</time></trkpt><trkpt lat="39.13436543366553" lon="16.147627324531"><ele>361.8</ele><time>2026-05-03T11:36:41.999Z</time></trkpt><trkpt lat="39.13441596632496" lon="16.147531195956713"><ele>364.40000000000003</ele><time>2026-05-03T11:36:42.999Z</time></trkpt><trkpt lat="39.13443337479415" lon="16.147433655968563"><ele>367.0</ele><time>2026-05-03T11:36:43.999Z</time></trkpt><trkpt lat="39.13444484500133" lon="16.14730659252022"><ele>369.8</ele><time>2026-05-03T11:36:44.999Z</time></trkpt><trkpt lat="39.134445858765176" lon="16.1472084071103"><ele>372.6</ele><time>2026-05-03T11:36:45.999Z</time></trkpt><trkpt lat="39.134543716437335" lon="16.14708167284751"><ele>375.40000000000003</ele><time>2026-05-03T11:36:47.999Z</time></trkpt><trkpt lat="39.134594088084384" lon="16.146925951471204"><ele>378.20000000000005</ele><time>2026-05-03T11:36:49.999Z</time></trkpt><trkpt lat="39.1346071434814" lon="16.146823730912942"><ele>381.0</ele><time>2026-05-03T11:36:50.999Z</time></trkpt><trkpt lat="39.13461228948879" lon="16.1467176478293"><ele>381.0</ele><time>2026-05-03T11:36:51.999Z</time></trkpt><trkpt lat="39.134592379077844" lon="16.14657836201692"><ele>381.0</ele><time>2026-05-03T11:36:52.999Z</time></trkpt><trkpt lat="39.134580604069775" lon="16.146480381492538"><ele>381.0</ele><time>2026-05-03T11:36:53.999Z</time></trkpt><trkpt lat="39.134554700931204" lon="16.14640008062976"><ele>381.0</ele><time>2026-05-03T11:36:54.999Z</time></trkpt><trkpt lat="39.13452169417489" lon="16.146303805228772"><ele>381.0</ele><time>2026-05-03T11:36:56.999Z</time></trkpt><trkpt lat="39.13461823353175" lon="16.14628499806224"><ele>381.0</ele><time>2026-05-03T11:36:58.999Z</time></trkpt><trkpt lat="39.1347055876292" lon="16.146285021225626"><ele>382.5</ele><time>2026-05-03T11:36:59.999Z</time></trkpt><trkpt lat="39.1347945554491" lon="16.146278425818142"><ele>384.0</ele><time>2026-05-03T11:37:00.999Z</time></trkpt><trkpt lat="39.13486266327654" lon="16.146237405597528"><ele>385.5</ele><time>2026-05-03T11:37:01.999Z</time></trkpt><trkpt lat="39.13493610846901" lon="16.14617365947684"><ele>387.0</ele><time>2026-05-03T11:37:02.999Z</time></trkpt><trkpt lat="39.13501055201465" lon="16.146092634563605"><ele>388.5</ele><time>2026-05-03T11:37:03.999Z</time></trkpt><trkpt lat="39.13509359407221" lon="16.146067264324028"><ele>390.0</ele><time>2026-05-03T11:37:05.999Z</time></trkpt><trkpt lat="39.13515201781726" lon="16.14600335362173"><ele>390.0</ele><time>2026-05-03T11:37:07.999Z</time></trkpt><trkpt lat="39.135168503178946" lon="16.14584708045648"><ele>390.0</ele><time>2026-05-03T11:37:09.999Z</time></trkpt><trkpt lat="39.13520968982546" lon="16.14576439178802"><ele>390.0</ele><time>2026-05-03T11:37:10.999Z</time></trkpt><trkpt lat="39.13527986156782" lon="16.14569045627044"><ele>390.0</ele><time>2026-05-03T11:37:11.999Z</time></trkpt><trkpt lat="39.13534919036571" lon="16.14559638467519"><ele>390.0</ele><time>2026-05-03T11:37:12.999Z</time></trkpt><trkpt lat="39.13540727955541" lon="16.145485382151303"><ele>393.5</ele><time>2026-05-03T11:37:13.999Z</time></trkpt><trkpt lat="39.135460639200495" lon="16.14537056455959"><ele>397.0</ele><time>2026-05-03T11:37:14.999Z</time></trkpt><trkpt lat="39.13552807374077" lon="16.14524502236364"><ele>400.5</ele><time>2026-05-03T11:37:15.999Z</time></trkpt><trkpt lat="39.135531684141185" lon="16.145155198380703"><ele>404.0</ele><time>2026-05-03T11:37:17.999Z</time></trkpt><trkpt lat="39.1356033526214" lon="16.144964910465774"><ele>406.6</ele><time>2026-05-03T11:37:18.999Z</time></trkpt><trkpt lat="39.135622946920684" lon="16.14487158236675"><ele>409.2</ele><time>2026-05-03T11:37:20Z</time></trkpt><trkpt lat="39.13562807669821" lon="16.14477192317996"><ele>411.8</ele><time>2026-05-03T11:37:21Z</time></trkpt><trkpt lat="39.13563505925681" lon="16.144645152918553"><ele>414.40000000000003</ele><time>2026-05-03T11:37:22Z</time></trkpt><trkpt lat="39.13567209630182" lon="16.14456979376693"><ele>417.0</ele><time>2026-05-03T11:37:23Z</time></trkpt><trkpt lat="39.13573876331728" lon="16.14442279816615"><ele>417.0</ele><time>2026-05-03T11:37:24.999Z</time></trkpt><trkpt lat="39.13577213477634" lon="16.144277978767438"><ele>417.0</ele><time>2026-05-03T11:37:26.999Z</time></trkpt><trkpt lat="39.13585394127312" lon="16.144167391803716"><ele>417.0</ele><time>2026-05-03T11:37:28.999Z</time></trkpt><trkpt lat="39.13590578780372" lon="16.144105714559075"><ele>417.0</ele><time>2026-05-03T11:37:30.999Z</time></trkpt><trkpt lat="39.13593804740624" lon="16.144003730829613"><ele>417.0</ele><time>2026-05-03T11:37:34.999Z</time></trkpt><trkpt lat="39.13598813603783" lon="16.143930704820377"><ele>420.3333333333333</ele><time>2026-05-03T11:37:37.999Z</time></trkpt><trkpt lat="39.136032089208996" lon="16.143789246535988"><ele>423.66666666666663</ele><time>2026-05-03T11:37:46.999Z</time></trkpt><trkpt lat="39.13607531549775" lon="16.143700133796283"><ele>427.0</ele><time>2026-05-03T11:37:47.999Z</time></trkpt><trkpt lat="39.13612664638189" lon="16.143611141428018"><ele>430.3333333333333</ele><time>2026-05-03T11:37:48.999Z</time></trkpt><trkpt lat="39.13618989153498" lon="16.143547387489566"><ele>433.66666666666663</ele><time>2026-05-03T11:37:49.999Z</time></trkpt><trkpt lat="39.13625822050033" lon="16.143530474648152"><ele>437.0</ele><time>2026-05-03T11:37:50.999Z</time></trkpt><trkpt lat="39.13634606250411" lon="16.14351700679445"><ele>437.0</ele><time>2026-05-03T11:37:51.999Z</time></trkpt><trkpt lat="39.13643286288595" lon="16.143421116650096"><ele>437.00000000000006</ele><time>2026-05-03T11:37:53.999Z</time></trkpt><trkpt lat="39.13645717735254" lon="16.143297909104238"><ele>437.00000000000006</ele><time>2026-05-03T11:37:55.999Z</time></trkpt><trkpt lat="39.13646742102035" lon="16.143174135372448"><ele>437.0</ele><time>2026-05-03T11:37:57.999Z</time></trkpt><trkpt lat="39.13646724278612" lon="16.143070097808373"><ele>437.0</ele><time>2026-05-03T11:38:00.999Z</time></trkpt><trkpt lat="39.136421055198085" lon="16.142985809797633"><ele>440.75</ele><time>2026-05-03T11:38:01.999Z</time></trkpt><trkpt lat="39.13643089911698" lon="16.142849858058685"><ele>444.5</ele><time>2026-05-03T11:38:03.999Z</time></trkpt><trkpt lat="39.13652229098449" lon="16.142722867333926"><ele>448.25</ele><time>2026-05-03T11:38:05.999Z</time></trkpt><trkpt lat="39.136514213141474" lon="16.142578687532254"><ele>452.0</ele><time>2026-05-03T11:38:07.999Z</time></trkpt><trkpt lat="39.1364975695396" lon="16.14243556462197"><ele>450.6</ele><time>2026-05-03T11:38:09.999Z</time></trkpt><trkpt lat="39.13646148624264" lon="16.142292741413677"><ele>449.20000000000005</ele><time>2026-05-03T11:38:11.999Z</time></trkpt><trkpt lat="39.136432241967185" lon="16.142219463429132"><ele>447.8</ele><time>2026-05-03T11:38:12.999Z</time></trkpt><trkpt lat="39.13639823689081" lon="16.14206422547764"><ele>446.4</ele><time>2026-05-03T11:38:14.999Z</time></trkpt><trkpt lat="39.136355841288434" lon="16.141932416357456"><ele>445.0</ele><time>2026-05-03T11:38:17Z</time></trkpt><trkpt lat="39.13632058351008" lon="16.14184261326048"><ele>445.0</ele><time>2026-05-03T11:38:19Z</time></trkpt><trkpt lat="39.13636766915691" lon="16.141751654781025"><ele>445.0</ele><time>2026-05-03T11:38:21Z</time></trkpt><trkpt lat="39.136463084696786" lon="16.141701977497842"><ele>445.0</ele><time>2026-05-03T11:38:23Z</time></trkpt><trkpt lat="39.136561903130506" lon="16.141622791662584"><ele>445.0</ele><time>2026-05-03T11:39:07Z</time></trkpt><trkpt lat="39.13668160327289" lon="16.14153941779689"><ele>445.0</ele><time>2026-05-03T11:39:09Z</time></trkpt><trkpt lat="39.136770114847074" lon="16.141515356948105"><ele>443.2</ele><time>2026-05-03T11:39:10Z</time></trkpt><trkpt lat="39.13685009296424" lon="16.141475243286713"><ele>441.4</ele><time>2026-05-03T11:39:11Z</time></trkpt><trkpt lat="39.13694056539118" lon="16.14142693661272"><ele>439.6</ele><time>2026-05-03T11:39:12Z</time></trkpt><trkpt lat="39.137034531290524" lon="16.14137541708871"><ele>437.8</ele><time>2026-05-03T11:39:13.001Z</time></trkpt><trkpt lat="39.13713036519256" lon="16.141322559922035"><ele>436.0</ele><time>2026-05-03T11:39:14.001Z</time></trkpt><trkpt lat="39.13722838683417" lon="16.141272268561668"><ele>436.0</ele><time>2026-05-03T11:39:15.001Z</time></trkpt><trkpt lat="39.13732738544109" lon="16.141221622853863"><ele>436.0</ele><time>2026-05-03T11:39:16.001Z</time></trkpt><trkpt lat="39.13742125176105" lon="16.1411569132332"><ele>436.0</ele><time>2026-05-03T11:39:17.001Z</time></trkpt><trkpt lat="39.13751318756579" lon="16.1411321062291"><ele>436.0</ele><time>2026-05-03T11:39:18.001Z</time></trkpt><trkpt lat="39.13761421831921" lon="16.141131316308115"><ele>436.0</ele><time>2026-05-03T11:39:19.001Z</time></trkpt><trkpt lat="39.13771865472414" lon="16.141158337048935"><ele>437.8</ele><time>2026-05-03T11:39:20.001Z</time></trkpt><trkpt lat="39.13782329507787" lon="16.141187088567307"><ele>439.6</ele><time>2026-05-03T11:39:21.001Z</time></trkpt><trkpt lat="39.13792497864573" lon="16.141215790939672"><ele>441.4</ele><time>2026-05-03T11:39:22.001Z</time></trkpt><trkpt lat="39.1380292373306" lon="16.141248299625232"><ele>443.2</ele><time>2026-05-03T11:39:23.001Z</time></trkpt><trkpt lat="39.138135723873425" lon="16.141283202305534"><ele>445.0</ele><time>2026-05-03T11:39:24.001Z</time></trkpt><trkpt lat="39.13823678102077" lon="16.141315111546945"><ele>448.8</ele><time>2026-05-03T11:39:25.001Z</time></trkpt><trkpt lat="39.13833336576491" lon="16.141335515991138"><ele>452.6</ele><time>2026-05-03T11:39:26.001Z</time></trkpt><trkpt lat="39.1384256839156" lon="16.14133128391704"><ele>456.4</ele><time>2026-05-03T11:39:27Z</time></trkpt><trkpt lat="39.13849542928725" lon="16.141286369278777"><ele>460.2</ele><time>2026-05-03T11:39:28Z</time></trkpt><trkpt lat="39.13853886278169" lon="16.141185322531562"><ele>464.0</ele><time>2026-05-03T11:39:29Z</time></trkpt><trkpt lat="39.13856402700147" lon="16.141051623907156"><ele>464.0</ele><time>2026-05-03T11:39:30Z</time></trkpt><trkpt lat="39.138573921061784" lon="16.140907475980182"><ele>464.0</ele><time>2026-05-03T11:39:31Z</time></trkpt><trkpt lat="39.13859703634918" lon="16.140773789801028"><ele>464.0</ele><time>2026-05-03T11:39:32Z</time></trkpt><trkpt lat="39.13864496605728" lon="16.140673872399507"><ele>464.0</ele><time>2026-05-03T11:39:33Z</time></trkpt><trkpt lat="39.1387233696276" lon="16.14061114949656"><ele>464.0</ele><time>2026-05-03T11:39:34Z</time></trkpt><trkpt lat="39.138819331714714" lon="16.14056847640526"><ele>460.5</ele><time>2026-05-03T11:39:35Z</time></trkpt><trkpt lat="39.1389206975982" lon="16.1405335829081"><ele>457.0</ele><time>2026-05-03T11:39:36Z</time></trkpt><trkpt lat="39.13901190174014" lon="16.140455540078648"><ele>453.5</ele><time>2026-05-03T11:39:37Z</time></trkpt><trkpt lat="39.139073255484945" lon="16.14032725820566"><ele>450.0</ele><time>2026-05-03T11:39:38Z</time></trkpt><trkpt lat="39.139145324747105" lon="16.140199628712672"><ele>455.0</ele><time>2026-05-03T11:39:39Z</time></trkpt><trkpt lat="39.139210592939556" lon="16.14006312407483"><ele>460.0</ele><time>2026-05-03T11:39:40Z</time></trkpt><trkpt lat="39.13927260548174" lon="16.139927714778754"><ele>465.0</ele><time>2026-05-03T11:39:41Z</time></trkpt><trkpt lat="39.13932615318588" lon="16.13978862747588"><ele>470.0</ele><time>2026-05-03T11:39:42Z</time></trkpt><trkpt lat="39.139327619164256" lon="16.139634067700065"><ele>470.0</ele><time>2026-05-03T11:39:43Z</time></trkpt><trkpt lat="39.13932739324046" lon="16.139478224278566"><ele>470.0</ele><time>2026-05-03T11:39:44Z</time></trkpt><trkpt lat="39.13933470661386" lon="16.13932232055906"><ele>470.0</ele><time>2026-05-03T11:39:45Z</time></trkpt><trkpt lat="39.13939938211267" lon="16.139204905995722"><ele>470.0</ele><time>2026-05-03T11:39:46Z</time></trkpt><trkpt lat="39.139452641766766" lon="16.139081393276214"><ele>470.0</ele><time>2026-05-03T11:39:47Z</time></trkpt><trkpt lat="39.13951017256182" lon="16.1389435060222"><ele>470.0</ele><time>2026-05-03T11:39:48Z</time></trkpt><trkpt lat="39.13956197963108" lon="16.13879984636936"><ele>470.0</ele><time>2026-05-03T11:39:49Z</time></trkpt><trkpt lat="39.139592975501806" lon="16.13864757451963"><ele>470.0</ele><time>2026-05-03T11:39:50Z</time></trkpt><trkpt lat="39.13964689214033" lon="16.138510982711896"><ele>470.0</ele><time>2026-05-03T11:39:51Z</time></trkpt><trkpt lat="39.139691093700044" lon="16.138370896918932"><ele>470.0</ele><time>2026-05-03T11:39:52Z</time></trkpt><trkpt lat="39.13972896864179" lon="16.138226810105962"><ele>470.0</ele><time>2026-05-03T11:39:53Z</time></trkpt><trkpt lat="39.13976171567735" lon="16.138090956817244"><ele>470.0</ele><time>2026-05-03T11:39:54Z</time></trkpt><trkpt lat="39.139784975098735" lon="16.13797467718711"><ele>470.0</ele><time>2026-05-03T11:39:55Z</time></trkpt><trkpt lat="39.139808544429286" lon="16.137894405073347"><ele>471.2</ele><time>2026-05-03T11:39:56Z</time></trkpt><trkpt lat="39.139882944336755" lon="16.13781611630245"><ele>472.4</ele><time>2026-05-03T11:39:58Z</time></trkpt><trkpt lat="39.139991513601075" lon="16.137902854980943"><ele>473.6</ele><time>2026-05-03T11:39:59Z</time></trkpt><trkpt lat="39.14004175379213" lon="16.13800764274654"><ele>474.8</ele><time>2026-05-03T11:40:00Z</time></trkpt><trkpt lat="39.14012175220182" lon="16.138086610428136"><ele>476.0</ele><time>2026-05-03T11:40:01Z</time></trkpt><trkpt lat="39.140219103039165" lon="16.138138321315136"><ele>477.25</ele><time>2026-05-03T11:40:02Z</time></trkpt><trkpt lat="39.14033675588691" lon="16.138127971521683"><ele>478.5</ele><time>2026-05-03T11:40:03Z</time></trkpt><trkpt lat="39.14044982770541" lon="16.13804906635168"><ele>479.75</ele><time>2026-05-03T11:40:04Z</time></trkpt><trkpt lat="39.140551393458644" lon="16.137969595495647"><ele>481.0</ele><time>2026-05-03T11:40:05Z</time></trkpt><trkpt lat="39.140662468694" lon="16.137909578456746"><ele>481.75</ele><time>2026-05-03T11:40:06Z</time></trkpt><trkpt lat="39.140770731866795" lon="16.137836655585396"><ele>482.5</ele><time>2026-05-03T11:40:07Z</time></trkpt><trkpt lat="39.14087572198532" lon="16.137748274939106"><ele>483.25</ele><time>2026-05-03T11:40:08Z</time></trkpt><trkpt lat="39.14099035680867" lon="16.13770008048238"><ele>484.0</ele><time>2026-05-03T11:40:09Z</time></trkpt><trkpt lat="39.14109412801014" lon="16.137684713931147"><ele>484.0</ele><time>2026-05-03T11:40:10Z</time></trkpt><trkpt lat="39.14120110322213" lon="16.137700522792805"><ele>484.0</ele><time>2026-05-03T11:40:11Z</time></trkpt><trkpt lat="39.14129726662213" lon="16.13775008605614"><ele>484.0</ele><time>2026-05-03T11:40:12Z</time></trkpt><trkpt lat="39.141366751229484" lon="16.137833586712542"><ele>484.0</ele><time>2026-05-03T11:40:13Z</time></trkpt><trkpt lat="39.14139305638207" lon="16.13793533211382"><ele>484.0</ele><time>2026-05-03T11:40:14Z</time></trkpt><trkpt lat="39.14139595556225" lon="16.13804664093296"><ele>484.0</ele><time>2026-05-03T11:40:15Z</time></trkpt><trkpt lat="39.1413858839875" lon="16.138171950832156"><ele>484.0</ele><time>2026-05-03T11:40:16Z</time></trkpt><trkpt lat="39.14137527198674" lon="16.138309386445542"><ele>484.0</ele><time>2026-05-03T11:40:17Z</time></trkpt><trkpt lat="39.14136868257745" lon="16.138457329602673"><ele>484.0</ele><time>2026-05-03T11:40:18Z</time></trkpt><trkpt lat="39.14133828743699" lon="16.138613176732225"><ele>484.0</ele><time>2026-05-03T11:40:19Z</time></trkpt><trkpt lat="39.141333916416" lon="16.13878279919399"><ele>488.75</ele><time>2026-05-03T11:40:20Z</time></trkpt><trkpt lat="39.141309132316586" lon="16.138957451275374"><ele>493.5</ele><time>2026-05-03T11:40:21Z</time></trkpt><trkpt lat="39.141286645904046" lon="16.139143598887145"><ele>498.25</ele><time>2026-05-03T11:40:22Z</time></trkpt><trkpt lat="39.14126685159549" lon="16.13933475673318"><ele>503.0</ele><time>2026-05-03T11:40:23Z</time></trkpt><trkpt lat="39.14125250329538" lon="16.139524166390558"><ele>504.0</ele><time>2026-05-03T11:40:24Z</time></trkpt><trkpt lat="39.141237045119105" lon="16.13970646316238"><ele>505.0</ele><time>2026-05-03T11:40:25Z</time></trkpt><trkpt lat="39.141217167593055" lon="16.139879945849955"><ele>506.0</ele><time>2026-05-03T11:40:26Z</time></trkpt><trkpt lat="39.14120555217191" lon="16.14003733112782"><ele>507.0</ele><time>2026-05-03T11:40:27Z</time></trkpt><trkpt lat="39.14122353910041" lon="16.140185704327287"><ele>502.0</ele><time>2026-05-03T11:40:28Z</time></trkpt><trkpt lat="39.1412898067572" lon="16.140325454042245"><ele>497.0</ele><time>2026-05-03T11:40:29Z</time></trkpt><trkpt lat="39.141365292534864" lon="16.140462817996053"><ele>492.0</ele><time>2026-05-03T11:40:30Z</time></trkpt><trkpt lat="39.141462779251654" lon="16.14058158551995"><ele>487.0</ele><time>2026-05-03T11:40:31Z</time></trkpt><trkpt lat="39.141574310331" lon="16.14068830695885"><ele>488.0</ele><time>2026-05-03T11:40:32Z</time></trkpt><trkpt lat="39.14168973836937" lon="16.140786059260986"><ele>489.0</ele><time>2026-05-03T11:40:33Z</time></trkpt><trkpt lat="39.14180830443687" lon="16.140868196697113"><ele>490.0</ele><time>2026-05-03T11:40:34Z</time></trkpt><trkpt lat="39.14192788049911" lon="16.140927707836465"><ele>491.0</ele><time>2026-05-03T11:40:35Z</time></trkpt><trkpt lat="39.14203216010722" lon="16.140962066579043"><ele>491.0</ele><time>2026-05-03T11:40:36Z</time></trkpt><trkpt lat="39.142127267546755" lon="16.14097469221758"><ele>491.0</ele><time>2026-05-03T11:40:37Z</time></trkpt><trkpt lat="39.14222880000986" lon="16.140951951046716"><ele>491.0</ele><time>2026-05-03T11:40:38Z</time></trkpt><trkpt lat="39.14232766742722" lon="16.140883579331753"><ele>491.0</ele><time>2026-05-03T11:40:39Z</time></trkpt><trkpt lat="39.1424303783535" lon="16.140775266199686"><ele>491.0</ele><time>2026-05-03T11:40:40Z</time></trkpt><trkpt lat="39.14255021114311" lon="16.14066057240291"><ele>493.66666666666663</ele><time>2026-05-03T11:40:41Z</time></trkpt><trkpt lat="39.14265759302591" lon="16.14052178050776"><ele>496.33333333333337</ele><time>2026-05-03T11:40:42Z</time></trkpt><trkpt lat="39.14273824432934" lon="16.14035130571145"><ele>499.0</ele><time>2026-05-03T11:40:43Z</time></trkpt><trkpt lat="39.142835466699715" lon="16.14019337442264"><ele>499.0</ele><time>2026-05-03T11:40:44Z</time></trkpt><trkpt lat="39.14292849596842" lon="16.140038482443195"><ele>499.0</ele><time>2026-05-03T11:40:45Z</time></trkpt><trkpt lat="39.14302253329003" lon="16.13989521810088"><ele>499.0</ele><time>2026-05-03T11:40:46Z</time></trkpt><trkpt lat="39.14311718383427" lon="16.139764946272976"><ele>499.0</ele><time>2026-05-03T11:40:47Z</time></trkpt><trkpt lat="39.14321152847489" lon="16.139642411392096"><ele>501.2</ele><time>2026-05-03T11:40:48Z</time></trkpt><trkpt lat="39.14331847653972" lon="16.13954845204582"><ele>503.4</ele><time>2026-05-03T11:40:49Z</time></trkpt><trkpt lat="39.14340681602892" lon="16.13946065705987"><ele>505.6</ele><time>2026-05-03T11:40:50Z</time></trkpt><trkpt lat="39.14348232253181" lon="16.139383263319267"><ele>507.8</ele><time>2026-05-03T11:40:51Z</time></trkpt><trkpt lat="39.14356449590919" lon="16.13931266707571"><ele>510.0</ele><time>2026-05-03T11:40:52Z</time></trkpt><trkpt lat="39.14363202495881" lon="16.13921393874368"><ele>510.0</ele><time>2026-05-03T11:40:53Z</time></trkpt><trkpt lat="39.14367535872932" lon="16.139086440268606"><ele>510.0</ele><time>2026-05-03T11:40:54Z</time></trkpt><trkpt lat="39.14370383808878" lon="16.13894821382944"><ele>510.0</ele><time>2026-05-03T11:40:55Z</time></trkpt><trkpt lat="39.14375129255038" lon="16.138818453649208"><ele>510.0</ele><time>2026-05-03T11:40:56Z</time></trkpt><trkpt lat="39.143779324298634" lon="16.13867739834806"><ele>510.0</ele><time>2026-05-03T11:40:57Z</time></trkpt><trkpt lat="39.1438220550402" lon="16.138563600185382"><ele>511.6666666666667</ele><time>2026-05-03T11:40:58Z</time></trkpt><trkpt lat="39.14386260495829" lon="16.138477935222546"><ele>513.3333333333334</ele><time>2026-05-03T11:40:59Z</time></trkpt><trkpt lat="39.14391661488632" lon="16.138415972596025"><ele>515.0</ele><time>2026-05-03T11:41:00Z</time></trkpt><trkpt lat="39.14399612532085" lon="16.138368572138408"><ele>516.6666666666667</ele><time>2026-05-03T11:41:01Z</time></trkpt><trkpt lat="39.14409571692233" lon="16.138352556212944"><ele>518.3333333333334</ele><time>2026-05-03T11:41:02Z</time></trkpt><trkpt lat="39.144199203362454" lon="16.13836189645288"><ele>520.0</ele><time>2026-05-03T11:41:03Z</time></trkpt><trkpt lat="39.14429903607824" lon="16.138388863002486"><ele>520.0</ele><time>2026-05-03T11:41:04Z</time></trkpt><trkpt lat="39.14438680011322" lon="16.138416788553393"><ele>520.0</ele><time>2026-05-03T11:41:05Z</time></trkpt><trkpt lat="39.14446515288384" lon="16.138454122228726"><ele>520.0</ele><time>2026-05-03T11:41:07Z</time></trkpt><trkpt lat="39.14452599193289" lon="16.138503265802353"><ele>520.0</ele><time>2026-05-03T11:41:09Z</time></trkpt><trkpt lat="39.14456344357841" lon="16.13860492255457"><ele>520.0</ele><time>2026-05-03T11:41:11Z</time></trkpt><trkpt lat="39.144677436419855" lon="16.138542566716826"><ele>520.0</ele><time>2026-05-03T11:41:12Z</time></trkpt><trkpt lat="39.144787859513855" lon="16.13849829827647"><ele>520.0</ele><time>2026-05-03T11:41:14Z</time></trkpt><trkpt lat="39.14484589160618" lon="16.138453713494492"><ele>520.0</ele><time>2026-05-03T11:41:15Z</time></trkpt><trkpt lat="39.144897758401974" lon="16.138383365235686"><ele>520.0</ele><time>2026-05-03T11:41:16Z</time></trkpt><trkpt lat="39.14494000384656" lon="16.138305906408718"><ele>520.0</ele><time>2026-05-03T11:41:17Z</time></trkpt><trkpt lat="39.14504359407023" lon="16.138234034656758"><ele>521.6666666666667</ele><time>2026-05-03T11:41:19Z</time></trkpt><trkpt lat="39.14511631450616" lon="16.138270540834345"><ele>523.3333333333334</ele><time>2026-05-03T11:41:20Z</time></trkpt><trkpt lat="39.14520517043246" lon="16.138273243189598"><ele>525.0</ele><time>2026-05-03T11:41:21Z</time></trkpt><trkpt lat="39.14527740224829" lon="16.138282382271974"><ele>526.6666666666666</ele><time>2026-05-03T11:41:22Z</time></trkpt><trkpt lat="39.14535028468239" lon="16.138242927473794"><ele>528.3333333333333</ele><time>2026-05-03T11:41:23Z</time></trkpt><trkpt lat="39.145418430480156" lon="16.13815540623413"><ele>530.0</ele><time>2026-05-03T11:41:24Z</time></trkpt><trkpt lat="39.14550027825821" lon="16.13805879737692"><ele>526.0</ele><time>2026-05-03T11:41:25Z</time></trkpt><trkpt lat="39.14558525629956" lon="16.137974166870904"><ele>522.0</ele><time>2026-05-03T11:41:26Z</time></trkpt><trkpt lat="39.14566063079493" lon="16.137891951997744"><ele>518.0</ele><time>2026-05-03T11:41:27Z</time></trkpt><trkpt lat="39.14573011481977" lon="16.137801424577937"><ele>514.0</ele><time>2026-05-03T11:41:28Z</time></trkpt><trkpt lat="39.14579309894707" lon="16.137730052033394"><ele>510.0</ele><time>2026-05-03T11:41:29Z</time></trkpt><trkpt lat="39.14593440482437" lon="16.137715715494117"><ele>510.0</ele><time>2026-05-03T11:41:31Z</time></trkpt><trkpt lat="39.14603515882105" lon="16.137719099740206"><ele>510.0</ele><time>2026-05-03T11:41:32Z</time></trkpt><trkpt lat="39.14614306268569" lon="16.137724977715276"><ele>510.0</ele><time>2026-05-03T11:41:33Z</time></trkpt><trkpt lat="39.14623355326842" lon="16.137745476126742"><ele>510.0</ele><time>2026-05-03T11:41:34Z</time></trkpt><trkpt lat="39.146303958095324" lon="16.137782469469077"><ele>510.0</ele><time>2026-05-03T11:41:35Z</time></trkpt><trkpt lat="39.146370527904715" lon="16.137844871526067"><ele>510.0</ele><time>2026-05-03T11:41:36Z</time></trkpt><trkpt lat="39.14644072864171" lon="16.137911580844534"><ele>510.0</ele><time>2026-05-03T11:41:37Z</time></trkpt><trkpt lat="39.14652990351088" lon="16.13794902575592"><ele>510.0</ele><time>2026-05-03T11:41:39Z</time></trkpt><trkpt lat="39.146602615429515" lon="16.137829580158694"><ele>510.0</ele><time>2026-05-03T11:41:41Z</time></trkpt><trkpt lat="39.14663909443871" lon="16.13774033706865"><ele>510.0</ele><time>2026-05-03T11:41:42Z</time></trkpt><trkpt lat="39.14669950920925" lon="16.13763951038609"><ele>509.2</ele><time>2026-05-03T11:41:44Z</time></trkpt><trkpt lat="39.14682469359181" lon="16.13752677141199"><ele>508.4</ele><time>2026-05-03T11:41:46Z</time></trkpt><trkpt lat="39.146905044432266" lon="16.13745355350036"><ele>507.6</ele><time>2026-05-03T11:41:47Z</time></trkpt><trkpt lat="39.14697946243076" lon="16.137387109337144"><ele>506.8</ele><time>2026-05-03T11:41:48Z</time></trkpt><trkpt lat="39.14706338484138" lon="16.137324245433497"><ele>506.0</ele><time>2026-05-03T11:41:49Z</time></trkpt><trkpt lat="39.14710594287936" lon="16.137213613162004"><ele>506.0</ele><time>2026-05-03T11:41:50Z</time></trkpt><trkpt lat="39.14715653069729" lon="16.137109157563092"><ele>506.0</ele><time>2026-05-03T11:41:51Z</time></trkpt><trkpt lat="39.14723546133302" lon="16.13702587079829"><ele>506.0</ele><time>2026-05-03T11:41:52Z</time></trkpt><trkpt lat="39.14727994531474" lon="16.136903638819128"><ele>506.0</ele><time>2026-05-03T11:41:53Z</time></trkpt><trkpt lat="39.14734115808495" lon="16.136811226487485"><ele>506.0</ele><time>2026-05-03T11:41:54Z</time></trkpt><trkpt lat="39.14739425370309" lon="16.136728367895767"><ele>510.66666666666663</ele><time>2026-05-03T11:41:55Z</time></trkpt><trkpt lat="39.14742972797896" lon="16.13665512829417"><ele>515.3333333333333</ele><time>2026-05-03T11:41:56Z</time></trkpt><trkpt lat="39.147446317235264" lon="16.136535853577726"><ele>520.0</ele><time>2026-05-03T11:41:58Z</time></trkpt><trkpt lat="39.14750247538317" lon="16.136474168964998"><ele>524.6666666666666</ele><time>2026-05-03T11:42:00Z</time></trkpt><trkpt lat="39.14757265980977" lon="16.136450997733235"><ele>529.3333333333334</ele><time>2026-05-03T11:42:01Z</time></trkpt><trkpt lat="39.14764963648664" lon="16.13637516828904"><ele>534.0</ele><time>2026-05-03T11:42:03Z</time></trkpt><trkpt lat="39.147607135120786" lon="16.136254887632298"><ele>534.3333333333334</ele><time>2026-05-03T11:42:05Z</time></trkpt><trkpt lat="39.14754199214205" lon="16.13621668856909"><ele>534.6666666666666</ele><time>2026-05-03T11:42:06Z</time></trkpt><trkpt lat="39.14747938617472" lon="16.13609043116508"><ele>535.0</ele><time>2026-05-03T11:42:08Z</time></trkpt><trkpt lat="39.14743933725603" lon="16.13602737268726"><ele>535.3333333333333</ele><time>2026-05-03T11:42:09Z</time></trkpt><trkpt lat="39.1473955119962" lon="16.135968482623266"><ele>535.6666666666666</ele><time>2026-05-03T11:42:10Z</time></trkpt><trkpt lat="39.14732467589741" lon="16.1358456432697"><ele>536.0</ele><time>2026-05-03T11:42:12Z</time></trkpt><trkpt lat="39.14729310125053" lon="16.135773152183848"><ele>536.8571428571429</ele><time>2026-05-03T11:42:13Z</time></trkpt><trkpt lat="39.14726099050026" lon="16.135692738192816"><ele>537.7142857142857</ele><time>2026-05-03T11:42:14Z</time></trkpt><trkpt lat="39.14722898245233" lon="16.135614821362083"><ele>538.5714285714286</ele><time>2026-05-03T11:42:15Z</time></trkpt><trkpt lat="39.14719654661373" lon="16.135536878376758"><ele>539.4285714285714</ele><time>2026-05-03T11:42:16Z</time></trkpt><trkpt lat="39.147158376987605" lon="16.135452385203447"><ele>540.2857142857143</ele><time>2026-05-03T11:42:17Z</time></trkpt><trkpt lat="39.14712275369921" lon="16.13537518481678"><ele>541.1428571428571</ele><time>2026-05-03T11:42:18Z</time></trkpt><trkpt lat="39.14705904763466" lon="16.135281569634444"><ele>542.0</ele><time>2026-05-03T11:42:19Z</time></trkpt><trkpt lat="39.147014664876735" lon="16.135183950806887"><ele>542.0</ele><time>2026-05-03T11:42:20Z</time></trkpt><trkpt lat="39.1469769175132" lon="16.13510185306318"><ele>542.0</ele><time>2026-05-03T11:42:21Z</time></trkpt><trkpt lat="39.1469167606611" lon="16.13501901012304"><ele>542.0</ele><time>2026-05-03T11:42:22Z</time></trkpt><trkpt lat="39.14685219478255" lon="16.134974857162526"><ele>542.0</ele><time>2026-05-03T11:42:23Z</time></trkpt><trkpt lat="39.14678748526533" lon="16.134963613774605"><ele>542.0</ele><time>2026-05-03T11:42:24Z</time></trkpt><trkpt lat="39.14665415488963" lon="16.134992295576037"><ele>542.0</ele><time>2026-05-03T11:42:26Z</time></trkpt><trkpt lat="39.14656229038484" lon="16.135021627796938"><ele>540.2</ele><time>2026-05-03T11:42:27Z</time></trkpt><trkpt lat="39.146460944285394" lon="16.1350322922349"><ele>538.4000000000001</ele><time>2026-05-03T11:42:28Z</time></trkpt><trkpt lat="39.14637805369237" lon="16.13504325237857"><ele>536.5999999999999</ele><time>2026-05-03T11:42:29Z</time></trkpt><trkpt lat="39.146272941513324" lon="16.13504052172707"><ele>534.8</ele><time>2026-05-03T11:42:30Z</time></trkpt><trkpt lat="39.146171826679016" lon="16.135024571368646"><ele>533.0</ele><time>2026-05-03T11:42:31Z</time></trkpt><trkpt lat="39.146094320001495" lon="16.134999232135133"><ele>533.0</ele><time>2026-05-03T11:42:32Z</time></trkpt><trkpt lat="39.146062255607056" lon="16.134927727736255"><ele>533.0</ele><time>2026-05-03T11:42:33Z</time></trkpt><trkpt lat="39.1460175455538" lon="16.134774462409407"><ele>533.0</ele><time>2026-05-03T11:42:35Z</time></trkpt><trkpt lat="39.14603274315457" lon="16.134691141446158"><ele>533.0</ele><time>2026-05-03T11:42:36Z</time></trkpt><trkpt lat="39.14601041047021" lon="16.134603312545604"><ele>533.0</ele><time>2026-05-03T11:42:37Z</time></trkpt><trkpt lat="39.146000612196225" lon="16.134502749168146"><ele>533.0</ele><time>2026-05-03T11:42:38Z</time></trkpt><trkpt lat="39.14598816829435" lon="16.134414587581716"><ele>535.8</ele><time>2026-05-03T11:42:39Z</time></trkpt><trkpt lat="39.14588245381851" lon="16.134308982234487"><ele>538.5999999999999</ele><time>2026-05-03T11:42:41Z</time></trkpt><trkpt lat="39.14580846019083" lon="16.134282618543047"><ele>541.4000000000001</ele><time>2026-05-03T11:42:42Z</time></trkpt><trkpt lat="39.14572293568673" lon="16.134288984198957"><ele>544.2</ele><time>2026-05-03T11:42:43Z</time></trkpt><trkpt lat="39.14564752392802" lon="16.134311051357923"><ele>547.0</ele><time>2026-05-03T11:42:44Z</time></trkpt><trkpt lat="39.14557311033187" lon="16.134348294800628"><ele>547.0</ele><time>2026-05-03T11:42:45Z</time></trkpt><trkpt lat="39.145494956697654" lon="16.134391617003267"><ele>547.0</ele><time>2026-05-03T11:42:46Z</time></trkpt><trkpt lat="39.145412236860196" lon="16.13441679421018"><ele>547.0</ele><time>2026-05-03T11:42:47Z</time></trkpt><trkpt lat="39.14533412511757" lon="16.134436163743725"><ele>547.0</ele><time>2026-05-03T11:42:48Z</time></trkpt><trkpt lat="39.14526127310386" lon="16.134436169729764"><ele>547.0</ele><time>2026-05-03T11:42:49Z</time></trkpt><trkpt lat="39.1451817857579" lon="16.134438901210956"><ele>547.0</ele><time>2026-05-03T11:42:50Z</time></trkpt><trkpt lat="39.1450877035704" lon="16.134464329261643"><ele>547.0</ele><time>2026-05-03T11:42:51Z</time></trkpt><trkpt lat="39.145012471505126" lon="16.134439909803067"><ele>547.0</ele><time>2026-05-03T11:42:52Z</time></trkpt><trkpt lat="39.14496238940657" lon="16.134345522504436"><ele>547.0</ele><time>2026-05-03T11:42:53Z</time></trkpt><trkpt lat="39.14490843330048" lon="16.134272768329048"><ele>547.0</ele><time>2026-05-03T11:42:54Z</time></trkpt><trkpt lat="39.144844766712076" lon="16.134203641388986"><ele>547.0</ele><time>2026-05-03T11:42:55Z</time></trkpt><trkpt lat="39.14477499393143" lon="16.13416309567494"><ele>547.0</ele><time>2026-05-03T11:42:56Z</time></trkpt><trkpt lat="39.14469654312033" lon="16.1341196834998"><ele>542.5</ele><time>2026-05-03T11:42:57Z</time></trkpt><trkpt lat="39.14459954098601" lon="16.134105273075942"><ele>538.0</ele><time>2026-05-03T11:42:58Z</time></trkpt><trkpt lat="39.1445167022072" lon="16.134120549728646"><ele>533.5</ele><time>2026-05-03T11:42:59Z</time></trkpt><trkpt lat="39.14444956940941" lon="16.134105964656225"><ele>529.0</ele><time>2026-05-03T11:43:00Z</time></trkpt><trkpt lat="39.14437811548991" lon="16.13403395631066"><ele>524.5</ele><time>2026-05-03T11:43:02Z</time></trkpt><trkpt lat="39.14435805700192" lon="16.133946452209234"><ele>520.0</ele><time>2026-05-03T11:43:03Z</time></trkpt><trkpt lat="39.14431223406915" lon="16.13385724271"><ele>518.5714285714287</ele><time>2026-05-03T11:43:04Z</time></trkpt><trkpt lat="39.14427082193965" lon="16.133784159279806"><ele>517.1428571428571</ele><time>2026-05-03T11:43:05Z</time></trkpt><trkpt lat="39.144223472631396" lon="16.13372055781593"><ele>515.7142857142858</ele><time>2026-05-03T11:43:06Z</time></trkpt><trkpt lat="39.14416309483862" lon="16.13367232137898"><ele>514.2857142857143</ele><time>2026-05-03T11:43:07Z</time></trkpt><trkpt lat="39.144085990556796" lon="16.133704114633375"><ele>512.8571428571429</ele><time>2026-05-03T11:43:08Z</time></trkpt><trkpt lat="39.14404730969181" lon="16.133770259487758"><ele>511.42857142857144</ele><time>2026-05-03T11:43:10Z</time></trkpt><trkpt lat="39.14405851912402" lon="16.133881577400228"><ele>510.0</ele><time>2026-05-03T11:43:12Z</time></trkpt><trkpt lat="39.14410581590533" lon="16.134001423140276"><ele>511.6666666666667</ele><time>2026-05-03T11:43:14Z</time></trkpt><trkpt lat="39.144131161155194" lon="16.134083635083424"><ele>513.3333333333334</ele><time>2026-05-03T11:43:15Z</time></trkpt><trkpt lat="39.14415022331946" lon="16.13417479939026"><ele>515.0</ele><time>2026-05-03T11:43:16Z</time></trkpt><trkpt lat="39.14414806290541" lon="16.134277267983173"><ele>516.6666666666667</ele><time>2026-05-03T11:43:17Z</time></trkpt><trkpt lat="39.14412043745327" lon="16.134359839306658"><ele>518.3333333333334</ele><time>2026-05-03T11:43:18Z</time></trkpt><trkpt lat="39.14411934198037" lon="16.134510610157445"><ele>520.0</ele><time>2026-05-03T11:43:20Z</time></trkpt><trkpt lat="39.1442009188143" lon="16.13456686276961"><ele>520.0</ele><time>2026-05-03T11:43:22Z</time></trkpt><trkpt lat="39.14425297149329" lon="16.134617929317972"><ele>520.0</ele><time>2026-05-03T11:43:24Z</time></trkpt><trkpt lat="39.14411281208723" lon="16.134630632486317"><ele>520.0</ele><time>2026-05-03T11:43:29Z</time></trkpt><trkpt lat="39.143993741565474" lon="16.134602306369725"><ele>520.0</ele><time>2026-05-03T11:43:31Z</time></trkpt><trkpt lat="39.143892092938216" lon="16.134612569231592"><ele>520.0</ele><time>2026-05-03T11:43:33Z</time></trkpt><trkpt lat="39.1437821820741" lon="16.134654554233013"><ele>511.5</ele><time>2026-05-03T11:43:35Z</time></trkpt><trkpt lat="39.143672677326435" lon="16.1346844887863"><ele>503.0</ele><time>2026-05-03T11:43:37Z</time></trkpt><trkpt lat="39.143609748787284" lon="16.13466683020843"><ele>494.5</ele><time>2026-05-03T11:43:39Z</time></trkpt><trkpt lat="39.143632439248094" lon="16.13451699264465"><ele>486.0</ele><time>2026-05-03T11:43:42Z</time></trkpt><trkpt lat="39.14367761523791" lon="16.13431444019882"><ele>486.0</ele><time>2026-05-03T11:43:44Z</time></trkpt><trkpt lat="39.14369929045251" lon="16.13419759152403"><ele>486.0</ele><time>2026-05-03T11:43:45Z</time></trkpt><trkpt lat="39.143714630164055" lon="16.134099444891557"><ele>486.0</ele><time>2026-05-03T11:43:46Z</time></trkpt><trkpt lat="39.14370961637056" lon="16.134011879813684"><ele>486.0</ele><time>2026-05-03T11:43:47Z</time></trkpt><trkpt lat="39.14366932290721" lon="16.133897207190365"><ele>486.0</ele><time>2026-05-03T11:43:49Z</time></trkpt><trkpt lat="39.143633532431444" lon="16.133816492306213"><ele>486.0</ele><time>2026-05-03T11:43:50Z</time></trkpt><trkpt lat="39.143581729857566" lon="16.133710267438154"><ele>486.1666666666667</ele><time>2026-05-03T11:43:51Z</time></trkpt><trkpt lat="39.14353585160238" lon="16.133594174670474"><ele>486.33333333333337</ele><time>2026-05-03T11:43:52Z</time></trkpt><trkpt lat="39.14349722813307" lon="16.133481707388704"><ele>486.5</ele><time>2026-05-03T11:43:53Z</time></trkpt><trkpt lat="39.143462423763005" lon="16.133384039569982"><ele>486.6666666666667</ele><time>2026-05-03T11:43:54Z</time></trkpt><trkpt lat="39.14343190705015" lon="16.133293289838058"><ele>486.83333333333337</ele><time>2026-05-03T11:43:55Z</time></trkpt><trkpt lat="39.1434187748776" lon="16.1331781425508"><ele>487.0</ele><time>2026-05-03T11:43:57Z</time></trkpt><trkpt lat="39.143464395191025" lon="16.13307661762584"><ele>485.6</ele><time>2026-05-03T11:43:59Z</time></trkpt><trkpt lat="39.14354279648451" lon="16.13298466212645"><ele>484.20000000000005</ele><time>2026-05-03T11:44:00Z</time></trkpt><trkpt lat="39.143632451548555" lon="16.132938301897333"><ele>482.8</ele><time>2026-05-03T11:44:01Z</time></trkpt><trkpt lat="39.14369316943733" lon="16.132868679000413"><ele>481.4</ele><time>2026-05-03T11:44:02Z</time></trkpt><trkpt lat="39.143772810309414" lon="16.1328389558347"><ele>480.0</ele><time>2026-05-03T11:44:03Z</time></trkpt><trkpt lat="39.14386869721644" lon="16.13278546731444"><ele>480.0</ele><time>2026-05-03T11:44:05Z</time></trkpt><trkpt lat="39.143868369295966" lon="16.132687509330996"><ele>480.0</ele><time>2026-05-03T11:44:07Z</time></trkpt><trkpt lat="39.14379047401277" lon="16.132618177279735"><ele>480.0</ele><time>2026-05-03T11:44:09Z</time></trkpt><trkpt lat="39.143708604078675" lon="16.13258288926376"><ele>480.0</ele><time>2026-05-03T11:44:10Z</time></trkpt><trkpt lat="39.14362909063005" lon="16.132553273934956"><ele>480.0</ele><time>2026-05-03T11:44:11Z</time></trkpt><trkpt lat="39.14355653311686" lon="16.132508519534483"><ele>480.0</ele><time>2026-05-03T11:44:13Z</time></trkpt><trkpt lat="39.143596179441026" lon="16.13239214296552"><ele>480.0</ele><time>2026-05-03T11:44:15Z</time></trkpt><trkpt lat="39.14363777633964" lon="16.13232565581581"><ele>480.0</ele><time>2026-05-03T11:44:16Z</time></trkpt><trkpt lat="39.143705051104405" lon="16.13224271376066"><ele>480.0</ele><time>2026-05-03T11:44:18Z</time></trkpt><trkpt lat="39.14377148589554" lon="16.132250166477558"><ele>480.0</ele><time>2026-05-03T11:44:20Z</time></trkpt><trkpt lat="39.14386427122055" lon="16.13233071548416"><ele>480.0</ele><time>2026-05-03T11:44:22Z</time></trkpt><trkpt lat="39.14392008445272" lon="16.132388286749382"><ele>480.0</ele><time>2026-05-03T11:44:23Z</time></trkpt><trkpt lat="39.14399046517191" lon="16.132402999108887"><ele>477.8333333333333</ele><time>2026-05-03T11:44:25Z</time></trkpt><trkpt lat="39.14410059734789" lon="16.132355103043686"><ele>475.66666666666663</ele><time>2026-05-03T11:44:27Z</time></trkpt><trkpt lat="39.14416300456759" lon="16.13231331584015"><ele>473.5</ele><time>2026-05-03T11:44:28Z</time></trkpt><trkpt lat="39.14421245072653" lon="16.132260713091767"><ele>471.3333333333333</ele><time>2026-05-03T11:44:29Z</time></trkpt><trkpt lat="39.14428084514398" lon="16.132127404114115"><ele>469.16666666666663</ele><time>2026-05-03T11:44:31Z</time></trkpt><trkpt lat="39.14431234018729" lon="16.13204658458996"><ele>467.0</ele><time>2026-05-03T11:44:32Z</time></trkpt><trkpt lat="39.14434710502635" lon="16.131973840919372"><ele>466.99999999999994</ele><time>2026-05-03T11:44:33Z</time></trkpt><trkpt lat="39.1443882686934" lon="16.131900010727367"><ele>467.0</ele><time>2026-05-03T11:44:34Z</time></trkpt><trkpt lat="39.14442310260215" lon="16.131829210698545"><ele>466.99999999999994</ele><time>2026-05-03T11:44:35Z</time></trkpt><trkpt lat="39.14446753648563" lon="16.1317611623973"><ele>466.99999999999994</ele><time>2026-05-03T11:44:36Z</time></trkpt><trkpt lat="39.144519578920836" lon="16.131694126126824"><ele>467.0</ele><time>2026-05-03T11:44:37Z</time></trkpt><trkpt lat="39.14455363506851" lon="16.131614877111776"><ele>466.99999999999994</ele><time>2026-05-03T11:44:38Z</time></trkpt><trkpt lat="39.14457157586165" lon="16.13150757824644"><ele>466.99999999999994</ele><time>2026-05-03T11:44:38.999Z</time></trkpt><trkpt lat="39.14458146846697" lon="16.131364879454832"><ele>462.6</ele><time>2026-05-03T11:44:39.999Z</time></trkpt><trkpt lat="39.14458805827512" lon="16.13123067337727"><ele>458.20000000000005</ele><time>2026-05-03T11:44:40.999Z</time></trkpt><trkpt lat="39.144593721344066" lon="16.131104537655315"><ele>453.8</ele><time>2026-05-03T11:44:41.999Z</time></trkpt><trkpt lat="39.14459963078855" lon="16.13097654063283"><ele>449.4</ele><time>2026-05-03T11:44:42.999Z</time></trkpt><trkpt lat="39.14460004335745" lon="16.130850721400527"><ele>445.0</ele><time>2026-05-03T11:44:43.999Z</time></trkpt><trkpt lat="39.144597115544116" lon="16.13072661358457"><ele>441.8</ele><time>2026-05-03T11:44:44.999Z</time></trkpt><trkpt lat="39.14459568647914" lon="16.130597506359997"><ele>438.6</ele><time>2026-05-03T11:44:45.999Z</time></trkpt><trkpt lat="39.144600153752094" lon="16.130474175539142"><ele>435.4</ele><time>2026-05-03T11:44:46.999Z</time></trkpt><trkpt lat="39.144597767013266" lon="16.13035339148103"><ele>432.2</ele><time>2026-05-03T11:44:47.999Z</time></trkpt><trkpt lat="39.14460177193339" lon="16.130239523228052"><ele>429.0</ele><time>2026-05-03T11:44:48.999Z</time></trkpt><trkpt lat="39.144605322931696" lon="16.130147059503486"><ele>429.0</ele><time>2026-05-03T11:44:49.999Z</time></trkpt><trkpt lat="39.144609916614456" lon="16.130049032652973"><ele>429.0</ele><time>2026-05-03T11:44:50.999Z</time></trkpt><trkpt lat="39.144612032701254" lon="16.129954170323167"><ele>429.0</ele><time>2026-05-03T11:44:51.999Z</time></trkpt><trkpt lat="39.144632291405664" lon="16.12980067737085"><ele>429.0</ele><time>2026-05-03T11:44:53.999Z</time></trkpt><trkpt lat="39.14469597638966" lon="16.12968370312725"><ele>429.0</ele><time>2026-05-03T11:44:55.999Z</time></trkpt><trkpt lat="39.14474205460078" lon="16.12961706428334"><ele>427.79999999999995</ele><time>2026-05-03T11:44:56.999Z</time></trkpt><trkpt lat="39.144770066697916" lon="16.129517853404344"><ele>426.59999999999997</ele><time>2026-05-03T11:44:57.999Z</time></trkpt><trkpt lat="39.14480764221869" lon="16.129363631347456"><ele>425.4</ele><time>2026-05-03T11:44:58.999Z</time></trkpt><trkpt lat="39.1448477649244" lon="16.129230388844487"><ele>424.2</ele><time>2026-05-03T11:44:59.999Z</time></trkpt><trkpt lat="39.1448879504103" lon="16.12911751650626"><ele>423.0</ele><time>2026-05-03T11:45:00.999Z</time></trkpt><trkpt lat="39.14492698199945" lon="16.129015092048522"><ele>423.0</ele><time>2026-05-03T11:45:01.999Z</time></trkpt><trkpt lat="39.14496979515087" lon="16.12891314171734"><ele>423.0</ele><time>2026-05-03T11:45:02.999Z</time></trkpt><trkpt lat="39.14501206796017" lon="16.128826117167826"><ele>423.0</ele><time>2026-05-03T11:45:03.999Z</time></trkpt><trkpt lat="39.14504056541354" lon="16.12874878624314"><ele>423.0</ele><time>2026-05-03T11:45:04.999Z</time></trkpt><trkpt lat="39.14505739594623" lon="16.128620131804425"><ele>423.0</ele><time>2026-05-03T11:45:06.999Z</time></trkpt><trkpt lat="39.14498919962438" lon="16.12846627172336"><ele>423.0</ele><time>2026-05-03T11:45:08.999Z</time></trkpt><trkpt lat="39.144934841475404" lon="16.12837433087911"><ele>423.0</ele><time>2026-05-03T11:45:09.999Z</time></trkpt><trkpt lat="39.14489633219536" lon="16.128264991479995"><ele>423.0</ele><time>2026-05-03T11:45:10.999Z</time></trkpt><trkpt lat="39.144863665028794" lon="16.128171724071034"><ele>423.0</ele><time>2026-05-03T11:45:11.999Z</time></trkpt><trkpt lat="39.14483575884011" lon="16.128089127289886"><ele>423.0</ele><time>2026-05-03T11:45:12.999Z</time></trkpt><trkpt lat="39.14480375976723" lon="16.12799073359619"><ele>423.0</ele><time>2026-05-03T11:45:13.999Z</time></trkpt><trkpt lat="39.14478000798233" lon="16.127903234401668"><ele>417.3333333333333</ele><time>2026-05-03T11:45:14.999Z</time></trkpt><trkpt lat="39.14476243344834" lon="16.127818709877065"><ele>411.66666666666663</ele><time>2026-05-03T11:45:15.999Z</time></trkpt><trkpt lat="39.14473238049607" lon="16.127743333234026"><ele>406.0</ele><time>2026-05-03T11:45:16.999Z</time></trkpt><trkpt lat="39.14468887786419" lon="16.127666236755445"><ele>400.3333333333333</ele><time>2026-05-03T11:45:17.999Z</time></trkpt><trkpt lat="39.14464394834326" lon="16.12758984574197"><ele>394.66666666666663</ele><time>2026-05-03T11:45:18.999Z</time></trkpt><trkpt lat="39.14459144876416" lon="16.127484334691925"><ele>389.0</ele><time>2026-05-03T11:45:20.999Z</time></trkpt><trkpt lat="39.14454192016742" lon="16.127379664085005"><ele>388.66666666666663</ele><time>2026-05-03T11:45:22.999Z</time></trkpt><trkpt lat="39.14451310736497" lon="16.12727226820043"><ele>388.3333333333333</ele><time>2026-05-03T11:45:24.999Z</time></trkpt><trkpt lat="39.144475600518305" lon="16.127184485870128"><ele>388.0</ele><time>2026-05-03T11:45:26.999Z</time></trkpt><trkpt lat="39.14441602759287" lon="16.127150218204477"><ele>387.66666666666663</ele><time>2026-05-03T11:45:28.999Z</time></trkpt><trkpt lat="39.144330442985485" lon="16.12710326339281"><ele>387.3333333333333</ele><time>2026-05-03T11:45:32Z</time></trkpt><trkpt lat="39.144242087149934" lon="16.127078541733404"><ele>387.0</ele><time>2026-05-03T11:45:35Z</time></trkpt><trkpt lat="39.14416911104744" lon="16.127065544003333"><ele>387.0</ele><time>2026-05-03T11:45:37Z</time></trkpt><trkpt lat="39.1440869421023" lon="16.127024997393"><ele>387.0</ele><time>2026-05-03T11:45:40Z</time></trkpt><trkpt lat="39.14401744859305" lon="16.127008290708044"><ele>387.0</ele><time>2026-05-03T11:45:43Z</time></trkpt><trkpt lat="39.14399678091833" lon="16.127138720151788"><ele>387.0</ele><time>2026-05-03T11:45:46Z</time></trkpt><trkpt lat="39.14402673754949" lon="16.127240940273442"><ele>387.0</ele><time>2026-05-03T11:45:48Z</time></trkpt><trkpt lat="39.14393836181284" lon="16.127226722320547"><ele>387.0</ele><time>2026-05-03T11:45:51Z</time></trkpt><trkpt lat="39.14386212359115" lon="16.127125896693478"><ele>380.8</ele><time>2026-05-03T11:45:53Z</time></trkpt><trkpt lat="39.14382733933452" lon="16.126995363343575"><ele>374.6</ele><time>2026-05-03T11:45:55Z</time></trkpt><trkpt lat="39.14379595310939" lon="16.126872222189398"><ele>368.40000000000003</ele><time>2026-05-03T11:45:57Z</time></trkpt><trkpt lat="39.143739861253614" lon="16.126769198143617"><ele>362.20000000000005</ele><time>2026-05-03T11:45:59Z</time></trkpt><trkpt lat="39.14366343203735" lon="16.12665568478028"><ele>356.0</ele><time>2026-05-03T11:46:01Z</time></trkpt><trkpt lat="39.14361618879559" lon="16.126546458132385"><ele>354.6</ele><time>2026-05-03T11:46:03Z</time></trkpt><trkpt lat="39.14357023225673" lon="16.126474428371562"><ele>353.20000000000005</ele><time>2026-05-03T11:46:05Z</time></trkpt><trkpt lat="39.14351113939557" lon="16.126395278086825"><ele>351.79999999999995</ele><time>2026-05-03T11:46:07Z</time></trkpt><trkpt lat="39.143434560268766" lon="16.126304537161158"><ele>350.4</ele><time>2026-05-03T11:46:09Z</time></trkpt><trkpt lat="39.14336298086712" lon="16.126229674677404"><ele>349.0</ele><time>2026-05-03T11:46:11Z</time></trkpt><trkpt lat="39.14328427937899" lon="16.126154173576605"><ele>349.0</ele><time>2026-05-03T11:46:13Z</time></trkpt><trkpt lat="39.14321944707068" lon="16.126077988276506"><ele>349.0</ele><time>2026-05-03T11:46:15Z</time></trkpt><trkpt lat="39.1431619543007" lon="16.125971737668817"><ele>349.0</ele><time>2026-05-03T11:46:17Z</time></trkpt><trkpt lat="39.14310110997355" lon="16.12590170344618"><ele>349.0</ele><time>2026-05-03T11:46:19Z</time></trkpt><trkpt lat="39.1430493414321" lon="16.12579776647064"><ele>349.0</ele><time>2026-05-03T11:46:21Z</time></trkpt><trkpt lat="39.14298917778363" lon="16.12569987978967"><ele>343.66666666666663</ele><time>2026-05-03T11:46:23Z</time></trkpt><trkpt lat="39.14296981369916" lon="16.125604346704574"><ele>338.3333333333333</ele><time>2026-05-03T11:46:25Z</time></trkpt><trkpt lat="39.14292646549727" lon="16.12549698795389"><ele>333.0</ele><time>2026-05-03T11:46:27Z</time></trkpt><trkpt lat="39.14286200655286" lon="16.12545371565013"><ele>327.6666666666667</ele><time>2026-05-03T11:46:29Z</time></trkpt><trkpt lat="39.14278479058577" lon="16.125471856586145"><ele>322.33333333333337</ele><time>2026-05-03T11:46:31Z</time></trkpt><trkpt lat="39.142666142367155" lon="16.1254596241669"><ele>317.0</ele><time>2026-05-03T11:46:33Z</time></trkpt><trkpt lat="39.14255846901747" lon="16.125515710298536"><ele>317.0</ele><time>2026-05-03T11:46:35Z</time></trkpt><trkpt lat="39.14250002798561" lon="16.12556704074334"><ele>317.0</ele><time>2026-05-03T11:46:36Z</time></trkpt><trkpt lat="39.142423729610236" lon="16.125534103107796"><ele>317.0</ele><time>2026-05-03T11:46:39Z</time></trkpt><trkpt lat="39.14238686866801" lon="16.125459275508685"><ele>317.0</ele><time>2026-05-03T11:46:41Z</time></trkpt><trkpt lat="39.14244715394081" lon="16.125368406285048"><ele>317.0</ele><time>2026-05-03T11:46:44Z</time></trkpt><trkpt lat="39.14252698328687" lon="16.12530127406248"><ele>317.0</ele><time>2026-05-03T11:46:46Z</time></trkpt><trkpt lat="39.14253947810717" lon="16.12520765164254"><ele>317.0</ele><time>2026-05-03T11:46:47Z</time></trkpt><trkpt lat="39.14256483686813" lon="16.125064471073774"><ele>317.0</ele><time>2026-05-03T11:46:49Z</time></trkpt><trkpt lat="39.14263272272693" lon="16.124972207118805"><ele>317.0</ele><time>2026-05-03T11:46:51Z</time></trkpt><trkpt lat="39.14267767817707" lon="16.12490977084424"><ele>317.0</ele><time>2026-05-03T11:46:52Z</time></trkpt><trkpt lat="39.142727915206635" lon="16.124854074533683"><ele>317.0</ele><time>2026-05-03T11:46:53Z</time></trkpt><trkpt lat="39.14282866365805" lon="16.124787846789964"><ele>314.0</ele><time>2026-05-03T11:46:55Z</time></trkpt><trkpt lat="39.14290777441076" lon="16.124749393368106"><ele>311.0</ele><time>2026-05-03T11:46:57Z</time></trkpt><trkpt lat="39.14297965560748" lon="16.124723281885995"><ele>308.0</ele><time>2026-05-03T11:46:59Z</time></trkpt><trkpt lat="39.1431022689273" lon="16.12461477587228"><ele>305.0</ele><time>2026-05-03T11:47:00Z</time></trkpt><trkpt lat="39.14319972706394" lon="16.124579403809296"><ele>302.0</ele><time>2026-05-03T11:47:02Z</time></trkpt><trkpt lat="39.14331310215724" lon="16.124564029787187"><ele>302.0</ele><time>2026-05-03T11:47:04Z</time></trkpt><trkpt lat="39.14341511141374" lon="16.124568918787862"><ele>302.0</ele><time>2026-05-03T11:47:06Z</time></trkpt><trkpt lat="39.14350805326534" lon="16.12459296729896"><ele>302.0</ele><time>2026-05-03T11:47:08Z</time></trkpt><trkpt lat="39.143579071167785" lon="16.124527437645426"><ele>302.0</ele><time>2026-05-03T11:47:14Z</time></trkpt><trkpt lat="39.1436066213629" lon="16.124365203083986"><ele>302.0</ele><time>2026-05-03T11:47:16Z</time></trkpt><trkpt lat="39.1436284568567" lon="16.12427628464224"><ele>302.0</ele><time>2026-05-03T11:47:17Z</time></trkpt><trkpt lat="39.14365793383374" lon="16.12420027979242"><ele>302.0</ele><time>2026-05-03T11:47:18Z</time></trkpt><trkpt lat="39.14369147191122" lon="16.12411660375916"><ele>302.0</ele><time>2026-05-03T11:47:19Z</time></trkpt><trkpt lat="39.143738315749324" lon="16.12403728470144"><ele>302.0</ele><time>2026-05-03T11:47:20Z</time></trkpt><trkpt lat="39.14378296062673" lon="16.123969104666507"><ele>302.0</ele><time>2026-05-03T11:47:21Z</time></trkpt><trkpt lat="39.143848338999774" lon="16.123867308920012"><ele>302.0</ele><time>2026-05-03T11:47:23Z</time></trkpt><trkpt lat="39.143865547414705" lon="16.12377727223189"><ele>298.42857142857144</ele><time>2026-05-03T11:47:25Z</time></trkpt><trkpt lat="39.14386649938298" lon="16.12369028227841"><ele>294.8571428571429</ele><time>2026-05-03T11:47:27Z</time></trkpt><trkpt lat="39.14390196280971" lon="16.123610500371232"><ele>291.2857142857143</ele><time>2026-05-03T11:47:29Z</time></trkpt><trkpt lat="39.143927170659374" lon="16.12353331749781"><ele>287.7142857142857</ele><time>2026-05-03T11:47:32Z</time></trkpt><trkpt lat="39.14385348901431" lon="16.123476422629"><ele>284.1428571428571</ele><time>2026-05-03T11:47:35Z</time></trkpt><trkpt lat="39.143801989059135" lon="16.123426134892465"><ele>280.57142857142856</ele><time>2026-05-03T11:47:37Z</time></trkpt><trkpt lat="39.14375741583946" lon="16.12332963623024"><ele>277.0</ele><time>2026-05-03T11:47:39Z</time></trkpt><trkpt lat="39.14373196158144" lon="16.123206375038585"><ele>275.3333333333333</ele><time>2026-05-03T11:47:41Z</time></trkpt><trkpt lat="39.143686989926124" lon="16.123147324987276"><ele>273.66666666666663</ele><time>2026-05-03T11:47:42Z</time></trkpt><trkpt lat="39.143651638317394" lon="16.123041679404647"><ele>272.0</ele><time>2026-05-03T11:47:44Z</time></trkpt><trkpt lat="39.14357046795859" lon="16.12292268790409"><ele>270.3333333333333</ele><time>2026-05-03T11:47:46Z</time></trkpt><trkpt lat="39.143515535452444" lon="16.122849316718444"><ele>268.6666666666667</ele><time>2026-05-03T11:47:47Z</time></trkpt><trkpt lat="39.143440478736395" lon="16.12278440438871"><ele>267.0</ele><time>2026-05-03T11:47:48Z</time></trkpt><trkpt lat="39.1433788039525" lon="16.122723788162"><ele>267.0</ele><time>2026-05-03T11:47:49Z</time></trkpt><trkpt lat="39.14333332504723" lon="16.122665606881426"><ele>267.0</ele><time>2026-05-03T11:47:50Z</time></trkpt><trkpt lat="39.143287276781365" lon="16.122581054136354"><ele>267.0</ele><time>2026-05-03T11:47:51Z</time></trkpt><trkpt lat="39.14325039402999" lon="16.12251021738593"><ele>267.0</ele><time>2026-05-03T11:47:52Z</time></trkpt><trkpt lat="39.14322366494417" lon="16.122428090428134"><ele>267.0</ele><time>2026-05-03T11:47:53Z</time></trkpt><trkpt lat="39.1432145806713" lon="16.122290437448754"><ele>267.0</ele><time>2026-05-03T11:47:55Z</time></trkpt><trkpt lat="39.14325987187613" lon="16.12214848002811"><ele>264.0</ele><time>2026-05-03T11:47:57Z</time></trkpt><trkpt lat="39.143347329764374" lon="16.122044868500442"><ele>261.0</ele><time>2026-05-03T11:47:59Z</time></trkpt><trkpt lat="39.14341744530369" lon="16.122001252579608"><ele>258.0</ele><time>2026-05-03T11:48:00Z</time></trkpt><trkpt lat="39.1435175608996" lon="16.121965868077222"><ele>255.0</ele><time>2026-05-03T11:48:02Z</time></trkpt><trkpt lat="39.14362611220719" lon="16.12198256181751"><ele>252.0</ele><time>2026-05-03T11:48:04Z</time></trkpt><trkpt lat="39.14369502456227" lon="16.12198924310071"><ele>252.0</ele><time>2026-05-03T11:48:05Z</time></trkpt><trkpt lat="39.14375540341363" lon="16.122015485988104"><ele>252.0</ele><time>2026-05-03T11:48:06Z</time></trkpt><trkpt lat="39.14384025434849" lon="16.122047844446303"><ele>252.0</ele><time>2026-05-03T11:48:07Z</time></trkpt><trkpt lat="39.14390811370964" lon="16.122066139680314"><ele>252.0</ele><time>2026-05-03T11:48:08Z</time></trkpt><trkpt lat="39.14402303706412" lon="16.12210046491491"><ele>252.0</ele><time>2026-05-03T11:48:10Z</time></trkpt><trkpt lat="39.144102265342276" lon="16.122090579188242"><ele>252.0</ele><time>2026-05-03T11:48:12Z</time></trkpt><trkpt lat="39.14407827625979" lon="16.121981407921513"><ele>252.0</ele><time>2026-05-03T11:48:14Z</time></trkpt><trkpt lat="39.14405590385351" lon="16.121899204969537"><ele>252.0</ele><time>2026-05-03T11:53:37Z</time></trkpt><trkpt lat="39.14404111001343" lon="16.121804240287204"><ele>252.0</ele><time>2026-05-03T11:53:38.999Z</time></trkpt><trkpt lat="39.14396266340022" lon="16.12168433113952"><ele>252.0</ele><time>2026-05-03T11:53:40.999Z</time></trkpt><trkpt lat="39.14391815647541" lon="16.12162348850866"><ele>252.0</ele><time>2026-05-03T11:53:41.999Z</time></trkpt><trkpt lat="39.14387223388728" lon="16.121565572394044"><ele>252.0</ele><time>2026-05-03T11:53:42.999Z</time></trkpt><trkpt lat="39.143824979101595" lon="16.121509492334276"><ele>248.16666666666666</ele><time>2026-05-03T11:53:43.999Z</time></trkpt><trkpt lat="39.14375693186933" lon="16.121441299760605"><ele>244.33333333333331</ele><time>2026-05-03T11:53:44.999Z</time></trkpt><trkpt lat="39.14368294454931" lon="16.121359323180187"><ele>240.5</ele><time>2026-05-03T11:53:45.999Z</time></trkpt><trkpt lat="39.143630927831495" lon="16.1212906715285"><ele>236.66666666666666</ele><time>2026-05-03T11:53:46.999Z</time></trkpt><trkpt lat="39.143579166581254" lon="16.12121137216815"><ele>232.83333333333331</ele><time>2026-05-03T11:53:47.999Z</time></trkpt><trkpt lat="39.143525281176245" lon="16.121123865549336"><ele>229.0</ele><time>2026-05-03T11:53:48.999Z</time></trkpt><trkpt lat="39.14345948337628" lon="16.121031971691163"><ele>229.0</ele><time>2026-05-03T11:53:49.999Z</time></trkpt><trkpt lat="39.143370287206004" lon="16.120927820419244"><ele>228.99999999999997</ele><time>2026-05-03T11:53:50.999Z</time></trkpt><trkpt lat="39.14328100067652" lon="16.120824614824958"><ele>228.99999999999997</ele><time>2026-05-03T11:53:51.999Z</time></trkpt><trkpt lat="39.143215050150026" lon="16.120735086812573"><ele>229.0</ele><time>2026-05-03T11:53:52.999Z</time></trkpt><trkpt lat="39.14316814126505" lon="16.120668106129163"><ele>229.0</ele><time>2026-05-03T11:53:54Z</time></trkpt><trkpt lat="39.14315247797384" lon="16.120573447449008"><ele>224.0</ele><time>2026-05-03T11:53:56Z</time></trkpt><trkpt lat="39.14324449897989" lon="16.120525132544717"><ele>218.99999999999997</ele><time>2026-05-03T11:53:58Z</time></trkpt><trkpt lat="39.14333337701172" lon="16.120520967431517"><ele>214.0</ele><time>2026-05-03T11:53:59Z</time></trkpt><trkpt lat="39.143449960368514" lon="16.12050764033302"><ele>209.0</ele><time>2026-05-03T11:54:00Z</time></trkpt><trkpt lat="39.14357659980944" lon="16.120474236752404"><ele>204.0</ele><time>2026-05-03T11:54:01Z</time></trkpt><trkpt lat="39.14368753508221" lon="16.120415633669527"><ele>204.0</ele><time>2026-05-03T11:54:02Z</time></trkpt><trkpt lat="39.14378246282758" lon="16.120365627729075"><ele>204.0</ele><time>2026-05-03T11:54:03Z</time></trkpt><trkpt lat="39.14385974907825" lon="16.120326503058212"><ele>204.0</ele><time>2026-05-03T11:54:04Z</time></trkpt><trkpt lat="39.1439387991758" lon="16.120268003439556"><ele>204.0</ele><time>2026-05-03T11:54:06Z</time></trkpt><trkpt lat="39.14392948722512" lon="16.12016067872644"><ele>204.0</ele><time>2026-05-03T11:54:08Z</time></trkpt><trkpt lat="39.14388279872742" lon="16.120071971615875"><ele>204.0</ele><time>2026-05-03T11:54:09Z</time></trkpt><trkpt lat="39.1438077464301" lon="16.119978020449405"><ele>204.0</ele><time>2026-05-03T11:54:10Z</time></trkpt><trkpt lat="39.14374961781885" lon="16.119924052124905"><ele>204.0</ele><time>2026-05-03T11:54:11Z</time></trkpt><trkpt lat="39.14367843365136" lon="16.11985519698774"><ele>204.0</ele><time>2026-05-03T11:54:13Z</time></trkpt><trkpt lat="39.14371014546463" lon="16.11976537407982"><ele>204.0</ele><time>2026-05-03T11:54:15Z</time></trkpt><trkpt lat="39.14382726675177" lon="16.119715037292504"><ele>204.0</ele><time>2026-05-03T11:54:17Z</time></trkpt><trkpt lat="39.14389794745462" lon="16.11964817450662"><ele>204.0</ele><time>2026-05-03T11:54:18Z</time></trkpt><trkpt lat="39.14395976732998" lon="16.119559082446784"><ele>203.0</ele><time>2026-05-03T11:54:19Z</time></trkpt><trkpt lat="39.14401435980266" lon="16.119482909688305"><ele>202.0</ele><time>2026-05-03T11:54:20Z</time></trkpt><trkpt lat="39.14408339634699" lon="16.119479173724798"><ele>201.0</ele><time>2026-05-03T11:54:21Z</time></trkpt><trkpt lat="39.144176099212615" lon="16.11946954819031"><ele>200.0</ele><time>2026-05-03T11:54:22Z</time></trkpt><trkpt lat="39.144269212973974" lon="16.11945849573823"><ele>199.0</ele><time>2026-05-03T11:54:23Z</time></trkpt><trkpt lat="39.14434322243587" lon="16.1193991450665"><ele>198.0</ele><time>2026-05-03T11:54:25Z</time></trkpt><trkpt lat="39.14431940115506" lon="16.119318710553245"><ele>197.66666666666666</ele><time>2026-05-03T11:54:27Z</time></trkpt><trkpt lat="39.14428930260886" lon="16.119225140332457"><ele>197.33333333333331</ele><time>2026-05-03T11:54:29Z</time></trkpt><trkpt lat="39.1442167221231" lon="16.119111947727458"><ele>197.0</ele><time>2026-05-03T11:54:31Z</time></trkpt><trkpt lat="39.14417006263713" lon="16.119030517760105"><ele>196.66666666666666</ele><time>2026-05-03T11:54:32Z</time></trkpt><trkpt lat="39.14412619539724" lon="16.1189631114548"><ele>196.33333333333331</ele><time>2026-05-03T11:54:33Z</time></trkpt><trkpt lat="39.14409404920717" lon="16.118890238314474"><ele>196.0</ele><time>2026-05-03T11:54:35Z</time></trkpt><trkpt lat="39.144174683694025" lon="16.11884640943944"><ele>195.8</ele><time>2026-05-03T11:54:38Z</time></trkpt><trkpt lat="39.144206828210976" lon="16.118752437820064"><ele>195.60000000000002</ele><time>2026-05-03T11:54:40Z</time></trkpt><trkpt lat="39.14416753499492" lon="16.118619014704205"><ele>195.4</ele><time>2026-05-03T11:54:42Z</time></trkpt><trkpt lat="39.14416678792218" lon="16.118518583335096"><ele>195.2</ele><time>2026-05-03T11:54:43Z</time></trkpt><trkpt lat="39.14417875389122" lon="16.11836743403562"><ele>195.0</ele><time>2026-05-03T11:54:44Z</time></trkpt><trkpt lat="39.14420107326777" lon="16.118249160371132"><ele>199.4</ele><time>2026-05-03T11:54:45Z</time></trkpt><trkpt lat="39.144248755499476" lon="16.118165406847442"><ele>203.8</ele><time>2026-05-03T11:54:46Z</time></trkpt><trkpt lat="39.14432506348916" lon="16.118077386915598"><ele>208.2</ele><time>2026-05-03T11:54:47Z</time></trkpt><trkpt lat="39.14440982498846" lon="16.11795865188318"><ele>212.6</ele><time>2026-05-03T11:54:48Z</time></trkpt><trkpt lat="39.14447987142396" lon="16.117839531904284"><ele>217.0</ele><time>2026-05-03T11:54:49Z</time></trkpt><trkpt lat="39.14455000610234" lon="16.117731248783727"><ele>217.0</ele><time>2026-05-03T11:54:50Z</time></trkpt><trkpt lat="39.14462200636034" lon="16.117639058392758"><ele>217.0</ele><time>2026-05-03T11:54:51Z</time></trkpt><trkpt lat="39.144706582152736" lon="16.117557823550687"><ele>217.0</ele><time>2026-05-03T11:54:52Z</time></trkpt><trkpt lat="39.14480716305129" lon="16.11748084198581"><ele>217.0</ele><time>2026-05-03T11:54:53Z</time></trkpt><trkpt lat="39.14491751958508" lon="16.11740449144519"><ele>217.0</ele><time>2026-05-03T11:54:54Z</time></trkpt><trkpt lat="39.14502709657132" lon="16.117327975762887"><ele>218.5</ele><time>2026-05-03T11:54:55Z</time></trkpt><trkpt lat="39.14514694961902" lon="16.117278903802312"><ele>220.0</ele><time>2026-05-03T11:54:56Z</time></trkpt><trkpt lat="39.14526999364208" lon="16.117254381028115"><ele>221.5</ele><time>2026-05-03T11:54:57Z</time></trkpt><trkpt lat="39.14540140385556" lon="16.11723549338909"><ele>223.0</ele><time>2026-05-03T11:54:58Z</time></trkpt><trkpt lat="39.145535947078635" lon="16.11722367989104"><ele>223.0</ele><time>2026-05-03T11:54:59Z</time></trkpt><trkpt lat="39.14565940185915" lon="16.117235207002143"><ele>223.0</ele><time>2026-05-03T11:55:00Z</time></trkpt><trkpt lat="39.14576804703292" lon="16.117244821382133"><ele>223.0</ele><time>2026-05-03T11:55:01Z</time></trkpt><trkpt lat="39.1458752614848" lon="16.11726916990943"><ele>223.0</ele><time>2026-05-03T11:55:02Z</time></trkpt><trkpt lat="39.14598698569153" lon="16.117304784373893"><ele>217.4</ele><time>2026-05-03T11:55:03Z</time></trkpt><trkpt lat="39.146097580858395" lon="16.117353310107767"><ele>211.8</ele><time>2026-05-03T11:55:04Z</time></trkpt><trkpt lat="39.14619370148839" lon="16.11740900778539"><ele>206.2</ele><time>2026-05-03T11:55:05Z</time></trkpt><trkpt lat="39.1462747160144" lon="16.117449141488255"><ele>200.6</ele><time>2026-05-03T11:55:06Z</time></trkpt><trkpt lat="39.14635771324739" lon="16.117452300317577"><ele>195.0</ele><time>2026-05-03T11:55:07Z</time></trkpt><trkpt lat="39.146459244957704" lon="16.117423046987113"><ele>193.0</ele><time>2026-05-03T11:55:08Z</time></trkpt><trkpt lat="39.14658108885117" lon="16.117370627487762"><ele>191.0</ele><time>2026-05-03T11:55:09Z</time></trkpt><trkpt lat="39.14670721109907" lon="16.117319137718226"><ele>189.0</ele><time>2026-05-03T11:55:10Z</time></trkpt><trkpt lat="39.146830597350224" lon="16.11727621779319"><ele>187.0</ele><time>2026-05-03T11:55:11Z</time></trkpt><trkpt lat="39.1469414106659" lon="16.117234587136302"><ele>187.0</ele><time>2026-05-03T11:55:12Z</time></trkpt><trkpt lat="39.147050758605594" lon="16.117169073225003"><ele>187.0</ele><time>2026-05-03T11:55:13Z</time></trkpt><trkpt lat="39.14716332084174" lon="16.11708050941406"><ele>187.0</ele><time>2026-05-03T11:55:14Z</time></trkpt><trkpt lat="39.147256683450316" lon="16.117003319762212"><ele>187.0</ele><time>2026-05-03T11:55:15Z</time></trkpt><trkpt lat="39.14734179309047" lon="16.11691904253389"><ele>185.2</ele><time>2026-05-03T11:55:16Z</time></trkpt><trkpt lat="39.14739676419768" lon="16.116830358509848"><ele>183.39999999999998</ele><time>2026-05-03T11:55:17Z</time></trkpt><trkpt lat="39.1474545260191" lon="16.116732934330134"><ele>181.60000000000002</ele><time>2026-05-03T11:55:18Z</time></trkpt><trkpt lat="39.147521729359816" lon="16.116634299045984"><ele>179.8</ele><time>2026-05-03T11:55:19Z</time></trkpt><trkpt lat="39.14759718416902" lon="16.116536573139154"><ele>178.0</ele><time>2026-05-03T11:55:20Z</time></trkpt><trkpt lat="39.14766785874128" lon="16.116437318027"><ele>177.60000000000002</ele><time>2026-05-03T11:55:20.999Z</time></trkpt><trkpt lat="39.147725734615314" lon="16.116343058630317"><ele>177.20000000000002</ele><time>2026-05-03T11:55:21.999Z</time></trkpt><trkpt lat="39.14778551215915" lon="16.116243240012984"><ele>176.8</ele><time>2026-05-03T11:55:22.999Z</time></trkpt><trkpt lat="39.14784273955765" lon="16.116140588885774"><ele>176.4</ele><time>2026-05-03T11:55:23.999Z</time></trkpt><trkpt lat="39.14790141691421" lon="16.116053856524253"><ele>176.0</ele><time>2026-05-03T11:55:24.999Z</time></trkpt><trkpt lat="39.147950646648596" lon="16.11590697547864"><ele>176.0</ele><time>2026-05-03T11:55:25.999Z</time></trkpt><trkpt lat="39.14800212630124" lon="16.115771535598654"><ele>176.0</ele><time>2026-05-03T11:55:26.999Z</time></trkpt><trkpt lat="39.148047801710064" lon="16.11566258896597"><ele>176.0</ele><time>2026-05-03T11:55:27.999Z</time></trkpt><trkpt lat="39.1481044290405" lon="16.115561733271207"><ele>176.0</ele><time>2026-05-03T11:55:28.999Z</time></trkpt><trkpt lat="39.14819104118833" lon="16.115483820705155"><ele>176.0</ele><time>2026-05-03T11:55:29.999Z</time></trkpt><trkpt lat="39.14828446999225" lon="16.115423992560668"><ele>175.83333333333331</ele><time>2026-05-03T11:55:30.999Z</time></trkpt><trkpt lat="39.14838382820521" lon="16.115351951506327"><ele>175.66666666666666</ele><time>2026-05-03T11:55:31.999Z</time></trkpt><trkpt lat="39.148454561922456" lon="16.115308467422885"><ele>175.5</ele><time>2026-05-03T11:55:32.999Z</time></trkpt><trkpt lat="39.14850975205953" lon="16.11525520622764"><ele>175.33333333333334</ele><time>2026-05-03T11:55:33.999Z</time></trkpt><trkpt lat="39.14856572186596" lon="16.115183535026315"><ele>175.16666666666669</ele><time>2026-05-03T11:55:34.999Z</time></trkpt><trkpt lat="39.148629587753845" lon="16.11508488595178"><ele>175.0</ele><time>2026-05-03T11:55:35.999Z</time></trkpt><trkpt lat="39.14868079706566" lon="16.114988960515447"><ele>175.6</ele><time>2026-05-03T11:55:36.999Z</time></trkpt><trkpt lat="39.14872349531102" lon="16.114903397655"><ele>176.2</ele><time>2026-05-03T11:55:37.999Z</time></trkpt><trkpt lat="39.14877472630772" lon="16.1148124668371"><ele>176.8</ele><time>2026-05-03T11:55:38.999Z</time></trkpt><trkpt lat="39.14886730909664" lon="16.114732653414837"><ele>177.4</ele><time>2026-05-03T11:55:40.999Z</time></trkpt><trkpt lat="39.14894712681166" lon="16.114722087976133"><ele>178.0</ele><time>2026-05-03T11:55:41.999Z</time></trkpt><trkpt lat="39.14905549491874" lon="16.114708543903603"><ele>178.0</ele><time>2026-05-03T11:55:42.999Z</time></trkpt><trkpt lat="39.14916622578745" lon="16.11470857639138"><ele>178.0</ele><time>2026-05-03T11:55:43.999Z</time></trkpt><trkpt lat="39.14926625561586" lon="16.114686083051556"><ele>178.0</ele><time>2026-05-03T11:55:44.999Z</time></trkpt><trkpt lat="39.14936995904185" lon="16.114669139606477"><ele>178.0</ele><time>2026-05-03T11:55:45.999Z</time></trkpt><trkpt lat="39.14947920668881" lon="16.11466138734995"><ele>178.0</ele><time>2026-05-03T11:55:46.999Z</time></trkpt><trkpt lat="39.14960296990186" lon="16.114591130862888"><ele>178.0</ele><time>2026-05-03T11:55:47.999Z</time></trkpt><trkpt lat="39.14974491898662" lon="16.114510522324913"><ele>178.0</ele><time>2026-05-03T11:55:48.999Z</time></trkpt><trkpt lat="39.149863798687534" lon="16.11443672298679"><ele>178.0</ele><time>2026-05-03T11:55:49.999Z</time></trkpt><trkpt lat="39.1499752735831" lon="16.11437374610351"><ele>178.0</ele><time>2026-05-03T11:55:50.999Z</time></trkpt><trkpt lat="39.150069747218545" lon="16.114304120121552"><ele>179.2</ele><time>2026-05-03T11:55:51.999Z</time></trkpt><trkpt lat="39.15013787231983" lon="16.11424009035488"><ele>180.4</ele><time>2026-05-03T11:55:52.999Z</time></trkpt><trkpt lat="39.15019253259427" lon="16.114177275295173"><ele>181.6</ele><time>2026-05-03T11:55:53.999Z</time></trkpt><trkpt lat="39.15023713467527" lon="16.114092651810175"><ele>182.79999999999998</ele><time>2026-05-03T11:55:54.999Z</time></trkpt><trkpt lat="39.15027006440641" lon="16.113980285219085"><ele>184.0</ele><time>2026-05-03T11:55:55.999Z</time></trkpt><trkpt lat="39.150314391574746" lon="16.113822037683178"><ele>184.0</ele><time>2026-05-03T11:55:56.999Z</time></trkpt><trkpt lat="39.15036563223814" lon="16.113658415117367"><ele>184.0</ele><time>2026-05-03T11:55:57.999Z</time></trkpt><trkpt lat="39.150419218675104" lon="16.113487704600193"><ele>184.0</ele><time>2026-05-03T11:55:58.999Z</time></trkpt><trkpt lat="39.15048132645263" lon="16.11330702995102"><ele>184.0</ele><time>2026-05-03T11:56:00Z</time></trkpt><trkpt lat="39.150522491338855" lon="16.113134731408845"><ele>188.25</ele><time>2026-05-03T11:56:01Z</time></trkpt><trkpt lat="39.15053566729247" lon="16.112977027792613"><ele>192.5</ele><time>2026-05-03T11:56:02Z</time></trkpt><trkpt lat="39.150577348237626" lon="16.112817439651906"><ele>196.75</ele><time>2026-05-03T11:56:03Z</time></trkpt><trkpt lat="39.15059337712366" lon="16.1126740256405"><ele>201.0</ele><time>2026-05-03T11:56:04Z</time></trkpt><trkpt lat="39.150612535571014" lon="16.112565510837268"><ele>201.0</ele><time>2026-05-03T11:56:05Z</time></trkpt><trkpt lat="39.15060719486848" lon="16.11246935109398"><ele>201.0</ele><time>2026-05-03T11:56:06Z</time></trkpt><trkpt lat="39.15058677081732" lon="16.112369890709534"><ele>201.0</ele><time>2026-05-03T11:56:07Z</time></trkpt><trkpt lat="39.15057073927234" lon="16.11226579153951"><ele>201.0</ele><time>2026-05-03T11:56:08Z</time></trkpt><trkpt lat="39.150544852280994" lon="16.112139378114712"><ele>201.0</ele><time>2026-05-03T11:56:09Z</time></trkpt><trkpt lat="39.15050954619538" lon="16.112017617177806"><ele>201.0</ele><time>2026-05-03T11:56:10Z</time></trkpt><trkpt lat="39.15047864990446" lon="16.111893526541426"><ele>199.0</ele><time>2026-05-03T11:56:11Z</time></trkpt><trkpt lat="39.150471955332215" lon="16.111792306231404"><ele>197.0</ele><time>2026-05-03T11:56:12Z</time></trkpt><trkpt lat="39.15046066470565" lon="16.11164917545894"><ele>195.0</ele><time>2026-05-03T11:56:13Z</time></trkpt><trkpt lat="39.15044616362531" lon="16.111517823892203"><ele>193.0</ele><time>2026-05-03T11:56:14Z</time></trkpt><trkpt lat="39.15041829537563" lon="16.111388635691995"><ele>191.0</ele><time>2026-05-03T11:56:15Z</time></trkpt><trkpt lat="39.150372683991314" lon="16.111277990765252"><ele>190.33333333333331</ele><time>2026-05-03T11:56:16Z</time></trkpt><trkpt lat="39.150338334862234" lon="16.11114474996756"><ele>189.66666666666666</ele><time>2026-05-03T11:56:17Z</time></trkpt><trkpt lat="39.15032408642067" lon="16.111028546475"><ele>189.0</ele><time>2026-05-03T11:56:18Z</time></trkpt><trkpt lat="39.15031837315237" lon="16.110912403778794"><ele>188.33333333333334</ele><time>2026-05-03T11:56:19Z</time></trkpt><trkpt lat="39.15030815530013" lon="16.110821628125382"><ele>187.66666666666669</ele><time>2026-05-03T11:56:20Z</time></trkpt><trkpt lat="39.15030772075592" lon="16.110739517712858"><ele>187.0</ele><time>2026-05-03T11:56:21Z</time></trkpt><trkpt lat="39.15030831347181" lon="16.110570126619578"><ele>186.39999999999998</ele><time>2026-05-03T11:56:23Z</time></trkpt><trkpt lat="39.15031476473718" lon="16.11046333296517"><ele>185.79999999999998</ele><time>2026-05-03T11:56:24Z</time></trkpt><trkpt lat="39.15033960674854" lon="16.110362029070743"><ele>185.2</ele><time>2026-05-03T11:56:25Z</time></trkpt><trkpt lat="39.15035572179909" lon="16.110245354054104"><ele>184.6</ele><time>2026-05-03T11:56:26Z</time></trkpt><trkpt lat="39.15037900847227" lon="16.11012133064496"><ele>184.0</ele><time>2026-05-03T11:56:27Z</time></trkpt><trkpt lat="39.15040864375195" lon="16.11000484731914"><ele>180.39999999999998</ele><time>2026-05-03T11:56:28Z</time></trkpt><trkpt lat="39.1504483849758" lon="16.109891489603253"><ele>176.8</ele><time>2026-05-03T11:56:29Z</time></trkpt><trkpt lat="39.150511880768455" lon="16.109768198320523"><ele>173.2</ele><time>2026-05-03T11:56:30Z</time></trkpt><trkpt lat="39.15057069818478" lon="16.109639764274707"><ele>169.60000000000002</ele><time>2026-05-03T11:56:31Z</time></trkpt><trkpt lat="39.15060498381639" lon="16.109490628407283"><ele>166.0</ele><time>2026-05-03T11:56:32Z</time></trkpt><trkpt lat="39.15061907741977" lon="16.109342741075313"><ele>166.0</ele><time>2026-05-03T11:56:33Z</time></trkpt><trkpt lat="39.15062476354452" lon="16.109180993783223"><ele>166.0</ele><time>2026-05-03T11:56:34Z</time></trkpt><trkpt lat="39.15062183233793" lon="16.109040654247373"><ele>166.0</ele><time>2026-05-03T11:56:35Z</time></trkpt><trkpt lat="39.15061824149753" lon="16.10891119237792"><ele>166.0</ele><time>2026-05-03T11:56:36Z</time></trkpt><trkpt lat="39.15061680088938" lon="16.108774837949102"><ele>166.0</ele><time>2026-05-03T11:56:37Z</time></trkpt><trkpt lat="39.150614361461" lon="16.108637884302215"><ele>163.4</ele><time>2026-05-03T11:56:38Z</time></trkpt><trkpt lat="39.1506188621787" lon="16.108499796059114"><ele>160.8</ele><time>2026-05-03T11:56:39Z</time></trkpt><trkpt lat="39.1506323123688" lon="16.108359908600466"><ele>158.20000000000002</ele><time>2026-05-03T11:56:40Z</time></trkpt><trkpt lat="39.15063287619778" lon="16.108241658493508"><ele>155.60000000000002</ele><time>2026-05-03T11:56:41Z</time></trkpt><trkpt lat="39.15063215969613" lon="16.108134585403015"><ele>153.0</ele><time>2026-05-03T11:56:42Z</time></trkpt><trkpt lat="39.150630632268104" lon="16.10803388434069"><ele>152.16666666666666</ele><time>2026-05-03T11:56:43Z</time></trkpt><trkpt lat="39.15062743888791" lon="16.1079268300632"><ele>151.33333333333334</ele><time>2026-05-03T11:56:44Z</time></trkpt><trkpt lat="39.15062279658263" lon="16.107815871541263"><ele>150.5</ele><time>2026-05-03T11:56:44.999Z</time></trkpt><trkpt lat="39.150618345103624" lon="16.10771699956086"><ele>149.66666666666669</ele><time>2026-05-03T11:56:45.999Z</time></trkpt><trkpt lat="39.150602611768534" lon="16.107609351569042"><ele>148.83333333333334</ele><time>2026-05-03T11:56:46.999Z</time></trkpt><trkpt lat="39.15060748619329" lon="16.10747581210583"><ele>148.0</ele><time>2026-05-03T11:56:47.999Z</time></trkpt><trkpt lat="39.15060253689816" lon="16.107338258678695"><ele>148.0</ele><time>2026-05-03T11:56:48.999Z</time></trkpt><trkpt lat="39.150598482719055" lon="16.10720170774837"><ele>148.0</ele><time>2026-05-03T11:56:49.999Z</time></trkpt><trkpt lat="39.15058144344753" lon="16.107066997068674"><ele>148.0</ele><time>2026-05-03T11:56:50.999Z</time></trkpt><trkpt lat="39.150576060443875" lon="16.106921268474004"><ele>148.0</ele><time>2026-05-03T11:56:51.999Z</time></trkpt><trkpt lat="39.150572042185594" lon="16.106773731891902"><ele>148.0</ele><time>2026-05-03T11:56:52.999Z</time></trkpt><trkpt lat="39.15056726715234" lon="16.10663125914326"><ele>150.5</ele><time>2026-05-03T11:56:53.999Z</time></trkpt><trkpt lat="39.15056503993872" lon="16.10647283582489"><ele>153.0</ele><time>2026-05-03T11:56:54.999Z</time></trkpt><trkpt lat="39.15056495768112" lon="16.106309893705294"><ele>155.5</ele><time>2026-05-03T11:56:55.999Z</time></trkpt><trkpt lat="39.15057833089664" lon="16.106143339508154"><ele>158.0</ele><time>2026-05-03T11:56:56.999Z</time></trkpt><trkpt lat="39.15058810865935" lon="16.105980477373922"><ele>158.0</ele><time>2026-05-03T11:56:57.999Z</time></trkpt><trkpt lat="39.150623777353815" lon="16.105832023238975"><ele>158.0</ele><time>2026-05-03T11:56:58.999Z</time></trkpt><trkpt lat="39.15066935467169" lon="16.105655794074654"><ele>158.0</ele><time>2026-05-03T11:56:59.999Z</time></trkpt><trkpt lat="39.150684818753454" lon="16.105494507039115"><ele>158.0</ele><time>2026-05-03T11:57:00.999Z</time></trkpt><trkpt lat="39.1506914401545" lon="16.105333955679207"><ele>158.25</ele><time>2026-05-03T11:57:01.999Z</time></trkpt><trkpt lat="39.15069240111585" lon="16.105195100876667"><ele>158.5</ele><time>2026-05-03T11:57:02.999Z</time></trkpt><trkpt lat="39.150694511591574" lon="16.105059490798457"><ele>158.75</ele><time>2026-05-03T11:57:03.999Z</time></trkpt><trkpt lat="39.15070373790186" lon="16.10490988047041"><ele>159.0</ele><time>2026-05-03T11:57:04.999Z</time></trkpt><trkpt lat="39.150711296964424" lon="16.104754787557308"><ele>151.5</ele><time>2026-05-03T11:57:05.999Z</time></trkpt><trkpt lat="39.150729358933205" lon="16.104595836213974"><ele>144.0</ele><time>2026-05-03T11:57:06.999Z</time></trkpt><trkpt lat="39.15074675226888" lon="16.104435379272324"><ele>136.5</ele><time>2026-05-03T11:57:07.999Z</time></trkpt><trkpt lat="39.15077974387458" lon="16.104278464210932"><ele>129.0</ele><time>2026-05-03T11:57:08.999Z</time></trkpt><trkpt lat="39.15081112725352" lon="16.104124254756474"><ele>128.2</ele><time>2026-05-03T11:57:09.999Z</time></trkpt><trkpt lat="39.15084752709927" lon="16.10398094926814"><ele>127.4</ele><time>2026-05-03T11:57:10.999Z</time></trkpt><trkpt lat="39.15086570083512" lon="16.10383913766891"><ele>126.6</ele><time>2026-05-03T11:57:11.999Z</time></trkpt><trkpt lat="39.15088495478779" lon="16.10370950555776"><ele>125.8</ele><time>2026-05-03T11:57:12.999Z</time></trkpt><trkpt lat="39.15088888038807" lon="16.10358337853964"><ele>125.0</ele><time>2026-05-03T11:57:13.999Z</time></trkpt><trkpt lat="39.15086271117014" lon="16.103472651054698"><ele>125.0</ele><time>2026-05-03T11:57:14.999Z</time></trkpt><trkpt lat="39.15080632524338" lon="16.10336703770046"><ele>125.0</ele><time>2026-05-03T11:57:15.999Z</time></trkpt><trkpt lat="39.1507565917025" lon="16.103245861974976"><ele>125.0</ele><time>2026-05-03T11:57:16.999Z</time></trkpt><trkpt lat="39.15070445913389" lon="16.10313093061639"><ele>125.0</ele><time>2026-05-03T11:57:17.999Z</time></trkpt><trkpt lat="39.15064652805602" lon="16.103016947221818"><ele>125.0</ele><time>2026-05-03T11:57:18.999Z</time></trkpt><trkpt lat="39.15058722972829" lon="16.102922132155737"><ele>125.0</ele><time>2026-05-03T11:57:19.999Z</time></trkpt><trkpt lat="39.15053630989143" lon="16.102863872310948"><ele>125.0</ele><time>2026-05-03T11:57:20.999Z</time></trkpt><trkpt lat="39.15049019479622" lon="16.102796472377918"><ele>125.0</ele><time>2026-05-03T11:57:22.999Z</time></trkpt><trkpt lat="39.15042104395094" lon="16.10284315492935"><ele>125.0</ele><time>2026-05-03T11:57:26.999Z</time></trkpt><trkpt lat="39.150497771863144" lon="16.102902201990137"><ele>125.0</ele><time>2026-05-03T11:57:28.999Z</time></trkpt><trkpt lat="39.15057170723149" lon="16.10288434620471"><ele>125.0</ele><time>2026-05-03T11:57:30.999Z</time></trkpt><trkpt lat="39.15051323037033" lon="16.102927055317295"><ele>125.0</ele><time>2026-05-03T12:01:35.999Z</time></trkpt><trkpt lat="39.150461193126915" lon="16.10286811618856"><ele>125.0</ele><time>2026-05-03T12:01:36.999Z</time></trkpt><trkpt lat="39.150398582400065" lon="16.10277597898554"><ele>125.0</ele><time>2026-05-03T12:01:37.999Z</time></trkpt><trkpt lat="39.15035250525719" lon="16.102635388569126"><ele>125.0</ele><time>2026-05-03T12:01:38.999Z</time></trkpt><trkpt lat="39.1502642564323" lon="16.102521651066635"><ele>125.0</ele><time>2026-05-03T12:01:39.999Z</time></trkpt><trkpt lat="39.15017031777528" lon="16.102391405559445"><ele>122.75</ele><time>2026-05-03T12:01:40.999Z</time></trkpt><trkpt lat="39.15006892376091" lon="16.1022548555724"><ele>120.5</ele><time>2026-05-03T12:01:41.999Z</time></trkpt><trkpt lat="39.14996853248284" lon="16.102124471897064"><ele>118.25</ele><time>2026-05-03T12:01:42.999Z</time></trkpt><trkpt lat="39.149866650290164" lon="16.101998137731105"><ele>116.0</ele><time>2026-05-03T12:01:43.999Z</time></trkpt><trkpt lat="39.14976512798734" lon="16.101876301233183"><ele>116.0</ele><time>2026-05-03T12:01:44.999Z</time></trkpt><trkpt lat="39.149672816465845" lon="16.101770929645205"><ele>116.0</ele><time>2026-05-03T12:01:45.999Z</time></trkpt><trkpt lat="39.14959865128405" lon="16.101657776224464"><ele>116.0</ele><time>2026-05-03T12:01:46.999Z</time></trkpt><trkpt lat="39.14951970268969" lon="16.10154931768698"><ele>116.0</ele><time>2026-05-03T12:01:47.999Z</time></trkpt><trkpt lat="39.14943576189351" lon="16.101444149146676"><ele>116.0</ele><time>2026-05-03T12:01:48.999Z</time></trkpt><trkpt lat="39.14936503612361" lon="16.101351444023766"><ele>116.0</ele><time>2026-05-03T12:01:49.999Z</time></trkpt><trkpt lat="39.14927945143266" lon="16.10129791774361"><ele>116.0</ele><time>2026-05-03T12:01:50.999Z</time></trkpt><trkpt lat="39.14918428054286" lon="16.101237821061254"><ele>116.0</ele><time>2026-05-03T12:01:51.999Z</time></trkpt><trkpt lat="39.14907630197825" lon="16.101200771465635"><ele>116.0</ele><time>2026-05-03T12:01:52.999Z</time></trkpt><trkpt lat="39.14896796491759" lon="16.101161808956817"><ele>120.25</ele><time>2026-05-03T12:01:53.999Z</time></trkpt><trkpt lat="39.14885993940535" lon="16.101116992394992"><ele>124.5</ele><time>2026-05-03T12:01:54.999Z</time></trkpt><trkpt lat="39.14875285516634" lon="16.10106750141602"><ele>128.75</ele><time>2026-05-03T12:01:55.999Z</time></trkpt><trkpt lat="39.14863506947628" lon="16.10101660832855"><ele>133.0</ele><time>2026-05-03T12:01:56.999Z</time></trkpt><trkpt lat="39.148541532987245" lon="16.100916799838362"><ele>133.0</ele><time>2026-05-03T12:01:57.999Z</time></trkpt><trkpt lat="39.14846859043036" lon="16.10082573398971"><ele>133.0</ele><time>2026-05-03T12:01:58.999Z</time></trkpt><trkpt lat="39.14838142153443" lon="16.100783972878194"><ele>133.0</ele><time>2026-05-03T12:01:59.999Z</time></trkpt><trkpt lat="39.1483121434034" lon="16.100720318656116"><ele>133.0</ele><time>2026-05-03T12:02:00.999Z</time></trkpt><trkpt lat="39.14823669939403" lon="16.10067067952443"><ele>133.0</ele><time>2026-05-03T12:02:01.999Z</time></trkpt><trkpt lat="39.14819328904519" lon="16.10054188893204"><ele>134.5</ele><time>2026-05-03T12:02:02.999Z</time></trkpt><trkpt lat="39.14815022162965" lon="16.100412210676385"><ele>136.0</ele><time>2026-05-03T12:02:03.999Z</time></trkpt><trkpt lat="39.148111498654586" lon="16.100274870953687"><ele>137.5</ele><time>2026-05-03T12:02:04.999Z</time></trkpt><trkpt lat="39.1480683352923" lon="16.100130620769043"><ele>139.0</ele><time>2026-05-03T12:02:05.999Z</time></trkpt><trkpt lat="39.148020154752444" lon="16.0999974136053"><ele>133.0</ele><time>2026-05-03T12:02:06.999Z</time></trkpt><trkpt lat="39.147976829890666" lon="16.099883930050858"><ele>127.0</ele><time>2026-05-03T12:02:07.999Z</time></trkpt><trkpt lat="39.14793721528814" lon="16.099790726144185"><ele>121.0</ele><time>2026-05-03T12:02:08.999Z</time></trkpt><trkpt lat="39.147879612263786" lon="16.099688105097638"><ele>115.0</ele><time>2026-05-03T12:02:10.999Z</time></trkpt><trkpt lat="39.14785293072227" lon="16.099613344940057"><ele>109.0</ele><time>2026-05-03T12:02:17.999Z</time></trkpt><trkpt lat="39.14771826644526" lon="16.0996177978541"><ele>109.0</ele><time>2026-05-03T12:02:19.999Z</time></trkpt><trkpt lat="39.14764774586872" lon="16.099629136282925"><ele>109.0</ele><time>2026-05-03T12:02:20.999Z</time></trkpt><trkpt lat="39.14755758772192" lon="16.099638165318677"><ele>109.0</ele><time>2026-05-03T12:02:21.999Z</time></trkpt><trkpt lat="39.14745190245644" lon="16.099625670786853"><ele>109.0</ele><time>2026-05-03T12:02:22.999Z</time></trkpt><trkpt lat="39.14733132958214" lon="16.099616396563043"><ele>109.0</ele><time>2026-05-03T12:02:23.999Z</time></trkpt><trkpt lat="39.1472028802885" lon="16.09959674756848"><ele>109.0</ele><time>2026-05-03T12:02:24.999Z</time></trkpt><trkpt lat="39.14706255458557" lon="16.099566384527446"><ele>109.0</ele><time>2026-05-03T12:02:25.999Z</time></trkpt><trkpt lat="39.1469245131534" lon="16.099526741995113"><ele>109.0</ele><time>2026-05-03T12:02:26.999Z</time></trkpt><trkpt lat="39.14679054724128" lon="16.099487338451315"><ele>109.0</ele><time>2026-05-03T12:02:27.999Z</time></trkpt><trkpt lat="39.14665702251473" lon="16.099447122905495"><ele>106.75</ele><time>2026-05-03T12:02:28.999Z</time></trkpt><trkpt lat="39.14652543030345" lon="16.09940853042814"><ele>104.5</ele><time>2026-05-03T12:02:29.999Z</time></trkpt><trkpt lat="39.146394086583946" lon="16.099374313153753"><ele>102.25</ele><time>2026-05-03T12:02:30.999Z</time></trkpt><trkpt lat="39.14626372977039" lon="16.099339986957116"><ele>100.0</ele><time>2026-05-03T12:02:31.999Z</time></trkpt><trkpt lat="39.1461313314952" lon="16.0993003080676"><ele>100.0</ele><time>2026-05-03T12:02:32.999Z</time></trkpt><trkpt lat="39.14600370655478" lon="16.09926424172583"><ele>100.0</ele><time>2026-05-03T12:02:33.999Z</time></trkpt><trkpt lat="39.145878921568155" lon="16.099229778188025"><ele>100.0</ele><time>2026-05-03T12:02:34.999Z</time></trkpt><trkpt lat="39.145744791582324" lon="16.09918876051224"><ele>100.0</ele><time>2026-05-03T12:02:35.999Z</time></trkpt><trkpt lat="39.145604810449626" lon="16.099148997393566"><ele>101.33333333333334</ele><time>2026-05-03T12:02:36.999Z</time></trkpt><trkpt lat="39.14545900454395" lon="16.09910836273522"><ele>102.66666666666666</ele><time>2026-05-03T12:02:37.999Z</time></trkpt><trkpt lat="39.14530870896125" lon="16.09906792590909"><ele>104.0</ele><time>2026-05-03T12:02:38.999Z</time></trkpt><trkpt lat="39.14515305021156" lon="16.09902357383864"><ele>101.0</ele><time>2026-05-03T12:02:39.999Z</time></trkpt><trkpt lat="39.144995972851355" lon="16.0989739970669"><ele>98.0</ele><time>2026-05-03T12:02:40.999Z</time></trkpt><trkpt lat="39.14484084562974" lon="16.098920247592776"><ele>95.0</ele><time>2026-05-03T12:02:41.999Z</time></trkpt><trkpt lat="39.144688330596225" lon="16.098859241620545"><ele>94.66666666666667</ele><time>2026-05-03T12:02:42.999Z</time></trkpt><trkpt lat="39.14453917467079" lon="16.09878599161103"><ele>94.33333333333333</ele><time>2026-05-03T12:02:43.999Z</time></trkpt><trkpt lat="39.144395631462274" lon="16.09870395572264"><ele>94.0</ele><time>2026-05-03T12:02:44.999Z</time></trkpt><trkpt lat="39.14425409756758" lon="16.09861029484123"><ele>94.0</ele><time>2026-05-03T12:02:45.999Z</time></trkpt><trkpt lat="39.144118563270695" lon="16.09850443794324"><ele>94.0</ele><time>2026-05-03T12:02:46.999Z</time></trkpt><trkpt lat="39.14399189675352" lon="16.098385325483974"><ele>94.0</ele><time>2026-05-03T12:02:47.999Z</time></trkpt><trkpt lat="39.14387151593677" lon="16.09825465184136"><ele>93.0</ele><time>2026-05-03T12:02:48.999Z</time></trkpt><trkpt lat="39.143756116206035" lon="16.098114652024897"><ele>92.0</ele><time>2026-05-03T12:02:49.999Z</time></trkpt><trkpt lat="39.14364214513189" lon="16.09797064453459"><ele>91.0</ele><time>2026-05-03T12:02:50.999Z</time></trkpt><trkpt lat="39.14353095321099" lon="16.097821169581938"><ele>91.0</ele><time>2026-05-03T12:02:51.999Z</time></trkpt><trkpt lat="39.14342771907706" lon="16.09766587462628"><ele>91.0</ele><time>2026-05-03T12:02:52.999Z</time></trkpt><trkpt lat="39.14333460173194" lon="16.097503376848728"><ele>91.0</ele><time>2026-05-03T12:02:53.999Z</time></trkpt><trkpt lat="39.14324929326901" lon="16.09733533042938"><ele>97.66666666666666</ele><time>2026-05-03T12:02:54.999Z</time></trkpt><trkpt lat="39.143168749458226" lon="16.09716322329861"><ele>104.33333333333333</ele><time>2026-05-03T12:02:55.999Z</time></trkpt><trkpt lat="39.14309311928673" lon="16.09698856829248"><ele>111.0</ele><time>2026-05-03T12:02:56.999Z</time></trkpt><trkpt lat="39.143017872967036" lon="16.09681826487333"><ele>111.0</ele><time>2026-05-03T12:02:57.999Z</time></trkpt><trkpt lat="39.14294311895811" lon="16.096648286873684"><ele>111.0</ele><time>2026-05-03T12:02:58.999Z</time></trkpt><trkpt lat="39.14286601309486" lon="16.096483034504672"><ele>111.0</ele><time>2026-05-03T12:02:59.999Z</time></trkpt><trkpt lat="39.14278573770134" lon="16.096319517148945"><ele>107.5</ele><time>2026-05-03T12:03:00.999Z</time></trkpt><trkpt lat="39.14270512494811" lon="16.09615888263884"><ele>104.0</ele><time>2026-05-03T12:03:01.999Z</time></trkpt><trkpt lat="39.14262916053959" lon="16.09599486603365"><ele>100.5</ele><time>2026-05-03T12:03:02.999Z</time></trkpt><trkpt lat="39.14255665700862" lon="16.09582797739585"><ele>97.0</ele><time>2026-05-03T12:03:03.999Z</time></trkpt><trkpt lat="39.14248478680484" lon="16.095660751387747"><ele>92.33333333333334</ele><time>2026-05-03T12:03:04.999Z</time></trkpt><trkpt lat="39.142412052137786" lon="16.09549046513649"><ele>87.66666666666667</ele><time>2026-05-03T12:03:05.999Z</time></trkpt><trkpt lat="39.14234043616465" lon="16.095316672862104"><ele>83.0</ele><time>2026-05-03T12:03:06.999Z</time></trkpt><trkpt lat="39.14227274684288" lon="16.09513901309436"><ele>88.0</ele><time>2026-05-03T12:03:07.999Z</time></trkpt><trkpt lat="39.14220470439671" lon="16.094959997651713"><ele>93.0</ele><time>2026-05-03T12:03:08.999Z</time></trkpt><trkpt lat="39.14213769953134" lon="16.094778603264654"><ele>98.0</ele><time>2026-05-03T12:03:09.999Z</time></trkpt><trkpt lat="39.142070977131986" lon="16.094595992249246"><ele>98.0</ele><time>2026-05-03T12:03:10.999Z</time></trkpt><trkpt lat="39.14200788681004" lon="16.09441206075661"><ele>98.0</ele><time>2026-05-03T12:03:11.999Z</time></trkpt><trkpt lat="39.141948411172216" lon="16.094226052113374"><ele>98.0</ele><time>2026-05-03T12:03:12.999Z</time></trkpt><trkpt lat="39.14189070071728" lon="16.09403652653512"><ele>92.0</ele><time>2026-05-03T12:03:13.999Z</time></trkpt><trkpt lat="39.141836246999915" lon="16.093847770770594"><ele>86.0</ele><time>2026-05-03T12:03:14.999Z</time></trkpt><trkpt lat="39.14178161286438" lon="16.093659175466975"><ele>80.0</ele><time>2026-05-03T12:03:15.999Z</time></trkpt><trkpt lat="39.1417281701629" lon="16.093472533518355"><ele>80.0</ele><time>2026-05-03T12:03:16.999Z</time></trkpt><trkpt lat="39.14167374801289" lon="16.093282683478307"><ele>80.0</ele><time>2026-05-03T12:03:17.999Z</time></trkpt><trkpt lat="39.14161857055138" lon="16.093095534010665"><ele>80.0</ele><time>2026-05-03T12:03:18.999Z</time></trkpt><trkpt lat="39.14156549977805" lon="16.092909533808335"><ele>80.66666666666667</ele><time>2026-05-03T12:03:19.999Z</time></trkpt><trkpt lat="39.14151161736922" lon="16.092723669877902"><ele>81.33333333333333</ele><time>2026-05-03T12:03:20.999Z</time></trkpt><trkpt lat="39.14145634736396" lon="16.09253971774602"><ele>82.0</ele><time>2026-05-03T12:03:21.999Z</time></trkpt><trkpt lat="39.14140043987121" lon="16.092360725386083"><ele>80.25</ele><time>2026-05-03T12:03:22.999Z</time></trkpt><trkpt lat="39.14134431620333" lon="16.092180989655365"><ele>78.5</ele><time>2026-05-03T12:03:23.999Z</time></trkpt><trkpt lat="39.14129019141456" lon="16.09200233837578"><ele>76.75</ele><time>2026-05-03T12:03:24.999Z</time></trkpt><trkpt lat="39.14123722777509" lon="16.091824998451038"><ele>75.0</ele><time>2026-05-03T12:03:25.999Z</time></trkpt><trkpt lat="39.14118353639447" lon="16.0916452754792"><ele>73.0</ele><time>2026-05-03T12:03:26.999Z</time></trkpt><trkpt lat="39.141125235324076" lon="16.091468422301894"><ele>71.0</ele><time>2026-05-03T12:03:27.999Z</time></trkpt><trkpt lat="39.14105607109774" lon="16.091296512651294"><ele>69.0</ele><time>2026-05-03T12:03:28.999Z</time></trkpt><trkpt lat="39.140980182041375" lon="16.09112879242719"><ele>69.0</ele><time>2026-05-03T12:03:29.999Z</time></trkpt><trkpt lat="39.14089743329148" lon="16.090963418789475"><ele>69.0</ele><time>2026-05-03T12:03:30.999Z</time></trkpt><trkpt lat="39.14081133813798" lon="16.090802439073865"><ele>69.0</ele><time>2026-05-03T12:03:31.999Z</time></trkpt><trkpt lat="39.14071685139607" lon="16.090649745639947"><ele>68.33333333333333</ele><time>2026-05-03T12:03:32.999Z</time></trkpt><trkpt lat="39.14061634176105" lon="16.090500639335726"><ele>67.66666666666666</ele><time>2026-05-03T12:03:33.999Z</time></trkpt><trkpt lat="39.140509386977186" lon="16.090361504124573"><ele>67.0</ele><time>2026-05-03T12:03:34.999Z</time></trkpt><trkpt lat="39.1403938436864" lon="16.090230223659468"><ele>67.0</ele><time>2026-05-03T12:03:35.999Z</time></trkpt><trkpt lat="39.14027317087141" lon="16.090105508986667"><ele>67.0</ele><time>2026-05-03T12:03:36.999Z</time></trkpt><trkpt lat="39.14014728148767" lon="16.089985424465326"><ele>67.0</ele><time>2026-05-03T12:03:37.999Z</time></trkpt><trkpt lat="39.14001637131792" lon="16.089871511690223"><ele>64.33333333333333</ele><time>2026-05-03T12:03:38.999Z</time></trkpt><trkpt lat="39.13988066718014" lon="16.089760476079213"><ele>61.66666666666667</ele><time>2026-05-03T12:03:39.999Z</time></trkpt><trkpt lat="39.13974630976725" lon="16.089650047741486"><ele>59.0</ele><time>2026-05-03T12:03:40.999Z</time></trkpt><trkpt lat="39.13961469842567" lon="16.089537313160285"><ele>59.0</ele><time>2026-05-03T12:03:41.999Z</time></trkpt><trkpt lat="39.139483326027914" lon="16.08942775367243"><ele>59.0</ele><time>2026-05-03T12:03:42.999Z</time></trkpt><trkpt lat="39.139351865881" lon="16.089318637357877"><ele>59.0</ele><time>2026-05-03T12:03:43.999Z</time></trkpt><trkpt lat="39.13922066462531" lon="16.089211840093892"><ele>59.0</ele><time>2026-05-03T12:03:44.999Z</time></trkpt><trkpt lat="39.13908987127152" lon="16.08910573614332"><ele>59.0</ele><time>2026-05-03T12:03:45.999Z</time></trkpt><trkpt lat="39.13896066269415" lon="16.088998956972773"><ele>59.0</ele><time>2026-05-03T12:03:46.999Z</time></trkpt><trkpt lat="39.13883193431909" lon="16.088891877811886"><ele>58.333333333333336</ele><time>2026-05-03T12:03:47.999Z</time></trkpt><trkpt lat="39.13870182200165" lon="16.08878609324887"><ele>57.66666666666667</ele><time>2026-05-03T12:03:48.999Z</time></trkpt><trkpt lat="39.13857113003902" lon="16.088680595947807"><ele>57.0</ele><time>2026-05-03T12:03:49.999Z</time></trkpt><trkpt lat="39.138440593292835" lon="16.088574282615202"><ele>57.0</ele><time>2026-05-03T12:03:50.999Z</time></trkpt><trkpt lat="39.1383112621556" lon="16.088467634048172"><ele>57.0</ele><time>2026-05-03T12:03:51.999Z</time></trkpt><trkpt lat="39.13818211602535" lon="16.088360276886615"><ele>57.0</ele><time>2026-05-03T12:03:52.999Z</time></trkpt><trkpt lat="39.138052018263586" lon="16.08825207210745"><ele>56.33333333333333</ele><time>2026-05-03T12:03:53.999Z</time></trkpt><trkpt lat="39.13792067233116" lon="16.088141630125865"><ele>55.666666666666664</ele><time>2026-05-03T12:03:54.999Z</time></trkpt><trkpt lat="39.13778751533558" lon="16.08803354393872"><ele>55.0</ele><time>2026-05-03T12:03:55.999Z</time></trkpt><trkpt lat="39.13765373732327" lon="16.08792658707746"><ele>55.0</ele><time>2026-05-03T12:03:56.999Z</time></trkpt><trkpt lat="39.13751889029695" lon="16.087820066905785"><ele>55.0</ele><time>2026-05-03T12:03:57.999Z</time></trkpt><trkpt lat="39.13738788639166" lon="16.087709480905538"><ele>55.0</ele><time>2026-05-03T12:03:58.999Z</time></trkpt><trkpt lat="39.137259590494494" lon="16.08759363783847"><ele>55.0</ele><time>2026-05-03T12:03:59.999Z</time></trkpt><trkpt lat="39.137135553141" lon="16.08747307257717"><ele>55.0</ele><time>2026-05-03T12:04:00.999Z</time></trkpt><trkpt lat="39.137012821478464" lon="16.08734569251306"><ele>55.0</ele><time>2026-05-03T12:04:01.999Z</time></trkpt><trkpt lat="39.13689548788445" lon="16.087213713615913"><ele>54.33333333333333</ele><time>2026-05-03T12:04:02.999Z</time></trkpt><trkpt lat="39.13678522677876" lon="16.087073095730087"><ele>53.66666666666667</ele><time>2026-05-03T12:04:03.999Z</time></trkpt><trkpt lat="39.13667815287853" lon="16.08692327362137"><ele>53.0</ele><time>2026-05-03T12:04:04.999Z</time></trkpt><trkpt lat="39.1365766691476" lon="16.08676796531108"><ele>53.0</ele><time>2026-05-03T12:04:05.999Z</time></trkpt><trkpt lat="39.136481095511606" lon="16.08660791513117"><ele>53.0</ele><time>2026-05-03T12:04:06.999Z</time></trkpt><trkpt lat="39.136387061898816" lon="16.086443686101322"><ele>53.0</ele><time>2026-05-03T12:04:07.999Z</time></trkpt><trkpt lat="39.1362992329475" lon="16.086273651090472"><ele>51.66666666666667</ele><time>2026-05-03T12:04:08.999Z</time></trkpt><trkpt lat="39.136219026693915" lon="16.086098380814942"><ele>50.33333333333333</ele><time>2026-05-03T12:04:09.999Z</time></trkpt><trkpt lat="39.136144277506624" lon="16.0859188064513"><ele>49.0</ele><time>2026-05-03T12:04:10.999Z</time></trkpt><trkpt lat="39.13607590957007" lon="16.085734034156943"><ele>48.33333333333333</ele><time>2026-05-03T12:04:11.999Z</time></trkpt><trkpt lat="39.13601316576052" lon="16.085542774953094"><ele>47.666666666666664</ele><time>2026-05-03T12:04:12.999Z</time></trkpt><trkpt lat="39.13596130776671" lon="16.08534811273868"><ele>47.0</ele><time>2026-05-03T12:04:13.999Z</time></trkpt><trkpt lat="39.135906230483634" lon="16.085155847438433"><ele>47.0</ele><time>2026-05-03T12:04:14.999Z</time></trkpt><trkpt lat="39.135848123434826" lon="16.084963651270503"><ele>47.0</ele><time>2026-05-03T12:04:15.999Z</time></trkpt><trkpt lat="39.13579160490888" lon="16.08477124435841"><ele>47.0</ele><time>2026-05-03T12:04:16.999Z</time></trkpt><trkpt lat="39.13573999803877" lon="16.084583223638194"><ele>49.0</ele><time>2026-05-03T12:04:17.999Z</time></trkpt><trkpt lat="39.13570273119339" lon="16.08439442955421"><ele>51.0</ele><time>2026-05-03T12:04:18.999Z</time></trkpt><trkpt lat="39.13567646744937" lon="16.084205249149907"><ele>53.0</ele><time>2026-05-03T12:04:19.999Z</time></trkpt><trkpt lat="39.13565979921005" lon="16.084014772654438"><ele>55.0</ele><time>2026-05-03T12:04:20.999Z</time></trkpt><trkpt lat="39.135658786798075" lon="16.083822840178993"><ele>56.666666666666664</ele><time>2026-05-03T12:04:21.999Z</time></trkpt><trkpt lat="39.13566965706082" lon="16.08362879683419"><ele>58.33333333333333</ele><time>2026-05-03T12:04:22.999Z</time></trkpt><trkpt lat="39.13569232393123" lon="16.08343426245483"><ele>60.0</ele><time>2026-05-03T12:04:23.999Z</time></trkpt><trkpt lat="39.13572756138732" lon="16.083241924330373"><ele>60.0</ele><time>2026-05-03T12:04:24.999Z</time></trkpt><trkpt lat="39.13577456079137" lon="16.08305149007911"><ele>60.0</ele><time>2026-05-03T12:04:25.999Z</time></trkpt><trkpt lat="39.13583366922521" lon="16.082866527247752"><ele>60.0</ele><time>2026-05-03T12:04:26.999Z</time></trkpt><trkpt lat="39.13590823453442" lon="16.08268911894801"><ele>60.0</ele><time>2026-05-03T12:04:27.999Z</time></trkpt><trkpt lat="39.13599137265707" lon="16.082516825788936"><ele>60.0</ele><time>2026-05-03T12:04:28.999Z</time></trkpt><trkpt lat="39.13608233213066" lon="16.082346842861963"><ele>60.0</ele><time>2026-05-03T12:04:29.999Z</time></trkpt><trkpt lat="39.13617872510223" lon="16.082176753156308"><ele>67.0</ele><time>2026-05-03T12:04:30.999Z</time></trkpt><trkpt lat="39.136269455496" lon="16.08200510856852"><ele>74.0</ele><time>2026-05-03T12:04:31.999Z</time></trkpt><trkpt lat="39.13635754560301" lon="16.081828519791404"><ele>81.0</ele><time>2026-05-03T12:04:32.999Z</time></trkpt><trkpt lat="39.1364536393681" lon="16.081652179531808"><ele>83.33333333333333</ele><time>2026-05-03T12:04:33.999Z</time></trkpt><trkpt lat="39.136549608265234" lon="16.081478676975614"><ele>85.66666666666666</ele><time>2026-05-03T12:04:34.999Z</time></trkpt><trkpt lat="39.13664512114148" lon="16.08130264286331"><ele>88.0</ele><time>2026-05-03T12:04:35.999Z</time></trkpt><trkpt lat="39.13674652724635" lon="16.08113506850308"><ele>74.33333333333333</ele><time>2026-05-03T12:04:36.999Z</time></trkpt><trkpt lat="39.13684732276702" lon="16.08096775284071"><ele>60.666666666666664</ele><time>2026-05-03T12:04:37.999Z</time></trkpt><trkpt lat="39.136950325228206" lon="16.080801165080228"><ele>47.0</ele><time>2026-05-03T12:04:38.999Z</time></trkpt><trkpt lat="39.137057049334885" lon="16.080634545417592"><ele>47.0</ele><time>2026-05-03T12:04:39.999Z</time></trkpt><trkpt lat="39.137166324455954" lon="16.080468642971745"><ele>47.0</ele><time>2026-05-03T12:04:40.999Z</time></trkpt><trkpt lat="39.137276557200956" lon="16.08030558528125"><ele>47.0</ele><time>2026-05-03T12:04:41.999Z</time></trkpt><trkpt lat="39.13738926149389" lon="16.080146775627217"><ele>45.33333333333333</ele><time>2026-05-03T12:04:42.999Z</time></trkpt><trkpt lat="39.13749644831856" lon="16.07999116690436"><ele>43.666666666666664</ele><time>2026-05-03T12:04:43.999Z</time></trkpt><trkpt lat="39.13760028669885" lon="16.07984064156869"><ele>42.0</ele><time>2026-05-03T12:04:44.999Z</time></trkpt><trkpt lat="39.137704625162044" lon="16.079691913776422"><ele>42.0</ele><time>2026-05-03T12:04:45.999Z</time></trkpt><trkpt lat="39.137809124645074" lon="16.07954129045887"><ele>42.0</ele><time>2026-05-03T12:04:46.999Z</time></trkpt><trkpt lat="39.137916877708385" lon="16.07939205060664"><ele>42.0</ele><time>2026-05-03T12:04:47.999Z</time></trkpt><trkpt lat="39.138025214831416" lon="16.079246056731236"><ele>41.333333333333336</ele><time>2026-05-03T12:04:48.999Z</time></trkpt><trkpt lat="39.138134818428696" lon="16.07909810252079"><ele>40.66666666666667</ele><time>2026-05-03T12:04:49.999Z</time></trkpt><trkpt lat="39.13824130093247" lon="16.078948882767595"><ele>40.0</ele><time>2026-05-03T12:04:50.999Z</time></trkpt><trkpt lat="39.138345367554784" lon="16.07879789327057"><ele>40.0</ele><time>2026-05-03T12:04:51.999Z</time></trkpt><trkpt lat="39.138449664490096" lon="16.07864901113262"><ele>40.0</ele><time>2026-05-03T12:04:52.999Z</time></trkpt><trkpt lat="39.13855817388805" lon="16.078501992579742"><ele>40.0</ele><time>2026-05-03T12:04:53.999Z</time></trkpt><trkpt lat="39.138662934681776" lon="16.07835034282423"><ele>42.333333333333336</ele><time>2026-05-03T12:04:54.999Z</time></trkpt><trkpt lat="39.13876839789215" lon="16.078199886067356"><ele>44.666666666666664</ele><time>2026-05-03T12:04:55.999Z</time></trkpt><trkpt lat="39.13887202078546" lon="16.07804988006671"><ele>47.0</ele><time>2026-05-03T12:04:56.999Z</time></trkpt><trkpt lat="39.13897001034317" lon="16.077895120065804"><ele>43.33333333333333</ele><time>2026-05-03T12:04:57.999Z</time></trkpt><trkpt lat="39.139059718910985" lon="16.07773414963983"><ele>39.666666666666664</ele><time>2026-05-03T12:04:58.999Z</time></trkpt><trkpt lat="39.139143816154196" lon="16.077566645783282"><ele>36.0</ele><time>2026-05-03T12:04:59.999Z</time></trkpt><trkpt lat="39.139220620628954" lon="16.07739669658298"><ele>36.0</ele><time>2026-05-03T12:05:00.999Z</time></trkpt><trkpt lat="39.13928749532354" lon="16.0772221297427"><ele>36.0</ele><time>2026-05-03T12:05:01.999Z</time></trkpt><trkpt lat="39.13934354299596" lon="16.07704411315958"><ele>36.0</ele><time>2026-05-03T12:05:02.999Z</time></trkpt><trkpt lat="39.13939842624128" lon="16.07686576600019"><ele>36.0</ele><time>2026-05-03T12:05:03.999Z</time></trkpt><trkpt lat="39.13945189674266" lon="16.076688868574188"><ele>39.0</ele><time>2026-05-03T12:05:04.999Z</time></trkpt><trkpt lat="39.13950652240878" lon="16.076512158225185"><ele>42.0</ele><time>2026-05-03T12:05:05.999Z</time></trkpt><trkpt lat="39.139563929481604" lon="16.076335252867317"><ele>45.0</ele><time>2026-05-03T12:05:06.999Z</time></trkpt><trkpt lat="39.13962096627701" lon="16.076157554732653"><ele>48.0</ele><time>2026-05-03T12:05:07.999Z</time></trkpt><trkpt lat="39.139677213783514" lon="16.075974615173152"><ele>48.0</ele><time>2026-05-03T12:05:08.999Z</time></trkpt><trkpt lat="39.13973741249106" lon="16.075792729590862"><ele>48.0</ele><time>2026-05-03T12:05:09.999Z</time></trkpt><trkpt lat="39.139799903720025" lon="16.075610637537338"><ele>48.0</ele><time>2026-05-03T12:05:10.999Z</time></trkpt><trkpt lat="39.13986931526358" lon="16.075428951997075"><ele>42.333333333333336</ele><time>2026-05-03T12:05:11.999Z</time></trkpt><trkpt lat="39.139945588790845" lon="16.07525163451558"><ele>36.66666666666667</ele><time>2026-05-03T12:05:12.999Z</time></trkpt><trkpt lat="39.140023824139526" lon="16.075081633220968"><ele>31.0</ele><time>2026-05-03T12:05:13.999Z</time></trkpt><trkpt lat="39.140102541316416" lon="16.0749142433159"><ele>30.75</ele><time>2026-05-03T12:05:14.999Z</time></trkpt><trkpt lat="39.140179512033015" lon="16.074753893272796"><ele>30.5</ele><time>2026-05-03T12:05:15.999Z</time></trkpt><trkpt lat="39.14025522762431" lon="16.074593567799457"><ele>30.25</ele><time>2026-05-03T12:05:16.999Z</time></trkpt><trkpt lat="39.14032280790261" lon="16.074427503632588"><ele>30.0</ele><time>2026-05-03T12:05:17.999Z</time></trkpt><trkpt lat="39.14038505593808" lon="16.074259941931196"><ele>28.75</ele><time>2026-05-03T12:05:18.999Z</time></trkpt><trkpt lat="39.14043792832769" lon="16.074092881560134"><ele>27.5</ele><time>2026-05-03T12:05:19.999Z</time></trkpt><trkpt lat="39.140459646601116" lon="16.073906712981426"><ele>26.25</ele><time>2026-05-03T12:05:20.999Z</time></trkpt><trkpt lat="39.140465365183836" lon="16.073718791947346"><ele>25.0</ele><time>2026-05-03T12:05:21.999Z</time></trkpt><trkpt lat="39.14046115706947" lon="16.073527171153643"><ele>25.0</ele><time>2026-05-03T12:05:22.999Z</time></trkpt><trkpt lat="39.14043948888254" lon="16.07333698952222"><ele>25.0</ele><time>2026-05-03T12:05:23.999Z</time></trkpt><trkpt lat="39.140402476575545" lon="16.073146417676316"><ele>25.0</ele><time>2026-05-03T12:05:24.999Z</time></trkpt><trkpt lat="39.14035247778185" lon="16.072958873042708"><ele>24.0</ele><time>2026-05-03T12:05:25.999Z</time></trkpt><trkpt lat="39.14029023238585" lon="16.072771932013342"><ele>23.0</ele><time>2026-05-03T12:05:26.999Z</time></trkpt><trkpt lat="39.14021906669719" lon="16.072587993663543"><ele>22.0</ele><time>2026-05-03T12:05:27.999Z</time></trkpt><trkpt lat="39.1401471119785" lon="16.072400377448584"><ele>27.0</ele><time>2026-05-03T12:05:28.999Z</time></trkpt><trkpt lat="39.140077626865896" lon="16.07221160434131"><ele>32.0</ele><time>2026-05-03T12:05:29.999Z</time></trkpt><trkpt lat="39.14001097528202" lon="16.072021987987828"><ele>37.0</ele><time>2026-05-03T12:05:30.999Z</time></trkpt><trkpt lat="39.13995359251941" lon="16.071826327944667"><ele>37.0</ele><time>2026-05-03T12:05:31.999Z</time></trkpt><trkpt lat="39.13991681972867" lon="16.071622556547634"><ele>37.0</ele><time>2026-05-03T12:05:32.999Z</time></trkpt><trkpt lat="39.13990661161845" lon="16.071417630252142"><ele>37.0</ele><time>2026-05-03T12:05:33.999Z</time></trkpt><trkpt lat="39.13992310430457" lon="16.071220032803353"><ele>35.0</ele><time>2026-05-03T12:05:34.999Z</time></trkpt><trkpt lat="39.13995156119543" lon="16.07102528187219"><ele>33.0</ele><time>2026-05-03T12:05:35.999Z</time></trkpt><trkpt lat="39.13998271268009" lon="16.070799154097035"><ele>31.0</ele><time>2026-05-03T12:05:36.999Z</time></trkpt><trkpt lat="39.14000077046997" lon="16.07057703342704"><ele>27.333333333333336</ele><time>2026-05-03T12:05:37.999Z</time></trkpt><trkpt lat="39.14004148985288" lon="16.070364733860607"><ele>23.666666666666668</ele><time>2026-05-03T12:05:38.999Z</time></trkpt><trkpt lat="39.14007262419483" lon="16.070163615098547"><ele>20.0</ele><time>2026-05-03T12:05:39.999Z</time></trkpt><trkpt lat="39.140105532726956" lon="16.06997332211324"><ele>17.0</ele><time>2026-05-03T12:05:40.999Z</time></trkpt><trkpt lat="39.14013660896976" lon="16.069798986525022"><ele>14.0</ele><time>2026-05-03T12:05:41.999Z</time></trkpt><trkpt lat="39.140165995046935" lon="16.069638330860194"><ele>11.0</ele><time>2026-05-03T12:05:42.999Z</time></trkpt><trkpt lat="39.14019435752008" lon="16.06947966718113"><ele>8.0</ele><time>2026-05-03T12:05:43.999Z</time></trkpt><trkpt lat="39.14022334598667" lon="16.0693371590329"><ele>8.0</ele><time>2026-05-03T12:05:44.999Z</time></trkpt><trkpt lat="39.14024809268802" lon="16.069203364557495"><ele>8.0</ele><time>2026-05-03T12:05:45.999Z</time></trkpt><trkpt lat="39.14027395759997" lon="16.069082271406078"><ele>8.0</ele><time>2026-05-03T12:05:46.999Z</time></trkpt><trkpt lat="39.14030663540658" lon="16.06897426225696"><ele>8.0</ele><time>2026-05-03T12:05:48Z</time></trkpt><trkpt lat="39.14034076701196" lon="16.068872971831723"><ele>8.0</ele><time>2026-05-03T12:05:49Z</time></trkpt><trkpt lat="39.14038660826093" lon="16.068759162256434"><ele>7.499999999999999</ele><time>2026-05-03T12:05:51Z</time></trkpt><trkpt lat="39.14042514820826" lon="16.068677717032458"><ele>7.0</ele><time>2026-05-03T12:05:54Z</time></trkpt><trkpt lat="39.140448764158386" lon="16.0685897331816"><ele>6.5</ele><time>2026-05-03T12:05:58Z</time></trkpt><trkpt lat="39.140480439284225" lon="16.068514024161125"><ele>6.0</ele><time>2026-05-03T12:06:01Z</time></trkpt><trkpt lat="39.140506873285624" lon="16.06842870848068"><ele>5.5</ele><time>2026-05-03T12:06:03Z</time></trkpt><trkpt lat="39.14058627216587" lon="16.06835850701543"><ele>5.0</ele><time>2026-05-03T12:06:05Z</time></trkpt><trkpt lat="39.14064518434039" lon="16.068263459156938"><ele>5.0</ele><time>2026-05-03T12:06:07Z</time></trkpt><trkpt lat="39.140716695766564" lon="16.06817433181134"><ele>5.0</ele><time>2026-05-03T12:06:09Z</time></trkpt><trkpt lat="39.14080474381556" lon="16.06809616594944"><ele>5.0</ele><time>2026-05-03T12:06:11Z</time></trkpt><trkpt lat="39.14089549916912" lon="16.068009664467834"><ele>5.0</ele><time>2026-05-03T12:06:13Z</time></trkpt><trkpt lat="39.140989735789965" lon="16.067915593687026"><ele>5.0</ele><time>2026-05-03T12:06:15Z</time></trkpt><trkpt lat="39.14110014868541" lon="16.067840993658425"><ele>5.0</ele><time>2026-05-03T12:06:17Z</time></trkpt><trkpt lat="39.14116170690559" lon="16.067804326594846"><ele>5.0</ele><time>2026-05-03T12:06:18Z</time></trkpt><trkpt lat="39.14122634124819" lon="16.067766601596958"><ele>5.0</ele><time>2026-05-03T12:06:19Z</time></trkpt><trkpt lat="39.14129169631357" lon="16.067730919964177"><ele>5.0</ele><time>2026-05-03T12:06:20Z</time></trkpt><trkpt lat="39.14135911772634" lon="16.067699329696737"><ele>5.0</ele><time>2026-05-03T12:06:21Z</time></trkpt><trkpt lat="39.141423442105214" lon="16.067639726899248"><ele>5.0</ele><time>2026-05-03T12:06:22Z</time></trkpt><trkpt lat="39.141489729200316" lon="16.067576701628724"><ele>5.0</ele><time>2026-05-03T12:06:23Z</time></trkpt><trkpt lat="39.14160847961418" lon="16.067595647251412"><ele>5.2</ele><time>2026-05-03T12:06:24Z</time></trkpt><trkpt lat="39.141705521672016" lon="16.067555970854265"><ele>5.4</ele><time>2026-05-03T12:06:25Z</time></trkpt><trkpt lat="39.14180671088285" lon="16.067515848584556"><ele>5.6</ele><time>2026-05-03T12:06:26Z</time></trkpt><trkpt lat="39.14191026488256" lon="16.067476200574283"><ele>5.8</ele><time>2026-05-03T12:06:27.001Z</time></trkpt><trkpt lat="39.14202466013216" lon="16.067434321824052"><ele>6.0</ele><time>2026-05-03T12:06:28.001Z</time></trkpt><trkpt lat="39.142146869059225" lon="16.06738913312085"><ele>6.0</ele><time>2026-05-03T12:06:29.001Z</time></trkpt><trkpt lat="39.142273997998984" lon="16.06734772706884"><ele>6.0</ele><time>2026-05-03T12:06:30.001Z</time></trkpt><trkpt lat="39.142403356531034" lon="16.067301773339196"><ele>6.0</ele><time>2026-05-03T12:06:31.001Z</time></trkpt><trkpt lat="39.142537425337075" lon="16.06725390146008"><ele>6.0</ele><time>2026-05-03T12:06:32.001Z</time></trkpt><trkpt lat="39.1426727585871" lon="16.067206456596345"><ele>6.0</ele><time>2026-05-03T12:06:33.001Z</time></trkpt><trkpt lat="39.142808301184274" lon="16.06715768592206"><ele>6.0</ele><time>2026-05-03T12:06:34.001Z</time></trkpt><trkpt lat="39.14294372220491" lon="16.06710512670457"><ele>6.0</ele><time>2026-05-03T12:06:35.001Z</time></trkpt><trkpt lat="39.143085570010385" lon="16.067051881847174"><ele>6.0</ele><time>2026-05-03T12:06:36.001Z</time></trkpt><trkpt lat="39.143230774379695" lon="16.06700130868591"><ele>6.333333333333334</ele><time>2026-05-03T12:06:37.001Z</time></trkpt><trkpt lat="39.14337959632542" lon="16.06695091220754"><ele>6.666666666666667</ele><time>2026-05-03T12:06:38.001Z</time></trkpt><trkpt lat="39.14352914564864" lon="16.066900160948695"><ele>7.0</ele><time>2026-05-03T12:06:39.001Z</time></trkpt><trkpt lat="39.14368025936705" lon="16.066850064897036"><ele>7.0</ele><time>2026-05-03T12:06:40.001Z</time></trkpt><trkpt lat="39.143831492204036" lon="16.06679799937215"><ele>7.0</ele><time>2026-05-03T12:06:41.001Z</time></trkpt><trkpt lat="39.14398204743147" lon="16.066744657568368"><ele>7.0</ele><time>2026-05-03T12:06:42.001Z</time></trkpt><trkpt lat="39.144132436301824" lon="16.0666929739241"><ele>7.666666666666667</ele><time>2026-05-03T12:06:43.001Z</time></trkpt><trkpt lat="39.144282462168434" lon="16.066641034743327"><ele>8.333333333333334</ele><time>2026-05-03T12:06:44.001Z</time></trkpt><trkpt lat="39.14443165159785" lon="16.066590914301745"><ele>9.0</ele><time>2026-05-03T12:06:45.001Z</time></trkpt><trkpt lat="39.14457860419187" lon="16.066539868181124"><ele>7.75</ele><time>2026-05-03T12:06:46.001Z</time></trkpt><trkpt lat="39.144721088571984" lon="16.066490553320477"><ele>6.5</ele><time>2026-05-03T12:06:47.001Z</time></trkpt><trkpt lat="39.1448618876355" lon="16.06644146140771"><ele>5.25</ele><time>2026-05-03T12:06:48.001Z</time></trkpt><trkpt lat="39.144998418121936" lon="16.066394832896027"><ele>4.0</ele><time>2026-05-03T12:06:49.001Z</time></trkpt><trkpt lat="39.14512930731657" lon="16.06635196885354"><ele>4.0</ele><time>2026-05-03T12:06:50.001Z</time></trkpt><trkpt lat="39.145257555112345" lon="16.066314074853427"><ele>4.0</ele><time>2026-05-03T12:06:51.001Z</time></trkpt><trkpt lat="39.14538293147814" lon="16.066282203538886"><ele>4.0</ele><time>2026-05-03T12:06:52.001Z</time></trkpt><trkpt lat="39.14550722848889" lon="16.066252610142467"><ele>4.0</ele><time>2026-05-03T12:06:53Z</time></trkpt><trkpt lat="39.14563033118195" lon="16.06622462304467"><ele>4.25</ele><time>2026-05-03T12:06:54Z</time></trkpt><trkpt lat="39.14575318000632" lon="16.06619626465832"><ele>4.5</ele><time>2026-05-03T12:06:55Z</time></trkpt><trkpt lat="39.14587617537794" lon="16.066167514552316"><ele>4.75</ele><time>2026-05-03T12:06:56Z</time></trkpt><trkpt lat="39.145999832463936" lon="16.066140321825348"><ele>5.0</ele><time>2026-05-03T12:06:57Z</time></trkpt><trkpt lat="39.14612565365946" lon="16.06611431459234"><ele>5.0</ele><time>2026-05-03T12:06:58Z</time></trkpt><trkpt lat="39.14625447198243" lon="16.066087541029678"><ele>5.0</ele><time>2026-05-03T12:06:59Z</time></trkpt><trkpt lat="39.14638661785442" lon="16.066063629799256"><ele>5.0</ele><time>2026-05-03T12:07:00Z</time></trkpt><trkpt lat="39.146521899380865" lon="16.066043973590748"><ele>5.0</ele><time>2026-05-03T12:07:01Z</time></trkpt><trkpt lat="39.1466593682914" lon="16.066027968000377"><ele>5.75</ele><time>2026-05-03T12:07:02Z</time></trkpt><trkpt lat="39.146800028640314" lon="16.06601160818598"><ele>6.5</ele><time>2026-05-03T12:07:03Z</time></trkpt><trkpt lat="39.14694390883329" lon="16.065996019892932"><ele>7.25</ele><time>2026-05-03T12:07:04Z</time></trkpt><trkpt lat="39.1470897923562" lon="16.065981562015356"><ele>8.0</ele><time>2026-05-03T12:07:05Z</time></trkpt><trkpt lat="39.147237247506105" lon="16.065965806593667"><ele>7.333333333333333</ele><time>2026-05-03T12:07:06Z</time></trkpt><trkpt lat="39.147386311389035" lon="16.065948944152957"><ele>6.666666666666666</ele><time>2026-05-03T12:07:07Z</time></trkpt><trkpt lat="39.14753586345697" lon="16.06593336248567"><ele>6.0</ele><time>2026-05-03T12:07:08Z</time></trkpt><trkpt lat="39.14768568484591" lon="16.065920957317623"><ele>6.0</ele><time>2026-05-03T12:07:09Z</time></trkpt><trkpt lat="39.14783512390525" lon="16.065909908035525"><ele>6.0</ele><time>2026-05-03T12:07:10Z</time></trkpt><trkpt lat="39.14798453507353" lon="16.065901325660153"><ele>6.0</ele><time>2026-05-03T12:07:11Z</time></trkpt><trkpt lat="39.148133042285" lon="16.065892267276425"><ele>6.0</ele><time>2026-05-03T12:07:12Z</time></trkpt><trkpt lat="39.148282532634745" lon="16.065880723873697"><ele>6.5</ele><time>2026-05-03T12:07:13Z</time></trkpt><trkpt lat="39.148431661742954" lon="16.065868939823904"><ele>7.0</ele><time>2026-05-03T12:07:14Z</time></trkpt><trkpt lat="39.14858101780619" lon="16.065857857759177"><ele>7.5</ele><time>2026-05-03T12:07:15Z</time></trkpt><trkpt lat="39.14873071323185" lon="16.06584774086717"><ele>8.0</ele><time>2026-05-03T12:07:16Z</time></trkpt><trkpt lat="39.148878599036046" lon="16.065838239060852"><ele>8.0</ele><time>2026-05-03T12:07:17Z</time></trkpt><trkpt lat="39.14902781601563" lon="16.06583077204047"><ele>8.0</ele><time>2026-05-03T12:07:18Z</time></trkpt><trkpt lat="39.14917837220192" lon="16.065825082396714"><ele>8.0</ele><time>2026-05-03T12:07:19Z</time></trkpt><trkpt lat="39.14932965900605" lon="16.06582267683363"><ele>8.333333333333332</ele><time>2026-05-03T12:07:20Z</time></trkpt><trkpt lat="39.14948062568833" lon="16.065818180095608"><ele>8.666666666666666</ele><time>2026-05-03T12:07:21Z</time></trkpt><trkpt lat="39.14963483988011" lon="16.06581492323695"><ele>9.0</ele><time>2026-05-03T12:07:22Z</time></trkpt><trkpt lat="39.14978988409955" lon="16.065813580799798"><ele>8.666666666666666</ele><time>2026-05-03T12:07:23Z</time></trkpt><trkpt lat="39.149945165148615" lon="16.065811988171518"><ele>8.333333333333332</ele><time>2026-05-03T12:07:24Z</time></trkpt><trkpt lat="39.15010165384506" lon="16.06580977725823"><ele>8.0</ele><time>2026-05-03T12:07:25Z</time></trkpt><trkpt lat="39.15025986017781" lon="16.065805773238335"><ele>8.0</ele><time>2026-05-03T12:07:26Z</time></trkpt><trkpt lat="39.15041969400881" lon="16.065805210397254"><ele>8.0</ele><time>2026-05-03T12:07:27Z</time></trkpt><trkpt lat="39.15058056080968" lon="16.065803313438085"><ele>8.0</ele><time>2026-05-03T12:07:28Z</time></trkpt><trkpt lat="39.15074228443014" lon="16.065799499621"><ele>10.0</ele><time>2026-05-03T12:07:29Z</time></trkpt><trkpt lat="39.15090234002723" lon="16.065797940137465"><ele>12.0</ele><time>2026-05-03T12:07:30Z</time></trkpt><trkpt lat="39.15106280012766" lon="16.06579493379405"><ele>14.0</ele><time>2026-05-03T12:07:31Z</time></trkpt><trkpt lat="39.15122790250367" lon="16.06579213636646"><ele>14.0</ele><time>2026-05-03T12:07:32Z</time></trkpt><trkpt lat="39.15139043766854" lon="16.065790208941376"><ele>14.0</ele><time>2026-05-03T12:07:33Z</time></trkpt><trkpt lat="39.1515493141757" lon="16.06578761175267"><ele>14.0</ele><time>2026-05-03T12:07:34Z</time></trkpt><trkpt lat="39.151703048823975" lon="16.06578208897934"><ele>10.5</ele><time>2026-05-03T12:07:35Z</time></trkpt><trkpt lat="39.15185251802932" lon="16.065778462396555"><ele>7.0</ele><time>2026-05-03T12:07:36Z</time></trkpt><trkpt lat="39.15199874705919" lon="16.0657776879302"><ele>3.5</ele><time>2026-05-03T12:07:37Z</time></trkpt><trkpt lat="39.15214170587053" lon="16.065776727419166"><ele>0.0</ele><time>2026-05-03T12:07:38Z</time></trkpt><trkpt lat="39.15228974824948" lon="16.06577745848505"><ele>0.0</ele><time>2026-05-03T12:07:39Z</time></trkpt><trkpt lat="39.152439481451324" lon="16.065776368585198"><ele>0.0</ele><time>2026-05-03T12:07:40Z</time></trkpt><trkpt lat="39.15259004068904" lon="16.065770046996303"><ele>0.0</ele><time>2026-05-03T12:07:41Z</time></trkpt><trkpt lat="39.15274414909526" lon="16.06575911963264"><ele>0.0</ele><time>2026-05-03T12:07:42Z</time></trkpt><trkpt lat="39.15290061960218" lon="16.065749116736438"><ele>0.0</ele><time>2026-05-03T12:07:43Z</time></trkpt><trkpt lat="39.15305795072928" lon="16.065733445961943"><ele>0.0</ele><time>2026-05-03T12:07:44Z</time></trkpt><trkpt lat="39.15321597239554" lon="16.06571431717066"><ele>0.0</ele><time>2026-05-03T12:07:45Z</time></trkpt><trkpt lat="39.153378194650564" lon="16.06569023586289"><ele>0.0</ele><time>2026-05-03T12:07:46Z</time></trkpt><trkpt lat="39.15354091357871" lon="16.06566909056335"><ele>0.0</ele><time>2026-05-03T12:07:47Z</time></trkpt><trkpt lat="39.153704502960736" lon="16.065650539576755"><ele>0.0</ele><time>2026-05-03T12:07:48Z</time></trkpt><trkpt lat="39.15386764410137" lon="16.065624823026884"><ele>0.0</ele><time>2026-05-03T12:07:49Z</time></trkpt><trkpt lat="39.15403478757662" lon="16.065605182118293"><ele>0.0</ele><time>2026-05-03T12:07:50Z</time></trkpt><trkpt lat="39.154204798485274" lon="16.065582661630543"><ele>0.3333333333333333</ele><time>2026-05-03T12:07:51Z</time></trkpt><trkpt lat="39.15437187297735" lon="16.06556092692674"><ele>0.6666666666666666</ele><time>2026-05-03T12:07:52Z</time></trkpt><trkpt lat="39.15453997877607" lon="16.065542069126465"><ele>1.0</ele><time>2026-05-03T12:07:53Z</time></trkpt><trkpt lat="39.154710577509846" lon="16.065523472546538"><ele>1.6666666666666665</ele><time>2026-05-03T12:07:54Z</time></trkpt><trkpt lat="39.15487967400312" lon="16.06550115252458"><ele>2.3333333333333335</ele><time>2026-05-03T12:07:55Z</time></trkpt><trkpt lat="39.155050438662336" lon="16.065476418908805"><ele>3.0</ele><time>2026-05-03T12:07:56Z</time></trkpt><trkpt lat="39.15521337815802" lon="16.06545484162658"><ele>3.0</ele><time>2026-05-03T12:07:57Z</time></trkpt><trkpt lat="39.15536798195585" lon="16.065431904278437"><ele>3.0</ele><time>2026-05-03T12:07:58Z</time></trkpt><trkpt lat="39.155517562822716" lon="16.06540851433773"><ele>3.0</ele><time>2026-05-03T12:07:59Z</time></trkpt><trkpt lat="39.15566500343624" lon="16.06538633901397"><ele>3.5</ele><time>2026-05-03T12:08:00Z</time></trkpt><trkpt lat="39.15580716106948" lon="16.065369028561907"><ele>4.0</ele><time>2026-05-03T12:08:01Z</time></trkpt><trkpt lat="39.15594812365521" lon="16.065353274699376"><ele>4.5</ele><time>2026-05-03T12:08:02Z</time></trkpt><trkpt lat="39.15608993597281" lon="16.065334420388456"><ele>5.0</ele><time>2026-05-03T12:08:03Z</time></trkpt><trkpt lat="39.15623150955859" lon="16.06531529649293"><ele>5.0</ele><time>2026-05-03T12:08:04Z</time></trkpt><trkpt lat="39.15637569681344" lon="16.06529999780874"><ele>5.0</ele><time>2026-05-03T12:08:05Z</time></trkpt><trkpt lat="39.156518805819154" lon="16.065282752150562"><ele>5.0</ele><time>2026-05-03T12:08:06Z</time></trkpt><trkpt lat="39.15666485217256" lon="16.065262727027324"><ele>5.0</ele><time>2026-05-03T12:08:07Z</time></trkpt><trkpt lat="39.15680940676346" lon="16.06524672389901"><ele>6.0</ele><time>2026-05-03T12:08:08Z</time></trkpt><trkpt lat="39.15695444695901" lon="16.065230861673747"><ele>7.0</ele><time>2026-05-03T12:08:09Z</time></trkpt><trkpt lat="39.15710060755601" lon="16.065215779084426"><ele>8.0</ele><time>2026-05-03T12:08:10Z</time></trkpt><trkpt lat="39.15724876238683" lon="16.065198436546453"><ele>9.0</ele><time>2026-05-03T12:08:11Z</time></trkpt><trkpt lat="39.1573974829184" lon="16.065177961941668"><ele>9.0</ele><time>2026-05-03T12:08:12Z</time></trkpt><trkpt lat="39.15754639773869" lon="16.065159592663854"><ele>9.0</ele><time>2026-05-03T12:08:13Z</time></trkpt><trkpt lat="39.15769452682988" lon="16.065141977866638"><ele>9.0</ele><time>2026-05-03T12:08:14Z</time></trkpt><trkpt lat="39.15784293540494" lon="16.065125522690952"><ele>9.0</ele><time>2026-05-03T12:08:15Z</time></trkpt><trkpt lat="39.15798967284607" lon="16.065105160252834"><ele>9.0</ele><time>2026-05-03T12:08:16Z</time></trkpt><trkpt lat="39.158137144920374" lon="16.065083451589963"><ele>9.0</ele><time>2026-05-03T12:08:17Z</time></trkpt><trkpt lat="39.15828477187126" lon="16.06506623124835"><ele>9.0</ele><time>2026-05-03T12:08:18Z</time></trkpt><trkpt lat="39.15843304026226" lon="16.065046528660318"><ele>9.0</ele><time>2026-05-03T12:08:19Z</time></trkpt><trkpt lat="39.15858269998022" lon="16.065026579514598"><ele>9.0</ele><time>2026-05-03T12:08:20Z</time></trkpt><trkpt lat="39.15873407194183" lon="16.065008497324285"><ele>9.0</ele><time>2026-05-03T12:08:21Z</time></trkpt><trkpt lat="39.1588895065024" lon="16.06499163589045"><ele>9.0</ele><time>2026-05-03T12:08:22Z</time></trkpt><trkpt lat="39.15904590016521" lon="16.064975798618214"><ele>9.0</ele><time>2026-05-03T12:08:23Z</time></trkpt><trkpt lat="39.159189611203466" lon="16.06496934108478"><ele>9.0</ele><time>2026-05-03T12:08:24Z</time></trkpt><trkpt lat="39.15933227215251" lon="16.064962989958623"><ele>9.0</ele><time>2026-05-03T12:08:25Z</time></trkpt><trkpt lat="39.159477618135725" lon="16.064959398141273"><ele>9.0</ele><time>2026-05-03T12:08:26Z</time></trkpt><trkpt lat="39.15962508159064" lon="16.06495994371521"><ele>9.0</ele><time>2026-05-03T12:08:27Z</time></trkpt><trkpt lat="39.159774388856164" lon="16.06496398483872"><ele>9.0</ele><time>2026-05-03T12:08:28Z</time></trkpt><trkpt lat="39.159925246899924" lon="16.064970804396985"><ele>9.0</ele><time>2026-05-03T12:08:29Z</time></trkpt><trkpt lat="39.16007821765544" lon="16.064980383839135"><ele>9.0</ele><time>2026-05-03T12:08:30Z</time></trkpt><trkpt lat="39.16023231930241" lon="16.064992698396008"><ele>9.0</ele><time>2026-05-03T12:08:31Z</time></trkpt><trkpt lat="39.16038752326404" lon="16.065009314879283"><ele>9.0</ele><time>2026-05-03T12:08:32Z</time></trkpt><trkpt lat="39.16054048633205" lon="16.065029230019675"><ele>9.0</ele><time>2026-05-03T12:08:33.001Z</time></trkpt><trkpt lat="39.16069209851299" lon="16.065048552394682"><ele>9.0</ele><time>2026-05-03T12:08:34.001Z</time></trkpt><trkpt lat="39.1608366430405" lon="16.065068200432336"><ele>9.0</ele><time>2026-05-03T12:08:35.001Z</time></trkpt><trkpt lat="39.160970024727185" lon="16.065084202740618"><ele>9.0</ele><time>2026-05-03T12:08:36.001Z</time></trkpt><trkpt lat="39.16109024953828" lon="16.065104011073498"><ele>8.8</ele><time>2026-05-03T12:08:37.001Z</time></trkpt><trkpt lat="39.16119604706744" lon="16.06512743403771"><ele>8.600000000000001</ele><time>2026-05-03T12:08:38.001Z</time></trkpt><trkpt lat="39.16128691588334" lon="16.065168877627308"><ele>8.4</ele><time>2026-05-03T12:08:39.001Z</time></trkpt><trkpt lat="39.161362032873846" lon="16.065233912991406"><ele>8.200000000000001</ele><time>2026-05-03T12:08:40.001Z</time></trkpt><trkpt lat="39.16142647768372" lon="16.06523660920418"><ele>8.0</ele><time>2026-05-03T12:08:41.001Z</time></trkpt><trkpt lat="39.16145564375507" lon="16.065421578670502"><ele>8.0</ele><time>2026-05-03T12:08:42.001Z</time></trkpt><trkpt lat="39.16150415630834" lon="16.065514718256996"><ele>8.0</ele><time>2026-05-03T12:08:43.001Z</time></trkpt><trkpt lat="39.161571230193836" lon="16.065588583255213"><ele>8.0</ele><time>2026-05-03T12:08:44.001Z</time></trkpt><trkpt lat="39.16165627089414" lon="16.06562028959258"><ele>8.0</ele><time>2026-05-03T12:08:45.001Z</time></trkpt><trkpt lat="39.16174920573566" lon="16.065620271548255"><ele>8.0</ele><time>2026-05-03T12:08:46.001Z</time></trkpt><trkpt lat="39.161849858170164" lon="16.0656018982964"><ele>8.0</ele><time>2026-05-03T12:08:47.001Z</time></trkpt><trkpt lat="39.16195494158013" lon="16.06558622650212"><ele>8.0</ele><time>2026-05-03T12:08:48.001Z</time></trkpt><trkpt lat="39.16205876903286" lon="16.065585382974586"><ele>8.0</ele><time>2026-05-03T12:08:49.001Z</time></trkpt><trkpt lat="39.162157483185936" lon="16.065586113843292"><ele>8.0</ele><time>2026-05-03T12:08:50Z</time></trkpt><trkpt lat="39.162238098131" lon="16.065595457139935"><ele>8.0</ele><time>2026-05-03T12:08:51Z</time></trkpt><trkpt lat="39.162305182956516" lon="16.06561005174641"><ele>7.999999999999999</ele><time>2026-05-03T12:08:52Z</time></trkpt><trkpt lat="39.162399411965744" lon="16.06560499263563"><ele>8.0</ele><time>2026-05-03T12:08:54Z</time></trkpt><trkpt lat="39.16245718642238" lon="16.065528831507347"><ele>8.0</ele><time>2026-05-03T12:08:56Z</time></trkpt><trkpt lat="39.162467321235916" lon="16.065430195381463"><ele>8.0</ele><time>2026-05-03T12:08:57Z</time></trkpt><trkpt lat="39.1624656657436" lon="16.065327568347296"><ele>7.999999999999999</ele><time>2026-05-03T12:08:58Z</time></trkpt><trkpt lat="39.162473251969054" lon="16.06521862543514"><ele>8.0</ele><time>2026-05-03T12:08:59Z</time></trkpt><trkpt lat="39.1624917322141" lon="16.06510130632481"><ele>7.999999999999999</ele><time>2026-05-03T12:09:00Z</time></trkpt><trkpt lat="39.162512140893895" lon="16.064984443064308"><ele>8.0</ele><time>2026-05-03T12:09:01Z</time></trkpt><trkpt lat="39.16253409605181" lon="16.064865340849465"><ele>8.0</ele><time>2026-05-03T12:09:02Z</time></trkpt><trkpt lat="39.1625496724989" lon="16.064760003489372"><ele>8.0</ele><time>2026-05-03T12:09:03Z</time></trkpt><trkpt lat="39.162561172319705" lon="16.06467469835137"><ele>7.999999999999999</ele><time>2026-05-03T12:09:04Z</time></trkpt><trkpt lat="39.16257791315629" lon="16.06456466283188"><ele>8.0</ele><time>2026-05-03T12:09:06Z</time></trkpt><trkpt lat="39.16258642335455" lon="16.06447061272088"><ele>7.666666666666666</ele><time>2026-05-03T12:09:08Z</time></trkpt><trkpt lat="39.1625819698935" lon="16.06435705132416"><ele>7.333333333333333</ele><time>2026-05-03T12:09:10Z</time></trkpt><trkpt lat="39.162581924634935" lon="16.06426920969543"><ele>7.0</ele><time>2026-05-03T12:09:13Z</time></trkpt><trkpt lat="39.16265867256274" lon="16.06428227895646"><ele>6.666666666666666</ele><time>2026-05-03T12:09:29Z</time></trkpt><trkpt lat="39.16272676404061" lon="16.064285417479823"><ele>6.333333333333333</ele><time>2026-05-03T12:09:30Z</time></trkpt><trkpt lat="39.162806497612685" lon="16.064273851927272"><ele>6.0</ele><time>2026-05-03T12:09:31Z</time></trkpt><trkpt lat="39.1628959230728" lon="16.064283340740754"><ele>6.0</ele><time>2026-05-03T12:09:32Z</time></trkpt><trkpt lat="39.162992127858814" lon="16.064290421992137"><ele>6.0</ele><time>2026-05-03T12:09:33Z</time></trkpt><trkpt lat="39.16309759294283" lon="16.06429345614559"><ele>6.0</ele><time>2026-05-03T12:09:34Z</time></trkpt><trkpt lat="39.163207492156886" lon="16.064293214900214"><ele>6.0</ele><time>2026-05-03T12:09:35Z</time></trkpt><trkpt lat="39.16333807975427" lon="16.06429676418754"><ele>6.0</ele><time>2026-05-03T12:09:36Z</time></trkpt><trkpt lat="39.16352284259184" lon="16.064302751340442"><ele>6.333333333333334</ele><time>2026-05-03T12:09:37Z</time></trkpt><trkpt lat="39.16370499562543" lon="16.064294310711304"><ele>6.666666666666667</ele><time>2026-05-03T12:09:38Z</time></trkpt><trkpt lat="39.16389237359777" lon="16.06429143828809"><ele>7.0</ele><time>2026-05-03T12:09:39Z</time></trkpt><trkpt lat="39.16409826999701" lon="16.0642894332924"><ele>7.0</ele><time>2026-05-03T12:09:40Z</time></trkpt><trkpt lat="39.16427774457505" lon="16.06429496587366"><ele>7.0</ele><time>2026-05-03T12:09:41Z</time></trkpt><trkpt lat="39.164447807456746" lon="16.064298322193284"><ele>7.0</ele><time>2026-05-03T12:09:42Z</time></trkpt><trkpt lat="39.164616163374944" lon="16.064295902766315"><ele>7.0</ele><time>2026-05-03T12:09:43Z</time></trkpt><trkpt lat="39.16477788405446" lon="16.064295347138007"><ele>7.0</ele><time>2026-05-03T12:09:44Z</time></trkpt><trkpt lat="39.16491291498831" lon="16.064289894765302"><ele>7.0</ele><time>2026-05-03T12:09:45Z</time></trkpt><trkpt lat="39.165039869657264" lon="16.064306605351746"><ele>7.0</ele><time>2026-05-03T12:09:46Z</time></trkpt><trkpt lat="39.16517068817289" lon="16.064285363918614"><ele>7.0</ele><time>2026-05-03T12:09:47Z</time></trkpt><trkpt lat="39.165309565363444" lon="16.06429343225471"><ele>7.0</ele><time>2026-05-03T12:09:48Z</time></trkpt><trkpt lat="39.16545576537678" lon="16.064289201826714"><ele>7.0</ele><time>2026-05-03T12:09:49Z</time></trkpt><trkpt lat="39.16560575528592" lon="16.064290063834292"><ele>7.0</ele><time>2026-05-03T12:09:50Z</time></trkpt><trkpt lat="39.16574779867619" lon="16.064305646059932"><ele>7.0</ele><time>2026-05-03T12:09:51Z</time></trkpt><trkpt lat="39.165881145653785" lon="16.06428364450668"><ele>7.0</ele><time>2026-05-03T12:09:52Z</time></trkpt><trkpt lat="39.16602245151615" lon="16.064282863804088"><ele>7.0</ele><time>2026-05-03T12:09:53Z</time></trkpt><trkpt lat="39.16617298317692" lon="16.064286066648304"><ele>7.0</ele><time>2026-05-03T12:09:54Z</time></trkpt><trkpt lat="39.16632291119798" lon="16.064288718195385"><ele>7.0</ele><time>2026-05-03T12:09:55Z</time></trkpt><trkpt lat="39.16647577474928" lon="16.064288611634847"><ele>7.0</ele><time>2026-05-03T12:09:56Z</time></trkpt><trkpt lat="39.16662715722343" lon="16.064282848860973"><ele>7.0</ele><time>2026-05-03T12:09:57Z</time></trkpt><trkpt lat="39.16677941853104" lon="16.064278835170285"><ele>6.666666666666667</ele><time>2026-05-03T12:09:58Z</time></trkpt><trkpt lat="39.166930055519465" lon="16.064275802851522"><ele>6.333333333333334</ele><time>2026-05-03T12:09:59Z</time></trkpt><trkpt lat="39.1670853385206" lon="16.064269571755666"><ele>6.0</ele><time>2026-05-03T12:10:00Z</time></trkpt><trkpt lat="39.16724113985628" lon="16.064267516461598"><ele>5.75</ele><time>2026-05-03T12:10:01Z</time></trkpt><trkpt lat="39.167394918578495" lon="16.06426430469331"><ele>5.5</ele><time>2026-05-03T12:10:02Z</time></trkpt><trkpt lat="39.16753453448041" lon="16.06426247714143"><ele>5.25</ele><time>2026-05-03T12:10:03Z</time></trkpt><trkpt lat="39.1676587965033" lon="16.06425677897834"><ele>5.0</ele><time>2026-05-03T12:10:04Z</time></trkpt><trkpt lat="39.167781765281866" lon="16.064251579270373"><ele>5.0</ele><time>2026-05-03T12:10:05Z</time></trkpt><trkpt lat="39.167913532237044" lon="16.064271197738865"><ele>5.0</ele><time>2026-05-03T12:10:06Z</time></trkpt><trkpt lat="39.168055424561835" lon="16.06425740696622"><ele>5.0</ele><time>2026-05-03T12:10:07Z</time></trkpt><trkpt lat="39.16820124735003" lon="16.064249273488066"><ele>5.0</ele><time>2026-05-03T12:10:08Z</time></trkpt><trkpt lat="39.16833993234398" lon="16.064226629266503"><ele>5.5</ele><time>2026-05-03T12:10:09Z</time></trkpt><trkpt lat="39.16847361023573" lon="16.064238349118344"><ele>6.0</ele><time>2026-05-03T12:10:10Z</time></trkpt><trkpt lat="39.16859387012024" lon="16.064235944729518"><ele>6.5</ele><time>2026-05-03T12:10:11Z</time></trkpt><trkpt lat="39.168705918957485" lon="16.06423476664892"><ele>7.0</ele><time>2026-05-03T12:10:12Z</time></trkpt><trkpt lat="39.16881477100924" lon="16.064213591248514"><ele>7.000000000000001</ele><time>2026-05-03T12:10:13Z</time></trkpt><trkpt lat="39.16891067029943" lon="16.06421043949859"><ele>7.0</ele><time>2026-05-03T12:10:14Z</time></trkpt><trkpt lat="39.16899799113041" lon="16.064205538528956"><ele>7.0</ele><time>2026-05-03T12:10:15Z</time></trkpt><trkpt lat="39.16909753721477" lon="16.06415729181974"><ele>7.0</ele><time>2026-05-03T12:10:17Z</time></trkpt><trkpt lat="39.16913627289603" lon="16.06409281119567"><ele>7.000000000000001</ele><time>2026-05-03T12:10:19Z</time></trkpt><trkpt lat="39.16920072369447" lon="16.064065356151893"><ele>7.0</ele><time>2026-05-03T12:10:22Z</time></trkpt><trkpt lat="39.16924539764917" lon="16.064293684634507"><ele>8.0</ele><time>2026-05-03T12:10:26Z</time></trkpt><trkpt lat="39.169243206167735" lon="16.064376935230914"><ele>8.0</ele><time>2026-05-03T12:10:29Z</time></trkpt></trkseg></trk></gpx>